<?xml version="1.0" encoding="UTF-8" standalone="no" ?>
<gpx xmlns="http://www.topografix.com/GPX/1/1" xmlns:xsi="http://www.w3.org/2001/XMLSchema-instance" xsi:schemaLocation="http://www.topografix.com/GPX/1/1 http://www.topografix.com/GPX/1/1/gpx.xsd" version="1.1" creator="VisuGPX - https://www.visugpx.com">
  <metadata>
    <name>Mont Rosset par les Pars</name>
    <desc><![CDATA[Randonnée qui démarre sur une route enneigée , ce qui permet de se chauffer tranquille. belle vue au sommet (sur la Pierra Mentaz entre autre) . ]]></desc>
  </metadata>
  <trk>
    <name><![CDATA[Mont Rosset par les Pars_1]]></name>
    <trkseg>
      <trkpt lat="45.59172" lon="6.67076">
        <ele>1407</ele>
        <time>2016-02-06T07:47:28Z</time>
      </trkpt>
      <trkpt lat="45.59197" lon="6.67093">
        <ele>1423</ele>
        <time>2016-02-06T07:57:50Z</time>
      </trkpt>
      <trkpt lat="45.59198" lon="6.67093">
        <ele>1423</ele>
        <time>2016-02-06T07:57:51Z</time>
      </trkpt>
      <trkpt lat="45.59199" lon="6.67096">
        <ele>1424</ele>
        <time>2016-02-06T07:57:52Z</time>
      </trkpt>
      <trkpt lat="45.59202" lon="6.67096">
        <ele>1424</ele>
        <time>2016-02-06T07:57:54Z</time>
      </trkpt>
      <trkpt lat="45.59203" lon="6.67095">
        <ele>1424</ele>
        <time>2016-02-06T07:57:55Z</time>
      </trkpt>
      <trkpt lat="45.59205" lon="6.67095">
        <ele>1424</ele>
        <time>2016-02-06T07:57:57Z</time>
      </trkpt>
      <trkpt lat="45.59206" lon="6.67093">
        <ele>1424</ele>
        <time>2016-02-06T07:58:00Z</time>
      </trkpt>
      <trkpt lat="45.59208" lon="6.67092">
        <ele>1424</ele>
        <time>2016-02-06T07:58:01Z</time>
      </trkpt>
      <trkpt lat="45.59209" lon="6.6709">
        <ele>1424</ele>
        <time>2016-02-06T07:58:02Z</time>
      </trkpt>
      <trkpt lat="45.5921" lon="6.67089">
        <ele>1424</ele>
        <time>2016-02-06T07:58:03Z</time>
      </trkpt>
      <trkpt lat="45.59212" lon="6.67089">
        <ele>1424</ele>
        <time>2016-02-06T07:58:04Z</time>
      </trkpt>
      <trkpt lat="45.59214" lon="6.67088">
        <ele>1424</ele>
        <time>2016-02-06T07:58:05Z</time>
      </trkpt>
      <trkpt lat="45.59215" lon="6.67087">
        <ele>1424</ele>
        <time>2016-02-06T07:58:06Z</time>
      </trkpt>
      <trkpt lat="45.59217" lon="6.67087">
        <ele>1424</ele>
        <time>2016-02-06T07:58:07Z</time>
      </trkpt>
      <trkpt lat="45.59218" lon="6.67086">
        <ele>1424</ele>
        <time>2016-02-06T07:58:08Z</time>
      </trkpt>
      <trkpt lat="45.5922" lon="6.67086">
        <ele>1424</ele>
        <time>2016-02-06T07:58:11Z</time>
      </trkpt>
      <trkpt lat="45.59222" lon="6.67086">
        <ele>1423</ele>
        <time>2016-02-06T07:58:12Z</time>
      </trkpt>
      <trkpt lat="45.59224" lon="6.67085">
        <ele>1423</ele>
        <time>2016-02-06T07:58:14Z</time>
      </trkpt>
      <trkpt lat="45.59224" lon="6.67083">
        <ele>1406</ele>
        <time>2016-02-06T07:58:15Z</time>
      </trkpt>
      <trkpt lat="45.59225" lon="6.67083">
        <ele>1407</ele>
        <time>2016-02-06T07:58:16Z</time>
      </trkpt>
      <trkpt lat="45.59228" lon="6.67081">
        <ele>1407</ele>
        <time>2016-02-06T07:58:18Z</time>
      </trkpt>
      <trkpt lat="45.59229" lon="6.67083">
        <ele>1408</ele>
        <time>2016-02-06T07:58:19Z</time>
      </trkpt>
      <trkpt lat="45.59231" lon="6.67084">
        <ele>1422</ele>
        <time>2016-02-06T07:58:20Z</time>
      </trkpt>
      <trkpt lat="45.59232" lon="6.67085">
        <ele>1422</ele>
        <time>2016-02-06T07:58:21Z</time>
      </trkpt>
      <trkpt lat="45.59233" lon="6.67086">
        <ele>1422</ele>
        <time>2016-02-06T07:58:22Z</time>
      </trkpt>
      <trkpt lat="45.59235" lon="6.67084">
        <ele>1422</ele>
        <time>2016-02-06T07:58:27Z</time>
      </trkpt>
      <trkpt lat="45.59237" lon="6.67085">
        <ele>1422</ele>
        <time>2016-02-06T07:58:29Z</time>
      </trkpt>
      <trkpt lat="45.59238" lon="6.67084">
        <ele>1421</ele>
        <time>2016-02-06T07:58:30Z</time>
      </trkpt>
      <trkpt lat="45.5924" lon="6.67082">
        <ele>1411</ele>
        <time>2016-02-06T07:58:31Z</time>
      </trkpt>
      <trkpt lat="45.5924" lon="6.67079">
        <ele>1410</ele>
        <time>2016-02-06T07:58:32Z</time>
      </trkpt>
      <trkpt lat="45.5924" lon="6.67077">
        <ele>1410</ele>
        <time>2016-02-06T07:58:33Z</time>
      </trkpt>
      <trkpt lat="45.5924" lon="6.67076">
        <ele>1410</ele>
        <time>2016-02-06T07:58:34Z</time>
      </trkpt>
      <trkpt lat="45.59242" lon="6.67072">
        <ele>1409</ele>
        <time>2016-02-06T07:58:36Z</time>
      </trkpt>
      <trkpt lat="45.59242" lon="6.6707">
        <ele>1408</ele>
        <time>2016-02-06T07:58:37Z</time>
      </trkpt>
      <trkpt lat="45.59243" lon="6.67071">
        <ele>1409</ele>
        <time>2016-02-06T07:58:39Z</time>
      </trkpt>
      <trkpt lat="45.59246" lon="6.67074">
        <ele>1411</ele>
        <time>2016-02-06T07:58:42Z</time>
      </trkpt>
      <trkpt lat="45.59248" lon="6.67072">
        <ele>1410</ele>
        <time>2016-02-06T07:58:44Z</time>
      </trkpt>
      <trkpt lat="45.59249" lon="6.67073">
        <ele>1411</ele>
        <time>2016-02-06T07:58:45Z</time>
      </trkpt>
      <trkpt lat="45.59251" lon="6.67075">
        <ele>1413</ele>
        <time>2016-02-06T07:58:46Z</time>
      </trkpt>
      <trkpt lat="45.59253" lon="6.67072">
        <ele>1411</ele>
        <time>2016-02-06T07:58:48Z</time>
      </trkpt>
      <trkpt lat="45.59254" lon="6.67071">
        <ele>1411</ele>
        <time>2016-02-06T07:58:50Z</time>
      </trkpt>
      <trkpt lat="45.59256" lon="6.67071">
        <ele>1410</ele>
        <time>2016-02-06T07:58:51Z</time>
      </trkpt>
      <trkpt lat="45.59258" lon="6.67069">
        <ele>1410</ele>
        <time>2016-02-06T07:58:53Z</time>
      </trkpt>
      <trkpt lat="45.59259" lon="6.67069">
        <ele>1409</ele>
        <time>2016-02-06T07:58:56Z</time>
      </trkpt>
      <trkpt lat="45.59261" lon="6.67069">
        <ele>1409</ele>
        <time>2016-02-06T07:58:58Z</time>
      </trkpt>
      <trkpt lat="45.59264" lon="6.6707">
        <ele>1409</ele>
        <time>2016-02-06T07:58:59Z</time>
      </trkpt>
      <trkpt lat="45.59265" lon="6.6707">
        <ele>1409</ele>
        <time>2016-02-06T07:59:01Z</time>
      </trkpt>
      <trkpt lat="45.59266" lon="6.6707">
        <ele>1409</ele>
        <time>2016-02-06T07:59:03Z</time>
      </trkpt>
      <trkpt lat="45.59269" lon="6.67071">
        <ele>1409</ele>
        <time>2016-02-06T07:59:05Z</time>
      </trkpt>
      <trkpt lat="45.5927" lon="6.67073">
        <ele>1409</ele>
        <time>2016-02-06T07:59:06Z</time>
      </trkpt>
      <trkpt lat="45.59274" lon="6.67075">
        <ele>1409</ele>
        <time>2016-02-06T07:59:08Z</time>
      </trkpt>
      <trkpt lat="45.59276" lon="6.67076">
        <ele>1409</ele>
        <time>2016-02-06T07:59:09Z</time>
      </trkpt>
      <trkpt lat="45.59277" lon="6.67075">
        <ele>1408</ele>
        <time>2016-02-06T07:59:10Z</time>
      </trkpt>
      <trkpt lat="45.59278" lon="6.67074">
        <ele>1408</ele>
        <time>2016-02-06T07:59:11Z</time>
      </trkpt>
      <trkpt lat="45.5928" lon="6.67073">
        <ele>1408</ele>
        <time>2016-02-06T07:59:12Z</time>
      </trkpt>
      <trkpt lat="45.5928" lon="6.6707">
        <ele>1407</ele>
        <time>2016-02-06T07:59:13Z</time>
      </trkpt>
      <trkpt lat="45.59281" lon="6.67071">
        <ele>1407</ele>
        <time>2016-02-06T07:59:14Z</time>
      </trkpt>
      <trkpt lat="45.59282" lon="6.67069">
        <ele>1407</ele>
        <time>2016-02-06T07:59:15Z</time>
      </trkpt>
      <trkpt lat="45.59283" lon="6.67069">
        <ele>1407</ele>
        <time>2016-02-06T07:59:16Z</time>
      </trkpt>
      <trkpt lat="45.59285" lon="6.67068">
        <ele>1407</ele>
        <time>2016-02-06T07:59:18Z</time>
      </trkpt>
      <trkpt lat="45.59287" lon="6.6707">
        <ele>1407</ele>
        <time>2016-02-06T07:59:19Z</time>
      </trkpt>
      <trkpt lat="45.5929" lon="6.67071">
        <ele>1407</ele>
        <time>2016-02-06T07:59:22Z</time>
      </trkpt>
      <trkpt lat="45.59291" lon="6.67072">
        <ele>1407</ele>
        <time>2016-02-06T07:59:23Z</time>
      </trkpt>
      <trkpt lat="45.59292" lon="6.67071">
        <ele>1407</ele>
        <time>2016-02-06T07:59:24Z</time>
      </trkpt>
      <trkpt lat="45.59293" lon="6.67069">
        <ele>1407</ele>
        <time>2016-02-06T07:59:27Z</time>
      </trkpt>
      <trkpt lat="45.59295" lon="6.67069">
        <ele>1407</ele>
        <time>2016-02-06T07:59:28Z</time>
      </trkpt>
      <trkpt lat="45.59297" lon="6.6707">
        <ele>1408</ele>
        <time>2016-02-06T07:59:29Z</time>
      </trkpt>
      <trkpt lat="45.59299" lon="6.67069">
        <ele>1408</ele>
        <time>2016-02-06T07:59:30Z</time>
      </trkpt>
      <trkpt lat="45.59301" lon="6.6707">
        <ele>1408</ele>
        <time>2016-02-06T07:59:31Z</time>
      </trkpt>
      <trkpt lat="45.59303" lon="6.67071">
        <ele>1408</ele>
        <time>2016-02-06T07:59:32Z</time>
      </trkpt>
      <trkpt lat="45.59304" lon="6.67069">
        <ele>1408</ele>
        <time>2016-02-06T07:59:33Z</time>
      </trkpt>
      <trkpt lat="45.59305" lon="6.67067">
        <ele>1408</ele>
        <time>2016-02-06T07:59:34Z</time>
      </trkpt>
      <trkpt lat="45.59307" lon="6.67067">
        <ele>1408</ele>
        <time>2016-02-06T07:59:35Z</time>
      </trkpt>
      <trkpt lat="45.59308" lon="6.67068">
        <ele>1408</ele>
        <time>2016-02-06T07:59:36Z</time>
      </trkpt>
      <trkpt lat="45.59308" lon="6.67071">
        <ele>1409</ele>
        <time>2016-02-06T07:59:38Z</time>
      </trkpt>
      <trkpt lat="45.59306" lon="6.67073">
        <ele>1409</ele>
        <time>2016-02-06T07:59:39Z</time>
      </trkpt>
      <trkpt lat="45.59305" lon="6.67074">
        <ele>1409</ele>
        <time>2016-02-06T07:59:40Z</time>
      </trkpt>
      <trkpt lat="45.59306" lon="6.67078">
        <ele>1410</ele>
        <time>2016-02-06T07:59:41Z</time>
      </trkpt>
      <trkpt lat="45.59304" lon="6.67078">
        <ele>1409</ele>
        <time>2016-02-06T07:59:43Z</time>
      </trkpt>
      <trkpt lat="45.59305" lon="6.67076">
        <ele>1409</ele>
        <time>2016-02-06T07:59:44Z</time>
      </trkpt>
      <trkpt lat="45.59303" lon="6.67075">
        <ele>1409</ele>
        <time>2016-02-06T07:59:47Z</time>
      </trkpt>
      <trkpt lat="45.59302" lon="6.67076">
        <ele>1409</ele>
        <time>2016-02-06T07:59:50Z</time>
      </trkpt>
      <trkpt lat="45.59301" lon="6.67078">
        <ele>1409</ele>
        <time>2016-02-06T07:59:52Z</time>
      </trkpt>
      <trkpt lat="45.593" lon="6.67076">
        <ele>1409</ele>
        <time>2016-02-06T08:00:03Z</time>
      </trkpt>
      <trkpt lat="45.593" lon="6.67074">
        <ele>1408</ele>
        <time>2016-02-06T08:00:07Z</time>
      </trkpt>
      <trkpt lat="45.59299" lon="6.67073">
        <ele>1408</ele>
        <time>2016-02-06T08:00:08Z</time>
      </trkpt>
      <trkpt lat="45.59299" lon="6.67071">
        <ele>1408</ele>
        <time>2016-02-06T08:00:09Z</time>
      </trkpt>
      <trkpt lat="45.593" lon="6.67069">
        <ele>1408</ele>
        <time>2016-02-06T08:00:11Z</time>
      </trkpt>
      <trkpt lat="45.59299" lon="6.67067">
        <ele>1407</ele>
        <time>2016-02-06T08:00:12Z</time>
      </trkpt>
      <trkpt lat="45.59298" lon="6.67066">
        <ele>1407</ele>
        <time>2016-02-06T08:00:14Z</time>
      </trkpt>
      <trkpt lat="45.59299" lon="6.67065">
        <ele>1407</ele>
        <time>2016-02-06T08:00:18Z</time>
      </trkpt>
      <trkpt lat="45.593" lon="6.67066">
        <ele>1407</ele>
        <time>2016-02-06T08:00:24Z</time>
      </trkpt>
      <trkpt lat="45.59301" lon="6.67067">
        <ele>1407</ele>
        <time>2016-02-06T08:00:27Z</time>
      </trkpt>
      <trkpt lat="45.59303" lon="6.67067">
        <ele>1408</ele>
        <time>2016-02-06T08:00:31Z</time>
      </trkpt>
      <trkpt lat="45.59304" lon="6.67068">
        <ele>1408</ele>
        <time>2016-02-06T08:00:33Z</time>
      </trkpt>
      <trkpt lat="45.59306" lon="6.67068">
        <ele>1408</ele>
        <time>2016-02-06T08:00:35Z</time>
      </trkpt>
      <trkpt lat="45.59307" lon="6.67069">
        <ele>1409</ele>
        <time>2016-02-06T08:00:37Z</time>
      </trkpt>
      <trkpt lat="45.59308" lon="6.67071">
        <ele>1409</ele>
        <time>2016-02-06T08:00:41Z</time>
      </trkpt>
      <trkpt lat="45.59309" lon="6.67073">
        <ele>1409</ele>
        <time>2016-02-06T08:00:45Z</time>
      </trkpt>
      <trkpt lat="45.5931" lon="6.67075">
        <ele>1410</ele>
        <time>2016-02-06T08:00:49Z</time>
      </trkpt>
      <trkpt lat="45.5931" lon="6.67077">
        <ele>1410</ele>
        <time>2016-02-06T08:00:53Z</time>
      </trkpt>
      <trkpt lat="45.5931" lon="6.67078">
        <ele>1410</ele>
        <time>2016-02-06T08:00:54Z</time>
      </trkpt>
      <trkpt lat="45.59309" lon="6.67082">
        <ele>1411</ele>
        <time>2016-02-06T08:00:56Z</time>
      </trkpt>
      <trkpt lat="45.59309" lon="6.67086">
        <ele>1429</ele>
        <time>2016-02-06T08:00:57Z</time>
      </trkpt>
      <trkpt lat="45.59308" lon="6.67088">
        <ele>1429</ele>
        <time>2016-02-06T08:00:58Z</time>
      </trkpt>
      <trkpt lat="45.59307" lon="6.6709">
        <ele>1430</ele>
        <time>2016-02-06T08:00:59Z</time>
      </trkpt>
      <trkpt lat="45.59309" lon="6.67087">
        <ele>1429</ele>
        <time>2016-02-06T08:01:04Z</time>
      </trkpt>
      <trkpt lat="45.59309" lon="6.67085">
        <ele>1429</ele>
        <time>2016-02-06T08:01:05Z</time>
      </trkpt>
      <trkpt lat="45.59309" lon="6.67083">
        <ele>1411</ele>
        <time>2016-02-06T08:01:06Z</time>
      </trkpt>
      <trkpt lat="45.59307" lon="6.67081">
        <ele>1410</ele>
        <time>2016-02-06T08:01:07Z</time>
      </trkpt>
      <trkpt lat="45.59309" lon="6.67079">
        <ele>1410</ele>
        <time>2016-02-06T08:01:09Z</time>
      </trkpt>
      <trkpt lat="45.59308" lon="6.67077">
        <ele>1410</ele>
        <time>2016-02-06T08:01:14Z</time>
      </trkpt>
      <trkpt lat="45.59306" lon="6.67074">
        <ele>1409</ele>
        <time>2016-02-06T08:01:17Z</time>
      </trkpt>
      <trkpt lat="45.59305" lon="6.67073">
        <ele>1409</ele>
        <time>2016-02-06T08:01:19Z</time>
      </trkpt>
      <trkpt lat="45.59307" lon="6.67073">
        <ele>1409</ele>
        <time>2016-02-06T08:01:22Z</time>
      </trkpt>
      <trkpt lat="45.59308" lon="6.67074">
        <ele>1409</ele>
        <time>2016-02-06T08:01:23Z</time>
      </trkpt>
      <trkpt lat="45.59309" lon="6.67076">
        <ele>1410</ele>
        <time>2016-02-06T08:01:24Z</time>
      </trkpt>
      <trkpt lat="45.59309" lon="6.67077">
        <ele>1410</ele>
        <time>2016-02-06T08:01:26Z</time>
      </trkpt>
      <trkpt lat="45.59308" lon="6.67078">
        <ele>1410</ele>
        <time>2016-02-06T08:01:27Z</time>
      </trkpt>
      <trkpt lat="45.59309" lon="6.6708">
        <ele>1410</ele>
        <time>2016-02-06T08:01:29Z</time>
      </trkpt>
      <trkpt lat="45.59311" lon="6.6708">
        <ele>1411</ele>
        <time>2016-02-06T08:01:31Z</time>
      </trkpt>
      <trkpt lat="45.59311" lon="6.67079">
        <ele>1411</ele>
        <time>2016-02-06T08:01:34Z</time>
      </trkpt>
      <trkpt lat="45.59308" lon="6.67077">
        <ele>1410</ele>
        <time>2016-02-06T08:01:36Z</time>
      </trkpt>
      <trkpt lat="45.59307" lon="6.67077">
        <ele>1410</ele>
        <time>2016-02-06T08:01:38Z</time>
      </trkpt>
      <trkpt lat="45.5931" lon="6.67076">
        <ele>1410</ele>
        <time>2016-02-06T08:01:42Z</time>
      </trkpt>
      <trkpt lat="45.59309" lon="6.67073">
        <ele>1410</ele>
        <time>2016-02-06T08:01:44Z</time>
      </trkpt>
      <trkpt lat="45.59311" lon="6.67073">
        <ele>1410</ele>
        <time>2016-02-06T08:01:45Z</time>
      </trkpt>
      <trkpt lat="45.59311" lon="6.67071">
        <ele>1409</ele>
        <time>2016-02-06T08:01:47Z</time>
      </trkpt>
      <trkpt lat="45.59312" lon="6.67069">
        <ele>1409</ele>
        <time>2016-02-06T08:01:49Z</time>
      </trkpt>
      <trkpt lat="45.59311" lon="6.67068">
        <ele>1409</ele>
        <time>2016-02-06T08:01:51Z</time>
      </trkpt>
      <trkpt lat="45.59312" lon="6.6707">
        <ele>1409</ele>
        <time>2016-02-06T08:01:56Z</time>
      </trkpt>
      <trkpt lat="45.59311" lon="6.67073">
        <ele>1410</ele>
        <time>2016-02-06T08:02:01Z</time>
      </trkpt>
      <trkpt lat="45.59312" lon="6.67074">
        <ele>1410</ele>
        <time>2016-02-06T08:02:02Z</time>
      </trkpt>
      <trkpt lat="45.59312" lon="6.67073">
        <ele>1410</ele>
        <time>2016-02-06T08:02:04Z</time>
      </trkpt>
      <trkpt lat="45.59311" lon="6.6707">
        <ele>1409</ele>
        <time>2016-02-06T08:02:06Z</time>
      </trkpt>
      <trkpt lat="45.59311" lon="6.67069">
        <ele>1409</ele>
        <time>2016-02-06T08:02:09Z</time>
      </trkpt>
      <trkpt lat="45.59313" lon="6.67068">
        <ele>1409</ele>
        <time>2016-02-06T08:02:10Z</time>
      </trkpt>
      <trkpt lat="45.59315" lon="6.67069">
        <ele>1410</ele>
        <time>2016-02-06T08:02:12Z</time>
      </trkpt>
      <trkpt lat="45.59316" lon="6.67069">
        <ele>1410</ele>
        <time>2016-02-06T08:02:13Z</time>
      </trkpt>
      <trkpt lat="45.59317" lon="6.67071">
        <ele>1411</ele>
        <time>2016-02-06T08:02:15Z</time>
      </trkpt>
      <trkpt lat="45.5932" lon="6.67073">
        <ele>1412</ele>
        <time>2016-02-06T08:02:20Z</time>
      </trkpt>
      <trkpt lat="45.59321" lon="6.67074">
        <ele>1412</ele>
        <time>2016-02-06T08:02:21Z</time>
      </trkpt>
      <trkpt lat="45.59323" lon="6.67075">
        <ele>1413</ele>
        <time>2016-02-06T08:02:22Z</time>
      </trkpt>
      <trkpt lat="45.59324" lon="6.67077">
        <ele>1414</ele>
        <time>2016-02-06T08:02:23Z</time>
      </trkpt>
      <trkpt lat="45.59327" lon="6.67078">
        <ele>1416</ele>
        <time>2016-02-06T08:02:25Z</time>
      </trkpt>
      <trkpt lat="45.59328" lon="6.67078">
        <ele>1416</ele>
        <time>2016-02-06T08:02:26Z</time>
      </trkpt>
      <trkpt lat="45.59329" lon="6.67078">
        <ele>1417</ele>
        <time>2016-02-06T08:02:27Z</time>
      </trkpt>
      <trkpt lat="45.5933" lon="6.67078">
        <ele>1417</ele>
        <time>2016-02-06T08:02:28Z</time>
      </trkpt>
      <trkpt lat="45.59332" lon="6.67078">
        <ele>1417</ele>
        <time>2016-02-06T08:02:33Z</time>
      </trkpt>
      <trkpt lat="45.59334" lon="6.67077">
        <ele>1418</ele>
        <time>2016-02-06T08:02:34Z</time>
      </trkpt>
      <trkpt lat="45.59336" lon="6.67077">
        <ele>1418</ele>
        <time>2016-02-06T08:02:36Z</time>
      </trkpt>
      <trkpt lat="45.59337" lon="6.67076">
        <ele>1418</ele>
        <time>2016-02-06T08:02:39Z</time>
      </trkpt>
      <trkpt lat="45.59338" lon="6.67075">
        <ele>1417</ele>
        <time>2016-02-06T08:02:40Z</time>
      </trkpt>
      <trkpt lat="45.5934" lon="6.67074">
        <ele>1417</ele>
        <time>2016-02-06T08:02:42Z</time>
      </trkpt>
      <trkpt lat="45.59342" lon="6.67075">
        <ele>1417</ele>
        <time>2016-02-06T08:02:47Z</time>
      </trkpt>
      <trkpt lat="45.59343" lon="6.67073">
        <ele>1416</ele>
        <time>2016-02-06T08:02:48Z</time>
      </trkpt>
      <trkpt lat="45.59345" lon="6.67073">
        <ele>1416</ele>
        <time>2016-02-06T08:02:49Z</time>
      </trkpt>
      <trkpt lat="45.59346" lon="6.67075">
        <ele>1416</ele>
        <time>2016-02-06T08:02:51Z</time>
      </trkpt>
      <trkpt lat="45.59348" lon="6.67078">
        <ele>1416</ele>
        <time>2016-02-06T08:02:55Z</time>
      </trkpt>
      <trkpt lat="45.5935" lon="6.67076">
        <ele>1416</ele>
        <time>2016-02-06T08:02:56Z</time>
      </trkpt>
      <trkpt lat="45.59349" lon="6.67077">
        <ele>1416</ele>
        <time>2016-02-06T08:02:58Z</time>
      </trkpt>
      <trkpt lat="45.59349" lon="6.67079">
        <ele>1416</ele>
        <time>2016-02-06T08:03:00Z</time>
      </trkpt>
      <trkpt lat="45.59351" lon="6.67079">
        <ele>1416</ele>
        <time>2016-02-06T08:03:02Z</time>
      </trkpt>
      <trkpt lat="45.59353" lon="6.67079">
        <ele>1416</ele>
        <time>2016-02-06T08:03:03Z</time>
      </trkpt>
      <trkpt lat="45.59354" lon="6.67079">
        <ele>1416</ele>
        <time>2016-02-06T08:03:05Z</time>
      </trkpt>
      <trkpt lat="45.59355" lon="6.6708">
        <ele>1415</ele>
        <time>2016-02-06T08:03:06Z</time>
      </trkpt>
      <trkpt lat="45.59357" lon="6.6708">
        <ele>1415</ele>
        <time>2016-02-06T08:03:07Z</time>
      </trkpt>
      <trkpt lat="45.59358" lon="6.67082">
        <ele>1415</ele>
        <time>2016-02-06T08:03:08Z</time>
      </trkpt>
      <trkpt lat="45.59359" lon="6.67081">
        <ele>1415</ele>
        <time>2016-02-06T08:03:10Z</time>
      </trkpt>
      <trkpt lat="45.5936" lon="6.67079">
        <ele>1415</ele>
        <time>2016-02-06T08:03:11Z</time>
      </trkpt>
      <trkpt lat="45.59361" lon="6.67077">
        <ele>1415</ele>
        <time>2016-02-06T08:03:12Z</time>
      </trkpt>
      <trkpt lat="45.59364" lon="6.67078">
        <ele>1415</ele>
        <time>2016-02-06T08:03:13Z</time>
      </trkpt>
      <trkpt lat="45.59366" lon="6.67078">
        <ele>1415</ele>
        <time>2016-02-06T08:03:15Z</time>
      </trkpt>
      <trkpt lat="45.59366" lon="6.67077">
        <ele>1415</ele>
        <time>2016-02-06T08:03:16Z</time>
      </trkpt>
      <trkpt lat="45.59368" lon="6.67077">
        <ele>1415</ele>
        <time>2016-02-06T08:03:18Z</time>
      </trkpt>
      <trkpt lat="45.59369" lon="6.67076">
        <ele>1415</ele>
        <time>2016-02-06T08:03:19Z</time>
      </trkpt>
      <trkpt lat="45.59371" lon="6.67078">
        <ele>1415</ele>
        <time>2016-02-06T08:03:21Z</time>
      </trkpt>
      <trkpt lat="45.59372" lon="6.6708">
        <ele>1415</ele>
        <time>2016-02-06T08:03:25Z</time>
      </trkpt>
      <trkpt lat="45.59373" lon="6.67078">
        <ele>1415</ele>
        <time>2016-02-06T08:03:28Z</time>
      </trkpt>
      <trkpt lat="45.59374" lon="6.67078">
        <ele>1415</ele>
        <time>2016-02-06T08:03:29Z</time>
      </trkpt>
      <trkpt lat="45.59375" lon="6.67079">
        <ele>1415</ele>
        <time>2016-02-06T08:03:31Z</time>
      </trkpt>
      <trkpt lat="45.59377" lon="6.6708">
        <ele>1416</ele>
        <time>2016-02-06T08:03:33Z</time>
      </trkpt>
      <trkpt lat="45.59378" lon="6.67078">
        <ele>1416</ele>
        <time>2016-02-06T08:03:36Z</time>
      </trkpt>
      <trkpt lat="45.59381" lon="6.67079">
        <ele>1416</ele>
        <time>2016-02-06T08:03:38Z</time>
      </trkpt>
      <trkpt lat="45.59383" lon="6.67078">
        <ele>1416</ele>
        <time>2016-02-06T08:03:40Z</time>
      </trkpt>
      <trkpt lat="45.59384" lon="6.67078">
        <ele>1416</ele>
        <time>2016-02-06T08:03:41Z</time>
      </trkpt>
      <trkpt lat="45.59386" lon="6.67079">
        <ele>1417</ele>
        <time>2016-02-06T08:03:42Z</time>
      </trkpt>
      <trkpt lat="45.59388" lon="6.67079">
        <ele>1417</ele>
        <time>2016-02-06T08:03:44Z</time>
      </trkpt>
      <trkpt lat="45.59389" lon="6.6708">
        <ele>1418</ele>
        <time>2016-02-06T08:03:45Z</time>
      </trkpt>
      <trkpt lat="45.59391" lon="6.6708">
        <ele>1418</ele>
        <time>2016-02-06T08:03:48Z</time>
      </trkpt>
      <trkpt lat="45.59393" lon="6.67081">
        <ele>1419</ele>
        <time>2016-02-06T08:03:53Z</time>
      </trkpt>
      <trkpt lat="45.59396" lon="6.67082">
        <ele>1419</ele>
        <time>2016-02-06T08:03:55Z</time>
      </trkpt>
      <trkpt lat="45.59397" lon="6.67083">
        <ele>1420</ele>
        <time>2016-02-06T08:03:56Z</time>
      </trkpt>
      <trkpt lat="45.59396" lon="6.67082">
        <ele>1420</ele>
        <time>2016-02-06T08:03:58Z</time>
      </trkpt>
      <trkpt lat="45.59398" lon="6.67082">
        <ele>1420</ele>
        <time>2016-02-06T08:04:01Z</time>
      </trkpt>
      <trkpt lat="45.59399" lon="6.67082">
        <ele>1420</ele>
        <time>2016-02-06T08:04:04Z</time>
      </trkpt>
      <trkpt lat="45.59398" lon="6.67081">
        <ele>1420</ele>
        <time>2016-02-06T08:04:07Z</time>
      </trkpt>
      <trkpt lat="45.59399" lon="6.67081">
        <ele>1420</ele>
        <time>2016-02-06T08:04:10Z</time>
      </trkpt>
      <trkpt lat="45.59399" lon="6.67079">
        <ele>1420</ele>
        <time>2016-02-06T08:04:13Z</time>
      </trkpt>
      <trkpt lat="45.59398" lon="6.67076">
        <ele>1419</ele>
        <time>2016-02-06T08:04:17Z</time>
      </trkpt>
      <trkpt lat="45.59397" lon="6.67074">
        <ele>1419</ele>
        <time>2016-02-06T08:04:20Z</time>
      </trkpt>
      <trkpt lat="45.59397" lon="6.67072">
        <ele>1418</ele>
        <time>2016-02-06T08:04:21Z</time>
      </trkpt>
      <trkpt lat="45.59399" lon="6.67071">
        <ele>1418</ele>
        <time>2016-02-06T08:04:23Z</time>
      </trkpt>
      <trkpt lat="45.594" lon="6.67068">
        <ele>1418</ele>
        <time>2016-02-06T08:04:25Z</time>
      </trkpt>
      <trkpt lat="45.59401" lon="6.67069">
        <ele>1419</ele>
        <time>2016-02-06T08:04:26Z</time>
      </trkpt>
      <trkpt lat="45.59403" lon="6.6707">
        <ele>1419</ele>
        <time>2016-02-06T08:04:27Z</time>
      </trkpt>
      <trkpt lat="45.59404" lon="6.67069">
        <ele>1419</ele>
        <time>2016-02-06T08:04:29Z</time>
      </trkpt>
      <trkpt lat="45.59406" lon="6.67069">
        <ele>1420</ele>
        <time>2016-02-06T08:04:31Z</time>
      </trkpt>
      <trkpt lat="45.59406" lon="6.67067">
        <ele>1419</ele>
        <time>2016-02-06T08:04:33Z</time>
      </trkpt>
      <trkpt lat="45.59406" lon="6.67066">
        <ele>1419</ele>
        <time>2016-02-06T08:04:35Z</time>
      </trkpt>
      <trkpt lat="45.59406" lon="6.67064">
        <ele>1418</ele>
        <time>2016-02-06T08:04:36Z</time>
      </trkpt>
      <trkpt lat="45.59407" lon="6.67062">
        <ele>1418</ele>
        <time>2016-02-06T08:04:38Z</time>
      </trkpt>
      <trkpt lat="45.59407" lon="6.67061">
        <ele>1417</ele>
        <time>2016-02-06T08:04:42Z</time>
      </trkpt>
      <trkpt lat="45.59406" lon="6.67064">
        <ele>1418</ele>
        <time>2016-02-06T08:04:45Z</time>
      </trkpt>
      <trkpt lat="45.59404" lon="6.67065">
        <ele>1418</ele>
        <time>2016-02-06T08:04:47Z</time>
      </trkpt>
      <trkpt lat="45.59406" lon="6.67064">
        <ele>1418</ele>
        <time>2016-02-06T08:04:51Z</time>
      </trkpt>
      <trkpt lat="45.59407" lon="6.67064">
        <ele>1418</ele>
        <time>2016-02-06T08:04:53Z</time>
      </trkpt>
      <trkpt lat="45.59409" lon="6.67063">
        <ele>1418</ele>
        <time>2016-02-06T08:04:55Z</time>
      </trkpt>
      <trkpt lat="45.5941" lon="6.67062">
        <ele>1418</ele>
        <time>2016-02-06T08:04:57Z</time>
      </trkpt>
      <trkpt lat="45.59411" lon="6.67061">
        <ele>1418</ele>
        <time>2016-02-06T08:04:59Z</time>
      </trkpt>
      <trkpt lat="45.59413" lon="6.6706">
        <ele>1417</ele>
        <time>2016-02-06T08:05:02Z</time>
      </trkpt>
      <trkpt lat="45.59415" lon="6.6706">
        <ele>1418</ele>
        <time>2016-02-06T08:05:04Z</time>
      </trkpt>
      <trkpt lat="45.59416" lon="6.67059">
        <ele>1417</ele>
        <time>2016-02-06T08:05:06Z</time>
      </trkpt>
      <trkpt lat="45.59417" lon="6.67058">
        <ele>1425</ele>
        <time>2016-02-06T08:05:08Z</time>
      </trkpt>
      <trkpt lat="45.59419" lon="6.67058">
        <ele>1425</ele>
        <time>2016-02-06T08:05:11Z</time>
      </trkpt>
      <trkpt lat="45.5942" lon="6.67056">
        <ele>1425</ele>
        <time>2016-02-06T08:05:14Z</time>
      </trkpt>
      <trkpt lat="45.5942" lon="6.67054">
        <ele>1424</ele>
        <time>2016-02-06T08:05:15Z</time>
      </trkpt>
      <trkpt lat="45.59422" lon="6.67054">
        <ele>1424</ele>
        <time>2016-02-06T08:05:18Z</time>
      </trkpt>
      <trkpt lat="45.59424" lon="6.67053">
        <ele>1424</ele>
        <time>2016-02-06T08:05:20Z</time>
      </trkpt>
      <trkpt lat="45.59425" lon="6.67053">
        <ele>1424</ele>
        <time>2016-02-06T08:05:21Z</time>
      </trkpt>
      <trkpt lat="45.59426" lon="6.67051">
        <ele>1424</ele>
        <time>2016-02-06T08:05:23Z</time>
      </trkpt>
      <trkpt lat="45.59427" lon="6.6705">
        <ele>1423</ele>
        <time>2016-02-06T08:05:25Z</time>
      </trkpt>
      <trkpt lat="45.59429" lon="6.67047">
        <ele>1423</ele>
        <time>2016-02-06T08:05:27Z</time>
      </trkpt>
      <trkpt lat="45.5943" lon="6.67045">
        <ele>1423</ele>
        <time>2016-02-06T08:05:29Z</time>
      </trkpt>
      <trkpt lat="45.59431" lon="6.67045">
        <ele>1423</ele>
        <time>2016-02-06T08:05:30Z</time>
      </trkpt>
      <trkpt lat="45.59434" lon="6.67044">
        <ele>1423</ele>
        <time>2016-02-06T08:05:32Z</time>
      </trkpt>
      <trkpt lat="45.59436" lon="6.67043">
        <ele>1423</ele>
        <time>2016-02-06T08:05:34Z</time>
      </trkpt>
      <trkpt lat="45.59438" lon="6.67041">
        <ele>1422</ele>
        <time>2016-02-06T08:05:36Z</time>
      </trkpt>
      <trkpt lat="45.59439" lon="6.67041">
        <ele>1422</ele>
        <time>2016-02-06T08:05:37Z</time>
      </trkpt>
      <trkpt lat="45.5944" lon="6.67042">
        <ele>1423</ele>
        <time>2016-02-06T08:05:38Z</time>
      </trkpt>
      <trkpt lat="45.59441" lon="6.67041">
        <ele>1423</ele>
        <time>2016-02-06T08:05:39Z</time>
      </trkpt>
      <trkpt lat="45.59443" lon="6.67042">
        <ele>1423</ele>
        <time>2016-02-06T08:05:41Z</time>
      </trkpt>
      <trkpt lat="45.59445" lon="6.67041">
        <ele>1423</ele>
        <time>2016-02-06T08:05:43Z</time>
      </trkpt>
      <trkpt lat="45.59447" lon="6.67038">
        <ele>1423</ele>
        <time>2016-02-06T08:05:45Z</time>
      </trkpt>
      <trkpt lat="45.59449" lon="6.67038">
        <ele>1423</ele>
        <time>2016-02-06T08:05:47Z</time>
      </trkpt>
      <trkpt lat="45.59451" lon="6.67037">
        <ele>1423</ele>
        <time>2016-02-06T08:05:49Z</time>
      </trkpt>
      <trkpt lat="45.59452" lon="6.67037">
        <ele>1423</ele>
        <time>2016-02-06T08:05:50Z</time>
      </trkpt>
      <trkpt lat="45.59454" lon="6.67038">
        <ele>1423</ele>
        <time>2016-02-06T08:05:53Z</time>
      </trkpt>
      <trkpt lat="45.59456" lon="6.67037">
        <ele>1423</ele>
        <time>2016-02-06T08:05:54Z</time>
      </trkpt>
      <trkpt lat="45.59457" lon="6.67037">
        <ele>1424</ele>
        <time>2016-02-06T08:05:55Z</time>
      </trkpt>
      <trkpt lat="45.59459" lon="6.67037">
        <ele>1424</ele>
        <time>2016-02-06T08:05:56Z</time>
      </trkpt>
      <trkpt lat="45.59461" lon="6.67036">
        <ele>1424</ele>
        <time>2016-02-06T08:05:58Z</time>
      </trkpt>
      <trkpt lat="45.59462" lon="6.67035">
        <ele>1424</ele>
        <time>2016-02-06T08:05:59Z</time>
      </trkpt>
      <trkpt lat="45.59464" lon="6.67034">
        <ele>1424</ele>
        <time>2016-02-06T08:06:01Z</time>
      </trkpt>
      <trkpt lat="45.59466" lon="6.67033">
        <ele>1424</ele>
        <time>2016-02-06T08:06:03Z</time>
      </trkpt>
      <trkpt lat="45.59467" lon="6.67032">
        <ele>1424</ele>
        <time>2016-02-06T08:06:04Z</time>
      </trkpt>
      <trkpt lat="45.59468" lon="6.67032">
        <ele>1424</ele>
        <time>2016-02-06T08:06:06Z</time>
      </trkpt>
      <trkpt lat="45.5947" lon="6.6703">
        <ele>1424</ele>
        <time>2016-02-06T08:06:08Z</time>
      </trkpt>
      <trkpt lat="45.5947" lon="6.67028">
        <ele>1423</ele>
        <time>2016-02-06T08:06:09Z</time>
      </trkpt>
      <trkpt lat="45.59472" lon="6.67026">
        <ele>1423</ele>
        <time>2016-02-06T08:06:11Z</time>
      </trkpt>
      <trkpt lat="45.59473" lon="6.67026">
        <ele>1423</ele>
        <time>2016-02-06T08:06:12Z</time>
      </trkpt>
      <trkpt lat="45.59475" lon="6.67025">
        <ele>1423</ele>
        <time>2016-02-06T08:06:14Z</time>
      </trkpt>
      <trkpt lat="45.59476" lon="6.67023">
        <ele>1423</ele>
        <time>2016-02-06T08:06:16Z</time>
      </trkpt>
      <trkpt lat="45.59478" lon="6.67022">
        <ele>1423</ele>
        <time>2016-02-06T08:06:17Z</time>
      </trkpt>
      <trkpt lat="45.59479" lon="6.67022">
        <ele>1423</ele>
        <time>2016-02-06T08:06:18Z</time>
      </trkpt>
      <trkpt lat="45.5948" lon="6.67022">
        <ele>1423</ele>
        <time>2016-02-06T08:06:19Z</time>
      </trkpt>
      <trkpt lat="45.59482" lon="6.6702">
        <ele>1423</ele>
        <time>2016-02-06T08:06:21Z</time>
      </trkpt>
      <trkpt lat="45.59483" lon="6.67017">
        <ele>1422</ele>
        <time>2016-02-06T08:06:23Z</time>
      </trkpt>
      <trkpt lat="45.59483" lon="6.67015">
        <ele>1422</ele>
        <time>2016-02-06T08:06:25Z</time>
      </trkpt>
      <trkpt lat="45.59484" lon="6.67014">
        <ele>1422</ele>
        <time>2016-02-06T08:06:26Z</time>
      </trkpt>
      <trkpt lat="45.59486" lon="6.67012">
        <ele>1421</ele>
        <time>2016-02-06T08:06:28Z</time>
      </trkpt>
      <trkpt lat="45.59486" lon="6.6701">
        <ele>1421</ele>
        <time>2016-02-06T08:06:29Z</time>
      </trkpt>
      <trkpt lat="45.59488" lon="6.67009">
        <ele>1421</ele>
        <time>2016-02-06T08:06:31Z</time>
      </trkpt>
      <trkpt lat="45.5949" lon="6.67008">
        <ele>1421</ele>
        <time>2016-02-06T08:06:33Z</time>
      </trkpt>
      <trkpt lat="45.59491" lon="6.67007">
        <ele>1420</ele>
        <time>2016-02-06T08:06:35Z</time>
      </trkpt>
      <trkpt lat="45.59493" lon="6.67006">
        <ele>1420</ele>
        <time>2016-02-06T08:06:37Z</time>
      </trkpt>
      <trkpt lat="45.59495" lon="6.67007">
        <ele>1420</ele>
        <time>2016-02-06T08:06:39Z</time>
      </trkpt>
      <trkpt lat="45.59497" lon="6.67006">
        <ele>1420</ele>
        <time>2016-02-06T08:06:41Z</time>
      </trkpt>
      <trkpt lat="45.59498" lon="6.67005">
        <ele>1419</ele>
        <time>2016-02-06T08:06:42Z</time>
      </trkpt>
      <trkpt lat="45.59501" lon="6.67004">
        <ele>1422</ele>
        <time>2016-02-06T08:06:44Z</time>
      </trkpt>
      <trkpt lat="45.59502" lon="6.67003">
        <ele>1421</ele>
        <time>2016-02-06T08:06:46Z</time>
      </trkpt>
      <trkpt lat="45.59503" lon="6.67003">
        <ele>1422</ele>
        <time>2016-02-06T08:06:48Z</time>
      </trkpt>
      <trkpt lat="45.59504" lon="6.67002">
        <ele>1422</ele>
        <time>2016-02-06T08:06:50Z</time>
      </trkpt>
      <trkpt lat="45.59506" lon="6.67">
        <ele>1423</ele>
        <time>2016-02-06T08:06:51Z</time>
      </trkpt>
      <trkpt lat="45.59507" lon="6.66999">
        <ele>1419</ele>
        <time>2016-02-06T08:06:52Z</time>
      </trkpt>
      <trkpt lat="45.59508" lon="6.66999">
        <ele>1419</ele>
        <time>2016-02-06T08:06:53Z</time>
      </trkpt>
      <trkpt lat="45.5951" lon="6.66997">
        <ele>1419</ele>
        <time>2016-02-06T08:06:54Z</time>
      </trkpt>
      <trkpt lat="45.59511" lon="6.66997">
        <ele>1419</ele>
        <time>2016-02-06T08:06:55Z</time>
      </trkpt>
      <trkpt lat="45.59512" lon="6.66996">
        <ele>1420</ele>
        <time>2016-02-06T08:06:56Z</time>
      </trkpt>
      <trkpt lat="45.59513" lon="6.66996">
        <ele>1420</ele>
        <time>2016-02-06T08:06:58Z</time>
      </trkpt>
      <trkpt lat="45.59515" lon="6.66996">
        <ele>1420</ele>
        <time>2016-02-06T08:06:59Z</time>
      </trkpt>
      <trkpt lat="45.59516" lon="6.66996">
        <ele>1420</ele>
        <time>2016-02-06T08:07:02Z</time>
      </trkpt>
      <trkpt lat="45.59518" lon="6.66996">
        <ele>1420</ele>
        <time>2016-02-06T08:07:04Z</time>
      </trkpt>
      <trkpt lat="45.5952" lon="6.66995">
        <ele>1420</ele>
        <time>2016-02-06T08:07:06Z</time>
      </trkpt>
      <trkpt lat="45.59521" lon="6.66995">
        <ele>1420</ele>
        <time>2016-02-06T08:07:08Z</time>
      </trkpt>
      <trkpt lat="45.59523" lon="6.66995">
        <ele>1421</ele>
        <time>2016-02-06T08:07:09Z</time>
      </trkpt>
      <trkpt lat="45.59524" lon="6.66995">
        <ele>1421</ele>
        <time>2016-02-06T08:07:10Z</time>
      </trkpt>
      <trkpt lat="45.59525" lon="6.66993">
        <ele>1421</ele>
        <time>2016-02-06T08:07:12Z</time>
      </trkpt>
      <trkpt lat="45.59526" lon="6.66993">
        <ele>1421</ele>
        <time>2016-02-06T08:07:14Z</time>
      </trkpt>
      <trkpt lat="45.59528" lon="6.66993">
        <ele>1421</ele>
        <time>2016-02-06T08:07:16Z</time>
      </trkpt>
      <trkpt lat="45.59529" lon="6.66994">
        <ele>1421</ele>
        <time>2016-02-06T08:07:18Z</time>
      </trkpt>
      <trkpt lat="45.59531" lon="6.66995">
        <ele>1422</ele>
        <time>2016-02-06T08:07:20Z</time>
      </trkpt>
      <trkpt lat="45.59533" lon="6.66996">
        <ele>1422</ele>
        <time>2016-02-06T08:07:22Z</time>
      </trkpt>
      <trkpt lat="45.59534" lon="6.66997">
        <ele>1422</ele>
        <time>2016-02-06T08:07:24Z</time>
      </trkpt>
      <trkpt lat="45.59535" lon="6.66997">
        <ele>1422</ele>
        <time>2016-02-06T08:07:26Z</time>
      </trkpt>
      <trkpt lat="45.59536" lon="6.66999">
        <ele>1422</ele>
        <time>2016-02-06T08:07:27Z</time>
      </trkpt>
      <trkpt lat="45.59538" lon="6.67">
        <ele>1434</ele>
        <time>2016-02-06T08:07:29Z</time>
      </trkpt>
      <trkpt lat="45.5954" lon="6.67">
        <ele>1435</ele>
        <time>2016-02-06T08:07:31Z</time>
      </trkpt>
      <trkpt lat="45.59541" lon="6.67">
        <ele>1435</ele>
        <time>2016-02-06T08:07:34Z</time>
      </trkpt>
      <trkpt lat="45.59543" lon="6.67001">
        <ele>1435</ele>
        <time>2016-02-06T08:07:35Z</time>
      </trkpt>
      <trkpt lat="45.59544" lon="6.67002">
        <ele>1435</ele>
        <time>2016-02-06T08:07:36Z</time>
      </trkpt>
      <trkpt lat="45.59545" lon="6.67003">
        <ele>1435</ele>
        <time>2016-02-06T08:07:38Z</time>
      </trkpt>
      <trkpt lat="45.59548" lon="6.67004">
        <ele>1436</ele>
        <time>2016-02-06T08:07:40Z</time>
      </trkpt>
      <trkpt lat="45.59549" lon="6.67005">
        <ele>1436</ele>
        <time>2016-02-06T08:07:41Z</time>
      </trkpt>
      <trkpt lat="45.59552" lon="6.67006">
        <ele>1436</ele>
        <time>2016-02-06T08:07:43Z</time>
      </trkpt>
      <trkpt lat="45.59554" lon="6.67006">
        <ele>1436</ele>
        <time>2016-02-06T08:07:45Z</time>
      </trkpt>
      <trkpt lat="45.59555" lon="6.67005">
        <ele>1436</ele>
        <time>2016-02-06T08:07:46Z</time>
      </trkpt>
      <trkpt lat="45.59557" lon="6.67005">
        <ele>1436</ele>
        <time>2016-02-06T08:07:48Z</time>
      </trkpt>
      <trkpt lat="45.59558" lon="6.67005">
        <ele>1436</ele>
        <time>2016-02-06T08:07:50Z</time>
      </trkpt>
      <trkpt lat="45.59559" lon="6.67005">
        <ele>1436</ele>
        <time>2016-02-06T08:07:51Z</time>
      </trkpt>
      <trkpt lat="45.59561" lon="6.67005">
        <ele>1436</ele>
        <time>2016-02-06T08:07:52Z</time>
      </trkpt>
      <trkpt lat="45.59562" lon="6.67006">
        <ele>1436</ele>
        <time>2016-02-06T08:07:53Z</time>
      </trkpt>
      <trkpt lat="45.59563" lon="6.67006">
        <ele>1436</ele>
        <time>2016-02-06T08:07:54Z</time>
      </trkpt>
      <trkpt lat="45.59565" lon="6.67006">
        <ele>1436</ele>
        <time>2016-02-06T08:07:55Z</time>
      </trkpt>
      <trkpt lat="45.59566" lon="6.67006">
        <ele>1436</ele>
        <time>2016-02-06T08:07:56Z</time>
      </trkpt>
      <trkpt lat="45.59568" lon="6.67005">
        <ele>1435</ele>
        <time>2016-02-06T08:07:58Z</time>
      </trkpt>
      <trkpt lat="45.59569" lon="6.67004">
        <ele>1435</ele>
        <time>2016-02-06T08:07:59Z</time>
      </trkpt>
      <trkpt lat="45.59571" lon="6.67004">
        <ele>1435</ele>
        <time>2016-02-06T08:08:01Z</time>
      </trkpt>
      <trkpt lat="45.59573" lon="6.67004">
        <ele>1435</ele>
        <time>2016-02-06T08:08:02Z</time>
      </trkpt>
      <trkpt lat="45.59575" lon="6.67004">
        <ele>1434</ele>
        <time>2016-02-06T08:08:04Z</time>
      </trkpt>
      <trkpt lat="45.59576" lon="6.67002">
        <ele>1434</ele>
        <time>2016-02-06T08:08:06Z</time>
      </trkpt>
      <trkpt lat="45.59577" lon="6.67002">
        <ele>1433</ele>
        <time>2016-02-06T08:08:07Z</time>
      </trkpt>
      <trkpt lat="45.59578" lon="6.67001">
        <ele>1433</ele>
        <time>2016-02-06T08:08:08Z</time>
      </trkpt>
      <trkpt lat="45.5958" lon="6.67">
        <ele>1430</ele>
        <time>2016-02-06T08:08:10Z</time>
      </trkpt>
      <trkpt lat="45.59581" lon="6.66999">
        <ele>1430</ele>
        <time>2016-02-06T08:08:11Z</time>
      </trkpt>
      <trkpt lat="45.59583" lon="6.66998">
        <ele>1430</ele>
        <time>2016-02-06T08:08:13Z</time>
      </trkpt>
      <trkpt lat="45.59585" lon="6.66998">
        <ele>1432</ele>
        <time>2016-02-06T08:08:15Z</time>
      </trkpt>
      <trkpt lat="45.59586" lon="6.66997">
        <ele>1432</ele>
        <time>2016-02-06T08:08:17Z</time>
      </trkpt>
      <trkpt lat="45.59587" lon="6.66997">
        <ele>1433</ele>
        <time>2016-02-06T08:08:18Z</time>
      </trkpt>
      <trkpt lat="45.5959" lon="6.66997">
        <ele>1433</ele>
        <time>2016-02-06T08:08:20Z</time>
      </trkpt>
      <trkpt lat="45.59591" lon="6.66999">
        <ele>1433</ele>
        <time>2016-02-06T08:08:21Z</time>
      </trkpt>
      <trkpt lat="45.59592" lon="6.67">
        <ele>1433</ele>
        <time>2016-02-06T08:08:22Z</time>
      </trkpt>
      <trkpt lat="45.59594" lon="6.67">
        <ele>1438</ele>
        <time>2016-02-06T08:08:24Z</time>
      </trkpt>
      <trkpt lat="45.59595" lon="6.67001">
        <ele>1439</ele>
        <time>2016-02-06T08:08:26Z</time>
      </trkpt>
      <trkpt lat="45.59596" lon="6.67002">
        <ele>1439</ele>
        <time>2016-02-06T08:08:27Z</time>
      </trkpt>
      <trkpt lat="45.59598" lon="6.67004">
        <ele>1440</ele>
        <time>2016-02-06T08:08:29Z</time>
      </trkpt>
      <trkpt lat="45.59599" lon="6.67006">
        <ele>1441</ele>
        <time>2016-02-06T08:08:33Z</time>
      </trkpt>
      <trkpt lat="45.596" lon="6.67006">
        <ele>1441</ele>
        <time>2016-02-06T08:08:34Z</time>
      </trkpt>
      <trkpt lat="45.59602" lon="6.67007">
        <ele>1442</ele>
        <time>2016-02-06T08:08:35Z</time>
      </trkpt>
      <trkpt lat="45.59603" lon="6.67007">
        <ele>1442</ele>
        <time>2016-02-06T08:08:37Z</time>
      </trkpt>
      <trkpt lat="45.59605" lon="6.67009">
        <ele>1443</ele>
        <time>2016-02-06T08:08:40Z</time>
      </trkpt>
      <trkpt lat="45.59607" lon="6.6701">
        <ele>1444</ele>
        <time>2016-02-06T08:08:42Z</time>
      </trkpt>
      <trkpt lat="45.59608" lon="6.6701">
        <ele>1444</ele>
        <time>2016-02-06T08:08:43Z</time>
      </trkpt>
      <trkpt lat="45.5961" lon="6.67011">
        <ele>1445</ele>
        <time>2016-02-06T08:08:45Z</time>
      </trkpt>
      <trkpt lat="45.59612" lon="6.67011">
        <ele>1445</ele>
        <time>2016-02-06T08:08:46Z</time>
      </trkpt>
      <trkpt lat="45.59613" lon="6.67013">
        <ele>1445</ele>
        <time>2016-02-06T08:08:48Z</time>
      </trkpt>
      <trkpt lat="45.59615" lon="6.67011">
        <ele>1446</ele>
        <time>2016-02-06T08:08:50Z</time>
      </trkpt>
      <trkpt lat="45.59616" lon="6.67011">
        <ele>1446</ele>
        <time>2016-02-06T08:08:52Z</time>
      </trkpt>
      <trkpt lat="45.59618" lon="6.6701">
        <ele>1446</ele>
        <time>2016-02-06T08:08:53Z</time>
      </trkpt>
      <trkpt lat="45.59619" lon="6.6701">
        <ele>1446</ele>
        <time>2016-02-06T08:08:54Z</time>
      </trkpt>
      <trkpt lat="45.59621" lon="6.6701">
        <ele>1446</ele>
        <time>2016-02-06T08:08:55Z</time>
      </trkpt>
      <trkpt lat="45.59622" lon="6.67008">
        <ele>1446</ele>
        <time>2016-02-06T08:08:57Z</time>
      </trkpt>
      <trkpt lat="45.59624" lon="6.67008">
        <ele>1447</ele>
        <time>2016-02-06T08:08:58Z</time>
      </trkpt>
      <trkpt lat="45.59627" lon="6.6701">
        <ele>1447</ele>
        <time>2016-02-06T08:09:00Z</time>
      </trkpt>
      <trkpt lat="45.59629" lon="6.67009">
        <ele>1447</ele>
        <time>2016-02-06T08:09:01Z</time>
      </trkpt>
      <trkpt lat="45.59631" lon="6.67009">
        <ele>1447</ele>
        <time>2016-02-06T08:09:02Z</time>
      </trkpt>
      <trkpt lat="45.59632" lon="6.6701">
        <ele>1447</ele>
        <time>2016-02-06T08:09:03Z</time>
      </trkpt>
      <trkpt lat="45.59634" lon="6.67011">
        <ele>1447</ele>
        <time>2016-02-06T08:09:05Z</time>
      </trkpt>
      <trkpt lat="45.59635" lon="6.67013">
        <ele>1448</ele>
        <time>2016-02-06T08:09:07Z</time>
      </trkpt>
      <trkpt lat="45.59637" lon="6.67012">
        <ele>1448</ele>
        <time>2016-02-06T08:09:10Z</time>
      </trkpt>
      <trkpt lat="45.59638" lon="6.67009">
        <ele>1447</ele>
        <time>2016-02-06T08:09:12Z</time>
      </trkpt>
      <trkpt lat="45.5964" lon="6.67005">
        <ele>1447</ele>
        <time>2016-02-06T08:09:14Z</time>
      </trkpt>
      <trkpt lat="45.59642" lon="6.67003">
        <ele>1447</ele>
        <time>2016-02-06T08:09:15Z</time>
      </trkpt>
      <trkpt lat="45.59642" lon="6.67001">
        <ele>1447</ele>
        <time>2016-02-06T08:09:16Z</time>
      </trkpt>
      <trkpt lat="45.59642" lon="6.66999">
        <ele>1441</ele>
        <time>2016-02-06T08:09:17Z</time>
      </trkpt>
      <trkpt lat="45.59642" lon="6.66997">
        <ele>1441</ele>
        <time>2016-02-06T08:09:18Z</time>
      </trkpt>
      <trkpt lat="45.59643" lon="6.66994">
        <ele>1441</ele>
        <time>2016-02-06T08:09:20Z</time>
      </trkpt>
      <trkpt lat="45.59642" lon="6.66993">
        <ele>1441</ele>
        <time>2016-02-06T08:09:21Z</time>
      </trkpt>
      <trkpt lat="45.59642" lon="6.6699">
        <ele>1441</ele>
        <time>2016-02-06T08:09:23Z</time>
      </trkpt>
      <trkpt lat="45.59642" lon="6.66988">
        <ele>1441</ele>
        <time>2016-02-06T08:09:24Z</time>
      </trkpt>
      <trkpt lat="45.59641" lon="6.66985">
        <ele>1441</ele>
        <time>2016-02-06T08:09:26Z</time>
      </trkpt>
      <trkpt lat="45.5964" lon="6.66983">
        <ele>1441</ele>
        <time>2016-02-06T08:09:27Z</time>
      </trkpt>
      <trkpt lat="45.5964" lon="6.66982">
        <ele>1441</ele>
        <time>2016-02-06T08:09:28Z</time>
      </trkpt>
      <trkpt lat="45.59642" lon="6.66982">
        <ele>1441</ele>
        <time>2016-02-06T08:09:29Z</time>
      </trkpt>
      <trkpt lat="45.59641" lon="6.66979">
        <ele>1441</ele>
        <time>2016-02-06T08:09:34Z</time>
      </trkpt>
      <trkpt lat="45.59641" lon="6.66978">
        <ele>1441</ele>
        <time>2016-02-06T08:09:35Z</time>
      </trkpt>
      <trkpt lat="45.5964" lon="6.66976">
        <ele>1441</ele>
        <time>2016-02-06T08:09:36Z</time>
      </trkpt>
      <trkpt lat="45.59638" lon="6.66972">
        <ele>1441</ele>
        <time>2016-02-06T08:09:38Z</time>
      </trkpt>
      <trkpt lat="45.59637" lon="6.6697">
        <ele>1440</ele>
        <time>2016-02-06T08:09:40Z</time>
      </trkpt>
      <trkpt lat="45.59637" lon="6.66968">
        <ele>1440</ele>
        <time>2016-02-06T08:09:42Z</time>
      </trkpt>
      <trkpt lat="45.59636" lon="6.66965">
        <ele>1440</ele>
        <time>2016-02-06T08:09:44Z</time>
      </trkpt>
      <trkpt lat="45.59636" lon="6.66963">
        <ele>1440</ele>
        <time>2016-02-06T08:09:47Z</time>
      </trkpt>
      <trkpt lat="45.59636" lon="6.66962">
        <ele>1441</ele>
        <time>2016-02-06T08:09:49Z</time>
      </trkpt>
      <trkpt lat="45.59635" lon="6.66959">
        <ele>1441</ele>
        <time>2016-02-06T08:09:51Z</time>
      </trkpt>
      <trkpt lat="45.59634" lon="6.66957">
        <ele>1441</ele>
        <time>2016-02-06T08:09:53Z</time>
      </trkpt>
      <trkpt lat="45.59634" lon="6.66954">
        <ele>1441</ele>
        <time>2016-02-06T08:09:55Z</time>
      </trkpt>
      <trkpt lat="45.59633" lon="6.66951">
        <ele>1441</ele>
        <time>2016-02-06T08:09:56Z</time>
      </trkpt>
      <trkpt lat="45.59633" lon="6.66949">
        <ele>1441</ele>
        <time>2016-02-06T08:09:57Z</time>
      </trkpt>
      <trkpt lat="45.59632" lon="6.66947">
        <ele>1441</ele>
        <time>2016-02-06T08:09:58Z</time>
      </trkpt>
      <trkpt lat="45.59632" lon="6.66945">
        <ele>1441</ele>
        <time>2016-02-06T08:09:59Z</time>
      </trkpt>
      <trkpt lat="45.59632" lon="6.66944">
        <ele>1441</ele>
        <time>2016-02-06T08:10:00Z</time>
      </trkpt>
      <trkpt lat="45.59632" lon="6.66942">
        <ele>1441</ele>
        <time>2016-02-06T08:10:01Z</time>
      </trkpt>
      <trkpt lat="45.59631" lon="6.6694">
        <ele>1441</ele>
        <time>2016-02-06T08:10:02Z</time>
      </trkpt>
      <trkpt lat="45.59631" lon="6.66938">
        <ele>1441</ele>
        <time>2016-02-06T08:10:03Z</time>
      </trkpt>
      <trkpt lat="45.59632" lon="6.66936">
        <ele>1441</ele>
        <time>2016-02-06T08:10:05Z</time>
      </trkpt>
      <trkpt lat="45.59631" lon="6.66934">
        <ele>1441</ele>
        <time>2016-02-06T08:10:06Z</time>
      </trkpt>
      <trkpt lat="45.59632" lon="6.66933">
        <ele>1441</ele>
        <time>2016-02-06T08:10:07Z</time>
      </trkpt>
      <trkpt lat="45.59631" lon="6.66929">
        <ele>1441</ele>
        <time>2016-02-06T08:10:09Z</time>
      </trkpt>
      <trkpt lat="45.59631" lon="6.66928">
        <ele>1441</ele>
        <time>2016-02-06T08:10:10Z</time>
      </trkpt>
      <trkpt lat="45.59631" lon="6.66926">
        <ele>1441</ele>
        <time>2016-02-06T08:10:11Z</time>
      </trkpt>
      <trkpt lat="45.59631" lon="6.66924">
        <ele>1441</ele>
        <time>2016-02-06T08:10:12Z</time>
      </trkpt>
      <trkpt lat="45.59631" lon="6.66923">
        <ele>1441</ele>
        <time>2016-02-06T08:10:13Z</time>
      </trkpt>
      <trkpt lat="45.59631" lon="6.66921">
        <ele>1442</ele>
        <time>2016-02-06T08:10:14Z</time>
      </trkpt>
      <trkpt lat="45.59631" lon="6.66919">
        <ele>1442</ele>
        <time>2016-02-06T08:10:15Z</time>
      </trkpt>
      <trkpt lat="45.59631" lon="6.66917">
        <ele>1442</ele>
        <time>2016-02-06T08:10:16Z</time>
      </trkpt>
      <trkpt lat="45.59632" lon="6.66914">
        <ele>1446</ele>
        <time>2016-02-06T08:10:18Z</time>
      </trkpt>
      <trkpt lat="45.59632" lon="6.66913">
        <ele>1446</ele>
        <time>2016-02-06T08:10:19Z</time>
      </trkpt>
      <trkpt lat="45.59633" lon="6.66912">
        <ele>1446</ele>
        <time>2016-02-06T08:10:20Z</time>
      </trkpt>
      <trkpt lat="45.59634" lon="6.66911">
        <ele>1447</ele>
        <time>2016-02-06T08:10:21Z</time>
      </trkpt>
      <trkpt lat="45.59635" lon="6.6691">
        <ele>1447</ele>
        <time>2016-02-06T08:10:22Z</time>
      </trkpt>
      <trkpt lat="45.59636" lon="6.66909">
        <ele>1447</ele>
        <time>2016-02-06T08:10:23Z</time>
      </trkpt>
      <trkpt lat="45.59635" lon="6.66907">
        <ele>1447</ele>
        <time>2016-02-06T08:10:24Z</time>
      </trkpt>
      <trkpt lat="45.59635" lon="6.66905">
        <ele>1447</ele>
        <time>2016-02-06T08:10:25Z</time>
      </trkpt>
      <trkpt lat="45.59636" lon="6.66904">
        <ele>1447</ele>
        <time>2016-02-06T08:10:27Z</time>
      </trkpt>
      <trkpt lat="45.59636" lon="6.66902">
        <ele>1447</ele>
        <time>2016-02-06T08:10:28Z</time>
      </trkpt>
      <trkpt lat="45.59636" lon="6.66899">
        <ele>1447</ele>
        <time>2016-02-06T08:10:30Z</time>
      </trkpt>
      <trkpt lat="45.59636" lon="6.66897">
        <ele>1447</ele>
        <time>2016-02-06T08:10:31Z</time>
      </trkpt>
      <trkpt lat="45.59636" lon="6.66895">
        <ele>1447</ele>
        <time>2016-02-06T08:10:33Z</time>
      </trkpt>
      <trkpt lat="45.59636" lon="6.66893">
        <ele>1447</ele>
        <time>2016-02-06T08:10:34Z</time>
      </trkpt>
      <trkpt lat="45.59636" lon="6.66892">
        <ele>1447</ele>
        <time>2016-02-06T08:10:35Z</time>
      </trkpt>
      <trkpt lat="45.59636" lon="6.66888">
        <ele>1447</ele>
        <time>2016-02-06T08:10:37Z</time>
      </trkpt>
      <trkpt lat="45.59635" lon="6.66886">
        <ele>1447</ele>
        <time>2016-02-06T08:10:38Z</time>
      </trkpt>
      <trkpt lat="45.59635" lon="6.66884">
        <ele>1447</ele>
        <time>2016-02-06T08:10:39Z</time>
      </trkpt>
      <trkpt lat="45.59635" lon="6.66882">
        <ele>1447</ele>
        <time>2016-02-06T08:10:42Z</time>
      </trkpt>
      <trkpt lat="45.59634" lon="6.6688">
        <ele>1447</ele>
        <time>2016-02-06T08:10:44Z</time>
      </trkpt>
      <trkpt lat="45.59636" lon="6.66877">
        <ele>1447</ele>
        <time>2016-02-06T08:10:46Z</time>
      </trkpt>
      <trkpt lat="45.59635" lon="6.66876">
        <ele>1447</ele>
        <time>2016-02-06T08:10:47Z</time>
      </trkpt>
      <trkpt lat="45.59637" lon="6.66875">
        <ele>1448</ele>
        <time>2016-02-06T08:10:49Z</time>
      </trkpt>
      <trkpt lat="45.59637" lon="6.66873">
        <ele>1448</ele>
        <time>2016-02-06T08:10:53Z</time>
      </trkpt>
      <trkpt lat="45.59637" lon="6.66872">
        <ele>1448</ele>
        <time>2016-02-06T08:10:54Z</time>
      </trkpt>
      <trkpt lat="45.59636" lon="6.66869">
        <ele>1448</ele>
        <time>2016-02-06T08:10:56Z</time>
      </trkpt>
      <trkpt lat="45.59636" lon="6.66867">
        <ele>1448</ele>
        <time>2016-02-06T08:10:57Z</time>
      </trkpt>
      <trkpt lat="45.59636" lon="6.66865">
        <ele>1448</ele>
        <time>2016-02-06T08:10:59Z</time>
      </trkpt>
      <trkpt lat="45.59637" lon="6.66862">
        <ele>1448</ele>
        <time>2016-02-06T08:11:01Z</time>
      </trkpt>
      <trkpt lat="45.59636" lon="6.6686">
        <ele>1448</ele>
        <time>2016-02-06T08:11:02Z</time>
      </trkpt>
      <trkpt lat="45.59635" lon="6.66857">
        <ele>1448</ele>
        <time>2016-02-06T08:11:03Z</time>
      </trkpt>
      <trkpt lat="45.59634" lon="6.66854">
        <ele>1449</ele>
        <time>2016-02-06T08:11:05Z</time>
      </trkpt>
      <trkpt lat="45.59634" lon="6.66853">
        <ele>1449</ele>
        <time>2016-02-06T08:11:06Z</time>
      </trkpt>
      <trkpt lat="45.59634" lon="6.66851">
        <ele>1449</ele>
        <time>2016-02-06T08:11:07Z</time>
      </trkpt>
      <trkpt lat="45.59635" lon="6.6685">
        <ele>1449</ele>
        <time>2016-02-06T08:11:08Z</time>
      </trkpt>
      <trkpt lat="45.59636" lon="6.66847">
        <ele>1449</ele>
        <time>2016-02-06T08:11:10Z</time>
      </trkpt>
      <trkpt lat="45.59636" lon="6.66845">
        <ele>1449</ele>
        <time>2016-02-06T08:11:12Z</time>
      </trkpt>
      <trkpt lat="45.59636" lon="6.66843">
        <ele>1449</ele>
        <time>2016-02-06T08:11:15Z</time>
      </trkpt>
      <trkpt lat="45.59636" lon="6.66841">
        <ele>1449</ele>
        <time>2016-02-06T08:11:18Z</time>
      </trkpt>
      <trkpt lat="45.59635" lon="6.66839">
        <ele>1449</ele>
        <time>2016-02-06T08:11:19Z</time>
      </trkpt>
      <trkpt lat="45.59634" lon="6.66837">
        <ele>1449</ele>
        <time>2016-02-06T08:11:20Z</time>
      </trkpt>
      <trkpt lat="45.59634" lon="6.66835">
        <ele>1449</ele>
        <time>2016-02-06T08:11:21Z</time>
      </trkpt>
      <trkpt lat="45.59633" lon="6.66833">
        <ele>1459</ele>
        <time>2016-02-06T08:11:22Z</time>
      </trkpt>
      <trkpt lat="45.59633" lon="6.66831">
        <ele>1459</ele>
        <time>2016-02-06T08:11:23Z</time>
      </trkpt>
      <trkpt lat="45.59632" lon="6.66828">
        <ele>1459</ele>
        <time>2016-02-06T08:11:25Z</time>
      </trkpt>
      <trkpt lat="45.59634" lon="6.66828">
        <ele>1459</ele>
        <time>2016-02-06T08:11:28Z</time>
      </trkpt>
      <trkpt lat="45.59634" lon="6.66826">
        <ele>1459</ele>
        <time>2016-02-06T08:11:30Z</time>
      </trkpt>
      <trkpt lat="45.59634" lon="6.66824">
        <ele>1459</ele>
        <time>2016-02-06T08:11:32Z</time>
      </trkpt>
      <trkpt lat="45.59633" lon="6.66821">
        <ele>1459</ele>
        <time>2016-02-06T08:11:34Z</time>
      </trkpt>
      <trkpt lat="45.59632" lon="6.6682">
        <ele>1459</ele>
        <time>2016-02-06T08:11:35Z</time>
      </trkpt>
      <trkpt lat="45.59631" lon="6.66819">
        <ele>1460</ele>
        <time>2016-02-06T08:11:37Z</time>
      </trkpt>
      <trkpt lat="45.59629" lon="6.66818">
        <ele>1460</ele>
        <time>2016-02-06T08:11:40Z</time>
      </trkpt>
      <trkpt lat="45.59628" lon="6.66817">
        <ele>1460</ele>
        <time>2016-02-06T08:11:42Z</time>
      </trkpt>
      <trkpt lat="45.59626" lon="6.66816">
        <ele>1460</ele>
        <time>2016-02-06T08:11:45Z</time>
      </trkpt>
      <trkpt lat="45.59624" lon="6.66814">
        <ele>1460</ele>
        <time>2016-02-06T08:11:47Z</time>
      </trkpt>
      <trkpt lat="45.59622" lon="6.66813">
        <ele>1460</ele>
        <time>2016-02-06T08:11:49Z</time>
      </trkpt>
      <trkpt lat="45.59621" lon="6.66812">
        <ele>1460</ele>
        <time>2016-02-06T08:11:50Z</time>
      </trkpt>
      <trkpt lat="45.59619" lon="6.6681">
        <ele>1460</ele>
        <time>2016-02-06T08:11:52Z</time>
      </trkpt>
      <trkpt lat="45.59618" lon="6.66809">
        <ele>1460</ele>
        <time>2016-02-06T08:11:54Z</time>
      </trkpt>
      <trkpt lat="45.59616" lon="6.66809">
        <ele>1460</ele>
        <time>2016-02-06T08:11:56Z</time>
      </trkpt>
      <trkpt lat="45.59615" lon="6.66809">
        <ele>1460</ele>
        <time>2016-02-06T08:11:58Z</time>
      </trkpt>
      <trkpt lat="45.59613" lon="6.66807">
        <ele>1460</ele>
        <time>2016-02-06T08:12:00Z</time>
      </trkpt>
      <trkpt lat="45.59611" lon="6.66807">
        <ele>1460</ele>
        <time>2016-02-06T08:12:02Z</time>
      </trkpt>
      <trkpt lat="45.5961" lon="6.66807">
        <ele>1459</ele>
        <time>2016-02-06T08:12:03Z</time>
      </trkpt>
      <trkpt lat="45.59608" lon="6.66805">
        <ele>1460</ele>
        <time>2016-02-06T08:12:05Z</time>
      </trkpt>
      <trkpt lat="45.59607" lon="6.66803">
        <ele>1460</ele>
        <time>2016-02-06T08:12:07Z</time>
      </trkpt>
      <trkpt lat="45.59605" lon="6.66801">
        <ele>1460</ele>
        <time>2016-02-06T08:12:10Z</time>
      </trkpt>
      <trkpt lat="45.59604" lon="6.66799">
        <ele>1460</ele>
        <time>2016-02-06T08:12:12Z</time>
      </trkpt>
      <trkpt lat="45.59603" lon="6.66797">
        <ele>1461</ele>
        <time>2016-02-06T08:12:13Z</time>
      </trkpt>
      <trkpt lat="45.59603" lon="6.66795">
        <ele>1461</ele>
        <time>2016-02-06T08:12:15Z</time>
      </trkpt>
      <trkpt lat="45.59602" lon="6.66793">
        <ele>1461</ele>
        <time>2016-02-06T08:12:17Z</time>
      </trkpt>
      <trkpt lat="45.59601" lon="6.66791">
        <ele>1462</ele>
        <time>2016-02-06T08:12:19Z</time>
      </trkpt>
      <trkpt lat="45.59601" lon="6.66789">
        <ele>1462</ele>
        <time>2016-02-06T08:12:20Z</time>
      </trkpt>
      <trkpt lat="45.596" lon="6.66787">
        <ele>1463</ele>
        <time>2016-02-06T08:12:22Z</time>
      </trkpt>
      <trkpt lat="45.596" lon="6.66785">
        <ele>1463</ele>
        <time>2016-02-06T08:12:23Z</time>
      </trkpt>
      <trkpt lat="45.596" lon="6.66783">
        <ele>1463</ele>
        <time>2016-02-06T08:12:24Z</time>
      </trkpt>
      <trkpt lat="45.596" lon="6.66781">
        <ele>1464</ele>
        <time>2016-02-06T08:12:26Z</time>
      </trkpt>
      <trkpt lat="45.59599" lon="6.66778">
        <ele>1464</ele>
        <time>2016-02-06T08:12:28Z</time>
      </trkpt>
      <trkpt lat="45.59598" lon="6.66776">
        <ele>1465</ele>
        <time>2016-02-06T08:12:29Z</time>
      </trkpt>
      <trkpt lat="45.59598" lon="6.66774">
        <ele>1465</ele>
        <time>2016-02-06T08:12:30Z</time>
      </trkpt>
      <trkpt lat="45.596" lon="6.66774">
        <ele>1465</ele>
        <time>2016-02-06T08:12:31Z</time>
      </trkpt>
      <trkpt lat="45.59601" lon="6.66773">
        <ele>1465</ele>
        <time>2016-02-06T08:12:32Z</time>
      </trkpt>
      <trkpt lat="45.59604" lon="6.66772">
        <ele>1465</ele>
        <time>2016-02-06T08:12:34Z</time>
      </trkpt>
      <trkpt lat="45.59605" lon="6.66772">
        <ele>1465</ele>
        <time>2016-02-06T08:12:37Z</time>
      </trkpt>
      <trkpt lat="45.59607" lon="6.66772">
        <ele>1465</ele>
        <time>2016-02-06T08:12:41Z</time>
      </trkpt>
      <trkpt lat="45.59609" lon="6.66771">
        <ele>1465</ele>
        <time>2016-02-06T08:12:42Z</time>
      </trkpt>
      <trkpt lat="45.59611" lon="6.66771">
        <ele>1465</ele>
        <time>2016-02-06T08:12:43Z</time>
      </trkpt>
      <trkpt lat="45.59613" lon="6.66772">
        <ele>1465</ele>
        <time>2016-02-06T08:12:45Z</time>
      </trkpt>
      <trkpt lat="45.59614" lon="6.66772">
        <ele>1465</ele>
        <time>2016-02-06T08:12:46Z</time>
      </trkpt>
      <trkpt lat="45.59615" lon="6.66771">
        <ele>1465</ele>
        <time>2016-02-06T08:12:47Z</time>
      </trkpt>
      <trkpt lat="45.59617" lon="6.6677">
        <ele>1465</ele>
        <time>2016-02-06T08:12:48Z</time>
      </trkpt>
      <trkpt lat="45.59619" lon="6.66772">
        <ele>1465</ele>
        <time>2016-02-06T08:12:50Z</time>
      </trkpt>
      <trkpt lat="45.59621" lon="6.66774">
        <ele>1465</ele>
        <time>2016-02-06T08:12:52Z</time>
      </trkpt>
      <trkpt lat="45.59622" lon="6.66773">
        <ele>1465</ele>
        <time>2016-02-06T08:12:54Z</time>
      </trkpt>
      <trkpt lat="45.59623" lon="6.66773">
        <ele>1465</ele>
        <time>2016-02-06T08:12:55Z</time>
      </trkpt>
      <trkpt lat="45.59625" lon="6.66774">
        <ele>1465</ele>
        <time>2016-02-06T08:12:56Z</time>
      </trkpt>
      <trkpt lat="45.59626" lon="6.66773">
        <ele>1465</ele>
        <time>2016-02-06T08:12:57Z</time>
      </trkpt>
      <trkpt lat="45.59627" lon="6.66772">
        <ele>1465</ele>
        <time>2016-02-06T08:12:58Z</time>
      </trkpt>
      <trkpt lat="45.59629" lon="6.66771">
        <ele>1465</ele>
        <time>2016-02-06T08:12:59Z</time>
      </trkpt>
      <trkpt lat="45.5963" lon="6.6677">
        <ele>1465</ele>
        <time>2016-02-06T08:13:01Z</time>
      </trkpt>
      <trkpt lat="45.59631" lon="6.66772">
        <ele>1465</ele>
        <time>2016-02-06T08:13:02Z</time>
      </trkpt>
      <trkpt lat="45.59632" lon="6.66772">
        <ele>1465</ele>
        <time>2016-02-06T08:13:04Z</time>
      </trkpt>
      <trkpt lat="45.59634" lon="6.66772">
        <ele>1465</ele>
        <time>2016-02-06T08:13:06Z</time>
      </trkpt>
      <trkpt lat="45.59636" lon="6.66772">
        <ele>1465</ele>
        <time>2016-02-06T08:13:08Z</time>
      </trkpt>
      <trkpt lat="45.59637" lon="6.66771">
        <ele>1466</ele>
        <time>2016-02-06T08:13:10Z</time>
      </trkpt>
      <trkpt lat="45.59639" lon="6.66772">
        <ele>1466</ele>
        <time>2016-02-06T08:13:17Z</time>
      </trkpt>
      <trkpt lat="45.59639" lon="6.66775">
        <ele>1465</ele>
        <time>2016-02-06T08:13:21Z</time>
      </trkpt>
      <trkpt lat="45.59639" lon="6.66777">
        <ele>1465</ele>
        <time>2016-02-06T08:13:23Z</time>
      </trkpt>
      <trkpt lat="45.59638" lon="6.66776">
        <ele>1465</ele>
        <time>2016-02-06T08:13:27Z</time>
      </trkpt>
      <trkpt lat="45.59639" lon="6.66774">
        <ele>1465</ele>
        <time>2016-02-06T08:13:30Z</time>
      </trkpt>
      <trkpt lat="45.59641" lon="6.66774">
        <ele>1466</ele>
        <time>2016-02-06T08:13:31Z</time>
      </trkpt>
      <trkpt lat="45.59643" lon="6.66773">
        <ele>1466</ele>
        <time>2016-02-06T08:13:33Z</time>
      </trkpt>
      <trkpt lat="45.59645" lon="6.66771">
        <ele>1466</ele>
        <time>2016-02-06T08:13:35Z</time>
      </trkpt>
      <trkpt lat="45.59646" lon="6.66771">
        <ele>1466</ele>
        <time>2016-02-06T08:13:36Z</time>
      </trkpt>
      <trkpt lat="45.59647" lon="6.66769">
        <ele>1467</ele>
        <time>2016-02-06T08:13:37Z</time>
      </trkpt>
      <trkpt lat="45.59647" lon="6.66768">
        <ele>1467</ele>
        <time>2016-02-06T08:13:38Z</time>
      </trkpt>
      <trkpt lat="45.5965" lon="6.66767">
        <ele>1467</ele>
        <time>2016-02-06T08:13:40Z</time>
      </trkpt>
      <trkpt lat="45.59651" lon="6.66767">
        <ele>1468</ele>
        <time>2016-02-06T08:13:41Z</time>
      </trkpt>
      <trkpt lat="45.59652" lon="6.66767">
        <ele>1468</ele>
        <time>2016-02-06T08:13:42Z</time>
      </trkpt>
      <trkpt lat="45.59653" lon="6.66767">
        <ele>1468</ele>
        <time>2016-02-06T08:13:45Z</time>
      </trkpt>
      <trkpt lat="45.59655" lon="6.66768">
        <ele>1468</ele>
        <time>2016-02-06T08:13:47Z</time>
      </trkpt>
      <trkpt lat="45.59656" lon="6.6677">
        <ele>1468</ele>
        <time>2016-02-06T08:13:50Z</time>
      </trkpt>
      <trkpt lat="45.59657" lon="6.66769">
        <ele>1468</ele>
        <time>2016-02-06T08:13:51Z</time>
      </trkpt>
      <trkpt lat="45.59659" lon="6.66768">
        <ele>1468</ele>
        <time>2016-02-06T08:13:53Z</time>
      </trkpt>
      <trkpt lat="45.5966" lon="6.66768">
        <ele>1468</ele>
        <time>2016-02-06T08:13:55Z</time>
      </trkpt>
      <trkpt lat="45.59662" lon="6.66768">
        <ele>1468</ele>
        <time>2016-02-06T08:13:58Z</time>
      </trkpt>
      <trkpt lat="45.59663" lon="6.66769">
        <ele>1468</ele>
        <time>2016-02-06T08:13:59Z</time>
      </trkpt>
      <trkpt lat="45.59663" lon="6.66771">
        <ele>1468</ele>
        <time>2016-02-06T08:14:00Z</time>
      </trkpt>
      <trkpt lat="45.59664" lon="6.66772">
        <ele>1467</ele>
        <time>2016-02-06T08:14:01Z</time>
      </trkpt>
      <trkpt lat="45.59665" lon="6.66774">
        <ele>1467</ele>
        <time>2016-02-06T08:14:02Z</time>
      </trkpt>
      <trkpt lat="45.59667" lon="6.66775">
        <ele>1474</ele>
        <time>2016-02-06T08:14:04Z</time>
      </trkpt>
      <trkpt lat="45.59669" lon="6.66774">
        <ele>1474</ele>
        <time>2016-02-06T08:14:06Z</time>
      </trkpt>
      <trkpt lat="45.5967" lon="6.66773">
        <ele>1474</ele>
        <time>2016-02-06T08:14:07Z</time>
      </trkpt>
      <trkpt lat="45.59672" lon="6.66773">
        <ele>1475</ele>
        <time>2016-02-06T08:14:09Z</time>
      </trkpt>
      <trkpt lat="45.59673" lon="6.66774">
        <ele>1475</ele>
        <time>2016-02-06T08:14:11Z</time>
      </trkpt>
      <trkpt lat="45.59674" lon="6.66775">
        <ele>1475</ele>
        <time>2016-02-06T08:14:14Z</time>
      </trkpt>
      <trkpt lat="45.59675" lon="6.66777">
        <ele>1474</ele>
        <time>2016-02-06T08:14:16Z</time>
      </trkpt>
      <trkpt lat="45.59678" lon="6.66777">
        <ele>1475</ele>
        <time>2016-02-06T08:14:18Z</time>
      </trkpt>
      <trkpt lat="45.5968" lon="6.66778">
        <ele>1475</ele>
        <time>2016-02-06T08:14:20Z</time>
      </trkpt>
      <trkpt lat="45.59681" lon="6.66779">
        <ele>1475</ele>
        <time>2016-02-06T08:14:21Z</time>
      </trkpt>
      <trkpt lat="45.59682" lon="6.6678">
        <ele>1475</ele>
        <time>2016-02-06T08:14:22Z</time>
      </trkpt>
      <trkpt lat="45.59684" lon="6.66781">
        <ele>1475</ele>
        <time>2016-02-06T08:14:24Z</time>
      </trkpt>
      <trkpt lat="45.59687" lon="6.66784">
        <ele>1474</ele>
        <time>2016-02-06T08:14:26Z</time>
      </trkpt>
      <trkpt lat="45.59688" lon="6.66785">
        <ele>1474</ele>
        <time>2016-02-06T08:14:28Z</time>
      </trkpt>
      <trkpt lat="45.59689" lon="6.66787">
        <ele>1474</ele>
        <time>2016-02-06T08:14:31Z</time>
      </trkpt>
      <trkpt lat="45.59691" lon="6.66789">
        <ele>1474</ele>
        <time>2016-02-06T08:14:33Z</time>
      </trkpt>
      <trkpt lat="45.59692" lon="6.6679">
        <ele>1474</ele>
        <time>2016-02-06T08:14:35Z</time>
      </trkpt>
      <trkpt lat="45.59694" lon="6.6679">
        <ele>1474</ele>
        <time>2016-02-06T08:14:37Z</time>
      </trkpt>
      <trkpt lat="45.59696" lon="6.6679">
        <ele>1475</ele>
        <time>2016-02-06T08:14:39Z</time>
      </trkpt>
      <trkpt lat="45.59697" lon="6.66791">
        <ele>1475</ele>
        <time>2016-02-06T08:14:40Z</time>
      </trkpt>
      <trkpt lat="45.59699" lon="6.66793">
        <ele>1475</ele>
        <time>2016-02-06T08:14:42Z</time>
      </trkpt>
      <trkpt lat="45.597" lon="6.66795">
        <ele>1475</ele>
        <time>2016-02-06T08:14:44Z</time>
      </trkpt>
      <trkpt lat="45.59703" lon="6.66798">
        <ele>1475</ele>
        <time>2016-02-06T08:14:46Z</time>
      </trkpt>
      <trkpt lat="45.59704" lon="6.66799">
        <ele>1475</ele>
        <time>2016-02-06T08:14:47Z</time>
      </trkpt>
      <trkpt lat="45.59705" lon="6.668">
        <ele>1475</ele>
        <time>2016-02-06T08:14:48Z</time>
      </trkpt>
      <trkpt lat="45.59706" lon="6.66801">
        <ele>1475</ele>
        <time>2016-02-06T08:14:52Z</time>
      </trkpt>
      <trkpt lat="45.59707" lon="6.66802">
        <ele>1475</ele>
        <time>2016-02-06T08:14:54Z</time>
      </trkpt>
      <trkpt lat="45.59709" lon="6.66802">
        <ele>1475</ele>
        <time>2016-02-06T08:14:56Z</time>
      </trkpt>
      <trkpt lat="45.5971" lon="6.66803">
        <ele>1475</ele>
        <time>2016-02-06T08:14:58Z</time>
      </trkpt>
      <trkpt lat="45.59711" lon="6.66804">
        <ele>1475</ele>
        <time>2016-02-06T08:14:59Z</time>
      </trkpt>
      <trkpt lat="45.59711" lon="6.66806">
        <ele>1475</ele>
        <time>2016-02-06T08:15:01Z</time>
      </trkpt>
      <trkpt lat="45.59713" lon="6.66807">
        <ele>1475</ele>
        <time>2016-02-06T08:15:03Z</time>
      </trkpt>
      <trkpt lat="45.59715" lon="6.66809">
        <ele>1475</ele>
        <time>2016-02-06T08:15:05Z</time>
      </trkpt>
      <trkpt lat="45.59716" lon="6.66811">
        <ele>1475</ele>
        <time>2016-02-06T08:15:07Z</time>
      </trkpt>
      <trkpt lat="45.59717" lon="6.66813">
        <ele>1475</ele>
        <time>2016-02-06T08:15:08Z</time>
      </trkpt>
      <trkpt lat="45.59718" lon="6.66813">
        <ele>1475</ele>
        <time>2016-02-06T08:15:09Z</time>
      </trkpt>
      <trkpt lat="45.59719" lon="6.66816">
        <ele>1475</ele>
        <time>2016-02-06T08:15:11Z</time>
      </trkpt>
      <trkpt lat="45.59721" lon="6.66819">
        <ele>1475</ele>
        <time>2016-02-06T08:15:15Z</time>
      </trkpt>
      <trkpt lat="45.59721" lon="6.66821">
        <ele>1475</ele>
        <time>2016-02-06T08:15:16Z</time>
      </trkpt>
      <trkpt lat="45.5972" lon="6.66822">
        <ele>1475</ele>
        <time>2016-02-06T08:15:17Z</time>
      </trkpt>
      <trkpt lat="45.5972" lon="6.66825">
        <ele>1475</ele>
        <time>2016-02-06T08:15:18Z</time>
      </trkpt>
      <trkpt lat="45.5972" lon="6.66827">
        <ele>1475</ele>
        <time>2016-02-06T08:15:20Z</time>
      </trkpt>
      <trkpt lat="45.59721" lon="6.66826">
        <ele>1475</ele>
        <time>2016-02-06T08:15:22Z</time>
      </trkpt>
      <trkpt lat="45.59724" lon="6.66828">
        <ele>1475</ele>
        <time>2016-02-06T08:15:24Z</time>
      </trkpt>
      <trkpt lat="45.59725" lon="6.6683">
        <ele>1475</ele>
        <time>2016-02-06T08:15:25Z</time>
      </trkpt>
      <trkpt lat="45.59726" lon="6.6683">
        <ele>1475</ele>
        <time>2016-02-06T08:15:26Z</time>
      </trkpt>
      <trkpt lat="45.59727" lon="6.66832">
        <ele>1475</ele>
        <time>2016-02-06T08:15:27Z</time>
      </trkpt>
      <trkpt lat="45.59729" lon="6.66833">
        <ele>1475</ele>
        <time>2016-02-06T08:15:28Z</time>
      </trkpt>
      <trkpt lat="45.5973" lon="6.66835">
        <ele>1470</ele>
        <time>2016-02-06T08:15:30Z</time>
      </trkpt>
      <trkpt lat="45.59732" lon="6.66838">
        <ele>1471</ele>
        <time>2016-02-06T08:15:32Z</time>
      </trkpt>
      <trkpt lat="45.59732" lon="6.6684">
        <ele>1470</ele>
        <time>2016-02-06T08:15:34Z</time>
      </trkpt>
      <trkpt lat="45.59731" lon="6.66842">
        <ele>1470</ele>
        <time>2016-02-06T08:15:36Z</time>
      </trkpt>
      <trkpt lat="45.59732" lon="6.66844">
        <ele>1470</ele>
        <time>2016-02-06T08:15:38Z</time>
      </trkpt>
      <trkpt lat="45.59733" lon="6.66846">
        <ele>1470</ele>
        <time>2016-02-06T08:15:40Z</time>
      </trkpt>
      <trkpt lat="45.59732" lon="6.66848">
        <ele>1470</ele>
        <time>2016-02-06T08:15:42Z</time>
      </trkpt>
      <trkpt lat="45.59733" lon="6.6685">
        <ele>1470</ele>
        <time>2016-02-06T08:15:43Z</time>
      </trkpt>
      <trkpt lat="45.59731" lon="6.66852">
        <ele>1469</ele>
        <time>2016-02-06T08:15:45Z</time>
      </trkpt>
      <trkpt lat="45.59732" lon="6.66854">
        <ele>1469</ele>
        <time>2016-02-06T08:15:47Z</time>
      </trkpt>
      <trkpt lat="45.59732" lon="6.66856">
        <ele>1469</ele>
        <time>2016-02-06T08:15:49Z</time>
      </trkpt>
      <trkpt lat="45.59731" lon="6.66857">
        <ele>1469</ele>
        <time>2016-02-06T08:15:50Z</time>
      </trkpt>
      <trkpt lat="45.59729" lon="6.66859">
        <ele>1468</ele>
        <time>2016-02-06T08:15:52Z</time>
      </trkpt>
      <trkpt lat="45.59729" lon="6.66861">
        <ele>1468</ele>
        <time>2016-02-06T08:15:54Z</time>
      </trkpt>
      <trkpt lat="45.5973" lon="6.66864">
        <ele>1468</ele>
        <time>2016-02-06T08:15:56Z</time>
      </trkpt>
      <trkpt lat="45.59731" lon="6.66865">
        <ele>1468</ele>
        <time>2016-02-06T08:15:57Z</time>
      </trkpt>
      <trkpt lat="45.59732" lon="6.66867">
        <ele>1468</ele>
        <time>2016-02-06T08:15:59Z</time>
      </trkpt>
      <trkpt lat="45.59732" lon="6.6687">
        <ele>1468</ele>
        <time>2016-02-06T08:16:01Z</time>
      </trkpt>
      <trkpt lat="45.59732" lon="6.66871">
        <ele>1468</ele>
        <time>2016-02-06T08:16:02Z</time>
      </trkpt>
      <trkpt lat="45.59732" lon="6.66873">
        <ele>1468</ele>
        <time>2016-02-06T08:16:03Z</time>
      </trkpt>
      <trkpt lat="45.59732" lon="6.66875">
        <ele>1468</ele>
        <time>2016-02-06T08:16:05Z</time>
      </trkpt>
      <trkpt lat="45.59732" lon="6.66877">
        <ele>1468</ele>
        <time>2016-02-06T08:16:06Z</time>
      </trkpt>
      <trkpt lat="45.59733" lon="6.6688">
        <ele>1468</ele>
        <time>2016-02-06T08:16:08Z</time>
      </trkpt>
      <trkpt lat="45.59733" lon="6.66882">
        <ele>1468</ele>
        <time>2016-02-06T08:16:09Z</time>
      </trkpt>
      <trkpt lat="45.59734" lon="6.66884">
        <ele>1468</ele>
        <time>2016-02-06T08:16:11Z</time>
      </trkpt>
      <trkpt lat="45.59734" lon="6.66885">
        <ele>1468</ele>
        <time>2016-02-06T08:16:12Z</time>
      </trkpt>
      <trkpt lat="45.59733" lon="6.66887">
        <ele>1468</ele>
        <time>2016-02-06T08:16:13Z</time>
      </trkpt>
      <trkpt lat="45.59733" lon="6.66889">
        <ele>1468</ele>
        <time>2016-02-06T08:16:14Z</time>
      </trkpt>
      <trkpt lat="45.59734" lon="6.66891">
        <ele>1468</ele>
        <time>2016-02-06T08:16:15Z</time>
      </trkpt>
      <trkpt lat="45.59734" lon="6.66892">
        <ele>1468</ele>
        <time>2016-02-06T08:16:16Z</time>
      </trkpt>
      <trkpt lat="45.59733" lon="6.66893">
        <ele>1468</ele>
        <time>2016-02-06T08:16:17Z</time>
      </trkpt>
      <trkpt lat="45.59732" lon="6.66893">
        <ele>1468</ele>
        <time>2016-02-06T08:16:18Z</time>
      </trkpt>
      <trkpt lat="45.5973" lon="6.66895">
        <ele>1468</ele>
        <time>2016-02-06T08:16:20Z</time>
      </trkpt>
      <trkpt lat="45.5973" lon="6.66897">
        <ele>1468</ele>
        <time>2016-02-06T08:16:22Z</time>
      </trkpt>
      <trkpt lat="45.5973" lon="6.669">
        <ele>1468</ele>
        <time>2016-02-06T08:16:24Z</time>
      </trkpt>
      <trkpt lat="45.5973" lon="6.66903">
        <ele>1468</ele>
        <time>2016-02-06T08:16:26Z</time>
      </trkpt>
      <trkpt lat="45.5973" lon="6.66904">
        <ele>1468</ele>
        <time>2016-02-06T08:16:27Z</time>
      </trkpt>
      <trkpt lat="45.59731" lon="6.66906">
        <ele>1469</ele>
        <time>2016-02-06T08:16:28Z</time>
      </trkpt>
      <trkpt lat="45.59731" lon="6.66908">
        <ele>1469</ele>
        <time>2016-02-06T08:16:29Z</time>
      </trkpt>
      <trkpt lat="45.59732" lon="6.66909">
        <ele>1469</ele>
        <time>2016-02-06T08:16:30Z</time>
      </trkpt>
      <trkpt lat="45.59731" lon="6.66911">
        <ele>1469</ele>
        <time>2016-02-06T08:16:32Z</time>
      </trkpt>
      <trkpt lat="45.5973" lon="6.66913">
        <ele>1469</ele>
        <time>2016-02-06T08:16:34Z</time>
      </trkpt>
      <trkpt lat="45.59731" lon="6.66916">
        <ele>1469</ele>
        <time>2016-02-06T08:16:36Z</time>
      </trkpt>
      <trkpt lat="45.59731" lon="6.66918">
        <ele>1466</ele>
        <time>2016-02-06T08:16:38Z</time>
      </trkpt>
      <trkpt lat="45.59731" lon="6.6692">
        <ele>1466</ele>
        <time>2016-02-06T08:16:40Z</time>
      </trkpt>
      <trkpt lat="45.59732" lon="6.66922">
        <ele>1466</ele>
        <time>2016-02-06T08:16:41Z</time>
      </trkpt>
      <trkpt lat="45.59734" lon="6.66924">
        <ele>1466</ele>
        <time>2016-02-06T08:16:43Z</time>
      </trkpt>
      <trkpt lat="45.59736" lon="6.66926">
        <ele>1466</ele>
        <time>2016-02-06T08:16:45Z</time>
      </trkpt>
      <trkpt lat="45.59736" lon="6.66928">
        <ele>1466</ele>
        <time>2016-02-06T08:16:46Z</time>
      </trkpt>
      <trkpt lat="45.59737" lon="6.6693">
        <ele>1466</ele>
        <time>2016-02-06T08:16:47Z</time>
      </trkpt>
      <trkpt lat="45.59737" lon="6.66932">
        <ele>1466</ele>
        <time>2016-02-06T08:16:48Z</time>
      </trkpt>
      <trkpt lat="45.59735" lon="6.66933">
        <ele>1465</ele>
        <time>2016-02-06T08:16:49Z</time>
      </trkpt>
      <trkpt lat="45.59736" lon="6.66935">
        <ele>1465</ele>
        <time>2016-02-06T08:16:50Z</time>
      </trkpt>
      <trkpt lat="45.59737" lon="6.66936">
        <ele>1465</ele>
        <time>2016-02-06T08:16:51Z</time>
      </trkpt>
      <trkpt lat="45.59737" lon="6.66937">
        <ele>1465</ele>
        <time>2016-02-06T08:16:52Z</time>
      </trkpt>
      <trkpt lat="45.5974" lon="6.6694">
        <ele>1464</ele>
        <time>2016-02-06T08:16:54Z</time>
      </trkpt>
      <trkpt lat="45.59741" lon="6.66942">
        <ele>1464</ele>
        <time>2016-02-06T08:16:55Z</time>
      </trkpt>
      <trkpt lat="45.59741" lon="6.66944">
        <ele>1464</ele>
        <time>2016-02-06T08:16:58Z</time>
      </trkpt>
      <trkpt lat="45.59741" lon="6.66946">
        <ele>1464</ele>
        <time>2016-02-06T08:16:59Z</time>
      </trkpt>
      <trkpt lat="45.59742" lon="6.66947">
        <ele>1464</ele>
        <time>2016-02-06T08:17:00Z</time>
      </trkpt>
      <trkpt lat="45.59744" lon="6.66948">
        <ele>1464</ele>
        <time>2016-02-06T08:17:01Z</time>
      </trkpt>
      <trkpt lat="45.59745" lon="6.6695">
        <ele>1463</ele>
        <time>2016-02-06T08:17:03Z</time>
      </trkpt>
      <trkpt lat="45.59746" lon="6.6695">
        <ele>1463</ele>
        <time>2016-02-06T08:17:09Z</time>
      </trkpt>
      <trkpt lat="45.59747" lon="6.66948">
        <ele>1464</ele>
        <time>2016-02-06T08:17:10Z</time>
      </trkpt>
      <trkpt lat="45.59748" lon="6.66947">
        <ele>1464</ele>
        <time>2016-02-06T08:17:13Z</time>
      </trkpt>
      <trkpt lat="45.5975" lon="6.66946">
        <ele>1464</ele>
        <time>2016-02-06T08:17:15Z</time>
      </trkpt>
      <trkpt lat="45.59752" lon="6.66946">
        <ele>1473</ele>
        <time>2016-02-06T08:17:17Z</time>
      </trkpt>
      <trkpt lat="45.59753" lon="6.66948">
        <ele>1473</ele>
        <time>2016-02-06T08:17:18Z</time>
      </trkpt>
      <trkpt lat="45.59755" lon="6.66947">
        <ele>1473</ele>
        <time>2016-02-06T08:17:22Z</time>
      </trkpt>
      <trkpt lat="45.59756" lon="6.66948">
        <ele>1473</ele>
        <time>2016-02-06T08:17:24Z</time>
      </trkpt>
      <trkpt lat="45.59757" lon="6.66949">
        <ele>1473</ele>
        <time>2016-02-06T08:17:27Z</time>
      </trkpt>
      <trkpt lat="45.59757" lon="6.66947">
        <ele>1473</ele>
        <time>2016-02-06T08:17:29Z</time>
      </trkpt>
      <trkpt lat="45.59757" lon="6.66946">
        <ele>1473</ele>
        <time>2016-02-06T08:17:31Z</time>
      </trkpt>
      <trkpt lat="45.59758" lon="6.66945">
        <ele>1473</ele>
        <time>2016-02-06T08:17:32Z</time>
      </trkpt>
      <trkpt lat="45.5976" lon="6.66946">
        <ele>1473</ele>
        <time>2016-02-06T08:17:34Z</time>
      </trkpt>
      <trkpt lat="45.59761" lon="6.66947">
        <ele>1473</ele>
        <time>2016-02-06T08:17:36Z</time>
      </trkpt>
      <trkpt lat="45.59761" lon="6.66949">
        <ele>1473</ele>
        <time>2016-02-06T08:17:40Z</time>
      </trkpt>
      <trkpt lat="45.5976" lon="6.6695">
        <ele>1473</ele>
        <time>2016-02-06T08:17:41Z</time>
      </trkpt>
      <trkpt lat="45.59758" lon="6.6695">
        <ele>1473</ele>
        <time>2016-02-06T08:17:46Z</time>
      </trkpt>
      <trkpt lat="45.59757" lon="6.6695">
        <ele>1473</ele>
        <time>2016-02-06T08:17:47Z</time>
      </trkpt>
      <trkpt lat="45.59758" lon="6.66949">
        <ele>1473</ele>
        <time>2016-02-06T08:17:53Z</time>
      </trkpt>
      <trkpt lat="45.59759" lon="6.66947">
        <ele>1473</ele>
        <time>2016-02-06T08:17:54Z</time>
      </trkpt>
      <trkpt lat="45.5976" lon="6.66946">
        <ele>1473</ele>
        <time>2016-02-06T08:17:57Z</time>
      </trkpt>
      <trkpt lat="45.59761" lon="6.66946">
        <ele>1473</ele>
        <time>2016-02-06T08:18:01Z</time>
      </trkpt>
      <trkpt lat="45.59762" lon="6.66947">
        <ele>1473</ele>
        <time>2016-02-06T08:18:05Z</time>
      </trkpt>
      <trkpt lat="45.5976" lon="6.66948">
        <ele>1473</ele>
        <time>2016-02-06T08:18:09Z</time>
      </trkpt>
      <trkpt lat="45.59759" lon="6.66949">
        <ele>1473</ele>
        <time>2016-02-06T08:18:19Z</time>
      </trkpt>
      <trkpt lat="45.59759" lon="6.66951">
        <ele>1473</ele>
        <time>2016-02-06T08:18:25Z</time>
      </trkpt>
      <trkpt lat="45.5976" lon="6.66951">
        <ele>1473</ele>
        <time>2016-02-06T08:18:28Z</time>
      </trkpt>
      <trkpt lat="45.59761" lon="6.66949">
        <ele>1473</ele>
        <time>2016-02-06T08:18:44Z</time>
      </trkpt>
      <trkpt lat="45.59761" lon="6.66948">
        <ele>1473</ele>
        <time>2016-02-06T08:18:58Z</time>
      </trkpt>
      <trkpt lat="45.59761" lon="6.66946">
        <ele>1473</ele>
        <time>2016-02-06T08:19:09Z</time>
      </trkpt>
      <trkpt lat="45.59761" lon="6.66945">
        <ele>1473</ele>
        <time>2016-02-06T08:20:28Z</time>
      </trkpt>
      <trkpt lat="45.5976" lon="6.66944">
        <ele>1473</ele>
        <time>2016-02-06T08:20:36Z</time>
      </trkpt>
      <trkpt lat="45.5976" lon="6.66946">
        <ele>1473</ele>
        <time>2016-02-06T08:20:43Z</time>
      </trkpt>
      <trkpt lat="45.5976" lon="6.66947">
        <ele>1473</ele>
        <time>2016-02-06T08:20:50Z</time>
      </trkpt>
      <trkpt lat="45.5976" lon="6.66949">
        <ele>1473</ele>
        <time>2016-02-06T08:21:03Z</time>
      </trkpt>
      <trkpt lat="45.59761" lon="6.6695">
        <ele>1473</ele>
        <time>2016-02-06T08:21:23Z</time>
      </trkpt>
      <trkpt lat="45.59761" lon="6.66952">
        <ele>1473</ele>
        <time>2016-02-06T08:21:37Z</time>
      </trkpt>
      <trkpt lat="45.59761" lon="6.66953">
        <ele>1473</ele>
        <time>2016-02-06T08:21:46Z</time>
      </trkpt>
      <trkpt lat="45.59762" lon="6.66955">
        <ele>1473</ele>
        <time>2016-02-06T08:22:07Z</time>
      </trkpt>
      <trkpt lat="45.59761" lon="6.66953">
        <ele>1473</ele>
        <time>2016-02-06T08:22:39Z</time>
      </trkpt>
      <trkpt lat="45.59761" lon="6.66952">
        <ele>1473</ele>
        <time>2016-02-06T08:22:58Z</time>
      </trkpt>
      <trkpt lat="45.59761" lon="6.6695">
        <ele>1473</ele>
        <time>2016-02-06T08:23:02Z</time>
      </trkpt>
      <trkpt lat="45.5976" lon="6.66948">
        <ele>1473</ele>
        <time>2016-02-06T08:23:04Z</time>
      </trkpt>
      <trkpt lat="45.59759" lon="6.66947">
        <ele>1473</ele>
        <time>2016-02-06T08:23:09Z</time>
      </trkpt>
      <trkpt lat="45.59758" lon="6.66949">
        <ele>1473</ele>
        <time>2016-02-06T08:23:15Z</time>
      </trkpt>
      <trkpt lat="45.59757" lon="6.6695">
        <ele>1473</ele>
        <time>2016-02-06T08:23:18Z</time>
      </trkpt>
      <trkpt lat="45.59757" lon="6.66952">
        <ele>1473</ele>
        <time>2016-02-06T08:23:23Z</time>
      </trkpt>
      <trkpt lat="45.59759" lon="6.66951">
        <ele>1473</ele>
        <time>2016-02-06T08:23:26Z</time>
      </trkpt>
      <trkpt lat="45.5976" lon="6.6695">
        <ele>1473</ele>
        <time>2016-02-06T08:23:29Z</time>
      </trkpt>
      <trkpt lat="45.59761" lon="6.6695">
        <ele>1473</ele>
        <time>2016-02-06T08:23:37Z</time>
      </trkpt>
      <trkpt lat="45.59761" lon="6.66948">
        <ele>1473</ele>
        <time>2016-02-06T08:23:40Z</time>
      </trkpt>
      <trkpt lat="45.59761" lon="6.66946">
        <ele>1473</ele>
        <time>2016-02-06T08:23:44Z</time>
      </trkpt>
      <trkpt lat="45.59761" lon="6.66948">
        <ele>1473</ele>
        <time>2016-02-06T08:23:46Z</time>
      </trkpt>
      <trkpt lat="45.59761" lon="6.6695">
        <ele>1473</ele>
        <time>2016-02-06T08:23:51Z</time>
      </trkpt>
      <trkpt lat="45.5976" lon="6.6695">
        <ele>1473</ele>
        <time>2016-02-06T08:23:55Z</time>
      </trkpt>
      <trkpt lat="45.59761" lon="6.6695">
        <ele>1473</ele>
        <time>2016-02-06T08:24:03Z</time>
      </trkpt>
      <trkpt lat="45.59762" lon="6.66949">
        <ele>1473</ele>
        <time>2016-02-06T08:24:07Z</time>
      </trkpt>
      <trkpt lat="45.59764" lon="6.6695">
        <ele>1473</ele>
        <time>2016-02-06T08:24:11Z</time>
      </trkpt>
      <trkpt lat="45.59765" lon="6.66949">
        <ele>1473</ele>
        <time>2016-02-06T08:24:13Z</time>
      </trkpt>
      <trkpt lat="45.59764" lon="6.66948">
        <ele>1473</ele>
        <time>2016-02-06T08:24:15Z</time>
      </trkpt>
      <trkpt lat="45.59762" lon="6.66947">
        <ele>1473</ele>
        <time>2016-02-06T08:24:17Z</time>
      </trkpt>
      <trkpt lat="45.59761" lon="6.66948">
        <ele>1473</ele>
        <time>2016-02-06T08:24:18Z</time>
      </trkpt>
      <trkpt lat="45.59759" lon="6.66948">
        <ele>1473</ele>
        <time>2016-02-06T08:24:19Z</time>
      </trkpt>
      <trkpt lat="45.59761" lon="6.66949">
        <ele>1473</ele>
        <time>2016-02-06T08:24:25Z</time>
      </trkpt>
      <trkpt lat="45.5976" lon="6.66951">
        <ele>1473</ele>
        <time>2016-02-06T08:24:29Z</time>
      </trkpt>
      <trkpt lat="45.5976" lon="6.66953">
        <ele>1473</ele>
        <time>2016-02-06T08:24:32Z</time>
      </trkpt>
      <trkpt lat="45.59761" lon="6.66952">
        <ele>1473</ele>
        <time>2016-02-06T08:24:44Z</time>
      </trkpt>
      <trkpt lat="45.59762" lon="6.66952">
        <ele>1473</ele>
        <time>2016-02-06T08:25:06Z</time>
      </trkpt>
      <trkpt lat="45.59763" lon="6.6695">
        <ele>1473</ele>
        <time>2016-02-06T08:25:09Z</time>
      </trkpt>
      <trkpt lat="45.59764" lon="6.66949">
        <ele>1473</ele>
        <time>2016-02-06T08:25:11Z</time>
      </trkpt>
      <trkpt lat="45.59766" lon="6.66947">
        <ele>1473</ele>
        <time>2016-02-06T08:25:13Z</time>
      </trkpt>
      <trkpt lat="45.59767" lon="6.66946">
        <ele>1473</ele>
        <time>2016-02-06T08:25:16Z</time>
      </trkpt>
      <trkpt lat="45.59768" lon="6.66944">
        <ele>1474</ele>
        <time>2016-02-06T08:25:18Z</time>
      </trkpt>
      <trkpt lat="45.59768" lon="6.66942">
        <ele>1474</ele>
        <time>2016-02-06T08:25:19Z</time>
      </trkpt>
      <trkpt lat="45.59769" lon="6.6694">
        <ele>1474</ele>
        <time>2016-02-06T08:25:21Z</time>
      </trkpt>
      <trkpt lat="45.59769" lon="6.66938">
        <ele>1474</ele>
        <time>2016-02-06T08:25:22Z</time>
      </trkpt>
      <trkpt lat="45.59769" lon="6.66935">
        <ele>1474</ele>
        <time>2016-02-06T08:25:24Z</time>
      </trkpt>
      <trkpt lat="45.59769" lon="6.66933">
        <ele>1474</ele>
        <time>2016-02-06T08:25:27Z</time>
      </trkpt>
      <trkpt lat="45.59769" lon="6.66932">
        <ele>1474</ele>
        <time>2016-02-06T08:25:29Z</time>
      </trkpt>
      <trkpt lat="45.59769" lon="6.6693">
        <ele>1474</ele>
        <time>2016-02-06T08:25:30Z</time>
      </trkpt>
      <trkpt lat="45.59769" lon="6.66928">
        <ele>1474</ele>
        <time>2016-02-06T08:25:33Z</time>
      </trkpt>
      <trkpt lat="45.59769" lon="6.66926">
        <ele>1474</ele>
        <time>2016-02-06T08:25:35Z</time>
      </trkpt>
      <trkpt lat="45.59768" lon="6.66927">
        <ele>1474</ele>
        <time>2016-02-06T08:25:40Z</time>
      </trkpt>
      <trkpt lat="45.59769" lon="6.66928">
        <ele>1474</ele>
        <time>2016-02-06T08:25:42Z</time>
      </trkpt>
      <trkpt lat="45.59769" lon="6.66929">
        <ele>1474</ele>
        <time>2016-02-06T08:25:45Z</time>
      </trkpt>
      <trkpt lat="45.59768" lon="6.66931">
        <ele>1474</ele>
        <time>2016-02-06T08:25:47Z</time>
      </trkpt>
      <trkpt lat="45.59768" lon="6.66933">
        <ele>1474</ele>
        <time>2016-02-06T08:25:52Z</time>
      </trkpt>
      <trkpt lat="45.59768" lon="6.66934">
        <ele>1474</ele>
        <time>2016-02-06T08:25:59Z</time>
      </trkpt>
      <trkpt lat="45.59768" lon="6.66933">
        <ele>1474</ele>
        <time>2016-02-06T08:26:11Z</time>
      </trkpt>
      <trkpt lat="45.59767" lon="6.66931">
        <ele>1474</ele>
        <time>2016-02-06T08:26:14Z</time>
      </trkpt>
      <trkpt lat="45.59766" lon="6.6693">
        <ele>1474</ele>
        <time>2016-02-06T08:26:17Z</time>
      </trkpt>
      <trkpt lat="45.59766" lon="6.66928">
        <ele>1474</ele>
        <time>2016-02-06T08:26:20Z</time>
      </trkpt>
      <trkpt lat="45.59765" lon="6.66926">
        <ele>1474</ele>
        <time>2016-02-06T08:26:22Z</time>
      </trkpt>
      <trkpt lat="45.59765" lon="6.66924">
        <ele>1474</ele>
        <time>2016-02-06T08:26:24Z</time>
      </trkpt>
      <trkpt lat="45.59765" lon="6.66922">
        <ele>1474</ele>
        <time>2016-02-06T08:26:25Z</time>
      </trkpt>
      <trkpt lat="45.59765" lon="6.6692">
        <ele>1474</ele>
        <time>2016-02-06T08:26:26Z</time>
      </trkpt>
      <trkpt lat="45.59765" lon="6.66919">
        <ele>1474</ele>
        <time>2016-02-06T08:26:27Z</time>
      </trkpt>
      <trkpt lat="45.59765" lon="6.66916">
        <ele>1479</ele>
        <time>2016-02-06T08:26:29Z</time>
      </trkpt>
      <trkpt lat="45.59766" lon="6.66914">
        <ele>1479</ele>
        <time>2016-02-06T08:26:30Z</time>
      </trkpt>
      <trkpt lat="45.59767" lon="6.66912">
        <ele>1479</ele>
        <time>2016-02-06T08:26:32Z</time>
      </trkpt>
      <trkpt lat="45.59768" lon="6.66912">
        <ele>1480</ele>
        <time>2016-02-06T08:26:34Z</time>
      </trkpt>
      <trkpt lat="45.59769" lon="6.66912">
        <ele>1480</ele>
        <time>2016-02-06T08:26:36Z</time>
      </trkpt>
      <trkpt lat="45.59771" lon="6.66911">
        <ele>1480</ele>
        <time>2016-02-06T08:26:37Z</time>
      </trkpt>
      <trkpt lat="45.59773" lon="6.6691">
        <ele>1481</ele>
        <time>2016-02-06T08:26:39Z</time>
      </trkpt>
      <trkpt lat="45.59774" lon="6.66909">
        <ele>1481</ele>
        <time>2016-02-06T08:26:41Z</time>
      </trkpt>
      <trkpt lat="45.59776" lon="6.66908">
        <ele>1481</ele>
        <time>2016-02-06T08:26:43Z</time>
      </trkpt>
      <trkpt lat="45.59777" lon="6.66907">
        <ele>1482</ele>
        <time>2016-02-06T08:26:45Z</time>
      </trkpt>
      <trkpt lat="45.59779" lon="6.66906">
        <ele>1482</ele>
        <time>2016-02-06T08:26:47Z</time>
      </trkpt>
      <trkpt lat="45.5978" lon="6.66904">
        <ele>1482</ele>
        <time>2016-02-06T08:26:50Z</time>
      </trkpt>
      <trkpt lat="45.59781" lon="6.66902">
        <ele>1483</ele>
        <time>2016-02-06T08:26:52Z</time>
      </trkpt>
      <trkpt lat="45.59781" lon="6.669">
        <ele>1483</ele>
        <time>2016-02-06T08:26:54Z</time>
      </trkpt>
      <trkpt lat="45.59781" lon="6.66898">
        <ele>1483</ele>
        <time>2016-02-06T08:26:56Z</time>
      </trkpt>
      <trkpt lat="45.59782" lon="6.66897">
        <ele>1483</ele>
        <time>2016-02-06T08:26:59Z</time>
      </trkpt>
      <trkpt lat="45.59783" lon="6.66895">
        <ele>1483</ele>
        <time>2016-02-06T08:27:01Z</time>
      </trkpt>
      <trkpt lat="45.59785" lon="6.66893">
        <ele>1484</ele>
        <time>2016-02-06T08:27:03Z</time>
      </trkpt>
      <trkpt lat="45.59785" lon="6.6689">
        <ele>1484</ele>
        <time>2016-02-06T08:27:05Z</time>
      </trkpt>
      <trkpt lat="45.59787" lon="6.66889">
        <ele>1484</ele>
        <time>2016-02-06T08:27:07Z</time>
      </trkpt>
      <trkpt lat="45.59788" lon="6.66888">
        <ele>1484</ele>
        <time>2016-02-06T08:27:10Z</time>
      </trkpt>
      <trkpt lat="45.59789" lon="6.66886">
        <ele>1484</ele>
        <time>2016-02-06T08:27:12Z</time>
      </trkpt>
      <trkpt lat="45.5979" lon="6.66885">
        <ele>1485</ele>
        <time>2016-02-06T08:27:14Z</time>
      </trkpt>
      <trkpt lat="45.59792" lon="6.66884">
        <ele>1485</ele>
        <time>2016-02-06T08:27:16Z</time>
      </trkpt>
      <trkpt lat="45.59793" lon="6.66886">
        <ele>1485</ele>
        <time>2016-02-06T08:27:19Z</time>
      </trkpt>
      <trkpt lat="45.59794" lon="6.66886">
        <ele>1485</ele>
        <time>2016-02-06T08:27:21Z</time>
      </trkpt>
      <trkpt lat="45.59795" lon="6.66886">
        <ele>1485</ele>
        <time>2016-02-06T08:27:23Z</time>
      </trkpt>
      <trkpt lat="45.59797" lon="6.66887">
        <ele>1485</ele>
        <time>2016-02-06T08:27:27Z</time>
      </trkpt>
      <trkpt lat="45.59798" lon="6.66889">
        <ele>1485</ele>
        <time>2016-02-06T08:27:30Z</time>
      </trkpt>
      <trkpt lat="45.59798" lon="6.66887">
        <ele>1485</ele>
        <time>2016-02-06T08:27:35Z</time>
      </trkpt>
      <trkpt lat="45.59797" lon="6.66885">
        <ele>1485</ele>
        <time>2016-02-06T08:27:37Z</time>
      </trkpt>
      <trkpt lat="45.59797" lon="6.66883">
        <ele>1485</ele>
        <time>2016-02-06T08:27:39Z</time>
      </trkpt>
      <trkpt lat="45.59797" lon="6.66881">
        <ele>1486</ele>
        <time>2016-02-06T08:27:41Z</time>
      </trkpt>
      <trkpt lat="45.59797" lon="6.66879">
        <ele>1486</ele>
        <time>2016-02-06T08:27:43Z</time>
      </trkpt>
      <trkpt lat="45.59796" lon="6.66877">
        <ele>1486</ele>
        <time>2016-02-06T08:27:45Z</time>
      </trkpt>
      <trkpt lat="45.59796" lon="6.66875">
        <ele>1486</ele>
        <time>2016-02-06T08:27:47Z</time>
      </trkpt>
      <trkpt lat="45.59797" lon="6.66872">
        <ele>1486</ele>
        <time>2016-02-06T08:27:49Z</time>
      </trkpt>
      <trkpt lat="45.59798" lon="6.66869">
        <ele>1486</ele>
        <time>2016-02-06T08:27:52Z</time>
      </trkpt>
      <trkpt lat="45.59798" lon="6.66867">
        <ele>1487</ele>
        <time>2016-02-06T08:27:54Z</time>
      </trkpt>
      <trkpt lat="45.598" lon="6.66865">
        <ele>1487</ele>
        <time>2016-02-06T08:27:56Z</time>
      </trkpt>
      <trkpt lat="45.598" lon="6.66863">
        <ele>1487</ele>
        <time>2016-02-06T08:27:58Z</time>
      </trkpt>
      <trkpt lat="45.59802" lon="6.66863">
        <ele>1487</ele>
        <time>2016-02-06T08:28:00Z</time>
      </trkpt>
      <trkpt lat="45.59803" lon="6.66862">
        <ele>1487</ele>
        <time>2016-02-06T08:28:02Z</time>
      </trkpt>
      <trkpt lat="45.59804" lon="6.66863">
        <ele>1488</ele>
        <time>2016-02-06T08:28:05Z</time>
      </trkpt>
      <trkpt lat="45.59805" lon="6.66865">
        <ele>1488</ele>
        <time>2016-02-06T08:28:07Z</time>
      </trkpt>
      <trkpt lat="45.59806" lon="6.66866">
        <ele>1488</ele>
        <time>2016-02-06T08:28:10Z</time>
      </trkpt>
      <trkpt lat="45.59808" lon="6.66866">
        <ele>1488</ele>
        <time>2016-02-06T08:28:14Z</time>
      </trkpt>
      <trkpt lat="45.59809" lon="6.66864">
        <ele>1488</ele>
        <time>2016-02-06T08:28:17Z</time>
      </trkpt>
      <trkpt lat="45.59811" lon="6.66862">
        <ele>1489</ele>
        <time>2016-02-06T08:28:19Z</time>
      </trkpt>
      <trkpt lat="45.59812" lon="6.6686">
        <ele>1489</ele>
        <time>2016-02-06T08:28:20Z</time>
      </trkpt>
      <trkpt lat="45.59814" lon="6.6686">
        <ele>1489</ele>
        <time>2016-02-06T08:28:24Z</time>
      </trkpt>
      <trkpt lat="45.59815" lon="6.66859">
        <ele>1490</ele>
        <time>2016-02-06T08:28:26Z</time>
      </trkpt>
      <trkpt lat="45.59816" lon="6.66857">
        <ele>1490</ele>
        <time>2016-02-06T08:28:28Z</time>
      </trkpt>
      <trkpt lat="45.59817" lon="6.66856">
        <ele>1490</ele>
        <time>2016-02-06T08:28:29Z</time>
      </trkpt>
      <trkpt lat="45.59817" lon="6.66854">
        <ele>1491</ele>
        <time>2016-02-06T08:28:31Z</time>
      </trkpt>
      <trkpt lat="45.59818" lon="6.66854">
        <ele>1491</ele>
        <time>2016-02-06T08:28:34Z</time>
      </trkpt>
      <trkpt lat="45.59819" lon="6.66852">
        <ele>1492</ele>
        <time>2016-02-06T08:28:36Z</time>
      </trkpt>
      <trkpt lat="45.5982" lon="6.6685">
        <ele>1492</ele>
        <time>2016-02-06T08:28:38Z</time>
      </trkpt>
      <trkpt lat="45.59821" lon="6.66849">
        <ele>1493</ele>
        <time>2016-02-06T08:28:41Z</time>
      </trkpt>
      <trkpt lat="45.59822" lon="6.66848">
        <ele>1493</ele>
        <time>2016-02-06T08:28:43Z</time>
      </trkpt>
      <trkpt lat="45.59824" lon="6.66847">
        <ele>1494</ele>
        <time>2016-02-06T08:28:48Z</time>
      </trkpt>
      <trkpt lat="45.59826" lon="6.66847">
        <ele>1494</ele>
        <time>2016-02-06T08:28:52Z</time>
      </trkpt>
      <trkpt lat="45.59826" lon="6.66845">
        <ele>1495</ele>
        <time>2016-02-06T08:28:54Z</time>
      </trkpt>
      <trkpt lat="45.59828" lon="6.66844">
        <ele>1495</ele>
        <time>2016-02-06T08:28:57Z</time>
      </trkpt>
      <trkpt lat="45.59829" lon="6.66844">
        <ele>1496</ele>
        <time>2016-02-06T08:29:00Z</time>
      </trkpt>
      <trkpt lat="45.5983" lon="6.66843">
        <ele>1496</ele>
        <time>2016-02-06T08:29:02Z</time>
      </trkpt>
      <trkpt lat="45.59832" lon="6.66843">
        <ele>1497</ele>
        <time>2016-02-06T08:29:04Z</time>
      </trkpt>
      <trkpt lat="45.59834" lon="6.66843">
        <ele>1503</ele>
        <time>2016-02-06T08:29:06Z</time>
      </trkpt>
      <trkpt lat="45.59836" lon="6.66842">
        <ele>1503</ele>
        <time>2016-02-06T08:29:08Z</time>
      </trkpt>
      <trkpt lat="45.59837" lon="6.66842">
        <ele>1503</ele>
        <time>2016-02-06T08:29:10Z</time>
      </trkpt>
      <trkpt lat="45.59838" lon="6.66841">
        <ele>1503</ele>
        <time>2016-02-06T08:29:12Z</time>
      </trkpt>
      <trkpt lat="45.5984" lon="6.6684">
        <ele>1503</ele>
        <time>2016-02-06T08:29:15Z</time>
      </trkpt>
      <trkpt lat="45.59839" lon="6.66839">
        <ele>1503</ele>
        <time>2016-02-06T08:29:29Z</time>
      </trkpt>
      <trkpt lat="45.59839" lon="6.66837">
        <ele>1503</ele>
        <time>2016-02-06T08:29:42Z</time>
      </trkpt>
      <trkpt lat="45.5984" lon="6.66835">
        <ele>1503</ele>
        <time>2016-02-06T08:29:49Z</time>
      </trkpt>
      <trkpt lat="45.59839" lon="6.66834">
        <ele>1503</ele>
        <time>2016-02-06T08:29:55Z</time>
      </trkpt>
      <trkpt lat="45.59839" lon="6.66832">
        <ele>1506</ele>
        <time>2016-02-06T08:29:57Z</time>
      </trkpt>
      <trkpt lat="45.59838" lon="6.6683">
        <ele>1506</ele>
        <time>2016-02-06T08:29:59Z</time>
      </trkpt>
      <trkpt lat="45.59837" lon="6.66827">
        <ele>1507</ele>
        <time>2016-02-06T08:30:01Z</time>
      </trkpt>
      <trkpt lat="45.59836" lon="6.66827">
        <ele>1507</ele>
        <time>2016-02-06T08:30:04Z</time>
      </trkpt>
      <trkpt lat="45.59835" lon="6.66826">
        <ele>1508</ele>
        <time>2016-02-06T08:30:08Z</time>
      </trkpt>
      <trkpt lat="45.59834" lon="6.66825">
        <ele>1508</ele>
        <time>2016-02-06T08:30:12Z</time>
      </trkpt>
      <trkpt lat="45.59833" lon="6.66823">
        <ele>1501</ele>
        <time>2016-02-06T08:30:16Z</time>
      </trkpt>
      <trkpt lat="45.59833" lon="6.66821">
        <ele>1501</ele>
        <time>2016-02-06T08:30:18Z</time>
      </trkpt>
      <trkpt lat="45.59832" lon="6.66819">
        <ele>1501</ele>
        <time>2016-02-06T08:30:20Z</time>
      </trkpt>
      <trkpt lat="45.59832" lon="6.66817">
        <ele>1501</ele>
        <time>2016-02-06T08:30:22Z</time>
      </trkpt>
      <trkpt lat="45.59832" lon="6.66815">
        <ele>1501</ele>
        <time>2016-02-06T08:30:25Z</time>
      </trkpt>
      <trkpt lat="45.59832" lon="6.66813">
        <ele>1501</ele>
        <time>2016-02-06T08:30:27Z</time>
      </trkpt>
      <trkpt lat="45.59831" lon="6.66811">
        <ele>1501</ele>
        <time>2016-02-06T08:30:29Z</time>
      </trkpt>
      <trkpt lat="45.59831" lon="6.6681">
        <ele>1501</ele>
        <time>2016-02-06T08:30:33Z</time>
      </trkpt>
      <trkpt lat="45.59832" lon="6.66808">
        <ele>1501</ele>
        <time>2016-02-06T08:30:36Z</time>
      </trkpt>
      <trkpt lat="45.59832" lon="6.66806">
        <ele>1501</ele>
        <time>2016-02-06T08:30:39Z</time>
      </trkpt>
      <trkpt lat="45.59831" lon="6.66805">
        <ele>1501</ele>
        <time>2016-02-06T08:30:42Z</time>
      </trkpt>
      <trkpt lat="45.59831" lon="6.66803">
        <ele>1502</ele>
        <time>2016-02-06T08:30:44Z</time>
      </trkpt>
      <trkpt lat="45.59831" lon="6.66801">
        <ele>1502</ele>
        <time>2016-02-06T08:30:46Z</time>
      </trkpt>
      <trkpt lat="45.59831" lon="6.66798">
        <ele>1502</ele>
        <time>2016-02-06T08:30:48Z</time>
      </trkpt>
      <trkpt lat="45.59832" lon="6.66796">
        <ele>1502</ele>
        <time>2016-02-06T08:30:50Z</time>
      </trkpt>
      <trkpt lat="45.59832" lon="6.66794">
        <ele>1503</ele>
        <time>2016-02-06T08:30:52Z</time>
      </trkpt>
      <trkpt lat="45.59833" lon="6.66792">
        <ele>1503</ele>
        <time>2016-02-06T08:30:54Z</time>
      </trkpt>
      <trkpt lat="45.59833" lon="6.6679">
        <ele>1503</ele>
        <time>2016-02-06T08:30:56Z</time>
      </trkpt>
      <trkpt lat="45.59833" lon="6.66788">
        <ele>1504</ele>
        <time>2016-02-06T08:30:58Z</time>
      </trkpt>
      <trkpt lat="45.59833" lon="6.66786">
        <ele>1504</ele>
        <time>2016-02-06T08:31:00Z</time>
      </trkpt>
      <trkpt lat="45.59834" lon="6.66784">
        <ele>1520</ele>
        <time>2016-02-06T08:31:02Z</time>
      </trkpt>
      <trkpt lat="45.59834" lon="6.66782">
        <ele>1520</ele>
        <time>2016-02-06T08:31:04Z</time>
      </trkpt>
      <trkpt lat="45.59834" lon="6.66779">
        <ele>1520</ele>
        <time>2016-02-06T08:31:06Z</time>
      </trkpt>
      <trkpt lat="45.59834" lon="6.66778">
        <ele>1520</ele>
        <time>2016-02-06T08:31:07Z</time>
      </trkpt>
      <trkpt lat="45.59833" lon="6.66776">
        <ele>1507</ele>
        <time>2016-02-06T08:31:10Z</time>
      </trkpt>
      <trkpt lat="45.59833" lon="6.66774">
        <ele>1507</ele>
        <time>2016-02-06T08:31:12Z</time>
      </trkpt>
      <trkpt lat="45.59833" lon="6.66772">
        <ele>1508</ele>
        <time>2016-02-06T08:31:14Z</time>
      </trkpt>
      <trkpt lat="45.59835" lon="6.66771">
        <ele>1521</ele>
        <time>2016-02-06T08:31:18Z</time>
      </trkpt>
      <trkpt lat="45.59835" lon="6.66769">
        <ele>1521</ele>
        <time>2016-02-06T08:31:21Z</time>
      </trkpt>
      <trkpt lat="45.59836" lon="6.66769">
        <ele>1521</ele>
        <time>2016-02-06T08:31:24Z</time>
      </trkpt>
      <trkpt lat="45.59838" lon="6.66768">
        <ele>1521</ele>
        <time>2016-02-06T08:31:26Z</time>
      </trkpt>
      <trkpt lat="45.5984" lon="6.66768">
        <ele>1521</ele>
        <time>2016-02-06T08:31:28Z</time>
      </trkpt>
      <trkpt lat="45.59841" lon="6.66768">
        <ele>1521</ele>
        <time>2016-02-06T08:31:29Z</time>
      </trkpt>
      <trkpt lat="45.59842" lon="6.66766">
        <ele>1521</ele>
        <time>2016-02-06T08:31:33Z</time>
      </trkpt>
      <trkpt lat="45.59844" lon="6.66765">
        <ele>1521</ele>
        <time>2016-02-06T08:31:37Z</time>
      </trkpt>
      <trkpt lat="45.59844" lon="6.66763">
        <ele>1521</ele>
        <time>2016-02-06T08:31:41Z</time>
      </trkpt>
      <trkpt lat="45.59844" lon="6.66761">
        <ele>1521</ele>
        <time>2016-02-06T08:31:43Z</time>
      </trkpt>
      <trkpt lat="45.59843" lon="6.6676">
        <ele>1521</ele>
        <time>2016-02-06T08:31:44Z</time>
      </trkpt>
      <trkpt lat="45.59843" lon="6.66758">
        <ele>1521</ele>
        <time>2016-02-06T08:31:46Z</time>
      </trkpt>
      <trkpt lat="45.59844" lon="6.66756">
        <ele>1521</ele>
        <time>2016-02-06T08:31:50Z</time>
      </trkpt>
      <trkpt lat="45.59844" lon="6.66754">
        <ele>1521</ele>
        <time>2016-02-06T08:31:52Z</time>
      </trkpt>
      <trkpt lat="45.59845" lon="6.66753">
        <ele>1521</ele>
        <time>2016-02-06T08:31:54Z</time>
      </trkpt>
      <trkpt lat="45.59846" lon="6.66753">
        <ele>1521</ele>
        <time>2016-02-06T08:31:56Z</time>
      </trkpt>
      <trkpt lat="45.59848" lon="6.66753">
        <ele>1522</ele>
        <time>2016-02-06T08:31:58Z</time>
      </trkpt>
      <trkpt lat="45.5985" lon="6.66753">
        <ele>1522</ele>
        <time>2016-02-06T08:32:00Z</time>
      </trkpt>
      <trkpt lat="45.59851" lon="6.66753">
        <ele>1522</ele>
        <time>2016-02-06T08:32:02Z</time>
      </trkpt>
      <trkpt lat="45.59853" lon="6.66753">
        <ele>1522</ele>
        <time>2016-02-06T08:32:05Z</time>
      </trkpt>
      <trkpt lat="45.59854" lon="6.66754">
        <ele>1523</ele>
        <time>2016-02-06T08:32:07Z</time>
      </trkpt>
      <trkpt lat="45.59856" lon="6.66754">
        <ele>1523</ele>
        <time>2016-02-06T08:32:09Z</time>
      </trkpt>
      <trkpt lat="45.59857" lon="6.66755">
        <ele>1523</ele>
        <time>2016-02-06T08:32:11Z</time>
      </trkpt>
      <trkpt lat="45.59858" lon="6.66755">
        <ele>1523</ele>
        <time>2016-02-06T08:32:13Z</time>
      </trkpt>
      <trkpt lat="45.59859" lon="6.66755">
        <ele>1524</ele>
        <time>2016-02-06T08:32:15Z</time>
      </trkpt>
      <trkpt lat="45.5986" lon="6.66755">
        <ele>1524</ele>
        <time>2016-02-06T08:32:17Z</time>
      </trkpt>
      <trkpt lat="45.59861" lon="6.66756">
        <ele>1524</ele>
        <time>2016-02-06T08:32:20Z</time>
      </trkpt>
      <trkpt lat="45.59863" lon="6.66757">
        <ele>1524</ele>
        <time>2016-02-06T08:32:23Z</time>
      </trkpt>
      <trkpt lat="45.59864" lon="6.66758">
        <ele>1524</ele>
        <time>2016-02-06T08:32:26Z</time>
      </trkpt>
      <trkpt lat="45.59866" lon="6.6676">
        <ele>1525</ele>
        <time>2016-02-06T08:32:29Z</time>
      </trkpt>
      <trkpt lat="45.59867" lon="6.6676">
        <ele>1525</ele>
        <time>2016-02-06T08:32:31Z</time>
      </trkpt>
      <trkpt lat="45.59868" lon="6.66761">
        <ele>1525</ele>
        <time>2016-02-06T08:32:34Z</time>
      </trkpt>
      <trkpt lat="45.59869" lon="6.66762">
        <ele>1525</ele>
        <time>2016-02-06T08:32:36Z</time>
      </trkpt>
      <trkpt lat="45.59871" lon="6.66762">
        <ele>1526</ele>
        <time>2016-02-06T08:32:39Z</time>
      </trkpt>
      <trkpt lat="45.59872" lon="6.66763">
        <ele>1526</ele>
        <time>2016-02-06T08:32:41Z</time>
      </trkpt>
      <trkpt lat="45.59873" lon="6.66765">
        <ele>1526</ele>
        <time>2016-02-06T08:32:44Z</time>
      </trkpt>
      <trkpt lat="45.59875" lon="6.66767">
        <ele>1526</ele>
        <time>2016-02-06T08:32:47Z</time>
      </trkpt>
      <trkpt lat="45.59877" lon="6.66768">
        <ele>1526</ele>
        <time>2016-02-06T08:32:50Z</time>
      </trkpt>
      <trkpt lat="45.59878" lon="6.66769">
        <ele>1527</ele>
        <time>2016-02-06T08:32:52Z</time>
      </trkpt>
      <trkpt lat="45.5988" lon="6.66769">
        <ele>1527</ele>
        <time>2016-02-06T08:32:56Z</time>
      </trkpt>
      <trkpt lat="45.59881" lon="6.66769">
        <ele>1527</ele>
        <time>2016-02-06T08:33:00Z</time>
      </trkpt>
      <trkpt lat="45.59882" lon="6.66769">
        <ele>1528</ele>
        <time>2016-02-06T08:33:01Z</time>
      </trkpt>
      <trkpt lat="45.59884" lon="6.66769">
        <ele>1528</ele>
        <time>2016-02-06T08:33:03Z</time>
      </trkpt>
      <trkpt lat="45.59885" lon="6.6677">
        <ele>1528</ele>
        <time>2016-02-06T08:33:06Z</time>
      </trkpt>
      <trkpt lat="45.59886" lon="6.66771">
        <ele>1528</ele>
        <time>2016-02-06T08:33:09Z</time>
      </trkpt>
      <trkpt lat="45.59887" lon="6.66772">
        <ele>1528</ele>
        <time>2016-02-06T08:33:12Z</time>
      </trkpt>
      <trkpt lat="45.59888" lon="6.66772">
        <ele>1528</ele>
        <time>2016-02-06T08:33:18Z</time>
      </trkpt>
      <trkpt lat="45.59888" lon="6.66771">
        <ele>1529</ele>
        <time>2016-02-06T08:33:27Z</time>
      </trkpt>
      <trkpt lat="45.59887" lon="6.6677">
        <ele>1528</ele>
        <time>2016-02-06T08:33:39Z</time>
      </trkpt>
      <trkpt lat="45.59887" lon="6.66772">
        <ele>1528</ele>
        <time>2016-02-06T08:33:58Z</time>
      </trkpt>
      <trkpt lat="45.59885" lon="6.66773">
        <ele>1528</ele>
        <time>2016-02-06T08:34:07Z</time>
      </trkpt>
      <trkpt lat="45.59884" lon="6.66773">
        <ele>1528</ele>
        <time>2016-02-06T08:34:13Z</time>
      </trkpt>
      <trkpt lat="45.59885" lon="6.66772">
        <ele>1528</ele>
        <time>2016-02-06T08:34:39Z</time>
      </trkpt>
      <trkpt lat="45.59886" lon="6.6677">
        <ele>1528</ele>
        <time>2016-02-06T08:34:49Z</time>
      </trkpt>
      <trkpt lat="45.59886" lon="6.66768">
        <ele>1528</ele>
        <time>2016-02-06T08:34:51Z</time>
      </trkpt>
      <trkpt lat="45.59886" lon="6.66767">
        <ele>1529</ele>
        <time>2016-02-06T08:34:53Z</time>
      </trkpt>
      <trkpt lat="45.59886" lon="6.66765">
        <ele>1529</ele>
        <time>2016-02-06T08:34:55Z</time>
      </trkpt>
      <trkpt lat="45.59886" lon="6.66763">
        <ele>1529</ele>
        <time>2016-02-06T08:34:58Z</time>
      </trkpt>
      <trkpt lat="45.59886" lon="6.66761">
        <ele>1529</ele>
        <time>2016-02-06T08:35:01Z</time>
      </trkpt>
      <trkpt lat="45.59885" lon="6.66759">
        <ele>1529</ele>
        <time>2016-02-06T08:35:04Z</time>
      </trkpt>
      <trkpt lat="45.59884" lon="6.66757">
        <ele>1529</ele>
        <time>2016-02-06T08:35:06Z</time>
      </trkpt>
      <trkpt lat="45.59884" lon="6.66754">
        <ele>1529</ele>
        <time>2016-02-06T08:35:08Z</time>
      </trkpt>
      <trkpt lat="45.59883" lon="6.66752">
        <ele>1529</ele>
        <time>2016-02-06T08:35:10Z</time>
      </trkpt>
      <trkpt lat="45.59884" lon="6.66751">
        <ele>1530</ele>
        <time>2016-02-06T08:35:13Z</time>
      </trkpt>
      <trkpt lat="45.59886" lon="6.66752">
        <ele>1530</ele>
        <time>2016-02-06T08:35:16Z</time>
      </trkpt>
      <trkpt lat="45.59888" lon="6.66753">
        <ele>1530</ele>
        <time>2016-02-06T08:35:19Z</time>
      </trkpt>
      <trkpt lat="45.59889" lon="6.66753">
        <ele>1531</ele>
        <time>2016-02-06T08:35:21Z</time>
      </trkpt>
      <trkpt lat="45.5989" lon="6.66754">
        <ele>1531</ele>
        <time>2016-02-06T08:35:24Z</time>
      </trkpt>
      <trkpt lat="45.59891" lon="6.66755">
        <ele>1531</ele>
        <time>2016-02-06T08:35:27Z</time>
      </trkpt>
      <trkpt lat="45.59893" lon="6.66755">
        <ele>1532</ele>
        <time>2016-02-06T08:35:29Z</time>
      </trkpt>
      <trkpt lat="45.59894" lon="6.66756">
        <ele>1532</ele>
        <time>2016-02-06T08:35:31Z</time>
      </trkpt>
      <trkpt lat="45.59895" lon="6.66758">
        <ele>1533</ele>
        <time>2016-02-06T08:35:34Z</time>
      </trkpt>
      <trkpt lat="45.59896" lon="6.66759">
        <ele>1533</ele>
        <time>2016-02-06T08:35:36Z</time>
      </trkpt>
      <trkpt lat="45.59898" lon="6.6676">
        <ele>1533</ele>
        <time>2016-02-06T08:35:38Z</time>
      </trkpt>
      <trkpt lat="45.59899" lon="6.6676">
        <ele>1534</ele>
        <time>2016-02-06T08:35:47Z</time>
      </trkpt>
      <trkpt lat="45.599" lon="6.6676">
        <ele>1534</ele>
        <time>2016-02-06T08:35:51Z</time>
      </trkpt>
      <trkpt lat="45.59901" lon="6.66758">
        <ele>1535</ele>
        <time>2016-02-06T08:36:12Z</time>
      </trkpt>
      <trkpt lat="45.59903" lon="6.66759">
        <ele>1535</ele>
        <time>2016-02-06T08:36:26Z</time>
      </trkpt>
      <trkpt lat="45.59904" lon="6.66759">
        <ele>1535</ele>
        <time>2016-02-06T08:36:33Z</time>
      </trkpt>
      <trkpt lat="45.59905" lon="6.66759">
        <ele>1536</ele>
        <time>2016-02-06T08:36:40Z</time>
      </trkpt>
      <trkpt lat="45.59905" lon="6.66757">
        <ele>1537</ele>
        <time>2016-02-06T08:36:42Z</time>
      </trkpt>
      <trkpt lat="45.59905" lon="6.66756">
        <ele>1537</ele>
        <time>2016-02-06T08:36:51Z</time>
      </trkpt>
      <trkpt lat="45.59903" lon="6.66757">
        <ele>1536</ele>
        <time>2016-02-06T08:37:03Z</time>
      </trkpt>
      <trkpt lat="45.59904" lon="6.66755">
        <ele>1537</ele>
        <time>2016-02-06T08:37:12Z</time>
      </trkpt>
      <trkpt lat="45.59904" lon="6.66753">
        <ele>1537</ele>
        <time>2016-02-06T08:37:14Z</time>
      </trkpt>
      <trkpt lat="45.59904" lon="6.6675">
        <ele>1537</ele>
        <time>2016-02-06T08:37:16Z</time>
      </trkpt>
      <trkpt lat="45.59904" lon="6.66748">
        <ele>1544</ele>
        <time>2016-02-06T08:37:18Z</time>
      </trkpt>
      <trkpt lat="45.59904" lon="6.66747">
        <ele>1544</ele>
        <time>2016-02-06T08:37:19Z</time>
      </trkpt>
      <trkpt lat="45.59904" lon="6.66745">
        <ele>1544</ele>
        <time>2016-02-06T08:37:21Z</time>
      </trkpt>
      <trkpt lat="45.59904" lon="6.66743">
        <ele>1544</ele>
        <time>2016-02-06T08:37:23Z</time>
      </trkpt>
      <trkpt lat="45.59904" lon="6.66741">
        <ele>1544</ele>
        <time>2016-02-06T08:37:25Z</time>
      </trkpt>
      <trkpt lat="45.59905" lon="6.66739">
        <ele>1544</ele>
        <time>2016-02-06T08:37:27Z</time>
      </trkpt>
      <trkpt lat="45.59905" lon="6.66737">
        <ele>1544</ele>
        <time>2016-02-06T08:37:29Z</time>
      </trkpt>
      <trkpt lat="45.59906" lon="6.66735">
        <ele>1544</ele>
        <time>2016-02-06T08:37:32Z</time>
      </trkpt>
      <trkpt lat="45.59908" lon="6.66734">
        <ele>1544</ele>
        <time>2016-02-06T08:37:34Z</time>
      </trkpt>
      <trkpt lat="45.59909" lon="6.66732">
        <ele>1544</ele>
        <time>2016-02-06T08:37:37Z</time>
      </trkpt>
      <trkpt lat="45.59909" lon="6.6673">
        <ele>1545</ele>
        <time>2016-02-06T08:37:39Z</time>
      </trkpt>
      <trkpt lat="45.59909" lon="6.66728">
        <ele>1545</ele>
        <time>2016-02-06T08:37:41Z</time>
      </trkpt>
      <trkpt lat="45.5991" lon="6.66726">
        <ele>1545</ele>
        <time>2016-02-06T08:37:43Z</time>
      </trkpt>
      <trkpt lat="45.5991" lon="6.66724">
        <ele>1545</ele>
        <time>2016-02-06T08:37:45Z</time>
      </trkpt>
      <trkpt lat="45.5991" lon="6.66722">
        <ele>1545</ele>
        <time>2016-02-06T08:37:47Z</time>
      </trkpt>
      <trkpt lat="45.59909" lon="6.66719">
        <ele>1545</ele>
        <time>2016-02-06T08:37:49Z</time>
      </trkpt>
      <trkpt lat="45.59909" lon="6.66717">
        <ele>1545</ele>
        <time>2016-02-06T08:37:51Z</time>
      </trkpt>
      <trkpt lat="45.59909" lon="6.66716">
        <ele>1545</ele>
        <time>2016-02-06T08:37:53Z</time>
      </trkpt>
      <trkpt lat="45.5991" lon="6.66713">
        <ele>1546</ele>
        <time>2016-02-06T08:37:55Z</time>
      </trkpt>
      <trkpt lat="45.5991" lon="6.66711">
        <ele>1546</ele>
        <time>2016-02-06T08:37:57Z</time>
      </trkpt>
      <trkpt lat="45.59911" lon="6.6671">
        <ele>1546</ele>
        <time>2016-02-06T08:37:59Z</time>
      </trkpt>
      <trkpt lat="45.59913" lon="6.66711">
        <ele>1546</ele>
        <time>2016-02-06T08:38:01Z</time>
      </trkpt>
      <trkpt lat="45.59914" lon="6.66712">
        <ele>1546</ele>
        <time>2016-02-06T08:38:02Z</time>
      </trkpt>
      <trkpt lat="45.59916" lon="6.66713">
        <ele>1546</ele>
        <time>2016-02-06T08:38:04Z</time>
      </trkpt>
      <trkpt lat="45.59917" lon="6.66713">
        <ele>1565</ele>
        <time>2016-02-06T08:38:06Z</time>
      </trkpt>
      <trkpt lat="45.59919" lon="6.66714">
        <ele>1565</ele>
        <time>2016-02-06T08:38:09Z</time>
      </trkpt>
      <trkpt lat="45.5992" lon="6.66716">
        <ele>1565</ele>
        <time>2016-02-06T08:38:12Z</time>
      </trkpt>
      <trkpt lat="45.5992" lon="6.66717">
        <ele>1564</ele>
        <time>2016-02-06T08:38:14Z</time>
      </trkpt>
      <trkpt lat="45.59921" lon="6.66719">
        <ele>1564</ele>
        <time>2016-02-06T08:38:16Z</time>
      </trkpt>
      <trkpt lat="45.59923" lon="6.66719">
        <ele>1564</ele>
        <time>2016-02-06T08:38:18Z</time>
      </trkpt>
      <trkpt lat="45.59924" lon="6.6672">
        <ele>1564</ele>
        <time>2016-02-06T08:38:20Z</time>
      </trkpt>
      <trkpt lat="45.59926" lon="6.66721">
        <ele>1564</ele>
        <time>2016-02-06T08:38:22Z</time>
      </trkpt>
      <trkpt lat="45.59927" lon="6.66722">
        <ele>1564</ele>
        <time>2016-02-06T08:38:24Z</time>
      </trkpt>
      <trkpt lat="45.59928" lon="6.66724">
        <ele>1564</ele>
        <time>2016-02-06T08:38:27Z</time>
      </trkpt>
      <trkpt lat="45.5993" lon="6.66726">
        <ele>1564</ele>
        <time>2016-02-06T08:38:30Z</time>
      </trkpt>
      <trkpt lat="45.59931" lon="6.66728">
        <ele>1563</ele>
        <time>2016-02-06T08:38:33Z</time>
      </trkpt>
      <trkpt lat="45.59932" lon="6.66728">
        <ele>1564</ele>
        <time>2016-02-06T08:38:35Z</time>
      </trkpt>
      <trkpt lat="45.59933" lon="6.66728">
        <ele>1564</ele>
        <time>2016-02-06T08:38:37Z</time>
      </trkpt>
      <trkpt lat="45.59935" lon="6.66728">
        <ele>1564</ele>
        <time>2016-02-06T08:38:40Z</time>
      </trkpt>
      <trkpt lat="45.59935" lon="6.66726">
        <ele>1565</ele>
        <time>2016-02-06T08:38:44Z</time>
      </trkpt>
      <trkpt lat="45.59936" lon="6.66725">
        <ele>1565</ele>
        <time>2016-02-06T08:38:47Z</time>
      </trkpt>
      <trkpt lat="45.59937" lon="6.66723">
        <ele>1566</ele>
        <time>2016-02-06T08:38:48Z</time>
      </trkpt>
      <trkpt lat="45.59938" lon="6.66722">
        <ele>1567</ele>
        <time>2016-02-06T08:38:49Z</time>
      </trkpt>
      <trkpt lat="45.59938" lon="6.6672">
        <ele>1567</ele>
        <time>2016-02-06T08:38:51Z</time>
      </trkpt>
      <trkpt lat="45.59938" lon="6.66719">
        <ele>1567</ele>
        <time>2016-02-06T08:38:54Z</time>
      </trkpt>
      <trkpt lat="45.59939" lon="6.66717">
        <ele>1568</ele>
        <time>2016-02-06T08:38:56Z</time>
      </trkpt>
      <trkpt lat="45.5994" lon="6.66716">
        <ele>1568</ele>
        <time>2016-02-06T08:38:59Z</time>
      </trkpt>
      <trkpt lat="45.59941" lon="6.66714">
        <ele>1569</ele>
        <time>2016-02-06T08:39:02Z</time>
      </trkpt>
      <trkpt lat="45.59941" lon="6.66712">
        <ele>1569</ele>
        <time>2016-02-06T08:39:05Z</time>
      </trkpt>
      <trkpt lat="45.59942" lon="6.6671">
        <ele>1570</ele>
        <time>2016-02-06T08:39:07Z</time>
      </trkpt>
      <trkpt lat="45.59943" lon="6.66708">
        <ele>1570</ele>
        <time>2016-02-06T08:39:09Z</time>
      </trkpt>
      <trkpt lat="45.59943" lon="6.66706">
        <ele>1570</ele>
        <time>2016-02-06T08:39:11Z</time>
      </trkpt>
      <trkpt lat="45.59944" lon="6.66705">
        <ele>1571</ele>
        <time>2016-02-06T08:39:13Z</time>
      </trkpt>
      <trkpt lat="45.59945" lon="6.66702">
        <ele>1571</ele>
        <time>2016-02-06T08:39:15Z</time>
      </trkpt>
      <trkpt lat="45.59945" lon="6.667">
        <ele>1571</ele>
        <time>2016-02-06T08:39:17Z</time>
      </trkpt>
      <trkpt lat="45.59946" lon="6.66698">
        <ele>1572</ele>
        <time>2016-02-06T08:39:19Z</time>
      </trkpt>
      <trkpt lat="45.59947" lon="6.66696">
        <ele>1572</ele>
        <time>2016-02-06T08:39:22Z</time>
      </trkpt>
      <trkpt lat="45.59947" lon="6.66694">
        <ele>1572</ele>
        <time>2016-02-06T08:39:24Z</time>
      </trkpt>
      <trkpt lat="45.59947" lon="6.66693">
        <ele>1572</ele>
        <time>2016-02-06T08:39:29Z</time>
      </trkpt>
      <trkpt lat="45.59946" lon="6.66691">
        <ele>1572</ele>
        <time>2016-02-06T08:39:31Z</time>
      </trkpt>
      <trkpt lat="45.59946" lon="6.6669">
        <ele>1572</ele>
        <time>2016-02-06T08:39:33Z</time>
      </trkpt>
      <trkpt lat="45.59947" lon="6.66688">
        <ele>1572</ele>
        <time>2016-02-06T08:39:36Z</time>
      </trkpt>
      <trkpt lat="45.59947" lon="6.66686">
        <ele>1573</ele>
        <time>2016-02-06T08:39:39Z</time>
      </trkpt>
      <trkpt lat="45.59948" lon="6.66685">
        <ele>1573</ele>
        <time>2016-02-06T08:39:41Z</time>
      </trkpt>
      <trkpt lat="45.59948" lon="6.66683">
        <ele>1573</ele>
        <time>2016-02-06T08:39:43Z</time>
      </trkpt>
      <trkpt lat="45.59947" lon="6.66685">
        <ele>1573</ele>
        <time>2016-02-06T08:39:52Z</time>
      </trkpt>
      <trkpt lat="45.59946" lon="6.66686">
        <ele>1572</ele>
        <time>2016-02-06T08:40:00Z</time>
      </trkpt>
      <trkpt lat="45.59946" lon="6.66688">
        <ele>1572</ele>
        <time>2016-02-06T08:40:09Z</time>
      </trkpt>
      <trkpt lat="45.59946" lon="6.66686">
        <ele>1572</ele>
        <time>2016-02-06T08:40:18Z</time>
      </trkpt>
      <trkpt lat="45.59947" lon="6.66684">
        <ele>1573</ele>
        <time>2016-02-06T08:40:24Z</time>
      </trkpt>
      <trkpt lat="45.59948" lon="6.66684">
        <ele>1573</ele>
        <time>2016-02-06T08:40:27Z</time>
      </trkpt>
      <trkpt lat="45.59949" lon="6.66683">
        <ele>1573</ele>
        <time>2016-02-06T08:40:30Z</time>
      </trkpt>
      <trkpt lat="45.59951" lon="6.66683">
        <ele>1574</ele>
        <time>2016-02-06T08:40:32Z</time>
      </trkpt>
      <trkpt lat="45.59952" lon="6.66683">
        <ele>1574</ele>
        <time>2016-02-06T08:40:35Z</time>
      </trkpt>
      <trkpt lat="45.59953" lon="6.66683">
        <ele>1575</ele>
        <time>2016-02-06T08:40:38Z</time>
      </trkpt>
      <trkpt lat="45.59953" lon="6.66685">
        <ele>1574</ele>
        <time>2016-02-06T08:40:43Z</time>
      </trkpt>
      <trkpt lat="45.59952" lon="6.66686">
        <ele>1574</ele>
        <time>2016-02-06T08:40:54Z</time>
      </trkpt>
      <trkpt lat="45.59953" lon="6.66685">
        <ele>1574</ele>
        <time>2016-02-06T08:41:01Z</time>
      </trkpt>
      <trkpt lat="45.59952" lon="6.66686">
        <ele>1574</ele>
        <time>2016-02-06T08:41:08Z</time>
      </trkpt>
      <trkpt lat="45.59953" lon="6.66687">
        <ele>1574</ele>
        <time>2016-02-06T08:41:21Z</time>
      </trkpt>
      <trkpt lat="45.59954" lon="6.66689">
        <ele>1575</ele>
        <time>2016-02-06T08:41:23Z</time>
      </trkpt>
      <trkpt lat="45.59955" lon="6.66691">
        <ele>1575</ele>
        <time>2016-02-06T08:41:25Z</time>
      </trkpt>
      <trkpt lat="45.59957" lon="6.66691">
        <ele>1575</ele>
        <time>2016-02-06T08:41:27Z</time>
      </trkpt>
      <trkpt lat="45.59958" lon="6.66692">
        <ele>1575</ele>
        <time>2016-02-06T08:41:29Z</time>
      </trkpt>
      <trkpt lat="45.5996" lon="6.66693">
        <ele>1576</ele>
        <time>2016-02-06T08:41:31Z</time>
      </trkpt>
      <trkpt lat="45.59961" lon="6.66694">
        <ele>1576</ele>
        <time>2016-02-06T08:41:33Z</time>
      </trkpt>
      <trkpt lat="45.59963" lon="6.66694">
        <ele>1576</ele>
        <time>2016-02-06T08:41:35Z</time>
      </trkpt>
      <trkpt lat="45.59965" lon="6.66693">
        <ele>1577</ele>
        <time>2016-02-06T08:41:37Z</time>
      </trkpt>
      <trkpt lat="45.59966" lon="6.66693">
        <ele>1578</ele>
        <time>2016-02-06T08:41:39Z</time>
      </trkpt>
      <trkpt lat="45.59968" lon="6.66692">
        <ele>1578</ele>
        <time>2016-02-06T08:41:42Z</time>
      </trkpt>
      <trkpt lat="45.5997" lon="6.66693">
        <ele>1579</ele>
        <time>2016-02-06T08:41:44Z</time>
      </trkpt>
      <trkpt lat="45.59971" lon="6.66693">
        <ele>1579</ele>
        <time>2016-02-06T08:41:45Z</time>
      </trkpt>
      <trkpt lat="45.59972" lon="6.66695">
        <ele>1579</ele>
        <time>2016-02-06T08:41:47Z</time>
      </trkpt>
      <trkpt lat="45.59972" lon="6.66697">
        <ele>1578</ele>
        <time>2016-02-06T08:41:49Z</time>
      </trkpt>
      <trkpt lat="45.59973" lon="6.66698">
        <ele>1579</ele>
        <time>2016-02-06T08:41:51Z</time>
      </trkpt>
      <trkpt lat="45.59974" lon="6.66697">
        <ele>1579</ele>
        <time>2016-02-06T08:41:52Z</time>
      </trkpt>
      <trkpt lat="45.59975" lon="6.66697">
        <ele>1580</ele>
        <time>2016-02-06T08:41:53Z</time>
      </trkpt>
      <trkpt lat="45.59977" lon="6.66697">
        <ele>1580</ele>
        <time>2016-02-06T08:41:55Z</time>
      </trkpt>
      <trkpt lat="45.59979" lon="6.66697">
        <ele>1580</ele>
        <time>2016-02-06T08:41:57Z</time>
      </trkpt>
      <trkpt lat="45.5998" lon="6.66697">
        <ele>1581</ele>
        <time>2016-02-06T08:41:59Z</time>
      </trkpt>
      <trkpt lat="45.59981" lon="6.66695">
        <ele>1581</ele>
        <time>2016-02-06T08:42:02Z</time>
      </trkpt>
      <trkpt lat="45.59982" lon="6.66693">
        <ele>1582</ele>
        <time>2016-02-06T08:42:04Z</time>
      </trkpt>
      <trkpt lat="45.59982" lon="6.66691">
        <ele>1583</ele>
        <time>2016-02-06T08:42:07Z</time>
      </trkpt>
      <trkpt lat="45.59981" lon="6.66689">
        <ele>1583</ele>
        <time>2016-02-06T08:42:09Z</time>
      </trkpt>
      <trkpt lat="45.59981" lon="6.66687">
        <ele>1584</ele>
        <time>2016-02-06T08:42:11Z</time>
      </trkpt>
      <trkpt lat="45.5998" lon="6.66686">
        <ele>1584</ele>
        <time>2016-02-06T08:42:13Z</time>
      </trkpt>
      <trkpt lat="45.59979" lon="6.66683">
        <ele>1584</ele>
        <time>2016-02-06T08:42:16Z</time>
      </trkpt>
      <trkpt lat="45.59979" lon="6.66681">
        <ele>1585</ele>
        <time>2016-02-06T08:42:17Z</time>
      </trkpt>
      <trkpt lat="45.59979" lon="6.66679">
        <ele>1585</ele>
        <time>2016-02-06T08:42:18Z</time>
      </trkpt>
      <trkpt lat="45.5998" lon="6.66678">
        <ele>1586</ele>
        <time>2016-02-06T08:42:19Z</time>
      </trkpt>
      <trkpt lat="45.59979" lon="6.66678">
        <ele>1586</ele>
        <time>2016-02-06T08:42:21Z</time>
      </trkpt>
      <trkpt lat="45.5998" lon="6.66676">
        <ele>1586</ele>
        <time>2016-02-06T08:42:23Z</time>
      </trkpt>
      <trkpt lat="45.5998" lon="6.66674">
        <ele>1587</ele>
        <time>2016-02-06T08:42:24Z</time>
      </trkpt>
      <trkpt lat="45.59981" lon="6.66672">
        <ele>1588</ele>
        <time>2016-02-06T08:42:26Z</time>
      </trkpt>
      <trkpt lat="45.59981" lon="6.6667">
        <ele>1588</ele>
        <time>2016-02-06T08:42:27Z</time>
      </trkpt>
      <trkpt lat="45.59981" lon="6.66669">
        <ele>1588</ele>
        <time>2016-02-06T08:42:28Z</time>
      </trkpt>
      <trkpt lat="45.59981" lon="6.66667">
        <ele>1589</ele>
        <time>2016-02-06T08:42:30Z</time>
      </trkpt>
      <trkpt lat="45.59981" lon="6.66666">
        <ele>1598</ele>
        <time>2016-02-06T08:42:34Z</time>
      </trkpt>
      <trkpt lat="45.59982" lon="6.66664">
        <ele>1598</ele>
        <time>2016-02-06T08:42:36Z</time>
      </trkpt>
      <trkpt lat="45.59981" lon="6.66662">
        <ele>1598</ele>
        <time>2016-02-06T08:42:39Z</time>
      </trkpt>
      <trkpt lat="45.59981" lon="6.6666">
        <ele>1598</ele>
        <time>2016-02-06T08:42:45Z</time>
      </trkpt>
      <trkpt lat="45.5998" lon="6.66658">
        <ele>1598</ele>
        <time>2016-02-06T08:42:47Z</time>
      </trkpt>
      <trkpt lat="45.59979" lon="6.66657">
        <ele>1597</ele>
        <time>2016-02-06T08:42:49Z</time>
      </trkpt>
      <trkpt lat="45.59978" lon="6.66656">
        <ele>1597</ele>
        <time>2016-02-06T08:42:50Z</time>
      </trkpt>
      <trkpt lat="45.59977" lon="6.66654">
        <ele>1597</ele>
        <time>2016-02-06T08:42:52Z</time>
      </trkpt>
      <trkpt lat="45.59977" lon="6.66652">
        <ele>1597</ele>
        <time>2016-02-06T08:42:54Z</time>
      </trkpt>
      <trkpt lat="45.59977" lon="6.66649">
        <ele>1597</ele>
        <time>2016-02-06T08:42:56Z</time>
      </trkpt>
      <trkpt lat="45.59977" lon="6.66647">
        <ele>1597</ele>
        <time>2016-02-06T08:42:58Z</time>
      </trkpt>
      <trkpt lat="45.59978" lon="6.66645">
        <ele>1597</ele>
        <time>2016-02-06T08:43:01Z</time>
      </trkpt>
      <trkpt lat="45.59977" lon="6.66643">
        <ele>1597</ele>
        <time>2016-02-06T08:43:04Z</time>
      </trkpt>
      <trkpt lat="45.59977" lon="6.66642">
        <ele>1597</ele>
        <time>2016-02-06T08:43:06Z</time>
      </trkpt>
      <trkpt lat="45.59978" lon="6.6664">
        <ele>1597</ele>
        <time>2016-02-06T08:43:08Z</time>
      </trkpt>
      <trkpt lat="45.59978" lon="6.66638">
        <ele>1597</ele>
        <time>2016-02-06T08:43:10Z</time>
      </trkpt>
      <trkpt lat="45.59977" lon="6.66638">
        <ele>1597</ele>
        <time>2016-02-06T08:43:11Z</time>
      </trkpt>
      <trkpt lat="45.59976" lon="6.66639">
        <ele>1597</ele>
        <time>2016-02-06T08:43:14Z</time>
      </trkpt>
      <trkpt lat="45.59976" lon="6.66637">
        <ele>1597</ele>
        <time>2016-02-06T08:43:19Z</time>
      </trkpt>
      <trkpt lat="45.59976" lon="6.66635">
        <ele>1597</ele>
        <time>2016-02-06T08:43:27Z</time>
      </trkpt>
      <trkpt lat="45.59977" lon="6.66636">
        <ele>1597</ele>
        <time>2016-02-06T08:43:30Z</time>
      </trkpt>
      <trkpt lat="45.59978" lon="6.66638">
        <ele>1597</ele>
        <time>2016-02-06T08:43:32Z</time>
      </trkpt>
      <trkpt lat="45.59978" lon="6.6664">
        <ele>1597</ele>
        <time>2016-02-06T08:43:33Z</time>
      </trkpt>
      <trkpt lat="45.59978" lon="6.66642">
        <ele>1597</ele>
        <time>2016-02-06T08:43:36Z</time>
      </trkpt>
      <trkpt lat="45.59979" lon="6.66641">
        <ele>1597</ele>
        <time>2016-02-06T08:43:39Z</time>
      </trkpt>
      <trkpt lat="45.59979" lon="6.66639">
        <ele>1597</ele>
        <time>2016-02-06T08:43:42Z</time>
      </trkpt>
      <trkpt lat="45.5998" lon="6.66637">
        <ele>1598</ele>
        <time>2016-02-06T08:43:44Z</time>
      </trkpt>
      <trkpt lat="45.59981" lon="6.66636">
        <ele>1598</ele>
        <time>2016-02-06T08:43:49Z</time>
      </trkpt>
      <trkpt lat="45.59983" lon="6.66633">
        <ele>1599</ele>
        <time>2016-02-06T08:43:52Z</time>
      </trkpt>
      <trkpt lat="45.59985" lon="6.66634">
        <ele>1599</ele>
        <time>2016-02-06T08:43:53Z</time>
      </trkpt>
      <trkpt lat="45.59983" lon="6.66635">
        <ele>1598</ele>
        <time>2016-02-06T08:43:55Z</time>
      </trkpt>
      <trkpt lat="45.59982" lon="6.66635">
        <ele>1598</ele>
        <time>2016-02-06T08:43:57Z</time>
      </trkpt>
      <trkpt lat="45.59982" lon="6.66636">
        <ele>1598</ele>
        <time>2016-02-06T08:43:59Z</time>
      </trkpt>
      <trkpt lat="45.5998" lon="6.66637">
        <ele>1598</ele>
        <time>2016-02-06T08:44:00Z</time>
      </trkpt>
      <trkpt lat="45.59979" lon="6.66637">
        <ele>1597</ele>
        <time>2016-02-06T08:44:05Z</time>
      </trkpt>
      <trkpt lat="45.59978" lon="6.66639">
        <ele>1597</ele>
        <time>2016-02-06T08:44:06Z</time>
      </trkpt>
      <trkpt lat="45.59977" lon="6.66641">
        <ele>1597</ele>
        <time>2016-02-06T08:44:09Z</time>
      </trkpt>
      <trkpt lat="45.59979" lon="6.66641">
        <ele>1597</ele>
        <time>2016-02-06T08:44:12Z</time>
      </trkpt>
      <trkpt lat="45.5998" lon="6.6664">
        <ele>1597</ele>
        <time>2016-02-06T08:44:14Z</time>
      </trkpt>
      <trkpt lat="45.59981" lon="6.6664">
        <ele>1598</ele>
        <time>2016-02-06T08:44:19Z</time>
      </trkpt>
      <trkpt lat="45.59983" lon="6.66638">
        <ele>1598</ele>
        <time>2016-02-06T08:44:21Z</time>
      </trkpt>
      <trkpt lat="45.59983" lon="6.66636">
        <ele>1598</ele>
        <time>2016-02-06T08:44:25Z</time>
      </trkpt>
      <trkpt lat="45.59982" lon="6.66639">
        <ele>1598</ele>
        <time>2016-02-06T08:44:30Z</time>
      </trkpt>
      <trkpt lat="45.59983" lon="6.66638">
        <ele>1598</ele>
        <time>2016-02-06T08:44:42Z</time>
      </trkpt>
      <trkpt lat="45.59982" lon="6.66639">
        <ele>1598</ele>
        <time>2016-02-06T08:44:49Z</time>
      </trkpt>
      <trkpt lat="45.59983" lon="6.66641">
        <ele>1598</ele>
        <time>2016-02-06T08:44:53Z</time>
      </trkpt>
      <trkpt lat="45.59982" lon="6.66641">
        <ele>1598</ele>
        <time>2016-02-06T08:44:59Z</time>
      </trkpt>
      <trkpt lat="45.59981" lon="6.66641">
        <ele>1598</ele>
        <time>2016-02-06T08:45:04Z</time>
      </trkpt>
      <trkpt lat="45.5998" lon="6.66642">
        <ele>1597</ele>
        <time>2016-02-06T08:45:08Z</time>
      </trkpt>
      <trkpt lat="45.59978" lon="6.66641">
        <ele>1597</ele>
        <time>2016-02-06T08:45:14Z</time>
      </trkpt>
      <trkpt lat="45.59977" lon="6.6664">
        <ele>1597</ele>
        <time>2016-02-06T08:45:19Z</time>
      </trkpt>
      <trkpt lat="45.59976" lon="6.6664">
        <ele>1597</ele>
        <time>2016-02-06T08:45:21Z</time>
      </trkpt>
      <trkpt lat="45.59975" lon="6.66638">
        <ele>1596</ele>
        <time>2016-02-06T08:45:23Z</time>
      </trkpt>
      <trkpt lat="45.59975" lon="6.66636">
        <ele>1596</ele>
        <time>2016-02-06T08:45:24Z</time>
      </trkpt>
      <trkpt lat="45.59975" lon="6.66635">
        <ele>1597</ele>
        <time>2016-02-06T08:45:26Z</time>
      </trkpt>
      <trkpt lat="45.59975" lon="6.66633">
        <ele>1597</ele>
        <time>2016-02-06T08:45:28Z</time>
      </trkpt>
      <trkpt lat="45.59974" lon="6.66631">
        <ele>1597</ele>
        <time>2016-02-06T08:45:30Z</time>
      </trkpt>
      <trkpt lat="45.59975" lon="6.66629">
        <ele>1597</ele>
        <time>2016-02-06T08:45:33Z</time>
      </trkpt>
      <trkpt lat="45.59975" lon="6.66627">
        <ele>1597</ele>
        <time>2016-02-06T08:45:35Z</time>
      </trkpt>
      <trkpt lat="45.59976" lon="6.66627">
        <ele>1598</ele>
        <time>2016-02-06T08:45:38Z</time>
      </trkpt>
      <trkpt lat="45.59977" lon="6.66624">
        <ele>1598</ele>
        <time>2016-02-06T08:45:42Z</time>
      </trkpt>
      <trkpt lat="45.59976" lon="6.66621">
        <ele>1598</ele>
        <time>2016-02-06T08:45:44Z</time>
      </trkpt>
      <trkpt lat="45.59975" lon="6.66619">
        <ele>1598</ele>
        <time>2016-02-06T08:45:45Z</time>
      </trkpt>
      <trkpt lat="45.59975" lon="6.66617">
        <ele>1599</ele>
        <time>2016-02-06T08:45:47Z</time>
      </trkpt>
      <trkpt lat="45.59976" lon="6.66617">
        <ele>1599</ele>
        <time>2016-02-06T08:45:50Z</time>
      </trkpt>
      <trkpt lat="45.59975" lon="6.66616">
        <ele>1599</ele>
        <time>2016-02-06T08:45:55Z</time>
      </trkpt>
      <trkpt lat="45.59973" lon="6.66615">
        <ele>1599</ele>
        <time>2016-02-06T08:45:56Z</time>
      </trkpt>
      <trkpt lat="45.59971" lon="6.66613">
        <ele>1599</ele>
        <time>2016-02-06T08:45:58Z</time>
      </trkpt>
      <trkpt lat="45.59971" lon="6.6661">
        <ele>1599</ele>
        <time>2016-02-06T08:46:01Z</time>
      </trkpt>
      <trkpt lat="45.59972" lon="6.66609">
        <ele>1599</ele>
        <time>2016-02-06T08:46:03Z</time>
      </trkpt>
      <trkpt lat="45.59973" lon="6.66607">
        <ele>1600</ele>
        <time>2016-02-06T08:46:05Z</time>
      </trkpt>
      <trkpt lat="45.59974" lon="6.66606">
        <ele>1601</ele>
        <time>2016-02-06T08:46:08Z</time>
      </trkpt>
      <trkpt lat="45.59975" lon="6.66604">
        <ele>1601</ele>
        <time>2016-02-06T08:46:10Z</time>
      </trkpt>
      <trkpt lat="45.59974" lon="6.66602">
        <ele>1602</ele>
        <time>2016-02-06T08:46:12Z</time>
      </trkpt>
      <trkpt lat="45.59973" lon="6.666">
        <ele>1602</ele>
        <time>2016-02-06T08:46:14Z</time>
      </trkpt>
      <trkpt lat="45.59972" lon="6.66598">
        <ele>1601</ele>
        <time>2016-02-06T08:46:16Z</time>
      </trkpt>
      <trkpt lat="45.59972" lon="6.66596">
        <ele>1602</ele>
        <time>2016-02-06T08:46:18Z</time>
      </trkpt>
      <trkpt lat="45.5997" lon="6.66594">
        <ele>1601</ele>
        <time>2016-02-06T08:46:20Z</time>
      </trkpt>
      <trkpt lat="45.59969" lon="6.66592">
        <ele>1601</ele>
        <time>2016-02-06T08:46:26Z</time>
      </trkpt>
      <trkpt lat="45.59968" lon="6.66592">
        <ele>1601</ele>
        <time>2016-02-06T08:46:30Z</time>
      </trkpt>
      <trkpt lat="45.59967" lon="6.6659">
        <ele>1600</ele>
        <time>2016-02-06T08:46:34Z</time>
      </trkpt>
      <trkpt lat="45.59965" lon="6.66589">
        <ele>1600</ele>
        <time>2016-02-06T08:46:37Z</time>
      </trkpt>
      <trkpt lat="45.59964" lon="6.66588">
        <ele>1599</ele>
        <time>2016-02-06T08:46:39Z</time>
      </trkpt>
      <trkpt lat="45.59963" lon="6.66586">
        <ele>1599</ele>
        <time>2016-02-06T08:46:41Z</time>
      </trkpt>
      <trkpt lat="45.59962" lon="6.66584">
        <ele>1599</ele>
        <time>2016-02-06T08:46:43Z</time>
      </trkpt>
      <trkpt lat="45.59961" lon="6.66583">
        <ele>1610</ele>
        <time>2016-02-06T08:46:45Z</time>
      </trkpt>
      <trkpt lat="45.59959" lon="6.66582">
        <ele>1610</ele>
        <time>2016-02-06T08:46:46Z</time>
      </trkpt>
      <trkpt lat="45.59958" lon="6.66581">
        <ele>1609</ele>
        <time>2016-02-06T08:46:48Z</time>
      </trkpt>
      <trkpt lat="45.59959" lon="6.66578">
        <ele>1610</ele>
        <time>2016-02-06T08:46:51Z</time>
      </trkpt>
      <trkpt lat="45.59958" lon="6.66575">
        <ele>1610</ele>
        <time>2016-02-06T08:46:53Z</time>
      </trkpt>
      <trkpt lat="45.59957" lon="6.66573">
        <ele>1610</ele>
        <time>2016-02-06T08:46:55Z</time>
      </trkpt>
      <trkpt lat="45.59957" lon="6.66571">
        <ele>1610</ele>
        <time>2016-02-06T08:46:56Z</time>
      </trkpt>
      <trkpt lat="45.59956" lon="6.66569">
        <ele>1610</ele>
        <time>2016-02-06T08:47:03Z</time>
      </trkpt>
      <trkpt lat="45.59955" lon="6.66568">
        <ele>1609</ele>
        <time>2016-02-06T08:47:06Z</time>
      </trkpt>
      <trkpt lat="45.59957" lon="6.66567">
        <ele>1610</ele>
        <time>2016-02-06T08:47:09Z</time>
      </trkpt>
      <trkpt lat="45.59958" lon="6.66564">
        <ele>1611</ele>
        <time>2016-02-06T08:47:11Z</time>
      </trkpt>
      <trkpt lat="45.59957" lon="6.66562">
        <ele>1611</ele>
        <time>2016-02-06T08:47:12Z</time>
      </trkpt>
      <trkpt lat="45.59957" lon="6.66559">
        <ele>1611</ele>
        <time>2016-02-06T08:47:15Z</time>
      </trkpt>
      <trkpt lat="45.59959" lon="6.66559">
        <ele>1612</ele>
        <time>2016-02-06T08:47:17Z</time>
      </trkpt>
      <trkpt lat="45.59958" lon="6.66556">
        <ele>1612</ele>
        <time>2016-02-06T08:47:19Z</time>
      </trkpt>
      <trkpt lat="45.59959" lon="6.66553">
        <ele>1612</ele>
        <time>2016-02-06T08:47:21Z</time>
      </trkpt>
      <trkpt lat="45.59959" lon="6.66552">
        <ele>1612</ele>
        <time>2016-02-06T08:47:22Z</time>
      </trkpt>
      <trkpt lat="45.59959" lon="6.6655">
        <ele>1613</ele>
        <time>2016-02-06T08:47:24Z</time>
      </trkpt>
      <trkpt lat="45.59961" lon="6.66547">
        <ele>1613</ele>
        <time>2016-02-06T08:47:26Z</time>
      </trkpt>
      <trkpt lat="45.59962" lon="6.66546">
        <ele>1614</ele>
        <time>2016-02-06T08:47:28Z</time>
      </trkpt>
      <trkpt lat="45.59962" lon="6.66544">
        <ele>1614</ele>
        <time>2016-02-06T08:47:29Z</time>
      </trkpt>
      <trkpt lat="45.59962" lon="6.66542">
        <ele>1614</ele>
        <time>2016-02-06T08:47:31Z</time>
      </trkpt>
      <trkpt lat="45.59962" lon="6.6654">
        <ele>1614</ele>
        <time>2016-02-06T08:47:34Z</time>
      </trkpt>
      <trkpt lat="45.59961" lon="6.66539">
        <ele>1614</ele>
        <time>2016-02-06T08:47:36Z</time>
      </trkpt>
      <trkpt lat="45.59959" lon="6.66538">
        <ele>1614</ele>
        <time>2016-02-06T08:47:38Z</time>
      </trkpt>
      <trkpt lat="45.59958" lon="6.66537">
        <ele>1614</ele>
        <time>2016-02-06T08:47:40Z</time>
      </trkpt>
      <trkpt lat="45.5996" lon="6.66534">
        <ele>1614</ele>
        <time>2016-02-06T08:47:46Z</time>
      </trkpt>
      <trkpt lat="45.59961" lon="6.66533">
        <ele>1615</ele>
        <time>2016-02-06T08:47:47Z</time>
      </trkpt>
      <trkpt lat="45.59961" lon="6.66532">
        <ele>1615</ele>
        <time>2016-02-06T08:47:48Z</time>
      </trkpt>
      <trkpt lat="45.59961" lon="6.6653">
        <ele>1615</ele>
        <time>2016-02-06T08:47:49Z</time>
      </trkpt>
      <trkpt lat="45.59959" lon="6.66528">
        <ele>1615</ele>
        <time>2016-02-06T08:47:50Z</time>
      </trkpt>
      <trkpt lat="45.59959" lon="6.66526">
        <ele>1615</ele>
        <time>2016-02-06T08:47:51Z</time>
      </trkpt>
      <trkpt lat="45.5996" lon="6.66525">
        <ele>1616</ele>
        <time>2016-02-06T08:47:53Z</time>
      </trkpt>
      <trkpt lat="45.59961" lon="6.66523">
        <ele>1616</ele>
        <time>2016-02-06T08:47:56Z</time>
      </trkpt>
      <trkpt lat="45.59962" lon="6.66521">
        <ele>1617</ele>
        <time>2016-02-06T08:47:57Z</time>
      </trkpt>
      <trkpt lat="45.59963" lon="6.66519">
        <ele>1617</ele>
        <time>2016-02-06T08:47:58Z</time>
      </trkpt>
      <trkpt lat="45.59963" lon="6.66517">
        <ele>1617</ele>
        <time>2016-02-06T08:47:59Z</time>
      </trkpt>
      <trkpt lat="45.59963" lon="6.66515">
        <ele>1618</ele>
        <time>2016-02-06T08:48:00Z</time>
      </trkpt>
      <trkpt lat="45.59964" lon="6.66514">
        <ele>1618</ele>
        <time>2016-02-06T08:48:02Z</time>
      </trkpt>
      <trkpt lat="45.59966" lon="6.66513">
        <ele>1619</ele>
        <time>2016-02-06T08:48:04Z</time>
      </trkpt>
      <trkpt lat="45.59964" lon="6.66512">
        <ele>1618</ele>
        <time>2016-02-06T08:48:06Z</time>
      </trkpt>
      <trkpt lat="45.59965" lon="6.66515">
        <ele>1618</ele>
        <time>2016-02-06T08:48:15Z</time>
      </trkpt>
      <trkpt lat="45.59963" lon="6.66513">
        <ele>1618</ele>
        <time>2016-02-06T08:48:18Z</time>
      </trkpt>
      <trkpt lat="45.59962" lon="6.66512">
        <ele>1618</ele>
        <time>2016-02-06T08:48:19Z</time>
      </trkpt>
      <trkpt lat="45.5996" lon="6.66514">
        <ele>1617</ele>
        <time>2016-02-06T08:48:22Z</time>
      </trkpt>
      <trkpt lat="45.59957" lon="6.66515">
        <ele>1616</ele>
        <time>2016-02-06T08:48:24Z</time>
      </trkpt>
      <trkpt lat="45.59956" lon="6.66516">
        <ele>1615</ele>
        <time>2016-02-06T08:48:27Z</time>
      </trkpt>
      <trkpt lat="45.59956" lon="6.66514">
        <ele>1615</ele>
        <time>2016-02-06T08:48:36Z</time>
      </trkpt>
      <trkpt lat="45.59956" lon="6.66511">
        <ele>1616</ele>
        <time>2016-02-06T08:48:38Z</time>
      </trkpt>
      <trkpt lat="45.59955" lon="6.66509">
        <ele>1615</ele>
        <time>2016-02-06T08:48:40Z</time>
      </trkpt>
      <trkpt lat="45.59955" lon="6.66507">
        <ele>1615</ele>
        <time>2016-02-06T08:48:42Z</time>
      </trkpt>
      <trkpt lat="45.59955" lon="6.66505">
        <ele>1616</ele>
        <time>2016-02-06T08:48:43Z</time>
      </trkpt>
      <trkpt lat="45.59955" lon="6.66503">
        <ele>1616</ele>
        <time>2016-02-06T08:48:45Z</time>
      </trkpt>
      <trkpt lat="45.59956" lon="6.66501">
        <ele>1616</ele>
        <time>2016-02-06T08:48:47Z</time>
      </trkpt>
      <trkpt lat="45.59956" lon="6.66499">
        <ele>1626</ele>
        <time>2016-02-06T08:48:48Z</time>
      </trkpt>
      <trkpt lat="45.59957" lon="6.66498">
        <ele>1626</ele>
        <time>2016-02-06T08:48:50Z</time>
      </trkpt>
      <trkpt lat="45.59958" lon="6.66496">
        <ele>1627</ele>
        <time>2016-02-06T08:48:53Z</time>
      </trkpt>
      <trkpt lat="45.59958" lon="6.66494">
        <ele>1627</ele>
        <time>2016-02-06T08:48:55Z</time>
      </trkpt>
      <trkpt lat="45.59957" lon="6.66492">
        <ele>1626</ele>
        <time>2016-02-06T08:48:59Z</time>
      </trkpt>
      <trkpt lat="45.59956" lon="6.6649">
        <ele>1626</ele>
        <time>2016-02-06T08:49:01Z</time>
      </trkpt>
      <trkpt lat="45.59956" lon="6.66489">
        <ele>1626</ele>
        <time>2016-02-06T08:49:03Z</time>
      </trkpt>
      <trkpt lat="45.59958" lon="6.66488">
        <ele>1627</ele>
        <time>2016-02-06T08:49:05Z</time>
      </trkpt>
      <trkpt lat="45.59958" lon="6.66486">
        <ele>1627</ele>
        <time>2016-02-06T08:49:06Z</time>
      </trkpt>
      <trkpt lat="45.59957" lon="6.66484">
        <ele>1627</ele>
        <time>2016-02-06T08:49:08Z</time>
      </trkpt>
      <trkpt lat="45.59956" lon="6.66482">
        <ele>1627</ele>
        <time>2016-02-06T08:49:09Z</time>
      </trkpt>
      <trkpt lat="45.59957" lon="6.66483">
        <ele>1627</ele>
        <time>2016-02-06T08:49:14Z</time>
      </trkpt>
      <trkpt lat="45.59957" lon="6.66481">
        <ele>1627</ele>
        <time>2016-02-06T08:49:17Z</time>
      </trkpt>
      <trkpt lat="45.59956" lon="6.6648">
        <ele>1627</ele>
        <time>2016-02-06T08:49:19Z</time>
      </trkpt>
      <trkpt lat="45.59956" lon="6.66478">
        <ele>1627</ele>
        <time>2016-02-06T08:49:21Z</time>
      </trkpt>
      <trkpt lat="45.59956" lon="6.66477">
        <ele>1627</ele>
        <time>2016-02-06T08:49:23Z</time>
      </trkpt>
      <trkpt lat="45.59955" lon="6.66475">
        <ele>1627</ele>
        <time>2016-02-06T08:49:24Z</time>
      </trkpt>
      <trkpt lat="45.59957" lon="6.66473">
        <ele>1628</ele>
        <time>2016-02-06T08:49:28Z</time>
      </trkpt>
      <trkpt lat="45.59959" lon="6.66471">
        <ele>1628</ele>
        <time>2016-02-06T08:49:31Z</time>
      </trkpt>
      <trkpt lat="45.59958" lon="6.66469">
        <ele>1628</ele>
        <time>2016-02-06T08:49:33Z</time>
      </trkpt>
      <trkpt lat="45.59958" lon="6.66468">
        <ele>1628</ele>
        <time>2016-02-06T08:49:34Z</time>
      </trkpt>
      <trkpt lat="45.59959" lon="6.66466">
        <ele>1629</ele>
        <time>2016-02-06T08:49:36Z</time>
      </trkpt>
      <trkpt lat="45.59958" lon="6.66464">
        <ele>1629</ele>
        <time>2016-02-06T08:49:38Z</time>
      </trkpt>
      <trkpt lat="45.59958" lon="6.66462">
        <ele>1629</ele>
        <time>2016-02-06T08:49:39Z</time>
      </trkpt>
      <trkpt lat="45.5996" lon="6.6646">
        <ele>1629</ele>
        <time>2016-02-06T08:49:41Z</time>
      </trkpt>
      <trkpt lat="45.5996" lon="6.66458">
        <ele>1629</ele>
        <time>2016-02-06T08:49:43Z</time>
      </trkpt>
      <trkpt lat="45.5996" lon="6.66456">
        <ele>1630</ele>
        <time>2016-02-06T08:49:46Z</time>
      </trkpt>
      <trkpt lat="45.59961" lon="6.66454">
        <ele>1630</ele>
        <time>2016-02-06T08:49:49Z</time>
      </trkpt>
      <trkpt lat="45.5996" lon="6.66452">
        <ele>1630</ele>
        <time>2016-02-06T08:49:54Z</time>
      </trkpt>
      <trkpt lat="45.5996" lon="6.66449">
        <ele>1630</ele>
        <time>2016-02-06T08:49:56Z</time>
      </trkpt>
      <trkpt lat="45.59962" lon="6.66448">
        <ele>1631</ele>
        <time>2016-02-06T08:49:58Z</time>
      </trkpt>
      <trkpt lat="45.59961" lon="6.66447">
        <ele>1630</ele>
        <time>2016-02-06T08:50:00Z</time>
      </trkpt>
      <trkpt lat="45.59961" lon="6.66445">
        <ele>1631</ele>
        <time>2016-02-06T08:50:01Z</time>
      </trkpt>
      <trkpt lat="45.5996" lon="6.66442">
        <ele>1631</ele>
        <time>2016-02-06T08:50:02Z</time>
      </trkpt>
      <trkpt lat="45.5996" lon="6.6644">
        <ele>1631</ele>
        <time>2016-02-06T08:50:03Z</time>
      </trkpt>
      <trkpt lat="45.59961" lon="6.66439">
        <ele>1631</ele>
        <time>2016-02-06T08:50:04Z</time>
      </trkpt>
      <trkpt lat="45.59962" lon="6.66438">
        <ele>1631</ele>
        <time>2016-02-06T08:50:05Z</time>
      </trkpt>
      <trkpt lat="45.59962" lon="6.66435">
        <ele>1632</ele>
        <time>2016-02-06T08:50:07Z</time>
      </trkpt>
      <trkpt lat="45.59962" lon="6.66433">
        <ele>1632</ele>
        <time>2016-02-06T08:50:10Z</time>
      </trkpt>
      <trkpt lat="45.59964" lon="6.66433">
        <ele>1632</ele>
        <time>2016-02-06T08:50:13Z</time>
      </trkpt>
      <trkpt lat="45.59966" lon="6.66432">
        <ele>1633</ele>
        <time>2016-02-06T08:50:15Z</time>
      </trkpt>
      <trkpt lat="45.59969" lon="6.66433">
        <ele>1633</ele>
        <time>2016-02-06T08:50:17Z</time>
      </trkpt>
      <trkpt lat="45.5997" lon="6.66434">
        <ele>1634</ele>
        <time>2016-02-06T08:50:19Z</time>
      </trkpt>
      <trkpt lat="45.59972" lon="6.66434">
        <ele>1634</ele>
        <time>2016-02-06T08:50:21Z</time>
      </trkpt>
      <trkpt lat="45.59972" lon="6.66433">
        <ele>1634</ele>
        <time>2016-02-06T08:50:22Z</time>
      </trkpt>
      <trkpt lat="45.59973" lon="6.66431">
        <ele>1635</ele>
        <time>2016-02-06T08:50:26Z</time>
      </trkpt>
      <trkpt lat="45.59972" lon="6.6643">
        <ele>1635</ele>
        <time>2016-02-06T08:50:28Z</time>
      </trkpt>
      <trkpt lat="45.59973" lon="6.6643">
        <ele>1635</ele>
        <time>2016-02-06T08:50:29Z</time>
      </trkpt>
      <trkpt lat="45.59974" lon="6.66432">
        <ele>1635</ele>
        <time>2016-02-06T08:50:32Z</time>
      </trkpt>
      <trkpt lat="45.59974" lon="6.66431">
        <ele>1635</ele>
        <time>2016-02-06T08:50:38Z</time>
      </trkpt>
      <trkpt lat="45.59973" lon="6.66431">
        <ele>1635</ele>
        <time>2016-02-06T08:50:39Z</time>
      </trkpt>
      <trkpt lat="45.59972" lon="6.66429">
        <ele>1635</ele>
        <time>2016-02-06T08:50:41Z</time>
      </trkpt>
      <trkpt lat="45.59971" lon="6.66427">
        <ele>1635</ele>
        <time>2016-02-06T08:50:42Z</time>
      </trkpt>
      <trkpt lat="45.59969" lon="6.66427">
        <ele>1634</ele>
        <time>2016-02-06T08:50:44Z</time>
      </trkpt>
      <trkpt lat="45.59969" lon="6.66426">
        <ele>1634</ele>
        <time>2016-02-06T08:50:45Z</time>
      </trkpt>
      <trkpt lat="45.59969" lon="6.66422">
        <ele>1634</ele>
        <time>2016-02-06T08:50:48Z</time>
      </trkpt>
      <trkpt lat="45.59971" lon="6.66421">
        <ele>1635</ele>
        <time>2016-02-06T08:50:49Z</time>
      </trkpt>
      <trkpt lat="45.59971" lon="6.66419">
        <ele>1635</ele>
        <time>2016-02-06T08:50:53Z</time>
      </trkpt>
      <trkpt lat="45.59972" lon="6.66416">
        <ele>1642</ele>
        <time>2016-02-06T08:50:55Z</time>
      </trkpt>
      <trkpt lat="45.59972" lon="6.66414">
        <ele>1642</ele>
        <time>2016-02-06T08:50:56Z</time>
      </trkpt>
      <trkpt lat="45.59973" lon="6.66413">
        <ele>1642</ele>
        <time>2016-02-06T08:50:59Z</time>
      </trkpt>
      <trkpt lat="45.59975" lon="6.66412">
        <ele>1643</ele>
        <time>2016-02-06T08:51:02Z</time>
      </trkpt>
      <trkpt lat="45.59976" lon="6.6641">
        <ele>1643</ele>
        <time>2016-02-06T08:51:04Z</time>
      </trkpt>
      <trkpt lat="45.59976" lon="6.66408">
        <ele>1643</ele>
        <time>2016-02-06T08:51:06Z</time>
      </trkpt>
      <trkpt lat="45.59977" lon="6.6641">
        <ele>1643</ele>
        <time>2016-02-06T08:51:10Z</time>
      </trkpt>
      <trkpt lat="45.59979" lon="6.66411">
        <ele>1644</ele>
        <time>2016-02-06T08:51:14Z</time>
      </trkpt>
      <trkpt lat="45.59977" lon="6.66415">
        <ele>1643</ele>
        <time>2016-02-06T08:51:15Z</time>
      </trkpt>
      <trkpt lat="45.59975" lon="6.66414">
        <ele>1643</ele>
        <time>2016-02-06T08:51:18Z</time>
      </trkpt>
      <trkpt lat="45.59973" lon="6.66416">
        <ele>1642</ele>
        <time>2016-02-06T08:51:19Z</time>
      </trkpt>
      <trkpt lat="45.59974" lon="6.66418">
        <ele>1636</ele>
        <time>2016-02-06T08:51:20Z</time>
      </trkpt>
      <trkpt lat="45.59972" lon="6.66419">
        <ele>1635</ele>
        <time>2016-02-06T08:51:22Z</time>
      </trkpt>
      <trkpt lat="45.59972" lon="6.66421">
        <ele>1635</ele>
        <time>2016-02-06T08:51:24Z</time>
      </trkpt>
      <trkpt lat="45.59971" lon="6.66424">
        <ele>1635</ele>
        <time>2016-02-06T08:51:26Z</time>
      </trkpt>
      <trkpt lat="45.59969" lon="6.66422">
        <ele>1634</ele>
        <time>2016-02-06T08:51:29Z</time>
      </trkpt>
      <trkpt lat="45.59964" lon="6.66419">
        <ele>1633</ele>
        <time>2016-02-06T08:51:32Z</time>
      </trkpt>
      <trkpt lat="45.59963" lon="6.66417">
        <ele>1633</ele>
        <time>2016-02-06T08:51:33Z</time>
      </trkpt>
      <trkpt lat="45.59965" lon="6.66418">
        <ele>1633</ele>
        <time>2016-02-06T08:51:40Z</time>
      </trkpt>
      <trkpt lat="45.59966" lon="6.66417">
        <ele>1634</ele>
        <time>2016-02-06T08:51:42Z</time>
      </trkpt>
      <trkpt lat="45.59967" lon="6.66419">
        <ele>1634</ele>
        <time>2016-02-06T08:51:46Z</time>
      </trkpt>
      <trkpt lat="45.59969" lon="6.6642">
        <ele>1634</ele>
        <time>2016-02-06T08:51:47Z</time>
      </trkpt>
      <trkpt lat="45.59971" lon="6.6642">
        <ele>1635</ele>
        <time>2016-02-06T08:51:50Z</time>
      </trkpt>
      <trkpt lat="45.59972" lon="6.66419">
        <ele>1635</ele>
        <time>2016-02-06T08:51:51Z</time>
      </trkpt>
      <trkpt lat="45.59972" lon="6.66421">
        <ele>1635</ele>
        <time>2016-02-06T08:51:56Z</time>
      </trkpt>
      <trkpt lat="45.59974" lon="6.66422">
        <ele>1636</ele>
        <time>2016-02-06T08:51:57Z</time>
      </trkpt>
      <trkpt lat="45.59976" lon="6.6642">
        <ele>1637</ele>
        <time>2016-02-06T08:52:02Z</time>
      </trkpt>
      <trkpt lat="45.59977" lon="6.66418">
        <ele>1637</ele>
        <time>2016-02-06T08:52:03Z</time>
      </trkpt>
      <trkpt lat="45.59977" lon="6.66416">
        <ele>1643</ele>
        <time>2016-02-06T08:52:06Z</time>
      </trkpt>
      <trkpt lat="45.59976" lon="6.66414">
        <ele>1643</ele>
        <time>2016-02-06T08:52:07Z</time>
      </trkpt>
      <trkpt lat="45.59975" lon="6.66413">
        <ele>1643</ele>
        <time>2016-02-06T08:52:09Z</time>
      </trkpt>
      <trkpt lat="45.59972" lon="6.66412">
        <ele>1642</ele>
        <time>2016-02-06T08:52:11Z</time>
      </trkpt>
      <trkpt lat="45.59972" lon="6.66411">
        <ele>1642</ele>
        <time>2016-02-06T08:52:15Z</time>
      </trkpt>
      <trkpt lat="45.59973" lon="6.66411">
        <ele>1642</ele>
        <time>2016-02-06T08:52:17Z</time>
      </trkpt>
      <trkpt lat="45.59975" lon="6.66411">
        <ele>1643</ele>
        <time>2016-02-06T08:52:18Z</time>
      </trkpt>
      <trkpt lat="45.59977" lon="6.66413">
        <ele>1643</ele>
        <time>2016-02-06T08:52:21Z</time>
      </trkpt>
      <trkpt lat="45.59979" lon="6.66413">
        <ele>1644</ele>
        <time>2016-02-06T08:52:24Z</time>
      </trkpt>
      <trkpt lat="45.59979" lon="6.66412">
        <ele>1644</ele>
        <time>2016-02-06T08:52:27Z</time>
      </trkpt>
      <trkpt lat="45.59977" lon="6.6641">
        <ele>1643</ele>
        <time>2016-02-06T08:52:30Z</time>
      </trkpt>
      <trkpt lat="45.59976" lon="6.66409">
        <ele>1643</ele>
        <time>2016-02-06T08:52:32Z</time>
      </trkpt>
      <trkpt lat="45.59974" lon="6.66409">
        <ele>1642</ele>
        <time>2016-02-06T08:52:33Z</time>
      </trkpt>
      <trkpt lat="45.59973" lon="6.66407">
        <ele>1642</ele>
        <time>2016-02-06T08:52:35Z</time>
      </trkpt>
      <trkpt lat="45.59972" lon="6.66405">
        <ele>1642</ele>
        <time>2016-02-06T08:52:36Z</time>
      </trkpt>
      <trkpt lat="45.59974" lon="6.66403">
        <ele>1642</ele>
        <time>2016-02-06T08:52:38Z</time>
      </trkpt>
      <trkpt lat="45.59976" lon="6.66403">
        <ele>1643</ele>
        <time>2016-02-06T08:52:39Z</time>
      </trkpt>
      <trkpt lat="45.59977" lon="6.66401">
        <ele>1643</ele>
        <time>2016-02-06T08:52:44Z</time>
      </trkpt>
      <trkpt lat="45.59975" lon="6.664">
        <ele>1643</ele>
        <time>2016-02-06T08:52:47Z</time>
      </trkpt>
      <trkpt lat="45.59975" lon="6.66398">
        <ele>1643</ele>
        <time>2016-02-06T08:52:50Z</time>
      </trkpt>
      <trkpt lat="45.59975" lon="6.66396">
        <ele>1643</ele>
        <time>2016-02-06T08:52:52Z</time>
      </trkpt>
      <trkpt lat="45.59976" lon="6.66394">
        <ele>1643</ele>
        <time>2016-02-06T08:52:54Z</time>
      </trkpt>
      <trkpt lat="45.59977" lon="6.66392">
        <ele>1643</ele>
        <time>2016-02-06T08:52:56Z</time>
      </trkpt>
      <trkpt lat="45.59978" lon="6.6639">
        <ele>1643</ele>
        <time>2016-02-06T08:52:58Z</time>
      </trkpt>
      <trkpt lat="45.5998" lon="6.6639">
        <ele>1643</ele>
        <time>2016-02-06T08:52:59Z</time>
      </trkpt>
      <trkpt lat="45.59981" lon="6.66389">
        <ele>1643</ele>
        <time>2016-02-06T08:53:02Z</time>
      </trkpt>
      <trkpt lat="45.59981" lon="6.66387">
        <ele>1643</ele>
        <time>2016-02-06T08:53:04Z</time>
      </trkpt>
      <trkpt lat="45.59979" lon="6.66386">
        <ele>1643</ele>
        <time>2016-02-06T08:53:09Z</time>
      </trkpt>
      <trkpt lat="45.59979" lon="6.66384">
        <ele>1643</ele>
        <time>2016-02-06T08:53:10Z</time>
      </trkpt>
      <trkpt lat="45.59979" lon="6.66382">
        <ele>1643</ele>
        <time>2016-02-06T08:53:12Z</time>
      </trkpt>
      <trkpt lat="45.59981" lon="6.66381">
        <ele>1643</ele>
        <time>2016-02-06T08:53:14Z</time>
      </trkpt>
      <trkpt lat="45.59982" lon="6.66379">
        <ele>1644</ele>
        <time>2016-02-06T08:53:15Z</time>
      </trkpt>
      <trkpt lat="45.59984" lon="6.66379">
        <ele>1644</ele>
        <time>2016-02-06T08:53:16Z</time>
      </trkpt>
      <trkpt lat="45.59984" lon="6.66377">
        <ele>1644</ele>
        <time>2016-02-06T08:53:17Z</time>
      </trkpt>
      <trkpt lat="45.59985" lon="6.66376">
        <ele>1644</ele>
        <time>2016-02-06T08:53:19Z</time>
      </trkpt>
      <trkpt lat="45.59985" lon="6.66374">
        <ele>1644</ele>
        <time>2016-02-06T08:53:22Z</time>
      </trkpt>
      <trkpt lat="45.59985" lon="6.66371">
        <ele>1644</ele>
        <time>2016-02-06T08:53:23Z</time>
      </trkpt>
      <trkpt lat="45.59985" lon="6.6637">
        <ele>1644</ele>
        <time>2016-02-06T08:53:24Z</time>
      </trkpt>
      <trkpt lat="45.59983" lon="6.66368">
        <ele>1644</ele>
        <time>2016-02-06T08:53:25Z</time>
      </trkpt>
      <trkpt lat="45.59982" lon="6.66367">
        <ele>1644</ele>
        <time>2016-02-06T08:53:26Z</time>
      </trkpt>
      <trkpt lat="45.59982" lon="6.66366">
        <ele>1644</ele>
        <time>2016-02-06T08:53:28Z</time>
      </trkpt>
      <trkpt lat="45.59982" lon="6.66364">
        <ele>1644</ele>
        <time>2016-02-06T08:53:29Z</time>
      </trkpt>
      <trkpt lat="45.59983" lon="6.66364">
        <ele>1645</ele>
        <time>2016-02-06T08:53:32Z</time>
      </trkpt>
      <trkpt lat="45.59983" lon="6.66361">
        <ele>1645</ele>
        <time>2016-02-06T08:53:34Z</time>
      </trkpt>
      <trkpt lat="45.59983" lon="6.66359">
        <ele>1645</ele>
        <time>2016-02-06T08:53:36Z</time>
      </trkpt>
      <trkpt lat="45.59983" lon="6.66357">
        <ele>1645</ele>
        <time>2016-02-06T08:53:37Z</time>
      </trkpt>
      <trkpt lat="45.59983" lon="6.66356">
        <ele>1646</ele>
        <time>2016-02-06T08:53:39Z</time>
      </trkpt>
      <trkpt lat="45.59982" lon="6.66354">
        <ele>1646</ele>
        <time>2016-02-06T08:53:41Z</time>
      </trkpt>
      <trkpt lat="45.59983" lon="6.66352">
        <ele>1646</ele>
        <time>2016-02-06T08:53:43Z</time>
      </trkpt>
      <trkpt lat="45.59986" lon="6.66349">
        <ele>1647</ele>
        <time>2016-02-06T08:53:45Z</time>
      </trkpt>
      <trkpt lat="45.59985" lon="6.66348">
        <ele>1647</ele>
        <time>2016-02-06T08:53:47Z</time>
      </trkpt>
      <trkpt lat="45.59984" lon="6.66348">
        <ele>1647</ele>
        <time>2016-02-06T08:53:49Z</time>
      </trkpt>
      <trkpt lat="45.59986" lon="6.66348">
        <ele>1647</ele>
        <time>2016-02-06T08:53:51Z</time>
      </trkpt>
      <trkpt lat="45.59985" lon="6.66347">
        <ele>1647</ele>
        <time>2016-02-06T08:53:54Z</time>
      </trkpt>
      <trkpt lat="45.59986" lon="6.66348">
        <ele>1647</ele>
        <time>2016-02-06T08:53:55Z</time>
      </trkpt>
      <trkpt lat="45.59988" lon="6.66348">
        <ele>1647</ele>
        <time>2016-02-06T08:53:57Z</time>
      </trkpt>
      <trkpt lat="45.59989" lon="6.66348">
        <ele>1648</ele>
        <time>2016-02-06T08:53:58Z</time>
      </trkpt>
      <trkpt lat="45.59991" lon="6.66348">
        <ele>1648</ele>
        <time>2016-02-06T08:54:00Z</time>
      </trkpt>
      <trkpt lat="45.59993" lon="6.66348">
        <ele>1648</ele>
        <time>2016-02-06T08:54:02Z</time>
      </trkpt>
      <trkpt lat="45.59995" lon="6.66349">
        <ele>1648</ele>
        <time>2016-02-06T08:54:06Z</time>
      </trkpt>
      <trkpt lat="45.59996" lon="6.66348">
        <ele>1648</ele>
        <time>2016-02-06T08:54:08Z</time>
      </trkpt>
      <trkpt lat="45.59997" lon="6.66349">
        <ele>1648</ele>
        <time>2016-02-06T08:54:10Z</time>
      </trkpt>
      <trkpt lat="45.59998" lon="6.6635">
        <ele>1648</ele>
        <time>2016-02-06T08:54:12Z</time>
      </trkpt>
      <trkpt lat="45.59999" lon="6.66352">
        <ele>1648</ele>
        <time>2016-02-06T08:54:16Z</time>
      </trkpt>
      <trkpt lat="45.6" lon="6.66354">
        <ele>1647</ele>
        <time>2016-02-06T08:54:18Z</time>
      </trkpt>
      <trkpt lat="45.60001" lon="6.66352">
        <ele>1665</ele>
        <time>2016-02-06T08:54:25Z</time>
      </trkpt>
      <trkpt lat="45.60002" lon="6.66351">
        <ele>1665</ele>
        <time>2016-02-06T08:54:28Z</time>
      </trkpt>
      <trkpt lat="45.60002" lon="6.66349">
        <ele>1664</ele>
        <time>2016-02-06T08:54:32Z</time>
      </trkpt>
      <trkpt lat="45.60003" lon="6.66348">
        <ele>1664</ele>
        <time>2016-02-06T08:54:34Z</time>
      </trkpt>
      <trkpt lat="45.60002" lon="6.66346">
        <ele>1663</ele>
        <time>2016-02-06T08:54:35Z</time>
      </trkpt>
      <trkpt lat="45.60004" lon="6.66347">
        <ele>1663</ele>
        <time>2016-02-06T08:54:40Z</time>
      </trkpt>
      <trkpt lat="45.60005" lon="6.66349">
        <ele>1664</ele>
        <time>2016-02-06T08:54:42Z</time>
      </trkpt>
      <trkpt lat="45.60004" lon="6.66349">
        <ele>1664</ele>
        <time>2016-02-06T08:54:43Z</time>
      </trkpt>
      <trkpt lat="45.60001" lon="6.6635">
        <ele>1664</ele>
        <time>2016-02-06T08:54:45Z</time>
      </trkpt>
      <trkpt lat="45.59999" lon="6.6635">
        <ele>1648</ele>
        <time>2016-02-06T08:54:46Z</time>
      </trkpt>
      <trkpt lat="45.59998" lon="6.6635">
        <ele>1648</ele>
        <time>2016-02-06T08:54:47Z</time>
      </trkpt>
      <trkpt lat="45.59996" lon="6.6635">
        <ele>1648</ele>
        <time>2016-02-06T08:54:48Z</time>
      </trkpt>
      <trkpt lat="45.59994" lon="6.66349">
        <ele>1648</ele>
        <time>2016-02-06T08:54:49Z</time>
      </trkpt>
      <trkpt lat="45.59993" lon="6.66348">
        <ele>1648</ele>
        <time>2016-02-06T08:54:53Z</time>
      </trkpt>
      <trkpt lat="45.59994" lon="6.66346">
        <ele>1649</ele>
        <time>2016-02-06T08:54:58Z</time>
      </trkpt>
      <trkpt lat="45.59995" lon="6.66343">
        <ele>1650</ele>
        <time>2016-02-06T08:55:00Z</time>
      </trkpt>
      <trkpt lat="45.59997" lon="6.66342">
        <ele>1650</ele>
        <time>2016-02-06T08:55:01Z</time>
      </trkpt>
      <trkpt lat="45.59996" lon="6.6634">
        <ele>1651</ele>
        <time>2016-02-06T08:55:03Z</time>
      </trkpt>
      <trkpt lat="45.59997" lon="6.66337">
        <ele>1652</ele>
        <time>2016-02-06T08:55:05Z</time>
      </trkpt>
      <trkpt lat="45.59997" lon="6.66335">
        <ele>1652</ele>
        <time>2016-02-06T08:55:07Z</time>
      </trkpt>
      <trkpt lat="45.59997" lon="6.66333">
        <ele>1653</ele>
        <time>2016-02-06T08:55:08Z</time>
      </trkpt>
      <trkpt lat="45.59997" lon="6.66332">
        <ele>1654</ele>
        <time>2016-02-06T08:55:09Z</time>
      </trkpt>
      <trkpt lat="45.59997" lon="6.6633">
        <ele>1654</ele>
        <time>2016-02-06T08:55:11Z</time>
      </trkpt>
      <trkpt lat="45.59998" lon="6.66329">
        <ele>1654</ele>
        <time>2016-02-06T08:55:13Z</time>
      </trkpt>
      <trkpt lat="45.59996" lon="6.66327">
        <ele>1654</ele>
        <time>2016-02-06T08:55:15Z</time>
      </trkpt>
      <trkpt lat="45.59997" lon="6.66325">
        <ele>1654</ele>
        <time>2016-02-06T08:55:17Z</time>
      </trkpt>
      <trkpt lat="45.59997" lon="6.66322">
        <ele>1655</ele>
        <time>2016-02-06T08:55:19Z</time>
      </trkpt>
      <trkpt lat="45.59997" lon="6.66321">
        <ele>1655</ele>
        <time>2016-02-06T08:55:20Z</time>
      </trkpt>
      <trkpt lat="45.59996" lon="6.66319">
        <ele>1655</ele>
        <time>2016-02-06T08:55:21Z</time>
      </trkpt>
      <trkpt lat="45.59996" lon="6.66318">
        <ele>1655</ele>
        <time>2016-02-06T08:55:22Z</time>
      </trkpt>
      <trkpt lat="45.59996" lon="6.66316">
        <ele>1655</ele>
        <time>2016-02-06T08:55:23Z</time>
      </trkpt>
      <trkpt lat="45.59996" lon="6.66314">
        <ele>1655</ele>
        <time>2016-02-06T08:55:24Z</time>
      </trkpt>
      <trkpt lat="45.59997" lon="6.66313">
        <ele>1655</ele>
        <time>2016-02-06T08:55:26Z</time>
      </trkpt>
      <trkpt lat="45.59996" lon="6.66312">
        <ele>1655</ele>
        <time>2016-02-06T08:55:28Z</time>
      </trkpt>
      <trkpt lat="45.59996" lon="6.6631">
        <ele>1655</ele>
        <time>2016-02-06T08:55:29Z</time>
      </trkpt>
      <trkpt lat="45.59996" lon="6.66308">
        <ele>1655</ele>
        <time>2016-02-06T08:55:30Z</time>
      </trkpt>
      <trkpt lat="45.59997" lon="6.66305">
        <ele>1656</ele>
        <time>2016-02-06T08:55:32Z</time>
      </trkpt>
      <trkpt lat="45.59996" lon="6.66303">
        <ele>1656</ele>
        <time>2016-02-06T08:55:34Z</time>
      </trkpt>
      <trkpt lat="45.59997" lon="6.663">
        <ele>1656</ele>
        <time>2016-02-06T08:55:36Z</time>
      </trkpt>
      <trkpt lat="45.59997" lon="6.66298">
        <ele>1656</ele>
        <time>2016-02-06T08:55:38Z</time>
      </trkpt>
      <trkpt lat="45.59996" lon="6.66297">
        <ele>1656</ele>
        <time>2016-02-06T08:55:39Z</time>
      </trkpt>
      <trkpt lat="45.59997" lon="6.66294">
        <ele>1657</ele>
        <time>2016-02-06T08:55:41Z</time>
      </trkpt>
      <trkpt lat="45.59998" lon="6.66292">
        <ele>1657</ele>
        <time>2016-02-06T08:55:43Z</time>
      </trkpt>
      <trkpt lat="45.59999" lon="6.6629">
        <ele>1657</ele>
        <time>2016-02-06T08:55:45Z</time>
      </trkpt>
      <trkpt lat="45.59999" lon="6.66288">
        <ele>1657</ele>
        <time>2016-02-06T08:55:47Z</time>
      </trkpt>
      <trkpt lat="45.59999" lon="6.66286">
        <ele>1658</ele>
        <time>2016-02-06T08:55:49Z</time>
      </trkpt>
      <trkpt lat="45.59999" lon="6.66284">
        <ele>1658</ele>
        <time>2016-02-06T08:55:51Z</time>
      </trkpt>
      <trkpt lat="45.59999" lon="6.66283">
        <ele>1658</ele>
        <time>2016-02-06T08:55:52Z</time>
      </trkpt>
      <trkpt lat="45.59999" lon="6.6628">
        <ele>1658</ele>
        <time>2016-02-06T08:55:55Z</time>
      </trkpt>
      <trkpt lat="45.59999" lon="6.66279">
        <ele>1658</ele>
        <time>2016-02-06T08:55:57Z</time>
      </trkpt>
      <trkpt lat="45.6" lon="6.66277">
        <ele>1659</ele>
        <time>2016-02-06T08:55:58Z</time>
      </trkpt>
      <trkpt lat="45.6" lon="6.66274">
        <ele>1659</ele>
        <time>2016-02-06T08:56:01Z</time>
      </trkpt>
      <trkpt lat="45.59999" lon="6.66272">
        <ele>1659</ele>
        <time>2016-02-06T08:56:02Z</time>
      </trkpt>
      <trkpt lat="45.59999" lon="6.66271">
        <ele>1660</ele>
        <time>2016-02-06T08:56:04Z</time>
      </trkpt>
      <trkpt lat="45.6" lon="6.66269">
        <ele>1671</ele>
        <time>2016-02-06T08:56:06Z</time>
      </trkpt>
      <trkpt lat="45.60001" lon="6.66267">
        <ele>1670</ele>
        <time>2016-02-06T08:56:08Z</time>
      </trkpt>
      <trkpt lat="45.60001" lon="6.66265">
        <ele>1670</ele>
        <time>2016-02-06T08:56:10Z</time>
      </trkpt>
      <trkpt lat="45.60002" lon="6.66263">
        <ele>1670</ele>
        <time>2016-02-06T08:56:12Z</time>
      </trkpt>
      <trkpt lat="45.60002" lon="6.6626">
        <ele>1669</ele>
        <time>2016-02-06T08:56:14Z</time>
      </trkpt>
      <trkpt lat="45.60002" lon="6.66259">
        <ele>1668</ele>
        <time>2016-02-06T08:56:15Z</time>
      </trkpt>
      <trkpt lat="45.60001" lon="6.66257">
        <ele>1668</ele>
        <time>2016-02-06T08:56:18Z</time>
      </trkpt>
      <trkpt lat="45.60002" lon="6.66255">
        <ele>1667</ele>
        <time>2016-02-06T08:56:20Z</time>
      </trkpt>
      <trkpt lat="45.60003" lon="6.66253">
        <ele>1666</ele>
        <time>2016-02-06T08:56:22Z</time>
      </trkpt>
      <trkpt lat="45.60004" lon="6.66252">
        <ele>1666</ele>
        <time>2016-02-06T08:56:29Z</time>
      </trkpt>
      <trkpt lat="45.60006" lon="6.66252">
        <ele>1667</ele>
        <time>2016-02-06T08:56:33Z</time>
      </trkpt>
      <trkpt lat="45.60004" lon="6.6625">
        <ele>1667</ele>
        <time>2016-02-06T08:56:40Z</time>
      </trkpt>
      <trkpt lat="45.60004" lon="6.66248">
        <ele>1668</ele>
        <time>2016-02-06T08:56:42Z</time>
      </trkpt>
      <trkpt lat="45.60002" lon="6.66247">
        <ele>1667</ele>
        <time>2016-02-06T08:56:45Z</time>
      </trkpt>
      <trkpt lat="45.59999" lon="6.66245">
        <ele>1666</ele>
        <time>2016-02-06T08:56:47Z</time>
      </trkpt>
      <trkpt lat="45.6" lon="6.66243">
        <ele>1667</ele>
        <time>2016-02-06T08:56:49Z</time>
      </trkpt>
      <trkpt lat="45.60001" lon="6.66241">
        <ele>1671</ele>
        <time>2016-02-06T08:56:51Z</time>
      </trkpt>
      <trkpt lat="45.6" lon="6.66239">
        <ele>1672</ele>
        <time>2016-02-06T08:56:52Z</time>
      </trkpt>
      <trkpt lat="45.60001" lon="6.66238">
        <ele>1673</ele>
        <time>2016-02-06T08:56:53Z</time>
      </trkpt>
      <trkpt lat="45.6" lon="6.66235">
        <ele>1674</ele>
        <time>2016-02-06T08:56:55Z</time>
      </trkpt>
      <trkpt lat="45.59999" lon="6.66233">
        <ele>1670</ele>
        <time>2016-02-06T08:56:56Z</time>
      </trkpt>
      <trkpt lat="45.60001" lon="6.66232">
        <ele>1675</ele>
        <time>2016-02-06T08:56:57Z</time>
      </trkpt>
      <trkpt lat="45.60001" lon="6.6623">
        <ele>1676</ele>
        <time>2016-02-06T08:56:58Z</time>
      </trkpt>
      <trkpt lat="45.60001" lon="6.66228">
        <ele>1676</ele>
        <time>2016-02-06T08:56:59Z</time>
      </trkpt>
      <trkpt lat="45.60001" lon="6.66227">
        <ele>1677</ele>
        <time>2016-02-06T08:57:00Z</time>
      </trkpt>
      <trkpt lat="45.60001" lon="6.66224">
        <ele>1678</ele>
        <time>2016-02-06T08:57:02Z</time>
      </trkpt>
      <trkpt lat="45.59999" lon="6.66222">
        <ele>1672</ele>
        <time>2016-02-06T08:57:03Z</time>
      </trkpt>
      <trkpt lat="45.59999" lon="6.6622">
        <ele>1673</ele>
        <time>2016-02-06T08:57:04Z</time>
      </trkpt>
      <trkpt lat="45.59997" lon="6.66218">
        <ele>1673</ele>
        <time>2016-02-06T08:57:06Z</time>
      </trkpt>
      <trkpt lat="45.59998" lon="6.66216">
        <ele>1674</ele>
        <time>2016-02-06T08:57:07Z</time>
      </trkpt>
      <trkpt lat="45.59998" lon="6.66214">
        <ele>1674</ele>
        <time>2016-02-06T08:57:08Z</time>
      </trkpt>
      <trkpt lat="45.59998" lon="6.66213">
        <ele>1674</ele>
        <time>2016-02-06T08:57:09Z</time>
      </trkpt>
      <trkpt lat="45.59998" lon="6.66211">
        <ele>1674</ele>
        <time>2016-02-06T08:57:12Z</time>
      </trkpt>
      <trkpt lat="45.59998" lon="6.6621">
        <ele>1675</ele>
        <time>2016-02-06T08:57:14Z</time>
      </trkpt>
      <trkpt lat="45.59997" lon="6.66207">
        <ele>1675</ele>
        <time>2016-02-06T08:57:16Z</time>
      </trkpt>
      <trkpt lat="45.59998" lon="6.66205">
        <ele>1675</ele>
        <time>2016-02-06T08:57:18Z</time>
      </trkpt>
      <trkpt lat="45.59998" lon="6.66203">
        <ele>1676</ele>
        <time>2016-02-06T08:57:20Z</time>
      </trkpt>
      <trkpt lat="45.59996" lon="6.66201">
        <ele>1676</ele>
        <time>2016-02-06T08:57:22Z</time>
      </trkpt>
      <trkpt lat="45.59997" lon="6.66199">
        <ele>1676</ele>
        <time>2016-02-06T08:57:24Z</time>
      </trkpt>
      <trkpt lat="45.59998" lon="6.66198">
        <ele>1676</ele>
        <time>2016-02-06T08:57:25Z</time>
      </trkpt>
      <trkpt lat="45.59998" lon="6.66196">
        <ele>1677</ele>
        <time>2016-02-06T08:57:27Z</time>
      </trkpt>
      <trkpt lat="45.59998" lon="6.66194">
        <ele>1677</ele>
        <time>2016-02-06T08:57:28Z</time>
      </trkpt>
      <trkpt lat="45.59998" lon="6.66192">
        <ele>1677</ele>
        <time>2016-02-06T08:57:31Z</time>
      </trkpt>
      <trkpt lat="45.59998" lon="6.6619">
        <ele>1678</ele>
        <time>2016-02-06T08:57:32Z</time>
      </trkpt>
      <trkpt lat="45.59997" lon="6.66189">
        <ele>1678</ele>
        <time>2016-02-06T08:57:33Z</time>
      </trkpt>
      <trkpt lat="45.59998" lon="6.66187">
        <ele>1678</ele>
        <time>2016-02-06T08:57:35Z</time>
      </trkpt>
      <trkpt lat="45.59999" lon="6.66186">
        <ele>1678</ele>
        <time>2016-02-06T08:57:36Z</time>
      </trkpt>
      <trkpt lat="45.59999" lon="6.66184">
        <ele>1678</ele>
        <time>2016-02-06T08:57:37Z</time>
      </trkpt>
      <trkpt lat="45.60001" lon="6.66181">
        <ele>1683</ele>
        <time>2016-02-06T08:57:39Z</time>
      </trkpt>
      <trkpt lat="45.60003" lon="6.66179">
        <ele>1683</ele>
        <time>2016-02-06T08:57:40Z</time>
      </trkpt>
      <trkpt lat="45.60004" lon="6.66178">
        <ele>1683</ele>
        <time>2016-02-06T08:57:41Z</time>
      </trkpt>
      <trkpt lat="45.60006" lon="6.66178">
        <ele>1683</ele>
        <time>2016-02-06T08:57:42Z</time>
      </trkpt>
      <trkpt lat="45.60007" lon="6.66179">
        <ele>1683</ele>
        <time>2016-02-06T08:57:43Z</time>
      </trkpt>
      <trkpt lat="45.60009" lon="6.6618">
        <ele>1683</ele>
        <time>2016-02-06T08:57:46Z</time>
      </trkpt>
      <trkpt lat="45.6001" lon="6.6618">
        <ele>1683</ele>
        <time>2016-02-06T08:57:47Z</time>
      </trkpt>
      <trkpt lat="45.60011" lon="6.66182">
        <ele>1683</ele>
        <time>2016-02-06T08:57:49Z</time>
      </trkpt>
      <trkpt lat="45.60012" lon="6.66185">
        <ele>1683</ele>
        <time>2016-02-06T08:57:50Z</time>
      </trkpt>
      <trkpt lat="45.60013" lon="6.66187">
        <ele>1683</ele>
        <time>2016-02-06T08:57:51Z</time>
      </trkpt>
      <trkpt lat="45.60014" lon="6.6619">
        <ele>1683</ele>
        <time>2016-02-06T08:57:54Z</time>
      </trkpt>
      <trkpt lat="45.60013" lon="6.66191">
        <ele>1683</ele>
        <time>2016-02-06T08:57:55Z</time>
      </trkpt>
      <trkpt lat="45.60013" lon="6.66193">
        <ele>1683</ele>
        <time>2016-02-06T08:57:56Z</time>
      </trkpt>
      <trkpt lat="45.60014" lon="6.66196">
        <ele>1683</ele>
        <time>2016-02-06T08:57:58Z</time>
      </trkpt>
      <trkpt lat="45.60014" lon="6.66198">
        <ele>1683</ele>
        <time>2016-02-06T08:57:59Z</time>
      </trkpt>
      <trkpt lat="45.60014" lon="6.662">
        <ele>1683</ele>
        <time>2016-02-06T08:58:01Z</time>
      </trkpt>
      <trkpt lat="45.60013" lon="6.66202">
        <ele>1683</ele>
        <time>2016-02-06T08:58:04Z</time>
      </trkpt>
      <trkpt lat="45.60015" lon="6.66204">
        <ele>1683</ele>
        <time>2016-02-06T08:58:06Z</time>
      </trkpt>
      <trkpt lat="45.60013" lon="6.66205">
        <ele>1682</ele>
        <time>2016-02-06T08:58:08Z</time>
      </trkpt>
      <trkpt lat="45.60014" lon="6.66207">
        <ele>1682</ele>
        <time>2016-02-06T08:58:10Z</time>
      </trkpt>
      <trkpt lat="45.60015" lon="6.66209">
        <ele>1682</ele>
        <time>2016-02-06T08:58:11Z</time>
      </trkpt>
      <trkpt lat="45.60015" lon="6.66211">
        <ele>1682</ele>
        <time>2016-02-06T08:58:13Z</time>
      </trkpt>
      <trkpt lat="45.60015" lon="6.66213">
        <ele>1682</ele>
        <time>2016-02-06T08:58:15Z</time>
      </trkpt>
      <trkpt lat="45.60016" lon="6.66214">
        <ele>1682</ele>
        <time>2016-02-06T08:58:17Z</time>
      </trkpt>
      <trkpt lat="45.60017" lon="6.66215">
        <ele>1682</ele>
        <time>2016-02-06T08:58:18Z</time>
      </trkpt>
      <trkpt lat="45.60019" lon="6.66216">
        <ele>1682</ele>
        <time>2016-02-06T08:58:19Z</time>
      </trkpt>
      <trkpt lat="45.6002" lon="6.66217">
        <ele>1682</ele>
        <time>2016-02-06T08:58:20Z</time>
      </trkpt>
      <trkpt lat="45.60022" lon="6.66218">
        <ele>1682</ele>
        <time>2016-02-06T08:58:21Z</time>
      </trkpt>
      <trkpt lat="45.60022" lon="6.6622">
        <ele>1682</ele>
        <time>2016-02-06T08:58:22Z</time>
      </trkpt>
      <trkpt lat="45.60023" lon="6.66222">
        <ele>1682</ele>
        <time>2016-02-06T08:58:23Z</time>
      </trkpt>
      <trkpt lat="45.60024" lon="6.66223">
        <ele>1682</ele>
        <time>2016-02-06T08:58:24Z</time>
      </trkpt>
      <trkpt lat="45.60025" lon="6.66225">
        <ele>1682</ele>
        <time>2016-02-06T08:58:26Z</time>
      </trkpt>
      <trkpt lat="45.60027" lon="6.66226">
        <ele>1682</ele>
        <time>2016-02-06T08:58:28Z</time>
      </trkpt>
      <trkpt lat="45.60029" lon="6.66226">
        <ele>1682</ele>
        <time>2016-02-06T08:58:30Z</time>
      </trkpt>
      <trkpt lat="45.6003" lon="6.66225">
        <ele>1683</ele>
        <time>2016-02-06T08:58:35Z</time>
      </trkpt>
      <trkpt lat="45.6003" lon="6.66224">
        <ele>1683</ele>
        <time>2016-02-06T08:58:37Z</time>
      </trkpt>
      <trkpt lat="45.60029" lon="6.66222">
        <ele>1683</ele>
        <time>2016-02-06T08:58:39Z</time>
      </trkpt>
      <trkpt lat="45.60028" lon="6.6622">
        <ele>1683</ele>
        <time>2016-02-06T08:58:41Z</time>
      </trkpt>
      <trkpt lat="45.60027" lon="6.66217">
        <ele>1683</ele>
        <time>2016-02-06T08:58:43Z</time>
      </trkpt>
      <trkpt lat="45.60026" lon="6.66216">
        <ele>1683</ele>
        <time>2016-02-06T08:58:45Z</time>
      </trkpt>
      <trkpt lat="45.60026" lon="6.66214">
        <ele>1683</ele>
        <time>2016-02-06T08:58:48Z</time>
      </trkpt>
      <trkpt lat="45.60026" lon="6.66212">
        <ele>1683</ele>
        <time>2016-02-06T08:58:49Z</time>
      </trkpt>
      <trkpt lat="45.60026" lon="6.6621">
        <ele>1684</ele>
        <time>2016-02-06T08:58:51Z</time>
      </trkpt>
      <trkpt lat="45.60026" lon="6.66208">
        <ele>1684</ele>
        <time>2016-02-06T08:58:56Z</time>
      </trkpt>
      <trkpt lat="45.60026" lon="6.66206">
        <ele>1684</ele>
        <time>2016-02-06T08:58:58Z</time>
      </trkpt>
      <trkpt lat="45.60027" lon="6.66205">
        <ele>1684</ele>
        <time>2016-02-06T08:58:59Z</time>
      </trkpt>
      <trkpt lat="45.60028" lon="6.66203">
        <ele>1684</ele>
        <time>2016-02-06T08:59:03Z</time>
      </trkpt>
      <trkpt lat="45.60028" lon="6.66201">
        <ele>1685</ele>
        <time>2016-02-06T08:59:06Z</time>
      </trkpt>
      <trkpt lat="45.60029" lon="6.66199">
        <ele>1685</ele>
        <time>2016-02-06T08:59:08Z</time>
      </trkpt>
      <trkpt lat="45.6003" lon="6.66198">
        <ele>1685</ele>
        <time>2016-02-06T08:59:09Z</time>
      </trkpt>
      <trkpt lat="45.60032" lon="6.66197">
        <ele>1685</ele>
        <time>2016-02-06T08:59:10Z</time>
      </trkpt>
      <trkpt lat="45.60031" lon="6.66196">
        <ele>1685</ele>
        <time>2016-02-06T08:59:11Z</time>
      </trkpt>
      <trkpt lat="45.60032" lon="6.66193">
        <ele>1686</ele>
        <time>2016-02-06T08:59:15Z</time>
      </trkpt>
      <trkpt lat="45.60033" lon="6.66194">
        <ele>1686</ele>
        <time>2016-02-06T08:59:18Z</time>
      </trkpt>
      <trkpt lat="45.60036" lon="6.66194">
        <ele>1686</ele>
        <time>2016-02-06T08:59:21Z</time>
      </trkpt>
      <trkpt lat="45.60038" lon="6.66194">
        <ele>1686</ele>
        <time>2016-02-06T08:59:23Z</time>
      </trkpt>
      <trkpt lat="45.60036" lon="6.66194">
        <ele>1686</ele>
        <time>2016-02-06T08:59:27Z</time>
      </trkpt>
      <trkpt lat="45.60034" lon="6.66193">
        <ele>1686</ele>
        <time>2016-02-06T08:59:29Z</time>
      </trkpt>
      <trkpt lat="45.60033" lon="6.66193">
        <ele>1686</ele>
        <time>2016-02-06T08:59:30Z</time>
      </trkpt>
      <trkpt lat="45.60031" lon="6.66193">
        <ele>1685</ele>
        <time>2016-02-06T08:59:32Z</time>
      </trkpt>
      <trkpt lat="45.60029" lon="6.66192">
        <ele>1685</ele>
        <time>2016-02-06T08:59:33Z</time>
      </trkpt>
      <trkpt lat="45.60029" lon="6.66194">
        <ele>1685</ele>
        <time>2016-02-06T08:59:38Z</time>
      </trkpt>
      <trkpt lat="45.60027" lon="6.66195">
        <ele>1685</ele>
        <time>2016-02-06T08:59:41Z</time>
      </trkpt>
      <trkpt lat="45.60026" lon="6.66194">
        <ele>1685</ele>
        <time>2016-02-06T08:59:42Z</time>
      </trkpt>
      <trkpt lat="45.60026" lon="6.66192">
        <ele>1685</ele>
        <time>2016-02-06T08:59:47Z</time>
      </trkpt>
      <trkpt lat="45.60027" lon="6.66191">
        <ele>1685</ele>
        <time>2016-02-06T08:59:49Z</time>
      </trkpt>
      <trkpt lat="45.60028" lon="6.6619">
        <ele>1685</ele>
        <time>2016-02-06T08:59:52Z</time>
      </trkpt>
      <trkpt lat="45.6003" lon="6.66189">
        <ele>1685</ele>
        <time>2016-02-06T08:59:54Z</time>
      </trkpt>
      <trkpt lat="45.60031" lon="6.66188">
        <ele>1686</ele>
        <time>2016-02-06T08:59:59Z</time>
      </trkpt>
      <trkpt lat="45.60031" lon="6.66186">
        <ele>1686</ele>
        <time>2016-02-06T09:00:01Z</time>
      </trkpt>
      <trkpt lat="45.60032" lon="6.66184">
        <ele>1686</ele>
        <time>2016-02-06T09:00:04Z</time>
      </trkpt>
      <trkpt lat="45.60033" lon="6.66184">
        <ele>1686</ele>
        <time>2016-02-06T09:00:05Z</time>
      </trkpt>
      <trkpt lat="45.60035" lon="6.66183">
        <ele>1686</ele>
        <time>2016-02-06T09:00:07Z</time>
      </trkpt>
      <trkpt lat="45.60036" lon="6.66182">
        <ele>1687</ele>
        <time>2016-02-06T09:00:09Z</time>
      </trkpt>
      <trkpt lat="45.60038" lon="6.66182">
        <ele>1687</ele>
        <time>2016-02-06T09:00:11Z</time>
      </trkpt>
      <trkpt lat="45.60037" lon="6.66182">
        <ele>1687</ele>
        <time>2016-02-06T09:00:22Z</time>
      </trkpt>
      <trkpt lat="45.60037" lon="6.66184">
        <ele>1687</ele>
        <time>2016-02-06T09:00:28Z</time>
      </trkpt>
      <trkpt lat="45.60036" lon="6.66182">
        <ele>1687</ele>
        <time>2016-02-06T09:00:33Z</time>
      </trkpt>
      <trkpt lat="45.60035" lon="6.66182">
        <ele>1686</ele>
        <time>2016-02-06T09:00:37Z</time>
      </trkpt>
      <trkpt lat="45.60036" lon="6.66183">
        <ele>1687</ele>
        <time>2016-02-06T09:00:44Z</time>
      </trkpt>
      <trkpt lat="45.60038" lon="6.66184">
        <ele>1687</ele>
        <time>2016-02-06T09:00:45Z</time>
      </trkpt>
      <trkpt lat="45.60039" lon="6.66185">
        <ele>1687</ele>
        <time>2016-02-06T09:00:47Z</time>
      </trkpt>
      <trkpt lat="45.60039" lon="6.66187">
        <ele>1687</ele>
        <time>2016-02-06T09:00:49Z</time>
      </trkpt>
      <trkpt lat="45.60038" lon="6.66188">
        <ele>1687</ele>
        <time>2016-02-06T09:00:53Z</time>
      </trkpt>
      <trkpt lat="45.60039" lon="6.66188">
        <ele>1687</ele>
        <time>2016-02-06T09:00:56Z</time>
      </trkpt>
      <trkpt lat="45.60037" lon="6.66187">
        <ele>1687</ele>
        <time>2016-02-06T09:00:57Z</time>
      </trkpt>
      <trkpt lat="45.60037" lon="6.66184">
        <ele>1687</ele>
        <time>2016-02-06T09:01:00Z</time>
      </trkpt>
      <trkpt lat="45.60039" lon="6.66182">
        <ele>1687</ele>
        <time>2016-02-06T09:01:02Z</time>
      </trkpt>
      <trkpt lat="45.60037" lon="6.66181">
        <ele>1687</ele>
        <time>2016-02-06T09:01:06Z</time>
      </trkpt>
      <trkpt lat="45.60037" lon="6.66183">
        <ele>1687</ele>
        <time>2016-02-06T09:01:08Z</time>
      </trkpt>
      <trkpt lat="45.60037" lon="6.66184">
        <ele>1687</ele>
        <time>2016-02-06T09:01:12Z</time>
      </trkpt>
      <trkpt lat="45.60035" lon="6.66183">
        <ele>1686</ele>
        <time>2016-02-06T09:01:15Z</time>
      </trkpt>
      <trkpt lat="45.60033" lon="6.66184">
        <ele>1686</ele>
        <time>2016-02-06T09:01:17Z</time>
      </trkpt>
      <trkpt lat="45.60032" lon="6.66184">
        <ele>1686</ele>
        <time>2016-02-06T09:01:18Z</time>
      </trkpt>
      <trkpt lat="45.60031" lon="6.66184">
        <ele>1686</ele>
        <time>2016-02-06T09:01:19Z</time>
      </trkpt>
      <trkpt lat="45.6003" lon="6.66185">
        <ele>1686</ele>
        <time>2016-02-06T09:01:21Z</time>
      </trkpt>
      <trkpt lat="45.60032" lon="6.66187">
        <ele>1686</ele>
        <time>2016-02-06T09:01:23Z</time>
      </trkpt>
      <trkpt lat="45.60033" lon="6.66186">
        <ele>1686</ele>
        <time>2016-02-06T09:01:29Z</time>
      </trkpt>
      <trkpt lat="45.60035" lon="6.66186">
        <ele>1686</ele>
        <time>2016-02-06T09:01:31Z</time>
      </trkpt>
      <trkpt lat="45.60036" lon="6.66186">
        <ele>1686</ele>
        <time>2016-02-06T09:01:33Z</time>
      </trkpt>
      <trkpt lat="45.60037" lon="6.66186">
        <ele>1687</ele>
        <time>2016-02-06T09:01:36Z</time>
      </trkpt>
      <trkpt lat="45.60038" lon="6.66187">
        <ele>1687</ele>
        <time>2016-02-06T09:01:38Z</time>
      </trkpt>
      <trkpt lat="45.60038" lon="6.66184">
        <ele>1687</ele>
        <time>2016-02-06T09:02:13Z</time>
      </trkpt>
      <trkpt lat="45.60036" lon="6.66183">
        <ele>1687</ele>
        <time>2016-02-06T09:02:14Z</time>
      </trkpt>
      <trkpt lat="45.60036" lon="6.66181">
        <ele>1687</ele>
        <time>2016-02-06T09:02:17Z</time>
      </trkpt>
      <trkpt lat="45.60037" lon="6.66181">
        <ele>1687</ele>
        <time>2016-02-06T09:02:20Z</time>
      </trkpt>
      <trkpt lat="45.60038" lon="6.6618">
        <ele>1687</ele>
        <time>2016-02-06T09:02:22Z</time>
      </trkpt>
      <trkpt lat="45.6004" lon="6.6618">
        <ele>1687</ele>
        <time>2016-02-06T09:02:26Z</time>
      </trkpt>
      <trkpt lat="45.60038" lon="6.66182">
        <ele>1687</ele>
        <time>2016-02-06T09:02:29Z</time>
      </trkpt>
      <trkpt lat="45.60038" lon="6.66183">
        <ele>1687</ele>
        <time>2016-02-06T09:02:34Z</time>
      </trkpt>
      <trkpt lat="45.6004" lon="6.66182">
        <ele>1687</ele>
        <time>2016-02-06T09:02:37Z</time>
      </trkpt>
      <trkpt lat="45.6004" lon="6.66183">
        <ele>1687</ele>
        <time>2016-02-06T09:02:51Z</time>
      </trkpt>
      <trkpt lat="45.60039" lon="6.66185">
        <ele>1687</ele>
        <time>2016-02-06T09:02:58Z</time>
      </trkpt>
      <trkpt lat="45.60038" lon="6.66187">
        <ele>1687</ele>
        <time>2016-02-06T09:03:00Z</time>
      </trkpt>
      <trkpt lat="45.60037" lon="6.66187">
        <ele>1687</ele>
        <time>2016-02-06T09:03:02Z</time>
      </trkpt>
      <trkpt lat="45.60038" lon="6.66186">
        <ele>1687</ele>
        <time>2016-02-06T09:03:09Z</time>
      </trkpt>
      <trkpt lat="45.60039" lon="6.66187">
        <ele>1687</ele>
        <time>2016-02-06T09:03:15Z</time>
      </trkpt>
      <trkpt lat="45.60041" lon="6.66187">
        <ele>1687</ele>
        <time>2016-02-06T09:03:20Z</time>
      </trkpt>
      <trkpt lat="45.60042" lon="6.66188">
        <ele>1687</ele>
        <time>2016-02-06T09:03:24Z</time>
      </trkpt>
      <trkpt lat="45.60043" lon="6.6619">
        <ele>1687</ele>
        <time>2016-02-06T09:03:26Z</time>
      </trkpt>
      <trkpt lat="45.60044" lon="6.66192">
        <ele>1687</ele>
        <time>2016-02-06T09:03:27Z</time>
      </trkpt>
      <trkpt lat="45.60046" lon="6.66194">
        <ele>1688</ele>
        <time>2016-02-06T09:03:30Z</time>
      </trkpt>
      <trkpt lat="45.60047" lon="6.66194">
        <ele>1688</ele>
        <time>2016-02-06T09:03:33Z</time>
      </trkpt>
      <trkpt lat="45.60049" lon="6.66194">
        <ele>1688</ele>
        <time>2016-02-06T09:03:38Z</time>
      </trkpt>
      <trkpt lat="45.6005" lon="6.66191">
        <ele>1689</ele>
        <time>2016-02-06T09:03:42Z</time>
      </trkpt>
      <trkpt lat="45.60049" lon="6.66189">
        <ele>1689</ele>
        <time>2016-02-06T09:03:46Z</time>
      </trkpt>
      <trkpt lat="45.60048" lon="6.6619">
        <ele>1688</ele>
        <time>2016-02-06T09:03:52Z</time>
      </trkpt>
      <trkpt lat="45.60046" lon="6.66191">
        <ele>1688</ele>
        <time>2016-02-06T09:03:54Z</time>
      </trkpt>
      <trkpt lat="45.60046" lon="6.66189">
        <ele>1688</ele>
        <time>2016-02-06T09:03:56Z</time>
      </trkpt>
      <trkpt lat="45.60046" lon="6.66187">
        <ele>1688</ele>
        <time>2016-02-06T09:03:57Z</time>
      </trkpt>
      <trkpt lat="45.60046" lon="6.66186">
        <ele>1688</ele>
        <time>2016-02-06T09:03:58Z</time>
      </trkpt>
      <trkpt lat="45.60046" lon="6.66183">
        <ele>1688</ele>
        <time>2016-02-06T09:04:02Z</time>
      </trkpt>
      <trkpt lat="45.60044" lon="6.66183">
        <ele>1688</ele>
        <time>2016-02-06T09:04:05Z</time>
      </trkpt>
      <trkpt lat="45.60043" lon="6.66181">
        <ele>1688</ele>
        <time>2016-02-06T09:04:08Z</time>
      </trkpt>
      <trkpt lat="45.60043" lon="6.66179">
        <ele>1688</ele>
        <time>2016-02-06T09:04:10Z</time>
      </trkpt>
      <trkpt lat="45.60043" lon="6.66177">
        <ele>1688</ele>
        <time>2016-02-06T09:04:13Z</time>
      </trkpt>
      <trkpt lat="45.60044" lon="6.66175">
        <ele>1688</ele>
        <time>2016-02-06T09:04:16Z</time>
      </trkpt>
      <trkpt lat="45.60045" lon="6.66174">
        <ele>1688</ele>
        <time>2016-02-06T09:04:17Z</time>
      </trkpt>
      <trkpt lat="45.60046" lon="6.66173">
        <ele>1689</ele>
        <time>2016-02-06T09:04:18Z</time>
      </trkpt>
      <trkpt lat="45.60047" lon="6.66173">
        <ele>1689</ele>
        <time>2016-02-06T09:04:19Z</time>
      </trkpt>
      <trkpt lat="45.60047" lon="6.6617">
        <ele>1689</ele>
        <time>2016-02-06T09:04:24Z</time>
      </trkpt>
      <trkpt lat="45.60047" lon="6.66169">
        <ele>1689</ele>
        <time>2016-02-06T09:04:27Z</time>
      </trkpt>
      <trkpt lat="45.60049" lon="6.66167">
        <ele>1689</ele>
        <time>2016-02-06T09:04:29Z</time>
      </trkpt>
      <trkpt lat="45.60049" lon="6.66165">
        <ele>1698</ele>
        <time>2016-02-06T09:04:33Z</time>
      </trkpt>
      <trkpt lat="45.60051" lon="6.66164">
        <ele>1698</ele>
        <time>2016-02-06T09:04:35Z</time>
      </trkpt>
      <trkpt lat="45.60052" lon="6.66164">
        <ele>1698</ele>
        <time>2016-02-06T09:04:36Z</time>
      </trkpt>
      <trkpt lat="45.60054" lon="6.66162">
        <ele>1698</ele>
        <time>2016-02-06T09:04:38Z</time>
      </trkpt>
      <trkpt lat="45.60055" lon="6.66161">
        <ele>1698</ele>
        <time>2016-02-06T09:04:50Z</time>
      </trkpt>
      <trkpt lat="45.60053" lon="6.66159">
        <ele>1698</ele>
        <time>2016-02-06T09:04:54Z</time>
      </trkpt>
      <trkpt lat="45.60052" lon="6.66157">
        <ele>1698</ele>
        <time>2016-02-06T09:04:56Z</time>
      </trkpt>
      <trkpt lat="45.6005" lon="6.66156">
        <ele>1698</ele>
        <time>2016-02-06T09:04:58Z</time>
      </trkpt>
      <trkpt lat="45.60049" lon="6.66156">
        <ele>1698</ele>
        <time>2016-02-06T09:05:02Z</time>
      </trkpt>
      <trkpt lat="45.6005" lon="6.66157">
        <ele>1698</ele>
        <time>2016-02-06T09:05:05Z</time>
      </trkpt>
      <trkpt lat="45.60049" lon="6.66157">
        <ele>1698</ele>
        <time>2016-02-06T09:05:18Z</time>
      </trkpt>
      <trkpt lat="45.60049" lon="6.66159">
        <ele>1698</ele>
        <time>2016-02-06T09:05:23Z</time>
      </trkpt>
      <trkpt lat="45.60047" lon="6.66158">
        <ele>1698</ele>
        <time>2016-02-06T09:05:25Z</time>
      </trkpt>
      <trkpt lat="45.60046" lon="6.66159">
        <ele>1697</ele>
        <time>2016-02-06T09:05:34Z</time>
      </trkpt>
      <trkpt lat="45.60045" lon="6.66159">
        <ele>1697</ele>
        <time>2016-02-06T09:05:40Z</time>
      </trkpt>
      <trkpt lat="45.60045" lon="6.66157">
        <ele>1697</ele>
        <time>2016-02-06T09:05:44Z</time>
      </trkpt>
      <trkpt lat="45.60046" lon="6.66155">
        <ele>1698</ele>
        <time>2016-02-06T09:05:47Z</time>
      </trkpt>
      <trkpt lat="45.60048" lon="6.66154">
        <ele>1698</ele>
        <time>2016-02-06T09:05:50Z</time>
      </trkpt>
      <trkpt lat="45.60049" lon="6.66153">
        <ele>1698</ele>
        <time>2016-02-06T09:05:53Z</time>
      </trkpt>
      <trkpt lat="45.6005" lon="6.6615">
        <ele>1698</ele>
        <time>2016-02-06T09:05:56Z</time>
      </trkpt>
      <trkpt lat="45.60051" lon="6.66148">
        <ele>1699</ele>
        <time>2016-02-06T09:06:00Z</time>
      </trkpt>
      <trkpt lat="45.60053" lon="6.66146">
        <ele>1699</ele>
        <time>2016-02-06T09:06:02Z</time>
      </trkpt>
      <trkpt lat="45.60054" lon="6.66144">
        <ele>1699</ele>
        <time>2016-02-06T09:06:05Z</time>
      </trkpt>
      <trkpt lat="45.60055" lon="6.66145">
        <ele>1699</ele>
        <time>2016-02-06T09:06:07Z</time>
      </trkpt>
      <trkpt lat="45.60057" lon="6.66147">
        <ele>1699</ele>
        <time>2016-02-06T09:06:12Z</time>
      </trkpt>
      <trkpt lat="45.60058" lon="6.66148">
        <ele>1699</ele>
        <time>2016-02-06T09:06:13Z</time>
      </trkpt>
      <trkpt lat="45.6006" lon="6.66149">
        <ele>1700</ele>
        <time>2016-02-06T09:06:15Z</time>
      </trkpt>
      <trkpt lat="45.60061" lon="6.6615">
        <ele>1700</ele>
        <time>2016-02-06T09:06:16Z</time>
      </trkpt>
      <trkpt lat="45.60062" lon="6.6615">
        <ele>1700</ele>
        <time>2016-02-06T09:06:17Z</time>
      </trkpt>
      <trkpt lat="45.60064" lon="6.6615">
        <ele>1700</ele>
        <time>2016-02-06T09:06:19Z</time>
      </trkpt>
      <trkpt lat="45.60066" lon="6.66149">
        <ele>1700</ele>
        <time>2016-02-06T09:06:20Z</time>
      </trkpt>
      <trkpt lat="45.60067" lon="6.66148">
        <ele>1700</ele>
        <time>2016-02-06T09:06:21Z</time>
      </trkpt>
      <trkpt lat="45.60069" lon="6.66149">
        <ele>1700</ele>
        <time>2016-02-06T09:06:22Z</time>
      </trkpt>
      <trkpt lat="45.60071" lon="6.66149">
        <ele>1700</ele>
        <time>2016-02-06T09:06:23Z</time>
      </trkpt>
      <trkpt lat="45.60072" lon="6.66151">
        <ele>1700</ele>
        <time>2016-02-06T09:06:26Z</time>
      </trkpt>
      <trkpt lat="45.60073" lon="6.66151">
        <ele>1700</ele>
        <time>2016-02-06T09:06:30Z</time>
      </trkpt>
      <trkpt lat="45.60074" lon="6.66152">
        <ele>1700</ele>
        <time>2016-02-06T09:06:32Z</time>
      </trkpt>
      <trkpt lat="45.60075" lon="6.66154">
        <ele>1700</ele>
        <time>2016-02-06T09:06:35Z</time>
      </trkpt>
      <trkpt lat="45.60075" lon="6.66156">
        <ele>1700</ele>
        <time>2016-02-06T09:06:40Z</time>
      </trkpt>
      <trkpt lat="45.60077" lon="6.66157">
        <ele>1700</ele>
        <time>2016-02-06T09:06:44Z</time>
      </trkpt>
      <trkpt lat="45.60075" lon="6.66157">
        <ele>1700</ele>
        <time>2016-02-06T09:06:47Z</time>
      </trkpt>
      <trkpt lat="45.60077" lon="6.66157">
        <ele>1701</ele>
        <time>2016-02-06T09:06:51Z</time>
      </trkpt>
      <trkpt lat="45.60078" lon="6.66158">
        <ele>1701</ele>
        <time>2016-02-06T09:06:54Z</time>
      </trkpt>
      <trkpt lat="45.60079" lon="6.66158">
        <ele>1701</ele>
        <time>2016-02-06T09:06:56Z</time>
      </trkpt>
      <trkpt lat="45.6008" lon="6.6616">
        <ele>1701</ele>
        <time>2016-02-06T09:06:59Z</time>
      </trkpt>
      <trkpt lat="45.60082" lon="6.66161">
        <ele>1701</ele>
        <time>2016-02-06T09:07:01Z</time>
      </trkpt>
      <trkpt lat="45.60082" lon="6.66163">
        <ele>1701</ele>
        <time>2016-02-06T09:07:04Z</time>
      </trkpt>
      <trkpt lat="45.60082" lon="6.66165">
        <ele>1701</ele>
        <time>2016-02-06T09:07:06Z</time>
      </trkpt>
      <trkpt lat="45.60083" lon="6.66166">
        <ele>1702</ele>
        <time>2016-02-06T09:07:08Z</time>
      </trkpt>
      <trkpt lat="45.60085" lon="6.66167">
        <ele>1702</ele>
        <time>2016-02-06T09:07:10Z</time>
      </trkpt>
      <trkpt lat="45.60086" lon="6.66167">
        <ele>1704</ele>
        <time>2016-02-06T09:07:13Z</time>
      </trkpt>
      <trkpt lat="45.60085" lon="6.6617">
        <ele>1705</ele>
        <time>2016-02-06T09:07:15Z</time>
      </trkpt>
      <trkpt lat="45.60086" lon="6.66168">
        <ele>1705</ele>
        <time>2016-02-06T09:07:19Z</time>
      </trkpt>
      <trkpt lat="45.60085" lon="6.66169">
        <ele>1705</ele>
        <time>2016-02-06T09:07:21Z</time>
      </trkpt>
      <trkpt lat="45.60086" lon="6.66168">
        <ele>1704</ele>
        <time>2016-02-06T09:07:25Z</time>
      </trkpt>
      <trkpt lat="45.60085" lon="6.66165">
        <ele>1704</ele>
        <time>2016-02-06T09:07:27Z</time>
      </trkpt>
      <trkpt lat="45.60085" lon="6.66164">
        <ele>1706</ele>
        <time>2016-02-06T09:07:29Z</time>
      </trkpt>
      <trkpt lat="45.60086" lon="6.66161">
        <ele>1708</ele>
        <time>2016-02-06T09:07:32Z</time>
      </trkpt>
      <trkpt lat="45.60087" lon="6.6616">
        <ele>1710</ele>
        <time>2016-02-06T09:07:34Z</time>
      </trkpt>
      <trkpt lat="45.60088" lon="6.66159">
        <ele>1712</ele>
        <time>2016-02-06T09:07:38Z</time>
      </trkpt>
      <trkpt lat="45.60088" lon="6.66157">
        <ele>1714</ele>
        <time>2016-02-06T09:07:41Z</time>
      </trkpt>
      <trkpt lat="45.60089" lon="6.66155">
        <ele>1716</ele>
        <time>2016-02-06T09:07:45Z</time>
      </trkpt>
      <trkpt lat="45.60088" lon="6.66153">
        <ele>1717</ele>
        <time>2016-02-06T09:07:47Z</time>
      </trkpt>
      <trkpt lat="45.60087" lon="6.66151">
        <ele>1718</ele>
        <time>2016-02-06T09:07:49Z</time>
      </trkpt>
      <trkpt lat="45.60086" lon="6.66149">
        <ele>1719</ele>
        <time>2016-02-06T09:07:51Z</time>
      </trkpt>
      <trkpt lat="45.60086" lon="6.66147">
        <ele>1719</ele>
        <time>2016-02-06T09:07:53Z</time>
      </trkpt>
      <trkpt lat="45.60087" lon="6.66146">
        <ele>1720</ele>
        <time>2016-02-06T09:07:56Z</time>
      </trkpt>
      <trkpt lat="45.60088" lon="6.66145">
        <ele>1721</ele>
        <time>2016-02-06T09:07:57Z</time>
      </trkpt>
      <trkpt lat="45.60089" lon="6.66143">
        <ele>1722</ele>
        <time>2016-02-06T09:07:59Z</time>
      </trkpt>
      <trkpt lat="45.60089" lon="6.66141">
        <ele>1723</ele>
        <time>2016-02-06T09:08:02Z</time>
      </trkpt>
      <trkpt lat="45.6009" lon="6.6614">
        <ele>1724</ele>
        <time>2016-02-06T09:08:05Z</time>
      </trkpt>
      <trkpt lat="45.6009" lon="6.66138">
        <ele>1724</ele>
        <time>2016-02-06T09:08:07Z</time>
      </trkpt>
      <trkpt lat="45.60089" lon="6.66136">
        <ele>1725</ele>
        <time>2016-02-06T09:08:09Z</time>
      </trkpt>
      <trkpt lat="45.60089" lon="6.66133">
        <ele>1726</ele>
        <time>2016-02-06T09:08:11Z</time>
      </trkpt>
      <trkpt lat="45.6009" lon="6.66132">
        <ele>1726</ele>
        <time>2016-02-06T09:08:13Z</time>
      </trkpt>
      <trkpt lat="45.60091" lon="6.6613">
        <ele>1726</ele>
        <time>2016-02-06T09:08:15Z</time>
      </trkpt>
      <trkpt lat="45.60091" lon="6.66128">
        <ele>1727</ele>
        <time>2016-02-06T09:08:18Z</time>
      </trkpt>
      <trkpt lat="45.60091" lon="6.66126">
        <ele>1727</ele>
        <time>2016-02-06T09:08:21Z</time>
      </trkpt>
      <trkpt lat="45.60092" lon="6.66125">
        <ele>1728</ele>
        <time>2016-02-06T09:08:23Z</time>
      </trkpt>
      <trkpt lat="45.60093" lon="6.66123">
        <ele>1728</ele>
        <time>2016-02-06T09:08:25Z</time>
      </trkpt>
      <trkpt lat="45.60093" lon="6.66121">
        <ele>1728</ele>
        <time>2016-02-06T09:08:29Z</time>
      </trkpt>
      <trkpt lat="45.60091" lon="6.66119">
        <ele>1728</ele>
        <time>2016-02-06T09:08:31Z</time>
      </trkpt>
      <trkpt lat="45.60091" lon="6.66118">
        <ele>1728</ele>
        <time>2016-02-06T09:08:34Z</time>
      </trkpt>
      <trkpt lat="45.60091" lon="6.66116">
        <ele>1728</ele>
        <time>2016-02-06T09:08:36Z</time>
      </trkpt>
      <trkpt lat="45.60091" lon="6.66114">
        <ele>1728</ele>
        <time>2016-02-06T09:08:39Z</time>
      </trkpt>
      <trkpt lat="45.60091" lon="6.66113">
        <ele>1728</ele>
        <time>2016-02-06T09:08:44Z</time>
      </trkpt>
      <trkpt lat="45.60092" lon="6.66112">
        <ele>1728</ele>
        <time>2016-02-06T09:08:47Z</time>
      </trkpt>
      <trkpt lat="45.6009" lon="6.66112">
        <ele>1728</ele>
        <time>2016-02-06T09:08:50Z</time>
      </trkpt>
      <trkpt lat="45.6009" lon="6.66111">
        <ele>1728</ele>
        <time>2016-02-06T09:08:53Z</time>
      </trkpt>
      <trkpt lat="45.6009" lon="6.66112">
        <ele>1728</ele>
        <time>2016-02-06T09:08:55Z</time>
      </trkpt>
      <trkpt lat="45.60091" lon="6.66112">
        <ele>1728</ele>
        <time>2016-02-06T09:08:57Z</time>
      </trkpt>
      <trkpt lat="45.6009" lon="6.66112">
        <ele>1728</ele>
        <time>2016-02-06T09:09:00Z</time>
      </trkpt>
      <trkpt lat="45.6009" lon="6.6611">
        <ele>1728</ele>
        <time>2016-02-06T09:09:02Z</time>
      </trkpt>
      <trkpt lat="45.60091" lon="6.66109">
        <ele>1728</ele>
        <time>2016-02-06T09:09:07Z</time>
      </trkpt>
      <trkpt lat="45.6009" lon="6.66111">
        <ele>1728</ele>
        <time>2016-02-06T09:09:15Z</time>
      </trkpt>
      <trkpt lat="45.60089" lon="6.66111">
        <ele>1728</ele>
        <time>2016-02-06T09:09:18Z</time>
      </trkpt>
      <trkpt lat="45.6009" lon="6.66113">
        <ele>1728</ele>
        <time>2016-02-06T09:09:23Z</time>
      </trkpt>
      <trkpt lat="45.60089" lon="6.66114">
        <ele>1728</ele>
        <time>2016-02-06T09:09:27Z</time>
      </trkpt>
      <trkpt lat="45.60087" lon="6.66114">
        <ele>1727</ele>
        <time>2016-02-06T09:09:34Z</time>
      </trkpt>
      <trkpt lat="45.60088" lon="6.66112">
        <ele>1727</ele>
        <time>2016-02-06T09:09:37Z</time>
      </trkpt>
      <trkpt lat="45.60089" lon="6.66111">
        <ele>1728</ele>
        <time>2016-02-06T09:09:40Z</time>
      </trkpt>
      <trkpt lat="45.60091" lon="6.6611">
        <ele>1728</ele>
        <time>2016-02-06T09:09:42Z</time>
      </trkpt>
      <trkpt lat="45.60092" lon="6.66111">
        <ele>1728</ele>
        <time>2016-02-06T09:09:44Z</time>
      </trkpt>
      <trkpt lat="45.6009" lon="6.66109">
        <ele>1728</ele>
        <time>2016-02-06T09:09:50Z</time>
      </trkpt>
      <trkpt lat="45.60091" lon="6.66111">
        <ele>1728</ele>
        <time>2016-02-06T09:09:53Z</time>
      </trkpt>
      <trkpt lat="45.6009" lon="6.66112">
        <ele>1728</ele>
        <time>2016-02-06T09:09:56Z</time>
      </trkpt>
      <trkpt lat="45.60088" lon="6.66112">
        <ele>1728</ele>
        <time>2016-02-06T09:09:58Z</time>
      </trkpt>
      <trkpt lat="45.60086" lon="6.66112">
        <ele>1727</ele>
        <time>2016-02-06T09:10:02Z</time>
      </trkpt>
      <trkpt lat="45.60084" lon="6.66112">
        <ele>1727</ele>
        <time>2016-02-06T09:10:04Z</time>
      </trkpt>
      <trkpt lat="45.60083" lon="6.66112">
        <ele>1706</ele>
        <time>2016-02-06T09:10:05Z</time>
      </trkpt>
      <trkpt lat="45.60081" lon="6.66111">
        <ele>1706</ele>
        <time>2016-02-06T09:10:06Z</time>
      </trkpt>
      <trkpt lat="45.6008" lon="6.6611">
        <ele>1706</ele>
        <time>2016-02-06T09:10:09Z</time>
      </trkpt>
      <trkpt lat="45.60078" lon="6.66108">
        <ele>1706</ele>
        <time>2016-02-06T09:10:12Z</time>
      </trkpt>
      <trkpt lat="45.60081" lon="6.66108">
        <ele>1706</ele>
        <time>2016-02-06T09:10:18Z</time>
      </trkpt>
      <trkpt lat="45.60083" lon="6.66107">
        <ele>1707</ele>
        <time>2016-02-06T09:10:19Z</time>
      </trkpt>
      <trkpt lat="45.60084" lon="6.66107">
        <ele>1727</ele>
        <time>2016-02-06T09:10:20Z</time>
      </trkpt>
      <trkpt lat="45.60085" lon="6.66106">
        <ele>1727</ele>
        <time>2016-02-06T09:10:21Z</time>
      </trkpt>
      <trkpt lat="45.60087" lon="6.66106">
        <ele>1727</ele>
        <time>2016-02-06T09:10:23Z</time>
      </trkpt>
      <trkpt lat="45.60089" lon="6.66106">
        <ele>1727</ele>
        <time>2016-02-06T09:10:26Z</time>
      </trkpt>
      <trkpt lat="45.6009" lon="6.66108">
        <ele>1727</ele>
        <time>2016-02-06T09:10:27Z</time>
      </trkpt>
      <trkpt lat="45.6009" lon="6.66105">
        <ele>1727</ele>
        <time>2016-02-06T09:10:29Z</time>
      </trkpt>
      <trkpt lat="45.60091" lon="6.66106">
        <ele>1728</ele>
        <time>2016-02-06T09:10:31Z</time>
      </trkpt>
      <trkpt lat="45.6009" lon="6.66108">
        <ele>1727</ele>
        <time>2016-02-06T09:10:35Z</time>
      </trkpt>
      <trkpt lat="45.60091" lon="6.66107">
        <ele>1728</ele>
        <time>2016-02-06T09:10:39Z</time>
      </trkpt>
      <trkpt lat="45.60093" lon="6.66107">
        <ele>1728</ele>
        <time>2016-02-06T09:10:40Z</time>
      </trkpt>
      <trkpt lat="45.60091" lon="6.66107">
        <ele>1728</ele>
        <time>2016-02-06T09:10:42Z</time>
      </trkpt>
      <trkpt lat="45.60092" lon="6.66109">
        <ele>1728</ele>
        <time>2016-02-06T09:10:45Z</time>
      </trkpt>
      <trkpt lat="45.60094" lon="6.6611">
        <ele>1728</ele>
        <time>2016-02-06T09:10:46Z</time>
      </trkpt>
      <trkpt lat="45.60096" lon="6.66111">
        <ele>1729</ele>
        <time>2016-02-06T09:10:47Z</time>
      </trkpt>
      <trkpt lat="45.60097" lon="6.66112">
        <ele>1729</ele>
        <time>2016-02-06T09:10:48Z</time>
      </trkpt>
      <trkpt lat="45.60099" lon="6.66113">
        <ele>1730</ele>
        <time>2016-02-06T09:10:51Z</time>
      </trkpt>
      <trkpt lat="45.60101" lon="6.66112">
        <ele>1730</ele>
        <time>2016-02-06T09:10:53Z</time>
      </trkpt>
      <trkpt lat="45.601" lon="6.66111">
        <ele>1730</ele>
        <time>2016-02-06T09:10:57Z</time>
      </trkpt>
      <trkpt lat="45.60098" lon="6.6611">
        <ele>1729</ele>
        <time>2016-02-06T09:10:58Z</time>
      </trkpt>
      <trkpt lat="45.60096" lon="6.66109">
        <ele>1729</ele>
        <time>2016-02-06T09:11:01Z</time>
      </trkpt>
      <trkpt lat="45.60095" lon="6.66108">
        <ele>1728</ele>
        <time>2016-02-06T09:11:03Z</time>
      </trkpt>
      <trkpt lat="45.60094" lon="6.66105">
        <ele>1728</ele>
        <time>2016-02-06T09:11:07Z</time>
      </trkpt>
      <trkpt lat="45.60094" lon="6.66104">
        <ele>1728</ele>
        <time>2016-02-06T09:11:09Z</time>
      </trkpt>
      <trkpt lat="45.60095" lon="6.66102">
        <ele>1728</ele>
        <time>2016-02-06T09:11:11Z</time>
      </trkpt>
      <trkpt lat="45.60094" lon="6.661">
        <ele>1727</ele>
        <time>2016-02-06T09:11:13Z</time>
      </trkpt>
      <trkpt lat="45.60094" lon="6.66099">
        <ele>1727</ele>
        <time>2016-02-06T09:11:15Z</time>
      </trkpt>
      <trkpt lat="45.60093" lon="6.66098">
        <ele>1727</ele>
        <time>2016-02-06T09:11:20Z</time>
      </trkpt>
      <trkpt lat="45.60091" lon="6.66099">
        <ele>1726</ele>
        <time>2016-02-06T09:11:24Z</time>
      </trkpt>
      <trkpt lat="45.60091" lon="6.66097">
        <ele>1725</ele>
        <time>2016-02-06T09:11:29Z</time>
      </trkpt>
      <trkpt lat="45.60091" lon="6.66095">
        <ele>1725</ele>
        <time>2016-02-06T09:11:31Z</time>
      </trkpt>
      <trkpt lat="45.60091" lon="6.66093">
        <ele>1724</ele>
        <time>2016-02-06T09:11:33Z</time>
      </trkpt>
      <trkpt lat="45.60092" lon="6.66091">
        <ele>1724</ele>
        <time>2016-02-06T09:11:35Z</time>
      </trkpt>
      <trkpt lat="45.60093" lon="6.66089">
        <ele>1724</ele>
        <time>2016-02-06T09:11:37Z</time>
      </trkpt>
      <trkpt lat="45.60092" lon="6.66087">
        <ele>1724</ele>
        <time>2016-02-06T09:11:39Z</time>
      </trkpt>
      <trkpt lat="45.60092" lon="6.66086">
        <ele>1723</ele>
        <time>2016-02-06T09:11:42Z</time>
      </trkpt>
      <trkpt lat="45.60091" lon="6.66084">
        <ele>1722</ele>
        <time>2016-02-06T09:11:43Z</time>
      </trkpt>
      <trkpt lat="45.60091" lon="6.66081">
        <ele>1725</ele>
        <time>2016-02-06T09:11:46Z</time>
      </trkpt>
      <trkpt lat="45.6009" lon="6.66079">
        <ele>1726</ele>
        <time>2016-02-06T09:11:49Z</time>
      </trkpt>
      <trkpt lat="45.60091" lon="6.66076">
        <ele>1728</ele>
        <time>2016-02-06T09:11:51Z</time>
      </trkpt>
      <trkpt lat="45.60093" lon="6.66075">
        <ele>1730</ele>
        <time>2016-02-06T09:11:54Z</time>
      </trkpt>
      <trkpt lat="45.60094" lon="6.66073">
        <ele>1732</ele>
        <time>2016-02-06T09:11:56Z</time>
      </trkpt>
      <trkpt lat="45.60094" lon="6.66071">
        <ele>1732</ele>
        <time>2016-02-06T09:11:58Z</time>
      </trkpt>
      <trkpt lat="45.60095" lon="6.6607">
        <ele>1734</ele>
        <time>2016-02-06T09:12:00Z</time>
      </trkpt>
      <trkpt lat="45.60096" lon="6.66068">
        <ele>1735</ele>
        <time>2016-02-06T09:12:02Z</time>
      </trkpt>
      <trkpt lat="45.60096" lon="6.66066">
        <ele>1735</ele>
        <time>2016-02-06T09:12:04Z</time>
      </trkpt>
      <trkpt lat="45.60097" lon="6.66065">
        <ele>1736</ele>
        <time>2016-02-06T09:12:06Z</time>
      </trkpt>
      <trkpt lat="45.60099" lon="6.66064">
        <ele>1737</ele>
        <time>2016-02-06T09:12:09Z</time>
      </trkpt>
      <trkpt lat="45.60099" lon="6.66062">
        <ele>1738</ele>
        <time>2016-02-06T09:12:13Z</time>
      </trkpt>
      <trkpt lat="45.601" lon="6.66061">
        <ele>1739</ele>
        <time>2016-02-06T09:12:16Z</time>
      </trkpt>
      <trkpt lat="45.60099" lon="6.66059">
        <ele>1739</ele>
        <time>2016-02-06T09:12:19Z</time>
      </trkpt>
      <trkpt lat="45.60099" lon="6.66057">
        <ele>1739</ele>
        <time>2016-02-06T09:12:21Z</time>
      </trkpt>
      <trkpt lat="45.60099" lon="6.66056">
        <ele>1740</ele>
        <time>2016-02-06T09:12:24Z</time>
      </trkpt>
      <trkpt lat="45.601" lon="6.66057">
        <ele>1740</ele>
        <time>2016-02-06T09:12:26Z</time>
      </trkpt>
      <trkpt lat="45.60099" lon="6.66055">
        <ele>1740</ele>
        <time>2016-02-06T09:12:33Z</time>
      </trkpt>
      <trkpt lat="45.60098" lon="6.66053">
        <ele>1740</ele>
        <time>2016-02-06T09:12:35Z</time>
      </trkpt>
      <trkpt lat="45.60099" lon="6.66052">
        <ele>1741</ele>
        <time>2016-02-06T09:12:38Z</time>
      </trkpt>
      <trkpt lat="45.60099" lon="6.6605">
        <ele>1741</ele>
        <time>2016-02-06T09:12:39Z</time>
      </trkpt>
      <trkpt lat="45.60099" lon="6.66048">
        <ele>1741</ele>
        <time>2016-02-06T09:12:40Z</time>
      </trkpt>
      <trkpt lat="45.60098" lon="6.66047">
        <ele>1741</ele>
        <time>2016-02-06T09:12:41Z</time>
      </trkpt>
      <trkpt lat="45.60098" lon="6.66045">
        <ele>1742</ele>
        <time>2016-02-06T09:12:42Z</time>
      </trkpt>
      <trkpt lat="45.60098" lon="6.66044">
        <ele>1742</ele>
        <time>2016-02-06T09:12:44Z</time>
      </trkpt>
      <trkpt lat="45.601" lon="6.66043">
        <ele>1742</ele>
        <time>2016-02-06T09:12:47Z</time>
      </trkpt>
      <trkpt lat="45.60101" lon="6.66042">
        <ele>1743</ele>
        <time>2016-02-06T09:12:49Z</time>
      </trkpt>
      <trkpt lat="45.60101" lon="6.66041">
        <ele>1743</ele>
        <time>2016-02-06T09:12:52Z</time>
      </trkpt>
      <trkpt lat="45.60101" lon="6.66039">
        <ele>1743</ele>
        <time>2016-02-06T09:12:56Z</time>
      </trkpt>
      <trkpt lat="45.60101" lon="6.66037">
        <ele>1743</ele>
        <time>2016-02-06T09:12:58Z</time>
      </trkpt>
      <trkpt lat="45.60102" lon="6.66036">
        <ele>1744</ele>
        <time>2016-02-06T09:13:01Z</time>
      </trkpt>
      <trkpt lat="45.60102" lon="6.66034">
        <ele>1744</ele>
        <time>2016-02-06T09:13:03Z</time>
      </trkpt>
      <trkpt lat="45.60102" lon="6.66031">
        <ele>1744</ele>
        <time>2016-02-06T09:13:05Z</time>
      </trkpt>
      <trkpt lat="45.60103" lon="6.66029">
        <ele>1744</ele>
        <time>2016-02-06T09:13:07Z</time>
      </trkpt>
      <trkpt lat="45.60104" lon="6.66027">
        <ele>1744</ele>
        <time>2016-02-06T09:13:09Z</time>
      </trkpt>
      <trkpt lat="45.60103" lon="6.66024">
        <ele>1744</ele>
        <time>2016-02-06T09:13:11Z</time>
      </trkpt>
      <trkpt lat="45.60103" lon="6.66022">
        <ele>1744</ele>
        <time>2016-02-06T09:13:13Z</time>
      </trkpt>
      <trkpt lat="45.60103" lon="6.66021">
        <ele>1744</ele>
        <time>2016-02-06T09:13:14Z</time>
      </trkpt>
      <trkpt lat="45.60104" lon="6.66018">
        <ele>1744</ele>
        <time>2016-02-06T09:13:16Z</time>
      </trkpt>
      <trkpt lat="45.60105" lon="6.66017">
        <ele>1744</ele>
        <time>2016-02-06T09:13:18Z</time>
      </trkpt>
      <trkpt lat="45.60104" lon="6.66015">
        <ele>1744</ele>
        <time>2016-02-06T09:13:21Z</time>
      </trkpt>
      <trkpt lat="45.60104" lon="6.66013">
        <ele>1744</ele>
        <time>2016-02-06T09:13:23Z</time>
      </trkpt>
      <trkpt lat="45.60101" lon="6.66011">
        <ele>1743</ele>
        <time>2016-02-06T09:13:25Z</time>
      </trkpt>
      <trkpt lat="45.601" lon="6.6601">
        <ele>1742</ele>
        <time>2016-02-06T09:13:27Z</time>
      </trkpt>
      <trkpt lat="45.60098" lon="6.66009">
        <ele>1742</ele>
        <time>2016-02-06T09:13:28Z</time>
      </trkpt>
      <trkpt lat="45.60097" lon="6.66006">
        <ele>1741</ele>
        <time>2016-02-06T09:13:30Z</time>
      </trkpt>
      <trkpt lat="45.60096" lon="6.66004">
        <ele>1740</ele>
        <time>2016-02-06T09:13:31Z</time>
      </trkpt>
      <trkpt lat="45.60095" lon="6.66003">
        <ele>1740</ele>
        <time>2016-02-06T09:13:32Z</time>
      </trkpt>
      <trkpt lat="45.60094" lon="6.66001">
        <ele>1740</ele>
        <time>2016-02-06T09:13:34Z</time>
      </trkpt>
      <trkpt lat="45.60094" lon="6.65999">
        <ele>1743</ele>
        <time>2016-02-06T09:13:36Z</time>
      </trkpt>
      <trkpt lat="45.60094" lon="6.65997">
        <ele>1743</ele>
        <time>2016-02-06T09:13:38Z</time>
      </trkpt>
      <trkpt lat="45.60093" lon="6.65995">
        <ele>1743</ele>
        <time>2016-02-06T09:13:40Z</time>
      </trkpt>
      <trkpt lat="45.60093" lon="6.65993">
        <ele>1744</ele>
        <time>2016-02-06T09:13:43Z</time>
      </trkpt>
      <trkpt lat="45.60092" lon="6.65991">
        <ele>1744</ele>
        <time>2016-02-06T09:13:45Z</time>
      </trkpt>
      <trkpt lat="45.60091" lon="6.65989">
        <ele>1744</ele>
        <time>2016-02-06T09:13:46Z</time>
      </trkpt>
      <trkpt lat="45.6009" lon="6.65987">
        <ele>1745</ele>
        <time>2016-02-06T09:13:47Z</time>
      </trkpt>
      <trkpt lat="45.60088" lon="6.65986">
        <ele>1745</ele>
        <time>2016-02-06T09:13:48Z</time>
      </trkpt>
      <trkpt lat="45.60087" lon="6.65984">
        <ele>1746</ele>
        <time>2016-02-06T09:13:49Z</time>
      </trkpt>
      <trkpt lat="45.60086" lon="6.65983">
        <ele>1746</ele>
        <time>2016-02-06T09:13:51Z</time>
      </trkpt>
      <trkpt lat="45.60084" lon="6.65982">
        <ele>1746</ele>
        <time>2016-02-06T09:13:52Z</time>
      </trkpt>
      <trkpt lat="45.60083" lon="6.65979">
        <ele>1747</ele>
        <time>2016-02-06T09:13:54Z</time>
      </trkpt>
      <trkpt lat="45.60082" lon="6.65977">
        <ele>1735</ele>
        <time>2016-02-06T09:13:55Z</time>
      </trkpt>
      <trkpt lat="45.6008" lon="6.65976">
        <ele>1735</ele>
        <time>2016-02-06T09:13:56Z</time>
      </trkpt>
      <trkpt lat="45.6008" lon="6.65974">
        <ele>1735</ele>
        <time>2016-02-06T09:13:57Z</time>
      </trkpt>
      <trkpt lat="45.60078" lon="6.65972">
        <ele>1736</ele>
        <time>2016-02-06T09:13:58Z</time>
      </trkpt>
      <trkpt lat="45.60076" lon="6.6597">
        <ele>1736</ele>
        <time>2016-02-06T09:14:00Z</time>
      </trkpt>
      <trkpt lat="45.60075" lon="6.65968">
        <ele>1736</ele>
        <time>2016-02-06T09:14:01Z</time>
      </trkpt>
      <trkpt lat="45.60074" lon="6.65966">
        <ele>1736</ele>
        <time>2016-02-06T09:14:03Z</time>
      </trkpt>
      <trkpt lat="45.60072" lon="6.65965">
        <ele>1736</ele>
        <time>2016-02-06T09:14:04Z</time>
      </trkpt>
      <trkpt lat="45.60071" lon="6.65964">
        <ele>1736</ele>
        <time>2016-02-06T09:14:05Z</time>
      </trkpt>
      <trkpt lat="45.6007" lon="6.65962">
        <ele>1736</ele>
        <time>2016-02-06T09:14:07Z</time>
      </trkpt>
      <trkpt lat="45.6007" lon="6.65959">
        <ele>1737</ele>
        <time>2016-02-06T09:14:09Z</time>
      </trkpt>
      <trkpt lat="45.60071" lon="6.65956">
        <ele>1737</ele>
        <time>2016-02-06T09:14:11Z</time>
      </trkpt>
      <trkpt lat="45.60071" lon="6.65953">
        <ele>1737</ele>
        <time>2016-02-06T09:14:13Z</time>
      </trkpt>
      <trkpt lat="45.6007" lon="6.65951">
        <ele>1737</ele>
        <time>2016-02-06T09:14:16Z</time>
      </trkpt>
      <trkpt lat="45.60069" lon="6.65949">
        <ele>1738</ele>
        <time>2016-02-06T09:14:18Z</time>
      </trkpt>
      <trkpt lat="45.6007" lon="6.65947">
        <ele>1738</ele>
        <time>2016-02-06T09:14:20Z</time>
      </trkpt>
      <trkpt lat="45.60072" lon="6.65945">
        <ele>1738</ele>
        <time>2016-02-06T09:14:21Z</time>
      </trkpt>
      <trkpt lat="45.60073" lon="6.65942">
        <ele>1739</ele>
        <time>2016-02-06T09:14:23Z</time>
      </trkpt>
      <trkpt lat="45.60072" lon="6.6594">
        <ele>1739</ele>
        <time>2016-02-06T09:14:25Z</time>
      </trkpt>
      <trkpt lat="45.6007" lon="6.65937">
        <ele>1739</ele>
        <time>2016-02-06T09:14:27Z</time>
      </trkpt>
      <trkpt lat="45.6007" lon="6.65935">
        <ele>1740</ele>
        <time>2016-02-06T09:14:29Z</time>
      </trkpt>
      <trkpt lat="45.6007" lon="6.65933">
        <ele>1740</ele>
        <time>2016-02-06T09:14:32Z</time>
      </trkpt>
      <trkpt lat="45.60071" lon="6.65932">
        <ele>1740</ele>
        <time>2016-02-06T09:14:33Z</time>
      </trkpt>
      <trkpt lat="45.6007" lon="6.6593">
        <ele>1741</ele>
        <time>2016-02-06T09:14:34Z</time>
      </trkpt>
      <trkpt lat="45.6007" lon="6.65927">
        <ele>1741</ele>
        <time>2016-02-06T09:14:36Z</time>
      </trkpt>
      <trkpt lat="45.6007" lon="6.65926">
        <ele>1741</ele>
        <time>2016-02-06T09:14:37Z</time>
      </trkpt>
      <trkpt lat="45.60069" lon="6.65924">
        <ele>1741</ele>
        <time>2016-02-06T09:14:39Z</time>
      </trkpt>
      <trkpt lat="45.60069" lon="6.65921">
        <ele>1741</ele>
        <time>2016-02-06T09:14:41Z</time>
      </trkpt>
      <trkpt lat="45.6007" lon="6.65919">
        <ele>1742</ele>
        <time>2016-02-06T09:14:43Z</time>
      </trkpt>
      <trkpt lat="45.6007" lon="6.65918">
        <ele>1742</ele>
        <time>2016-02-06T09:14:44Z</time>
      </trkpt>
      <trkpt lat="45.60068" lon="6.65916">
        <ele>1748</ele>
        <time>2016-02-06T09:14:46Z</time>
      </trkpt>
      <trkpt lat="45.60067" lon="6.65915">
        <ele>1748</ele>
        <time>2016-02-06T09:14:48Z</time>
      </trkpt>
      <trkpt lat="45.60067" lon="6.65913">
        <ele>1748</ele>
        <time>2016-02-06T09:14:50Z</time>
      </trkpt>
      <trkpt lat="45.60066" lon="6.65911">
        <ele>1748</ele>
        <time>2016-02-06T09:14:52Z</time>
      </trkpt>
      <trkpt lat="45.60067" lon="6.65908">
        <ele>1748</ele>
        <time>2016-02-06T09:14:54Z</time>
      </trkpt>
      <trkpt lat="45.60065" lon="6.65906">
        <ele>1749</ele>
        <time>2016-02-06T09:14:56Z</time>
      </trkpt>
      <trkpt lat="45.60064" lon="6.65904">
        <ele>1749</ele>
        <time>2016-02-06T09:14:58Z</time>
      </trkpt>
      <trkpt lat="45.60064" lon="6.65902">
        <ele>1749</ele>
        <time>2016-02-06T09:15:00Z</time>
      </trkpt>
      <trkpt lat="45.60064" lon="6.659">
        <ele>1749</ele>
        <time>2016-02-06T09:15:01Z</time>
      </trkpt>
      <trkpt lat="45.60064" lon="6.65897">
        <ele>1749</ele>
        <time>2016-02-06T09:15:03Z</time>
      </trkpt>
      <trkpt lat="45.60063" lon="6.65896">
        <ele>1750</ele>
        <time>2016-02-06T09:15:05Z</time>
      </trkpt>
      <trkpt lat="45.60062" lon="6.65894">
        <ele>1750</ele>
        <time>2016-02-06T09:15:07Z</time>
      </trkpt>
      <trkpt lat="45.60062" lon="6.65891">
        <ele>1750</ele>
        <time>2016-02-06T09:15:09Z</time>
      </trkpt>
      <trkpt lat="45.60062" lon="6.65889">
        <ele>1750</ele>
        <time>2016-02-06T09:15:11Z</time>
      </trkpt>
      <trkpt lat="45.60062" lon="6.65887">
        <ele>1750</ele>
        <time>2016-02-06T09:15:14Z</time>
      </trkpt>
      <trkpt lat="45.60065" lon="6.65885">
        <ele>1751</ele>
        <time>2016-02-06T09:15:17Z</time>
      </trkpt>
      <trkpt lat="45.60066" lon="6.65885">
        <ele>1751</ele>
        <time>2016-02-06T09:15:18Z</time>
      </trkpt>
      <trkpt lat="45.60067" lon="6.65886">
        <ele>1750</ele>
        <time>2016-02-06T09:15:19Z</time>
      </trkpt>
      <trkpt lat="45.60069" lon="6.65886">
        <ele>1750</ele>
        <time>2016-02-06T09:15:22Z</time>
      </trkpt>
      <trkpt lat="45.6007" lon="6.65889">
        <ele>1750</ele>
        <time>2016-02-06T09:15:24Z</time>
      </trkpt>
      <trkpt lat="45.6007" lon="6.65891">
        <ele>1750</ele>
        <time>2016-02-06T09:15:26Z</time>
      </trkpt>
      <trkpt lat="45.60072" lon="6.65892">
        <ele>1750</ele>
        <time>2016-02-06T09:15:28Z</time>
      </trkpt>
      <trkpt lat="45.60073" lon="6.65893">
        <ele>1750</ele>
        <time>2016-02-06T09:15:31Z</time>
      </trkpt>
      <trkpt lat="45.60075" lon="6.65893">
        <ele>1750</ele>
        <time>2016-02-06T09:15:33Z</time>
      </trkpt>
      <trkpt lat="45.60076" lon="6.65895">
        <ele>1749</ele>
        <time>2016-02-06T09:15:36Z</time>
      </trkpt>
      <trkpt lat="45.60078" lon="6.65896">
        <ele>1749</ele>
        <time>2016-02-06T09:15:38Z</time>
      </trkpt>
      <trkpt lat="45.60078" lon="6.65898">
        <ele>1749</ele>
        <time>2016-02-06T09:15:39Z</time>
      </trkpt>
      <trkpt lat="45.60077" lon="6.659">
        <ele>1749</ele>
        <time>2016-02-06T09:15:41Z</time>
      </trkpt>
      <trkpt lat="45.60077" lon="6.65901">
        <ele>1749</ele>
        <time>2016-02-06T09:15:43Z</time>
      </trkpt>
      <trkpt lat="45.60078" lon="6.65903">
        <ele>1748</ele>
        <time>2016-02-06T09:15:45Z</time>
      </trkpt>
      <trkpt lat="45.60079" lon="6.65905">
        <ele>1748</ele>
        <time>2016-02-06T09:15:46Z</time>
      </trkpt>
      <trkpt lat="45.6008" lon="6.65905">
        <ele>1748</ele>
        <time>2016-02-06T09:15:47Z</time>
      </trkpt>
      <trkpt lat="45.60082" lon="6.65906">
        <ele>1748</ele>
        <time>2016-02-06T09:15:49Z</time>
      </trkpt>
      <trkpt lat="45.60083" lon="6.65908">
        <ele>1752</ele>
        <time>2016-02-06T09:15:51Z</time>
      </trkpt>
      <trkpt lat="45.60085" lon="6.65909">
        <ele>1751</ele>
        <time>2016-02-06T09:15:53Z</time>
      </trkpt>
      <trkpt lat="45.60086" lon="6.65911">
        <ele>1751</ele>
        <time>2016-02-06T09:15:55Z</time>
      </trkpt>
      <trkpt lat="45.60087" lon="6.65911">
        <ele>1751</ele>
        <time>2016-02-06T09:15:56Z</time>
      </trkpt>
      <trkpt lat="45.60089" lon="6.65911">
        <ele>1752</ele>
        <time>2016-02-06T09:15:59Z</time>
      </trkpt>
      <trkpt lat="45.6009" lon="6.65912">
        <ele>1752</ele>
        <time>2016-02-06T09:16:00Z</time>
      </trkpt>
      <trkpt lat="45.60091" lon="6.65912">
        <ele>1753</ele>
        <time>2016-02-06T09:16:01Z</time>
      </trkpt>
      <trkpt lat="45.60093" lon="6.65913">
        <ele>1753</ele>
        <time>2016-02-06T09:16:03Z</time>
      </trkpt>
      <trkpt lat="45.60094" lon="6.65913">
        <ele>1754</ele>
        <time>2016-02-06T09:16:04Z</time>
      </trkpt>
      <trkpt lat="45.60096" lon="6.65914">
        <ele>1755</ele>
        <time>2016-02-06T09:16:07Z</time>
      </trkpt>
      <trkpt lat="45.60097" lon="6.65915">
        <ele>1755</ele>
        <time>2016-02-06T09:16:08Z</time>
      </trkpt>
      <trkpt lat="45.60098" lon="6.65915">
        <ele>1756</ele>
        <time>2016-02-06T09:16:09Z</time>
      </trkpt>
      <trkpt lat="45.601" lon="6.65917">
        <ele>1753</ele>
        <time>2016-02-06T09:16:13Z</time>
      </trkpt>
      <trkpt lat="45.60099" lon="6.65914">
        <ele>1756</ele>
        <time>2016-02-06T09:16:16Z</time>
      </trkpt>
      <trkpt lat="45.601" lon="6.65912">
        <ele>1757</ele>
        <time>2016-02-06T09:16:18Z</time>
      </trkpt>
      <trkpt lat="45.60099" lon="6.65911">
        <ele>1757</ele>
        <time>2016-02-06T09:16:20Z</time>
      </trkpt>
      <trkpt lat="45.60098" lon="6.65909">
        <ele>1757</ele>
        <time>2016-02-06T09:16:23Z</time>
      </trkpt>
      <trkpt lat="45.60097" lon="6.65907">
        <ele>1757</ele>
        <time>2016-02-06T09:16:25Z</time>
      </trkpt>
      <trkpt lat="45.60097" lon="6.65905">
        <ele>1757</ele>
        <time>2016-02-06T09:16:27Z</time>
      </trkpt>
      <trkpt lat="45.60098" lon="6.65903">
        <ele>1758</ele>
        <time>2016-02-06T09:16:30Z</time>
      </trkpt>
      <trkpt lat="45.60097" lon="6.65902">
        <ele>1758</ele>
        <time>2016-02-06T09:16:32Z</time>
      </trkpt>
      <trkpt lat="45.60097" lon="6.659">
        <ele>1758</ele>
        <time>2016-02-06T09:16:34Z</time>
      </trkpt>
      <trkpt lat="45.60098" lon="6.65898">
        <ele>1759</ele>
        <time>2016-02-06T09:16:35Z</time>
      </trkpt>
      <trkpt lat="45.60099" lon="6.65897">
        <ele>1760</ele>
        <time>2016-02-06T09:16:37Z</time>
      </trkpt>
      <trkpt lat="45.60098" lon="6.65894">
        <ele>1760</ele>
        <time>2016-02-06T09:16:39Z</time>
      </trkpt>
      <trkpt lat="45.60096" lon="6.65892">
        <ele>1760</ele>
        <time>2016-02-06T09:16:41Z</time>
      </trkpt>
      <trkpt lat="45.60094" lon="6.6589">
        <ele>1760</ele>
        <time>2016-02-06T09:16:42Z</time>
      </trkpt>
      <trkpt lat="45.60093" lon="6.65889">
        <ele>1760</ele>
        <time>2016-02-06T09:16:43Z</time>
      </trkpt>
      <trkpt lat="45.60093" lon="6.65887">
        <ele>1761</ele>
        <time>2016-02-06T09:16:45Z</time>
      </trkpt>
      <trkpt lat="45.60093" lon="6.65884">
        <ele>1761</ele>
        <time>2016-02-06T09:16:47Z</time>
      </trkpt>
      <trkpt lat="45.60092" lon="6.65881">
        <ele>1761</ele>
        <time>2016-02-06T09:16:49Z</time>
      </trkpt>
      <trkpt lat="45.60093" lon="6.65879">
        <ele>1762</ele>
        <time>2016-02-06T09:16:50Z</time>
      </trkpt>
      <trkpt lat="45.60093" lon="6.65876">
        <ele>1762</ele>
        <time>2016-02-06T09:16:52Z</time>
      </trkpt>
      <trkpt lat="45.60092" lon="6.65874">
        <ele>1762</ele>
        <time>2016-02-06T09:16:54Z</time>
      </trkpt>
      <trkpt lat="45.60093" lon="6.65873">
        <ele>1762</ele>
        <time>2016-02-06T09:16:55Z</time>
      </trkpt>
      <trkpt lat="45.60093" lon="6.65871">
        <ele>1763</ele>
        <time>2016-02-06T09:16:56Z</time>
      </trkpt>
      <trkpt lat="45.60092" lon="6.6587">
        <ele>1763</ele>
        <time>2016-02-06T09:16:58Z</time>
      </trkpt>
      <trkpt lat="45.60092" lon="6.65867">
        <ele>1763</ele>
        <time>2016-02-06T09:17:00Z</time>
      </trkpt>
      <trkpt lat="45.60091" lon="6.65864">
        <ele>1763</ele>
        <time>2016-02-06T09:17:02Z</time>
      </trkpt>
      <trkpt lat="45.60092" lon="6.65862">
        <ele>1763</ele>
        <time>2016-02-06T09:17:04Z</time>
      </trkpt>
      <trkpt lat="45.60093" lon="6.65861">
        <ele>1763</ele>
        <time>2016-02-06T09:17:05Z</time>
      </trkpt>
      <trkpt lat="45.60092" lon="6.65858">
        <ele>1763</ele>
        <time>2016-02-06T09:17:07Z</time>
      </trkpt>
      <trkpt lat="45.60093" lon="6.65856">
        <ele>1763</ele>
        <time>2016-02-06T09:17:09Z</time>
      </trkpt>
      <trkpt lat="45.60092" lon="6.65854">
        <ele>1763</ele>
        <time>2016-02-06T09:17:11Z</time>
      </trkpt>
      <trkpt lat="45.60092" lon="6.65853">
        <ele>1762</ele>
        <time>2016-02-06T09:17:12Z</time>
      </trkpt>
      <trkpt lat="45.60093" lon="6.65851">
        <ele>1762</ele>
        <time>2016-02-06T09:17:14Z</time>
      </trkpt>
      <trkpt lat="45.60094" lon="6.65849">
        <ele>1763</ele>
        <time>2016-02-06T09:17:16Z</time>
      </trkpt>
      <trkpt lat="45.60094" lon="6.65847">
        <ele>1762</ele>
        <time>2016-02-06T09:17:17Z</time>
      </trkpt>
      <trkpt lat="45.60094" lon="6.65845">
        <ele>1762</ele>
        <time>2016-02-06T09:17:19Z</time>
      </trkpt>
      <trkpt lat="45.60094" lon="6.65842">
        <ele>1762</ele>
        <time>2016-02-06T09:17:21Z</time>
      </trkpt>
      <trkpt lat="45.60095" lon="6.65841">
        <ele>1762</ele>
        <time>2016-02-06T09:17:23Z</time>
      </trkpt>
      <trkpt lat="45.60094" lon="6.65838">
        <ele>1762</ele>
        <time>2016-02-06T09:17:26Z</time>
      </trkpt>
      <trkpt lat="45.60094" lon="6.65836">
        <ele>1761</ele>
        <time>2016-02-06T09:17:28Z</time>
      </trkpt>
      <trkpt lat="45.60094" lon="6.65834">
        <ele>1761</ele>
        <time>2016-02-06T09:17:30Z</time>
      </trkpt>
      <trkpt lat="45.60094" lon="6.65832">
        <ele>1764</ele>
        <time>2016-02-06T09:17:32Z</time>
      </trkpt>
      <trkpt lat="45.60093" lon="6.6583">
        <ele>1764</ele>
        <time>2016-02-06T09:17:34Z</time>
      </trkpt>
      <trkpt lat="45.60092" lon="6.65828">
        <ele>1764</ele>
        <time>2016-02-06T09:17:36Z</time>
      </trkpt>
      <trkpt lat="45.60091" lon="6.65825">
        <ele>1765</ele>
        <time>2016-02-06T09:17:38Z</time>
      </trkpt>
      <trkpt lat="45.60091" lon="6.65823">
        <ele>1765</ele>
        <time>2016-02-06T09:17:41Z</time>
      </trkpt>
      <trkpt lat="45.60092" lon="6.65822">
        <ele>1766</ele>
        <time>2016-02-06T09:17:43Z</time>
      </trkpt>
      <trkpt lat="45.60093" lon="6.6582">
        <ele>1767</ele>
        <time>2016-02-06T09:17:45Z</time>
      </trkpt>
      <trkpt lat="45.60093" lon="6.65817">
        <ele>1767</ele>
        <time>2016-02-06T09:17:47Z</time>
      </trkpt>
      <trkpt lat="45.60093" lon="6.65815">
        <ele>1768</ele>
        <time>2016-02-06T09:17:49Z</time>
      </trkpt>
      <trkpt lat="45.60094" lon="6.65813">
        <ele>1769</ele>
        <time>2016-02-06T09:17:51Z</time>
      </trkpt>
      <trkpt lat="45.60094" lon="6.65811">
        <ele>1769</ele>
        <time>2016-02-06T09:17:54Z</time>
      </trkpt>
      <trkpt lat="45.60093" lon="6.65809">
        <ele>1769</ele>
        <time>2016-02-06T09:17:56Z</time>
      </trkpt>
      <trkpt lat="45.60094" lon="6.65807">
        <ele>1770</ele>
        <time>2016-02-06T09:17:59Z</time>
      </trkpt>
      <trkpt lat="45.60093" lon="6.65806">
        <ele>1770</ele>
        <time>2016-02-06T09:18:01Z</time>
      </trkpt>
      <trkpt lat="45.60093" lon="6.65804">
        <ele>1770</ele>
        <time>2016-02-06T09:18:03Z</time>
      </trkpt>
      <trkpt lat="45.60092" lon="6.65802">
        <ele>1771</ele>
        <time>2016-02-06T09:18:05Z</time>
      </trkpt>
      <trkpt lat="45.60093" lon="6.658">
        <ele>1771</ele>
        <time>2016-02-06T09:18:07Z</time>
      </trkpt>
      <trkpt lat="45.60092" lon="6.65799">
        <ele>1771</ele>
        <time>2016-02-06T09:18:08Z</time>
      </trkpt>
      <trkpt lat="45.60093" lon="6.65797">
        <ele>1771</ele>
        <time>2016-02-06T09:18:10Z</time>
      </trkpt>
      <trkpt lat="45.60093" lon="6.65795">
        <ele>1772</ele>
        <time>2016-02-06T09:18:13Z</time>
      </trkpt>
      <trkpt lat="45.60093" lon="6.65794">
        <ele>1772</ele>
        <time>2016-02-06T09:18:15Z</time>
      </trkpt>
      <trkpt lat="45.60093" lon="6.65792">
        <ele>1772</ele>
        <time>2016-02-06T09:18:17Z</time>
      </trkpt>
      <trkpt lat="45.60093" lon="6.6579">
        <ele>1772</ele>
        <time>2016-02-06T09:18:19Z</time>
      </trkpt>
      <trkpt lat="45.60092" lon="6.65788">
        <ele>1772</ele>
        <time>2016-02-06T09:18:21Z</time>
      </trkpt>
      <trkpt lat="45.60093" lon="6.65785">
        <ele>1772</ele>
        <time>2016-02-06T09:18:23Z</time>
      </trkpt>
      <trkpt lat="45.60093" lon="6.65783">
        <ele>1772</ele>
        <time>2016-02-06T09:18:25Z</time>
      </trkpt>
      <trkpt lat="45.60093" lon="6.65782">
        <ele>1773</ele>
        <time>2016-02-06T09:18:26Z</time>
      </trkpt>
      <trkpt lat="45.60093" lon="6.6578">
        <ele>1773</ele>
        <time>2016-02-06T09:18:27Z</time>
      </trkpt>
      <trkpt lat="45.60093" lon="6.65778">
        <ele>1773</ele>
        <time>2016-02-06T09:18:29Z</time>
      </trkpt>
      <trkpt lat="45.60094" lon="6.65776">
        <ele>1773</ele>
        <time>2016-02-06T09:18:31Z</time>
      </trkpt>
      <trkpt lat="45.60094" lon="6.65774">
        <ele>1773</ele>
        <time>2016-02-06T09:18:34Z</time>
      </trkpt>
      <trkpt lat="45.60092" lon="6.65772">
        <ele>1772</ele>
        <time>2016-02-06T09:18:36Z</time>
      </trkpt>
      <trkpt lat="45.60091" lon="6.65771">
        <ele>1772</ele>
        <time>2016-02-06T09:18:38Z</time>
      </trkpt>
      <trkpt lat="45.60091" lon="6.65768">
        <ele>1772</ele>
        <time>2016-02-06T09:18:40Z</time>
      </trkpt>
      <trkpt lat="45.60091" lon="6.65767">
        <ele>1772</ele>
        <time>2016-02-06T09:18:41Z</time>
      </trkpt>
      <trkpt lat="45.60091" lon="6.65765">
        <ele>1772</ele>
        <time>2016-02-06T09:18:42Z</time>
      </trkpt>
      <trkpt lat="45.60091" lon="6.65763">
        <ele>1772</ele>
        <time>2016-02-06T09:18:44Z</time>
      </trkpt>
      <trkpt lat="45.60091" lon="6.65761">
        <ele>1772</ele>
        <time>2016-02-06T09:18:46Z</time>
      </trkpt>
      <trkpt lat="45.60091" lon="6.65759">
        <ele>1772</ele>
        <time>2016-02-06T09:18:47Z</time>
      </trkpt>
      <trkpt lat="45.6009" lon="6.65757">
        <ele>1771</ele>
        <time>2016-02-06T09:18:51Z</time>
      </trkpt>
      <trkpt lat="45.60091" lon="6.65754">
        <ele>1771</ele>
        <time>2016-02-06T09:18:53Z</time>
      </trkpt>
      <trkpt lat="45.60091" lon="6.65751">
        <ele>1771</ele>
        <time>2016-02-06T09:18:55Z</time>
      </trkpt>
      <trkpt lat="45.60092" lon="6.65748">
        <ele>1774</ele>
        <time>2016-02-06T09:18:57Z</time>
      </trkpt>
      <trkpt lat="45.60094" lon="6.65746">
        <ele>1775</ele>
        <time>2016-02-06T09:18:59Z</time>
      </trkpt>
      <trkpt lat="45.60096" lon="6.65745">
        <ele>1776</ele>
        <time>2016-02-06T09:19:02Z</time>
      </trkpt>
      <trkpt lat="45.60097" lon="6.65746">
        <ele>1777</ele>
        <time>2016-02-06T09:19:04Z</time>
      </trkpt>
      <trkpt lat="45.60099" lon="6.65746">
        <ele>1777</ele>
        <time>2016-02-06T09:19:06Z</time>
      </trkpt>
      <trkpt lat="45.60101" lon="6.65747">
        <ele>1778</ele>
        <time>2016-02-06T09:19:08Z</time>
      </trkpt>
      <trkpt lat="45.60102" lon="6.65748">
        <ele>1778</ele>
        <time>2016-02-06T09:19:09Z</time>
      </trkpt>
      <trkpt lat="45.60102" lon="6.65749">
        <ele>1778</ele>
        <time>2016-02-06T09:19:11Z</time>
      </trkpt>
      <trkpt lat="45.60103" lon="6.65751">
        <ele>1773</ele>
        <time>2016-02-06T09:19:13Z</time>
      </trkpt>
      <trkpt lat="45.60105" lon="6.65752">
        <ele>1774</ele>
        <time>2016-02-06T09:19:15Z</time>
      </trkpt>
      <trkpt lat="45.60106" lon="6.65752">
        <ele>1774</ele>
        <time>2016-02-06T09:19:17Z</time>
      </trkpt>
      <trkpt lat="45.60105" lon="6.65754">
        <ele>1774</ele>
        <time>2016-02-06T09:19:21Z</time>
      </trkpt>
      <trkpt lat="45.60104" lon="6.65755">
        <ele>1774</ele>
        <time>2016-02-06T09:19:22Z</time>
      </trkpt>
      <trkpt lat="45.60102" lon="6.65756">
        <ele>1773</ele>
        <time>2016-02-06T09:19:24Z</time>
      </trkpt>
      <trkpt lat="45.601" lon="6.65757">
        <ele>1773</ele>
        <time>2016-02-06T09:19:26Z</time>
      </trkpt>
      <trkpt lat="45.60101" lon="6.65759">
        <ele>1773</ele>
        <time>2016-02-06T09:19:30Z</time>
      </trkpt>
      <trkpt lat="45.60102" lon="6.65761">
        <ele>1773</ele>
        <time>2016-02-06T09:19:33Z</time>
      </trkpt>
      <trkpt lat="45.60104" lon="6.65761">
        <ele>1774</ele>
        <time>2016-02-06T09:19:34Z</time>
      </trkpt>
      <trkpt lat="45.60105" lon="6.65761">
        <ele>1774</ele>
        <time>2016-02-06T09:19:36Z</time>
      </trkpt>
      <trkpt lat="45.60105" lon="6.6576">
        <ele>1774</ele>
        <time>2016-02-06T09:19:39Z</time>
      </trkpt>
      <trkpt lat="45.60107" lon="6.6576">
        <ele>1774</ele>
        <time>2016-02-06T09:19:41Z</time>
      </trkpt>
      <trkpt lat="45.60108" lon="6.6576">
        <ele>1774</ele>
        <time>2016-02-06T09:19:42Z</time>
      </trkpt>
      <trkpt lat="45.60109" lon="6.65762">
        <ele>1774</ele>
        <time>2016-02-06T09:19:48Z</time>
      </trkpt>
      <trkpt lat="45.6011" lon="6.65763">
        <ele>1775</ele>
        <time>2016-02-06T09:19:52Z</time>
      </trkpt>
      <trkpt lat="45.60108" lon="6.65764">
        <ele>1774</ele>
        <time>2016-02-06T09:19:53Z</time>
      </trkpt>
      <trkpt lat="45.6011" lon="6.65763">
        <ele>1775</ele>
        <time>2016-02-06T09:19:59Z</time>
      </trkpt>
      <trkpt lat="45.60112" lon="6.65763">
        <ele>1775</ele>
        <time>2016-02-06T09:20:00Z</time>
      </trkpt>
      <trkpt lat="45.60113" lon="6.65763">
        <ele>1775</ele>
        <time>2016-02-06T09:20:04Z</time>
      </trkpt>
      <trkpt lat="45.60115" lon="6.65762">
        <ele>1775</ele>
        <time>2016-02-06T09:20:05Z</time>
      </trkpt>
      <trkpt lat="45.60117" lon="6.65762">
        <ele>1776</ele>
        <time>2016-02-06T09:20:06Z</time>
      </trkpt>
      <trkpt lat="45.6012" lon="6.65762">
        <ele>1776</ele>
        <time>2016-02-06T09:20:08Z</time>
      </trkpt>
      <trkpt lat="45.60119" lon="6.65763">
        <ele>1776</ele>
        <time>2016-02-06T09:20:12Z</time>
      </trkpt>
      <trkpt lat="45.60118" lon="6.65765">
        <ele>1776</ele>
        <time>2016-02-06T09:20:15Z</time>
      </trkpt>
      <trkpt lat="45.60119" lon="6.65765">
        <ele>1776</ele>
        <time>2016-02-06T09:20:23Z</time>
      </trkpt>
      <trkpt lat="45.60118" lon="6.65766">
        <ele>1776</ele>
        <time>2016-02-06T09:20:25Z</time>
      </trkpt>
      <trkpt lat="45.60115" lon="6.65766">
        <ele>1775</ele>
        <time>2016-02-06T09:20:27Z</time>
      </trkpt>
      <trkpt lat="45.60114" lon="6.65767">
        <ele>1775</ele>
        <time>2016-02-06T09:20:30Z</time>
      </trkpt>
      <trkpt lat="45.60112" lon="6.65767">
        <ele>1775</ele>
        <time>2016-02-06T09:20:31Z</time>
      </trkpt>
      <trkpt lat="45.60111" lon="6.65767">
        <ele>1775</ele>
        <time>2016-02-06T09:20:33Z</time>
      </trkpt>
      <trkpt lat="45.60113" lon="6.65766">
        <ele>1775</ele>
        <time>2016-02-06T09:20:38Z</time>
      </trkpt>
      <trkpt lat="45.60116" lon="6.65765">
        <ele>1776</ele>
        <time>2016-02-06T09:20:42Z</time>
      </trkpt>
      <trkpt lat="45.60118" lon="6.65764">
        <ele>1776</ele>
        <time>2016-02-06T09:20:43Z</time>
      </trkpt>
      <trkpt lat="45.60119" lon="6.65765">
        <ele>1776</ele>
        <time>2016-02-06T09:20:49Z</time>
      </trkpt>
      <trkpt lat="45.60118" lon="6.65766">
        <ele>1776</ele>
        <time>2016-02-06T09:20:51Z</time>
      </trkpt>
      <trkpt lat="45.60118" lon="6.65767">
        <ele>1776</ele>
        <time>2016-02-06T09:20:53Z</time>
      </trkpt>
      <trkpt lat="45.60118" lon="6.65769">
        <ele>1776</ele>
        <time>2016-02-06T09:20:55Z</time>
      </trkpt>
      <trkpt lat="45.6012" lon="6.65769">
        <ele>1776</ele>
        <time>2016-02-06T09:20:58Z</time>
      </trkpt>
      <trkpt lat="45.60118" lon="6.65768">
        <ele>1776</ele>
        <time>2016-02-06T09:21:02Z</time>
      </trkpt>
      <trkpt lat="45.60117" lon="6.65768">
        <ele>1776</ele>
        <time>2016-02-06T09:21:05Z</time>
      </trkpt>
      <trkpt lat="45.60117" lon="6.65766">
        <ele>1776</ele>
        <time>2016-02-06T09:21:07Z</time>
      </trkpt>
      <trkpt lat="45.60116" lon="6.65765">
        <ele>1776</ele>
        <time>2016-02-06T09:21:10Z</time>
      </trkpt>
      <trkpt lat="45.60115" lon="6.65763">
        <ele>1776</ele>
        <time>2016-02-06T09:21:12Z</time>
      </trkpt>
      <trkpt lat="45.60116" lon="6.65761">
        <ele>1776</ele>
        <time>2016-02-06T09:21:14Z</time>
      </trkpt>
      <trkpt lat="45.60118" lon="6.65759">
        <ele>1776</ele>
        <time>2016-02-06T09:21:16Z</time>
      </trkpt>
      <trkpt lat="45.60119" lon="6.65756">
        <ele>1776</ele>
        <time>2016-02-06T09:21:18Z</time>
      </trkpt>
      <trkpt lat="45.6012" lon="6.65754">
        <ele>1777</ele>
        <time>2016-02-06T09:21:20Z</time>
      </trkpt>
      <trkpt lat="45.6012" lon="6.65752">
        <ele>1777</ele>
        <time>2016-02-06T09:21:21Z</time>
      </trkpt>
      <trkpt lat="45.60121" lon="6.6575">
        <ele>1783</ele>
        <time>2016-02-06T09:21:24Z</time>
      </trkpt>
      <trkpt lat="45.60122" lon="6.65748">
        <ele>1783</ele>
        <time>2016-02-06T09:21:26Z</time>
      </trkpt>
      <trkpt lat="45.60122" lon="6.65746">
        <ele>1783</ele>
        <time>2016-02-06T09:21:28Z</time>
      </trkpt>
      <trkpt lat="45.60124" lon="6.65745">
        <ele>1784</ele>
        <time>2016-02-06T09:21:30Z</time>
      </trkpt>
      <trkpt lat="45.60125" lon="6.65743">
        <ele>1784</ele>
        <time>2016-02-06T09:21:32Z</time>
      </trkpt>
      <trkpt lat="45.60125" lon="6.65741">
        <ele>1784</ele>
        <time>2016-02-06T09:21:34Z</time>
      </trkpt>
      <trkpt lat="45.60126" lon="6.6574">
        <ele>1784</ele>
        <time>2016-02-06T09:21:35Z</time>
      </trkpt>
      <trkpt lat="45.60127" lon="6.65738">
        <ele>1784</ele>
        <time>2016-02-06T09:21:38Z</time>
      </trkpt>
      <trkpt lat="45.60128" lon="6.65736">
        <ele>1785</ele>
        <time>2016-02-06T09:21:41Z</time>
      </trkpt>
      <trkpt lat="45.60129" lon="6.65736">
        <ele>1785</ele>
        <time>2016-02-06T09:21:43Z</time>
      </trkpt>
      <trkpt lat="45.60131" lon="6.65734">
        <ele>1785</ele>
        <time>2016-02-06T09:21:45Z</time>
      </trkpt>
      <trkpt lat="45.60132" lon="6.65734">
        <ele>1785</ele>
        <time>2016-02-06T09:21:48Z</time>
      </trkpt>
      <trkpt lat="45.60133" lon="6.65732">
        <ele>1786</ele>
        <time>2016-02-06T09:21:50Z</time>
      </trkpt>
      <trkpt lat="45.60134" lon="6.6573">
        <ele>1786</ele>
        <time>2016-02-06T09:21:52Z</time>
      </trkpt>
      <trkpt lat="45.60134" lon="6.65729">
        <ele>1786</ele>
        <time>2016-02-06T09:21:53Z</time>
      </trkpt>
      <trkpt lat="45.60133" lon="6.65726">
        <ele>1786</ele>
        <time>2016-02-06T09:21:55Z</time>
      </trkpt>
      <trkpt lat="45.60131" lon="6.65726">
        <ele>1786</ele>
        <time>2016-02-06T09:21:57Z</time>
      </trkpt>
      <trkpt lat="45.60133" lon="6.65724">
        <ele>1786</ele>
        <time>2016-02-06T09:22:01Z</time>
      </trkpt>
      <trkpt lat="45.60133" lon="6.65723">
        <ele>1786</ele>
        <time>2016-02-06T09:22:04Z</time>
      </trkpt>
      <trkpt lat="45.60134" lon="6.6572">
        <ele>1786</ele>
        <time>2016-02-06T09:22:06Z</time>
      </trkpt>
      <trkpt lat="45.60135" lon="6.65719">
        <ele>1786</ele>
        <time>2016-02-06T09:22:09Z</time>
      </trkpt>
      <trkpt lat="45.60136" lon="6.65718">
        <ele>1786</ele>
        <time>2016-02-06T09:22:10Z</time>
      </trkpt>
      <trkpt lat="45.60138" lon="6.65717">
        <ele>1787</ele>
        <time>2016-02-06T09:22:15Z</time>
      </trkpt>
      <trkpt lat="45.6014" lon="6.65716">
        <ele>1787</ele>
        <time>2016-02-06T09:22:18Z</time>
      </trkpt>
      <trkpt lat="45.60141" lon="6.65714">
        <ele>1787</ele>
        <time>2016-02-06T09:22:20Z</time>
      </trkpt>
      <trkpt lat="45.60143" lon="6.65714">
        <ele>1787</ele>
        <time>2016-02-06T09:22:21Z</time>
      </trkpt>
      <trkpt lat="45.60145" lon="6.65713">
        <ele>1787</ele>
        <time>2016-02-06T09:22:22Z</time>
      </trkpt>
      <trkpt lat="45.60146" lon="6.65712">
        <ele>1788</ele>
        <time>2016-02-06T09:22:24Z</time>
      </trkpt>
      <trkpt lat="45.60147" lon="6.6571">
        <ele>1788</ele>
        <time>2016-02-06T09:22:26Z</time>
      </trkpt>
      <trkpt lat="45.60146" lon="6.65708">
        <ele>1788</ele>
        <time>2016-02-06T09:22:33Z</time>
      </trkpt>
      <trkpt lat="45.60146" lon="6.65706">
        <ele>1788</ele>
        <time>2016-02-06T09:22:36Z</time>
      </trkpt>
      <trkpt lat="45.60146" lon="6.65705">
        <ele>1788</ele>
        <time>2016-02-06T09:22:38Z</time>
      </trkpt>
      <trkpt lat="45.60147" lon="6.65705">
        <ele>1788</ele>
        <time>2016-02-06T09:22:42Z</time>
      </trkpt>
      <trkpt lat="45.60148" lon="6.65703">
        <ele>1788</ele>
        <time>2016-02-06T09:22:45Z</time>
      </trkpt>
      <trkpt lat="45.60149" lon="6.65701">
        <ele>1788</ele>
        <time>2016-02-06T09:22:48Z</time>
      </trkpt>
      <trkpt lat="45.6015" lon="6.65699">
        <ele>1789</ele>
        <time>2016-02-06T09:22:51Z</time>
      </trkpt>
      <trkpt lat="45.60152" lon="6.65698">
        <ele>1789</ele>
        <time>2016-02-06T09:22:54Z</time>
      </trkpt>
      <trkpt lat="45.60153" lon="6.65697">
        <ele>1789</ele>
        <time>2016-02-06T09:22:56Z</time>
      </trkpt>
      <trkpt lat="45.60154" lon="6.65696">
        <ele>1789</ele>
        <time>2016-02-06T09:22:58Z</time>
      </trkpt>
      <trkpt lat="45.60156" lon="6.65694">
        <ele>1789</ele>
        <time>2016-02-06T09:23:01Z</time>
      </trkpt>
      <trkpt lat="45.60158" lon="6.65693">
        <ele>1790</ele>
        <time>2016-02-06T09:23:04Z</time>
      </trkpt>
      <trkpt lat="45.60159" lon="6.65692">
        <ele>1790</ele>
        <time>2016-02-06T09:23:05Z</time>
      </trkpt>
      <trkpt lat="45.60161" lon="6.65694">
        <ele>1790</ele>
        <time>2016-02-06T09:23:06Z</time>
      </trkpt>
      <trkpt lat="45.60163" lon="6.65695">
        <ele>1790</ele>
        <time>2016-02-06T09:23:07Z</time>
      </trkpt>
      <trkpt lat="45.60164" lon="6.65696">
        <ele>1790</ele>
        <time>2016-02-06T09:23:09Z</time>
      </trkpt>
      <trkpt lat="45.60164" lon="6.65698">
        <ele>1789</ele>
        <time>2016-02-06T09:23:13Z</time>
      </trkpt>
      <trkpt lat="45.60164" lon="6.657">
        <ele>1789</ele>
        <time>2016-02-06T09:23:15Z</time>
      </trkpt>
      <trkpt lat="45.60164" lon="6.65702">
        <ele>1789</ele>
        <time>2016-02-06T09:23:17Z</time>
      </trkpt>
      <trkpt lat="45.60164" lon="6.65703">
        <ele>1789</ele>
        <time>2016-02-06T09:23:19Z</time>
      </trkpt>
      <trkpt lat="45.60163" lon="6.65704">
        <ele>1789</ele>
        <time>2016-02-06T09:23:22Z</time>
      </trkpt>
      <trkpt lat="45.60162" lon="6.65706">
        <ele>1789</ele>
        <time>2016-02-06T09:23:24Z</time>
      </trkpt>
      <trkpt lat="45.60163" lon="6.65708">
        <ele>1789</ele>
        <time>2016-02-06T09:23:27Z</time>
      </trkpt>
      <trkpt lat="45.60163" lon="6.6571">
        <ele>1789</ele>
        <time>2016-02-06T09:23:30Z</time>
      </trkpt>
      <trkpt lat="45.60164" lon="6.65712">
        <ele>1789</ele>
        <time>2016-02-06T09:23:32Z</time>
      </trkpt>
      <trkpt lat="45.60162" lon="6.65714">
        <ele>1789</ele>
        <time>2016-02-06T09:23:35Z</time>
      </trkpt>
      <trkpt lat="45.6016" lon="6.65715">
        <ele>1788</ele>
        <time>2016-02-06T09:23:38Z</time>
      </trkpt>
      <trkpt lat="45.60162" lon="6.65716">
        <ele>1788</ele>
        <time>2016-02-06T09:23:42Z</time>
      </trkpt>
      <trkpt lat="45.60163" lon="6.65716">
        <ele>1789</ele>
        <time>2016-02-06T09:23:44Z</time>
      </trkpt>
      <trkpt lat="45.60164" lon="6.65716">
        <ele>1789</ele>
        <time>2016-02-06T09:23:46Z</time>
      </trkpt>
      <trkpt lat="45.60161" lon="6.65717">
        <ele>1788</ele>
        <time>2016-02-06T09:23:56Z</time>
      </trkpt>
      <trkpt lat="45.6016" lon="6.65717">
        <ele>1788</ele>
        <time>2016-02-06T09:23:58Z</time>
      </trkpt>
      <trkpt lat="45.60162" lon="6.65716">
        <ele>1788</ele>
        <time>2016-02-06T09:24:00Z</time>
      </trkpt>
      <trkpt lat="45.60163" lon="6.65716">
        <ele>1789</ele>
        <time>2016-02-06T09:24:01Z</time>
      </trkpt>
      <trkpt lat="45.60164" lon="6.65718">
        <ele>1789</ele>
        <time>2016-02-06T09:24:06Z</time>
      </trkpt>
      <trkpt lat="45.60164" lon="6.65719">
        <ele>1789</ele>
        <time>2016-02-06T09:24:08Z</time>
      </trkpt>
      <trkpt lat="45.60163" lon="6.65719">
        <ele>1788</ele>
        <time>2016-02-06T09:24:09Z</time>
      </trkpt>
      <trkpt lat="45.60164" lon="6.65719">
        <ele>1789</ele>
        <time>2016-02-06T09:24:15Z</time>
      </trkpt>
      <trkpt lat="45.60165" lon="6.65719">
        <ele>1789</ele>
        <time>2016-02-06T09:24:17Z</time>
      </trkpt>
      <trkpt lat="45.60167" lon="6.65721">
        <ele>1805</ele>
        <time>2016-02-06T09:24:19Z</time>
      </trkpt>
      <trkpt lat="45.60169" lon="6.65722">
        <ele>1805</ele>
        <time>2016-02-06T09:24:20Z</time>
      </trkpt>
      <trkpt lat="45.6017" lon="6.65724">
        <ele>1805</ele>
        <time>2016-02-06T09:24:25Z</time>
      </trkpt>
      <trkpt lat="45.60171" lon="6.65724">
        <ele>1805</ele>
        <time>2016-02-06T09:24:27Z</time>
      </trkpt>
      <trkpt lat="45.60173" lon="6.65726">
        <ele>1805</ele>
        <time>2016-02-06T09:24:30Z</time>
      </trkpt>
      <trkpt lat="45.60173" lon="6.65728">
        <ele>1804</ele>
        <time>2016-02-06T09:24:33Z</time>
      </trkpt>
      <trkpt lat="45.60175" lon="6.65728">
        <ele>1804</ele>
        <time>2016-02-06T09:24:34Z</time>
      </trkpt>
      <trkpt lat="45.60176" lon="6.65729">
        <ele>1804</ele>
        <time>2016-02-06T09:24:38Z</time>
      </trkpt>
      <trkpt lat="45.60178" lon="6.6573">
        <ele>1804</ele>
        <time>2016-02-06T09:24:40Z</time>
      </trkpt>
      <trkpt lat="45.60178" lon="6.65729">
        <ele>1805</ele>
        <time>2016-02-06T09:24:47Z</time>
      </trkpt>
      <trkpt lat="45.60177" lon="6.65727">
        <ele>1805</ele>
        <time>2016-02-06T09:24:51Z</time>
      </trkpt>
      <trkpt lat="45.60175" lon="6.65726">
        <ele>1805</ele>
        <time>2016-02-06T09:24:52Z</time>
      </trkpt>
      <trkpt lat="45.60173" lon="6.65725">
        <ele>1805</ele>
        <time>2016-02-06T09:24:53Z</time>
      </trkpt>
      <trkpt lat="45.60172" lon="6.65724">
        <ele>1805</ele>
        <time>2016-02-06T09:24:54Z</time>
      </trkpt>
      <trkpt lat="45.60171" lon="6.65727">
        <ele>1804</ele>
        <time>2016-02-06T09:24:57Z</time>
      </trkpt>
      <trkpt lat="45.60171" lon="6.65728">
        <ele>1804</ele>
        <time>2016-02-06T09:25:00Z</time>
      </trkpt>
      <trkpt lat="45.6017" lon="6.65728">
        <ele>1804</ele>
        <time>2016-02-06T09:25:04Z</time>
      </trkpt>
      <trkpt lat="45.60167" lon="6.65728">
        <ele>1803</ele>
        <time>2016-02-06T09:25:05Z</time>
      </trkpt>
      <trkpt lat="45.60169" lon="6.65729">
        <ele>1803</ele>
        <time>2016-02-06T09:25:09Z</time>
      </trkpt>
      <trkpt lat="45.60171" lon="6.65731">
        <ele>1803</ele>
        <time>2016-02-06T09:25:11Z</time>
      </trkpt>
      <trkpt lat="45.60173" lon="6.65733">
        <ele>1803</ele>
        <time>2016-02-06T09:25:13Z</time>
      </trkpt>
      <trkpt lat="45.60175" lon="6.65733">
        <ele>1803</ele>
        <time>2016-02-06T09:25:14Z</time>
      </trkpt>
      <trkpt lat="45.60175" lon="6.6573">
        <ele>1804</ele>
        <time>2016-02-06T09:25:17Z</time>
      </trkpt>
      <trkpt lat="45.60174" lon="6.6573">
        <ele>1804</ele>
        <time>2016-02-06T09:25:20Z</time>
      </trkpt>
      <trkpt lat="45.60173" lon="6.65732">
        <ele>1803</ele>
        <time>2016-02-06T09:25:26Z</time>
      </trkpt>
      <trkpt lat="45.6017" lon="6.65734">
        <ele>1802</ele>
        <time>2016-02-06T09:25:29Z</time>
      </trkpt>
      <trkpt lat="45.6017" lon="6.65735">
        <ele>1801</ele>
        <time>2016-02-06T09:25:34Z</time>
      </trkpt>
      <trkpt lat="45.60172" lon="6.65737">
        <ele>1801</ele>
        <time>2016-02-06T09:25:41Z</time>
      </trkpt>
      <trkpt lat="45.6017" lon="6.65736">
        <ele>1801</ele>
        <time>2016-02-06T09:26:00Z</time>
      </trkpt>
      <trkpt lat="45.60169" lon="6.65735">
        <ele>1801</ele>
        <time>2016-02-06T09:26:11Z</time>
      </trkpt>
      <trkpt lat="45.6017" lon="6.65735">
        <ele>1801</ele>
        <time>2016-02-06T09:27:10Z</time>
      </trkpt>
      <trkpt lat="45.60172" lon="6.65736">
        <ele>1801</ele>
        <time>2016-02-06T09:27:27Z</time>
      </trkpt>
      <trkpt lat="45.60173" lon="6.65735">
        <ele>1802</ele>
        <time>2016-02-06T09:27:37Z</time>
      </trkpt>
      <trkpt lat="45.60174" lon="6.65735">
        <ele>1802</ele>
        <time>2016-02-06T09:27:39Z</time>
      </trkpt>
      <trkpt lat="45.60175" lon="6.65735">
        <ele>1802</ele>
        <time>2016-02-06T09:27:42Z</time>
      </trkpt>
      <trkpt lat="45.60176" lon="6.65734">
        <ele>1803</ele>
        <time>2016-02-06T09:27:46Z</time>
      </trkpt>
      <trkpt lat="45.60178" lon="6.65733">
        <ele>1804</ele>
        <time>2016-02-06T09:28:42Z</time>
      </trkpt>
      <trkpt lat="45.60179" lon="6.65733">
        <ele>1804</ele>
        <time>2016-02-06T09:28:59Z</time>
      </trkpt>
      <trkpt lat="45.60178" lon="6.65731">
        <ele>1804</ele>
        <time>2016-02-06T09:29:08Z</time>
      </trkpt>
      <trkpt lat="45.60178" lon="6.6573">
        <ele>1804</ele>
        <time>2016-02-06T09:29:12Z</time>
      </trkpt>
      <trkpt lat="45.60176" lon="6.6573">
        <ele>1804</ele>
        <time>2016-02-06T09:29:18Z</time>
      </trkpt>
      <trkpt lat="45.60176" lon="6.65731">
        <ele>1804</ele>
        <time>2016-02-06T09:29:29Z</time>
      </trkpt>
      <trkpt lat="45.60177" lon="6.65732">
        <ele>1804</ele>
        <time>2016-02-06T09:31:19Z</time>
      </trkpt>
      <trkpt lat="45.60177" lon="6.6573">
        <ele>1804</ele>
        <time>2016-02-06T09:31:55Z</time>
      </trkpt>
      <trkpt lat="45.60176" lon="6.65729">
        <ele>1804</ele>
        <time>2016-02-06T09:32:05Z</time>
      </trkpt>
      <trkpt lat="45.60178" lon="6.6573">
        <ele>1804</ele>
        <time>2016-02-06T09:32:49Z</time>
      </trkpt>
      <trkpt lat="45.60179" lon="6.6573">
        <ele>1805</ele>
        <time>2016-02-06T09:34:40Z</time>
      </trkpt>
      <trkpt lat="45.6018" lon="6.65729">
        <ele>1805</ele>
        <time>2016-02-06T09:34:44Z</time>
      </trkpt>
      <trkpt lat="45.60181" lon="6.65728">
        <ele>1806</ele>
        <time>2016-02-06T09:34:48Z</time>
      </trkpt>
      <trkpt lat="45.60182" lon="6.65727">
        <ele>1806</ele>
        <time>2016-02-06T09:35:08Z</time>
      </trkpt>
      <trkpt lat="45.60181" lon="6.65729">
        <ele>1806</ele>
        <time>2016-02-06T09:35:59Z</time>
      </trkpt>
      <trkpt lat="45.6018" lon="6.65729">
        <ele>1805</ele>
        <time>2016-02-06T09:36:19Z</time>
      </trkpt>
      <trkpt lat="45.60179" lon="6.6573">
        <ele>1805</ele>
        <time>2016-02-06T09:36:43Z</time>
      </trkpt>
      <trkpt lat="45.60178" lon="6.65731">
        <ele>1804</ele>
        <time>2016-02-06T09:37:56Z</time>
      </trkpt>
      <trkpt lat="45.60179" lon="6.65733">
        <ele>1804</ele>
        <time>2016-02-06T09:38:24Z</time>
      </trkpt>
      <trkpt lat="45.60179" lon="6.65734">
        <ele>1804</ele>
        <time>2016-02-06T09:38:58Z</time>
      </trkpt>
      <trkpt lat="45.60178" lon="6.65733">
        <ele>1804</ele>
        <time>2016-02-06T09:41:24Z</time>
      </trkpt>
      <trkpt lat="45.60177" lon="6.65732">
        <ele>1804</ele>
        <time>2016-02-06T09:41:59Z</time>
      </trkpt>
      <trkpt lat="45.60176" lon="6.6573">
        <ele>1804</ele>
        <time>2016-02-06T09:42:01Z</time>
      </trkpt>
      <trkpt lat="45.60175" lon="6.65729">
        <ele>1804</ele>
        <time>2016-02-06T09:42:03Z</time>
      </trkpt>
      <trkpt lat="45.60175" lon="6.65728">
        <ele>1805</ele>
        <time>2016-02-06T09:42:04Z</time>
      </trkpt>
      <trkpt lat="45.60177" lon="6.65728">
        <ele>1805</ele>
        <time>2016-02-06T09:42:07Z</time>
      </trkpt>
      <trkpt lat="45.60179" lon="6.65728">
        <ele>1805</ele>
        <time>2016-02-06T09:42:13Z</time>
      </trkpt>
      <trkpt lat="45.60177" lon="6.65729">
        <ele>1805</ele>
        <time>2016-02-06T09:42:15Z</time>
      </trkpt>
      <trkpt lat="45.60175" lon="6.6573">
        <ele>1804</ele>
        <time>2016-02-06T09:42:19Z</time>
      </trkpt>
      <trkpt lat="45.60173" lon="6.6573">
        <ele>1803</ele>
        <time>2016-02-06T09:42:20Z</time>
      </trkpt>
      <trkpt lat="45.60171" lon="6.65732">
        <ele>1803</ele>
        <time>2016-02-06T09:42:21Z</time>
      </trkpt>
      <trkpt lat="45.60169" lon="6.65733">
        <ele>1802</ele>
        <time>2016-02-06T09:42:22Z</time>
      </trkpt>
      <trkpt lat="45.60168" lon="6.65734">
        <ele>1801</ele>
        <time>2016-02-06T09:42:23Z</time>
      </trkpt>
      <trkpt lat="45.60166" lon="6.65737">
        <ele>1790</ele>
        <time>2016-02-06T09:42:24Z</time>
      </trkpt>
      <trkpt lat="45.60166" lon="6.65735">
        <ele>1789</ele>
        <time>2016-02-06T09:42:26Z</time>
      </trkpt>
      <trkpt lat="45.60167" lon="6.65734">
        <ele>1801</ele>
        <time>2016-02-06T09:42:27Z</time>
      </trkpt>
      <trkpt lat="45.60169" lon="6.65731">
        <ele>1803</ele>
        <time>2016-02-06T09:42:29Z</time>
      </trkpt>
      <trkpt lat="45.60172" lon="6.65729">
        <ele>1803</ele>
        <time>2016-02-06T09:42:31Z</time>
      </trkpt>
      <trkpt lat="45.60172" lon="6.65728">
        <ele>1804</ele>
        <time>2016-02-06T09:42:32Z</time>
      </trkpt>
      <trkpt lat="45.60174" lon="6.65726">
        <ele>1805</ele>
        <time>2016-02-06T09:42:33Z</time>
      </trkpt>
      <trkpt lat="45.60176" lon="6.65725">
        <ele>1805</ele>
        <time>2016-02-06T09:42:34Z</time>
      </trkpt>
      <trkpt lat="45.60178" lon="6.65723">
        <ele>1806</ele>
        <time>2016-02-06T09:42:35Z</time>
      </trkpt>
      <trkpt lat="45.60179" lon="6.65721">
        <ele>1806</ele>
        <time>2016-02-06T09:42:36Z</time>
      </trkpt>
      <trkpt lat="45.60179" lon="6.65719">
        <ele>1807</ele>
        <time>2016-02-06T09:42:40Z</time>
      </trkpt>
      <trkpt lat="45.60177" lon="6.6572">
        <ele>1806</ele>
        <time>2016-02-06T09:42:43Z</time>
      </trkpt>
      <trkpt lat="45.60179" lon="6.65721">
        <ele>1806</ele>
        <time>2016-02-06T09:42:44Z</time>
      </trkpt>
      <trkpt lat="45.6018" lon="6.65724">
        <ele>1806</ele>
        <time>2016-02-06T09:42:46Z</time>
      </trkpt>
      <trkpt lat="45.60178" lon="6.65724">
        <ele>1806</ele>
        <time>2016-02-06T09:42:49Z</time>
      </trkpt>
      <trkpt lat="45.60176" lon="6.65725">
        <ele>1805</ele>
        <time>2016-02-06T09:42:50Z</time>
      </trkpt>
      <trkpt lat="45.60173" lon="6.65725">
        <ele>1805</ele>
        <time>2016-02-06T09:42:51Z</time>
      </trkpt>
      <trkpt lat="45.60172" lon="6.65725">
        <ele>1805</ele>
        <time>2016-02-06T09:42:52Z</time>
      </trkpt>
      <trkpt lat="45.6017" lon="6.65724">
        <ele>1805</ele>
        <time>2016-02-06T09:42:53Z</time>
      </trkpt>
      <trkpt lat="45.60169" lon="6.65723">
        <ele>1805</ele>
        <time>2016-02-06T09:42:54Z</time>
      </trkpt>
      <trkpt lat="45.60168" lon="6.65723">
        <ele>1805</ele>
        <time>2016-02-06T09:42:55Z</time>
      </trkpt>
      <trkpt lat="45.60164" lon="6.65723">
        <ele>1789</ele>
        <time>2016-02-06T09:42:57Z</time>
      </trkpt>
      <trkpt lat="45.60163" lon="6.65723">
        <ele>1789</ele>
        <time>2016-02-06T09:42:58Z</time>
      </trkpt>
      <trkpt lat="45.60163" lon="6.6572">
        <ele>1789</ele>
        <time>2016-02-06T09:43:00Z</time>
      </trkpt>
      <trkpt lat="45.60162" lon="6.6572">
        <ele>1788</ele>
        <time>2016-02-06T09:43:02Z</time>
      </trkpt>
      <trkpt lat="45.60163" lon="6.65719">
        <ele>1789</ele>
        <time>2016-02-06T09:43:03Z</time>
      </trkpt>
      <trkpt lat="45.60165" lon="6.65718">
        <ele>1789</ele>
        <time>2016-02-06T09:43:04Z</time>
      </trkpt>
      <trkpt lat="45.60166" lon="6.65718">
        <ele>1789</ele>
        <time>2016-02-06T09:43:05Z</time>
      </trkpt>
      <trkpt lat="45.60168" lon="6.65717">
        <ele>1806</ele>
        <time>2016-02-06T09:43:07Z</time>
      </trkpt>
      <trkpt lat="45.60171" lon="6.65717">
        <ele>1806</ele>
        <time>2016-02-06T09:43:08Z</time>
      </trkpt>
      <trkpt lat="45.60172" lon="6.65714">
        <ele>1806</ele>
        <time>2016-02-06T09:43:10Z</time>
      </trkpt>
      <trkpt lat="45.60172" lon="6.65711">
        <ele>1806</ele>
        <time>2016-02-06T09:43:11Z</time>
      </trkpt>
      <trkpt lat="45.60174" lon="6.65709">
        <ele>1807</ele>
        <time>2016-02-06T09:43:12Z</time>
      </trkpt>
      <trkpt lat="45.60176" lon="6.65707">
        <ele>1807</ele>
        <time>2016-02-06T09:43:14Z</time>
      </trkpt>
      <trkpt lat="45.60176" lon="6.65705">
        <ele>1807</ele>
        <time>2016-02-06T09:43:17Z</time>
      </trkpt>
      <trkpt lat="45.60177" lon="6.65703">
        <ele>1807</ele>
        <time>2016-02-06T09:43:20Z</time>
      </trkpt>
      <trkpt lat="45.60176" lon="6.65706">
        <ele>1807</ele>
        <time>2016-02-06T09:43:22Z</time>
      </trkpt>
      <trkpt lat="45.60174" lon="6.65706">
        <ele>1807</ele>
        <time>2016-02-06T09:43:25Z</time>
      </trkpt>
      <trkpt lat="45.60172" lon="6.65708">
        <ele>1807</ele>
        <time>2016-02-06T09:43:26Z</time>
      </trkpt>
      <trkpt lat="45.60171" lon="6.65708">
        <ele>1806</ele>
        <time>2016-02-06T09:43:28Z</time>
      </trkpt>
      <trkpt lat="45.6017" lon="6.65711">
        <ele>1806</ele>
        <time>2016-02-06T09:43:30Z</time>
      </trkpt>
      <trkpt lat="45.60171" lon="6.65712">
        <ele>1806</ele>
        <time>2016-02-06T09:43:35Z</time>
      </trkpt>
      <trkpt lat="45.60171" lon="6.6571">
        <ele>1806</ele>
        <time>2016-02-06T09:43:39Z</time>
      </trkpt>
      <trkpt lat="45.60171" lon="6.65708">
        <ele>1806</ele>
        <time>2016-02-06T09:43:41Z</time>
      </trkpt>
      <trkpt lat="45.60171" lon="6.65705">
        <ele>1807</ele>
        <time>2016-02-06T09:43:42Z</time>
      </trkpt>
      <trkpt lat="45.60172" lon="6.65703">
        <ele>1807</ele>
        <time>2016-02-06T09:43:43Z</time>
      </trkpt>
      <trkpt lat="45.60174" lon="6.65702">
        <ele>1807</ele>
        <time>2016-02-06T09:43:45Z</time>
      </trkpt>
      <trkpt lat="45.60175" lon="6.65703">
        <ele>1807</ele>
        <time>2016-02-06T09:43:46Z</time>
      </trkpt>
      <trkpt lat="45.60175" lon="6.65704">
        <ele>1807</ele>
        <time>2016-02-06T09:43:47Z</time>
      </trkpt>
      <trkpt lat="45.60176" lon="6.65706">
        <ele>1807</ele>
        <time>2016-02-06T09:43:49Z</time>
      </trkpt>
      <trkpt lat="45.60174" lon="6.65706">
        <ele>1807</ele>
        <time>2016-02-06T09:43:52Z</time>
      </trkpt>
      <trkpt lat="45.60172" lon="6.65706">
        <ele>1807</ele>
        <time>2016-02-06T09:43:54Z</time>
      </trkpt>
      <trkpt lat="45.60171" lon="6.65707">
        <ele>1806</ele>
        <time>2016-02-06T09:43:55Z</time>
      </trkpt>
      <trkpt lat="45.60171" lon="6.65709">
        <ele>1806</ele>
        <time>2016-02-06T09:43:58Z</time>
      </trkpt>
      <trkpt lat="45.60171" lon="6.65711">
        <ele>1806</ele>
        <time>2016-02-06T09:44:00Z</time>
      </trkpt>
      <trkpt lat="45.6017" lon="6.65713">
        <ele>1806</ele>
        <time>2016-02-06T09:44:02Z</time>
      </trkpt>
      <trkpt lat="45.60167" lon="6.65715">
        <ele>1806</ele>
        <time>2016-02-06T09:44:04Z</time>
      </trkpt>
      <trkpt lat="45.60166" lon="6.65717">
        <ele>1789</ele>
        <time>2016-02-06T09:44:05Z</time>
      </trkpt>
      <trkpt lat="45.60165" lon="6.65718">
        <ele>1789</ele>
        <time>2016-02-06T09:44:06Z</time>
      </trkpt>
      <trkpt lat="45.60163" lon="6.65717">
        <ele>1789</ele>
        <time>2016-02-06T09:44:07Z</time>
      </trkpt>
      <trkpt lat="45.60161" lon="6.6572">
        <ele>1788</ele>
        <time>2016-02-06T09:44:08Z</time>
      </trkpt>
      <trkpt lat="45.60157" lon="6.65723">
        <ele>1788</ele>
        <time>2016-02-06T09:44:09Z</time>
      </trkpt>
      <trkpt lat="45.60155" lon="6.65725">
        <ele>1788</ele>
        <time>2016-02-06T09:44:10Z</time>
      </trkpt>
      <trkpt lat="45.60153" lon="6.65728">
        <ele>1788</ele>
        <time>2016-02-06T09:44:11Z</time>
      </trkpt>
      <trkpt lat="45.6015" lon="6.6573">
        <ele>1788</ele>
        <time>2016-02-06T09:44:12Z</time>
      </trkpt>
      <trkpt lat="45.60145" lon="6.65733">
        <ele>1787</ele>
        <time>2016-02-06T09:44:13Z</time>
      </trkpt>
      <trkpt lat="45.60141" lon="6.65736">
        <ele>1787</ele>
        <time>2016-02-06T09:44:14Z</time>
      </trkpt>
      <trkpt lat="45.6014" lon="6.65734">
        <ele>1787</ele>
        <time>2016-02-06T09:44:16Z</time>
      </trkpt>
      <trkpt lat="45.60138" lon="6.65734">
        <ele>1786</ele>
        <time>2016-02-06T09:44:17Z</time>
      </trkpt>
      <trkpt lat="45.60137" lon="6.65736">
        <ele>1786</ele>
        <time>2016-02-06T09:44:18Z</time>
      </trkpt>
      <trkpt lat="45.60136" lon="6.65732">
        <ele>1786</ele>
        <time>2016-02-06T09:44:19Z</time>
      </trkpt>
      <trkpt lat="45.60135" lon="6.6573">
        <ele>1786</ele>
        <time>2016-02-06T09:44:20Z</time>
      </trkpt>
      <trkpt lat="45.60133" lon="6.65731">
        <ele>1786</ele>
        <time>2016-02-06T09:44:21Z</time>
      </trkpt>
      <trkpt lat="45.60133" lon="6.65729">
        <ele>1786</ele>
        <time>2016-02-06T09:44:22Z</time>
      </trkpt>
      <trkpt lat="45.60135" lon="6.65726">
        <ele>1786</ele>
        <time>2016-02-06T09:44:23Z</time>
      </trkpt>
      <trkpt lat="45.60136" lon="6.65723">
        <ele>1786</ele>
        <time>2016-02-06T09:44:24Z</time>
      </trkpt>
      <trkpt lat="45.60137" lon="6.65721">
        <ele>1786</ele>
        <time>2016-02-06T09:44:25Z</time>
      </trkpt>
      <trkpt lat="45.60139" lon="6.65721">
        <ele>1787</ele>
        <time>2016-02-06T09:44:31Z</time>
      </trkpt>
      <trkpt lat="45.60141" lon="6.6572">
        <ele>1787</ele>
        <time>2016-02-06T09:44:33Z</time>
      </trkpt>
      <trkpt lat="45.60144" lon="6.65716">
        <ele>1787</ele>
        <time>2016-02-06T09:44:34Z</time>
      </trkpt>
      <trkpt lat="45.60148" lon="6.65712">
        <ele>1788</ele>
        <time>2016-02-06T09:44:35Z</time>
      </trkpt>
      <trkpt lat="45.6015" lon="6.6571">
        <ele>1788</ele>
        <time>2016-02-06T09:44:36Z</time>
      </trkpt>
      <trkpt lat="45.60153" lon="6.65706">
        <ele>1788</ele>
        <time>2016-02-06T09:44:37Z</time>
      </trkpt>
      <trkpt lat="45.60155" lon="6.65703">
        <ele>1789</ele>
        <time>2016-02-06T09:44:38Z</time>
      </trkpt>
      <trkpt lat="45.60157" lon="6.65702">
        <ele>1789</ele>
        <time>2016-02-06T09:44:40Z</time>
      </trkpt>
      <trkpt lat="45.60157" lon="6.65704">
        <ele>1789</ele>
        <time>2016-02-06T09:44:41Z</time>
      </trkpt>
      <trkpt lat="45.60157" lon="6.65706">
        <ele>1789</ele>
        <time>2016-02-06T09:44:42Z</time>
      </trkpt>
      <trkpt lat="45.60157" lon="6.65708">
        <ele>1788</ele>
        <time>2016-02-06T09:44:44Z</time>
      </trkpt>
      <trkpt lat="45.6016" lon="6.65706">
        <ele>1789</ele>
        <time>2016-02-06T09:44:45Z</time>
      </trkpt>
      <trkpt lat="45.60162" lon="6.65706">
        <ele>1789</ele>
        <time>2016-02-06T09:44:46Z</time>
      </trkpt>
      <trkpt lat="45.60162" lon="6.65704">
        <ele>1789</ele>
        <time>2016-02-06T09:44:47Z</time>
      </trkpt>
      <trkpt lat="45.6016" lon="6.65703">
        <ele>1789</ele>
        <time>2016-02-06T09:44:49Z</time>
      </trkpt>
      <trkpt lat="45.6016" lon="6.657">
        <ele>1789</ele>
        <time>2016-02-06T09:44:50Z</time>
      </trkpt>
      <trkpt lat="45.6016" lon="6.65698">
        <ele>1789</ele>
        <time>2016-02-06T09:44:51Z</time>
      </trkpt>
      <trkpt lat="45.60161" lon="6.65695">
        <ele>1790</ele>
        <time>2016-02-06T09:44:52Z</time>
      </trkpt>
      <trkpt lat="45.6016" lon="6.65692">
        <ele>1790</ele>
        <time>2016-02-06T09:44:54Z</time>
      </trkpt>
      <trkpt lat="45.60163" lon="6.6569">
        <ele>1790</ele>
        <time>2016-02-06T09:44:55Z</time>
      </trkpt>
      <trkpt lat="45.60164" lon="6.65688">
        <ele>1791</ele>
        <time>2016-02-06T09:44:56Z</time>
      </trkpt>
      <trkpt lat="45.60163" lon="6.65692">
        <ele>1790</ele>
        <time>2016-02-06T09:44:58Z</time>
      </trkpt>
      <trkpt lat="45.60163" lon="6.65694">
        <ele>1790</ele>
        <time>2016-02-06T09:44:59Z</time>
      </trkpt>
      <trkpt lat="45.60163" lon="6.65696">
        <ele>1790</ele>
        <time>2016-02-06T09:45:00Z</time>
      </trkpt>
      <trkpt lat="45.60164" lon="6.65698">
        <ele>1789</ele>
        <time>2016-02-06T09:45:01Z</time>
      </trkpt>
      <trkpt lat="45.60163" lon="6.65701">
        <ele>1789</ele>
        <time>2016-02-06T09:45:02Z</time>
      </trkpt>
      <trkpt lat="45.60164" lon="6.65702">
        <ele>1789</ele>
        <time>2016-02-06T09:45:03Z</time>
      </trkpt>
      <trkpt lat="45.60164" lon="6.65704">
        <ele>1789</ele>
        <time>2016-02-06T09:45:04Z</time>
      </trkpt>
      <trkpt lat="45.60163" lon="6.65706">
        <ele>1789</ele>
        <time>2016-02-06T09:45:05Z</time>
      </trkpt>
      <trkpt lat="45.60165" lon="6.65707">
        <ele>1789</ele>
        <time>2016-02-06T09:45:08Z</time>
      </trkpt>
      <trkpt lat="45.60167" lon="6.65705">
        <ele>1806</ele>
        <time>2016-02-06T09:45:10Z</time>
      </trkpt>
      <trkpt lat="45.60168" lon="6.65703">
        <ele>1806</ele>
        <time>2016-02-06T09:45:11Z</time>
      </trkpt>
      <trkpt lat="45.60172" lon="6.65698">
        <ele>1806</ele>
        <time>2016-02-06T09:45:13Z</time>
      </trkpt>
      <trkpt lat="45.60174" lon="6.65697">
        <ele>1807</ele>
        <time>2016-02-06T09:45:14Z</time>
      </trkpt>
      <trkpt lat="45.60175" lon="6.65697">
        <ele>1807</ele>
        <time>2016-02-06T09:45:15Z</time>
      </trkpt>
      <trkpt lat="45.60178" lon="6.65697">
        <ele>1807</ele>
        <time>2016-02-06T09:45:16Z</time>
      </trkpt>
      <trkpt lat="45.6018" lon="6.65698">
        <ele>1807</ele>
        <time>2016-02-06T09:45:17Z</time>
      </trkpt>
      <trkpt lat="45.60182" lon="6.65698">
        <ele>1808</ele>
        <time>2016-02-06T09:45:18Z</time>
      </trkpt>
      <trkpt lat="45.60186" lon="6.65695">
        <ele>1808</ele>
        <time>2016-02-06T09:45:22Z</time>
      </trkpt>
      <trkpt lat="45.60188" lon="6.65693">
        <ele>1809</ele>
        <time>2016-02-06T09:45:23Z</time>
      </trkpt>
      <trkpt lat="45.60188" lon="6.6569">
        <ele>1809</ele>
        <time>2016-02-06T09:45:24Z</time>
      </trkpt>
      <trkpt lat="45.60189" lon="6.6569">
        <ele>1809</ele>
        <time>2016-02-06T09:45:26Z</time>
      </trkpt>
      <trkpt lat="45.60191" lon="6.65689">
        <ele>1809</ele>
        <time>2016-02-06T09:45:27Z</time>
      </trkpt>
      <trkpt lat="45.6019" lon="6.65689">
        <ele>1809</ele>
        <time>2016-02-06T09:45:29Z</time>
      </trkpt>
      <trkpt lat="45.60186" lon="6.65689">
        <ele>1808</ele>
        <time>2016-02-06T09:45:32Z</time>
      </trkpt>
      <trkpt lat="45.60184" lon="6.65688">
        <ele>1808</ele>
        <time>2016-02-06T09:45:33Z</time>
      </trkpt>
      <trkpt lat="45.60183" lon="6.65688">
        <ele>1807</ele>
        <time>2016-02-06T09:45:34Z</time>
      </trkpt>
      <trkpt lat="45.60182" lon="6.6569">
        <ele>1807</ele>
        <time>2016-02-06T09:45:37Z</time>
      </trkpt>
      <trkpt lat="45.60181" lon="6.6569">
        <ele>1807</ele>
        <time>2016-02-06T09:45:38Z</time>
      </trkpt>
      <trkpt lat="45.60179" lon="6.65692">
        <ele>1807</ele>
        <time>2016-02-06T09:45:39Z</time>
      </trkpt>
      <trkpt lat="45.60178" lon="6.6569">
        <ele>1806</ele>
        <time>2016-02-06T09:45:41Z</time>
      </trkpt>
      <trkpt lat="45.60176" lon="6.65689">
        <ele>1806</ele>
        <time>2016-02-06T09:45:43Z</time>
      </trkpt>
      <trkpt lat="45.60174" lon="6.65689">
        <ele>1806</ele>
        <time>2016-02-06T09:45:44Z</time>
      </trkpt>
      <trkpt lat="45.60172" lon="6.65688">
        <ele>1805</ele>
        <time>2016-02-06T09:45:45Z</time>
      </trkpt>
      <trkpt lat="45.60171" lon="6.65689">
        <ele>1805</ele>
        <time>2016-02-06T09:45:46Z</time>
      </trkpt>
      <trkpt lat="45.60169" lon="6.6569">
        <ele>1805</ele>
        <time>2016-02-06T09:45:49Z</time>
      </trkpt>
      <trkpt lat="45.60168" lon="6.6569">
        <ele>1805</ele>
        <time>2016-02-06T09:45:52Z</time>
      </trkpt>
      <trkpt lat="45.60167" lon="6.6569">
        <ele>1790</ele>
        <time>2016-02-06T09:45:53Z</time>
      </trkpt>
      <trkpt lat="45.60165" lon="6.6569">
        <ele>1790</ele>
        <time>2016-02-06T09:45:56Z</time>
      </trkpt>
      <trkpt lat="45.60165" lon="6.65688">
        <ele>1791</ele>
        <time>2016-02-06T09:45:58Z</time>
      </trkpt>
      <trkpt lat="45.60166" lon="6.65686">
        <ele>1791</ele>
        <time>2016-02-06T09:46:01Z</time>
      </trkpt>
      <trkpt lat="45.60167" lon="6.65684">
        <ele>1804</ele>
        <time>2016-02-06T09:46:02Z</time>
      </trkpt>
      <trkpt lat="45.60167" lon="6.65682">
        <ele>1803</ele>
        <time>2016-02-06T09:46:04Z</time>
      </trkpt>
      <trkpt lat="45.60169" lon="6.65681">
        <ele>1803</ele>
        <time>2016-02-06T09:46:08Z</time>
      </trkpt>
      <trkpt lat="45.60171" lon="6.6568">
        <ele>1803</ele>
        <time>2016-02-06T09:46:10Z</time>
      </trkpt>
      <trkpt lat="45.60171" lon="6.65678">
        <ele>1802</ele>
        <time>2016-02-06T09:46:12Z</time>
      </trkpt>
      <trkpt lat="45.6017" lon="6.65677">
        <ele>1802</ele>
        <time>2016-02-06T09:46:13Z</time>
      </trkpt>
      <trkpt lat="45.6017" lon="6.65675">
        <ele>1801</ele>
        <time>2016-02-06T09:46:14Z</time>
      </trkpt>
      <trkpt lat="45.6017" lon="6.65677">
        <ele>1802</ele>
        <time>2016-02-06T09:46:21Z</time>
      </trkpt>
      <trkpt lat="45.6017" lon="6.65679">
        <ele>1802</ele>
        <time>2016-02-06T09:46:22Z</time>
      </trkpt>
      <trkpt lat="45.60172" lon="6.65678">
        <ele>1803</ele>
        <time>2016-02-06T09:46:25Z</time>
      </trkpt>
      <trkpt lat="45.60173" lon="6.65679">
        <ele>1803</ele>
        <time>2016-02-06T09:46:26Z</time>
      </trkpt>
      <trkpt lat="45.60175" lon="6.65678">
        <ele>1803</ele>
        <time>2016-02-06T09:46:28Z</time>
      </trkpt>
      <trkpt lat="45.60176" lon="6.65678">
        <ele>1804</ele>
        <time>2016-02-06T09:46:30Z</time>
      </trkpt>
      <trkpt lat="45.60178" lon="6.65677">
        <ele>1804</ele>
        <time>2016-02-06T09:46:31Z</time>
      </trkpt>
      <trkpt lat="45.60181" lon="6.65677">
        <ele>1805</ele>
        <time>2016-02-06T09:46:33Z</time>
      </trkpt>
      <trkpt lat="45.60182" lon="6.65678">
        <ele>1806</ele>
        <time>2016-02-06T09:46:34Z</time>
      </trkpt>
      <trkpt lat="45.60184" lon="6.65677">
        <ele>1806</ele>
        <time>2016-02-06T09:46:37Z</time>
      </trkpt>
      <trkpt lat="45.60186" lon="6.65677">
        <ele>1807</ele>
        <time>2016-02-06T09:46:39Z</time>
      </trkpt>
      <trkpt lat="45.60186" lon="6.65679">
        <ele>1807</ele>
        <time>2016-02-06T09:46:42Z</time>
      </trkpt>
      <trkpt lat="45.60188" lon="6.6568">
        <ele>1807</ele>
        <time>2016-02-06T09:46:44Z</time>
      </trkpt>
      <trkpt lat="45.60189" lon="6.65681">
        <ele>1808</ele>
        <time>2016-02-06T09:46:47Z</time>
      </trkpt>
      <trkpt lat="45.60188" lon="6.65684">
        <ele>1808</ele>
        <time>2016-02-06T09:46:49Z</time>
      </trkpt>
      <trkpt lat="45.60188" lon="6.65685">
        <ele>1808</ele>
        <time>2016-02-06T09:46:51Z</time>
      </trkpt>
      <trkpt lat="45.60191" lon="6.65685">
        <ele>1809</ele>
        <time>2016-02-06T09:46:53Z</time>
      </trkpt>
      <trkpt lat="45.60193" lon="6.65686">
        <ele>1809</ele>
        <time>2016-02-06T09:46:56Z</time>
      </trkpt>
      <trkpt lat="45.60192" lon="6.65687">
        <ele>1809</ele>
        <time>2016-02-06T09:46:58Z</time>
      </trkpt>
      <trkpt lat="45.60192" lon="6.65689">
        <ele>1810</ele>
        <time>2016-02-06T09:46:59Z</time>
      </trkpt>
      <trkpt lat="45.60191" lon="6.6569">
        <ele>1809</ele>
        <time>2016-02-06T09:47:00Z</time>
      </trkpt>
      <trkpt lat="45.60191" lon="6.65692">
        <ele>1809</ele>
        <time>2016-02-06T09:47:03Z</time>
      </trkpt>
      <trkpt lat="45.60188" lon="6.65694">
        <ele>1809</ele>
        <time>2016-02-06T09:47:04Z</time>
      </trkpt>
      <trkpt lat="45.60188" lon="6.65696">
        <ele>1809</ele>
        <time>2016-02-06T09:47:05Z</time>
      </trkpt>
      <trkpt lat="45.60189" lon="6.65696">
        <ele>1809</ele>
        <time>2016-02-06T09:47:06Z</time>
      </trkpt>
      <trkpt lat="45.60191" lon="6.65696">
        <ele>1809</ele>
        <time>2016-02-06T09:47:07Z</time>
      </trkpt>
      <trkpt lat="45.60189" lon="6.65696">
        <ele>1809</ele>
        <time>2016-02-06T09:47:11Z</time>
      </trkpt>
      <trkpt lat="45.6019" lon="6.65695">
        <ele>1809</ele>
        <time>2016-02-06T09:47:14Z</time>
      </trkpt>
      <trkpt lat="45.60193" lon="6.65694">
        <ele>1810</ele>
        <time>2016-02-06T09:47:16Z</time>
      </trkpt>
      <trkpt lat="45.60195" lon="6.65694">
        <ele>1810</ele>
        <time>2016-02-06T09:47:17Z</time>
      </trkpt>
      <trkpt lat="45.60197" lon="6.65694">
        <ele>1811</ele>
        <time>2016-02-06T09:47:18Z</time>
      </trkpt>
      <trkpt lat="45.60199" lon="6.65695">
        <ele>1811</ele>
        <time>2016-02-06T09:47:21Z</time>
      </trkpt>
      <trkpt lat="45.60201" lon="6.65694">
        <ele>1812</ele>
        <time>2016-02-06T09:47:22Z</time>
      </trkpt>
      <trkpt lat="45.60202" lon="6.65693">
        <ele>1812</ele>
        <time>2016-02-06T09:47:23Z</time>
      </trkpt>
      <trkpt lat="45.60199" lon="6.65693">
        <ele>1811</ele>
        <time>2016-02-06T09:47:25Z</time>
      </trkpt>
      <trkpt lat="45.60197" lon="6.65693">
        <ele>1811</ele>
        <time>2016-02-06T09:47:27Z</time>
      </trkpt>
      <trkpt lat="45.60196" lon="6.65693">
        <ele>1811</ele>
        <time>2016-02-06T09:47:28Z</time>
      </trkpt>
      <trkpt lat="45.60195" lon="6.65695">
        <ele>1810</ele>
        <time>2016-02-06T09:47:30Z</time>
      </trkpt>
      <trkpt lat="45.60196" lon="6.65696">
        <ele>1811</ele>
        <time>2016-02-06T09:47:33Z</time>
      </trkpt>
      <trkpt lat="45.60197" lon="6.65697">
        <ele>1811</ele>
        <time>2016-02-06T09:47:35Z</time>
      </trkpt>
      <trkpt lat="45.60199" lon="6.65697">
        <ele>1811</ele>
        <time>2016-02-06T09:47:36Z</time>
      </trkpt>
      <trkpt lat="45.602" lon="6.65698">
        <ele>1812</ele>
        <time>2016-02-06T09:47:37Z</time>
      </trkpt>
      <trkpt lat="45.60202" lon="6.65699">
        <ele>1812</ele>
        <time>2016-02-06T09:47:39Z</time>
      </trkpt>
      <trkpt lat="45.60203" lon="6.65699">
        <ele>1812</ele>
        <time>2016-02-06T09:47:40Z</time>
      </trkpt>
      <trkpt lat="45.60205" lon="6.65701">
        <ele>1813</ele>
        <time>2016-02-06T09:47:42Z</time>
      </trkpt>
      <trkpt lat="45.60205" lon="6.65703">
        <ele>1813</ele>
        <time>2016-02-06T09:47:44Z</time>
      </trkpt>
      <trkpt lat="45.60207" lon="6.65704">
        <ele>1813</ele>
        <time>2016-02-06T09:47:49Z</time>
      </trkpt>
      <trkpt lat="45.60207" lon="6.65706">
        <ele>1813</ele>
        <time>2016-02-06T09:47:50Z</time>
      </trkpt>
      <trkpt lat="45.60209" lon="6.65705">
        <ele>1814</ele>
        <time>2016-02-06T09:47:52Z</time>
      </trkpt>
      <trkpt lat="45.60207" lon="6.65706">
        <ele>1813</ele>
        <time>2016-02-06T09:47:55Z</time>
      </trkpt>
      <trkpt lat="45.60208" lon="6.65703">
        <ele>1814</ele>
        <time>2016-02-06T09:47:57Z</time>
      </trkpt>
      <trkpt lat="45.60206" lon="6.65705">
        <ele>1813</ele>
        <time>2016-02-06T09:47:58Z</time>
      </trkpt>
      <trkpt lat="45.60207" lon="6.65707">
        <ele>1813</ele>
        <time>2016-02-06T09:47:59Z</time>
      </trkpt>
      <trkpt lat="45.60206" lon="6.65709">
        <ele>1813</ele>
        <time>2016-02-06T09:48:00Z</time>
      </trkpt>
      <trkpt lat="45.60207" lon="6.65708">
        <ele>1813</ele>
        <time>2016-02-06T09:48:02Z</time>
      </trkpt>
      <trkpt lat="45.60206" lon="6.65709">
        <ele>1813</ele>
        <time>2016-02-06T09:48:04Z</time>
      </trkpt>
      <trkpt lat="45.60208" lon="6.65708">
        <ele>1813</ele>
        <time>2016-02-06T09:48:06Z</time>
      </trkpt>
      <trkpt lat="45.60207" lon="6.65709">
        <ele>1813</ele>
        <time>2016-02-06T09:48:07Z</time>
      </trkpt>
      <trkpt lat="45.60205" lon="6.65708">
        <ele>1813</ele>
        <time>2016-02-06T09:48:12Z</time>
      </trkpt>
      <trkpt lat="45.60207" lon="6.65707">
        <ele>1813</ele>
        <time>2016-02-06T09:48:15Z</time>
      </trkpt>
      <trkpt lat="45.60208" lon="6.65707">
        <ele>1813</ele>
        <time>2016-02-06T09:48:22Z</time>
      </trkpt>
      <trkpt lat="45.60209" lon="6.65708">
        <ele>1814</ele>
        <time>2016-02-06T09:48:24Z</time>
      </trkpt>
      <trkpt lat="45.6021" lon="6.65709">
        <ele>1814</ele>
        <time>2016-02-06T09:48:26Z</time>
      </trkpt>
      <trkpt lat="45.6021" lon="6.65711">
        <ele>1814</ele>
        <time>2016-02-06T09:48:28Z</time>
      </trkpt>
      <trkpt lat="45.60211" lon="6.65712">
        <ele>1814</ele>
        <time>2016-02-06T09:48:34Z</time>
      </trkpt>
      <trkpt lat="45.60211" lon="6.65714">
        <ele>1814</ele>
        <time>2016-02-06T09:48:36Z</time>
      </trkpt>
      <trkpt lat="45.60212" lon="6.65715">
        <ele>1814</ele>
        <time>2016-02-06T09:48:40Z</time>
      </trkpt>
      <trkpt lat="45.60214" lon="6.65715">
        <ele>1815</ele>
        <time>2016-02-06T09:48:42Z</time>
      </trkpt>
      <trkpt lat="45.60217" lon="6.65716">
        <ele>1815</ele>
        <time>2016-02-06T09:48:44Z</time>
      </trkpt>
      <trkpt lat="45.60218" lon="6.65716">
        <ele>1816</ele>
        <time>2016-02-06T09:48:45Z</time>
      </trkpt>
      <trkpt lat="45.60217" lon="6.65717">
        <ele>1815</ele>
        <time>2016-02-06T09:48:48Z</time>
      </trkpt>
      <trkpt lat="45.60214" lon="6.65717">
        <ele>1815</ele>
        <time>2016-02-06T09:48:49Z</time>
      </trkpt>
      <trkpt lat="45.60213" lon="6.65718">
        <ele>1814</ele>
        <time>2016-02-06T09:48:50Z</time>
      </trkpt>
      <trkpt lat="45.60211" lon="6.65717">
        <ele>1814</ele>
        <time>2016-02-06T09:48:51Z</time>
      </trkpt>
      <trkpt lat="45.60211" lon="6.65715">
        <ele>1814</ele>
        <time>2016-02-06T09:48:52Z</time>
      </trkpt>
      <trkpt lat="45.6021" lon="6.65712">
        <ele>1814</ele>
        <time>2016-02-06T09:48:54Z</time>
      </trkpt>
      <trkpt lat="45.60211" lon="6.65711">
        <ele>1814</ele>
        <time>2016-02-06T09:48:55Z</time>
      </trkpt>
      <trkpt lat="45.60212" lon="6.65711">
        <ele>1814</ele>
        <time>2016-02-06T09:48:56Z</time>
      </trkpt>
      <trkpt lat="45.6021" lon="6.6571">
        <ele>1814</ele>
        <time>2016-02-06T09:48:59Z</time>
      </trkpt>
      <trkpt lat="45.60208" lon="6.65711">
        <ele>1813</ele>
        <time>2016-02-06T09:49:01Z</time>
      </trkpt>
      <trkpt lat="45.60208" lon="6.65709">
        <ele>1813</ele>
        <time>2016-02-06T09:49:03Z</time>
      </trkpt>
      <trkpt lat="45.60208" lon="6.65706">
        <ele>1813</ele>
        <time>2016-02-06T09:49:06Z</time>
      </trkpt>
      <trkpt lat="45.60209" lon="6.65704">
        <ele>1814</ele>
        <time>2016-02-06T09:49:10Z</time>
      </trkpt>
      <trkpt lat="45.60209" lon="6.65702">
        <ele>1814</ele>
        <time>2016-02-06T09:49:11Z</time>
      </trkpt>
      <trkpt lat="45.60211" lon="6.65699">
        <ele>1814</ele>
        <time>2016-02-06T09:49:13Z</time>
      </trkpt>
      <trkpt lat="45.60212" lon="6.65698">
        <ele>1815</ele>
        <time>2016-02-06T09:49:15Z</time>
      </trkpt>
      <trkpt lat="45.60214" lon="6.65699">
        <ele>1815</ele>
        <time>2016-02-06T09:49:18Z</time>
      </trkpt>
      <trkpt lat="45.60213" lon="6.65696">
        <ele>1815</ele>
        <time>2016-02-06T09:49:20Z</time>
      </trkpt>
      <trkpt lat="45.60212" lon="6.65694">
        <ele>1815</ele>
        <time>2016-02-06T09:49:21Z</time>
      </trkpt>
      <trkpt lat="45.60212" lon="6.65691">
        <ele>1815</ele>
        <time>2016-02-06T09:49:22Z</time>
      </trkpt>
      <trkpt lat="45.60212" lon="6.6569">
        <ele>1815</ele>
        <time>2016-02-06T09:49:23Z</time>
      </trkpt>
      <trkpt lat="45.60212" lon="6.65688">
        <ele>1815</ele>
        <time>2016-02-06T09:49:25Z</time>
      </trkpt>
      <trkpt lat="45.60212" lon="6.65686">
        <ele>1815</ele>
        <time>2016-02-06T09:49:26Z</time>
      </trkpt>
      <trkpt lat="45.60211" lon="6.65684">
        <ele>1815</ele>
        <time>2016-02-06T09:49:29Z</time>
      </trkpt>
      <trkpt lat="45.60212" lon="6.65682">
        <ele>1815</ele>
        <time>2016-02-06T09:49:31Z</time>
      </trkpt>
      <trkpt lat="45.60214" lon="6.65684">
        <ele>1816</ele>
        <time>2016-02-06T09:49:35Z</time>
      </trkpt>
      <trkpt lat="45.60214" lon="6.65682">
        <ele>1816</ele>
        <time>2016-02-06T09:49:37Z</time>
      </trkpt>
      <trkpt lat="45.60215" lon="6.65681">
        <ele>1816</ele>
        <time>2016-02-06T09:49:39Z</time>
      </trkpt>
      <trkpt lat="45.60215" lon="6.65679">
        <ele>1816</ele>
        <time>2016-02-06T09:49:41Z</time>
      </trkpt>
      <trkpt lat="45.60215" lon="6.65677">
        <ele>1816</ele>
        <time>2016-02-06T09:49:46Z</time>
      </trkpt>
      <trkpt lat="45.60215" lon="6.65675">
        <ele>1816</ele>
        <time>2016-02-06T09:49:50Z</time>
      </trkpt>
      <trkpt lat="45.60215" lon="6.65674">
        <ele>1816</ele>
        <time>2016-02-06T09:49:51Z</time>
      </trkpt>
      <trkpt lat="45.60217" lon="6.65673">
        <ele>1817</ele>
        <time>2016-02-06T09:49:52Z</time>
      </trkpt>
      <trkpt lat="45.60218" lon="6.65673">
        <ele>1817</ele>
        <time>2016-02-06T09:49:53Z</time>
      </trkpt>
      <trkpt lat="45.6022" lon="6.65673">
        <ele>1818</ele>
        <time>2016-02-06T09:49:55Z</time>
      </trkpt>
      <trkpt lat="45.60221" lon="6.65674">
        <ele>1819</ele>
        <time>2016-02-06T09:49:56Z</time>
      </trkpt>
      <trkpt lat="45.60223" lon="6.65673">
        <ele>1819</ele>
        <time>2016-02-06T09:49:57Z</time>
      </trkpt>
      <trkpt lat="45.60224" lon="6.65672">
        <ele>1820</ele>
        <time>2016-02-06T09:49:59Z</time>
      </trkpt>
      <trkpt lat="45.60223" lon="6.65674">
        <ele>1819</ele>
        <time>2016-02-06T09:50:01Z</time>
      </trkpt>
      <trkpt lat="45.60223" lon="6.65672">
        <ele>1819</ele>
        <time>2016-02-06T09:50:04Z</time>
      </trkpt>
      <trkpt lat="45.60224" lon="6.65669">
        <ele>1820</ele>
        <time>2016-02-06T09:50:06Z</time>
      </trkpt>
      <trkpt lat="45.60225" lon="6.65667">
        <ele>1820</ele>
        <time>2016-02-06T09:50:07Z</time>
      </trkpt>
      <trkpt lat="45.60225" lon="6.65664">
        <ele>1822</ele>
        <time>2016-02-06T09:50:09Z</time>
      </trkpt>
      <trkpt lat="45.60227" lon="6.65662">
        <ele>1823</ele>
        <time>2016-02-06T09:50:10Z</time>
      </trkpt>
      <trkpt lat="45.60228" lon="6.65661">
        <ele>1823</ele>
        <time>2016-02-06T09:50:11Z</time>
      </trkpt>
      <trkpt lat="45.60231" lon="6.65661">
        <ele>1824</ele>
        <time>2016-02-06T09:50:12Z</time>
      </trkpt>
      <trkpt lat="45.60232" lon="6.65661">
        <ele>1824</ele>
        <time>2016-02-06T09:50:13Z</time>
      </trkpt>
      <trkpt lat="45.60231" lon="6.65659">
        <ele>1824</ele>
        <time>2016-02-06T09:50:15Z</time>
      </trkpt>
      <trkpt lat="45.60231" lon="6.65657">
        <ele>1824</ele>
        <time>2016-02-06T09:50:16Z</time>
      </trkpt>
      <trkpt lat="45.60231" lon="6.65655">
        <ele>1824</ele>
        <time>2016-02-06T09:50:17Z</time>
      </trkpt>
      <trkpt lat="45.60232" lon="6.65654">
        <ele>1824</ele>
        <time>2016-02-06T09:50:20Z</time>
      </trkpt>
      <trkpt lat="45.60234" lon="6.65653">
        <ele>1824</ele>
        <time>2016-02-06T09:50:23Z</time>
      </trkpt>
      <trkpt lat="45.60234" lon="6.65651">
        <ele>1824</ele>
        <time>2016-02-06T09:50:26Z</time>
      </trkpt>
      <trkpt lat="45.60233" lon="6.65649">
        <ele>1823</ele>
        <time>2016-02-06T09:50:28Z</time>
      </trkpt>
      <trkpt lat="45.60234" lon="6.65645">
        <ele>1823</ele>
        <time>2016-02-06T09:50:30Z</time>
      </trkpt>
      <trkpt lat="45.60235" lon="6.65644">
        <ele>1823</ele>
        <time>2016-02-06T09:50:31Z</time>
      </trkpt>
      <trkpt lat="45.60236" lon="6.65642">
        <ele>1823</ele>
        <time>2016-02-06T09:50:32Z</time>
      </trkpt>
      <trkpt lat="45.60237" lon="6.6564">
        <ele>1823</ele>
        <time>2016-02-06T09:50:34Z</time>
      </trkpt>
      <trkpt lat="45.60239" lon="6.65639">
        <ele>1823</ele>
        <time>2016-02-06T09:50:36Z</time>
      </trkpt>
      <trkpt lat="45.6024" lon="6.65636">
        <ele>1823</ele>
        <time>2016-02-06T09:50:38Z</time>
      </trkpt>
      <trkpt lat="45.60241" lon="6.65633">
        <ele>1823</ele>
        <time>2016-02-06T09:50:40Z</time>
      </trkpt>
      <trkpt lat="45.60242" lon="6.65632">
        <ele>1823</ele>
        <time>2016-02-06T09:50:42Z</time>
      </trkpt>
      <trkpt lat="45.60243" lon="6.65629">
        <ele>1823</ele>
        <time>2016-02-06T09:50:45Z</time>
      </trkpt>
      <trkpt lat="45.60242" lon="6.65632">
        <ele>1823</ele>
        <time>2016-02-06T09:50:48Z</time>
      </trkpt>
      <trkpt lat="45.60241" lon="6.65634">
        <ele>1823</ele>
        <time>2016-02-06T09:50:49Z</time>
      </trkpt>
      <trkpt lat="45.60239" lon="6.65634">
        <ele>1823</ele>
        <time>2016-02-06T09:50:50Z</time>
      </trkpt>
      <trkpt lat="45.60241" lon="6.65633">
        <ele>1823</ele>
        <time>2016-02-06T09:50:54Z</time>
      </trkpt>
      <trkpt lat="45.60241" lon="6.65631">
        <ele>1823</ele>
        <time>2016-02-06T09:50:55Z</time>
      </trkpt>
      <trkpt lat="45.60243" lon="6.65632">
        <ele>1823</ele>
        <time>2016-02-06T09:50:57Z</time>
      </trkpt>
      <trkpt lat="45.60243" lon="6.65636">
        <ele>1824</ele>
        <time>2016-02-06T09:50:59Z</time>
      </trkpt>
      <trkpt lat="45.60241" lon="6.65636">
        <ele>1823</ele>
        <time>2016-02-06T09:51:00Z</time>
      </trkpt>
      <trkpt lat="45.60242" lon="6.65633">
        <ele>1823</ele>
        <time>2016-02-06T09:51:03Z</time>
      </trkpt>
      <trkpt lat="45.60243" lon="6.6563">
        <ele>1823</ele>
        <time>2016-02-06T09:51:05Z</time>
      </trkpt>
      <trkpt lat="45.60241" lon="6.65629">
        <ele>1823</ele>
        <time>2016-02-06T09:51:07Z</time>
      </trkpt>
      <trkpt lat="45.60239" lon="6.6563">
        <ele>1823</ele>
        <time>2016-02-06T09:51:09Z</time>
      </trkpt>
      <trkpt lat="45.60238" lon="6.65631">
        <ele>1823</ele>
        <time>2016-02-06T09:51:10Z</time>
      </trkpt>
      <trkpt lat="45.60239" lon="6.6563">
        <ele>1823</ele>
        <time>2016-02-06T09:51:13Z</time>
      </trkpt>
      <trkpt lat="45.6024" lon="6.65628">
        <ele>1823</ele>
        <time>2016-02-06T09:51:14Z</time>
      </trkpt>
      <trkpt lat="45.60241" lon="6.65626">
        <ele>1823</ele>
        <time>2016-02-06T09:51:16Z</time>
      </trkpt>
      <trkpt lat="45.60243" lon="6.65624">
        <ele>1823</ele>
        <time>2016-02-06T09:51:18Z</time>
      </trkpt>
      <trkpt lat="45.60244" lon="6.65624">
        <ele>1823</ele>
        <time>2016-02-06T09:51:20Z</time>
      </trkpt>
      <trkpt lat="45.60246" lon="6.65624">
        <ele>1824</ele>
        <time>2016-02-06T09:51:22Z</time>
      </trkpt>
      <trkpt lat="45.60247" lon="6.65622">
        <ele>1824</ele>
        <time>2016-02-06T09:51:24Z</time>
      </trkpt>
      <trkpt lat="45.60248" lon="6.6562">
        <ele>1824</ele>
        <time>2016-02-06T09:51:25Z</time>
      </trkpt>
      <trkpt lat="45.60249" lon="6.65619">
        <ele>1824</ele>
        <time>2016-02-06T09:51:27Z</time>
      </trkpt>
      <trkpt lat="45.60251" lon="6.65619">
        <ele>1845</ele>
        <time>2016-02-06T09:51:28Z</time>
      </trkpt>
      <trkpt lat="45.60253" lon="6.65617">
        <ele>1845</ele>
        <time>2016-02-06T09:51:30Z</time>
      </trkpt>
      <trkpt lat="45.60255" lon="6.65616">
        <ele>1846</ele>
        <time>2016-02-06T09:51:32Z</time>
      </trkpt>
      <trkpt lat="45.60257" lon="6.65614">
        <ele>1846</ele>
        <time>2016-02-06T09:51:34Z</time>
      </trkpt>
      <trkpt lat="45.60258" lon="6.65613">
        <ele>1846</ele>
        <time>2016-02-06T09:51:36Z</time>
      </trkpt>
      <trkpt lat="45.60257" lon="6.65611">
        <ele>1845</ele>
        <time>2016-02-06T09:51:38Z</time>
      </trkpt>
      <trkpt lat="45.60256" lon="6.6561">
        <ele>1845</ele>
        <time>2016-02-06T09:51:44Z</time>
      </trkpt>
      <trkpt lat="45.60257" lon="6.65612">
        <ele>1845</ele>
        <time>2016-02-06T09:51:48Z</time>
      </trkpt>
      <trkpt lat="45.60256" lon="6.65611">
        <ele>1845</ele>
        <time>2016-02-06T09:51:52Z</time>
      </trkpt>
      <trkpt lat="45.60258" lon="6.6561">
        <ele>1845</ele>
        <time>2016-02-06T09:51:58Z</time>
      </trkpt>
      <trkpt lat="45.6026" lon="6.6561">
        <ele>1845</ele>
        <time>2016-02-06T09:52:00Z</time>
      </trkpt>
      <trkpt lat="45.60261" lon="6.65607">
        <ele>1845</ele>
        <time>2016-02-06T09:52:02Z</time>
      </trkpt>
      <trkpt lat="45.6026" lon="6.65607">
        <ele>1845</ele>
        <time>2016-02-06T09:52:05Z</time>
      </trkpt>
      <trkpt lat="45.60259" lon="6.65606">
        <ele>1845</ele>
        <time>2016-02-06T09:52:07Z</time>
      </trkpt>
      <trkpt lat="45.6026" lon="6.65605">
        <ele>1845</ele>
        <time>2016-02-06T09:52:13Z</time>
      </trkpt>
      <trkpt lat="45.6026" lon="6.65603">
        <ele>1844</ele>
        <time>2016-02-06T09:52:17Z</time>
      </trkpt>
      <trkpt lat="45.6026" lon="6.656">
        <ele>1844</ele>
        <time>2016-02-06T09:52:19Z</time>
      </trkpt>
      <trkpt lat="45.60262" lon="6.65599">
        <ele>1844</ele>
        <time>2016-02-06T09:52:22Z</time>
      </trkpt>
      <trkpt lat="45.60262" lon="6.65597">
        <ele>1843</ele>
        <time>2016-02-06T09:52:23Z</time>
      </trkpt>
      <trkpt lat="45.60264" lon="6.65596">
        <ele>1844</ele>
        <time>2016-02-06T09:52:25Z</time>
      </trkpt>
      <trkpt lat="45.60265" lon="6.65595">
        <ele>1844</ele>
        <time>2016-02-06T09:52:27Z</time>
      </trkpt>
      <trkpt lat="45.60266" lon="6.65594">
        <ele>1844</ele>
        <time>2016-02-06T09:52:28Z</time>
      </trkpt>
      <trkpt lat="45.60267" lon="6.65592">
        <ele>1844</ele>
        <time>2016-02-06T09:52:31Z</time>
      </trkpt>
      <trkpt lat="45.60268" lon="6.6559">
        <ele>1844</ele>
        <time>2016-02-06T09:52:32Z</time>
      </trkpt>
      <trkpt lat="45.6027" lon="6.65589">
        <ele>1845</ele>
        <time>2016-02-06T09:52:33Z</time>
      </trkpt>
      <trkpt lat="45.60271" lon="6.65587">
        <ele>1845</ele>
        <time>2016-02-06T09:52:35Z</time>
      </trkpt>
      <trkpt lat="45.60272" lon="6.65586">
        <ele>1845</ele>
        <time>2016-02-06T09:52:36Z</time>
      </trkpt>
      <trkpt lat="45.60273" lon="6.65585">
        <ele>1846</ele>
        <time>2016-02-06T09:52:37Z</time>
      </trkpt>
      <trkpt lat="45.60275" lon="6.65585">
        <ele>1846</ele>
        <time>2016-02-06T09:52:38Z</time>
      </trkpt>
      <trkpt lat="45.60275" lon="6.65583">
        <ele>1845</ele>
        <time>2016-02-06T09:52:39Z</time>
      </trkpt>
      <trkpt lat="45.60276" lon="6.65581">
        <ele>1846</ele>
        <time>2016-02-06T09:52:41Z</time>
      </trkpt>
      <trkpt lat="45.60278" lon="6.6558">
        <ele>1846</ele>
        <time>2016-02-06T09:52:42Z</time>
      </trkpt>
      <trkpt lat="45.60279" lon="6.6558">
        <ele>1846</ele>
        <time>2016-02-06T09:52:43Z</time>
      </trkpt>
      <trkpt lat="45.6028" lon="6.65578">
        <ele>1847</ele>
        <time>2016-02-06T09:52:44Z</time>
      </trkpt>
      <trkpt lat="45.60281" lon="6.65578">
        <ele>1847</ele>
        <time>2016-02-06T09:52:45Z</time>
      </trkpt>
      <trkpt lat="45.60283" lon="6.65576">
        <ele>1848</ele>
        <time>2016-02-06T09:52:46Z</time>
      </trkpt>
      <trkpt lat="45.60284" lon="6.65574">
        <ele>1848</ele>
        <time>2016-02-06T09:52:47Z</time>
      </trkpt>
      <trkpt lat="45.60285" lon="6.65573">
        <ele>1848</ele>
        <time>2016-02-06T09:52:49Z</time>
      </trkpt>
      <trkpt lat="45.60286" lon="6.65573">
        <ele>1849</ele>
        <time>2016-02-06T09:52:50Z</time>
      </trkpt>
      <trkpt lat="45.60289" lon="6.65571">
        <ele>1849</ele>
        <time>2016-02-06T09:52:52Z</time>
      </trkpt>
      <trkpt lat="45.60291" lon="6.65571">
        <ele>1850</ele>
        <time>2016-02-06T09:52:53Z</time>
      </trkpt>
      <trkpt lat="45.60292" lon="6.65572">
        <ele>1850</ele>
        <time>2016-02-06T09:52:55Z</time>
      </trkpt>
      <trkpt lat="45.60291" lon="6.65572">
        <ele>1850</ele>
        <time>2016-02-06T09:52:58Z</time>
      </trkpt>
      <trkpt lat="45.60289" lon="6.65572">
        <ele>1850</ele>
        <time>2016-02-06T09:53:01Z</time>
      </trkpt>
      <trkpt lat="45.6029" lon="6.6557">
        <ele>1850</ele>
        <time>2016-02-06T09:53:02Z</time>
      </trkpt>
      <trkpt lat="45.60292" lon="6.6557">
        <ele>1850</ele>
        <time>2016-02-06T09:53:04Z</time>
      </trkpt>
      <trkpt lat="45.60292" lon="6.65569">
        <ele>1850</ele>
        <time>2016-02-06T09:53:06Z</time>
      </trkpt>
      <trkpt lat="45.60291" lon="6.65568">
        <ele>1850</ele>
        <time>2016-02-06T09:53:08Z</time>
      </trkpt>
      <trkpt lat="45.60289" lon="6.65567">
        <ele>1850</ele>
        <time>2016-02-06T09:53:10Z</time>
      </trkpt>
      <trkpt lat="45.60291" lon="6.65566">
        <ele>1850</ele>
        <time>2016-02-06T09:53:15Z</time>
      </trkpt>
      <trkpt lat="45.60292" lon="6.65566">
        <ele>1850</ele>
        <time>2016-02-06T09:53:17Z</time>
      </trkpt>
      <trkpt lat="45.60294" lon="6.65565">
        <ele>1851</ele>
        <time>2016-02-06T09:53:18Z</time>
      </trkpt>
      <trkpt lat="45.60294" lon="6.65564">
        <ele>1851</ele>
        <time>2016-02-06T09:53:20Z</time>
      </trkpt>
      <trkpt lat="45.60295" lon="6.65561">
        <ele>1851</ele>
        <time>2016-02-06T09:53:21Z</time>
      </trkpt>
      <trkpt lat="45.60296" lon="6.6556">
        <ele>1851</ele>
        <time>2016-02-06T09:53:22Z</time>
      </trkpt>
      <trkpt lat="45.60298" lon="6.6556">
        <ele>1851</ele>
        <time>2016-02-06T09:53:24Z</time>
      </trkpt>
      <trkpt lat="45.60299" lon="6.65561">
        <ele>1852</ele>
        <time>2016-02-06T09:53:34Z</time>
      </trkpt>
      <trkpt lat="45.60302" lon="6.65559">
        <ele>1852</ele>
        <time>2016-02-06T09:53:36Z</time>
      </trkpt>
      <trkpt lat="45.60303" lon="6.65559">
        <ele>1853</ele>
        <time>2016-02-06T09:53:37Z</time>
      </trkpt>
      <trkpt lat="45.60305" lon="6.65559">
        <ele>1853</ele>
        <time>2016-02-06T09:53:38Z</time>
      </trkpt>
      <trkpt lat="45.60308" lon="6.65558">
        <ele>1854</ele>
        <time>2016-02-06T09:53:40Z</time>
      </trkpt>
      <trkpt lat="45.60309" lon="6.65557">
        <ele>1854</ele>
        <time>2016-02-06T09:53:41Z</time>
      </trkpt>
      <trkpt lat="45.6031" lon="6.65555">
        <ele>1854</ele>
        <time>2016-02-06T09:53:42Z</time>
      </trkpt>
      <trkpt lat="45.60312" lon="6.65554">
        <ele>1854</ele>
        <time>2016-02-06T09:53:44Z</time>
      </trkpt>
      <trkpt lat="45.60313" lon="6.65555">
        <ele>1854</ele>
        <time>2016-02-06T09:53:46Z</time>
      </trkpt>
      <trkpt lat="45.60315" lon="6.65554">
        <ele>1854</ele>
        <time>2016-02-06T09:53:50Z</time>
      </trkpt>
      <trkpt lat="45.60316" lon="6.65552">
        <ele>1854</ele>
        <time>2016-02-06T09:53:51Z</time>
      </trkpt>
      <trkpt lat="45.60317" lon="6.6555">
        <ele>1854</ele>
        <time>2016-02-06T09:53:53Z</time>
      </trkpt>
      <trkpt lat="45.60317" lon="6.65548">
        <ele>1854</ele>
        <time>2016-02-06T09:53:57Z</time>
      </trkpt>
      <trkpt lat="45.60319" lon="6.65548">
        <ele>1854</ele>
        <time>2016-02-06T09:54:00Z</time>
      </trkpt>
      <trkpt lat="45.6032" lon="6.65549">
        <ele>1855</ele>
        <time>2016-02-06T09:54:02Z</time>
      </trkpt>
      <trkpt lat="45.60319" lon="6.65551">
        <ele>1855</ele>
        <time>2016-02-06T09:54:03Z</time>
      </trkpt>
      <trkpt lat="45.6032" lon="6.65549">
        <ele>1855</ele>
        <time>2016-02-06T09:54:10Z</time>
      </trkpt>
      <trkpt lat="45.6032" lon="6.65546">
        <ele>1854</ele>
        <time>2016-02-06T09:54:12Z</time>
      </trkpt>
      <trkpt lat="45.60321" lon="6.65544">
        <ele>1854</ele>
        <time>2016-02-06T09:54:13Z</time>
      </trkpt>
      <trkpt lat="45.60321" lon="6.65543">
        <ele>1854</ele>
        <time>2016-02-06T09:54:15Z</time>
      </trkpt>
      <trkpt lat="45.60321" lon="6.65541">
        <ele>1854</ele>
        <time>2016-02-06T09:54:17Z</time>
      </trkpt>
      <trkpt lat="45.6032" lon="6.65542">
        <ele>1854</ele>
        <time>2016-02-06T09:54:20Z</time>
      </trkpt>
      <trkpt lat="45.60318" lon="6.65542">
        <ele>1854</ele>
        <time>2016-02-06T09:54:22Z</time>
      </trkpt>
      <trkpt lat="45.6032" lon="6.65538">
        <ele>1854</ele>
        <time>2016-02-06T09:54:24Z</time>
      </trkpt>
      <trkpt lat="45.60321" lon="6.65537">
        <ele>1854</ele>
        <time>2016-02-06T09:54:25Z</time>
      </trkpt>
      <trkpt lat="45.60323" lon="6.65537">
        <ele>1854</ele>
        <time>2016-02-06T09:54:26Z</time>
      </trkpt>
      <trkpt lat="45.60324" lon="6.65537">
        <ele>1855</ele>
        <time>2016-02-06T09:54:27Z</time>
      </trkpt>
      <trkpt lat="45.60326" lon="6.65535">
        <ele>1855</ele>
        <time>2016-02-06T09:54:29Z</time>
      </trkpt>
      <trkpt lat="45.60328" lon="6.65536">
        <ele>1855</ele>
        <time>2016-02-06T09:54:33Z</time>
      </trkpt>
      <trkpt lat="45.60329" lon="6.65534">
        <ele>1855</ele>
        <time>2016-02-06T09:54:34Z</time>
      </trkpt>
      <trkpt lat="45.60326" lon="6.65535">
        <ele>1855</ele>
        <time>2016-02-06T09:54:37Z</time>
      </trkpt>
      <trkpt lat="45.60328" lon="6.65534">
        <ele>1855</ele>
        <time>2016-02-06T09:54:42Z</time>
      </trkpt>
      <trkpt lat="45.60326" lon="6.65534">
        <ele>1855</ele>
        <time>2016-02-06T09:54:45Z</time>
      </trkpt>
      <trkpt lat="45.60326" lon="6.65536">
        <ele>1855</ele>
        <time>2016-02-06T09:54:47Z</time>
      </trkpt>
      <trkpt lat="45.60327" lon="6.65534">
        <ele>1855</ele>
        <time>2016-02-06T09:54:48Z</time>
      </trkpt>
      <trkpt lat="45.60328" lon="6.65531">
        <ele>1855</ele>
        <time>2016-02-06T09:54:50Z</time>
      </trkpt>
      <trkpt lat="45.60329" lon="6.65528">
        <ele>1855</ele>
        <time>2016-02-06T09:54:51Z</time>
      </trkpt>
      <trkpt lat="45.6033" lon="6.65526">
        <ele>1855</ele>
        <time>2016-02-06T09:54:53Z</time>
      </trkpt>
      <trkpt lat="45.60329" lon="6.65524">
        <ele>1855</ele>
        <time>2016-02-06T09:54:57Z</time>
      </trkpt>
      <trkpt lat="45.60327" lon="6.65524">
        <ele>1855</ele>
        <time>2016-02-06T09:54:58Z</time>
      </trkpt>
      <trkpt lat="45.60326" lon="6.65527">
        <ele>1855</ele>
        <time>2016-02-06T09:55:01Z</time>
      </trkpt>
      <trkpt lat="45.60321" lon="6.65534">
        <ele>1854</ele>
        <time>2016-02-06T09:55:02Z</time>
      </trkpt>
      <trkpt lat="45.60319" lon="6.65538">
        <ele>1854</ele>
        <time>2016-02-06T09:55:03Z</time>
      </trkpt>
      <trkpt lat="45.60319" lon="6.6554">
        <ele>1854</ele>
        <time>2016-02-06T09:55:04Z</time>
      </trkpt>
      <trkpt lat="45.6032" lon="6.65542">
        <ele>1854</ele>
        <time>2016-02-06T09:55:05Z</time>
      </trkpt>
      <trkpt lat="45.60322" lon="6.6554">
        <ele>1854</ele>
        <time>2016-02-06T09:55:07Z</time>
      </trkpt>
      <trkpt lat="45.60322" lon="6.65538">
        <ele>1854</ele>
        <time>2016-02-06T09:55:08Z</time>
      </trkpt>
      <trkpt lat="45.60324" lon="6.65538">
        <ele>1854</ele>
        <time>2016-02-06T09:55:09Z</time>
      </trkpt>
      <trkpt lat="45.60326" lon="6.65537">
        <ele>1855</ele>
        <time>2016-02-06T09:55:10Z</time>
      </trkpt>
      <trkpt lat="45.60329" lon="6.65536">
        <ele>1855</ele>
        <time>2016-02-06T09:55:11Z</time>
      </trkpt>
      <trkpt lat="45.60331" lon="6.65535">
        <ele>1855</ele>
        <time>2016-02-06T09:55:12Z</time>
      </trkpt>
      <trkpt lat="45.60332" lon="6.65535">
        <ele>1855</ele>
        <time>2016-02-06T09:55:14Z</time>
      </trkpt>
      <trkpt lat="45.60332" lon="6.65533">
        <ele>1855</ele>
        <time>2016-02-06T09:55:15Z</time>
      </trkpt>
      <trkpt lat="45.60331" lon="6.6553">
        <ele>1855</ele>
        <time>2016-02-06T09:55:17Z</time>
      </trkpt>
      <trkpt lat="45.60332" lon="6.65528">
        <ele>1855</ele>
        <time>2016-02-06T09:55:18Z</time>
      </trkpt>
      <trkpt lat="45.60331" lon="6.65526">
        <ele>1855</ele>
        <time>2016-02-06T09:55:19Z</time>
      </trkpt>
      <trkpt lat="45.60333" lon="6.65523">
        <ele>1856</ele>
        <time>2016-02-06T09:55:20Z</time>
      </trkpt>
      <trkpt lat="45.60333" lon="6.65521">
        <ele>1856</ele>
        <time>2016-02-06T09:55:21Z</time>
      </trkpt>
      <trkpt lat="45.60333" lon="6.65519">
        <ele>1856</ele>
        <time>2016-02-06T09:55:22Z</time>
      </trkpt>
      <trkpt lat="45.60334" lon="6.65518">
        <ele>1869</ele>
        <time>2016-02-06T09:55:24Z</time>
      </trkpt>
      <trkpt lat="45.60336" lon="6.65517">
        <ele>1869</ele>
        <time>2016-02-06T09:55:25Z</time>
      </trkpt>
      <trkpt lat="45.60337" lon="6.65515">
        <ele>1868</ele>
        <time>2016-02-06T09:55:27Z</time>
      </trkpt>
      <trkpt lat="45.60338" lon="6.65515">
        <ele>1869</ele>
        <time>2016-02-06T09:55:28Z</time>
      </trkpt>
      <trkpt lat="45.6034" lon="6.65512">
        <ele>1868</ele>
        <time>2016-02-06T09:55:29Z</time>
      </trkpt>
      <trkpt lat="45.60342" lon="6.65511">
        <ele>1868</ele>
        <time>2016-02-06T09:55:30Z</time>
      </trkpt>
      <trkpt lat="45.60343" lon="6.6551">
        <ele>1868</ele>
        <time>2016-02-06T09:55:31Z</time>
      </trkpt>
      <trkpt lat="45.60346" lon="6.65508">
        <ele>1869</ele>
        <time>2016-02-06T09:55:33Z</time>
      </trkpt>
      <trkpt lat="45.60347" lon="6.65508">
        <ele>1869</ele>
        <time>2016-02-06T09:55:34Z</time>
      </trkpt>
      <trkpt lat="45.60346" lon="6.65506">
        <ele>1868</ele>
        <time>2016-02-06T09:55:37Z</time>
      </trkpt>
      <trkpt lat="45.60347" lon="6.65505">
        <ele>1869</ele>
        <time>2016-02-06T09:55:39Z</time>
      </trkpt>
      <trkpt lat="45.60347" lon="6.65504">
        <ele>1868</ele>
        <time>2016-02-06T09:55:40Z</time>
      </trkpt>
      <trkpt lat="45.60347" lon="6.65501">
        <ele>1868</ele>
        <time>2016-02-06T09:55:42Z</time>
      </trkpt>
      <trkpt lat="45.60348" lon="6.655">
        <ele>1868</ele>
        <time>2016-02-06T09:55:44Z</time>
      </trkpt>
      <trkpt lat="45.60346" lon="6.65498">
        <ele>1867</ele>
        <time>2016-02-06T09:55:46Z</time>
      </trkpt>
      <trkpt lat="45.60348" lon="6.65499">
        <ele>1868</ele>
        <time>2016-02-06T09:55:49Z</time>
      </trkpt>
      <trkpt lat="45.60349" lon="6.65498">
        <ele>1868</ele>
        <time>2016-02-06T09:55:53Z</time>
      </trkpt>
      <trkpt lat="45.6035" lon="6.65498">
        <ele>1869</ele>
        <time>2016-02-06T09:55:54Z</time>
      </trkpt>
      <trkpt lat="45.60351" lon="6.65496">
        <ele>1869</ele>
        <time>2016-02-06T09:55:56Z</time>
      </trkpt>
      <trkpt lat="45.6035" lon="6.65494">
        <ele>1869</ele>
        <time>2016-02-06T09:55:57Z</time>
      </trkpt>
      <trkpt lat="45.6035" lon="6.65492">
        <ele>1869</ele>
        <time>2016-02-06T09:56:00Z</time>
      </trkpt>
      <trkpt lat="45.60351" lon="6.6549">
        <ele>1869</ele>
        <time>2016-02-06T09:56:01Z</time>
      </trkpt>
      <trkpt lat="45.60351" lon="6.65492">
        <ele>1869</ele>
        <time>2016-02-06T09:56:03Z</time>
      </trkpt>
      <trkpt lat="45.60349" lon="6.65495">
        <ele>1868</ele>
        <time>2016-02-06T09:56:04Z</time>
      </trkpt>
      <trkpt lat="45.60345" lon="6.65497">
        <ele>1867</ele>
        <time>2016-02-06T09:56:05Z</time>
      </trkpt>
      <trkpt lat="45.60344" lon="6.65498">
        <ele>1866</ele>
        <time>2016-02-06T09:56:06Z</time>
      </trkpt>
      <trkpt lat="45.60341" lon="6.65494">
        <ele>1866</ele>
        <time>2016-02-06T09:56:09Z</time>
      </trkpt>
      <trkpt lat="45.60342" lon="6.65491">
        <ele>1867</ele>
        <time>2016-02-06T09:56:10Z</time>
      </trkpt>
      <trkpt lat="45.60343" lon="6.65488">
        <ele>1868</ele>
        <time>2016-02-06T09:56:11Z</time>
      </trkpt>
      <trkpt lat="45.60343" lon="6.65486">
        <ele>1868</ele>
        <time>2016-02-06T09:56:12Z</time>
      </trkpt>
      <trkpt lat="45.60344" lon="6.65483">
        <ele>1869</ele>
        <time>2016-02-06T09:56:13Z</time>
      </trkpt>
      <trkpt lat="45.60346" lon="6.65481">
        <ele>1870</ele>
        <time>2016-02-06T09:56:14Z</time>
      </trkpt>
      <trkpt lat="45.60347" lon="6.6548">
        <ele>1870</ele>
        <time>2016-02-06T09:56:16Z</time>
      </trkpt>
      <trkpt lat="45.60346" lon="6.65479">
        <ele>1870</ele>
        <time>2016-02-06T09:56:19Z</time>
      </trkpt>
      <trkpt lat="45.60349" lon="6.65477">
        <ele>1871</ele>
        <time>2016-02-06T09:56:22Z</time>
      </trkpt>
      <trkpt lat="45.6035" lon="6.65478">
        <ele>1871</ele>
        <time>2016-02-06T09:56:23Z</time>
      </trkpt>
      <trkpt lat="45.60351" lon="6.65477">
        <ele>1871</ele>
        <time>2016-02-06T09:56:24Z</time>
      </trkpt>
      <trkpt lat="45.60353" lon="6.65476">
        <ele>1871</ele>
        <time>2016-02-06T09:56:29Z</time>
      </trkpt>
      <trkpt lat="45.60352" lon="6.65473">
        <ele>1872</ele>
        <time>2016-02-06T09:56:30Z</time>
      </trkpt>
      <trkpt lat="45.60355" lon="6.65472">
        <ele>1872</ele>
        <time>2016-02-06T09:56:32Z</time>
      </trkpt>
      <trkpt lat="45.60358" lon="6.6547">
        <ele>1873</ele>
        <time>2016-02-06T09:56:33Z</time>
      </trkpt>
      <trkpt lat="45.60358" lon="6.65468">
        <ele>1873</ele>
        <time>2016-02-06T09:56:35Z</time>
      </trkpt>
      <trkpt lat="45.60358" lon="6.65466">
        <ele>1873</ele>
        <time>2016-02-06T09:56:36Z</time>
      </trkpt>
      <trkpt lat="45.60358" lon="6.65464">
        <ele>1873</ele>
        <time>2016-02-06T09:56:37Z</time>
      </trkpt>
      <trkpt lat="45.60358" lon="6.65462">
        <ele>1873</ele>
        <time>2016-02-06T09:56:38Z</time>
      </trkpt>
      <trkpt lat="45.60358" lon="6.6546">
        <ele>1873</ele>
        <time>2016-02-06T09:56:39Z</time>
      </trkpt>
      <trkpt lat="45.6036" lon="6.65459">
        <ele>1874</ele>
        <time>2016-02-06T09:56:42Z</time>
      </trkpt>
      <trkpt lat="45.6036" lon="6.65457">
        <ele>1874</ele>
        <time>2016-02-06T09:56:43Z</time>
      </trkpt>
      <trkpt lat="45.60361" lon="6.65454">
        <ele>1874</ele>
        <time>2016-02-06T09:56:45Z</time>
      </trkpt>
      <trkpt lat="45.60363" lon="6.65452">
        <ele>1874</ele>
        <time>2016-02-06T09:56:46Z</time>
      </trkpt>
      <trkpt lat="45.60362" lon="6.65451">
        <ele>1874</ele>
        <time>2016-02-06T09:56:47Z</time>
      </trkpt>
      <trkpt lat="45.60364" lon="6.65448">
        <ele>1874</ele>
        <time>2016-02-06T09:56:52Z</time>
      </trkpt>
      <trkpt lat="45.60363" lon="6.65446">
        <ele>1874</ele>
        <time>2016-02-06T09:56:55Z</time>
      </trkpt>
      <trkpt lat="45.60364" lon="6.65444">
        <ele>1875</ele>
        <time>2016-02-06T09:56:57Z</time>
      </trkpt>
      <trkpt lat="45.60366" lon="6.65442">
        <ele>1875</ele>
        <time>2016-02-06T09:56:59Z</time>
      </trkpt>
      <trkpt lat="45.60366" lon="6.65439">
        <ele>1875</ele>
        <time>2016-02-06T09:57:00Z</time>
      </trkpt>
      <trkpt lat="45.60367" lon="6.65438">
        <ele>1875</ele>
        <time>2016-02-06T09:57:01Z</time>
      </trkpt>
      <trkpt lat="45.60367" lon="6.65436">
        <ele>1875</ele>
        <time>2016-02-06T09:57:02Z</time>
      </trkpt>
      <trkpt lat="45.60367" lon="6.65434">
        <ele>1875</ele>
        <time>2016-02-06T09:57:03Z</time>
      </trkpt>
      <trkpt lat="45.60368" lon="6.65432">
        <ele>1875</ele>
        <time>2016-02-06T09:57:04Z</time>
      </trkpt>
      <trkpt lat="45.60367" lon="6.65431">
        <ele>1875</ele>
        <time>2016-02-06T09:57:08Z</time>
      </trkpt>
      <trkpt lat="45.60368" lon="6.65428">
        <ele>1875</ele>
        <time>2016-02-06T09:57:10Z</time>
      </trkpt>
      <trkpt lat="45.60368" lon="6.65427">
        <ele>1875</ele>
        <time>2016-02-06T09:57:12Z</time>
      </trkpt>
      <trkpt lat="45.6037" lon="6.65426">
        <ele>1876</ele>
        <time>2016-02-06T09:57:14Z</time>
      </trkpt>
      <trkpt lat="45.60371" lon="6.65427">
        <ele>1876</ele>
        <time>2016-02-06T09:57:17Z</time>
      </trkpt>
      <trkpt lat="45.6037" lon="6.65424">
        <ele>1876</ele>
        <time>2016-02-06T09:57:21Z</time>
      </trkpt>
      <trkpt lat="45.6037" lon="6.65422">
        <ele>1876</ele>
        <time>2016-02-06T09:57:23Z</time>
      </trkpt>
      <trkpt lat="45.60369" lon="6.6542">
        <ele>1875</ele>
        <time>2016-02-06T09:57:25Z</time>
      </trkpt>
      <trkpt lat="45.60368" lon="6.65417">
        <ele>1875</ele>
        <time>2016-02-06T09:57:27Z</time>
      </trkpt>
      <trkpt lat="45.60368" lon="6.65415">
        <ele>1883</ele>
        <time>2016-02-06T09:57:28Z</time>
      </trkpt>
      <trkpt lat="45.60366" lon="6.65414">
        <ele>1883</ele>
        <time>2016-02-06T09:57:30Z</time>
      </trkpt>
      <trkpt lat="45.60367" lon="6.65415">
        <ele>1883</ele>
        <time>2016-02-06T09:57:32Z</time>
      </trkpt>
      <trkpt lat="45.60368" lon="6.65418">
        <ele>1875</ele>
        <time>2016-02-06T09:57:34Z</time>
      </trkpt>
      <trkpt lat="45.60367" lon="6.65421">
        <ele>1875</ele>
        <time>2016-02-06T09:57:36Z</time>
      </trkpt>
      <trkpt lat="45.60368" lon="6.65422">
        <ele>1875</ele>
        <time>2016-02-06T09:57:37Z</time>
      </trkpt>
      <trkpt lat="45.60367" lon="6.65425">
        <ele>1875</ele>
        <time>2016-02-06T09:57:39Z</time>
      </trkpt>
      <trkpt lat="45.60368" lon="6.65427">
        <ele>1875</ele>
        <time>2016-02-06T09:57:40Z</time>
      </trkpt>
      <trkpt lat="45.6037" lon="6.65427">
        <ele>1876</ele>
        <time>2016-02-06T09:57:41Z</time>
      </trkpt>
      <trkpt lat="45.60371" lon="6.65426">
        <ele>1876</ele>
        <time>2016-02-06T09:57:42Z</time>
      </trkpt>
      <trkpt lat="45.60373" lon="6.65426">
        <ele>1876</ele>
        <time>2016-02-06T09:57:44Z</time>
      </trkpt>
      <trkpt lat="45.60374" lon="6.65426">
        <ele>1877</ele>
        <time>2016-02-06T09:57:46Z</time>
      </trkpt>
      <trkpt lat="45.60373" lon="6.65425">
        <ele>1876</ele>
        <time>2016-02-06T09:57:48Z</time>
      </trkpt>
      <trkpt lat="45.6037" lon="6.65423">
        <ele>1876</ele>
        <time>2016-02-06T09:57:52Z</time>
      </trkpt>
      <trkpt lat="45.60369" lon="6.65421">
        <ele>1875</ele>
        <time>2016-02-06T09:57:54Z</time>
      </trkpt>
      <trkpt lat="45.60367" lon="6.6542">
        <ele>1875</ele>
        <time>2016-02-06T09:57:56Z</time>
      </trkpt>
      <trkpt lat="45.60366" lon="6.65418">
        <ele>1875</ele>
        <time>2016-02-06T09:57:58Z</time>
      </trkpt>
      <trkpt lat="45.60366" lon="6.65417">
        <ele>1875</ele>
        <time>2016-02-06T09:58:00Z</time>
      </trkpt>
      <trkpt lat="45.60367" lon="6.65415">
        <ele>1883</ele>
        <time>2016-02-06T09:58:05Z</time>
      </trkpt>
      <trkpt lat="45.60369" lon="6.65416">
        <ele>1883</ele>
        <time>2016-02-06T09:58:08Z</time>
      </trkpt>
      <trkpt lat="45.60368" lon="6.65413">
        <ele>1883</ele>
        <time>2016-02-06T09:58:11Z</time>
      </trkpt>
      <trkpt lat="45.60369" lon="6.65412">
        <ele>1883</ele>
        <time>2016-02-06T09:58:12Z</time>
      </trkpt>
      <trkpt lat="45.60371" lon="6.65411">
        <ele>1884</ele>
        <time>2016-02-06T09:58:13Z</time>
      </trkpt>
      <trkpt lat="45.60373" lon="6.65409">
        <ele>1884</ele>
        <time>2016-02-06T09:58:14Z</time>
      </trkpt>
      <trkpt lat="45.60375" lon="6.65408">
        <ele>1885</ele>
        <time>2016-02-06T09:58:15Z</time>
      </trkpt>
      <trkpt lat="45.60376" lon="6.65406">
        <ele>1885</ele>
        <time>2016-02-06T09:58:16Z</time>
      </trkpt>
      <trkpt lat="45.60377" lon="6.65402">
        <ele>1886</ele>
        <time>2016-02-06T09:58:17Z</time>
      </trkpt>
      <trkpt lat="45.60378" lon="6.65401">
        <ele>1886</ele>
        <time>2016-02-06T09:58:18Z</time>
      </trkpt>
      <trkpt lat="45.6038" lon="6.65399">
        <ele>1886</ele>
        <time>2016-02-06T09:58:19Z</time>
      </trkpt>
      <trkpt lat="45.60382" lon="6.65397">
        <ele>1887</ele>
        <time>2016-02-06T09:58:20Z</time>
      </trkpt>
      <trkpt lat="45.60383" lon="6.65396">
        <ele>1887</ele>
        <time>2016-02-06T09:58:21Z</time>
      </trkpt>
      <trkpt lat="45.60384" lon="6.65396">
        <ele>1887</ele>
        <time>2016-02-06T09:58:22Z</time>
      </trkpt>
      <trkpt lat="45.60386" lon="6.65395">
        <ele>1887</ele>
        <time>2016-02-06T09:58:23Z</time>
      </trkpt>
      <trkpt lat="45.60387" lon="6.65395">
        <ele>1888</ele>
        <time>2016-02-06T09:58:24Z</time>
      </trkpt>
      <trkpt lat="45.60386" lon="6.65395">
        <ele>1887</ele>
        <time>2016-02-06T09:58:25Z</time>
      </trkpt>
      <trkpt lat="45.60384" lon="6.65396">
        <ele>1887</ele>
        <time>2016-02-06T09:58:26Z</time>
      </trkpt>
      <trkpt lat="45.60383" lon="6.654">
        <ele>1887</ele>
        <time>2016-02-06T09:58:27Z</time>
      </trkpt>
      <trkpt lat="45.60381" lon="6.65401">
        <ele>1886</ele>
        <time>2016-02-06T09:58:29Z</time>
      </trkpt>
      <trkpt lat="45.60379" lon="6.65403">
        <ele>1886</ele>
        <time>2016-02-06T09:58:30Z</time>
      </trkpt>
      <trkpt lat="45.60378" lon="6.65405">
        <ele>1886</ele>
        <time>2016-02-06T09:58:31Z</time>
      </trkpt>
      <trkpt lat="45.60377" lon="6.65408">
        <ele>1885</ele>
        <time>2016-02-06T09:58:32Z</time>
      </trkpt>
      <trkpt lat="45.60377" lon="6.6541">
        <ele>1885</ele>
        <time>2016-02-06T09:58:33Z</time>
      </trkpt>
      <trkpt lat="45.60376" lon="6.6541">
        <ele>1885</ele>
        <time>2016-02-06T09:58:34Z</time>
      </trkpt>
      <trkpt lat="45.60374" lon="6.65411">
        <ele>1885</ele>
        <time>2016-02-06T09:58:35Z</time>
      </trkpt>
      <trkpt lat="45.60374" lon="6.65414">
        <ele>1884</ele>
        <time>2016-02-06T09:58:37Z</time>
      </trkpt>
      <trkpt lat="45.60373" lon="6.65413">
        <ele>1884</ele>
        <time>2016-02-06T09:58:41Z</time>
      </trkpt>
      <trkpt lat="45.60373" lon="6.65415">
        <ele>1884</ele>
        <time>2016-02-06T09:58:47Z</time>
      </trkpt>
      <trkpt lat="45.60374" lon="6.65415">
        <ele>1884</ele>
        <time>2016-02-06T09:58:49Z</time>
      </trkpt>
      <trkpt lat="45.60374" lon="6.65413">
        <ele>1884</ele>
        <time>2016-02-06T09:58:57Z</time>
      </trkpt>
      <trkpt lat="45.60373" lon="6.65412">
        <ele>1884</ele>
        <time>2016-02-06T09:59:00Z</time>
      </trkpt>
      <trkpt lat="45.60374" lon="6.65411">
        <ele>1885</ele>
        <time>2016-02-06T09:59:01Z</time>
      </trkpt>
      <trkpt lat="45.60374" lon="6.65409">
        <ele>1885</ele>
        <time>2016-02-06T09:59:03Z</time>
      </trkpt>
      <trkpt lat="45.60376" lon="6.65405">
        <ele>1885</ele>
        <time>2016-02-06T09:59:05Z</time>
      </trkpt>
      <trkpt lat="45.60379" lon="6.65404">
        <ele>1886</ele>
        <time>2016-02-06T09:59:07Z</time>
      </trkpt>
      <trkpt lat="45.60377" lon="6.65405">
        <ele>1885</ele>
        <time>2016-02-06T09:59:08Z</time>
      </trkpt>
      <trkpt lat="45.60375" lon="6.65405">
        <ele>1885</ele>
        <time>2016-02-06T09:59:09Z</time>
      </trkpt>
      <trkpt lat="45.60374" lon="6.65405">
        <ele>1885</ele>
        <time>2016-02-06T09:59:11Z</time>
      </trkpt>
      <trkpt lat="45.60375" lon="6.65404">
        <ele>1885</ele>
        <time>2016-02-06T09:59:14Z</time>
      </trkpt>
      <trkpt lat="45.60376" lon="6.65405">
        <ele>1885</ele>
        <time>2016-02-06T09:59:15Z</time>
      </trkpt>
      <trkpt lat="45.60376" lon="6.65407">
        <ele>1885</ele>
        <time>2016-02-06T09:59:19Z</time>
      </trkpt>
      <trkpt lat="45.60376" lon="6.65409">
        <ele>1885</ele>
        <time>2016-02-06T09:59:20Z</time>
      </trkpt>
      <trkpt lat="45.60375" lon="6.65411">
        <ele>1885</ele>
        <time>2016-02-06T09:59:23Z</time>
      </trkpt>
      <trkpt lat="45.60373" lon="6.65411">
        <ele>1884</ele>
        <time>2016-02-06T09:59:24Z</time>
      </trkpt>
      <trkpt lat="45.60372" lon="6.65411">
        <ele>1884</ele>
        <time>2016-02-06T09:59:25Z</time>
      </trkpt>
      <trkpt lat="45.60371" lon="6.6541">
        <ele>1884</ele>
        <time>2016-02-06T09:59:28Z</time>
      </trkpt>
      <trkpt lat="45.6037" lon="6.65409">
        <ele>1884</ele>
        <time>2016-02-06T09:59:31Z</time>
      </trkpt>
      <trkpt lat="45.60372" lon="6.65411">
        <ele>1884</ele>
        <time>2016-02-06T09:59:35Z</time>
      </trkpt>
      <trkpt lat="45.60372" lon="6.65412">
        <ele>1884</ele>
        <time>2016-02-06T09:59:38Z</time>
      </trkpt>
      <trkpt lat="45.60371" lon="6.65414">
        <ele>1884</ele>
        <time>2016-02-06T09:59:41Z</time>
      </trkpt>
      <trkpt lat="45.60371" lon="6.65412">
        <ele>1884</ele>
        <time>2016-02-06T09:59:46Z</time>
      </trkpt>
      <trkpt lat="45.60369" lon="6.65411">
        <ele>1883</ele>
        <time>2016-02-06T09:59:49Z</time>
      </trkpt>
      <trkpt lat="45.60368" lon="6.6541">
        <ele>1883</ele>
        <time>2016-02-06T09:59:51Z</time>
      </trkpt>
      <trkpt lat="45.6037" lon="6.65411">
        <ele>1884</ele>
        <time>2016-02-06T09:59:53Z</time>
      </trkpt>
      <trkpt lat="45.60371" lon="6.65412">
        <ele>1884</ele>
        <time>2016-02-06T09:59:54Z</time>
      </trkpt>
      <trkpt lat="45.60373" lon="6.65412">
        <ele>1884</ele>
        <time>2016-02-06T09:59:56Z</time>
      </trkpt>
      <trkpt lat="45.60371" lon="6.65412">
        <ele>1884</ele>
        <time>2016-02-06T09:59:57Z</time>
      </trkpt>
      <trkpt lat="45.60371" lon="6.65414">
        <ele>1884</ele>
        <time>2016-02-06T09:59:59Z</time>
      </trkpt>
      <trkpt lat="45.60369" lon="6.65416">
        <ele>1883</ele>
        <time>2016-02-06T10:00:00Z</time>
      </trkpt>
      <trkpt lat="45.60368" lon="6.65417">
        <ele>1875</ele>
        <time>2016-02-06T10:00:01Z</time>
      </trkpt>
      <trkpt lat="45.60369" lon="6.65419">
        <ele>1876</ele>
        <time>2016-02-06T10:00:03Z</time>
      </trkpt>
      <trkpt lat="45.6037" lon="6.65418">
        <ele>1876</ele>
        <time>2016-02-06T10:00:07Z</time>
      </trkpt>
      <trkpt lat="45.60368" lon="6.65422">
        <ele>1875</ele>
        <time>2016-02-06T10:00:09Z</time>
      </trkpt>
      <trkpt lat="45.60366" lon="6.6542">
        <ele>1875</ele>
        <time>2016-02-06T10:00:11Z</time>
      </trkpt>
      <trkpt lat="45.60365" lon="6.6542">
        <ele>1875</ele>
        <time>2016-02-06T10:00:12Z</time>
      </trkpt>
      <trkpt lat="45.60363" lon="6.65417">
        <ele>1874</ele>
        <time>2016-02-06T10:00:15Z</time>
      </trkpt>
      <trkpt lat="45.60364" lon="6.6542">
        <ele>1874</ele>
        <time>2016-02-06T10:00:20Z</time>
      </trkpt>
      <trkpt lat="45.60363" lon="6.6542">
        <ele>1874</ele>
        <time>2016-02-06T10:00:24Z</time>
      </trkpt>
      <trkpt lat="45.60364" lon="6.65419">
        <ele>1875</ele>
        <time>2016-02-06T10:00:28Z</time>
      </trkpt>
      <trkpt lat="45.60366" lon="6.65417">
        <ele>1875</ele>
        <time>2016-02-06T10:00:29Z</time>
      </trkpt>
      <trkpt lat="45.60368" lon="6.65416">
        <ele>1883</ele>
        <time>2016-02-06T10:00:31Z</time>
      </trkpt>
      <trkpt lat="45.60369" lon="6.65416">
        <ele>1883</ele>
        <time>2016-02-06T10:00:32Z</time>
      </trkpt>
      <trkpt lat="45.60371" lon="6.65417">
        <ele>1876</ele>
        <time>2016-02-06T10:00:34Z</time>
      </trkpt>
      <trkpt lat="45.6037" lon="6.65419">
        <ele>1876</ele>
        <time>2016-02-06T10:00:36Z</time>
      </trkpt>
      <trkpt lat="45.60372" lon="6.65419">
        <ele>1876</ele>
        <time>2016-02-06T10:00:37Z</time>
      </trkpt>
      <trkpt lat="45.60373" lon="6.65418">
        <ele>1876</ele>
        <time>2016-02-06T10:00:38Z</time>
      </trkpt>
      <trkpt lat="45.60374" lon="6.65419">
        <ele>1877</ele>
        <time>2016-02-06T10:00:40Z</time>
      </trkpt>
      <trkpt lat="45.60376" lon="6.6542">
        <ele>1877</ele>
        <time>2016-02-06T10:00:41Z</time>
      </trkpt>
      <trkpt lat="45.60376" lon="6.65421">
        <ele>1877</ele>
        <time>2016-02-06T10:00:43Z</time>
      </trkpt>
      <trkpt lat="45.60375" lon="6.65422">
        <ele>1877</ele>
        <time>2016-02-06T10:00:44Z</time>
      </trkpt>
      <trkpt lat="45.60373" lon="6.65423">
        <ele>1876</ele>
        <time>2016-02-06T10:00:45Z</time>
      </trkpt>
      <trkpt lat="45.60371" lon="6.65422">
        <ele>1876</ele>
        <time>2016-02-06T10:00:46Z</time>
      </trkpt>
      <trkpt lat="45.6037" lon="6.65422">
        <ele>1876</ele>
        <time>2016-02-06T10:00:47Z</time>
      </trkpt>
      <trkpt lat="45.60368" lon="6.65422">
        <ele>1875</ele>
        <time>2016-02-06T10:00:48Z</time>
      </trkpt>
      <trkpt lat="45.60366" lon="6.65424">
        <ele>1875</ele>
        <time>2016-02-06T10:00:50Z</time>
      </trkpt>
      <trkpt lat="45.60366" lon="6.65426">
        <ele>1875</ele>
        <time>2016-02-06T10:00:52Z</time>
      </trkpt>
      <trkpt lat="45.60367" lon="6.65429">
        <ele>1875</ele>
        <time>2016-02-06T10:00:54Z</time>
      </trkpt>
      <trkpt lat="45.60366" lon="6.65431">
        <ele>1875</ele>
        <time>2016-02-06T10:00:55Z</time>
      </trkpt>
      <trkpt lat="45.60364" lon="6.65433">
        <ele>1875</ele>
        <time>2016-02-06T10:00:56Z</time>
      </trkpt>
      <trkpt lat="45.60362" lon="6.65435">
        <ele>1874</ele>
        <time>2016-02-06T10:00:57Z</time>
      </trkpt>
      <trkpt lat="45.60359" lon="6.65437">
        <ele>1874</ele>
        <time>2016-02-06T10:00:58Z</time>
      </trkpt>
      <trkpt lat="45.60357" lon="6.65438">
        <ele>1874</ele>
        <time>2016-02-06T10:00:59Z</time>
      </trkpt>
      <trkpt lat="45.60355" lon="6.65439">
        <ele>1873</ele>
        <time>2016-02-06T10:01:00Z</time>
      </trkpt>
      <trkpt lat="45.60356" lon="6.65438">
        <ele>1873</ele>
        <time>2016-02-06T10:01:02Z</time>
      </trkpt>
      <trkpt lat="45.60357" lon="6.65437">
        <ele>1873</ele>
        <time>2016-02-06T10:01:03Z</time>
      </trkpt>
      <trkpt lat="45.60358" lon="6.65435">
        <ele>1874</ele>
        <time>2016-02-06T10:01:05Z</time>
      </trkpt>
      <trkpt lat="45.60359" lon="6.65434">
        <ele>1874</ele>
        <time>2016-02-06T10:01:08Z</time>
      </trkpt>
      <trkpt lat="45.6036" lon="6.65434">
        <ele>1874</ele>
        <time>2016-02-06T10:01:09Z</time>
      </trkpt>
      <trkpt lat="45.60361" lon="6.65434">
        <ele>1874</ele>
        <time>2016-02-06T10:01:11Z</time>
      </trkpt>
      <trkpt lat="45.60363" lon="6.65433">
        <ele>1874</ele>
        <time>2016-02-06T10:01:14Z</time>
      </trkpt>
      <trkpt lat="45.60365" lon="6.6543">
        <ele>1875</ele>
        <time>2016-02-06T10:01:16Z</time>
      </trkpt>
      <trkpt lat="45.60366" lon="6.65428">
        <ele>1875</ele>
        <time>2016-02-06T10:01:17Z</time>
      </trkpt>
      <trkpt lat="45.60369" lon="6.65426">
        <ele>1875</ele>
        <time>2016-02-06T10:01:18Z</time>
      </trkpt>
      <trkpt lat="45.60369" lon="6.65424">
        <ele>1876</ele>
        <time>2016-02-06T10:01:19Z</time>
      </trkpt>
      <trkpt lat="45.6037" lon="6.65422">
        <ele>1876</ele>
        <time>2016-02-06T10:01:20Z</time>
      </trkpt>
      <trkpt lat="45.60371" lon="6.65421">
        <ele>1876</ele>
        <time>2016-02-06T10:01:21Z</time>
      </trkpt>
      <trkpt lat="45.60373" lon="6.65419">
        <ele>1876</ele>
        <time>2016-02-06T10:01:22Z</time>
      </trkpt>
      <trkpt lat="45.60374" lon="6.65418">
        <ele>1877</ele>
        <time>2016-02-06T10:01:23Z</time>
      </trkpt>
      <trkpt lat="45.60377" lon="6.65414">
        <ele>1885</ele>
        <time>2016-02-06T10:01:25Z</time>
      </trkpt>
      <trkpt lat="45.60377" lon="6.65413">
        <ele>1885</ele>
        <time>2016-02-06T10:01:26Z</time>
      </trkpt>
      <trkpt lat="45.60379" lon="6.65411">
        <ele>1885</ele>
        <time>2016-02-06T10:01:28Z</time>
      </trkpt>
      <trkpt lat="45.60381" lon="6.65411">
        <ele>1886</ele>
        <time>2016-02-06T10:01:31Z</time>
      </trkpt>
      <trkpt lat="45.60382" lon="6.65412">
        <ele>1886</ele>
        <time>2016-02-06T10:01:33Z</time>
      </trkpt>
      <trkpt lat="45.60385" lon="6.65412">
        <ele>1886</ele>
        <time>2016-02-06T10:01:35Z</time>
      </trkpt>
      <trkpt lat="45.60387" lon="6.65412">
        <ele>1887</ele>
        <time>2016-02-06T10:01:36Z</time>
      </trkpt>
      <trkpt lat="45.60389" lon="6.6541">
        <ele>1887</ele>
        <time>2016-02-06T10:01:38Z</time>
      </trkpt>
      <trkpt lat="45.60387" lon="6.6541">
        <ele>1887</ele>
        <time>2016-02-06T10:01:39Z</time>
      </trkpt>
      <trkpt lat="45.60388" lon="6.6541">
        <ele>1887</ele>
        <time>2016-02-06T10:01:40Z</time>
      </trkpt>
      <trkpt lat="45.60389" lon="6.65409">
        <ele>1887</ele>
        <time>2016-02-06T10:01:42Z</time>
      </trkpt>
      <trkpt lat="45.60388" lon="6.6541">
        <ele>1887</ele>
        <time>2016-02-06T10:01:43Z</time>
      </trkpt>
      <trkpt lat="45.6039" lon="6.65409">
        <ele>1887</ele>
        <time>2016-02-06T10:01:46Z</time>
      </trkpt>
      <trkpt lat="45.60391" lon="6.65407">
        <ele>1888</ele>
        <time>2016-02-06T10:01:48Z</time>
      </trkpt>
      <trkpt lat="45.60393" lon="6.65406">
        <ele>1888</ele>
        <time>2016-02-06T10:01:49Z</time>
      </trkpt>
      <trkpt lat="45.60395" lon="6.65406">
        <ele>1888</ele>
        <time>2016-02-06T10:01:51Z</time>
      </trkpt>
      <trkpt lat="45.60397" lon="6.65406">
        <ele>1888</ele>
        <time>2016-02-06T10:01:52Z</time>
      </trkpt>
      <trkpt lat="45.60399" lon="6.65406">
        <ele>1888</ele>
        <time>2016-02-06T10:01:56Z</time>
      </trkpt>
      <trkpt lat="45.60397" lon="6.65408">
        <ele>1888</ele>
        <time>2016-02-06T10:02:00Z</time>
      </trkpt>
      <trkpt lat="45.60395" lon="6.65408">
        <ele>1888</ele>
        <time>2016-02-06T10:02:01Z</time>
      </trkpt>
      <trkpt lat="45.60396" lon="6.6541">
        <ele>1888</ele>
        <time>2016-02-06T10:02:04Z</time>
      </trkpt>
      <trkpt lat="45.60395" lon="6.65413">
        <ele>1888</ele>
        <time>2016-02-06T10:02:07Z</time>
      </trkpt>
      <trkpt lat="45.60394" lon="6.65414">
        <ele>1888</ele>
        <time>2016-02-06T10:02:08Z</time>
      </trkpt>
      <trkpt lat="45.60394" lon="6.65412">
        <ele>1888</ele>
        <time>2016-02-06T10:02:10Z</time>
      </trkpt>
      <trkpt lat="45.60397" lon="6.6541">
        <ele>1888</ele>
        <time>2016-02-06T10:02:11Z</time>
      </trkpt>
      <trkpt lat="45.60398" lon="6.65409">
        <ele>1888</ele>
        <time>2016-02-06T10:02:12Z</time>
      </trkpt>
      <trkpt lat="45.60399" lon="6.65408">
        <ele>1888</ele>
        <time>2016-02-06T10:02:15Z</time>
      </trkpt>
      <trkpt lat="45.604" lon="6.65406">
        <ele>1889</ele>
        <time>2016-02-06T10:02:17Z</time>
      </trkpt>
      <trkpt lat="45.60402" lon="6.65404">
        <ele>1889</ele>
        <time>2016-02-06T10:02:18Z</time>
      </trkpt>
      <trkpt lat="45.60403" lon="6.65403">
        <ele>1889</ele>
        <time>2016-02-06T10:02:19Z</time>
      </trkpt>
      <trkpt lat="45.60403" lon="6.65401">
        <ele>1889</ele>
        <time>2016-02-06T10:02:22Z</time>
      </trkpt>
      <trkpt lat="45.60405" lon="6.654">
        <ele>1889</ele>
        <time>2016-02-06T10:02:23Z</time>
      </trkpt>
      <trkpt lat="45.60407" lon="6.654">
        <ele>1889</ele>
        <time>2016-02-06T10:02:24Z</time>
      </trkpt>
      <trkpt lat="45.60408" lon="6.654">
        <ele>1889</ele>
        <time>2016-02-06T10:02:25Z</time>
      </trkpt>
      <trkpt lat="45.60406" lon="6.654">
        <ele>1889</ele>
        <time>2016-02-06T10:02:27Z</time>
      </trkpt>
      <trkpt lat="45.60405" lon="6.654">
        <ele>1889</ele>
        <time>2016-02-06T10:02:28Z</time>
      </trkpt>
      <trkpt lat="45.60402" lon="6.65403">
        <ele>1889</ele>
        <time>2016-02-06T10:02:30Z</time>
      </trkpt>
      <trkpt lat="45.604" lon="6.65405">
        <ele>1889</ele>
        <time>2016-02-06T10:02:31Z</time>
      </trkpt>
      <trkpt lat="45.60397" lon="6.65408">
        <ele>1888</ele>
        <time>2016-02-06T10:02:32Z</time>
      </trkpt>
      <trkpt lat="45.60395" lon="6.65409">
        <ele>1888</ele>
        <time>2016-02-06T10:02:33Z</time>
      </trkpt>
      <trkpt lat="45.60393" lon="6.65411">
        <ele>1888</ele>
        <time>2016-02-06T10:02:34Z</time>
      </trkpt>
      <trkpt lat="45.60392" lon="6.65412">
        <ele>1888</ele>
        <time>2016-02-06T10:02:36Z</time>
      </trkpt>
      <trkpt lat="45.60392" lon="6.65414">
        <ele>1887</ele>
        <time>2016-02-06T10:02:37Z</time>
      </trkpt>
      <trkpt lat="45.6039" lon="6.65416">
        <ele>1887</ele>
        <time>2016-02-06T10:02:38Z</time>
      </trkpt>
      <trkpt lat="45.60389" lon="6.65417">
        <ele>1880</ele>
        <time>2016-02-06T10:02:39Z</time>
      </trkpt>
      <trkpt lat="45.60387" lon="6.65419">
        <ele>1879</ele>
        <time>2016-02-06T10:02:40Z</time>
      </trkpt>
      <trkpt lat="45.60385" lon="6.65421">
        <ele>1879</ele>
        <time>2016-02-06T10:02:42Z</time>
      </trkpt>
      <trkpt lat="45.60383" lon="6.65422">
        <ele>1878</ele>
        <time>2016-02-06T10:02:44Z</time>
      </trkpt>
      <trkpt lat="45.60382" lon="6.65426">
        <ele>1878</ele>
        <time>2016-02-06T10:02:47Z</time>
      </trkpt>
      <trkpt lat="45.60381" lon="6.65428">
        <ele>1878</ele>
        <time>2016-02-06T10:02:48Z</time>
      </trkpt>
      <trkpt lat="45.6038" lon="6.65432">
        <ele>1878</ele>
        <time>2016-02-06T10:02:50Z</time>
      </trkpt>
      <trkpt lat="45.60381" lon="6.65431">
        <ele>1878</ele>
        <time>2016-02-06T10:02:51Z</time>
      </trkpt>
      <trkpt lat="45.60381" lon="6.65433">
        <ele>1878</ele>
        <time>2016-02-06T10:02:53Z</time>
      </trkpt>
      <trkpt lat="45.60379" lon="6.65434">
        <ele>1877</ele>
        <time>2016-02-06T10:02:54Z</time>
      </trkpt>
      <trkpt lat="45.60379" lon="6.65437">
        <ele>1877</ele>
        <time>2016-02-06T10:02:56Z</time>
      </trkpt>
      <trkpt lat="45.60381" lon="6.65439">
        <ele>1877</ele>
        <time>2016-02-06T10:02:58Z</time>
      </trkpt>
      <trkpt lat="45.60383" lon="6.65441">
        <ele>1878</ele>
        <time>2016-02-06T10:03:00Z</time>
      </trkpt>
      <trkpt lat="45.60383" lon="6.65443">
        <ele>1878</ele>
        <time>2016-02-06T10:03:02Z</time>
      </trkpt>
      <trkpt lat="45.60383" lon="6.65445">
        <ele>1877</ele>
        <time>2016-02-06T10:03:03Z</time>
      </trkpt>
      <trkpt lat="45.60385" lon="6.65446">
        <ele>1878</ele>
        <time>2016-02-06T10:03:06Z</time>
      </trkpt>
      <trkpt lat="45.60385" lon="6.65448">
        <ele>1878</ele>
        <time>2016-02-06T10:03:08Z</time>
      </trkpt>
      <trkpt lat="45.60387" lon="6.6545">
        <ele>1878</ele>
        <time>2016-02-06T10:03:10Z</time>
      </trkpt>
      <trkpt lat="45.60387" lon="6.65451">
        <ele>1878</ele>
        <time>2016-02-06T10:03:11Z</time>
      </trkpt>
      <trkpt lat="45.60388" lon="6.65452">
        <ele>1878</ele>
        <time>2016-02-06T10:03:12Z</time>
      </trkpt>
      <trkpt lat="45.60387" lon="6.65455">
        <ele>1878</ele>
        <time>2016-02-06T10:03:14Z</time>
      </trkpt>
      <trkpt lat="45.60387" lon="6.65457">
        <ele>1877</ele>
        <time>2016-02-06T10:03:16Z</time>
      </trkpt>
      <trkpt lat="45.60388" lon="6.65459">
        <ele>1878</ele>
        <time>2016-02-06T10:03:18Z</time>
      </trkpt>
      <trkpt lat="45.60388" lon="6.6546">
        <ele>1877</ele>
        <time>2016-02-06T10:03:19Z</time>
      </trkpt>
      <trkpt lat="45.60387" lon="6.65461">
        <ele>1877</ele>
        <time>2016-02-06T10:03:20Z</time>
      </trkpt>
      <trkpt lat="45.60386" lon="6.65463">
        <ele>1877</ele>
        <time>2016-02-06T10:03:22Z</time>
      </trkpt>
      <trkpt lat="45.60386" lon="6.65464">
        <ele>1877</ele>
        <time>2016-02-06T10:03:23Z</time>
      </trkpt>
      <trkpt lat="45.60388" lon="6.65466">
        <ele>1877</ele>
        <time>2016-02-06T10:03:26Z</time>
      </trkpt>
      <trkpt lat="45.60389" lon="6.65468">
        <ele>1877</ele>
        <time>2016-02-06T10:03:28Z</time>
      </trkpt>
      <trkpt lat="45.60391" lon="6.65469">
        <ele>1878</ele>
        <time>2016-02-06T10:03:30Z</time>
      </trkpt>
      <trkpt lat="45.60392" lon="6.65469">
        <ele>1878</ele>
        <time>2016-02-06T10:03:31Z</time>
      </trkpt>
      <trkpt lat="45.60394" lon="6.65469">
        <ele>1878</ele>
        <time>2016-02-06T10:03:33Z</time>
      </trkpt>
      <trkpt lat="45.60394" lon="6.65472">
        <ele>1878</ele>
        <time>2016-02-06T10:03:35Z</time>
      </trkpt>
      <trkpt lat="45.60394" lon="6.65475">
        <ele>1878</ele>
        <time>2016-02-06T10:03:37Z</time>
      </trkpt>
      <trkpt lat="45.60392" lon="6.65476">
        <ele>1878</ele>
        <time>2016-02-06T10:03:38Z</time>
      </trkpt>
      <trkpt lat="45.60393" lon="6.65479">
        <ele>1878</ele>
        <time>2016-02-06T10:03:40Z</time>
      </trkpt>
      <trkpt lat="45.60393" lon="6.6548">
        <ele>1878</ele>
        <time>2016-02-06T10:03:42Z</time>
      </trkpt>
      <trkpt lat="45.60393" lon="6.65482">
        <ele>1878</ele>
        <time>2016-02-06T10:03:44Z</time>
      </trkpt>
      <trkpt lat="45.60393" lon="6.65484">
        <ele>1878</ele>
        <time>2016-02-06T10:03:47Z</time>
      </trkpt>
      <trkpt lat="45.60393" lon="6.65486">
        <ele>1878</ele>
        <time>2016-02-06T10:03:48Z</time>
      </trkpt>
      <trkpt lat="45.60395" lon="6.65487">
        <ele>1879</ele>
        <time>2016-02-06T10:03:52Z</time>
      </trkpt>
      <trkpt lat="45.60396" lon="6.6549">
        <ele>1879</ele>
        <time>2016-02-06T10:03:54Z</time>
      </trkpt>
      <trkpt lat="45.60395" lon="6.65492">
        <ele>1879</ele>
        <time>2016-02-06T10:03:55Z</time>
      </trkpt>
      <trkpt lat="45.60395" lon="6.65494">
        <ele>1879</ele>
        <time>2016-02-06T10:03:57Z</time>
      </trkpt>
      <trkpt lat="45.60395" lon="6.65495">
        <ele>1879</ele>
        <time>2016-02-06T10:03:59Z</time>
      </trkpt>
      <trkpt lat="45.60395" lon="6.65497">
        <ele>1879</ele>
        <time>2016-02-06T10:04:01Z</time>
      </trkpt>
      <trkpt lat="45.60394" lon="6.655">
        <ele>1879</ele>
        <time>2016-02-06T10:04:04Z</time>
      </trkpt>
      <trkpt lat="45.60394" lon="6.65502">
        <ele>1880</ele>
        <time>2016-02-06T10:04:06Z</time>
      </trkpt>
      <trkpt lat="45.60392" lon="6.65504">
        <ele>1880</ele>
        <time>2016-02-06T10:04:07Z</time>
      </trkpt>
      <trkpt lat="45.60391" lon="6.65507">
        <ele>1879</ele>
        <time>2016-02-06T10:04:08Z</time>
      </trkpt>
      <trkpt lat="45.6039" lon="6.65508">
        <ele>1879</ele>
        <time>2016-02-06T10:04:09Z</time>
      </trkpt>
      <trkpt lat="45.60392" lon="6.65508">
        <ele>1880</ele>
        <time>2016-02-06T10:04:12Z</time>
      </trkpt>
      <trkpt lat="45.60394" lon="6.65508">
        <ele>1880</ele>
        <time>2016-02-06T10:04:13Z</time>
      </trkpt>
      <trkpt lat="45.60395" lon="6.6551">
        <ele>1880</ele>
        <time>2016-02-06T10:04:15Z</time>
      </trkpt>
      <trkpt lat="45.60394" lon="6.65512">
        <ele>1880</ele>
        <time>2016-02-06T10:04:16Z</time>
      </trkpt>
      <trkpt lat="45.60397" lon="6.65513">
        <ele>1880</ele>
        <time>2016-02-06T10:04:18Z</time>
      </trkpt>
      <trkpt lat="45.60399" lon="6.65512">
        <ele>1881</ele>
        <time>2016-02-06T10:04:19Z</time>
      </trkpt>
      <trkpt lat="45.60402" lon="6.65513">
        <ele>1881</ele>
        <time>2016-02-06T10:04:20Z</time>
      </trkpt>
      <trkpt lat="45.60403" lon="6.65512">
        <ele>1881</ele>
        <time>2016-02-06T10:04:21Z</time>
      </trkpt>
      <trkpt lat="45.60405" lon="6.65511">
        <ele>1882</ele>
        <time>2016-02-06T10:04:22Z</time>
      </trkpt>
      <trkpt lat="45.60407" lon="6.65511">
        <ele>1882</ele>
        <time>2016-02-06T10:04:23Z</time>
      </trkpt>
      <trkpt lat="45.60409" lon="6.65509">
        <ele>1882</ele>
        <time>2016-02-06T10:04:24Z</time>
      </trkpt>
      <trkpt lat="45.60411" lon="6.65508">
        <ele>1883</ele>
        <time>2016-02-06T10:04:25Z</time>
      </trkpt>
      <trkpt lat="45.60412" lon="6.65506">
        <ele>1883</ele>
        <time>2016-02-06T10:04:27Z</time>
      </trkpt>
      <trkpt lat="45.60413" lon="6.65507">
        <ele>1883</ele>
        <time>2016-02-06T10:04:30Z</time>
      </trkpt>
      <trkpt lat="45.60416" lon="6.65507">
        <ele>1884</ele>
        <time>2016-02-06T10:04:32Z</time>
      </trkpt>
      <trkpt lat="45.60416" lon="6.65505">
        <ele>1884</ele>
        <time>2016-02-06T10:04:33Z</time>
      </trkpt>
      <trkpt lat="45.60414" lon="6.65506">
        <ele>1884</ele>
        <time>2016-02-06T10:04:37Z</time>
      </trkpt>
      <trkpt lat="45.60413" lon="6.65506">
        <ele>1883</ele>
        <time>2016-02-06T10:04:38Z</time>
      </trkpt>
      <trkpt lat="45.60414" lon="6.65507">
        <ele>1883</ele>
        <time>2016-02-06T10:04:43Z</time>
      </trkpt>
      <trkpt lat="45.60413" lon="6.65509">
        <ele>1883</ele>
        <time>2016-02-06T10:04:46Z</time>
      </trkpt>
      <trkpt lat="45.60415" lon="6.6551">
        <ele>1883</ele>
        <time>2016-02-06T10:04:48Z</time>
      </trkpt>
      <trkpt lat="45.60414" lon="6.65513">
        <ele>1883</ele>
        <time>2016-02-06T10:04:50Z</time>
      </trkpt>
      <trkpt lat="45.60415" lon="6.65511">
        <ele>1883</ele>
        <time>2016-02-06T10:04:52Z</time>
      </trkpt>
      <trkpt lat="45.60418" lon="6.65508">
        <ele>1890</ele>
        <time>2016-02-06T10:04:54Z</time>
      </trkpt>
      <trkpt lat="45.60421" lon="6.65506">
        <ele>1890</ele>
        <time>2016-02-06T10:04:55Z</time>
      </trkpt>
      <trkpt lat="45.6042" lon="6.65508">
        <ele>1891</ele>
        <time>2016-02-06T10:04:57Z</time>
      </trkpt>
      <trkpt lat="45.60422" lon="6.65508">
        <ele>1891</ele>
        <time>2016-02-06T10:04:58Z</time>
      </trkpt>
      <trkpt lat="45.60424" lon="6.65507">
        <ele>1892</ele>
        <time>2016-02-06T10:04:59Z</time>
      </trkpt>
      <trkpt lat="45.60426" lon="6.65507">
        <ele>1892</ele>
        <time>2016-02-06T10:05:01Z</time>
      </trkpt>
      <trkpt lat="45.60427" lon="6.65506">
        <ele>1893</ele>
        <time>2016-02-06T10:05:02Z</time>
      </trkpt>
      <trkpt lat="45.6043" lon="6.65505">
        <ele>1894</ele>
        <time>2016-02-06T10:05:05Z</time>
      </trkpt>
      <trkpt lat="45.60426" lon="6.65504">
        <ele>1892</ele>
        <time>2016-02-06T10:05:09Z</time>
      </trkpt>
      <trkpt lat="45.60425" lon="6.65504">
        <ele>1891</ele>
        <time>2016-02-06T10:05:10Z</time>
      </trkpt>
      <trkpt lat="45.60427" lon="6.65503">
        <ele>1892</ele>
        <time>2016-02-06T10:05:11Z</time>
      </trkpt>
      <trkpt lat="45.6043" lon="6.65502">
        <ele>1893</ele>
        <time>2016-02-06T10:05:12Z</time>
      </trkpt>
      <trkpt lat="45.60434" lon="6.655">
        <ele>1895</ele>
        <time>2016-02-06T10:05:14Z</time>
      </trkpt>
      <trkpt lat="45.60436" lon="6.65499">
        <ele>1894</ele>
        <time>2016-02-06T10:05:15Z</time>
      </trkpt>
      <trkpt lat="45.60437" lon="6.65498">
        <ele>1895</ele>
        <time>2016-02-06T10:05:16Z</time>
      </trkpt>
      <trkpt lat="45.60439" lon="6.65497">
        <ele>1895</ele>
        <time>2016-02-06T10:05:22Z</time>
      </trkpt>
      <trkpt lat="45.60439" lon="6.65495">
        <ele>1896</ele>
        <time>2016-02-06T10:05:24Z</time>
      </trkpt>
      <trkpt lat="45.6044" lon="6.65495">
        <ele>1896</ele>
        <time>2016-02-06T10:05:26Z</time>
      </trkpt>
      <trkpt lat="45.60441" lon="6.65493">
        <ele>1896</ele>
        <time>2016-02-06T10:05:29Z</time>
      </trkpt>
      <trkpt lat="45.60442" lon="6.65493">
        <ele>1897</ele>
        <time>2016-02-06T10:05:30Z</time>
      </trkpt>
      <trkpt lat="45.60444" lon="6.65493">
        <ele>1897</ele>
        <time>2016-02-06T10:05:31Z</time>
      </trkpt>
      <trkpt lat="45.60445" lon="6.65493">
        <ele>1897</ele>
        <time>2016-02-06T10:05:37Z</time>
      </trkpt>
      <trkpt lat="45.60446" lon="6.65491">
        <ele>1898</ele>
        <time>2016-02-06T10:05:43Z</time>
      </trkpt>
      <trkpt lat="45.60448" lon="6.65491">
        <ele>1898</ele>
        <time>2016-02-06T10:05:45Z</time>
      </trkpt>
      <trkpt lat="45.60448" lon="6.65489">
        <ele>1898</ele>
        <time>2016-02-06T10:05:52Z</time>
      </trkpt>
      <trkpt lat="45.6045" lon="6.65487">
        <ele>1899</ele>
        <time>2016-02-06T10:05:53Z</time>
      </trkpt>
      <trkpt lat="45.60452" lon="6.65487">
        <ele>1899</ele>
        <time>2016-02-06T10:05:55Z</time>
      </trkpt>
      <trkpt lat="45.60452" lon="6.65485">
        <ele>1900</ele>
        <time>2016-02-06T10:05:58Z</time>
      </trkpt>
      <trkpt lat="45.60454" lon="6.65485">
        <ele>1900</ele>
        <time>2016-02-06T10:06:02Z</time>
      </trkpt>
      <trkpt lat="45.60455" lon="6.65483">
        <ele>1900</ele>
        <time>2016-02-06T10:06:05Z</time>
      </trkpt>
      <trkpt lat="45.60455" lon="6.65481">
        <ele>1900</ele>
        <time>2016-02-06T10:06:06Z</time>
      </trkpt>
      <trkpt lat="45.60454" lon="6.6548">
        <ele>1900</ele>
        <time>2016-02-06T10:06:08Z</time>
      </trkpt>
      <trkpt lat="45.60456" lon="6.65478">
        <ele>1901</ele>
        <time>2016-02-06T10:06:13Z</time>
      </trkpt>
      <trkpt lat="45.60458" lon="6.65477">
        <ele>1901</ele>
        <time>2016-02-06T10:06:16Z</time>
      </trkpt>
      <trkpt lat="45.60457" lon="6.65476">
        <ele>1901</ele>
        <time>2016-02-06T10:06:19Z</time>
      </trkpt>
      <trkpt lat="45.60455" lon="6.65476">
        <ele>1901</ele>
        <time>2016-02-06T10:06:22Z</time>
      </trkpt>
      <trkpt lat="45.60454" lon="6.65478">
        <ele>1900</ele>
        <time>2016-02-06T10:06:24Z</time>
      </trkpt>
      <trkpt lat="45.60455" lon="6.65478">
        <ele>1901</ele>
        <time>2016-02-06T10:06:27Z</time>
      </trkpt>
      <trkpt lat="45.60457" lon="6.65478">
        <ele>1901</ele>
        <time>2016-02-06T10:06:28Z</time>
      </trkpt>
      <trkpt lat="45.60459" lon="6.65477">
        <ele>1901</ele>
        <time>2016-02-06T10:06:32Z</time>
      </trkpt>
      <trkpt lat="45.6046" lon="6.65476">
        <ele>1902</ele>
        <time>2016-02-06T10:06:33Z</time>
      </trkpt>
      <trkpt lat="45.6046" lon="6.6548">
        <ele>1902</ele>
        <time>2016-02-06T10:06:35Z</time>
      </trkpt>
      <trkpt lat="45.6046" lon="6.65481">
        <ele>1901</ele>
        <time>2016-02-06T10:06:36Z</time>
      </trkpt>
      <trkpt lat="45.60459" lon="6.65484">
        <ele>1901</ele>
        <time>2016-02-06T10:06:37Z</time>
      </trkpt>
      <trkpt lat="45.60458" lon="6.65486">
        <ele>1901</ele>
        <time>2016-02-06T10:06:38Z</time>
      </trkpt>
      <trkpt lat="45.6046" lon="6.65487">
        <ele>1901</ele>
        <time>2016-02-06T10:06:45Z</time>
      </trkpt>
      <trkpt lat="45.60461" lon="6.65489">
        <ele>1901</ele>
        <time>2016-02-06T10:06:48Z</time>
      </trkpt>
      <trkpt lat="45.60463" lon="6.65489">
        <ele>1902</ele>
        <time>2016-02-06T10:06:49Z</time>
      </trkpt>
      <trkpt lat="45.60464" lon="6.65489">
        <ele>1902</ele>
        <time>2016-02-06T10:06:50Z</time>
      </trkpt>
      <trkpt lat="45.60465" lon="6.6549">
        <ele>1902</ele>
        <time>2016-02-06T10:06:52Z</time>
      </trkpt>
      <trkpt lat="45.60467" lon="6.6549">
        <ele>1903</ele>
        <time>2016-02-06T10:06:53Z</time>
      </trkpt>
      <trkpt lat="45.60469" lon="6.65491">
        <ele>1903</ele>
        <time>2016-02-06T10:06:55Z</time>
      </trkpt>
      <trkpt lat="45.6047" lon="6.65488">
        <ele>1903</ele>
        <time>2016-02-06T10:06:58Z</time>
      </trkpt>
      <trkpt lat="45.60471" lon="6.65487">
        <ele>1904</ele>
        <time>2016-02-06T10:07:00Z</time>
      </trkpt>
      <trkpt lat="45.60472" lon="6.65485">
        <ele>1904</ele>
        <time>2016-02-06T10:07:01Z</time>
      </trkpt>
      <trkpt lat="45.60474" lon="6.65483">
        <ele>1904</ele>
        <time>2016-02-06T10:07:02Z</time>
      </trkpt>
      <trkpt lat="45.60474" lon="6.65481">
        <ele>1904</ele>
        <time>2016-02-06T10:07:03Z</time>
      </trkpt>
      <trkpt lat="45.60475" lon="6.65479">
        <ele>1904</ele>
        <time>2016-02-06T10:07:04Z</time>
      </trkpt>
      <trkpt lat="45.60475" lon="6.65477">
        <ele>1904</ele>
        <time>2016-02-06T10:07:05Z</time>
      </trkpt>
      <trkpt lat="45.60476" lon="6.65474">
        <ele>1905</ele>
        <time>2016-02-06T10:07:07Z</time>
      </trkpt>
      <trkpt lat="45.60477" lon="6.65474">
        <ele>1905</ele>
        <time>2016-02-06T10:07:09Z</time>
      </trkpt>
      <trkpt lat="45.60479" lon="6.65473">
        <ele>1905</ele>
        <time>2016-02-06T10:07:10Z</time>
      </trkpt>
      <trkpt lat="45.60484" lon="6.65475">
        <ele>1906</ele>
        <time>2016-02-06T10:07:12Z</time>
      </trkpt>
      <trkpt lat="45.60485" lon="6.65476">
        <ele>1906</ele>
        <time>2016-02-06T10:07:13Z</time>
      </trkpt>
      <trkpt lat="45.60487" lon="6.65478">
        <ele>1906</ele>
        <time>2016-02-06T10:07:16Z</time>
      </trkpt>
      <trkpt lat="45.6049" lon="6.65479">
        <ele>1907</ele>
        <time>2016-02-06T10:07:20Z</time>
      </trkpt>
      <trkpt lat="45.60493" lon="6.65481">
        <ele>1907</ele>
        <time>2016-02-06T10:07:22Z</time>
      </trkpt>
      <trkpt lat="45.60492" lon="6.65483">
        <ele>1907</ele>
        <time>2016-02-06T10:07:23Z</time>
      </trkpt>
      <trkpt lat="45.6049" lon="6.65484">
        <ele>1907</ele>
        <time>2016-02-06T10:07:24Z</time>
      </trkpt>
      <trkpt lat="45.6049" lon="6.65486">
        <ele>1907</ele>
        <time>2016-02-06T10:07:27Z</time>
      </trkpt>
      <trkpt lat="45.6049" lon="6.65488">
        <ele>1907</ele>
        <time>2016-02-06T10:07:28Z</time>
      </trkpt>
      <trkpt lat="45.60489" lon="6.6549">
        <ele>1908</ele>
        <time>2016-02-06T10:07:29Z</time>
      </trkpt>
      <trkpt lat="45.60487" lon="6.65491">
        <ele>1907</ele>
        <time>2016-02-06T10:07:30Z</time>
      </trkpt>
      <trkpt lat="45.60486" lon="6.65493">
        <ele>1907</ele>
        <time>2016-02-06T10:07:32Z</time>
      </trkpt>
      <trkpt lat="45.60484" lon="6.65494">
        <ele>1907</ele>
        <time>2016-02-06T10:07:33Z</time>
      </trkpt>
      <trkpt lat="45.60483" lon="6.65495">
        <ele>1907</ele>
        <time>2016-02-06T10:07:35Z</time>
      </trkpt>
      <trkpt lat="45.60483" lon="6.65498">
        <ele>1907</ele>
        <time>2016-02-06T10:07:37Z</time>
      </trkpt>
      <trkpt lat="45.60482" lon="6.655">
        <ele>1907</ele>
        <time>2016-02-06T10:07:39Z</time>
      </trkpt>
      <trkpt lat="45.60484" lon="6.65502">
        <ele>1908</ele>
        <time>2016-02-06T10:07:41Z</time>
      </trkpt>
      <trkpt lat="45.60485" lon="6.65503">
        <ele>1908</ele>
        <time>2016-02-06T10:07:43Z</time>
      </trkpt>
      <trkpt lat="45.60485" lon="6.65505">
        <ele>1908</ele>
        <time>2016-02-06T10:07:46Z</time>
      </trkpt>
      <trkpt lat="45.60484" lon="6.65507">
        <ele>1908</ele>
        <time>2016-02-06T10:07:48Z</time>
      </trkpt>
      <trkpt lat="45.60485" lon="6.65506">
        <ele>1908</ele>
        <time>2016-02-06T10:07:51Z</time>
      </trkpt>
      <trkpt lat="45.60486" lon="6.65505">
        <ele>1908</ele>
        <time>2016-02-06T10:07:53Z</time>
      </trkpt>
      <trkpt lat="45.60487" lon="6.65503">
        <ele>1909</ele>
        <time>2016-02-06T10:07:55Z</time>
      </trkpt>
      <trkpt lat="45.60488" lon="6.65505">
        <ele>1909</ele>
        <time>2016-02-06T10:07:58Z</time>
      </trkpt>
      <trkpt lat="45.60488" lon="6.65506">
        <ele>1909</ele>
        <time>2016-02-06T10:07:59Z</time>
      </trkpt>
      <trkpt lat="45.60488" lon="6.65508">
        <ele>1909</ele>
        <time>2016-02-06T10:08:01Z</time>
      </trkpt>
      <trkpt lat="45.60487" lon="6.65509">
        <ele>1908</ele>
        <time>2016-02-06T10:08:03Z</time>
      </trkpt>
      <trkpt lat="45.60486" lon="6.65511">
        <ele>1908</ele>
        <time>2016-02-06T10:08:11Z</time>
      </trkpt>
      <trkpt lat="45.60485" lon="6.6551">
        <ele>1908</ele>
        <time>2016-02-06T10:08:14Z</time>
      </trkpt>
      <trkpt lat="45.60479" lon="6.6551">
        <ele>1907</ele>
        <time>2016-02-06T10:08:15Z</time>
      </trkpt>
      <trkpt lat="45.60478" lon="6.65509">
        <ele>1907</ele>
        <time>2016-02-06T10:08:16Z</time>
      </trkpt>
      <trkpt lat="45.60479" lon="6.6551">
        <ele>1907</ele>
        <time>2016-02-06T10:08:17Z</time>
      </trkpt>
      <trkpt lat="45.60477" lon="6.65513">
        <ele>1907</ele>
        <time>2016-02-06T10:08:21Z</time>
      </trkpt>
      <trkpt lat="45.60476" lon="6.65516">
        <ele>1906</ele>
        <time>2016-02-06T10:08:22Z</time>
      </trkpt>
      <trkpt lat="45.60475" lon="6.65515">
        <ele>1906</ele>
        <time>2016-02-06T10:08:23Z</time>
      </trkpt>
      <trkpt lat="45.60476" lon="6.65512">
        <ele>1906</ele>
        <time>2016-02-06T10:08:25Z</time>
      </trkpt>
      <trkpt lat="45.60477" lon="6.65514">
        <ele>1907</ele>
        <time>2016-02-06T10:08:28Z</time>
      </trkpt>
      <trkpt lat="45.60477" lon="6.65516">
        <ele>1907</ele>
        <time>2016-02-06T10:08:29Z</time>
      </trkpt>
      <trkpt lat="45.60479" lon="6.65516">
        <ele>1907</ele>
        <time>2016-02-06T10:08:31Z</time>
      </trkpt>
      <trkpt lat="45.6048" lon="6.65518">
        <ele>1907</ele>
        <time>2016-02-06T10:08:32Z</time>
      </trkpt>
      <trkpt lat="45.60482" lon="6.6552">
        <ele>1907</ele>
        <time>2016-02-06T10:08:34Z</time>
      </trkpt>
      <trkpt lat="45.60483" lon="6.65522">
        <ele>1907</ele>
        <time>2016-02-06T10:08:36Z</time>
      </trkpt>
      <trkpt lat="45.60484" lon="6.65524">
        <ele>1908</ele>
        <time>2016-02-06T10:08:38Z</time>
      </trkpt>
      <trkpt lat="45.60485" lon="6.65522">
        <ele>1908</ele>
        <time>2016-02-06T10:08:54Z</time>
      </trkpt>
      <trkpt lat="45.60485" lon="6.6552">
        <ele>1908</ele>
        <time>2016-02-06T10:08:59Z</time>
      </trkpt>
      <trkpt lat="45.60485" lon="6.65517">
        <ele>1908</ele>
        <time>2016-02-06T10:09:01Z</time>
      </trkpt>
      <trkpt lat="45.60485" lon="6.65516">
        <ele>1908</ele>
        <time>2016-02-06T10:09:02Z</time>
      </trkpt>
      <trkpt lat="45.60485" lon="6.65513">
        <ele>1908</ele>
        <time>2016-02-06T10:09:03Z</time>
      </trkpt>
      <trkpt lat="45.60485" lon="6.65512">
        <ele>1908</ele>
        <time>2016-02-06T10:09:05Z</time>
      </trkpt>
      <trkpt lat="45.60485" lon="6.65513">
        <ele>1908</ele>
        <time>2016-02-06T10:09:08Z</time>
      </trkpt>
      <trkpt lat="45.60484" lon="6.65513">
        <ele>1908</ele>
        <time>2016-02-06T10:09:10Z</time>
      </trkpt>
      <trkpt lat="45.60482" lon="6.65513">
        <ele>1907</ele>
        <time>2016-02-06T10:09:12Z</time>
      </trkpt>
      <trkpt lat="45.60482" lon="6.65511">
        <ele>1908</ele>
        <time>2016-02-06T10:09:14Z</time>
      </trkpt>
      <trkpt lat="45.60482" lon="6.65513">
        <ele>1907</ele>
        <time>2016-02-06T10:09:20Z</time>
      </trkpt>
      <trkpt lat="45.60482" lon="6.65515">
        <ele>1907</ele>
        <time>2016-02-06T10:09:27Z</time>
      </trkpt>
      <trkpt lat="45.60482" lon="6.65517">
        <ele>1907</ele>
        <time>2016-02-06T10:09:34Z</time>
      </trkpt>
      <trkpt lat="45.60481" lon="6.65518">
        <ele>1907</ele>
        <time>2016-02-06T10:09:37Z</time>
      </trkpt>
      <trkpt lat="45.60482" lon="6.65516">
        <ele>1907</ele>
        <time>2016-02-06T10:09:44Z</time>
      </trkpt>
      <trkpt lat="45.6048" lon="6.65516">
        <ele>1907</ele>
        <time>2016-02-06T10:09:47Z</time>
      </trkpt>
      <trkpt lat="45.60478" lon="6.65516">
        <ele>1907</ele>
        <time>2016-02-06T10:09:51Z</time>
      </trkpt>
      <trkpt lat="45.60479" lon="6.65514">
        <ele>1907</ele>
        <time>2016-02-06T10:09:54Z</time>
      </trkpt>
      <trkpt lat="45.60481" lon="6.65515">
        <ele>1907</ele>
        <time>2016-02-06T10:09:58Z</time>
      </trkpt>
      <trkpt lat="45.60482" lon="6.65513">
        <ele>1907</ele>
        <time>2016-02-06T10:10:01Z</time>
      </trkpt>
      <trkpt lat="45.60484" lon="6.65511">
        <ele>1908</ele>
        <time>2016-02-06T10:10:04Z</time>
      </trkpt>
      <trkpt lat="45.60485" lon="6.65509">
        <ele>1908</ele>
        <time>2016-02-06T10:10:06Z</time>
      </trkpt>
      <trkpt lat="45.60488" lon="6.65508">
        <ele>1909</ele>
        <time>2016-02-06T10:10:10Z</time>
      </trkpt>
      <trkpt lat="45.6049" lon="6.65509">
        <ele>1909</ele>
        <time>2016-02-06T10:10:11Z</time>
      </trkpt>
      <trkpt lat="45.60491" lon="6.65509">
        <ele>1909</ele>
        <time>2016-02-06T10:10:12Z</time>
      </trkpt>
      <trkpt lat="45.60492" lon="6.6551">
        <ele>1909</ele>
        <time>2016-02-06T10:10:14Z</time>
      </trkpt>
      <trkpt lat="45.60492" lon="6.65512">
        <ele>1909</ele>
        <time>2016-02-06T10:10:16Z</time>
      </trkpt>
      <trkpt lat="45.6049" lon="6.65514">
        <ele>1909</ele>
        <time>2016-02-06T10:10:19Z</time>
      </trkpt>
      <trkpt lat="45.60489" lon="6.65515">
        <ele>1908</ele>
        <time>2016-02-06T10:10:22Z</time>
      </trkpt>
      <trkpt lat="45.60489" lon="6.65517">
        <ele>1908</ele>
        <time>2016-02-06T10:10:25Z</time>
      </trkpt>
      <trkpt lat="45.6049" lon="6.65518">
        <ele>1908</ele>
        <time>2016-02-06T10:10:26Z</time>
      </trkpt>
      <trkpt lat="45.6049" lon="6.65521">
        <ele>1908</ele>
        <time>2016-02-06T10:10:29Z</time>
      </trkpt>
      <trkpt lat="45.60488" lon="6.65523">
        <ele>1908</ele>
        <time>2016-02-06T10:10:31Z</time>
      </trkpt>
      <trkpt lat="45.60486" lon="6.65525">
        <ele>1908</ele>
        <time>2016-02-06T10:10:32Z</time>
      </trkpt>
      <trkpt lat="45.60483" lon="6.65526">
        <ele>1907</ele>
        <time>2016-02-06T10:10:33Z</time>
      </trkpt>
      <trkpt lat="45.60485" lon="6.65527">
        <ele>1908</ele>
        <time>2016-02-06T10:10:34Z</time>
      </trkpt>
      <trkpt lat="45.60485" lon="6.65528">
        <ele>1908</ele>
        <time>2016-02-06T10:10:36Z</time>
      </trkpt>
      <trkpt lat="45.60482" lon="6.65529">
        <ele>1907</ele>
        <time>2016-02-06T10:10:37Z</time>
      </trkpt>
      <trkpt lat="45.6048" lon="6.65529">
        <ele>1907</ele>
        <time>2016-02-06T10:10:38Z</time>
      </trkpt>
      <trkpt lat="45.60478" lon="6.6553">
        <ele>1907</ele>
        <time>2016-02-06T10:10:39Z</time>
      </trkpt>
      <trkpt lat="45.60476" lon="6.65529">
        <ele>1907</ele>
        <time>2016-02-06T10:10:40Z</time>
      </trkpt>
      <trkpt lat="45.60475" lon="6.65528">
        <ele>1906</ele>
        <time>2016-02-06T10:10:42Z</time>
      </trkpt>
      <trkpt lat="45.60477" lon="6.65526">
        <ele>1907</ele>
        <time>2016-02-06T10:10:43Z</time>
      </trkpt>
      <trkpt lat="45.60478" lon="6.65524">
        <ele>1907</ele>
        <time>2016-02-06T10:10:45Z</time>
      </trkpt>
      <trkpt lat="45.60476" lon="6.65524">
        <ele>1907</ele>
        <time>2016-02-06T10:10:46Z</time>
      </trkpt>
      <trkpt lat="45.60476" lon="6.65522">
        <ele>1906</ele>
        <time>2016-02-06T10:10:48Z</time>
      </trkpt>
      <trkpt lat="45.60477" lon="6.65521">
        <ele>1907</ele>
        <time>2016-02-06T10:10:49Z</time>
      </trkpt>
      <trkpt lat="45.60478" lon="6.65519">
        <ele>1907</ele>
        <time>2016-02-06T10:10:52Z</time>
      </trkpt>
      <trkpt lat="45.60479" lon="6.65518">
        <ele>1907</ele>
        <time>2016-02-06T10:10:53Z</time>
      </trkpt>
      <trkpt lat="45.6048" lon="6.65518">
        <ele>1907</ele>
        <time>2016-02-06T10:10:58Z</time>
      </trkpt>
      <trkpt lat="45.60479" lon="6.65519">
        <ele>1907</ele>
        <time>2016-02-06T10:10:59Z</time>
      </trkpt>
      <trkpt lat="45.60477" lon="6.65519">
        <ele>1907</ele>
        <time>2016-02-06T10:11:02Z</time>
      </trkpt>
      <trkpt lat="45.60475" lon="6.6552">
        <ele>1906</ele>
        <time>2016-02-06T10:11:04Z</time>
      </trkpt>
      <trkpt lat="45.60476" lon="6.65522">
        <ele>1906</ele>
        <time>2016-02-06T10:11:06Z</time>
      </trkpt>
      <trkpt lat="45.60478" lon="6.65523">
        <ele>1907</ele>
        <time>2016-02-06T10:11:10Z</time>
      </trkpt>
      <trkpt lat="45.60479" lon="6.65525">
        <ele>1907</ele>
        <time>2016-02-06T10:11:14Z</time>
      </trkpt>
      <trkpt lat="45.60479" lon="6.65527">
        <ele>1907</ele>
        <time>2016-02-06T10:11:16Z</time>
      </trkpt>
      <trkpt lat="45.6048" lon="6.65529">
        <ele>1907</ele>
        <time>2016-02-06T10:11:18Z</time>
      </trkpt>
      <trkpt lat="45.6048" lon="6.65531">
        <ele>1907</ele>
        <time>2016-02-06T10:11:21Z</time>
      </trkpt>
      <trkpt lat="45.60481" lon="6.65533">
        <ele>1907</ele>
        <time>2016-02-06T10:11:28Z</time>
      </trkpt>
      <trkpt lat="45.60483" lon="6.65534">
        <ele>1908</ele>
        <time>2016-02-06T10:11:30Z</time>
      </trkpt>
      <trkpt lat="45.60482" lon="6.65537">
        <ele>1908</ele>
        <time>2016-02-06T10:11:32Z</time>
      </trkpt>
      <trkpt lat="45.60483" lon="6.65537">
        <ele>1908</ele>
        <time>2016-02-06T10:11:34Z</time>
      </trkpt>
      <trkpt lat="45.60484" lon="6.65539">
        <ele>1908</ele>
        <time>2016-02-06T10:11:36Z</time>
      </trkpt>
      <trkpt lat="45.60482" lon="6.65541">
        <ele>1908</ele>
        <time>2016-02-06T10:11:37Z</time>
      </trkpt>
      <trkpt lat="45.60484" lon="6.65541">
        <ele>1908</ele>
        <time>2016-02-06T10:11:38Z</time>
      </trkpt>
      <trkpt lat="45.60485" lon="6.65541">
        <ele>1909</ele>
        <time>2016-02-06T10:11:40Z</time>
      </trkpt>
      <trkpt lat="45.60487" lon="6.65541">
        <ele>1909</ele>
        <time>2016-02-06T10:11:42Z</time>
      </trkpt>
      <trkpt lat="45.60488" lon="6.65541">
        <ele>1909</ele>
        <time>2016-02-06T10:11:43Z</time>
      </trkpt>
      <trkpt lat="45.6049" lon="6.65541">
        <ele>1909</ele>
        <time>2016-02-06T10:11:44Z</time>
      </trkpt>
      <trkpt lat="45.6049" lon="6.65543">
        <ele>1909</ele>
        <time>2016-02-06T10:11:47Z</time>
      </trkpt>
      <trkpt lat="45.6049" lon="6.65545">
        <ele>1909</ele>
        <time>2016-02-06T10:11:50Z</time>
      </trkpt>
      <trkpt lat="45.6049" lon="6.65546">
        <ele>1910</ele>
        <time>2016-02-06T10:11:53Z</time>
      </trkpt>
      <trkpt lat="45.6049" lon="6.65548">
        <ele>1910</ele>
        <time>2016-02-06T10:11:56Z</time>
      </trkpt>
      <trkpt lat="45.60489" lon="6.6555">
        <ele>1910</ele>
        <time>2016-02-06T10:11:57Z</time>
      </trkpt>
      <trkpt lat="45.60488" lon="6.65552">
        <ele>1910</ele>
        <time>2016-02-06T10:11:58Z</time>
      </trkpt>
      <trkpt lat="45.60487" lon="6.65554">
        <ele>1910</ele>
        <time>2016-02-06T10:11:59Z</time>
      </trkpt>
      <trkpt lat="45.60486" lon="6.65556">
        <ele>1911</ele>
        <time>2016-02-06T10:12:01Z</time>
      </trkpt>
      <trkpt lat="45.60485" lon="6.65557">
        <ele>1911</ele>
        <time>2016-02-06T10:12:03Z</time>
      </trkpt>
      <trkpt lat="45.60484" lon="6.65559">
        <ele>1911</ele>
        <time>2016-02-06T10:12:06Z</time>
      </trkpt>
      <trkpt lat="45.60484" lon="6.65561">
        <ele>1911</ele>
        <time>2016-02-06T10:12:08Z</time>
      </trkpt>
      <trkpt lat="45.60484" lon="6.65564">
        <ele>1912</ele>
        <time>2016-02-06T10:12:12Z</time>
      </trkpt>
      <trkpt lat="45.60484" lon="6.65566">
        <ele>1912</ele>
        <time>2016-02-06T10:12:14Z</time>
      </trkpt>
      <trkpt lat="45.60483" lon="6.65569">
        <ele>1913</ele>
        <time>2016-02-06T10:12:16Z</time>
      </trkpt>
      <trkpt lat="45.60482" lon="6.65571">
        <ele>1913</ele>
        <time>2016-02-06T10:12:18Z</time>
      </trkpt>
      <trkpt lat="45.60484" lon="6.65572">
        <ele>1914</ele>
        <time>2016-02-06T10:12:20Z</time>
      </trkpt>
      <trkpt lat="45.60485" lon="6.65573">
        <ele>1914</ele>
        <time>2016-02-06T10:12:21Z</time>
      </trkpt>
      <trkpt lat="45.60487" lon="6.65573">
        <ele>1915</ele>
        <time>2016-02-06T10:12:22Z</time>
      </trkpt>
      <trkpt lat="45.60488" lon="6.65573">
        <ele>1915</ele>
        <time>2016-02-06T10:12:23Z</time>
      </trkpt>
      <trkpt lat="45.6049" lon="6.65573">
        <ele>1916</ele>
        <time>2016-02-06T10:12:24Z</time>
      </trkpt>
      <trkpt lat="45.6049" lon="6.65575">
        <ele>1916</ele>
        <time>2016-02-06T10:12:27Z</time>
      </trkpt>
      <trkpt lat="45.60493" lon="6.65574">
        <ele>1917</ele>
        <time>2016-02-06T10:12:29Z</time>
      </trkpt>
      <trkpt lat="45.60492" lon="6.65576">
        <ele>1917</ele>
        <time>2016-02-06T10:12:34Z</time>
      </trkpt>
      <trkpt lat="45.60491" lon="6.65577">
        <ele>1917</ele>
        <time>2016-02-06T10:12:36Z</time>
      </trkpt>
      <trkpt lat="45.60492" lon="6.65577">
        <ele>1918</ele>
        <time>2016-02-06T10:12:37Z</time>
      </trkpt>
      <trkpt lat="45.60493" lon="6.65577">
        <ele>1918</ele>
        <time>2016-02-06T10:12:38Z</time>
      </trkpt>
      <trkpt lat="45.60495" lon="6.65578">
        <ele>1919</ele>
        <time>2016-02-06T10:12:40Z</time>
      </trkpt>
      <trkpt lat="45.60495" lon="6.65579">
        <ele>1920</ele>
        <time>2016-02-06T10:12:42Z</time>
      </trkpt>
      <trkpt lat="45.60495" lon="6.65581">
        <ele>1920</ele>
        <time>2016-02-06T10:12:44Z</time>
      </trkpt>
      <trkpt lat="45.60493" lon="6.65582">
        <ele>1920</ele>
        <time>2016-02-06T10:12:46Z</time>
      </trkpt>
      <trkpt lat="45.60494" lon="6.65584">
        <ele>1922</ele>
        <time>2016-02-06T10:12:49Z</time>
      </trkpt>
      <trkpt lat="45.60496" lon="6.65583">
        <ele>1921</ele>
        <time>2016-02-06T10:12:52Z</time>
      </trkpt>
      <trkpt lat="45.60495" lon="6.65583">
        <ele>1920</ele>
        <time>2016-02-06T10:12:54Z</time>
      </trkpt>
      <trkpt lat="45.60493" lon="6.65583">
        <ele>1920</ele>
        <time>2016-02-06T10:12:57Z</time>
      </trkpt>
      <trkpt lat="45.60497" lon="6.65579">
        <ele>1920</ele>
        <time>2016-02-06T10:13:02Z</time>
      </trkpt>
      <trkpt lat="45.60499" lon="6.65577">
        <ele>1920</ele>
        <time>2016-02-06T10:13:03Z</time>
      </trkpt>
      <trkpt lat="45.605" lon="6.65576">
        <ele>1919</ele>
        <time>2016-02-06T10:13:04Z</time>
      </trkpt>
      <trkpt lat="45.60501" lon="6.65574">
        <ele>1927</ele>
        <time>2016-02-06T10:13:06Z</time>
      </trkpt>
      <trkpt lat="45.60503" lon="6.65574">
        <ele>1927</ele>
        <time>2016-02-06T10:13:08Z</time>
      </trkpt>
      <trkpt lat="45.60504" lon="6.65573">
        <ele>1927</ele>
        <time>2016-02-06T10:13:11Z</time>
      </trkpt>
      <trkpt lat="45.60502" lon="6.65571">
        <ele>1928</ele>
        <time>2016-02-06T10:13:17Z</time>
      </trkpt>
      <trkpt lat="45.60501" lon="6.65571">
        <ele>1927</ele>
        <time>2016-02-06T10:13:26Z</time>
      </trkpt>
      <trkpt lat="45.605" lon="6.65571">
        <ele>1917</ele>
        <time>2016-02-06T10:13:32Z</time>
      </trkpt>
      <trkpt lat="45.60499" lon="6.65573">
        <ele>1918</ele>
        <time>2016-02-06T10:13:40Z</time>
      </trkpt>
      <trkpt lat="45.60498" lon="6.65575">
        <ele>1918</ele>
        <time>2016-02-06T10:13:42Z</time>
      </trkpt>
      <trkpt lat="45.60497" lon="6.65577">
        <ele>1919</ele>
        <time>2016-02-06T10:13:44Z</time>
      </trkpt>
      <trkpt lat="45.60495" lon="6.65579">
        <ele>1920</ele>
        <time>2016-02-06T10:13:47Z</time>
      </trkpt>
      <trkpt lat="45.60495" lon="6.65581">
        <ele>1920</ele>
        <time>2016-02-06T10:13:49Z</time>
      </trkpt>
      <trkpt lat="45.60494" lon="6.65583">
        <ele>1920</ele>
        <time>2016-02-06T10:13:52Z</time>
      </trkpt>
      <trkpt lat="45.60493" lon="6.65585">
        <ele>1922</ele>
        <time>2016-02-06T10:13:54Z</time>
      </trkpt>
      <trkpt lat="45.60492" lon="6.65586">
        <ele>1922</ele>
        <time>2016-02-06T10:13:56Z</time>
      </trkpt>
      <trkpt lat="45.60491" lon="6.65588">
        <ele>1921</ele>
        <time>2016-02-06T10:13:58Z</time>
      </trkpt>
      <trkpt lat="45.60491" lon="6.6559">
        <ele>1921</ele>
        <time>2016-02-06T10:14:00Z</time>
      </trkpt>
      <trkpt lat="45.6049" lon="6.65591">
        <ele>1921</ele>
        <time>2016-02-06T10:14:02Z</time>
      </trkpt>
      <trkpt lat="45.60489" lon="6.65593">
        <ele>1921</ele>
        <time>2016-02-06T10:14:04Z</time>
      </trkpt>
      <trkpt lat="45.6049" lon="6.65595">
        <ele>1921</ele>
        <time>2016-02-06T10:14:05Z</time>
      </trkpt>
      <trkpt lat="45.60489" lon="6.65596">
        <ele>1920</ele>
        <time>2016-02-06T10:14:08Z</time>
      </trkpt>
      <trkpt lat="45.60489" lon="6.65598">
        <ele>1920</ele>
        <time>2016-02-06T10:14:11Z</time>
      </trkpt>
      <trkpt lat="45.60488" lon="6.656">
        <ele>1920</ele>
        <time>2016-02-06T10:14:14Z</time>
      </trkpt>
      <trkpt lat="45.60489" lon="6.656">
        <ele>1920</ele>
        <time>2016-02-06T10:14:17Z</time>
      </trkpt>
      <trkpt lat="45.60488" lon="6.65602">
        <ele>1920</ele>
        <time>2016-02-06T10:14:23Z</time>
      </trkpt>
      <trkpt lat="45.60488" lon="6.65604">
        <ele>1920</ele>
        <time>2016-02-06T10:14:25Z</time>
      </trkpt>
      <trkpt lat="45.60488" lon="6.65605">
        <ele>1920</ele>
        <time>2016-02-06T10:14:28Z</time>
      </trkpt>
      <trkpt lat="45.60488" lon="6.65607">
        <ele>1920</ele>
        <time>2016-02-06T10:14:30Z</time>
      </trkpt>
      <trkpt lat="45.60488" lon="6.65609">
        <ele>1920</ele>
        <time>2016-02-06T10:14:32Z</time>
      </trkpt>
      <trkpt lat="45.60487" lon="6.65611">
        <ele>1920</ele>
        <time>2016-02-06T10:14:35Z</time>
      </trkpt>
      <trkpt lat="45.60486" lon="6.65612">
        <ele>1920</ele>
        <time>2016-02-06T10:14:38Z</time>
      </trkpt>
      <trkpt lat="45.60485" lon="6.65615">
        <ele>1920</ele>
        <time>2016-02-06T10:14:42Z</time>
      </trkpt>
      <trkpt lat="45.60485" lon="6.65616">
        <ele>1920</ele>
        <time>2016-02-06T10:14:43Z</time>
      </trkpt>
      <trkpt lat="45.60485" lon="6.65618">
        <ele>1920</ele>
        <time>2016-02-06T10:14:45Z</time>
      </trkpt>
      <trkpt lat="45.60484" lon="6.6562">
        <ele>1920</ele>
        <time>2016-02-06T10:14:48Z</time>
      </trkpt>
      <trkpt lat="45.60483" lon="6.65621">
        <ele>1920</ele>
        <time>2016-02-06T10:14:50Z</time>
      </trkpt>
      <trkpt lat="45.60484" lon="6.65623">
        <ele>1920</ele>
        <time>2016-02-06T10:14:52Z</time>
      </trkpt>
      <trkpt lat="45.60484" lon="6.65625">
        <ele>1920</ele>
        <time>2016-02-06T10:14:55Z</time>
      </trkpt>
      <trkpt lat="45.60483" lon="6.65626">
        <ele>1920</ele>
        <time>2016-02-06T10:14:58Z</time>
      </trkpt>
      <trkpt lat="45.60482" lon="6.65627">
        <ele>1920</ele>
        <time>2016-02-06T10:15:00Z</time>
      </trkpt>
      <trkpt lat="45.60482" lon="6.65629">
        <ele>1920</ele>
        <time>2016-02-06T10:15:06Z</time>
      </trkpt>
      <trkpt lat="45.60483" lon="6.65629">
        <ele>1921</ele>
        <time>2016-02-06T10:15:07Z</time>
      </trkpt>
      <trkpt lat="45.60485" lon="6.6563">
        <ele>1921</ele>
        <time>2016-02-06T10:15:08Z</time>
      </trkpt>
      <trkpt lat="45.60486" lon="6.65631">
        <ele>1921</ele>
        <time>2016-02-06T10:15:09Z</time>
      </trkpt>
      <trkpt lat="45.60487" lon="6.6563">
        <ele>1921</ele>
        <time>2016-02-06T10:15:10Z</time>
      </trkpt>
      <trkpt lat="45.60489" lon="6.65629">
        <ele>1921</ele>
        <time>2016-02-06T10:15:13Z</time>
      </trkpt>
      <trkpt lat="45.60491" lon="6.6563">
        <ele>1922</ele>
        <time>2016-02-06T10:15:15Z</time>
      </trkpt>
      <trkpt lat="45.60492" lon="6.6563">
        <ele>1922</ele>
        <time>2016-02-06T10:15:17Z</time>
      </trkpt>
      <trkpt lat="45.60494" lon="6.6563">
        <ele>1922</ele>
        <time>2016-02-06T10:15:20Z</time>
      </trkpt>
      <trkpt lat="45.60496" lon="6.65631">
        <ele>1922</ele>
        <time>2016-02-06T10:15:22Z</time>
      </trkpt>
      <trkpt lat="45.60498" lon="6.65632">
        <ele>1922</ele>
        <time>2016-02-06T10:15:26Z</time>
      </trkpt>
      <trkpt lat="45.605" lon="6.65632">
        <ele>1923</ele>
        <time>2016-02-06T10:15:28Z</time>
      </trkpt>
      <trkpt lat="45.60501" lon="6.65632">
        <ele>1937</ele>
        <time>2016-02-06T10:15:30Z</time>
      </trkpt>
      <trkpt lat="45.60503" lon="6.65631">
        <ele>1938</ele>
        <time>2016-02-06T10:15:32Z</time>
      </trkpt>
      <trkpt lat="45.60504" lon="6.65631">
        <ele>1938</ele>
        <time>2016-02-06T10:15:35Z</time>
      </trkpt>
      <trkpt lat="45.60506" lon="6.6563">
        <ele>1938</ele>
        <time>2016-02-06T10:15:38Z</time>
      </trkpt>
      <trkpt lat="45.60507" lon="6.6563">
        <ele>1938</ele>
        <time>2016-02-06T10:15:39Z</time>
      </trkpt>
      <trkpt lat="45.60508" lon="6.6563">
        <ele>1938</ele>
        <time>2016-02-06T10:15:40Z</time>
      </trkpt>
      <trkpt lat="45.6051" lon="6.65629">
        <ele>1938</ele>
        <time>2016-02-06T10:15:42Z</time>
      </trkpt>
      <trkpt lat="45.60511" lon="6.65629">
        <ele>1938</ele>
        <time>2016-02-06T10:15:44Z</time>
      </trkpt>
      <trkpt lat="45.60513" lon="6.6563">
        <ele>1938</ele>
        <time>2016-02-06T10:15:46Z</time>
      </trkpt>
      <trkpt lat="45.60514" lon="6.6563">
        <ele>1938</ele>
        <time>2016-02-06T10:15:48Z</time>
      </trkpt>
      <trkpt lat="45.60516" lon="6.65631">
        <ele>1938</ele>
        <time>2016-02-06T10:15:50Z</time>
      </trkpt>
      <trkpt lat="45.60517" lon="6.65631">
        <ele>1939</ele>
        <time>2016-02-06T10:15:52Z</time>
      </trkpt>
      <trkpt lat="45.60519" lon="6.65631">
        <ele>1939</ele>
        <time>2016-02-06T10:15:54Z</time>
      </trkpt>
      <trkpt lat="45.60521" lon="6.65632">
        <ele>1939</ele>
        <time>2016-02-06T10:15:56Z</time>
      </trkpt>
      <trkpt lat="45.60522" lon="6.65632">
        <ele>1939</ele>
        <time>2016-02-06T10:15:58Z</time>
      </trkpt>
      <trkpt lat="45.60524" lon="6.65632">
        <ele>1939</ele>
        <time>2016-02-06T10:16:00Z</time>
      </trkpt>
      <trkpt lat="45.60525" lon="6.65632">
        <ele>1940</ele>
        <time>2016-02-06T10:16:01Z</time>
      </trkpt>
      <trkpt lat="45.60527" lon="6.65633">
        <ele>1940</ele>
        <time>2016-02-06T10:16:02Z</time>
      </trkpt>
      <trkpt lat="45.60528" lon="6.65635">
        <ele>1940</ele>
        <time>2016-02-06T10:16:03Z</time>
      </trkpt>
      <trkpt lat="45.6053" lon="6.65636">
        <ele>1940</ele>
        <time>2016-02-06T10:16:04Z</time>
      </trkpt>
      <trkpt lat="45.60531" lon="6.65636">
        <ele>1941</ele>
        <time>2016-02-06T10:16:06Z</time>
      </trkpt>
      <trkpt lat="45.60533" lon="6.65637">
        <ele>1941</ele>
        <time>2016-02-06T10:16:08Z</time>
      </trkpt>
      <trkpt lat="45.60535" lon="6.65638">
        <ele>1941</ele>
        <time>2016-02-06T10:16:11Z</time>
      </trkpt>
      <trkpt lat="45.60536" lon="6.65638">
        <ele>1941</ele>
        <time>2016-02-06T10:16:13Z</time>
      </trkpt>
      <trkpt lat="45.60538" lon="6.6564">
        <ele>1942</ele>
        <time>2016-02-06T10:16:17Z</time>
      </trkpt>
      <trkpt lat="45.60539" lon="6.6564">
        <ele>1942</ele>
        <time>2016-02-06T10:16:19Z</time>
      </trkpt>
      <trkpt lat="45.60541" lon="6.65641">
        <ele>1942</ele>
        <time>2016-02-06T10:16:21Z</time>
      </trkpt>
      <trkpt lat="45.60542" lon="6.65643">
        <ele>1942</ele>
        <time>2016-02-06T10:16:23Z</time>
      </trkpt>
      <trkpt lat="45.60544" lon="6.65644">
        <ele>1943</ele>
        <time>2016-02-06T10:16:27Z</time>
      </trkpt>
      <trkpt lat="45.60545" lon="6.65645">
        <ele>1943</ele>
        <time>2016-02-06T10:16:29Z</time>
      </trkpt>
      <trkpt lat="45.60546" lon="6.65646">
        <ele>1943</ele>
        <time>2016-02-06T10:16:31Z</time>
      </trkpt>
      <trkpt lat="45.60548" lon="6.65647">
        <ele>1943</ele>
        <time>2016-02-06T10:16:33Z</time>
      </trkpt>
      <trkpt lat="45.60548" lon="6.65649">
        <ele>1943</ele>
        <time>2016-02-06T10:16:36Z</time>
      </trkpt>
      <trkpt lat="45.6055" lon="6.6565">
        <ele>1944</ele>
        <time>2016-02-06T10:16:38Z</time>
      </trkpt>
      <trkpt lat="45.6055" lon="6.65652">
        <ele>1944</ele>
        <time>2016-02-06T10:16:40Z</time>
      </trkpt>
      <trkpt lat="45.60551" lon="6.65653">
        <ele>1944</ele>
        <time>2016-02-06T10:16:42Z</time>
      </trkpt>
      <trkpt lat="45.60552" lon="6.65655">
        <ele>1945</ele>
        <time>2016-02-06T10:16:44Z</time>
      </trkpt>
      <trkpt lat="45.60553" lon="6.65657">
        <ele>1945</ele>
        <time>2016-02-06T10:16:46Z</time>
      </trkpt>
      <trkpt lat="45.60554" lon="6.65658">
        <ele>1945</ele>
        <time>2016-02-06T10:16:49Z</time>
      </trkpt>
      <trkpt lat="45.60555" lon="6.6566">
        <ele>1945</ele>
        <time>2016-02-06T10:16:52Z</time>
      </trkpt>
      <trkpt lat="45.60556" lon="6.65661">
        <ele>1946</ele>
        <time>2016-02-06T10:16:55Z</time>
      </trkpt>
      <trkpt lat="45.60558" lon="6.65662">
        <ele>1946</ele>
        <time>2016-02-06T10:16:57Z</time>
      </trkpt>
      <trkpt lat="45.60559" lon="6.65663">
        <ele>1946</ele>
        <time>2016-02-06T10:17:02Z</time>
      </trkpt>
      <trkpt lat="45.6056" lon="6.65663">
        <ele>1947</ele>
        <time>2016-02-06T10:17:07Z</time>
      </trkpt>
      <trkpt lat="45.60562" lon="6.65663">
        <ele>1947</ele>
        <time>2016-02-06T10:17:10Z</time>
      </trkpt>
      <trkpt lat="45.60563" lon="6.65665">
        <ele>1948</ele>
        <time>2016-02-06T10:17:13Z</time>
      </trkpt>
      <trkpt lat="45.60565" lon="6.65666">
        <ele>1948</ele>
        <time>2016-02-06T10:17:15Z</time>
      </trkpt>
      <trkpt lat="45.60566" lon="6.65667">
        <ele>1954</ele>
        <time>2016-02-06T10:17:20Z</time>
      </trkpt>
      <trkpt lat="45.60567" lon="6.65668">
        <ele>1954</ele>
        <time>2016-02-06T10:17:23Z</time>
      </trkpt>
      <trkpt lat="45.60569" lon="6.65669">
        <ele>1954</ele>
        <time>2016-02-06T10:17:26Z</time>
      </trkpt>
      <trkpt lat="45.60568" lon="6.65671">
        <ele>1954</ele>
        <time>2016-02-06T10:17:30Z</time>
      </trkpt>
      <trkpt lat="45.60567" lon="6.6567">
        <ele>1954</ele>
        <time>2016-02-06T10:17:32Z</time>
      </trkpt>
      <trkpt lat="45.60566" lon="6.65672">
        <ele>1954</ele>
        <time>2016-02-06T10:17:36Z</time>
      </trkpt>
      <trkpt lat="45.60565" lon="6.65673">
        <ele>1954</ele>
        <time>2016-02-06T10:17:38Z</time>
      </trkpt>
      <trkpt lat="45.60564" lon="6.65675">
        <ele>1954</ele>
        <time>2016-02-06T10:17:41Z</time>
      </trkpt>
      <trkpt lat="45.60563" lon="6.65676">
        <ele>1954</ele>
        <time>2016-02-06T10:17:43Z</time>
      </trkpt>
      <trkpt lat="45.60561" lon="6.65677">
        <ele>1954</ele>
        <time>2016-02-06T10:17:45Z</time>
      </trkpt>
      <trkpt lat="45.6056" lon="6.65679">
        <ele>1954</ele>
        <time>2016-02-06T10:17:47Z</time>
      </trkpt>
      <trkpt lat="45.60558" lon="6.6568">
        <ele>1954</ele>
        <time>2016-02-06T10:17:49Z</time>
      </trkpt>
      <trkpt lat="45.60557" lon="6.65681">
        <ele>1954</ele>
        <time>2016-02-06T10:17:52Z</time>
      </trkpt>
      <trkpt lat="45.60557" lon="6.65683">
        <ele>1954</ele>
        <time>2016-02-06T10:17:54Z</time>
      </trkpt>
      <trkpt lat="45.60555" lon="6.65685">
        <ele>1954</ele>
        <time>2016-02-06T10:17:58Z</time>
      </trkpt>
      <trkpt lat="45.60554" lon="6.65687">
        <ele>1954</ele>
        <time>2016-02-06T10:17:59Z</time>
      </trkpt>
      <trkpt lat="45.60554" lon="6.65688">
        <ele>1954</ele>
        <time>2016-02-06T10:18:01Z</time>
      </trkpt>
      <trkpt lat="45.60553" lon="6.6569">
        <ele>1954</ele>
        <time>2016-02-06T10:18:03Z</time>
      </trkpt>
      <trkpt lat="45.60552" lon="6.65692">
        <ele>1954</ele>
        <time>2016-02-06T10:18:05Z</time>
      </trkpt>
      <trkpt lat="45.60551" lon="6.65693">
        <ele>1954</ele>
        <time>2016-02-06T10:18:07Z</time>
      </trkpt>
      <trkpt lat="45.60551" lon="6.65695">
        <ele>1954</ele>
        <time>2016-02-06T10:18:09Z</time>
      </trkpt>
      <trkpt lat="45.60551" lon="6.65697">
        <ele>1955</ele>
        <time>2016-02-06T10:18:12Z</time>
      </trkpt>
      <trkpt lat="45.6055" lon="6.65699">
        <ele>1955</ele>
        <time>2016-02-06T10:18:15Z</time>
      </trkpt>
      <trkpt lat="45.60549" lon="6.657">
        <ele>1955</ele>
        <time>2016-02-06T10:18:20Z</time>
      </trkpt>
      <trkpt lat="45.60547" lon="6.65701">
        <ele>1955</ele>
        <time>2016-02-06T10:18:23Z</time>
      </trkpt>
      <trkpt lat="45.60546" lon="6.65703">
        <ele>1955</ele>
        <time>2016-02-06T10:18:27Z</time>
      </trkpt>
      <trkpt lat="45.60544" lon="6.65705">
        <ele>1955</ele>
        <time>2016-02-06T10:18:33Z</time>
      </trkpt>
      <trkpt lat="45.60543" lon="6.65706">
        <ele>1955</ele>
        <time>2016-02-06T10:18:35Z</time>
      </trkpt>
      <trkpt lat="45.60542" lon="6.65707">
        <ele>1955</ele>
        <time>2016-02-06T10:18:40Z</time>
      </trkpt>
      <trkpt lat="45.60541" lon="6.65709">
        <ele>1955</ele>
        <time>2016-02-06T10:18:44Z</time>
      </trkpt>
      <trkpt lat="45.6054" lon="6.65711">
        <ele>1955</ele>
        <time>2016-02-06T10:18:47Z</time>
      </trkpt>
      <trkpt lat="45.60539" lon="6.65712">
        <ele>1955</ele>
        <time>2016-02-06T10:18:49Z</time>
      </trkpt>
      <trkpt lat="45.6054" lon="6.65715">
        <ele>1955</ele>
        <time>2016-02-06T10:18:51Z</time>
      </trkpt>
      <trkpt lat="45.6054" lon="6.65716">
        <ele>1955</ele>
        <time>2016-02-06T10:18:54Z</time>
      </trkpt>
      <trkpt lat="45.60539" lon="6.65718">
        <ele>1956</ele>
        <time>2016-02-06T10:19:03Z</time>
      </trkpt>
      <trkpt lat="45.60538" lon="6.6572">
        <ele>1956</ele>
        <time>2016-02-06T10:19:07Z</time>
      </trkpt>
      <trkpt lat="45.60538" lon="6.65721">
        <ele>1956</ele>
        <time>2016-02-06T10:19:10Z</time>
      </trkpt>
      <trkpt lat="45.60536" lon="6.65723">
        <ele>1956</ele>
        <time>2016-02-06T10:19:12Z</time>
      </trkpt>
      <trkpt lat="45.60535" lon="6.65725">
        <ele>1956</ele>
        <time>2016-02-06T10:19:15Z</time>
      </trkpt>
      <trkpt lat="45.60534" lon="6.65727">
        <ele>1956</ele>
        <time>2016-02-06T10:19:18Z</time>
      </trkpt>
      <trkpt lat="45.60534" lon="6.65728">
        <ele>1956</ele>
        <time>2016-02-06T10:19:20Z</time>
      </trkpt>
      <trkpt lat="45.60535" lon="6.6573">
        <ele>1956</ele>
        <time>2016-02-06T10:19:23Z</time>
      </trkpt>
      <trkpt lat="45.60534" lon="6.65731">
        <ele>1956</ele>
        <time>2016-02-06T10:19:25Z</time>
      </trkpt>
      <trkpt lat="45.60533" lon="6.65734">
        <ele>1956</ele>
        <time>2016-02-06T10:19:29Z</time>
      </trkpt>
      <trkpt lat="45.60532" lon="6.65735">
        <ele>1956</ele>
        <time>2016-02-06T10:19:31Z</time>
      </trkpt>
      <trkpt lat="45.60532" lon="6.65737">
        <ele>1956</ele>
        <time>2016-02-06T10:19:34Z</time>
      </trkpt>
      <trkpt lat="45.6053" lon="6.65738">
        <ele>1956</ele>
        <time>2016-02-06T10:19:36Z</time>
      </trkpt>
      <trkpt lat="45.60529" lon="6.6574">
        <ele>1956</ele>
        <time>2016-02-06T10:19:40Z</time>
      </trkpt>
      <trkpt lat="45.6053" lon="6.65742">
        <ele>1956</ele>
        <time>2016-02-06T10:19:42Z</time>
      </trkpt>
      <trkpt lat="45.60531" lon="6.65743">
        <ele>1956</ele>
        <time>2016-02-06T10:19:43Z</time>
      </trkpt>
      <trkpt lat="45.60531" lon="6.65746">
        <ele>1957</ele>
        <time>2016-02-06T10:19:44Z</time>
      </trkpt>
      <trkpt lat="45.60531" lon="6.65748">
        <ele>1957</ele>
        <time>2016-02-06T10:19:46Z</time>
      </trkpt>
      <trkpt lat="45.60529" lon="6.65748">
        <ele>1956</ele>
        <time>2016-02-06T10:19:48Z</time>
      </trkpt>
      <trkpt lat="45.60529" lon="6.6575">
        <ele>1956</ele>
        <time>2016-02-06T10:19:51Z</time>
      </trkpt>
      <trkpt lat="45.60528" lon="6.65752">
        <ele>1967</ele>
        <time>2016-02-06T10:19:58Z</time>
      </trkpt>
      <trkpt lat="45.60527" lon="6.65753">
        <ele>1966</ele>
        <time>2016-02-06T10:19:59Z</time>
      </trkpt>
      <trkpt lat="45.60526" lon="6.65755">
        <ele>1966</ele>
        <time>2016-02-06T10:20:02Z</time>
      </trkpt>
      <trkpt lat="45.60526" lon="6.65757">
        <ele>1966</ele>
        <time>2016-02-06T10:20:05Z</time>
      </trkpt>
      <trkpt lat="45.60527" lon="6.65759">
        <ele>1967</ele>
        <time>2016-02-06T10:20:09Z</time>
      </trkpt>
      <trkpt lat="45.60527" lon="6.6576">
        <ele>1967</ele>
        <time>2016-02-06T10:20:11Z</time>
      </trkpt>
      <trkpt lat="45.60526" lon="6.65762">
        <ele>1967</ele>
        <time>2016-02-06T10:20:14Z</time>
      </trkpt>
      <trkpt lat="45.60526" lon="6.65764">
        <ele>1967</ele>
        <time>2016-02-06T10:20:17Z</time>
      </trkpt>
      <trkpt lat="45.60526" lon="6.65765">
        <ele>1967</ele>
        <time>2016-02-06T10:20:19Z</time>
      </trkpt>
      <trkpt lat="45.60525" lon="6.65766">
        <ele>1967</ele>
        <time>2016-02-06T10:20:21Z</time>
      </trkpt>
      <trkpt lat="45.60526" lon="6.65768">
        <ele>1968</ele>
        <time>2016-02-06T10:20:24Z</time>
      </trkpt>
      <trkpt lat="45.60527" lon="6.65769">
        <ele>1968</ele>
        <time>2016-02-06T10:20:26Z</time>
      </trkpt>
      <trkpt lat="45.60528" lon="6.6577">
        <ele>1968</ele>
        <time>2016-02-06T10:20:29Z</time>
      </trkpt>
      <trkpt lat="45.60529" lon="6.65771">
        <ele>1969</ele>
        <time>2016-02-06T10:20:32Z</time>
      </trkpt>
      <trkpt lat="45.60529" lon="6.65773">
        <ele>1969</ele>
        <time>2016-02-06T10:20:36Z</time>
      </trkpt>
      <trkpt lat="45.6053" lon="6.65774">
        <ele>1969</ele>
        <time>2016-02-06T10:20:38Z</time>
      </trkpt>
      <trkpt lat="45.6053" lon="6.65776">
        <ele>1970</ele>
        <time>2016-02-06T10:20:44Z</time>
      </trkpt>
      <trkpt lat="45.6053" lon="6.65778">
        <ele>1970</ele>
        <time>2016-02-06T10:20:46Z</time>
      </trkpt>
      <trkpt lat="45.6053" lon="6.6578">
        <ele>1970</ele>
        <time>2016-02-06T10:20:49Z</time>
      </trkpt>
      <trkpt lat="45.6053" lon="6.65782">
        <ele>1970</ele>
        <time>2016-02-06T10:20:51Z</time>
      </trkpt>
      <trkpt lat="45.60531" lon="6.65783">
        <ele>1970</ele>
        <time>2016-02-06T10:20:55Z</time>
      </trkpt>
      <trkpt lat="45.60531" lon="6.65785">
        <ele>1971</ele>
        <time>2016-02-06T10:20:57Z</time>
      </trkpt>
      <trkpt lat="45.60532" lon="6.65787">
        <ele>1971</ele>
        <time>2016-02-06T10:21:00Z</time>
      </trkpt>
      <trkpt lat="45.60533" lon="6.65789">
        <ele>1971</ele>
        <time>2016-02-06T10:21:03Z</time>
      </trkpt>
      <trkpt lat="45.60531" lon="6.65789">
        <ele>1971</ele>
        <time>2016-02-06T10:21:07Z</time>
      </trkpt>
      <trkpt lat="45.60532" lon="6.65791">
        <ele>1971</ele>
        <time>2016-02-06T10:21:11Z</time>
      </trkpt>
      <trkpt lat="45.60533" lon="6.65792">
        <ele>1972</ele>
        <time>2016-02-06T10:21:14Z</time>
      </trkpt>
      <trkpt lat="45.60533" lon="6.65794">
        <ele>1972</ele>
        <time>2016-02-06T10:21:17Z</time>
      </trkpt>
      <trkpt lat="45.60534" lon="6.65793">
        <ele>1972</ele>
        <time>2016-02-06T10:21:26Z</time>
      </trkpt>
      <trkpt lat="45.60535" lon="6.65795">
        <ele>1972</ele>
        <time>2016-02-06T10:21:32Z</time>
      </trkpt>
      <trkpt lat="45.60535" lon="6.65796">
        <ele>1972</ele>
        <time>2016-02-06T10:21:36Z</time>
      </trkpt>
      <trkpt lat="45.60534" lon="6.65798">
        <ele>1972</ele>
        <time>2016-02-06T10:21:40Z</time>
      </trkpt>
      <trkpt lat="45.60534" lon="6.658">
        <ele>1973</ele>
        <time>2016-02-06T10:21:42Z</time>
      </trkpt>
      <trkpt lat="45.60534" lon="6.65801">
        <ele>1973</ele>
        <time>2016-02-06T10:21:45Z</time>
      </trkpt>
      <trkpt lat="45.60534" lon="6.65803">
        <ele>1973</ele>
        <time>2016-02-06T10:21:49Z</time>
      </trkpt>
      <trkpt lat="45.60534" lon="6.65804">
        <ele>1973</ele>
        <time>2016-02-06T10:21:51Z</time>
      </trkpt>
      <trkpt lat="45.60533" lon="6.65806">
        <ele>1973</ele>
        <time>2016-02-06T10:21:53Z</time>
      </trkpt>
      <trkpt lat="45.60533" lon="6.65808">
        <ele>1973</ele>
        <time>2016-02-06T10:21:55Z</time>
      </trkpt>
      <trkpt lat="45.60532" lon="6.6581">
        <ele>1973</ele>
        <time>2016-02-06T10:21:57Z</time>
      </trkpt>
      <trkpt lat="45.60532" lon="6.65813">
        <ele>1973</ele>
        <time>2016-02-06T10:21:59Z</time>
      </trkpt>
      <trkpt lat="45.60532" lon="6.65814">
        <ele>1973</ele>
        <time>2016-02-06T10:22:01Z</time>
      </trkpt>
      <trkpt lat="45.60532" lon="6.65816">
        <ele>1974</ele>
        <time>2016-02-06T10:22:03Z</time>
      </trkpt>
      <trkpt lat="45.60534" lon="6.65818">
        <ele>1974</ele>
        <time>2016-02-06T10:22:05Z</time>
      </trkpt>
      <trkpt lat="45.60534" lon="6.6582">
        <ele>1974</ele>
        <time>2016-02-06T10:22:08Z</time>
      </trkpt>
      <trkpt lat="45.60534" lon="6.65822">
        <ele>1974</ele>
        <time>2016-02-06T10:22:10Z</time>
      </trkpt>
      <trkpt lat="45.60534" lon="6.65823">
        <ele>1974</ele>
        <time>2016-02-06T10:22:12Z</time>
      </trkpt>
      <trkpt lat="45.60533" lon="6.65825">
        <ele>1974</ele>
        <time>2016-02-06T10:22:14Z</time>
      </trkpt>
      <trkpt lat="45.60533" lon="6.65827">
        <ele>1974</ele>
        <time>2016-02-06T10:22:16Z</time>
      </trkpt>
      <trkpt lat="45.60533" lon="6.65828">
        <ele>1974</ele>
        <time>2016-02-06T10:22:18Z</time>
      </trkpt>
      <trkpt lat="45.60533" lon="6.6583">
        <ele>1974</ele>
        <time>2016-02-06T10:22:20Z</time>
      </trkpt>
      <trkpt lat="45.60533" lon="6.65832">
        <ele>1974</ele>
        <time>2016-02-06T10:22:22Z</time>
      </trkpt>
      <trkpt lat="45.60532" lon="6.65834">
        <ele>1982</ele>
        <time>2016-02-06T10:22:25Z</time>
      </trkpt>
      <trkpt lat="45.60532" lon="6.65836">
        <ele>1982</ele>
        <time>2016-02-06T10:22:27Z</time>
      </trkpt>
      <trkpt lat="45.60531" lon="6.65837">
        <ele>1982</ele>
        <time>2016-02-06T10:22:30Z</time>
      </trkpt>
      <trkpt lat="45.60532" lon="6.6584">
        <ele>1982</ele>
        <time>2016-02-06T10:22:33Z</time>
      </trkpt>
      <trkpt lat="45.60532" lon="6.65841">
        <ele>1982</ele>
        <time>2016-02-06T10:22:36Z</time>
      </trkpt>
      <trkpt lat="45.60531" lon="6.65843">
        <ele>1982</ele>
        <time>2016-02-06T10:22:39Z</time>
      </trkpt>
      <trkpt lat="45.6053" lon="6.65845">
        <ele>1982</ele>
        <time>2016-02-06T10:22:43Z</time>
      </trkpt>
      <trkpt lat="45.60532" lon="6.65847">
        <ele>1982</ele>
        <time>2016-02-06T10:22:46Z</time>
      </trkpt>
      <trkpt lat="45.60533" lon="6.65848">
        <ele>1983</ele>
        <time>2016-02-06T10:22:51Z</time>
      </trkpt>
      <trkpt lat="45.60535" lon="6.65847">
        <ele>1983</ele>
        <time>2016-02-06T10:22:54Z</time>
      </trkpt>
      <trkpt lat="45.60536" lon="6.65847">
        <ele>1983</ele>
        <time>2016-02-06T10:22:55Z</time>
      </trkpt>
      <trkpt lat="45.60537" lon="6.65848">
        <ele>1983</ele>
        <time>2016-02-06T10:22:57Z</time>
      </trkpt>
      <trkpt lat="45.60537" lon="6.6585">
        <ele>1984</ele>
        <time>2016-02-06T10:22:59Z</time>
      </trkpt>
      <trkpt lat="45.60538" lon="6.65853">
        <ele>1984</ele>
        <time>2016-02-06T10:23:01Z</time>
      </trkpt>
      <trkpt lat="45.60539" lon="6.65855">
        <ele>1984</ele>
        <time>2016-02-06T10:23:03Z</time>
      </trkpt>
      <trkpt lat="45.6054" lon="6.65857">
        <ele>1984</ele>
        <time>2016-02-06T10:23:06Z</time>
      </trkpt>
      <trkpt lat="45.60542" lon="6.65858">
        <ele>1985</ele>
        <time>2016-02-06T10:23:08Z</time>
      </trkpt>
      <trkpt lat="45.60543" lon="6.65858">
        <ele>1985</ele>
        <time>2016-02-06T10:23:09Z</time>
      </trkpt>
      <trkpt lat="45.60544" lon="6.6586">
        <ele>1985</ele>
        <time>2016-02-06T10:23:11Z</time>
      </trkpt>
      <trkpt lat="45.60546" lon="6.65861">
        <ele>1985</ele>
        <time>2016-02-06T10:23:14Z</time>
      </trkpt>
      <trkpt lat="45.60545" lon="6.65862">
        <ele>1985</ele>
        <time>2016-02-06T10:23:23Z</time>
      </trkpt>
      <trkpt lat="45.60545" lon="6.65864">
        <ele>1985</ele>
        <time>2016-02-06T10:23:26Z</time>
      </trkpt>
      <trkpt lat="45.60546" lon="6.65864">
        <ele>1985</ele>
        <time>2016-02-06T10:23:35Z</time>
      </trkpt>
      <trkpt lat="45.60547" lon="6.65865">
        <ele>1986</ele>
        <time>2016-02-06T10:23:39Z</time>
      </trkpt>
      <trkpt lat="45.60548" lon="6.65865">
        <ele>1986</ele>
        <time>2016-02-06T10:23:43Z</time>
      </trkpt>
      <trkpt lat="45.6055" lon="6.65864">
        <ele>1986</ele>
        <time>2016-02-06T10:23:48Z</time>
      </trkpt>
      <trkpt lat="45.6055" lon="6.65862">
        <ele>1986</ele>
        <time>2016-02-06T10:23:52Z</time>
      </trkpt>
      <trkpt lat="45.60552" lon="6.65861">
        <ele>1986</ele>
        <time>2016-02-06T10:23:55Z</time>
      </trkpt>
      <trkpt lat="45.60551" lon="6.65859">
        <ele>1986</ele>
        <time>2016-02-06T10:24:05Z</time>
      </trkpt>
      <trkpt lat="45.6055" lon="6.6586">
        <ele>1986</ele>
        <time>2016-02-06T10:24:08Z</time>
      </trkpt>
      <trkpt lat="45.60549" lon="6.65861">
        <ele>1986</ele>
        <time>2016-02-06T10:24:09Z</time>
      </trkpt>
      <trkpt lat="45.60549" lon="6.65863">
        <ele>1986</ele>
        <time>2016-02-06T10:24:12Z</time>
      </trkpt>
      <trkpt lat="45.60551" lon="6.65865">
        <ele>1986</ele>
        <time>2016-02-06T10:24:15Z</time>
      </trkpt>
      <trkpt lat="45.60552" lon="6.65867">
        <ele>1986</ele>
        <time>2016-02-06T10:24:17Z</time>
      </trkpt>
      <trkpt lat="45.60553" lon="6.65868">
        <ele>1987</ele>
        <time>2016-02-06T10:24:19Z</time>
      </trkpt>
      <trkpt lat="45.60554" lon="6.6587">
        <ele>1987</ele>
        <time>2016-02-06T10:24:21Z</time>
      </trkpt>
      <trkpt lat="45.60555" lon="6.65872">
        <ele>1987</ele>
        <time>2016-02-06T10:24:23Z</time>
      </trkpt>
      <trkpt lat="45.60556" lon="6.65873">
        <ele>1987</ele>
        <time>2016-02-06T10:24:26Z</time>
      </trkpt>
      <trkpt lat="45.60558" lon="6.65875">
        <ele>1988</ele>
        <time>2016-02-06T10:24:29Z</time>
      </trkpt>
      <trkpt lat="45.60559" lon="6.65876">
        <ele>1988</ele>
        <time>2016-02-06T10:24:31Z</time>
      </trkpt>
      <trkpt lat="45.6056" lon="6.65878">
        <ele>1988</ele>
        <time>2016-02-06T10:24:33Z</time>
      </trkpt>
      <trkpt lat="45.60562" lon="6.65878">
        <ele>1988</ele>
        <time>2016-02-06T10:24:35Z</time>
      </trkpt>
      <trkpt lat="45.60563" lon="6.6588">
        <ele>1988</ele>
        <time>2016-02-06T10:24:37Z</time>
      </trkpt>
      <trkpt lat="45.60564" lon="6.65882">
        <ele>1989</ele>
        <time>2016-02-06T10:24:40Z</time>
      </trkpt>
      <trkpt lat="45.60566" lon="6.65883">
        <ele>1989</ele>
        <time>2016-02-06T10:24:45Z</time>
      </trkpt>
      <trkpt lat="45.60567" lon="6.65884">
        <ele>1989</ele>
        <time>2016-02-06T10:24:47Z</time>
      </trkpt>
      <trkpt lat="45.60568" lon="6.65886">
        <ele>1990</ele>
        <time>2016-02-06T10:24:50Z</time>
      </trkpt>
      <trkpt lat="45.60569" lon="6.65889">
        <ele>1990</ele>
        <time>2016-02-06T10:24:53Z</time>
      </trkpt>
      <trkpt lat="45.6057" lon="6.6589">
        <ele>1991</ele>
        <time>2016-02-06T10:24:55Z</time>
      </trkpt>
      <trkpt lat="45.60571" lon="6.65893">
        <ele>1991</ele>
        <time>2016-02-06T10:24:58Z</time>
      </trkpt>
      <trkpt lat="45.60572" lon="6.65895">
        <ele>1991</ele>
        <time>2016-02-06T10:25:01Z</time>
      </trkpt>
      <trkpt lat="45.60573" lon="6.65896">
        <ele>1992</ele>
        <time>2016-02-06T10:25:03Z</time>
      </trkpt>
      <trkpt lat="45.60575" lon="6.65898">
        <ele>1992</ele>
        <time>2016-02-06T10:25:05Z</time>
      </trkpt>
      <trkpt lat="45.60575" lon="6.65899">
        <ele>1993</ele>
        <time>2016-02-06T10:25:07Z</time>
      </trkpt>
      <trkpt lat="45.60575" lon="6.65901">
        <ele>1993</ele>
        <time>2016-02-06T10:25:09Z</time>
      </trkpt>
      <trkpt lat="45.60577" lon="6.65902">
        <ele>1994</ele>
        <time>2016-02-06T10:25:13Z</time>
      </trkpt>
      <trkpt lat="45.60577" lon="6.65903">
        <ele>1994</ele>
        <time>2016-02-06T10:25:16Z</time>
      </trkpt>
      <trkpt lat="45.60578" lon="6.65905">
        <ele>1995</ele>
        <time>2016-02-06T10:25:19Z</time>
      </trkpt>
      <trkpt lat="45.60579" lon="6.65906">
        <ele>1995</ele>
        <time>2016-02-06T10:25:21Z</time>
      </trkpt>
      <trkpt lat="45.60578" lon="6.65907">
        <ele>1996</ele>
        <time>2016-02-06T10:25:24Z</time>
      </trkpt>
      <trkpt lat="45.60577" lon="6.65909">
        <ele>1996</ele>
        <time>2016-02-06T10:25:26Z</time>
      </trkpt>
      <trkpt lat="45.60579" lon="6.65909">
        <ele>1996</ele>
        <time>2016-02-06T10:25:30Z</time>
      </trkpt>
      <trkpt lat="45.6058" lon="6.65911">
        <ele>1997</ele>
        <time>2016-02-06T10:25:33Z</time>
      </trkpt>
      <trkpt lat="45.6058" lon="6.65913">
        <ele>1998</ele>
        <time>2016-02-06T10:25:35Z</time>
      </trkpt>
      <trkpt lat="45.60582" lon="6.65915">
        <ele>1999</ele>
        <time>2016-02-06T10:25:38Z</time>
      </trkpt>
      <trkpt lat="45.60583" lon="6.65914">
        <ele>2000</ele>
        <time>2016-02-06T10:25:42Z</time>
      </trkpt>
      <trkpt lat="45.60584" lon="6.65915">
        <ele>2001</ele>
        <time>2016-02-06T10:25:44Z</time>
      </trkpt>
      <trkpt lat="45.60585" lon="6.65916">
        <ele>2001</ele>
        <time>2016-02-06T10:25:46Z</time>
      </trkpt>
      <trkpt lat="45.60586" lon="6.65918">
        <ele>2003</ele>
        <time>2016-02-06T10:25:48Z</time>
      </trkpt>
      <trkpt lat="45.60587" lon="6.6592">
        <ele>2003</ele>
        <time>2016-02-06T10:25:50Z</time>
      </trkpt>
      <trkpt lat="45.60587" lon="6.65922">
        <ele>2004</ele>
        <time>2016-02-06T10:25:52Z</time>
      </trkpt>
      <trkpt lat="45.60588" lon="6.65924">
        <ele>2005</ele>
        <time>2016-02-06T10:25:54Z</time>
      </trkpt>
      <trkpt lat="45.6059" lon="6.65926">
        <ele>2005</ele>
        <time>2016-02-06T10:25:57Z</time>
      </trkpt>
      <trkpt lat="45.60591" lon="6.65926">
        <ele>2006</ele>
        <time>2016-02-06T10:26:01Z</time>
      </trkpt>
      <trkpt lat="45.60593" lon="6.65927">
        <ele>2006</ele>
        <time>2016-02-06T10:26:03Z</time>
      </trkpt>
      <trkpt lat="45.60593" lon="6.65929">
        <ele>2007</ele>
        <time>2016-02-06T10:26:09Z</time>
      </trkpt>
      <trkpt lat="45.60595" lon="6.6593">
        <ele>2007</ele>
        <time>2016-02-06T10:26:12Z</time>
      </trkpt>
      <trkpt lat="45.60596" lon="6.65932">
        <ele>2008</ele>
        <time>2016-02-06T10:26:16Z</time>
      </trkpt>
      <trkpt lat="45.60598" lon="6.65933">
        <ele>2008</ele>
        <time>2016-02-06T10:26:20Z</time>
      </trkpt>
      <trkpt lat="45.60599" lon="6.65933">
        <ele>2009</ele>
        <time>2016-02-06T10:26:22Z</time>
      </trkpt>
      <trkpt lat="45.606" lon="6.65934">
        <ele>2009</ele>
        <time>2016-02-06T10:26:24Z</time>
      </trkpt>
      <trkpt lat="45.60602" lon="6.65935">
        <ele>2009</ele>
        <time>2016-02-06T10:26:27Z</time>
      </trkpt>
      <trkpt lat="45.60603" lon="6.65936">
        <ele>2010</ele>
        <time>2016-02-06T10:26:30Z</time>
      </trkpt>
      <trkpt lat="45.60604" lon="6.65937">
        <ele>2010</ele>
        <time>2016-02-06T10:26:33Z</time>
      </trkpt>
      <trkpt lat="45.60605" lon="6.65937">
        <ele>2010</ele>
        <time>2016-02-06T10:26:35Z</time>
      </trkpt>
      <trkpt lat="45.60606" lon="6.65938">
        <ele>2010</ele>
        <time>2016-02-06T10:26:37Z</time>
      </trkpt>
      <trkpt lat="45.60608" lon="6.65939">
        <ele>2011</ele>
        <time>2016-02-06T10:26:41Z</time>
      </trkpt>
      <trkpt lat="45.60609" lon="6.65941">
        <ele>2011</ele>
        <time>2016-02-06T10:26:44Z</time>
      </trkpt>
      <trkpt lat="45.60611" lon="6.65941">
        <ele>2011</ele>
        <time>2016-02-06T10:26:47Z</time>
      </trkpt>
      <trkpt lat="45.60612" lon="6.65941">
        <ele>2011</ele>
        <time>2016-02-06T10:26:49Z</time>
      </trkpt>
      <trkpt lat="45.60613" lon="6.65943">
        <ele>2012</ele>
        <time>2016-02-06T10:26:55Z</time>
      </trkpt>
      <trkpt lat="45.60614" lon="6.65944">
        <ele>2012</ele>
        <time>2016-02-06T10:26:58Z</time>
      </trkpt>
      <trkpt lat="45.60616" lon="6.65945">
        <ele>2012</ele>
        <time>2016-02-06T10:27:01Z</time>
      </trkpt>
      <trkpt lat="45.60617" lon="6.65946">
        <ele>2012</ele>
        <time>2016-02-06T10:27:04Z</time>
      </trkpt>
      <trkpt lat="45.60618" lon="6.65947">
        <ele>2013</ele>
        <time>2016-02-06T10:27:09Z</time>
      </trkpt>
      <trkpt lat="45.6062" lon="6.65948">
        <ele>2013</ele>
        <time>2016-02-06T10:27:14Z</time>
      </trkpt>
      <trkpt lat="45.60621" lon="6.65949">
        <ele>2013</ele>
        <time>2016-02-06T10:27:16Z</time>
      </trkpt>
      <trkpt lat="45.60622" lon="6.6595">
        <ele>2013</ele>
        <time>2016-02-06T10:27:18Z</time>
      </trkpt>
      <trkpt lat="45.60623" lon="6.65951">
        <ele>2013</ele>
        <time>2016-02-06T10:27:21Z</time>
      </trkpt>
      <trkpt lat="45.60624" lon="6.65952">
        <ele>2014</ele>
        <time>2016-02-06T10:27:24Z</time>
      </trkpt>
      <trkpt lat="45.60625" lon="6.65952">
        <ele>2014</ele>
        <time>2016-02-06T10:27:26Z</time>
      </trkpt>
      <trkpt lat="45.60627" lon="6.65953">
        <ele>2014</ele>
        <time>2016-02-06T10:27:29Z</time>
      </trkpt>
      <trkpt lat="45.60628" lon="6.65953">
        <ele>2014</ele>
        <time>2016-02-06T10:27:35Z</time>
      </trkpt>
      <trkpt lat="45.6063" lon="6.65952">
        <ele>2014</ele>
        <time>2016-02-06T10:27:37Z</time>
      </trkpt>
      <trkpt lat="45.60632" lon="6.65952">
        <ele>2015</ele>
        <time>2016-02-06T10:27:39Z</time>
      </trkpt>
      <trkpt lat="45.60633" lon="6.65952">
        <ele>2015</ele>
        <time>2016-02-06T10:27:41Z</time>
      </trkpt>
      <trkpt lat="45.60634" lon="6.65953">
        <ele>2015</ele>
        <time>2016-02-06T10:27:44Z</time>
      </trkpt>
      <trkpt lat="45.60635" lon="6.65953">
        <ele>2015</ele>
        <time>2016-02-06T10:27:46Z</time>
      </trkpt>
      <trkpt lat="45.60636" lon="6.65955">
        <ele>2015</ele>
        <time>2016-02-06T10:27:50Z</time>
      </trkpt>
      <trkpt lat="45.60638" lon="6.65956">
        <ele>2016</ele>
        <time>2016-02-06T10:27:54Z</time>
      </trkpt>
      <trkpt lat="45.60639" lon="6.65956">
        <ele>2016</ele>
        <time>2016-02-06T10:27:57Z</time>
      </trkpt>
      <trkpt lat="45.6064" lon="6.65957">
        <ele>2016</ele>
        <time>2016-02-06T10:27:59Z</time>
      </trkpt>
      <trkpt lat="45.60642" lon="6.65957">
        <ele>2016</ele>
        <time>2016-02-06T10:28:02Z</time>
      </trkpt>
      <trkpt lat="45.60643" lon="6.65957">
        <ele>2016</ele>
        <time>2016-02-06T10:28:05Z</time>
      </trkpt>
      <trkpt lat="45.60644" lon="6.65958">
        <ele>2017</ele>
        <time>2016-02-06T10:28:08Z</time>
      </trkpt>
      <trkpt lat="45.60646" lon="6.65958">
        <ele>2017</ele>
        <time>2016-02-06T10:28:13Z</time>
      </trkpt>
      <trkpt lat="45.60645" lon="6.65957">
        <ele>2017</ele>
        <time>2016-02-06T10:28:20Z</time>
      </trkpt>
      <trkpt lat="45.60644" lon="6.65955">
        <ele>2016</ele>
        <time>2016-02-06T10:28:24Z</time>
      </trkpt>
      <trkpt lat="45.60645" lon="6.65953">
        <ele>2017</ele>
        <time>2016-02-06T10:28:28Z</time>
      </trkpt>
      <trkpt lat="45.60646" lon="6.65951">
        <ele>2017</ele>
        <time>2016-02-06T10:28:30Z</time>
      </trkpt>
      <trkpt lat="45.60647" lon="6.65949">
        <ele>2017</ele>
        <time>2016-02-06T10:28:33Z</time>
      </trkpt>
      <trkpt lat="45.60648" lon="6.65947">
        <ele>2017</ele>
        <time>2016-02-06T10:28:36Z</time>
      </trkpt>
      <trkpt lat="45.60648" lon="6.65946">
        <ele>2017</ele>
        <time>2016-02-06T10:28:41Z</time>
      </trkpt>
      <trkpt lat="45.60649" lon="6.65948">
        <ele>2017</ele>
        <time>2016-02-06T10:28:48Z</time>
      </trkpt>
      <trkpt lat="45.60649" lon="6.65949">
        <ele>2017</ele>
        <time>2016-02-06T10:28:50Z</time>
      </trkpt>
      <trkpt lat="45.60649" lon="6.65951">
        <ele>2017</ele>
        <time>2016-02-06T10:28:52Z</time>
      </trkpt>
      <trkpt lat="45.60648" lon="6.65949">
        <ele>2017</ele>
        <time>2016-02-06T10:29:02Z</time>
      </trkpt>
      <trkpt lat="45.60648" lon="6.65947">
        <ele>2017</ele>
        <time>2016-02-06T10:29:04Z</time>
      </trkpt>
      <trkpt lat="45.60648" lon="6.65944">
        <ele>2017</ele>
        <time>2016-02-06T10:29:07Z</time>
      </trkpt>
      <trkpt lat="45.6065" lon="6.65942">
        <ele>2018</ele>
        <time>2016-02-06T10:29:09Z</time>
      </trkpt>
      <trkpt lat="45.60651" lon="6.65941">
        <ele>2018</ele>
        <time>2016-02-06T10:29:11Z</time>
      </trkpt>
      <trkpt lat="45.60652" lon="6.65939">
        <ele>2018</ele>
        <time>2016-02-06T10:29:14Z</time>
      </trkpt>
      <trkpt lat="45.60653" lon="6.6594">
        <ele>2018</ele>
        <time>2016-02-06T10:29:16Z</time>
      </trkpt>
      <trkpt lat="45.60654" lon="6.6594">
        <ele>2018</ele>
        <time>2016-02-06T10:29:22Z</time>
      </trkpt>
      <trkpt lat="45.60656" lon="6.65941">
        <ele>2018</ele>
        <time>2016-02-06T10:29:27Z</time>
      </trkpt>
      <trkpt lat="45.60657" lon="6.65941">
        <ele>2019</ele>
        <time>2016-02-06T10:29:30Z</time>
      </trkpt>
      <trkpt lat="45.60659" lon="6.65941">
        <ele>2019</ele>
        <time>2016-02-06T10:29:33Z</time>
      </trkpt>
      <trkpt lat="45.6066" lon="6.65943">
        <ele>2019</ele>
        <time>2016-02-06T10:29:37Z</time>
      </trkpt>
      <trkpt lat="45.60661" lon="6.65944">
        <ele>2019</ele>
        <time>2016-02-06T10:29:40Z</time>
      </trkpt>
      <trkpt lat="45.60663" lon="6.65945">
        <ele>2019</ele>
        <time>2016-02-06T10:29:43Z</time>
      </trkpt>
      <trkpt lat="45.60664" lon="6.65946">
        <ele>2019</ele>
        <time>2016-02-06T10:29:46Z</time>
      </trkpt>
      <trkpt lat="45.60665" lon="6.65947">
        <ele>2019</ele>
        <time>2016-02-06T10:29:50Z</time>
      </trkpt>
      <trkpt lat="45.60666" lon="6.65947">
        <ele>2019</ele>
        <time>2016-02-06T10:29:54Z</time>
      </trkpt>
      <trkpt lat="45.60668" lon="6.65946">
        <ele>2032</ele>
        <time>2016-02-06T10:29:57Z</time>
      </trkpt>
      <trkpt lat="45.60669" lon="6.65945">
        <ele>2032</ele>
        <time>2016-02-06T10:30:02Z</time>
      </trkpt>
      <trkpt lat="45.6067" lon="6.65944">
        <ele>2032</ele>
        <time>2016-02-06T10:30:05Z</time>
      </trkpt>
      <trkpt lat="45.6067" lon="6.65941">
        <ele>2032</ele>
        <time>2016-02-06T10:30:10Z</time>
      </trkpt>
      <trkpt lat="45.60671" lon="6.6594">
        <ele>2032</ele>
        <time>2016-02-06T10:30:11Z</time>
      </trkpt>
      <trkpt lat="45.6067" lon="6.65938">
        <ele>2031</ele>
        <time>2016-02-06T10:30:13Z</time>
      </trkpt>
      <trkpt lat="45.60671" lon="6.65936">
        <ele>2031</ele>
        <time>2016-02-06T10:30:14Z</time>
      </trkpt>
      <trkpt lat="45.6067" lon="6.65934">
        <ele>2031</ele>
        <time>2016-02-06T10:30:16Z</time>
      </trkpt>
      <trkpt lat="45.60672" lon="6.65933">
        <ele>2031</ele>
        <time>2016-02-06T10:30:22Z</time>
      </trkpt>
      <trkpt lat="45.60672" lon="6.65935">
        <ele>2031</ele>
        <time>2016-02-06T10:30:26Z</time>
      </trkpt>
      <trkpt lat="45.60672" lon="6.65936">
        <ele>2031</ele>
        <time>2016-02-06T10:30:28Z</time>
      </trkpt>
      <trkpt lat="45.60672" lon="6.65938">
        <ele>2032</ele>
        <time>2016-02-06T10:30:30Z</time>
      </trkpt>
      <trkpt lat="45.6067" lon="6.6594">
        <ele>2032</ele>
        <time>2016-02-06T10:30:35Z</time>
      </trkpt>
      <trkpt lat="45.60669" lon="6.65939">
        <ele>2031</ele>
        <time>2016-02-06T10:30:37Z</time>
      </trkpt>
      <trkpt lat="45.60669" lon="6.65937">
        <ele>2031</ele>
        <time>2016-02-06T10:30:39Z</time>
      </trkpt>
      <trkpt lat="45.6067" lon="6.65937">
        <ele>2031</ele>
        <time>2016-02-06T10:30:45Z</time>
      </trkpt>
      <trkpt lat="45.6067" lon="6.65939">
        <ele>2032</ele>
        <time>2016-02-06T10:30:48Z</time>
      </trkpt>
      <trkpt lat="45.60669" lon="6.65941">
        <ele>2032</ele>
        <time>2016-02-06T10:30:50Z</time>
      </trkpt>
      <trkpt lat="45.60668" lon="6.65943">
        <ele>2032</ele>
        <time>2016-02-06T10:30:53Z</time>
      </trkpt>
      <trkpt lat="45.60667" lon="6.65942">
        <ele>2019</ele>
        <time>2016-02-06T10:31:01Z</time>
      </trkpt>
      <trkpt lat="45.60667" lon="6.65943">
        <ele>2032</ele>
        <time>2016-02-06T10:31:10Z</time>
      </trkpt>
      <trkpt lat="45.60666" lon="6.65942">
        <ele>2019</ele>
        <time>2016-02-06T10:31:18Z</time>
      </trkpt>
      <trkpt lat="45.60665" lon="6.65944">
        <ele>2019</ele>
        <time>2016-02-06T10:31:19Z</time>
      </trkpt>
      <trkpt lat="45.60666" lon="6.65945">
        <ele>2019</ele>
        <time>2016-02-06T10:31:25Z</time>
      </trkpt>
      <trkpt lat="45.60667" lon="6.65944">
        <ele>2019</ele>
        <time>2016-02-06T10:31:27Z</time>
      </trkpt>
      <trkpt lat="45.60667" lon="6.65946">
        <ele>2019</ele>
        <time>2016-02-06T10:31:34Z</time>
      </trkpt>
      <trkpt lat="45.60668" lon="6.65948">
        <ele>2032</ele>
        <time>2016-02-06T10:31:37Z</time>
      </trkpt>
      <trkpt lat="45.60669" lon="6.65951">
        <ele>2033</ele>
        <time>2016-02-06T10:31:39Z</time>
      </trkpt>
      <trkpt lat="45.60669" lon="6.65952">
        <ele>2033</ele>
        <time>2016-02-06T10:31:40Z</time>
      </trkpt>
      <trkpt lat="45.60668" lon="6.65952">
        <ele>2033</ele>
        <time>2016-02-06T10:31:49Z</time>
      </trkpt>
      <trkpt lat="45.60667" lon="6.65952">
        <ele>2019</ele>
        <time>2016-02-06T10:31:50Z</time>
      </trkpt>
      <trkpt lat="45.60665" lon="6.65953">
        <ele>2018</ele>
        <time>2016-02-06T10:31:52Z</time>
      </trkpt>
      <trkpt lat="45.60665" lon="6.65948">
        <ele>2019</ele>
        <time>2016-02-06T10:31:58Z</time>
      </trkpt>
      <trkpt lat="45.60664" lon="6.65946">
        <ele>2019</ele>
        <time>2016-02-06T10:32:00Z</time>
      </trkpt>
      <trkpt lat="45.60666" lon="6.65944">
        <ele>2019</ele>
        <time>2016-02-06T10:32:02Z</time>
      </trkpt>
      <trkpt lat="45.60666" lon="6.65942">
        <ele>2019</ele>
        <time>2016-02-06T10:32:04Z</time>
      </trkpt>
      <trkpt lat="45.60667" lon="6.65943">
        <ele>2032</ele>
        <time>2016-02-06T10:32:08Z</time>
      </trkpt>
      <trkpt lat="45.60668" lon="6.65945">
        <ele>2032</ele>
        <time>2016-02-06T10:32:10Z</time>
      </trkpt>
      <trkpt lat="45.6067" lon="6.65945">
        <ele>2032</ele>
        <time>2016-02-06T10:32:16Z</time>
      </trkpt>
      <trkpt lat="45.60671" lon="6.65945">
        <ele>2032</ele>
        <time>2016-02-06T10:32:18Z</time>
      </trkpt>
      <trkpt lat="45.6067" lon="6.65944">
        <ele>2032</ele>
        <time>2016-02-06T10:32:25Z</time>
      </trkpt>
      <trkpt lat="45.60672" lon="6.65945">
        <ele>2032</ele>
        <time>2016-02-06T10:32:29Z</time>
      </trkpt>
      <trkpt lat="45.60673" lon="6.65946">
        <ele>2033</ele>
        <time>2016-02-06T10:32:31Z</time>
      </trkpt>
      <trkpt lat="45.60673" lon="6.65944">
        <ele>2032</ele>
        <time>2016-02-06T10:32:38Z</time>
      </trkpt>
      <trkpt lat="45.60673" lon="6.65943">
        <ele>2032</ele>
        <time>2016-02-06T10:32:44Z</time>
      </trkpt>
      <trkpt lat="45.60672" lon="6.65942">
        <ele>2032</ele>
        <time>2016-02-06T10:32:57Z</time>
      </trkpt>
      <trkpt lat="45.60673" lon="6.6594">
        <ele>2032</ele>
        <time>2016-02-06T10:33:01Z</time>
      </trkpt>
      <trkpt lat="45.60673" lon="6.65938">
        <ele>2032</ele>
        <time>2016-02-06T10:33:05Z</time>
      </trkpt>
      <trkpt lat="45.60674" lon="6.65937">
        <ele>2032</ele>
        <time>2016-02-06T10:33:13Z</time>
      </trkpt>
      <trkpt lat="45.60672" lon="6.65938">
        <ele>2032</ele>
        <time>2016-02-06T10:33:15Z</time>
      </trkpt>
      <trkpt lat="45.60671" lon="6.65938">
        <ele>2032</ele>
        <time>2016-02-06T10:33:17Z</time>
      </trkpt>
      <trkpt lat="45.6067" lon="6.6594">
        <ele>2032</ele>
        <time>2016-02-06T10:33:18Z</time>
      </trkpt>
      <trkpt lat="45.6067" lon="6.65942">
        <ele>2032</ele>
        <time>2016-02-06T10:33:21Z</time>
      </trkpt>
      <trkpt lat="45.60669" lon="6.65943">
        <ele>2032</ele>
        <time>2016-02-06T10:33:26Z</time>
      </trkpt>
      <trkpt lat="45.60668" lon="6.65941">
        <ele>2032</ele>
        <time>2016-02-06T10:33:31Z</time>
      </trkpt>
      <trkpt lat="45.60669" lon="6.65939">
        <ele>2031</ele>
        <time>2016-02-06T10:33:36Z</time>
      </trkpt>
      <trkpt lat="45.60668" lon="6.65941">
        <ele>2032</ele>
        <time>2016-02-06T10:33:47Z</time>
      </trkpt>
      <trkpt lat="45.60667" lon="6.65941">
        <ele>2019</ele>
        <time>2016-02-06T10:33:49Z</time>
      </trkpt>
      <trkpt lat="45.60665" lon="6.65942">
        <ele>2019</ele>
        <time>2016-02-06T10:33:52Z</time>
      </trkpt>
      <trkpt lat="45.60667" lon="6.65942">
        <ele>2019</ele>
        <time>2016-02-06T10:33:55Z</time>
      </trkpt>
      <trkpt lat="45.60668" lon="6.6594">
        <ele>2032</ele>
        <time>2016-02-06T10:34:00Z</time>
      </trkpt>
      <trkpt lat="45.60669" lon="6.65942">
        <ele>2032</ele>
        <time>2016-02-06T10:34:16Z</time>
      </trkpt>
      <trkpt lat="45.60669" lon="6.65943">
        <ele>2032</ele>
        <time>2016-02-06T10:34:22Z</time>
      </trkpt>
      <trkpt lat="45.6067" lon="6.65945">
        <ele>2032</ele>
        <time>2016-02-06T10:34:37Z</time>
      </trkpt>
      <trkpt lat="45.60671" lon="6.65944">
        <ele>2032</ele>
        <time>2016-02-06T10:34:48Z</time>
      </trkpt>
      <trkpt lat="45.6067" lon="6.65942">
        <ele>2032</ele>
        <time>2016-02-06T10:34:57Z</time>
      </trkpt>
      <trkpt lat="45.60669" lon="6.65942">
        <ele>2032</ele>
        <time>2016-02-06T10:35:00Z</time>
      </trkpt>
      <trkpt lat="45.60668" lon="6.6594">
        <ele>2032</ele>
        <time>2016-02-06T10:35:09Z</time>
      </trkpt>
      <trkpt lat="45.60667" lon="6.65937">
        <ele>2020</ele>
        <time>2016-02-06T10:35:11Z</time>
      </trkpt>
      <trkpt lat="45.60667" lon="6.65938">
        <ele>2031</ele>
        <time>2016-02-06T10:35:19Z</time>
      </trkpt>
      <trkpt lat="45.60666" lon="6.65938">
        <ele>2020</ele>
        <time>2016-02-06T10:35:22Z</time>
      </trkpt>
      <trkpt lat="45.60667" lon="6.65938">
        <ele>2031</ele>
        <time>2016-02-06T10:35:27Z</time>
      </trkpt>
      <trkpt lat="45.60668" lon="6.6594">
        <ele>2032</ele>
        <time>2016-02-06T10:35:40Z</time>
      </trkpt>
      <trkpt lat="45.60669" lon="6.6594">
        <ele>2032</ele>
        <time>2016-02-06T10:36:07Z</time>
      </trkpt>
      <trkpt lat="45.60671" lon="6.65941">
        <ele>2032</ele>
        <time>2016-02-06T10:36:37Z</time>
      </trkpt>
      <trkpt lat="45.60672" lon="6.65942">
        <ele>2032</ele>
        <time>2016-02-06T10:36:46Z</time>
      </trkpt>
      <trkpt lat="45.60671" lon="6.65944">
        <ele>2032</ele>
        <time>2016-02-06T10:36:55Z</time>
      </trkpt>
      <trkpt lat="45.6067" lon="6.65944">
        <ele>2032</ele>
        <time>2016-02-06T10:37:00Z</time>
      </trkpt>
      <trkpt lat="45.60669" lon="6.65946">
        <ele>2032</ele>
        <time>2016-02-06T10:37:06Z</time>
      </trkpt>
      <trkpt lat="45.60668" lon="6.65944">
        <ele>2032</ele>
        <time>2016-02-06T10:37:15Z</time>
      </trkpt>
      <trkpt lat="45.6067" lon="6.65943">
        <ele>2032</ele>
        <time>2016-02-06T10:37:18Z</time>
      </trkpt>
      <trkpt lat="45.60671" lon="6.65941">
        <ele>2032</ele>
        <time>2016-02-06T10:37:20Z</time>
      </trkpt>
      <trkpt lat="45.60671" lon="6.6594">
        <ele>2032</ele>
        <time>2016-02-06T10:37:25Z</time>
      </trkpt>
      <trkpt lat="45.60669" lon="6.65941">
        <ele>2032</ele>
        <time>2016-02-06T10:37:43Z</time>
      </trkpt>
      <trkpt lat="45.6067" lon="6.6594">
        <ele>2032</ele>
        <time>2016-02-06T10:37:54Z</time>
      </trkpt>
      <trkpt lat="45.60671" lon="6.6594">
        <ele>2032</ele>
        <time>2016-02-06T10:37:58Z</time>
      </trkpt>
      <trkpt lat="45.60673" lon="6.6594">
        <ele>2032</ele>
        <time>2016-02-06T10:38:03Z</time>
      </trkpt>
      <trkpt lat="45.60672" lon="6.65938">
        <ele>2032</ele>
        <time>2016-02-06T10:38:14Z</time>
      </trkpt>
      <trkpt lat="45.60672" lon="6.65936">
        <ele>2031</ele>
        <time>2016-02-06T10:38:21Z</time>
      </trkpt>
      <trkpt lat="45.60671" lon="6.65938">
        <ele>2032</ele>
        <time>2016-02-06T10:38:26Z</time>
      </trkpt>
      <trkpt lat="45.60671" lon="6.65941">
        <ele>2032</ele>
        <time>2016-02-06T10:38:28Z</time>
      </trkpt>
      <trkpt lat="45.60669" lon="6.65943">
        <ele>2032</ele>
        <time>2016-02-06T10:38:31Z</time>
      </trkpt>
      <trkpt lat="45.60666" lon="6.65946">
        <ele>2019</ele>
        <time>2016-02-06T10:38:32Z</time>
      </trkpt>
      <trkpt lat="45.60664" lon="6.65948">
        <ele>2019</ele>
        <time>2016-02-06T10:38:33Z</time>
      </trkpt>
      <trkpt lat="45.60662" lon="6.6595">
        <ele>2018</ele>
        <time>2016-02-06T10:38:35Z</time>
      </trkpt>
      <trkpt lat="45.60661" lon="6.65951">
        <ele>2018</ele>
        <time>2016-02-06T10:38:37Z</time>
      </trkpt>
      <trkpt lat="45.60663" lon="6.65953">
        <ele>2018</ele>
        <time>2016-02-06T10:38:40Z</time>
      </trkpt>
      <trkpt lat="45.60664" lon="6.65953">
        <ele>2018</ele>
        <time>2016-02-06T10:38:44Z</time>
      </trkpt>
      <trkpt lat="45.60665" lon="6.65953">
        <ele>2018</ele>
        <time>2016-02-06T10:38:47Z</time>
      </trkpt>
      <trkpt lat="45.60664" lon="6.65954">
        <ele>2018</ele>
        <time>2016-02-06T10:38:56Z</time>
      </trkpt>
      <trkpt lat="45.60663" lon="6.65956">
        <ele>2018</ele>
        <time>2016-02-06T10:38:57Z</time>
      </trkpt>
      <trkpt lat="45.60662" lon="6.65959">
        <ele>2018</ele>
        <time>2016-02-06T10:38:58Z</time>
      </trkpt>
      <trkpt lat="45.60661" lon="6.65961">
        <ele>2018</ele>
        <time>2016-02-06T10:38:59Z</time>
      </trkpt>
      <trkpt lat="45.60661" lon="6.65958">
        <ele>2018</ele>
        <time>2016-02-06T10:39:03Z</time>
      </trkpt>
      <trkpt lat="45.60661" lon="6.65961">
        <ele>2018</ele>
        <time>2016-02-06T10:39:05Z</time>
      </trkpt>
      <trkpt lat="45.60659" lon="6.65964">
        <ele>2018</ele>
        <time>2016-02-06T10:39:06Z</time>
      </trkpt>
      <trkpt lat="45.60661" lon="6.65962">
        <ele>2018</ele>
        <time>2016-02-06T10:39:08Z</time>
      </trkpt>
      <trkpt lat="45.60662" lon="6.65961">
        <ele>2018</ele>
        <time>2016-02-06T10:39:11Z</time>
      </trkpt>
      <trkpt lat="45.60661" lon="6.65958">
        <ele>2018</ele>
        <time>2016-02-06T10:39:15Z</time>
      </trkpt>
      <trkpt lat="45.6066" lon="6.65956">
        <ele>2018</ele>
        <time>2016-02-06T10:39:16Z</time>
      </trkpt>
      <trkpt lat="45.60659" lon="6.65955">
        <ele>2018</ele>
        <time>2016-02-06T10:39:18Z</time>
      </trkpt>
      <trkpt lat="45.60659" lon="6.65953">
        <ele>2018</ele>
        <time>2016-02-06T10:39:19Z</time>
      </trkpt>
      <trkpt lat="45.6066" lon="6.65952">
        <ele>2018</ele>
        <time>2016-02-06T10:39:29Z</time>
      </trkpt>
      <trkpt lat="45.60661" lon="6.65951">
        <ele>2018</ele>
        <time>2016-02-06T10:39:32Z</time>
      </trkpt>
      <trkpt lat="45.60663" lon="6.6595">
        <ele>2018</ele>
        <time>2016-02-06T10:39:34Z</time>
      </trkpt>
      <trkpt lat="45.60664" lon="6.6595">
        <ele>2019</ele>
        <time>2016-02-06T10:39:36Z</time>
      </trkpt>
      <trkpt lat="45.60666" lon="6.6595">
        <ele>2019</ele>
        <time>2016-02-06T10:39:42Z</time>
      </trkpt>
      <trkpt lat="45.60667" lon="6.65949">
        <ele>2019</ele>
        <time>2016-02-06T10:39:45Z</time>
      </trkpt>
      <trkpt lat="45.60668" lon="6.65947">
        <ele>2032</ele>
        <time>2016-02-06T10:39:49Z</time>
      </trkpt>
      <trkpt lat="45.60669" lon="6.65945">
        <ele>2032</ele>
        <time>2016-02-06T10:39:56Z</time>
      </trkpt>
      <trkpt lat="45.60669" lon="6.65947">
        <ele>2032</ele>
        <time>2016-02-06T10:40:02Z</time>
      </trkpt>
      <trkpt lat="45.60667" lon="6.65949">
        <ele>2032</ele>
        <time>2016-02-06T10:40:04Z</time>
      </trkpt>
      <trkpt lat="45.60665" lon="6.6595">
        <ele>2019</ele>
        <time>2016-02-06T10:40:07Z</time>
      </trkpt>
      <trkpt lat="45.60664" lon="6.65952">
        <ele>2018</ele>
        <time>2016-02-06T10:40:13Z</time>
      </trkpt>
      <trkpt lat="45.60661" lon="6.65958">
        <ele>2018</ele>
        <time>2016-02-06T10:40:15Z</time>
      </trkpt>
      <trkpt lat="45.60659" lon="6.65959">
        <ele>2018</ele>
        <time>2016-02-06T10:40:18Z</time>
      </trkpt>
      <trkpt lat="45.60658" lon="6.65961">
        <ele>2018</ele>
        <time>2016-02-06T10:40:19Z</time>
      </trkpt>
      <trkpt lat="45.60659" lon="6.65958">
        <ele>2018</ele>
        <time>2016-02-06T10:40:22Z</time>
      </trkpt>
      <trkpt lat="45.60658" lon="6.65958">
        <ele>2018</ele>
        <time>2016-02-06T10:40:26Z</time>
      </trkpt>
      <trkpt lat="45.60659" lon="6.65956">
        <ele>2018</ele>
        <time>2016-02-06T10:40:32Z</time>
      </trkpt>
      <trkpt lat="45.6066" lon="6.65954">
        <ele>2018</ele>
        <time>2016-02-06T10:40:35Z</time>
      </trkpt>
      <trkpt lat="45.60661" lon="6.65953">
        <ele>2018</ele>
        <time>2016-02-06T10:40:38Z</time>
      </trkpt>
      <trkpt lat="45.60661" lon="6.65954">
        <ele>2018</ele>
        <time>2016-02-06T10:40:43Z</time>
      </trkpt>
      <trkpt lat="45.60661" lon="6.65956">
        <ele>2018</ele>
        <time>2016-02-06T10:40:45Z</time>
      </trkpt>
      <trkpt lat="45.6066" lon="6.65958">
        <ele>2018</ele>
        <time>2016-02-06T10:40:48Z</time>
      </trkpt>
      <trkpt lat="45.60661" lon="6.65956">
        <ele>2018</ele>
        <time>2016-02-06T10:40:51Z</time>
      </trkpt>
      <trkpt lat="45.60662" lon="6.65954">
        <ele>2018</ele>
        <time>2016-02-06T10:40:54Z</time>
      </trkpt>
      <trkpt lat="45.60664" lon="6.65953">
        <ele>2018</ele>
        <time>2016-02-06T10:40:58Z</time>
      </trkpt>
      <trkpt lat="45.60664" lon="6.65951">
        <ele>2018</ele>
        <time>2016-02-06T10:41:00Z</time>
      </trkpt>
      <trkpt lat="45.60665" lon="6.65949">
        <ele>2019</ele>
        <time>2016-02-06T10:41:02Z</time>
      </trkpt>
      <trkpt lat="45.60664" lon="6.65947">
        <ele>2019</ele>
        <time>2016-02-06T10:41:04Z</time>
      </trkpt>
      <trkpt lat="45.60664" lon="6.65946">
        <ele>2019</ele>
        <time>2016-02-06T10:41:12Z</time>
      </trkpt>
      <trkpt lat="45.60664" lon="6.65943">
        <ele>2019</ele>
        <time>2016-02-06T10:41:14Z</time>
      </trkpt>
      <trkpt lat="45.60665" lon="6.65942">
        <ele>2019</ele>
        <time>2016-02-06T10:41:16Z</time>
      </trkpt>
      <trkpt lat="45.60666" lon="6.65941">
        <ele>2019</ele>
        <time>2016-02-06T10:41:21Z</time>
      </trkpt>
      <trkpt lat="45.60667" lon="6.65941">
        <ele>2032</ele>
        <time>2016-02-06T10:41:24Z</time>
      </trkpt>
      <trkpt lat="45.60669" lon="6.65941">
        <ele>2032</ele>
        <time>2016-02-06T10:41:26Z</time>
      </trkpt>
      <trkpt lat="45.60669" lon="6.65943">
        <ele>2032</ele>
        <time>2016-02-06T10:41:30Z</time>
      </trkpt>
      <trkpt lat="45.60669" lon="6.65945">
        <ele>2032</ele>
        <time>2016-02-06T10:41:31Z</time>
      </trkpt>
      <trkpt lat="45.60668" lon="6.65947">
        <ele>2032</ele>
        <time>2016-02-06T10:41:33Z</time>
      </trkpt>
      <trkpt lat="45.6067" lon="6.65948">
        <ele>2033</ele>
        <time>2016-02-06T10:41:36Z</time>
      </trkpt>
      <trkpt lat="45.60671" lon="6.65946">
        <ele>2033</ele>
        <time>2016-02-06T10:41:37Z</time>
      </trkpt>
      <trkpt lat="45.60669" lon="6.65947">
        <ele>2032</ele>
        <time>2016-02-06T10:41:40Z</time>
      </trkpt>
      <trkpt lat="45.60669" lon="6.65945">
        <ele>2032</ele>
        <time>2016-02-06T10:41:44Z</time>
      </trkpt>
      <trkpt lat="45.60671" lon="6.65944">
        <ele>2032</ele>
        <time>2016-02-06T10:41:46Z</time>
      </trkpt>
      <trkpt lat="45.6067" lon="6.65944">
        <ele>2032</ele>
        <time>2016-02-06T10:41:57Z</time>
      </trkpt>
      <trkpt lat="45.60669" lon="6.65944">
        <ele>2032</ele>
        <time>2016-02-06T10:42:00Z</time>
      </trkpt>
      <trkpt lat="45.60667" lon="6.65945">
        <ele>2032</ele>
        <time>2016-02-06T10:42:05Z</time>
      </trkpt>
      <trkpt lat="45.60666" lon="6.65944">
        <ele>2019</ele>
        <time>2016-02-06T10:42:12Z</time>
      </trkpt>
      <trkpt lat="45.60666" lon="6.65942">
        <ele>2019</ele>
        <time>2016-02-06T10:42:18Z</time>
      </trkpt>
      <trkpt lat="45.60664" lon="6.65942">
        <ele>2019</ele>
        <time>2016-02-06T10:42:22Z</time>
      </trkpt>
      <trkpt lat="45.60665" lon="6.65943">
        <ele>2019</ele>
        <time>2016-02-06T10:42:25Z</time>
      </trkpt>
      <trkpt lat="45.60664" lon="6.65945">
        <ele>2019</ele>
        <time>2016-02-06T10:42:27Z</time>
      </trkpt>
      <trkpt lat="45.60662" lon="6.65945">
        <ele>2019</ele>
        <time>2016-02-06T10:42:37Z</time>
      </trkpt>
      <trkpt lat="45.60662" lon="6.65947">
        <ele>2018</ele>
        <time>2016-02-06T10:42:39Z</time>
      </trkpt>
      <trkpt lat="45.60664" lon="6.65946">
        <ele>2019</ele>
        <time>2016-02-06T10:42:46Z</time>
      </trkpt>
      <trkpt lat="45.60665" lon="6.65945">
        <ele>2019</ele>
        <time>2016-02-06T10:42:49Z</time>
      </trkpt>
      <trkpt lat="45.60665" lon="6.65943">
        <ele>2019</ele>
        <time>2016-02-06T10:42:53Z</time>
      </trkpt>
      <trkpt lat="45.60666" lon="6.65945">
        <ele>2019</ele>
        <time>2016-02-06T10:42:56Z</time>
      </trkpt>
      <trkpt lat="45.60667" lon="6.65942">
        <ele>2032</ele>
        <time>2016-02-06T10:43:00Z</time>
      </trkpt>
      <trkpt lat="45.60667" lon="6.65939">
        <ele>2031</ele>
        <time>2016-02-06T10:43:02Z</time>
      </trkpt>
      <trkpt lat="45.60667" lon="6.65936">
        <ele>2031</ele>
        <time>2016-02-06T10:43:03Z</time>
      </trkpt>
      <trkpt lat="45.60666" lon="6.65938">
        <ele>2020</ele>
        <time>2016-02-06T10:43:04Z</time>
      </trkpt>
      <trkpt lat="45.60666" lon="6.6594">
        <ele>2019</ele>
        <time>2016-02-06T10:43:07Z</time>
      </trkpt>
      <trkpt lat="45.60666" lon="6.65941">
        <ele>2019</ele>
        <time>2016-02-06T10:43:10Z</time>
      </trkpt>
      <trkpt lat="45.60665" lon="6.65943">
        <ele>2019</ele>
        <time>2016-02-06T10:43:14Z</time>
      </trkpt>
      <trkpt lat="45.60664" lon="6.65945">
        <ele>2019</ele>
        <time>2016-02-06T10:43:18Z</time>
      </trkpt>
      <trkpt lat="45.60663" lon="6.65946">
        <ele>2019</ele>
        <time>2016-02-06T10:43:28Z</time>
      </trkpt>
      <trkpt lat="45.60664" lon="6.65945">
        <ele>2019</ele>
        <time>2016-02-06T10:43:34Z</time>
      </trkpt>
      <trkpt lat="45.60665" lon="6.65945">
        <ele>2019</ele>
        <time>2016-02-06T10:43:43Z</time>
      </trkpt>
      <trkpt lat="45.60666" lon="6.65947">
        <ele>2019</ele>
        <time>2016-02-06T10:43:46Z</time>
      </trkpt>
      <trkpt lat="45.60667" lon="6.65948">
        <ele>2032</ele>
        <time>2016-02-06T10:43:59Z</time>
      </trkpt>
      <trkpt lat="45.60668" lon="6.65946">
        <ele>2032</ele>
        <time>2016-02-06T10:44:04Z</time>
      </trkpt>
      <trkpt lat="45.60669" lon="6.65945">
        <ele>2032</ele>
        <time>2016-02-06T10:44:08Z</time>
      </trkpt>
      <trkpt lat="45.60668" lon="6.65946">
        <ele>2032</ele>
        <time>2016-02-06T10:44:17Z</time>
      </trkpt>
      <trkpt lat="45.60666" lon="6.65948">
        <ele>2019</ele>
        <time>2016-02-06T10:44:19Z</time>
      </trkpt>
      <trkpt lat="45.60667" lon="6.65946">
        <ele>2019</ele>
        <time>2016-02-06T10:44:21Z</time>
      </trkpt>
      <trkpt lat="45.60666" lon="6.65948">
        <ele>2019</ele>
        <time>2016-02-06T10:44:46Z</time>
      </trkpt>
      <trkpt lat="45.60665" lon="6.6595">
        <ele>2019</ele>
        <time>2016-02-06T10:44:48Z</time>
      </trkpt>
      <trkpt lat="45.60664" lon="6.65951">
        <ele>2018</ele>
        <time>2016-02-06T10:44:50Z</time>
      </trkpt>
      <trkpt lat="45.60666" lon="6.65951">
        <ele>2019</ele>
        <time>2016-02-06T10:44:54Z</time>
      </trkpt>
      <trkpt lat="45.60667" lon="6.65949">
        <ele>2033</ele>
        <time>2016-02-06T10:44:56Z</time>
      </trkpt>
      <trkpt lat="45.60669" lon="6.65949">
        <ele>2033</ele>
        <time>2016-02-06T10:44:58Z</time>
      </trkpt>
      <trkpt lat="45.60671" lon="6.65947">
        <ele>2033</ele>
        <time>2016-02-06T10:45:00Z</time>
      </trkpt>
      <trkpt lat="45.60672" lon="6.65947">
        <ele>2033</ele>
        <time>2016-02-06T10:45:02Z</time>
      </trkpt>
      <trkpt lat="45.60674" lon="6.65946">
        <ele>2033</ele>
        <time>2016-02-06T10:45:04Z</time>
      </trkpt>
      <trkpt lat="45.60675" lon="6.65946">
        <ele>2033</ele>
        <time>2016-02-06T10:45:06Z</time>
      </trkpt>
      <trkpt lat="45.60677" lon="6.65946">
        <ele>2033</ele>
        <time>2016-02-06T10:45:08Z</time>
      </trkpt>
      <trkpt lat="45.60679" lon="6.65947">
        <ele>2033</ele>
        <time>2016-02-06T10:45:10Z</time>
      </trkpt>
      <trkpt lat="45.6068" lon="6.65946">
        <ele>2033</ele>
        <time>2016-02-06T10:45:11Z</time>
      </trkpt>
      <trkpt lat="45.60682" lon="6.65947">
        <ele>2033</ele>
        <time>2016-02-06T10:45:14Z</time>
      </trkpt>
      <trkpt lat="45.60684" lon="6.65945">
        <ele>2034</ele>
        <time>2016-02-06T10:45:16Z</time>
      </trkpt>
      <trkpt lat="45.60686" lon="6.65945">
        <ele>2034</ele>
        <time>2016-02-06T10:45:18Z</time>
      </trkpt>
      <trkpt lat="45.60687" lon="6.65943">
        <ele>2034</ele>
        <time>2016-02-06T10:45:20Z</time>
      </trkpt>
      <trkpt lat="45.60688" lon="6.65943">
        <ele>2034</ele>
        <time>2016-02-06T10:45:22Z</time>
      </trkpt>
      <trkpt lat="45.6069" lon="6.65943">
        <ele>2034</ele>
        <time>2016-02-06T10:45:24Z</time>
      </trkpt>
      <trkpt lat="45.60692" lon="6.65942">
        <ele>2034</ele>
        <time>2016-02-06T10:45:26Z</time>
      </trkpt>
      <trkpt lat="45.60693" lon="6.65942">
        <ele>2035</ele>
        <time>2016-02-06T10:45:28Z</time>
      </trkpt>
      <trkpt lat="45.60695" lon="6.65941">
        <ele>2035</ele>
        <time>2016-02-06T10:45:30Z</time>
      </trkpt>
      <trkpt lat="45.60696" lon="6.65941">
        <ele>2035</ele>
        <time>2016-02-06T10:45:32Z</time>
      </trkpt>
      <trkpt lat="45.60698" lon="6.6594">
        <ele>2035</ele>
        <time>2016-02-06T10:45:34Z</time>
      </trkpt>
      <trkpt lat="45.60699" lon="6.6594">
        <ele>2035</ele>
        <time>2016-02-06T10:45:36Z</time>
      </trkpt>
      <trkpt lat="45.60701" lon="6.65941">
        <ele>2036</ele>
        <time>2016-02-06T10:45:38Z</time>
      </trkpt>
      <trkpt lat="45.60703" lon="6.65941">
        <ele>2036</ele>
        <time>2016-02-06T10:45:40Z</time>
      </trkpt>
      <trkpt lat="45.60705" lon="6.65941">
        <ele>2036</ele>
        <time>2016-02-06T10:45:43Z</time>
      </trkpt>
      <trkpt lat="45.60706" lon="6.65941">
        <ele>2036</ele>
        <time>2016-02-06T10:45:45Z</time>
      </trkpt>
      <trkpt lat="45.60708" lon="6.65941">
        <ele>2037</ele>
        <time>2016-02-06T10:45:47Z</time>
      </trkpt>
      <trkpt lat="45.60709" lon="6.65941">
        <ele>2037</ele>
        <time>2016-02-06T10:45:49Z</time>
      </trkpt>
      <trkpt lat="45.60711" lon="6.6594">
        <ele>2037</ele>
        <time>2016-02-06T10:45:51Z</time>
      </trkpt>
      <trkpt lat="45.60712" lon="6.6594">
        <ele>2037</ele>
        <time>2016-02-06T10:45:53Z</time>
      </trkpt>
      <trkpt lat="45.60713" lon="6.6594">
        <ele>2037</ele>
        <time>2016-02-06T10:45:57Z</time>
      </trkpt>
      <trkpt lat="45.60714" lon="6.65939">
        <ele>2038</ele>
        <time>2016-02-06T10:46:00Z</time>
      </trkpt>
      <trkpt lat="45.60716" lon="6.65939">
        <ele>2038</ele>
        <time>2016-02-06T10:46:04Z</time>
      </trkpt>
      <trkpt lat="45.60717" lon="6.65939">
        <ele>2038</ele>
        <time>2016-02-06T10:46:06Z</time>
      </trkpt>
      <trkpt lat="45.60718" lon="6.65939">
        <ele>2038</ele>
        <time>2016-02-06T10:46:08Z</time>
      </trkpt>
      <trkpt lat="45.6072" lon="6.65939">
        <ele>2039</ele>
        <time>2016-02-06T10:46:11Z</time>
      </trkpt>
      <trkpt lat="45.60721" lon="6.65939">
        <ele>2039</ele>
        <time>2016-02-06T10:46:12Z</time>
      </trkpt>
      <trkpt lat="45.60722" lon="6.65938">
        <ele>2039</ele>
        <time>2016-02-06T10:46:14Z</time>
      </trkpt>
      <trkpt lat="45.60724" lon="6.65938">
        <ele>2039</ele>
        <time>2016-02-06T10:46:16Z</time>
      </trkpt>
      <trkpt lat="45.60725" lon="6.65937">
        <ele>2039</ele>
        <time>2016-02-06T10:46:18Z</time>
      </trkpt>
      <trkpt lat="45.60727" lon="6.65937">
        <ele>2040</ele>
        <time>2016-02-06T10:46:21Z</time>
      </trkpt>
      <trkpt lat="45.60728" lon="6.65936">
        <ele>2040</ele>
        <time>2016-02-06T10:46:23Z</time>
      </trkpt>
      <trkpt lat="45.60729" lon="6.65936">
        <ele>2040</ele>
        <time>2016-02-06T10:46:25Z</time>
      </trkpt>
      <trkpt lat="45.6073" lon="6.65936">
        <ele>2040</ele>
        <time>2016-02-06T10:46:27Z</time>
      </trkpt>
      <trkpt lat="45.60732" lon="6.65935">
        <ele>2040</ele>
        <time>2016-02-06T10:46:29Z</time>
      </trkpt>
      <trkpt lat="45.60733" lon="6.65935">
        <ele>2041</ele>
        <time>2016-02-06T10:46:32Z</time>
      </trkpt>
      <trkpt lat="45.60735" lon="6.65936">
        <ele>2041</ele>
        <time>2016-02-06T10:46:35Z</time>
      </trkpt>
      <trkpt lat="45.60736" lon="6.65937">
        <ele>2041</ele>
        <time>2016-02-06T10:46:37Z</time>
      </trkpt>
      <trkpt lat="45.60737" lon="6.65938">
        <ele>2041</ele>
        <time>2016-02-06T10:46:39Z</time>
      </trkpt>
      <trkpt lat="45.60738" lon="6.65939">
        <ele>2041</ele>
        <time>2016-02-06T10:46:43Z</time>
      </trkpt>
      <trkpt lat="45.6074" lon="6.6594">
        <ele>2041</ele>
        <time>2016-02-06T10:46:46Z</time>
      </trkpt>
      <trkpt lat="45.60741" lon="6.6594">
        <ele>2041</ele>
        <time>2016-02-06T10:46:50Z</time>
      </trkpt>
      <trkpt lat="45.60743" lon="6.65939">
        <ele>2041</ele>
        <time>2016-02-06T10:46:52Z</time>
      </trkpt>
      <trkpt lat="45.60744" lon="6.65938">
        <ele>2042</ele>
        <time>2016-02-06T10:46:55Z</time>
      </trkpt>
      <trkpt lat="45.60746" lon="6.65937">
        <ele>2042</ele>
        <time>2016-02-06T10:46:58Z</time>
      </trkpt>
      <trkpt lat="45.60747" lon="6.65937">
        <ele>2042</ele>
        <time>2016-02-06T10:47:01Z</time>
      </trkpt>
      <trkpt lat="45.60749" lon="6.65937">
        <ele>2042</ele>
        <time>2016-02-06T10:47:05Z</time>
      </trkpt>
      <trkpt lat="45.6075" lon="6.65936">
        <ele>2052</ele>
        <time>2016-02-06T10:47:07Z</time>
      </trkpt>
      <trkpt lat="45.60751" lon="6.65936">
        <ele>2052</ele>
        <time>2016-02-06T10:47:09Z</time>
      </trkpt>
      <trkpt lat="45.60753" lon="6.65935">
        <ele>2052</ele>
        <time>2016-02-06T10:47:11Z</time>
      </trkpt>
      <trkpt lat="45.60754" lon="6.65935">
        <ele>2052</ele>
        <time>2016-02-06T10:47:13Z</time>
      </trkpt>
      <trkpt lat="45.60755" lon="6.65936">
        <ele>2053</ele>
        <time>2016-02-06T10:47:15Z</time>
      </trkpt>
      <trkpt lat="45.60757" lon="6.65935">
        <ele>2053</ele>
        <time>2016-02-06T10:47:17Z</time>
      </trkpt>
      <trkpt lat="45.60759" lon="6.65934">
        <ele>2053</ele>
        <time>2016-02-06T10:47:20Z</time>
      </trkpt>
      <trkpt lat="45.6076" lon="6.65933">
        <ele>2053</ele>
        <time>2016-02-06T10:47:24Z</time>
      </trkpt>
      <trkpt lat="45.60761" lon="6.65933">
        <ele>2053</ele>
        <time>2016-02-06T10:47:26Z</time>
      </trkpt>
      <trkpt lat="45.60763" lon="6.65933">
        <ele>2053</ele>
        <time>2016-02-06T10:47:28Z</time>
      </trkpt>
      <trkpt lat="45.60763" lon="6.65931">
        <ele>2053</ele>
        <time>2016-02-06T10:47:32Z</time>
      </trkpt>
      <trkpt lat="45.60764" lon="6.65929">
        <ele>2053</ele>
        <time>2016-02-06T10:47:35Z</time>
      </trkpt>
      <trkpt lat="45.60765" lon="6.65928">
        <ele>2053</ele>
        <time>2016-02-06T10:47:38Z</time>
      </trkpt>
      <trkpt lat="45.60765" lon="6.65926">
        <ele>2053</ele>
        <time>2016-02-06T10:47:40Z</time>
      </trkpt>
      <trkpt lat="45.60766" lon="6.65924">
        <ele>2053</ele>
        <time>2016-02-06T10:47:42Z</time>
      </trkpt>
      <trkpt lat="45.60768" lon="6.65924">
        <ele>2053</ele>
        <time>2016-02-06T10:47:48Z</time>
      </trkpt>
      <trkpt lat="45.6077" lon="6.65924">
        <ele>2054</ele>
        <time>2016-02-06T10:47:50Z</time>
      </trkpt>
      <trkpt lat="45.60771" lon="6.65925">
        <ele>2054</ele>
        <time>2016-02-06T10:47:52Z</time>
      </trkpt>
      <trkpt lat="45.60773" lon="6.65925">
        <ele>2054</ele>
        <time>2016-02-06T10:47:54Z</time>
      </trkpt>
      <trkpt lat="45.60774" lon="6.65925">
        <ele>2054</ele>
        <time>2016-02-06T10:47:56Z</time>
      </trkpt>
      <trkpt lat="45.60775" lon="6.65924">
        <ele>2055</ele>
        <time>2016-02-06T10:47:58Z</time>
      </trkpt>
      <trkpt lat="45.60777" lon="6.65922">
        <ele>2055</ele>
        <time>2016-02-06T10:48:00Z</time>
      </trkpt>
      <trkpt lat="45.60778" lon="6.65922">
        <ele>2055</ele>
        <time>2016-02-06T10:48:03Z</time>
      </trkpt>
      <trkpt lat="45.6078" lon="6.65922">
        <ele>2055</ele>
        <time>2016-02-06T10:48:06Z</time>
      </trkpt>
      <trkpt lat="45.60781" lon="6.65921">
        <ele>2056</ele>
        <time>2016-02-06T10:48:09Z</time>
      </trkpt>
      <trkpt lat="45.60783" lon="6.6592">
        <ele>2056</ele>
        <time>2016-02-06T10:48:13Z</time>
      </trkpt>
      <trkpt lat="45.60785" lon="6.6592">
        <ele>2056</ele>
        <time>2016-02-06T10:48:16Z</time>
      </trkpt>
      <trkpt lat="45.60786" lon="6.65919">
        <ele>2057</ele>
        <time>2016-02-06T10:48:18Z</time>
      </trkpt>
      <trkpt lat="45.60788" lon="6.65919">
        <ele>2057</ele>
        <time>2016-02-06T10:48:20Z</time>
      </trkpt>
      <trkpt lat="45.60789" lon="6.65919">
        <ele>2057</ele>
        <time>2016-02-06T10:48:23Z</time>
      </trkpt>
      <trkpt lat="45.6079" lon="6.65919">
        <ele>2057</ele>
        <time>2016-02-06T10:48:25Z</time>
      </trkpt>
      <trkpt lat="45.60791" lon="6.65919">
        <ele>2058</ele>
        <time>2016-02-06T10:48:27Z</time>
      </trkpt>
      <trkpt lat="45.60793" lon="6.65918">
        <ele>2058</ele>
        <time>2016-02-06T10:48:29Z</time>
      </trkpt>
      <trkpt lat="45.60794" lon="6.65917">
        <ele>2058</ele>
        <time>2016-02-06T10:48:31Z</time>
      </trkpt>
      <trkpt lat="45.60794" lon="6.65919">
        <ele>2058</ele>
        <time>2016-02-06T10:48:33Z</time>
      </trkpt>
      <trkpt lat="45.60796" lon="6.6592">
        <ele>2058</ele>
        <time>2016-02-06T10:48:39Z</time>
      </trkpt>
      <trkpt lat="45.60798" lon="6.6592">
        <ele>2059</ele>
        <time>2016-02-06T10:48:43Z</time>
      </trkpt>
      <trkpt lat="45.60799" lon="6.6592">
        <ele>2059</ele>
        <time>2016-02-06T10:48:46Z</time>
      </trkpt>
      <trkpt lat="45.608" lon="6.6592">
        <ele>2059</ele>
        <time>2016-02-06T10:48:49Z</time>
      </trkpt>
      <trkpt lat="45.60801" lon="6.65919">
        <ele>2059</ele>
        <time>2016-02-06T10:48:52Z</time>
      </trkpt>
      <trkpt lat="45.60803" lon="6.65919">
        <ele>2060</ele>
        <time>2016-02-06T10:48:55Z</time>
      </trkpt>
      <trkpt lat="45.60804" lon="6.65919">
        <ele>2060</ele>
        <time>2016-02-06T10:48:59Z</time>
      </trkpt>
      <trkpt lat="45.60806" lon="6.65918">
        <ele>2060</ele>
        <time>2016-02-06T10:49:04Z</time>
      </trkpt>
      <trkpt lat="45.60807" lon="6.65918">
        <ele>2060</ele>
        <time>2016-02-06T10:49:06Z</time>
      </trkpt>
      <trkpt lat="45.60808" lon="6.65918">
        <ele>2060</ele>
        <time>2016-02-06T10:49:09Z</time>
      </trkpt>
      <trkpt lat="45.60809" lon="6.65918">
        <ele>2061</ele>
        <time>2016-02-06T10:49:11Z</time>
      </trkpt>
      <trkpt lat="45.60811" lon="6.65917">
        <ele>2061</ele>
        <time>2016-02-06T10:49:16Z</time>
      </trkpt>
      <trkpt lat="45.60812" lon="6.65918">
        <ele>2061</ele>
        <time>2016-02-06T10:49:19Z</time>
      </trkpt>
      <trkpt lat="45.60814" lon="6.65918">
        <ele>2061</ele>
        <time>2016-02-06T10:49:22Z</time>
      </trkpt>
      <trkpt lat="45.60815" lon="6.65917">
        <ele>2062</ele>
        <time>2016-02-06T10:49:26Z</time>
      </trkpt>
      <trkpt lat="45.60816" lon="6.65917">
        <ele>2062</ele>
        <time>2016-02-06T10:49:29Z</time>
      </trkpt>
      <trkpt lat="45.60818" lon="6.65918">
        <ele>2062</ele>
        <time>2016-02-06T10:49:37Z</time>
      </trkpt>
      <trkpt lat="45.6082" lon="6.65917">
        <ele>2063</ele>
        <time>2016-02-06T10:49:41Z</time>
      </trkpt>
      <trkpt lat="45.60821" lon="6.65917">
        <ele>2063</ele>
        <time>2016-02-06T10:49:43Z</time>
      </trkpt>
      <trkpt lat="45.60823" lon="6.65917">
        <ele>2063</ele>
        <time>2016-02-06T10:49:46Z</time>
      </trkpt>
      <trkpt lat="45.60824" lon="6.65918">
        <ele>2064</ele>
        <time>2016-02-06T10:49:49Z</time>
      </trkpt>
      <trkpt lat="45.60826" lon="6.65919">
        <ele>2064</ele>
        <time>2016-02-06T10:49:52Z</time>
      </trkpt>
      <trkpt lat="45.60827" lon="6.65919">
        <ele>2064</ele>
        <time>2016-02-06T10:49:55Z</time>
      </trkpt>
      <trkpt lat="45.60828" lon="6.65919">
        <ele>2064</ele>
        <time>2016-02-06T10:49:57Z</time>
      </trkpt>
      <trkpt lat="45.60829" lon="6.65918">
        <ele>2065</ele>
        <time>2016-02-06T10:49:59Z</time>
      </trkpt>
      <trkpt lat="45.60831" lon="6.65918">
        <ele>2065</ele>
        <time>2016-02-06T10:50:01Z</time>
      </trkpt>
      <trkpt lat="45.60832" lon="6.65918">
        <ele>2065</ele>
        <time>2016-02-06T10:50:03Z</time>
      </trkpt>
      <trkpt lat="45.60833" lon="6.65918">
        <ele>2067</ele>
        <time>2016-02-06T10:50:05Z</time>
      </trkpt>
      <trkpt lat="45.60835" lon="6.65918">
        <ele>2067</ele>
        <time>2016-02-06T10:50:07Z</time>
      </trkpt>
      <trkpt lat="45.60836" lon="6.65918">
        <ele>2068</ele>
        <time>2016-02-06T10:50:10Z</time>
      </trkpt>
      <trkpt lat="45.60837" lon="6.65918">
        <ele>2069</ele>
        <time>2016-02-06T10:50:12Z</time>
      </trkpt>
      <trkpt lat="45.60839" lon="6.65919">
        <ele>2070</ele>
        <time>2016-02-06T10:50:17Z</time>
      </trkpt>
      <trkpt lat="45.6084" lon="6.65919">
        <ele>2070</ele>
        <time>2016-02-06T10:50:19Z</time>
      </trkpt>
      <trkpt lat="45.60841" lon="6.65919">
        <ele>2071</ele>
        <time>2016-02-06T10:50:24Z</time>
      </trkpt>
      <trkpt lat="45.60843" lon="6.65919">
        <ele>2072</ele>
        <time>2016-02-06T10:50:26Z</time>
      </trkpt>
      <trkpt lat="45.60844" lon="6.65919">
        <ele>2072</ele>
        <time>2016-02-06T10:50:29Z</time>
      </trkpt>
      <trkpt lat="45.60845" lon="6.65919">
        <ele>2073</ele>
        <time>2016-02-06T10:50:34Z</time>
      </trkpt>
      <trkpt lat="45.60846" lon="6.6592">
        <ele>2073</ele>
        <time>2016-02-06T10:50:39Z</time>
      </trkpt>
      <trkpt lat="45.60848" lon="6.65919">
        <ele>2074</ele>
        <time>2016-02-06T10:50:42Z</time>
      </trkpt>
      <trkpt lat="45.60849" lon="6.65921">
        <ele>2074</ele>
        <time>2016-02-06T10:50:45Z</time>
      </trkpt>
      <trkpt lat="45.6085" lon="6.6592">
        <ele>2075</ele>
        <time>2016-02-06T10:50:47Z</time>
      </trkpt>
      <trkpt lat="45.60852" lon="6.65919">
        <ele>2075</ele>
        <time>2016-02-06T10:50:51Z</time>
      </trkpt>
      <trkpt lat="45.60853" lon="6.65918">
        <ele>2076</ele>
        <time>2016-02-06T10:50:54Z</time>
      </trkpt>
      <trkpt lat="45.60855" lon="6.65917">
        <ele>2076</ele>
        <time>2016-02-06T10:50:56Z</time>
      </trkpt>
      <trkpt lat="45.60856" lon="6.65917">
        <ele>2077</ele>
        <time>2016-02-06T10:50:58Z</time>
      </trkpt>
      <trkpt lat="45.60858" lon="6.65917">
        <ele>2077</ele>
        <time>2016-02-06T10:51:00Z</time>
      </trkpt>
      <trkpt lat="45.60859" lon="6.65917">
        <ele>2078</ele>
        <time>2016-02-06T10:51:02Z</time>
      </trkpt>
      <trkpt lat="45.6086" lon="6.65916">
        <ele>2070</ele>
        <time>2016-02-06T10:51:05Z</time>
      </trkpt>
      <trkpt lat="45.60862" lon="6.65916">
        <ele>2071</ele>
        <time>2016-02-06T10:51:08Z</time>
      </trkpt>
      <trkpt lat="45.60863" lon="6.65917">
        <ele>2079</ele>
        <time>2016-02-06T10:51:12Z</time>
      </trkpt>
      <trkpt lat="45.60864" lon="6.65919">
        <ele>2079</ele>
        <time>2016-02-06T10:51:14Z</time>
      </trkpt>
      <trkpt lat="45.60865" lon="6.65919">
        <ele>2079</ele>
        <time>2016-02-06T10:51:16Z</time>
      </trkpt>
      <trkpt lat="45.60866" lon="6.6592">
        <ele>2080</ele>
        <time>2016-02-06T10:51:20Z</time>
      </trkpt>
      <trkpt lat="45.60867" lon="6.65922">
        <ele>2080</ele>
        <time>2016-02-06T10:51:23Z</time>
      </trkpt>
      <trkpt lat="45.60868" lon="6.65923">
        <ele>2080</ele>
        <time>2016-02-06T10:51:26Z</time>
      </trkpt>
      <trkpt lat="45.6087" lon="6.65924">
        <ele>2081</ele>
        <time>2016-02-06T10:51:29Z</time>
      </trkpt>
      <trkpt lat="45.60871" lon="6.65924">
        <ele>2081</ele>
        <time>2016-02-06T10:51:32Z</time>
      </trkpt>
      <trkpt lat="45.60872" lon="6.65924">
        <ele>2081</ele>
        <time>2016-02-06T10:51:35Z</time>
      </trkpt>
      <trkpt lat="45.60873" lon="6.65924">
        <ele>2082</ele>
        <time>2016-02-06T10:51:37Z</time>
      </trkpt>
      <trkpt lat="45.60875" lon="6.65924">
        <ele>2082</ele>
        <time>2016-02-06T10:51:39Z</time>
      </trkpt>
      <trkpt lat="45.60876" lon="6.65925">
        <ele>2082</ele>
        <time>2016-02-06T10:51:41Z</time>
      </trkpt>
      <trkpt lat="45.60878" lon="6.65925">
        <ele>2083</ele>
        <time>2016-02-06T10:51:43Z</time>
      </trkpt>
      <trkpt lat="45.60879" lon="6.65925">
        <ele>2083</ele>
        <time>2016-02-06T10:51:44Z</time>
      </trkpt>
      <trkpt lat="45.6088" lon="6.65925">
        <ele>2083</ele>
        <time>2016-02-06T10:51:46Z</time>
      </trkpt>
      <trkpt lat="45.60881" lon="6.65925">
        <ele>2084</ele>
        <time>2016-02-06T10:51:48Z</time>
      </trkpt>
      <trkpt lat="45.60882" lon="6.65925">
        <ele>2084</ele>
        <time>2016-02-06T10:51:50Z</time>
      </trkpt>
      <trkpt lat="45.60884" lon="6.65926">
        <ele>2084</ele>
        <time>2016-02-06T10:51:53Z</time>
      </trkpt>
      <trkpt lat="45.60885" lon="6.65925">
        <ele>2085</ele>
        <time>2016-02-06T10:51:55Z</time>
      </trkpt>
      <trkpt lat="45.60886" lon="6.65927">
        <ele>2085</ele>
        <time>2016-02-06T10:51:58Z</time>
      </trkpt>
      <trkpt lat="45.60887" lon="6.65926">
        <ele>2085</ele>
        <time>2016-02-06T10:52:02Z</time>
      </trkpt>
      <trkpt lat="45.60889" lon="6.65927">
        <ele>2086</ele>
        <time>2016-02-06T10:52:05Z</time>
      </trkpt>
      <trkpt lat="45.6089" lon="6.65927">
        <ele>2086</ele>
        <time>2016-02-06T10:52:09Z</time>
      </trkpt>
      <trkpt lat="45.60891" lon="6.65927">
        <ele>2086</ele>
        <time>2016-02-06T10:52:12Z</time>
      </trkpt>
      <trkpt lat="45.60891" lon="6.6593">
        <ele>2086</ele>
        <time>2016-02-06T10:52:14Z</time>
      </trkpt>
      <trkpt lat="45.6089" lon="6.65932">
        <ele>2086</ele>
        <time>2016-02-06T10:52:16Z</time>
      </trkpt>
      <trkpt lat="45.60891" lon="6.65933">
        <ele>2086</ele>
        <time>2016-02-06T10:52:18Z</time>
      </trkpt>
      <trkpt lat="45.60892" lon="6.65934">
        <ele>2086</ele>
        <time>2016-02-06T10:52:21Z</time>
      </trkpt>
      <trkpt lat="45.60894" lon="6.65933">
        <ele>2087</ele>
        <time>2016-02-06T10:52:23Z</time>
      </trkpt>
      <trkpt lat="45.60896" lon="6.65934">
        <ele>2087</ele>
        <time>2016-02-06T10:52:25Z</time>
      </trkpt>
      <trkpt lat="45.60897" lon="6.65933">
        <ele>2087</ele>
        <time>2016-02-06T10:52:27Z</time>
      </trkpt>
      <trkpt lat="45.60898" lon="6.65933">
        <ele>2087</ele>
        <time>2016-02-06T10:52:29Z</time>
      </trkpt>
      <trkpt lat="45.609" lon="6.65932">
        <ele>2088</ele>
        <time>2016-02-06T10:52:31Z</time>
      </trkpt>
      <trkpt lat="45.60901" lon="6.65932">
        <ele>2088</ele>
        <time>2016-02-06T10:52:33Z</time>
      </trkpt>
      <trkpt lat="45.60902" lon="6.65931">
        <ele>2088</ele>
        <time>2016-02-06T10:52:35Z</time>
      </trkpt>
      <trkpt lat="45.60904" lon="6.65931">
        <ele>2089</ele>
        <time>2016-02-06T10:52:38Z</time>
      </trkpt>
      <trkpt lat="45.60905" lon="6.6593">
        <ele>2089</ele>
        <time>2016-02-06T10:52:40Z</time>
      </trkpt>
      <trkpt lat="45.60906" lon="6.6593">
        <ele>2089</ele>
        <time>2016-02-06T10:52:42Z</time>
      </trkpt>
      <trkpt lat="45.60907" lon="6.65929">
        <ele>2090</ele>
        <time>2016-02-06T10:52:45Z</time>
      </trkpt>
      <trkpt lat="45.60909" lon="6.65928">
        <ele>2090</ele>
        <time>2016-02-06T10:52:47Z</time>
      </trkpt>
      <trkpt lat="45.60911" lon="6.65928">
        <ele>2091</ele>
        <time>2016-02-06T10:52:49Z</time>
      </trkpt>
      <trkpt lat="45.60912" lon="6.65928">
        <ele>2091</ele>
        <time>2016-02-06T10:52:51Z</time>
      </trkpt>
      <trkpt lat="45.60913" lon="6.65929">
        <ele>2091</ele>
        <time>2016-02-06T10:52:53Z</time>
      </trkpt>
      <trkpt lat="45.60915" lon="6.65928">
        <ele>2091</ele>
        <time>2016-02-06T10:52:55Z</time>
      </trkpt>
      <trkpt lat="45.60915" lon="6.6593">
        <ele>2091</ele>
        <time>2016-02-06T10:52:57Z</time>
      </trkpt>
      <trkpt lat="45.60916" lon="6.6593">
        <ele>2091</ele>
        <time>2016-02-06T10:53:01Z</time>
      </trkpt>
      <trkpt lat="45.60918" lon="6.6593">
        <ele>2101</ele>
        <time>2016-02-06T10:53:03Z</time>
      </trkpt>
      <trkpt lat="45.6092" lon="6.6593">
        <ele>2101</ele>
        <time>2016-02-06T10:53:05Z</time>
      </trkpt>
      <trkpt lat="45.60921" lon="6.6593">
        <ele>2101</ele>
        <time>2016-02-06T10:53:07Z</time>
      </trkpt>
      <trkpt lat="45.60922" lon="6.65929">
        <ele>2101</ele>
        <time>2016-02-06T10:53:12Z</time>
      </trkpt>
      <trkpt lat="45.60923" lon="6.65928">
        <ele>2101</ele>
        <time>2016-02-06T10:53:14Z</time>
      </trkpt>
      <trkpt lat="45.60924" lon="6.65927">
        <ele>2101</ele>
        <time>2016-02-06T10:53:17Z</time>
      </trkpt>
      <trkpt lat="45.60926" lon="6.65927">
        <ele>2101</ele>
        <time>2016-02-06T10:53:19Z</time>
      </trkpt>
      <trkpt lat="45.60927" lon="6.65928">
        <ele>2102</ele>
        <time>2016-02-06T10:53:21Z</time>
      </trkpt>
      <trkpt lat="45.60928" lon="6.65929">
        <ele>2102</ele>
        <time>2016-02-06T10:53:24Z</time>
      </trkpt>
      <trkpt lat="45.6093" lon="6.65929">
        <ele>2103</ele>
        <time>2016-02-06T10:53:27Z</time>
      </trkpt>
      <trkpt lat="45.60932" lon="6.65928">
        <ele>2103</ele>
        <time>2016-02-06T10:53:31Z</time>
      </trkpt>
      <trkpt lat="45.60933" lon="6.65926">
        <ele>2103</ele>
        <time>2016-02-06T10:53:35Z</time>
      </trkpt>
      <trkpt lat="45.60934" lon="6.65926">
        <ele>2103</ele>
        <time>2016-02-06T10:53:37Z</time>
      </trkpt>
      <trkpt lat="45.60936" lon="6.65925">
        <ele>2104</ele>
        <time>2016-02-06T10:53:40Z</time>
      </trkpt>
      <trkpt lat="45.60937" lon="6.65924">
        <ele>2104</ele>
        <time>2016-02-06T10:53:43Z</time>
      </trkpt>
      <trkpt lat="45.60938" lon="6.65924">
        <ele>2104</ele>
        <time>2016-02-06T10:53:45Z</time>
      </trkpt>
      <trkpt lat="45.60939" lon="6.65922">
        <ele>2104</ele>
        <time>2016-02-06T10:53:49Z</time>
      </trkpt>
      <trkpt lat="45.60941" lon="6.65922">
        <ele>2104</ele>
        <time>2016-02-06T10:53:51Z</time>
      </trkpt>
      <trkpt lat="45.60942" lon="6.65922">
        <ele>2105</ele>
        <time>2016-02-06T10:53:56Z</time>
      </trkpt>
      <trkpt lat="45.60943" lon="6.65924">
        <ele>2105</ele>
        <time>2016-02-06T10:53:59Z</time>
      </trkpt>
      <trkpt lat="45.60944" lon="6.65925">
        <ele>2105</ele>
        <time>2016-02-06T10:54:03Z</time>
      </trkpt>
      <trkpt lat="45.60946" lon="6.65926">
        <ele>2106</ele>
        <time>2016-02-06T10:54:06Z</time>
      </trkpt>
      <trkpt lat="45.60947" lon="6.65926">
        <ele>2106</ele>
        <time>2016-02-06T10:54:08Z</time>
      </trkpt>
      <trkpt lat="45.60948" lon="6.65925">
        <ele>2106</ele>
        <time>2016-02-06T10:54:12Z</time>
      </trkpt>
      <trkpt lat="45.60949" lon="6.65924">
        <ele>2107</ele>
        <time>2016-02-06T10:54:14Z</time>
      </trkpt>
      <trkpt lat="45.60951" lon="6.65924">
        <ele>2107</ele>
        <time>2016-02-06T10:54:16Z</time>
      </trkpt>
      <trkpt lat="45.60952" lon="6.65922">
        <ele>2107</ele>
        <time>2016-02-06T10:54:20Z</time>
      </trkpt>
      <trkpt lat="45.60955" lon="6.6592">
        <ele>2108</ele>
        <time>2016-02-06T10:54:22Z</time>
      </trkpt>
      <trkpt lat="45.60956" lon="6.65919">
        <ele>2108</ele>
        <time>2016-02-06T10:54:25Z</time>
      </trkpt>
      <trkpt lat="45.60957" lon="6.6592">
        <ele>2108</ele>
        <time>2016-02-06T10:54:30Z</time>
      </trkpt>
      <trkpt lat="45.60958" lon="6.65919">
        <ele>2109</ele>
        <time>2016-02-06T10:54:33Z</time>
      </trkpt>
      <trkpt lat="45.6096" lon="6.65919">
        <ele>2109</ele>
        <time>2016-02-06T10:54:36Z</time>
      </trkpt>
      <trkpt lat="45.60961" lon="6.65918">
        <ele>2109</ele>
        <time>2016-02-06T10:54:39Z</time>
      </trkpt>
      <trkpt lat="45.60962" lon="6.65918">
        <ele>2109</ele>
        <time>2016-02-06T10:54:40Z</time>
      </trkpt>
      <trkpt lat="45.60963" lon="6.65918">
        <ele>2110</ele>
        <time>2016-02-06T10:54:42Z</time>
      </trkpt>
      <trkpt lat="45.60965" lon="6.65918">
        <ele>2110</ele>
        <time>2016-02-06T10:54:45Z</time>
      </trkpt>
      <trkpt lat="45.60967" lon="6.65917">
        <ele>2110</ele>
        <time>2016-02-06T10:54:47Z</time>
      </trkpt>
      <trkpt lat="45.60968" lon="6.65916">
        <ele>2105</ele>
        <time>2016-02-06T10:54:49Z</time>
      </trkpt>
      <trkpt lat="45.6097" lon="6.65916">
        <ele>2105</ele>
        <time>2016-02-06T10:54:53Z</time>
      </trkpt>
      <trkpt lat="45.60971" lon="6.65915">
        <ele>2105</ele>
        <time>2016-02-06T10:54:57Z</time>
      </trkpt>
      <trkpt lat="45.60972" lon="6.65914">
        <ele>2106</ele>
        <time>2016-02-06T10:55:00Z</time>
      </trkpt>
      <trkpt lat="45.60974" lon="6.65913">
        <ele>2106</ele>
        <time>2016-02-06T10:55:02Z</time>
      </trkpt>
      <trkpt lat="45.60975" lon="6.65913">
        <ele>2107</ele>
        <time>2016-02-06T10:55:07Z</time>
      </trkpt>
      <trkpt lat="45.60976" lon="6.65912">
        <ele>2107</ele>
        <time>2016-02-06T10:55:10Z</time>
      </trkpt>
      <trkpt lat="45.60978" lon="6.65911">
        <ele>2107</ele>
        <time>2016-02-06T10:55:12Z</time>
      </trkpt>
      <trkpt lat="45.60979" lon="6.65911">
        <ele>2108</ele>
        <time>2016-02-06T10:55:14Z</time>
      </trkpt>
      <trkpt lat="45.60979" lon="6.65912">
        <ele>2108</ele>
        <time>2016-02-06T10:55:17Z</time>
      </trkpt>
      <trkpt lat="45.60981" lon="6.65912">
        <ele>2109</ele>
        <time>2016-02-06T10:55:20Z</time>
      </trkpt>
      <trkpt lat="45.60982" lon="6.65913">
        <ele>2109</ele>
        <time>2016-02-06T10:55:24Z</time>
      </trkpt>
      <trkpt lat="45.60984" lon="6.65912">
        <ele>2110</ele>
        <time>2016-02-06T10:55:26Z</time>
      </trkpt>
      <trkpt lat="45.60985" lon="6.65911">
        <ele>2110</ele>
        <time>2016-02-06T10:55:29Z</time>
      </trkpt>
      <trkpt lat="45.60987" lon="6.65911">
        <ele>2111</ele>
        <time>2016-02-06T10:55:32Z</time>
      </trkpt>
      <trkpt lat="45.60988" lon="6.6591">
        <ele>2111</ele>
        <time>2016-02-06T10:55:34Z</time>
      </trkpt>
      <trkpt lat="45.60989" lon="6.65911">
        <ele>2112</ele>
        <time>2016-02-06T10:55:37Z</time>
      </trkpt>
      <trkpt lat="45.60991" lon="6.65911">
        <ele>2113</ele>
        <time>2016-02-06T10:55:40Z</time>
      </trkpt>
      <trkpt lat="45.60992" lon="6.6591">
        <ele>2113</ele>
        <time>2016-02-06T10:55:42Z</time>
      </trkpt>
      <trkpt lat="45.60994" lon="6.6591">
        <ele>2114</ele>
        <time>2016-02-06T10:55:44Z</time>
      </trkpt>
      <trkpt lat="45.60995" lon="6.65909">
        <ele>2114</ele>
        <time>2016-02-06T10:55:46Z</time>
      </trkpt>
      <trkpt lat="45.60996" lon="6.65908">
        <ele>2114</ele>
        <time>2016-02-06T10:55:48Z</time>
      </trkpt>
      <trkpt lat="45.60997" lon="6.65908">
        <ele>2114</ele>
        <time>2016-02-06T10:55:51Z</time>
      </trkpt>
      <trkpt lat="45.60999" lon="6.65909">
        <ele>2115</ele>
        <time>2016-02-06T10:55:55Z</time>
      </trkpt>
      <trkpt lat="45.61" lon="6.65908">
        <ele>2123</ele>
        <time>2016-02-06T10:55:58Z</time>
      </trkpt>
      <trkpt lat="45.61001" lon="6.65908">
        <ele>2122</ele>
        <time>2016-02-06T10:56:02Z</time>
      </trkpt>
      <trkpt lat="45.61003" lon="6.65908">
        <ele>2123</ele>
        <time>2016-02-06T10:56:05Z</time>
      </trkpt>
      <trkpt lat="45.61004" lon="6.65907">
        <ele>2123</ele>
        <time>2016-02-06T10:56:08Z</time>
      </trkpt>
      <trkpt lat="45.61006" lon="6.65906">
        <ele>2123</ele>
        <time>2016-02-06T10:56:11Z</time>
      </trkpt>
      <trkpt lat="45.61007" lon="6.65905">
        <ele>2124</ele>
        <time>2016-02-06T10:56:13Z</time>
      </trkpt>
      <trkpt lat="45.61009" lon="6.65905">
        <ele>2124</ele>
        <time>2016-02-06T10:56:16Z</time>
      </trkpt>
      <trkpt lat="45.61009" lon="6.65903">
        <ele>2124</ele>
        <time>2016-02-06T10:56:19Z</time>
      </trkpt>
      <trkpt lat="45.61011" lon="6.65902">
        <ele>2125</ele>
        <time>2016-02-06T10:56:23Z</time>
      </trkpt>
      <trkpt lat="45.61012" lon="6.65901">
        <ele>2125</ele>
        <time>2016-02-06T10:56:25Z</time>
      </trkpt>
      <trkpt lat="45.61014" lon="6.65901">
        <ele>2125</ele>
        <time>2016-02-06T10:56:27Z</time>
      </trkpt>
      <trkpt lat="45.61015" lon="6.65901">
        <ele>2125</ele>
        <time>2016-02-06T10:56:30Z</time>
      </trkpt>
      <trkpt lat="45.61017" lon="6.65901">
        <ele>2126</ele>
        <time>2016-02-06T10:56:32Z</time>
      </trkpt>
      <trkpt lat="45.61018" lon="6.65901">
        <ele>2126</ele>
        <time>2016-02-06T10:56:34Z</time>
      </trkpt>
      <trkpt lat="45.6102" lon="6.65901">
        <ele>2126</ele>
        <time>2016-02-06T10:56:37Z</time>
      </trkpt>
      <trkpt lat="45.61021" lon="6.659">
        <ele>2127</ele>
        <time>2016-02-06T10:56:40Z</time>
      </trkpt>
      <trkpt lat="45.61023" lon="6.65899">
        <ele>2127</ele>
        <time>2016-02-06T10:56:43Z</time>
      </trkpt>
      <trkpt lat="45.61024" lon="6.65898">
        <ele>2127</ele>
        <time>2016-02-06T10:56:46Z</time>
      </trkpt>
      <trkpt lat="45.61026" lon="6.65898">
        <ele>2127</ele>
        <time>2016-02-06T10:56:49Z</time>
      </trkpt>
      <trkpt lat="45.61027" lon="6.65898">
        <ele>2128</ele>
        <time>2016-02-06T10:56:53Z</time>
      </trkpt>
      <trkpt lat="45.61028" lon="6.65898">
        <ele>2128</ele>
        <time>2016-02-06T10:56:56Z</time>
      </trkpt>
      <trkpt lat="45.6103" lon="6.65898">
        <ele>2128</ele>
        <time>2016-02-06T10:56:59Z</time>
      </trkpt>
      <trkpt lat="45.61031" lon="6.65898">
        <ele>2128</ele>
        <time>2016-02-06T10:57:02Z</time>
      </trkpt>
      <trkpt lat="45.61032" lon="6.65898">
        <ele>2129</ele>
        <time>2016-02-06T10:57:05Z</time>
      </trkpt>
      <trkpt lat="45.61034" lon="6.65897">
        <ele>2129</ele>
        <time>2016-02-06T10:57:08Z</time>
      </trkpt>
      <trkpt lat="45.61035" lon="6.65896">
        <ele>2129</ele>
        <time>2016-02-06T10:57:10Z</time>
      </trkpt>
      <trkpt lat="45.61036" lon="6.65895">
        <ele>2129</ele>
        <time>2016-02-06T10:57:12Z</time>
      </trkpt>
      <trkpt lat="45.61037" lon="6.65895">
        <ele>2130</ele>
        <time>2016-02-06T10:57:15Z</time>
      </trkpt>
      <trkpt lat="45.61039" lon="6.65895">
        <ele>2130</ele>
        <time>2016-02-06T10:57:19Z</time>
      </trkpt>
      <trkpt lat="45.6104" lon="6.65897">
        <ele>2130</ele>
        <time>2016-02-06T10:57:23Z</time>
      </trkpt>
      <trkpt lat="45.61041" lon="6.65898">
        <ele>2130</ele>
        <time>2016-02-06T10:57:26Z</time>
      </trkpt>
      <trkpt lat="45.61041" lon="6.65901">
        <ele>2131</ele>
        <time>2016-02-06T10:57:29Z</time>
      </trkpt>
      <trkpt lat="45.61041" lon="6.65902">
        <ele>2131</ele>
        <time>2016-02-06T10:57:32Z</time>
      </trkpt>
      <trkpt lat="45.61042" lon="6.65903">
        <ele>2131</ele>
        <time>2016-02-06T10:57:36Z</time>
      </trkpt>
      <trkpt lat="45.61043" lon="6.65904">
        <ele>2131</ele>
        <time>2016-02-06T10:57:40Z</time>
      </trkpt>
      <trkpt lat="45.61043" lon="6.65906">
        <ele>2131</ele>
        <time>2016-02-06T10:57:43Z</time>
      </trkpt>
      <trkpt lat="45.61044" lon="6.65908">
        <ele>2132</ele>
        <time>2016-02-06T10:57:46Z</time>
      </trkpt>
      <trkpt lat="45.61046" lon="6.6591">
        <ele>2132</ele>
        <time>2016-02-06T10:57:49Z</time>
      </trkpt>
      <trkpt lat="45.61047" lon="6.65911">
        <ele>2133</ele>
        <time>2016-02-06T10:57:52Z</time>
      </trkpt>
      <trkpt lat="45.61048" lon="6.65912">
        <ele>2133</ele>
        <time>2016-02-06T10:57:56Z</time>
      </trkpt>
      <trkpt lat="45.6105" lon="6.65914">
        <ele>2133</ele>
        <time>2016-02-06T10:58:01Z</time>
      </trkpt>
      <trkpt lat="45.61051" lon="6.65914">
        <ele>2134</ele>
        <time>2016-02-06T10:58:03Z</time>
      </trkpt>
      <trkpt lat="45.61053" lon="6.65913">
        <ele>2134</ele>
        <time>2016-02-06T10:58:05Z</time>
      </trkpt>
      <trkpt lat="45.61054" lon="6.65911">
        <ele>2134</ele>
        <time>2016-02-06T10:58:10Z</time>
      </trkpt>
      <trkpt lat="45.61054" lon="6.6591">
        <ele>2134</ele>
        <time>2016-02-06T10:58:13Z</time>
      </trkpt>
      <trkpt lat="45.61055" lon="6.65909">
        <ele>2135</ele>
        <time>2016-02-06T10:58:16Z</time>
      </trkpt>
      <trkpt lat="45.61057" lon="6.65907">
        <ele>2135</ele>
        <time>2016-02-06T10:58:20Z</time>
      </trkpt>
      <trkpt lat="45.61056" lon="6.65909">
        <ele>2135</ele>
        <time>2016-02-06T10:58:26Z</time>
      </trkpt>
      <trkpt lat="45.61056" lon="6.65911">
        <ele>2135</ele>
        <time>2016-02-06T10:58:30Z</time>
      </trkpt>
      <trkpt lat="45.61056" lon="6.65909">
        <ele>2135</ele>
        <time>2016-02-06T10:58:42Z</time>
      </trkpt>
      <trkpt lat="45.61057" lon="6.65907">
        <ele>2135</ele>
        <time>2016-02-06T10:58:46Z</time>
      </trkpt>
      <trkpt lat="45.61058" lon="6.65905">
        <ele>2135</ele>
        <time>2016-02-06T10:58:48Z</time>
      </trkpt>
      <trkpt lat="45.61059" lon="6.65904">
        <ele>2135</ele>
        <time>2016-02-06T10:58:53Z</time>
      </trkpt>
      <trkpt lat="45.61061" lon="6.65903">
        <ele>2136</ele>
        <time>2016-02-06T10:58:56Z</time>
      </trkpt>
      <trkpt lat="45.61062" lon="6.65905">
        <ele>2136</ele>
        <time>2016-02-06T10:58:59Z</time>
      </trkpt>
      <trkpt lat="45.61062" lon="6.65906">
        <ele>2136</ele>
        <time>2016-02-06T10:59:01Z</time>
      </trkpt>
      <trkpt lat="45.61063" lon="6.65908">
        <ele>2137</ele>
        <time>2016-02-06T10:59:06Z</time>
      </trkpt>
      <trkpt lat="45.61063" lon="6.6591">
        <ele>2137</ele>
        <time>2016-02-06T10:59:09Z</time>
      </trkpt>
      <trkpt lat="45.61063" lon="6.65913">
        <ele>2137</ele>
        <time>2016-02-06T10:59:11Z</time>
      </trkpt>
      <trkpt lat="45.61064" lon="6.65914">
        <ele>2138</ele>
        <time>2016-02-06T10:59:14Z</time>
      </trkpt>
      <trkpt lat="45.61065" lon="6.65916">
        <ele>2138</ele>
        <time>2016-02-06T10:59:17Z</time>
      </trkpt>
      <trkpt lat="45.61066" lon="6.65916">
        <ele>2139</ele>
        <time>2016-02-06T10:59:20Z</time>
      </trkpt>
      <trkpt lat="45.61067" lon="6.65917">
        <ele>2142</ele>
        <time>2016-02-06T10:59:22Z</time>
      </trkpt>
      <trkpt lat="45.61068" lon="6.65918">
        <ele>2142</ele>
        <time>2016-02-06T10:59:26Z</time>
      </trkpt>
      <trkpt lat="45.61068" lon="6.6592">
        <ele>2142</ele>
        <time>2016-02-06T10:59:28Z</time>
      </trkpt>
      <trkpt lat="45.61068" lon="6.65921">
        <ele>2142</ele>
        <time>2016-02-06T10:59:31Z</time>
      </trkpt>
      <trkpt lat="45.6107" lon="6.65922">
        <ele>2142</ele>
        <time>2016-02-06T10:59:36Z</time>
      </trkpt>
      <trkpt lat="45.61071" lon="6.65923">
        <ele>2142</ele>
        <time>2016-02-06T10:59:39Z</time>
      </trkpt>
      <trkpt lat="45.61072" lon="6.65924">
        <ele>2143</ele>
        <time>2016-02-06T10:59:43Z</time>
      </trkpt>
      <trkpt lat="45.61071" lon="6.65925">
        <ele>2142</ele>
        <time>2016-02-06T10:59:55Z</time>
      </trkpt>
      <trkpt lat="45.61072" lon="6.65924">
        <ele>2143</ele>
        <time>2016-02-06T11:00:07Z</time>
      </trkpt>
      <trkpt lat="45.61071" lon="6.65922">
        <ele>2143</ele>
        <time>2016-02-06T11:00:11Z</time>
      </trkpt>
      <trkpt lat="45.61071" lon="6.6592">
        <ele>2143</ele>
        <time>2016-02-06T11:00:13Z</time>
      </trkpt>
      <trkpt lat="45.61072" lon="6.65918">
        <ele>2143</ele>
        <time>2016-02-06T11:00:15Z</time>
      </trkpt>
      <trkpt lat="45.61073" lon="6.65918">
        <ele>2144</ele>
        <time>2016-02-06T11:00:18Z</time>
      </trkpt>
      <trkpt lat="45.61074" lon="6.65916">
        <ele>2142</ele>
        <time>2016-02-06T11:00:24Z</time>
      </trkpt>
      <trkpt lat="45.61073" lon="6.65916">
        <ele>2142</ele>
        <time>2016-02-06T11:00:29Z</time>
      </trkpt>
      <trkpt lat="45.61074" lon="6.65917">
        <ele>2144</ele>
        <time>2016-02-06T11:00:40Z</time>
      </trkpt>
      <trkpt lat="45.61075" lon="6.65919">
        <ele>2144</ele>
        <time>2016-02-06T11:00:46Z</time>
      </trkpt>
      <trkpt lat="45.61077" lon="6.65919">
        <ele>2145</ele>
        <time>2016-02-06T11:00:49Z</time>
      </trkpt>
      <trkpt lat="45.61076" lon="6.65917">
        <ele>2145</ele>
        <time>2016-02-06T11:00:52Z</time>
      </trkpt>
      <trkpt lat="45.61078" lon="6.65917">
        <ele>2146</ele>
        <time>2016-02-06T11:00:57Z</time>
      </trkpt>
      <trkpt lat="45.6108" lon="6.65917">
        <ele>2146</ele>
        <time>2016-02-06T11:00:59Z</time>
      </trkpt>
      <trkpt lat="45.61081" lon="6.65918">
        <ele>2147</ele>
        <time>2016-02-06T11:01:01Z</time>
      </trkpt>
      <trkpt lat="45.61083" lon="6.65918">
        <ele>2147</ele>
        <time>2016-02-06T11:01:03Z</time>
      </trkpt>
      <trkpt lat="45.61081" lon="6.65917">
        <ele>2147</ele>
        <time>2016-02-06T11:01:05Z</time>
      </trkpt>
      <trkpt lat="45.6108" lon="6.65916">
        <ele>2146</ele>
        <time>2016-02-06T11:01:08Z</time>
      </trkpt>
      <trkpt lat="45.61082" lon="6.65915">
        <ele>2146</ele>
        <time>2016-02-06T11:01:11Z</time>
      </trkpt>
      <trkpt lat="45.61084" lon="6.65914">
        <ele>2149</ele>
        <time>2016-02-06T11:01:13Z</time>
      </trkpt>
      <trkpt lat="45.61086" lon="6.65912">
        <ele>2150</ele>
        <time>2016-02-06T11:01:15Z</time>
      </trkpt>
      <trkpt lat="45.61087" lon="6.65911">
        <ele>2151</ele>
        <time>2016-02-06T11:01:18Z</time>
      </trkpt>
      <trkpt lat="45.61086" lon="6.65912">
        <ele>2150</ele>
        <time>2016-02-06T11:01:20Z</time>
      </trkpt>
      <trkpt lat="45.61084" lon="6.65911">
        <ele>2150</ele>
        <time>2016-02-06T11:01:22Z</time>
      </trkpt>
      <trkpt lat="45.61083" lon="6.65911">
        <ele>2144</ele>
        <time>2016-02-06T11:01:27Z</time>
      </trkpt>
      <trkpt lat="45.61082" lon="6.65913">
        <ele>2145</ele>
        <time>2016-02-06T11:01:29Z</time>
      </trkpt>
      <trkpt lat="45.61081" lon="6.65914">
        <ele>2145</ele>
        <time>2016-02-06T11:01:38Z</time>
      </trkpt>
      <trkpt lat="45.61081" lon="6.65912">
        <ele>2145</ele>
        <time>2016-02-06T11:01:42Z</time>
      </trkpt>
      <trkpt lat="45.61081" lon="6.6591">
        <ele>2144</ele>
        <time>2016-02-06T11:02:05Z</time>
      </trkpt>
      <trkpt lat="45.61081" lon="6.65912">
        <ele>2145</ele>
        <time>2016-02-06T11:02:15Z</time>
      </trkpt>
      <trkpt lat="45.61082" lon="6.65914">
        <ele>2146</ele>
        <time>2016-02-06T11:02:22Z</time>
      </trkpt>
      <trkpt lat="45.61083" lon="6.65915">
        <ele>2147</ele>
        <time>2016-02-06T11:02:26Z</time>
      </trkpt>
      <trkpt lat="45.61084" lon="6.65917">
        <ele>2149</ele>
        <time>2016-02-06T11:02:30Z</time>
      </trkpt>
      <trkpt lat="45.61083" lon="6.65919">
        <ele>2147</ele>
        <time>2016-02-06T11:02:32Z</time>
      </trkpt>
      <trkpt lat="45.61083" lon="6.65921">
        <ele>2146</ele>
        <time>2016-02-06T11:02:34Z</time>
      </trkpt>
      <trkpt lat="45.61084" lon="6.65922">
        <ele>2152</ele>
        <time>2016-02-06T11:02:55Z</time>
      </trkpt>
      <trkpt lat="45.61084" lon="6.65924">
        <ele>2153</ele>
        <time>2016-02-06T11:03:03Z</time>
      </trkpt>
      <trkpt lat="45.61083" lon="6.65924">
        <ele>2145</ele>
        <time>2016-02-06T11:03:09Z</time>
      </trkpt>
      <trkpt lat="45.61082" lon="6.65923">
        <ele>2145</ele>
        <time>2016-02-06T11:03:19Z</time>
      </trkpt>
      <trkpt lat="45.61081" lon="6.65925">
        <ele>2145</ele>
        <time>2016-02-06T11:03:24Z</time>
      </trkpt>
      <trkpt lat="45.61082" lon="6.65926">
        <ele>2144</ele>
        <time>2016-02-06T11:03:27Z</time>
      </trkpt>
      <trkpt lat="45.61082" lon="6.65928">
        <ele>2144</ele>
        <time>2016-02-06T11:03:30Z</time>
      </trkpt>
      <trkpt lat="45.61084" lon="6.65929">
        <ele>2155</ele>
        <time>2016-02-06T11:03:36Z</time>
      </trkpt>
      <trkpt lat="45.61085" lon="6.6593">
        <ele>2155</ele>
        <time>2016-02-06T11:03:40Z</time>
      </trkpt>
      <trkpt lat="45.61086" lon="6.65932">
        <ele>2156</ele>
        <time>2016-02-06T11:03:43Z</time>
      </trkpt>
      <trkpt lat="45.61086" lon="6.65934">
        <ele>2156</ele>
        <time>2016-02-06T11:03:47Z</time>
      </trkpt>
      <trkpt lat="45.61087" lon="6.65936">
        <ele>2157</ele>
        <time>2016-02-06T11:03:51Z</time>
      </trkpt>
      <trkpt lat="45.61088" lon="6.65937">
        <ele>2157</ele>
        <time>2016-02-06T11:03:55Z</time>
      </trkpt>
      <trkpt lat="45.61089" lon="6.65937">
        <ele>2158</ele>
        <time>2016-02-06T11:03:59Z</time>
      </trkpt>
      <trkpt lat="45.61091" lon="6.65937">
        <ele>2158</ele>
        <time>2016-02-06T11:04:00Z</time>
      </trkpt>
      <trkpt lat="45.61089" lon="6.65936">
        <ele>2157</ele>
        <time>2016-02-06T11:04:10Z</time>
      </trkpt>
      <trkpt lat="45.61088" lon="6.65936">
        <ele>2157</ele>
        <time>2016-02-06T11:04:14Z</time>
      </trkpt>
      <trkpt lat="45.6109" lon="6.65937">
        <ele>2158</ele>
        <time>2016-02-06T11:04:19Z</time>
      </trkpt>
      <trkpt lat="45.61089" lon="6.65937">
        <ele>2158</ele>
        <time>2016-02-06T11:04:28Z</time>
      </trkpt>
      <trkpt lat="45.61087" lon="6.65936">
        <ele>2157</ele>
        <time>2016-02-06T11:04:41Z</time>
      </trkpt>
      <trkpt lat="45.61088" lon="6.65934">
        <ele>2157</ele>
        <time>2016-02-06T11:04:45Z</time>
      </trkpt>
      <trkpt lat="45.61089" lon="6.65933">
        <ele>2156</ele>
        <time>2016-02-06T11:04:49Z</time>
      </trkpt>
      <trkpt lat="45.6109" lon="6.65932">
        <ele>2157</ele>
        <time>2016-02-06T11:04:52Z</time>
      </trkpt>
      <trkpt lat="45.61091" lon="6.65932">
        <ele>2157</ele>
        <time>2016-02-06T11:04:57Z</time>
      </trkpt>
      <trkpt lat="45.61092" lon="6.65934">
        <ele>2157</ele>
        <time>2016-02-06T11:05:06Z</time>
      </trkpt>
      <trkpt lat="45.61092" lon="6.65935">
        <ele>2158</ele>
        <time>2016-02-06T11:05:15Z</time>
      </trkpt>
      <trkpt lat="45.61091" lon="6.65937">
        <ele>2158</ele>
        <time>2016-02-06T11:05:23Z</time>
      </trkpt>
      <trkpt lat="45.6109" lon="6.65938">
        <ele>2158</ele>
        <time>2016-02-06T11:05:40Z</time>
      </trkpt>
      <trkpt lat="45.61092" lon="6.65936">
        <ele>2158</ele>
        <time>2016-02-06T11:05:59Z</time>
      </trkpt>
      <trkpt lat="45.61093" lon="6.65935">
        <ele>2158</ele>
        <time>2016-02-06T11:06:01Z</time>
      </trkpt>
      <trkpt lat="45.61094" lon="6.65933">
        <ele>2158</ele>
        <time>2016-02-06T11:06:03Z</time>
      </trkpt>
      <trkpt lat="45.61095" lon="6.65931">
        <ele>2157</ele>
        <time>2016-02-06T11:06:05Z</time>
      </trkpt>
      <trkpt lat="45.61096" lon="6.6593">
        <ele>2158</ele>
        <time>2016-02-06T11:06:07Z</time>
      </trkpt>
      <trkpt lat="45.61098" lon="6.65929">
        <ele>2158</ele>
        <time>2016-02-06T11:06:09Z</time>
      </trkpt>
      <trkpt lat="45.61099" lon="6.65929">
        <ele>2158</ele>
        <time>2016-02-06T11:06:10Z</time>
      </trkpt>
      <trkpt lat="45.611" lon="6.65928">
        <ele>2158</ele>
        <time>2016-02-06T11:06:12Z</time>
      </trkpt>
      <trkpt lat="45.61102" lon="6.65926">
        <ele>2158</ele>
        <time>2016-02-06T11:06:14Z</time>
      </trkpt>
      <trkpt lat="45.61102" lon="6.65924">
        <ele>2158</ele>
        <time>2016-02-06T11:06:16Z</time>
      </trkpt>
      <trkpt lat="45.61103" lon="6.65922">
        <ele>2159</ele>
        <time>2016-02-06T11:06:19Z</time>
      </trkpt>
      <trkpt lat="45.61105" lon="6.65922">
        <ele>2159</ele>
        <time>2016-02-06T11:06:21Z</time>
      </trkpt>
      <trkpt lat="45.61103" lon="6.65921">
        <ele>2159</ele>
        <time>2016-02-06T11:06:39Z</time>
      </trkpt>
      <trkpt lat="45.61102" lon="6.65921">
        <ele>2158</ele>
        <time>2016-02-06T11:06:43Z</time>
      </trkpt>
      <trkpt lat="45.61102" lon="6.65922">
        <ele>2158</ele>
        <time>2016-02-06T11:06:48Z</time>
      </trkpt>
      <trkpt lat="45.61103" lon="6.65924">
        <ele>2159</ele>
        <time>2016-02-06T11:06:54Z</time>
      </trkpt>
      <trkpt lat="45.61104" lon="6.65926">
        <ele>2159</ele>
        <time>2016-02-06T11:06:59Z</time>
      </trkpt>
      <trkpt lat="45.61105" lon="6.65926">
        <ele>2160</ele>
        <time>2016-02-06T11:07:05Z</time>
      </trkpt>
      <trkpt lat="45.61106" lon="6.65928">
        <ele>2160</ele>
        <time>2016-02-06T11:07:12Z</time>
      </trkpt>
      <trkpt lat="45.61107" lon="6.65929">
        <ele>2161</ele>
        <time>2016-02-06T11:07:20Z</time>
      </trkpt>
      <trkpt lat="45.61107" lon="6.65931">
        <ele>2161</ele>
        <time>2016-02-06T11:07:29Z</time>
      </trkpt>
      <trkpt lat="45.61106" lon="6.65933">
        <ele>2161</ele>
        <time>2016-02-06T11:07:42Z</time>
      </trkpt>
      <trkpt lat="45.61106" lon="6.65934">
        <ele>2161</ele>
        <time>2016-02-06T11:07:46Z</time>
      </trkpt>
      <trkpt lat="45.61106" lon="6.65936">
        <ele>2161</ele>
        <time>2016-02-06T11:07:51Z</time>
      </trkpt>
      <trkpt lat="45.61106" lon="6.65937">
        <ele>2161</ele>
        <time>2016-02-06T11:07:54Z</time>
      </trkpt>
      <trkpt lat="45.61108" lon="6.65939">
        <ele>2162</ele>
        <time>2016-02-06T11:07:57Z</time>
      </trkpt>
      <trkpt lat="45.61109" lon="6.65941">
        <ele>2162</ele>
        <time>2016-02-06T11:08:02Z</time>
      </trkpt>
      <trkpt lat="45.6111" lon="6.65943">
        <ele>2162</ele>
        <time>2016-02-06T11:08:05Z</time>
      </trkpt>
      <trkpt lat="45.61111" lon="6.65944">
        <ele>2163</ele>
        <time>2016-02-06T11:08:08Z</time>
      </trkpt>
      <trkpt lat="45.61113" lon="6.65944">
        <ele>2163</ele>
        <time>2016-02-06T11:08:11Z</time>
      </trkpt>
      <trkpt lat="45.61115" lon="6.65944">
        <ele>2164</ele>
        <time>2016-02-06T11:08:13Z</time>
      </trkpt>
      <trkpt lat="45.61115" lon="6.65943">
        <ele>2164</ele>
        <time>2016-02-06T11:08:22Z</time>
      </trkpt>
      <trkpt lat="45.61115" lon="6.65941">
        <ele>2164</ele>
        <time>2016-02-06T11:08:25Z</time>
      </trkpt>
      <trkpt lat="45.61116" lon="6.65941">
        <ele>2164</ele>
        <time>2016-02-06T11:08:28Z</time>
      </trkpt>
      <trkpt lat="45.61118" lon="6.65941">
        <ele>2164</ele>
        <time>2016-02-06T11:08:40Z</time>
      </trkpt>
      <trkpt lat="45.61118" lon="6.65939">
        <ele>2164</ele>
        <time>2016-02-06T11:08:45Z</time>
      </trkpt>
      <trkpt lat="45.61118" lon="6.65938">
        <ele>2164</ele>
        <time>2016-02-06T11:08:47Z</time>
      </trkpt>
      <trkpt lat="45.61118" lon="6.65936">
        <ele>2164</ele>
        <time>2016-02-06T11:08:50Z</time>
      </trkpt>
      <trkpt lat="45.61119" lon="6.65934">
        <ele>2164</ele>
        <time>2016-02-06T11:08:52Z</time>
      </trkpt>
      <trkpt lat="45.6112" lon="6.65934">
        <ele>2164</ele>
        <time>2016-02-06T11:08:55Z</time>
      </trkpt>
      <trkpt lat="45.61121" lon="6.65933">
        <ele>2165</ele>
        <time>2016-02-06T11:08:57Z</time>
      </trkpt>
      <trkpt lat="45.61123" lon="6.65934">
        <ele>2165</ele>
        <time>2016-02-06T11:09:00Z</time>
      </trkpt>
      <trkpt lat="45.61124" lon="6.65933">
        <ele>2165</ele>
        <time>2016-02-06T11:09:04Z</time>
      </trkpt>
      <trkpt lat="45.61126" lon="6.65933">
        <ele>2166</ele>
        <time>2016-02-06T11:09:07Z</time>
      </trkpt>
      <trkpt lat="45.61127" lon="6.65933">
        <ele>2166</ele>
        <time>2016-02-06T11:09:11Z</time>
      </trkpt>
      <trkpt lat="45.61129" lon="6.65933">
        <ele>2167</ele>
        <time>2016-02-06T11:09:14Z</time>
      </trkpt>
      <trkpt lat="45.6113" lon="6.65933">
        <ele>2167</ele>
        <time>2016-02-06T11:09:17Z</time>
      </trkpt>
      <trkpt lat="45.61131" lon="6.65934">
        <ele>2167</ele>
        <time>2016-02-06T11:09:20Z</time>
      </trkpt>
      <trkpt lat="45.61131" lon="6.65936">
        <ele>2167</ele>
        <time>2016-02-06T11:09:23Z</time>
      </trkpt>
      <trkpt lat="45.61131" lon="6.65937">
        <ele>2167</ele>
        <time>2016-02-06T11:09:26Z</time>
      </trkpt>
      <trkpt lat="45.61133" lon="6.65939">
        <ele>2168</ele>
        <time>2016-02-06T11:09:31Z</time>
      </trkpt>
      <trkpt lat="45.61133" lon="6.65941">
        <ele>2168</ele>
        <time>2016-02-06T11:09:35Z</time>
      </trkpt>
      <trkpt lat="45.61134" lon="6.65942">
        <ele>2168</ele>
        <time>2016-02-06T11:09:38Z</time>
      </trkpt>
      <trkpt lat="45.61135" lon="6.65944">
        <ele>2168</ele>
        <time>2016-02-06T11:09:41Z</time>
      </trkpt>
      <trkpt lat="45.61136" lon="6.65945">
        <ele>2168</ele>
        <time>2016-02-06T11:09:43Z</time>
      </trkpt>
      <trkpt lat="45.61136" lon="6.65947">
        <ele>2168</ele>
        <time>2016-02-06T11:09:45Z</time>
      </trkpt>
      <trkpt lat="45.61138" lon="6.65949">
        <ele>2168</ele>
        <time>2016-02-06T11:09:48Z</time>
      </trkpt>
      <trkpt lat="45.61139" lon="6.65951">
        <ele>2169</ele>
        <time>2016-02-06T11:09:51Z</time>
      </trkpt>
      <trkpt lat="45.61139" lon="6.65953">
        <ele>2169</ele>
        <time>2016-02-06T11:09:55Z</time>
      </trkpt>
      <trkpt lat="45.6114" lon="6.65954">
        <ele>2169</ele>
        <time>2016-02-06T11:09:57Z</time>
      </trkpt>
      <trkpt lat="45.61142" lon="6.65955">
        <ele>2169</ele>
        <time>2016-02-06T11:10:00Z</time>
      </trkpt>
      <trkpt lat="45.61143" lon="6.65957">
        <ele>2169</ele>
        <time>2016-02-06T11:10:04Z</time>
      </trkpt>
      <trkpt lat="45.61144" lon="6.65959">
        <ele>2169</ele>
        <time>2016-02-06T11:10:08Z</time>
      </trkpt>
      <trkpt lat="45.61144" lon="6.65961">
        <ele>2170</ele>
        <time>2016-02-06T11:10:13Z</time>
      </trkpt>
      <trkpt lat="45.61145" lon="6.65963">
        <ele>2170</ele>
        <time>2016-02-06T11:10:16Z</time>
      </trkpt>
      <trkpt lat="45.61146" lon="6.65963">
        <ele>2170</ele>
        <time>2016-02-06T11:10:18Z</time>
      </trkpt>
      <trkpt lat="45.61147" lon="6.65965">
        <ele>2170</ele>
        <time>2016-02-06T11:10:20Z</time>
      </trkpt>
      <trkpt lat="45.61148" lon="6.65967">
        <ele>2170</ele>
        <time>2016-02-06T11:10:22Z</time>
      </trkpt>
      <trkpt lat="45.61149" lon="6.65968">
        <ele>2171</ele>
        <time>2016-02-06T11:10:24Z</time>
      </trkpt>
      <trkpt lat="45.6115" lon="6.6597">
        <ele>2171</ele>
        <time>2016-02-06T11:10:26Z</time>
      </trkpt>
      <trkpt lat="45.61151" lon="6.65971">
        <ele>2171</ele>
        <time>2016-02-06T11:10:29Z</time>
      </trkpt>
      <trkpt lat="45.61152" lon="6.65973">
        <ele>2171</ele>
        <time>2016-02-06T11:10:32Z</time>
      </trkpt>
      <trkpt lat="45.61153" lon="6.65974">
        <ele>2172</ele>
        <time>2016-02-06T11:10:34Z</time>
      </trkpt>
      <trkpt lat="45.61155" lon="6.65973">
        <ele>2172</ele>
        <time>2016-02-06T11:10:43Z</time>
      </trkpt>
      <trkpt lat="45.61156" lon="6.65971">
        <ele>2172</ele>
        <time>2016-02-06T11:10:46Z</time>
      </trkpt>
      <trkpt lat="45.61156" lon="6.6597">
        <ele>2172</ele>
        <time>2016-02-06T11:10:48Z</time>
      </trkpt>
      <trkpt lat="45.61156" lon="6.65968">
        <ele>2172</ele>
        <time>2016-02-06T11:10:51Z</time>
      </trkpt>
      <trkpt lat="45.61157" lon="6.65966">
        <ele>2171</ele>
        <time>2016-02-06T11:10:54Z</time>
      </trkpt>
      <trkpt lat="45.61156" lon="6.65964">
        <ele>2171</ele>
        <time>2016-02-06T11:10:59Z</time>
      </trkpt>
      <trkpt lat="45.61157" lon="6.65962">
        <ele>2171</ele>
        <time>2016-02-06T11:11:02Z</time>
      </trkpt>
      <trkpt lat="45.61157" lon="6.65961">
        <ele>2171</ele>
        <time>2016-02-06T11:11:06Z</time>
      </trkpt>
      <trkpt lat="45.61159" lon="6.65959">
        <ele>2171</ele>
        <time>2016-02-06T11:11:08Z</time>
      </trkpt>
      <trkpt lat="45.6116" lon="6.65958">
        <ele>2172</ele>
        <time>2016-02-06T11:11:10Z</time>
      </trkpt>
      <trkpt lat="45.61161" lon="6.65957">
        <ele>2172</ele>
        <time>2016-02-06T11:11:14Z</time>
      </trkpt>
      <trkpt lat="45.61162" lon="6.65955">
        <ele>2172</ele>
        <time>2016-02-06T11:11:18Z</time>
      </trkpt>
      <trkpt lat="45.61163" lon="6.65954">
        <ele>2172</ele>
        <time>2016-02-06T11:11:22Z</time>
      </trkpt>
      <trkpt lat="45.61165" lon="6.65955">
        <ele>2172</ele>
        <time>2016-02-06T11:11:27Z</time>
      </trkpt>
      <trkpt lat="45.61166" lon="6.65956">
        <ele>2172</ele>
        <time>2016-02-06T11:11:32Z</time>
      </trkpt>
      <trkpt lat="45.61167" lon="6.65958">
        <ele>2190</ele>
        <time>2016-02-06T11:11:36Z</time>
      </trkpt>
      <trkpt lat="45.61169" lon="6.65958">
        <ele>2190</ele>
        <time>2016-02-06T11:11:38Z</time>
      </trkpt>
      <trkpt lat="45.6117" lon="6.6596">
        <ele>2190</ele>
        <time>2016-02-06T11:11:42Z</time>
      </trkpt>
      <trkpt lat="45.61171" lon="6.65962">
        <ele>2190</ele>
        <time>2016-02-06T11:11:45Z</time>
      </trkpt>
      <trkpt lat="45.61172" lon="6.65963">
        <ele>2190</ele>
        <time>2016-02-06T11:11:49Z</time>
      </trkpt>
      <trkpt lat="45.61173" lon="6.65964">
        <ele>2191</ele>
        <time>2016-02-06T11:11:51Z</time>
      </trkpt>
      <trkpt lat="45.61174" lon="6.65965">
        <ele>2191</ele>
        <time>2016-02-06T11:11:55Z</time>
      </trkpt>
      <trkpt lat="45.61176" lon="6.65967">
        <ele>2191</ele>
        <time>2016-02-06T11:11:59Z</time>
      </trkpt>
      <trkpt lat="45.61177" lon="6.65969">
        <ele>2191</ele>
        <time>2016-02-06T11:12:03Z</time>
      </trkpt>
      <trkpt lat="45.61178" lon="6.6597">
        <ele>2191</ele>
        <time>2016-02-06T11:12:06Z</time>
      </trkpt>
      <trkpt lat="45.61179" lon="6.65972">
        <ele>2191</ele>
        <time>2016-02-06T11:12:09Z</time>
      </trkpt>
      <trkpt lat="45.6118" lon="6.65973">
        <ele>2191</ele>
        <time>2016-02-06T11:12:13Z</time>
      </trkpt>
      <trkpt lat="45.61181" lon="6.65974">
        <ele>2191</ele>
        <time>2016-02-06T11:12:16Z</time>
      </trkpt>
      <trkpt lat="45.61182" lon="6.65976">
        <ele>2191</ele>
        <time>2016-02-06T11:12:20Z</time>
      </trkpt>
      <trkpt lat="45.61183" lon="6.65978">
        <ele>2191</ele>
        <time>2016-02-06T11:12:23Z</time>
      </trkpt>
      <trkpt lat="45.61184" lon="6.65979">
        <ele>2191</ele>
        <time>2016-02-06T11:12:26Z</time>
      </trkpt>
      <trkpt lat="45.61186" lon="6.65981">
        <ele>2191</ele>
        <time>2016-02-06T11:12:30Z</time>
      </trkpt>
      <trkpt lat="45.61187" lon="6.65982">
        <ele>2191</ele>
        <time>2016-02-06T11:12:33Z</time>
      </trkpt>
      <trkpt lat="45.61188" lon="6.65984">
        <ele>2191</ele>
        <time>2016-02-06T11:12:36Z</time>
      </trkpt>
      <trkpt lat="45.61189" lon="6.65985">
        <ele>2191</ele>
        <time>2016-02-06T11:12:39Z</time>
      </trkpt>
      <trkpt lat="45.61191" lon="6.65987">
        <ele>2192</ele>
        <time>2016-02-06T11:12:43Z</time>
      </trkpt>
      <trkpt lat="45.61192" lon="6.65988">
        <ele>2192</ele>
        <time>2016-02-06T11:12:45Z</time>
      </trkpt>
      <trkpt lat="45.61194" lon="6.65989">
        <ele>2192</ele>
        <time>2016-02-06T11:12:47Z</time>
      </trkpt>
      <trkpt lat="45.61195" lon="6.65989">
        <ele>2192</ele>
        <time>2016-02-06T11:12:50Z</time>
      </trkpt>
      <trkpt lat="45.61197" lon="6.6599">
        <ele>2193</ele>
        <time>2016-02-06T11:12:53Z</time>
      </trkpt>
      <trkpt lat="45.61198" lon="6.6599">
        <ele>2193</ele>
        <time>2016-02-06T11:12:55Z</time>
      </trkpt>
      <trkpt lat="45.61199" lon="6.65991">
        <ele>2193</ele>
        <time>2016-02-06T11:12:59Z</time>
      </trkpt>
      <trkpt lat="45.612" lon="6.65991">
        <ele>2194</ele>
        <time>2016-02-06T11:13:02Z</time>
      </trkpt>
      <trkpt lat="45.61202" lon="6.65991">
        <ele>2194</ele>
        <time>2016-02-06T11:13:05Z</time>
      </trkpt>
      <trkpt lat="45.61203" lon="6.65991">
        <ele>2194</ele>
        <time>2016-02-06T11:13:07Z</time>
      </trkpt>
      <trkpt lat="45.61204" lon="6.65992">
        <ele>2195</ele>
        <time>2016-02-06T11:13:09Z</time>
      </trkpt>
      <trkpt lat="45.61206" lon="6.65992">
        <ele>2195</ele>
        <time>2016-02-06T11:13:11Z</time>
      </trkpt>
      <trkpt lat="45.61207" lon="6.65992">
        <ele>2195</ele>
        <time>2016-02-06T11:13:14Z</time>
      </trkpt>
      <trkpt lat="45.61209" lon="6.65992">
        <ele>2196</ele>
        <time>2016-02-06T11:13:16Z</time>
      </trkpt>
      <trkpt lat="45.6121" lon="6.65993">
        <ele>2196</ele>
        <time>2016-02-06T11:13:19Z</time>
      </trkpt>
      <trkpt lat="45.61211" lon="6.65994">
        <ele>2196</ele>
        <time>2016-02-06T11:13:21Z</time>
      </trkpt>
      <trkpt lat="45.61212" lon="6.65994">
        <ele>2196</ele>
        <time>2016-02-06T11:13:25Z</time>
      </trkpt>
      <trkpt lat="45.61214" lon="6.65993">
        <ele>2197</ele>
        <time>2016-02-06T11:13:28Z</time>
      </trkpt>
      <trkpt lat="45.61215" lon="6.65993">
        <ele>2197</ele>
        <time>2016-02-06T11:13:35Z</time>
      </trkpt>
      <trkpt lat="45.61216" lon="6.65992">
        <ele>2197</ele>
        <time>2016-02-06T11:13:39Z</time>
      </trkpt>
      <trkpt lat="45.61218" lon="6.65992">
        <ele>2198</ele>
        <time>2016-02-06T11:13:42Z</time>
      </trkpt>
      <trkpt lat="45.61219" lon="6.65992">
        <ele>2198</ele>
        <time>2016-02-06T11:13:45Z</time>
      </trkpt>
      <trkpt lat="45.6122" lon="6.65993">
        <ele>2198</ele>
        <time>2016-02-06T11:14:00Z</time>
      </trkpt>
      <trkpt lat="45.61221" lon="6.65994">
        <ele>2199</ele>
        <time>2016-02-06T11:14:05Z</time>
      </trkpt>
      <trkpt lat="45.61222" lon="6.65994">
        <ele>2199</ele>
        <time>2016-02-06T11:14:08Z</time>
      </trkpt>
      <trkpt lat="45.61224" lon="6.65994">
        <ele>2200</ele>
        <time>2016-02-06T11:14:11Z</time>
      </trkpt>
      <trkpt lat="45.61225" lon="6.65995">
        <ele>2200</ele>
        <time>2016-02-06T11:14:16Z</time>
      </trkpt>
      <trkpt lat="45.61227" lon="6.65995">
        <ele>2200</ele>
        <time>2016-02-06T11:14:19Z</time>
      </trkpt>
      <trkpt lat="45.61228" lon="6.65995">
        <ele>2201</ele>
        <time>2016-02-06T11:14:21Z</time>
      </trkpt>
      <trkpt lat="45.61229" lon="6.65995">
        <ele>2201</ele>
        <time>2016-02-06T11:14:23Z</time>
      </trkpt>
      <trkpt lat="45.6123" lon="6.65995">
        <ele>2201</ele>
        <time>2016-02-06T11:14:26Z</time>
      </trkpt>
      <trkpt lat="45.61232" lon="6.65995">
        <ele>2202</ele>
        <time>2016-02-06T11:14:29Z</time>
      </trkpt>
      <trkpt lat="45.61234" lon="6.65994">
        <ele>2202</ele>
        <time>2016-02-06T11:14:32Z</time>
      </trkpt>
      <trkpt lat="45.61235" lon="6.65993">
        <ele>2203</ele>
        <time>2016-02-06T11:14:36Z</time>
      </trkpt>
      <trkpt lat="45.61236" lon="6.65993">
        <ele>2203</ele>
        <time>2016-02-06T11:14:39Z</time>
      </trkpt>
      <trkpt lat="45.61237" lon="6.65993">
        <ele>2203</ele>
        <time>2016-02-06T11:14:43Z</time>
      </trkpt>
      <trkpt lat="45.61239" lon="6.65992">
        <ele>2204</ele>
        <time>2016-02-06T11:14:47Z</time>
      </trkpt>
      <trkpt lat="45.6124" lon="6.65991">
        <ele>2204</ele>
        <time>2016-02-06T11:14:51Z</time>
      </trkpt>
      <trkpt lat="45.61241" lon="6.65991">
        <ele>2204</ele>
        <time>2016-02-06T11:14:54Z</time>
      </trkpt>
      <trkpt lat="45.61242" lon="6.6599">
        <ele>2204</ele>
        <time>2016-02-06T11:14:57Z</time>
      </trkpt>
      <trkpt lat="45.61243" lon="6.6599">
        <ele>2204</ele>
        <time>2016-02-06T11:15:00Z</time>
      </trkpt>
      <trkpt lat="45.61245" lon="6.65989">
        <ele>2205</ele>
        <time>2016-02-06T11:15:19Z</time>
      </trkpt>
      <trkpt lat="45.61247" lon="6.65989">
        <ele>2205</ele>
        <time>2016-02-06T11:15:22Z</time>
      </trkpt>
      <trkpt lat="45.61248" lon="6.65988">
        <ele>2205</ele>
        <time>2016-02-06T11:15:25Z</time>
      </trkpt>
      <trkpt lat="45.61249" lon="6.65988">
        <ele>2205</ele>
        <time>2016-02-06T11:15:27Z</time>
      </trkpt>
      <trkpt lat="45.61251" lon="6.65987">
        <ele>2213</ele>
        <time>2016-02-06T11:15:30Z</time>
      </trkpt>
      <trkpt lat="45.61252" lon="6.65986">
        <ele>2213</ele>
        <time>2016-02-06T11:15:34Z</time>
      </trkpt>
      <trkpt lat="45.61253" lon="6.65986">
        <ele>2214</ele>
        <time>2016-02-06T11:15:37Z</time>
      </trkpt>
      <trkpt lat="45.61255" lon="6.65987">
        <ele>2214</ele>
        <time>2016-02-06T11:15:45Z</time>
      </trkpt>
      <trkpt lat="45.61256" lon="6.65986">
        <ele>2214</ele>
        <time>2016-02-06T11:15:51Z</time>
      </trkpt>
      <trkpt lat="45.61258" lon="6.65985">
        <ele>2214</ele>
        <time>2016-02-06T11:15:54Z</time>
      </trkpt>
      <trkpt lat="45.61259" lon="6.65983">
        <ele>2214</ele>
        <time>2016-02-06T11:16:01Z</time>
      </trkpt>
      <trkpt lat="45.6126" lon="6.65983">
        <ele>2215</ele>
        <time>2016-02-06T11:16:03Z</time>
      </trkpt>
      <trkpt lat="45.61262" lon="6.65982">
        <ele>2215</ele>
        <time>2016-02-06T11:16:06Z</time>
      </trkpt>
      <trkpt lat="45.61263" lon="6.65981">
        <ele>2215</ele>
        <time>2016-02-06T11:16:08Z</time>
      </trkpt>
      <trkpt lat="45.61264" lon="6.6598">
        <ele>2215</ele>
        <time>2016-02-06T11:16:11Z</time>
      </trkpt>
      <trkpt lat="45.61266" lon="6.6598">
        <ele>2216</ele>
        <time>2016-02-06T11:16:14Z</time>
      </trkpt>
      <trkpt lat="45.61267" lon="6.6598">
        <ele>2216</ele>
        <time>2016-02-06T11:16:19Z</time>
      </trkpt>
      <trkpt lat="45.61268" lon="6.65978">
        <ele>2216</ele>
        <time>2016-02-06T11:16:23Z</time>
      </trkpt>
      <trkpt lat="45.6127" lon="6.65978">
        <ele>2216</ele>
        <time>2016-02-06T11:16:26Z</time>
      </trkpt>
      <trkpt lat="45.61271" lon="6.65977">
        <ele>2216</ele>
        <time>2016-02-06T11:16:30Z</time>
      </trkpt>
      <trkpt lat="45.61272" lon="6.65978">
        <ele>2216</ele>
        <time>2016-02-06T11:16:32Z</time>
      </trkpt>
      <trkpt lat="45.61273" lon="6.65978">
        <ele>2217</ele>
        <time>2016-02-06T11:16:34Z</time>
      </trkpt>
      <trkpt lat="45.61275" lon="6.6598">
        <ele>2217</ele>
        <time>2016-02-06T11:16:37Z</time>
      </trkpt>
      <trkpt lat="45.61276" lon="6.6598">
        <ele>2217</ele>
        <time>2016-02-06T11:16:40Z</time>
      </trkpt>
      <trkpt lat="45.61275" lon="6.65981">
        <ele>2217</ele>
        <time>2016-02-06T11:16:52Z</time>
      </trkpt>
      <trkpt lat="45.61273" lon="6.65982">
        <ele>2217</ele>
        <time>2016-02-06T11:16:55Z</time>
      </trkpt>
      <trkpt lat="45.61272" lon="6.65983">
        <ele>2216</ele>
        <time>2016-02-06T11:16:58Z</time>
      </trkpt>
      <trkpt lat="45.6127" lon="6.65983">
        <ele>2216</ele>
        <time>2016-02-06T11:16:59Z</time>
      </trkpt>
      <trkpt lat="45.61269" lon="6.65983">
        <ele>2216</ele>
        <time>2016-02-06T11:17:00Z</time>
      </trkpt>
      <trkpt lat="45.61267" lon="6.65983">
        <ele>2216</ele>
        <time>2016-02-06T11:17:01Z</time>
      </trkpt>
      <trkpt lat="45.61267" lon="6.65982">
        <ele>2216</ele>
        <time>2016-02-06T11:17:04Z</time>
      </trkpt>
      <trkpt lat="45.61268" lon="6.6598">
        <ele>2216</ele>
        <time>2016-02-06T11:17:08Z</time>
      </trkpt>
      <trkpt lat="45.6127" lon="6.6598">
        <ele>2216</ele>
        <time>2016-02-06T11:17:16Z</time>
      </trkpt>
      <trkpt lat="45.61271" lon="6.65979">
        <ele>2216</ele>
        <time>2016-02-06T11:17:18Z</time>
      </trkpt>
      <trkpt lat="45.61272" lon="6.6598">
        <ele>2216</ele>
        <time>2016-02-06T11:17:20Z</time>
      </trkpt>
      <trkpt lat="45.61274" lon="6.6598">
        <ele>2217</ele>
        <time>2016-02-06T11:17:24Z</time>
      </trkpt>
      <trkpt lat="45.61275" lon="6.6598">
        <ele>2217</ele>
        <time>2016-02-06T11:17:27Z</time>
      </trkpt>
      <trkpt lat="45.61276" lon="6.6598">
        <ele>2217</ele>
        <time>2016-02-06T11:17:30Z</time>
      </trkpt>
      <trkpt lat="45.61277" lon="6.65981">
        <ele>2217</ele>
        <time>2016-02-06T11:17:35Z</time>
      </trkpt>
      <trkpt lat="45.61279" lon="6.65982">
        <ele>2217</ele>
        <time>2016-02-06T11:17:40Z</time>
      </trkpt>
      <trkpt lat="45.6128" lon="6.65983">
        <ele>2217</ele>
        <time>2016-02-06T11:17:46Z</time>
      </trkpt>
      <trkpt lat="45.61281" lon="6.65984">
        <ele>2218</ele>
        <time>2016-02-06T11:17:50Z</time>
      </trkpt>
      <trkpt lat="45.61282" lon="6.65984">
        <ele>2218</ele>
        <time>2016-02-06T11:17:52Z</time>
      </trkpt>
      <trkpt lat="45.61284" lon="6.65985">
        <ele>2218</ele>
        <time>2016-02-06T11:17:55Z</time>
      </trkpt>
      <trkpt lat="45.61285" lon="6.65985">
        <ele>2218</ele>
        <time>2016-02-06T11:17:57Z</time>
      </trkpt>
      <trkpt lat="45.61286" lon="6.65986">
        <ele>2219</ele>
        <time>2016-02-06T11:17:59Z</time>
      </trkpt>
      <trkpt lat="45.61288" lon="6.65986">
        <ele>2219</ele>
        <time>2016-02-06T11:18:02Z</time>
      </trkpt>
      <trkpt lat="45.61289" lon="6.65987">
        <ele>2219</ele>
        <time>2016-02-06T11:18:04Z</time>
      </trkpt>
      <trkpt lat="45.6129" lon="6.65987">
        <ele>2219</ele>
        <time>2016-02-06T11:18:07Z</time>
      </trkpt>
      <trkpt lat="45.61292" lon="6.65988">
        <ele>2220</ele>
        <time>2016-02-06T11:18:10Z</time>
      </trkpt>
      <trkpt lat="45.61293" lon="6.65988">
        <ele>2220</ele>
        <time>2016-02-06T11:18:14Z</time>
      </trkpt>
      <trkpt lat="45.61294" lon="6.65989">
        <ele>2220</ele>
        <time>2016-02-06T11:18:20Z</time>
      </trkpt>
      <trkpt lat="45.61295" lon="6.6599">
        <ele>2220</ele>
        <time>2016-02-06T11:18:24Z</time>
      </trkpt>
      <trkpt lat="45.61296" lon="6.65991">
        <ele>2221</ele>
        <time>2016-02-06T11:18:29Z</time>
      </trkpt>
      <trkpt lat="45.61298" lon="6.6599">
        <ele>2221</ele>
        <time>2016-02-06T11:18:31Z</time>
      </trkpt>
      <trkpt lat="45.61299" lon="6.6599">
        <ele>2221</ele>
        <time>2016-02-06T11:18:33Z</time>
      </trkpt>
      <trkpt lat="45.613" lon="6.65991">
        <ele>2221</ele>
        <time>2016-02-06T11:18:37Z</time>
      </trkpt>
      <trkpt lat="45.61301" lon="6.65992">
        <ele>2222</ele>
        <time>2016-02-06T11:18:41Z</time>
      </trkpt>
      <trkpt lat="45.61303" lon="6.65992">
        <ele>2222</ele>
        <time>2016-02-06T11:18:44Z</time>
      </trkpt>
      <trkpt lat="45.61304" lon="6.65993">
        <ele>2222</ele>
        <time>2016-02-06T11:18:48Z</time>
      </trkpt>
      <trkpt lat="45.61305" lon="6.65993">
        <ele>2223</ele>
        <time>2016-02-06T11:18:54Z</time>
      </trkpt>
      <trkpt lat="45.61306" lon="6.65994">
        <ele>2223</ele>
        <time>2016-02-06T11:18:58Z</time>
      </trkpt>
      <trkpt lat="45.61308" lon="6.65994">
        <ele>2223</ele>
        <time>2016-02-06T11:19:01Z</time>
      </trkpt>
      <trkpt lat="45.61309" lon="6.65995">
        <ele>2224</ele>
        <time>2016-02-06T11:19:04Z</time>
      </trkpt>
      <trkpt lat="45.61311" lon="6.65995">
        <ele>2224</ele>
        <time>2016-02-06T11:19:06Z</time>
      </trkpt>
      <trkpt lat="45.61312" lon="6.65996">
        <ele>2224</ele>
        <time>2016-02-06T11:19:11Z</time>
      </trkpt>
      <trkpt lat="45.61313" lon="6.65996">
        <ele>2225</ele>
        <time>2016-02-06T11:19:16Z</time>
      </trkpt>
      <trkpt lat="45.61314" lon="6.65997">
        <ele>2225</ele>
        <time>2016-02-06T11:19:20Z</time>
      </trkpt>
      <trkpt lat="45.61316" lon="6.65997">
        <ele>2225</ele>
        <time>2016-02-06T11:19:25Z</time>
      </trkpt>
      <trkpt lat="45.61317" lon="6.65998">
        <ele>2226</ele>
        <time>2016-02-06T11:19:27Z</time>
      </trkpt>
      <trkpt lat="45.61318" lon="6.65998">
        <ele>2226</ele>
        <time>2016-02-06T11:19:29Z</time>
      </trkpt>
      <trkpt lat="45.61319" lon="6.65998">
        <ele>2227</ele>
        <time>2016-02-06T11:19:31Z</time>
      </trkpt>
      <trkpt lat="45.61321" lon="6.65998">
        <ele>2227</ele>
        <time>2016-02-06T11:19:33Z</time>
      </trkpt>
      <trkpt lat="45.61322" lon="6.65998">
        <ele>2228</ele>
        <time>2016-02-06T11:19:38Z</time>
      </trkpt>
      <trkpt lat="45.61323" lon="6.65998">
        <ele>2228</ele>
        <time>2016-02-06T11:19:41Z</time>
      </trkpt>
      <trkpt lat="45.61324" lon="6.65996">
        <ele>2228</ele>
        <time>2016-02-06T11:19:49Z</time>
      </trkpt>
      <trkpt lat="45.61325" lon="6.65995">
        <ele>2228</ele>
        <time>2016-02-06T11:19:52Z</time>
      </trkpt>
      <trkpt lat="45.61326" lon="6.65994">
        <ele>2228</ele>
        <time>2016-02-06T11:19:56Z</time>
      </trkpt>
      <trkpt lat="45.61327" lon="6.65993">
        <ele>2229</ele>
        <time>2016-02-06T11:19:58Z</time>
      </trkpt>
      <trkpt lat="45.61329" lon="6.65992">
        <ele>2229</ele>
        <time>2016-02-06T11:20:01Z</time>
      </trkpt>
      <trkpt lat="45.6133" lon="6.6599">
        <ele>2228</ele>
        <time>2016-02-06T11:20:05Z</time>
      </trkpt>
      <trkpt lat="45.61331" lon="6.65988">
        <ele>2228</ele>
        <time>2016-02-06T11:20:09Z</time>
      </trkpt>
      <trkpt lat="45.61331" lon="6.65987">
        <ele>2227</ele>
        <time>2016-02-06T11:20:16Z</time>
      </trkpt>
      <trkpt lat="45.61332" lon="6.65986">
        <ele>2227</ele>
        <time>2016-02-06T11:20:21Z</time>
      </trkpt>
      <trkpt lat="45.61334" lon="6.65984">
        <ele>2234</ele>
        <time>2016-02-06T11:20:39Z</time>
      </trkpt>
      <trkpt lat="45.61335" lon="6.65985">
        <ele>2234</ele>
        <time>2016-02-06T11:20:49Z</time>
      </trkpt>
      <trkpt lat="45.61335" lon="6.65984">
        <ele>2234</ele>
        <time>2016-02-06T11:21:06Z</time>
      </trkpt>
      <trkpt lat="45.61337" lon="6.65982">
        <ele>2234</ele>
        <time>2016-02-06T11:21:14Z</time>
      </trkpt>
      <trkpt lat="45.61337" lon="6.65981">
        <ele>2234</ele>
        <time>2016-02-06T11:21:22Z</time>
      </trkpt>
      <trkpt lat="45.61335" lon="6.65982">
        <ele>2234</ele>
        <time>2016-02-06T11:21:35Z</time>
      </trkpt>
      <trkpt lat="45.61333" lon="6.65983">
        <ele>2226</ele>
        <time>2016-02-06T11:21:37Z</time>
      </trkpt>
      <trkpt lat="45.61335" lon="6.65983">
        <ele>2234</ele>
        <time>2016-02-06T11:21:38Z</time>
      </trkpt>
      <trkpt lat="45.61336" lon="6.65982">
        <ele>2234</ele>
        <time>2016-02-06T11:21:50Z</time>
      </trkpt>
      <trkpt lat="45.61337" lon="6.65982">
        <ele>2234</ele>
        <time>2016-02-06T11:21:58Z</time>
      </trkpt>
      <trkpt lat="45.61336" lon="6.65983">
        <ele>2234</ele>
        <time>2016-02-06T11:22:04Z</time>
      </trkpt>
      <trkpt lat="45.61335" lon="6.65984">
        <ele>2234</ele>
        <time>2016-02-06T11:22:11Z</time>
      </trkpt>
      <trkpt lat="45.61334" lon="6.65983">
        <ele>2234</ele>
        <time>2016-02-06T11:22:15Z</time>
      </trkpt>
      <trkpt lat="45.61334" lon="6.65981">
        <ele>2234</ele>
        <time>2016-02-06T11:22:24Z</time>
      </trkpt>
      <trkpt lat="45.61335" lon="6.65981">
        <ele>2234</ele>
        <time>2016-02-06T11:22:30Z</time>
      </trkpt>
      <trkpt lat="45.61337" lon="6.65981">
        <ele>2234</ele>
        <time>2016-02-06T11:22:35Z</time>
      </trkpt>
      <trkpt lat="45.61338" lon="6.65982">
        <ele>2234</ele>
        <time>2016-02-06T11:22:45Z</time>
      </trkpt>
      <trkpt lat="45.61337" lon="6.65982">
        <ele>2234</ele>
        <time>2016-02-06T11:22:50Z</time>
      </trkpt>
      <trkpt lat="45.61336" lon="6.65982">
        <ele>2234</ele>
        <time>2016-02-06T11:22:53Z</time>
      </trkpt>
      <trkpt lat="45.61335" lon="6.65982">
        <ele>2234</ele>
        <time>2016-02-06T11:22:56Z</time>
      </trkpt>
      <trkpt lat="45.61332" lon="6.65982">
        <ele>2226</ele>
        <time>2016-02-06T11:23:06Z</time>
      </trkpt>
      <trkpt lat="45.6133" lon="6.65982">
        <ele>2226</ele>
        <time>2016-02-06T11:23:11Z</time>
      </trkpt>
      <trkpt lat="45.61332" lon="6.65982">
        <ele>2226</ele>
        <time>2016-02-06T11:23:18Z</time>
      </trkpt>
      <trkpt lat="45.61333" lon="6.65982">
        <ele>2226</ele>
        <time>2016-02-06T11:23:19Z</time>
      </trkpt>
      <trkpt lat="45.61335" lon="6.65982">
        <ele>2234</ele>
        <time>2016-02-06T11:23:22Z</time>
      </trkpt>
      <trkpt lat="45.61337" lon="6.65982">
        <ele>2234</ele>
        <time>2016-02-06T11:23:24Z</time>
      </trkpt>
      <trkpt lat="45.61338" lon="6.65983">
        <ele>2234</ele>
        <time>2016-02-06T11:23:28Z</time>
      </trkpt>
      <trkpt lat="45.61339" lon="6.65985">
        <ele>2234</ele>
        <time>2016-02-06T11:23:30Z</time>
      </trkpt>
      <trkpt lat="45.6134" lon="6.65987">
        <ele>2234</ele>
        <time>2016-02-06T11:23:32Z</time>
      </trkpt>
      <trkpt lat="45.61341" lon="6.65988">
        <ele>2234</ele>
        <time>2016-02-06T11:23:36Z</time>
      </trkpt>
      <trkpt lat="45.61343" lon="6.6599">
        <ele>2234</ele>
        <time>2016-02-06T11:23:38Z</time>
      </trkpt>
      <trkpt lat="45.61344" lon="6.65991">
        <ele>2234</ele>
        <time>2016-02-06T11:23:40Z</time>
      </trkpt>
      <trkpt lat="45.61345" lon="6.65992">
        <ele>2235</ele>
        <time>2016-02-06T11:23:42Z</time>
      </trkpt>
      <trkpt lat="45.61345" lon="6.65994">
        <ele>2235</ele>
        <time>2016-02-06T11:23:44Z</time>
      </trkpt>
      <trkpt lat="45.61346" lon="6.65996">
        <ele>2235</ele>
        <time>2016-02-06T11:23:46Z</time>
      </trkpt>
      <trkpt lat="45.61346" lon="6.65998">
        <ele>2235</ele>
        <time>2016-02-06T11:23:48Z</time>
      </trkpt>
      <trkpt lat="45.61347" lon="6.66">
        <ele>2236</ele>
        <time>2016-02-06T11:23:51Z</time>
      </trkpt>
      <trkpt lat="45.61348" lon="6.66002">
        <ele>2236</ele>
        <time>2016-02-06T11:23:54Z</time>
      </trkpt>
      <trkpt lat="45.61348" lon="6.66004">
        <ele>2236</ele>
        <time>2016-02-06T11:23:56Z</time>
      </trkpt>
      <trkpt lat="45.61349" lon="6.66006">
        <ele>2236</ele>
        <time>2016-02-06T11:23:58Z</time>
      </trkpt>
      <trkpt lat="45.6135" lon="6.66006">
        <ele>2236</ele>
        <time>2016-02-06T11:24:01Z</time>
      </trkpt>
      <trkpt lat="45.61351" lon="6.66007">
        <ele>2237</ele>
        <time>2016-02-06T11:24:04Z</time>
      </trkpt>
      <trkpt lat="45.61353" lon="6.66007">
        <ele>2237</ele>
        <time>2016-02-06T11:24:06Z</time>
      </trkpt>
      <trkpt lat="45.61354" lon="6.66007">
        <ele>2237</ele>
        <time>2016-02-06T11:24:09Z</time>
      </trkpt>
      <trkpt lat="45.61356" lon="6.66007">
        <ele>2237</ele>
        <time>2016-02-06T11:24:13Z</time>
      </trkpt>
      <trkpt lat="45.61357" lon="6.66007">
        <ele>2238</ele>
        <time>2016-02-06T11:24:15Z</time>
      </trkpt>
      <trkpt lat="45.61359" lon="6.66008">
        <ele>2238</ele>
        <time>2016-02-06T11:24:17Z</time>
      </trkpt>
      <trkpt lat="45.6136" lon="6.66008">
        <ele>2238</ele>
        <time>2016-02-06T11:24:20Z</time>
      </trkpt>
      <trkpt lat="45.61361" lon="6.66009">
        <ele>2238</ele>
        <time>2016-02-06T11:24:22Z</time>
      </trkpt>
      <trkpt lat="45.61363" lon="6.66009">
        <ele>2239</ele>
        <time>2016-02-06T11:24:24Z</time>
      </trkpt>
      <trkpt lat="45.61364" lon="6.6601">
        <ele>2239</ele>
        <time>2016-02-06T11:24:27Z</time>
      </trkpt>
      <trkpt lat="45.61365" lon="6.66011">
        <ele>2239</ele>
        <time>2016-02-06T11:24:30Z</time>
      </trkpt>
      <trkpt lat="45.61367" lon="6.66012">
        <ele>2239</ele>
        <time>2016-02-06T11:24:33Z</time>
      </trkpt>
      <trkpt lat="45.61369" lon="6.66012">
        <ele>2239</ele>
        <time>2016-02-06T11:24:36Z</time>
      </trkpt>
      <trkpt lat="45.6137" lon="6.66012">
        <ele>2240</ele>
        <time>2016-02-06T11:24:39Z</time>
      </trkpt>
      <trkpt lat="45.61371" lon="6.66013">
        <ele>2240</ele>
        <time>2016-02-06T11:24:42Z</time>
      </trkpt>
      <trkpt lat="45.61373" lon="6.66014">
        <ele>2240</ele>
        <time>2016-02-06T11:24:45Z</time>
      </trkpt>
      <trkpt lat="45.61374" lon="6.66014">
        <ele>2240</ele>
        <time>2016-02-06T11:24:48Z</time>
      </trkpt>
      <trkpt lat="45.61375" lon="6.66013">
        <ele>2240</ele>
        <time>2016-02-06T11:24:51Z</time>
      </trkpt>
      <trkpt lat="45.61377" lon="6.66012">
        <ele>2241</ele>
        <time>2016-02-06T11:24:54Z</time>
      </trkpt>
      <trkpt lat="45.61378" lon="6.66012">
        <ele>2241</ele>
        <time>2016-02-06T11:24:58Z</time>
      </trkpt>
      <trkpt lat="45.61379" lon="6.66012">
        <ele>2241</ele>
        <time>2016-02-06T11:25:00Z</time>
      </trkpt>
      <trkpt lat="45.6138" lon="6.66013">
        <ele>2241</ele>
        <time>2016-02-06T11:25:05Z</time>
      </trkpt>
      <trkpt lat="45.61382" lon="6.66013">
        <ele>2241</ele>
        <time>2016-02-06T11:25:10Z</time>
      </trkpt>
      <trkpt lat="45.61383" lon="6.66014">
        <ele>2242</ele>
        <time>2016-02-06T11:25:14Z</time>
      </trkpt>
      <trkpt lat="45.61384" lon="6.66013">
        <ele>2242</ele>
        <time>2016-02-06T11:25:16Z</time>
      </trkpt>
      <trkpt lat="45.61386" lon="6.66013">
        <ele>2242</ele>
        <time>2016-02-06T11:25:18Z</time>
      </trkpt>
      <trkpt lat="45.61387" lon="6.66013">
        <ele>2242</ele>
        <time>2016-02-06T11:25:21Z</time>
      </trkpt>
      <trkpt lat="45.61388" lon="6.66013">
        <ele>2243</ele>
        <time>2016-02-06T11:25:24Z</time>
      </trkpt>
      <trkpt lat="45.6139" lon="6.66013">
        <ele>2243</ele>
        <time>2016-02-06T11:25:28Z</time>
      </trkpt>
      <trkpt lat="45.61391" lon="6.66012">
        <ele>2243</ele>
        <time>2016-02-06T11:25:30Z</time>
      </trkpt>
      <trkpt lat="45.61392" lon="6.66012">
        <ele>2244</ele>
        <time>2016-02-06T11:25:33Z</time>
      </trkpt>
      <trkpt lat="45.61393" lon="6.66011">
        <ele>2244</ele>
        <time>2016-02-06T11:25:35Z</time>
      </trkpt>
      <trkpt lat="45.61395" lon="6.66011">
        <ele>2244</ele>
        <time>2016-02-06T11:25:37Z</time>
      </trkpt>
      <trkpt lat="45.61396" lon="6.6601">
        <ele>2244</ele>
        <time>2016-02-06T11:25:41Z</time>
      </trkpt>
      <trkpt lat="45.61398" lon="6.6601">
        <ele>2245</ele>
        <time>2016-02-06T11:25:45Z</time>
      </trkpt>
      <trkpt lat="45.61399" lon="6.66009">
        <ele>2245</ele>
        <time>2016-02-06T11:25:49Z</time>
      </trkpt>
      <trkpt lat="45.614" lon="6.6601">
        <ele>2245</ele>
        <time>2016-02-06T11:25:54Z</time>
      </trkpt>
      <trkpt lat="45.61401" lon="6.66011">
        <ele>2245</ele>
        <time>2016-02-06T11:26:05Z</time>
      </trkpt>
      <trkpt lat="45.61403" lon="6.66011">
        <ele>2246</ele>
        <time>2016-02-06T11:26:07Z</time>
      </trkpt>
      <trkpt lat="45.61404" lon="6.66011">
        <ele>2246</ele>
        <time>2016-02-06T11:26:09Z</time>
      </trkpt>
      <trkpt lat="45.61406" lon="6.66011">
        <ele>2246</ele>
        <time>2016-02-06T11:26:12Z</time>
      </trkpt>
      <trkpt lat="45.61407" lon="6.66012">
        <ele>2247</ele>
        <time>2016-02-06T11:26:14Z</time>
      </trkpt>
      <trkpt lat="45.61408" lon="6.66013">
        <ele>2246</ele>
        <time>2016-02-06T11:26:19Z</time>
      </trkpt>
      <trkpt lat="45.6141" lon="6.66014">
        <ele>2246</ele>
        <time>2016-02-06T11:26:22Z</time>
      </trkpt>
      <trkpt lat="45.61411" lon="6.66015">
        <ele>2246</ele>
        <time>2016-02-06T11:26:26Z</time>
      </trkpt>
      <trkpt lat="45.61412" lon="6.66015">
        <ele>2246</ele>
        <time>2016-02-06T11:26:30Z</time>
      </trkpt>
      <trkpt lat="45.61413" lon="6.66017">
        <ele>2246</ele>
        <time>2016-02-06T11:26:34Z</time>
      </trkpt>
      <trkpt lat="45.61414" lon="6.66018">
        <ele>2246</ele>
        <time>2016-02-06T11:26:38Z</time>
      </trkpt>
      <trkpt lat="45.61415" lon="6.66019">
        <ele>2246</ele>
        <time>2016-02-06T11:26:41Z</time>
      </trkpt>
      <trkpt lat="45.61417" lon="6.66019">
        <ele>2246</ele>
        <time>2016-02-06T11:26:44Z</time>
      </trkpt>
      <trkpt lat="45.61418" lon="6.66021">
        <ele>2257</ele>
        <time>2016-02-06T11:26:47Z</time>
      </trkpt>
      <trkpt lat="45.6142" lon="6.66022">
        <ele>2257</ele>
        <time>2016-02-06T11:26:50Z</time>
      </trkpt>
      <trkpt lat="45.61421" lon="6.66023">
        <ele>2258</ele>
        <time>2016-02-06T11:26:55Z</time>
      </trkpt>
      <trkpt lat="45.61422" lon="6.66024">
        <ele>2258</ele>
        <time>2016-02-06T11:26:57Z</time>
      </trkpt>
      <trkpt lat="45.61424" lon="6.66025">
        <ele>2258</ele>
        <time>2016-02-06T11:27:00Z</time>
      </trkpt>
      <trkpt lat="45.61425" lon="6.66027">
        <ele>2258</ele>
        <time>2016-02-06T11:27:03Z</time>
      </trkpt>
      <trkpt lat="45.61426" lon="6.66029">
        <ele>2259</ele>
        <time>2016-02-06T11:27:06Z</time>
      </trkpt>
      <trkpt lat="45.61428" lon="6.66029">
        <ele>2259</ele>
        <time>2016-02-06T11:27:08Z</time>
      </trkpt>
      <trkpt lat="45.61429" lon="6.6603">
        <ele>2259</ele>
        <time>2016-02-06T11:27:11Z</time>
      </trkpt>
      <trkpt lat="45.6143" lon="6.66032">
        <ele>2259</ele>
        <time>2016-02-06T11:27:14Z</time>
      </trkpt>
      <trkpt lat="45.61431" lon="6.66033">
        <ele>2259</ele>
        <time>2016-02-06T11:27:18Z</time>
      </trkpt>
      <trkpt lat="45.61433" lon="6.66033">
        <ele>2259</ele>
        <time>2016-02-06T11:27:22Z</time>
      </trkpt>
      <trkpt lat="45.61434" lon="6.66034">
        <ele>2260</ele>
        <time>2016-02-06T11:27:25Z</time>
      </trkpt>
      <trkpt lat="45.61435" lon="6.66036">
        <ele>2260</ele>
        <time>2016-02-06T11:27:28Z</time>
      </trkpt>
      <trkpt lat="45.61435" lon="6.66038">
        <ele>2260</ele>
        <time>2016-02-06T11:27:32Z</time>
      </trkpt>
      <trkpt lat="45.61435" lon="6.66039">
        <ele>2260</ele>
        <time>2016-02-06T11:27:35Z</time>
      </trkpt>
      <trkpt lat="45.61435" lon="6.66041">
        <ele>2260</ele>
        <time>2016-02-06T11:27:39Z</time>
      </trkpt>
      <trkpt lat="45.61436" lon="6.66043">
        <ele>2260</ele>
        <time>2016-02-06T11:27:45Z</time>
      </trkpt>
      <trkpt lat="45.61436" lon="6.66044">
        <ele>2260</ele>
        <time>2016-02-06T11:27:49Z</time>
      </trkpt>
      <trkpt lat="45.61438" lon="6.66045">
        <ele>2260</ele>
        <time>2016-02-06T11:27:52Z</time>
      </trkpt>
      <trkpt lat="45.61439" lon="6.66046">
        <ele>2260</ele>
        <time>2016-02-06T11:27:58Z</time>
      </trkpt>
      <trkpt lat="45.6144" lon="6.66046">
        <ele>2260</ele>
        <time>2016-02-06T11:28:02Z</time>
      </trkpt>
      <trkpt lat="45.61439" lon="6.66044">
        <ele>2260</ele>
        <time>2016-02-06T11:28:13Z</time>
      </trkpt>
      <trkpt lat="45.61439" lon="6.66042">
        <ele>2260</ele>
        <time>2016-02-06T11:28:17Z</time>
      </trkpt>
      <trkpt lat="45.6144" lon="6.66041">
        <ele>2260</ele>
        <time>2016-02-06T11:28:20Z</time>
      </trkpt>
      <trkpt lat="45.6144" lon="6.66039">
        <ele>2260</ele>
        <time>2016-02-06T11:28:22Z</time>
      </trkpt>
      <trkpt lat="45.61441" lon="6.66038">
        <ele>2260</ele>
        <time>2016-02-06T11:28:24Z</time>
      </trkpt>
      <trkpt lat="45.61442" lon="6.66037">
        <ele>2261</ele>
        <time>2016-02-06T11:28:26Z</time>
      </trkpt>
      <trkpt lat="45.61443" lon="6.66035">
        <ele>2261</ele>
        <time>2016-02-06T11:28:28Z</time>
      </trkpt>
      <trkpt lat="45.61443" lon="6.66034">
        <ele>2261</ele>
        <time>2016-02-06T11:28:31Z</time>
      </trkpt>
      <trkpt lat="45.61443" lon="6.66032">
        <ele>2261</ele>
        <time>2016-02-06T11:28:33Z</time>
      </trkpt>
      <trkpt lat="45.61444" lon="6.6603">
        <ele>2261</ele>
        <time>2016-02-06T11:28:37Z</time>
      </trkpt>
      <trkpt lat="45.61445" lon="6.66029">
        <ele>2261</ele>
        <time>2016-02-06T11:28:40Z</time>
      </trkpt>
      <trkpt lat="45.61446" lon="6.66028">
        <ele>2261</ele>
        <time>2016-02-06T11:28:50Z</time>
      </trkpt>
      <trkpt lat="45.61446" lon="6.66026">
        <ele>2261</ele>
        <time>2016-02-06T11:28:54Z</time>
      </trkpt>
      <trkpt lat="45.61446" lon="6.66028">
        <ele>2261</ele>
        <time>2016-02-06T11:29:00Z</time>
      </trkpt>
      <trkpt lat="45.61447" lon="6.66027">
        <ele>2261</ele>
        <time>2016-02-06T11:29:07Z</time>
      </trkpt>
      <trkpt lat="45.61448" lon="6.66029">
        <ele>2261</ele>
        <time>2016-02-06T11:29:12Z</time>
      </trkpt>
      <trkpt lat="45.61448" lon="6.66031">
        <ele>2261</ele>
        <time>2016-02-06T11:29:15Z</time>
      </trkpt>
      <trkpt lat="45.61448" lon="6.66033">
        <ele>2261</ele>
        <time>2016-02-06T11:29:19Z</time>
      </trkpt>
      <trkpt lat="45.61448" lon="6.66034">
        <ele>2261</ele>
        <time>2016-02-06T11:29:22Z</time>
      </trkpt>
      <trkpt lat="45.61449" lon="6.66036">
        <ele>2261</ele>
        <time>2016-02-06T11:29:25Z</time>
      </trkpt>
      <trkpt lat="45.61449" lon="6.66038">
        <ele>2261</ele>
        <time>2016-02-06T11:29:28Z</time>
      </trkpt>
      <trkpt lat="45.61449" lon="6.66039">
        <ele>2262</ele>
        <time>2016-02-06T11:29:31Z</time>
      </trkpt>
      <trkpt lat="45.6145" lon="6.66041">
        <ele>2262</ele>
        <time>2016-02-06T11:29:34Z</time>
      </trkpt>
      <trkpt lat="45.6145" lon="6.66043">
        <ele>2262</ele>
        <time>2016-02-06T11:29:37Z</time>
      </trkpt>
      <trkpt lat="45.61451" lon="6.66045">
        <ele>2262</ele>
        <time>2016-02-06T11:29:42Z</time>
      </trkpt>
      <trkpt lat="45.61452" lon="6.66046">
        <ele>2262</ele>
        <time>2016-02-06T11:29:46Z</time>
      </trkpt>
      <trkpt lat="45.61454" lon="6.66048">
        <ele>2262</ele>
        <time>2016-02-06T11:29:49Z</time>
      </trkpt>
      <trkpt lat="45.61455" lon="6.66049">
        <ele>2262</ele>
        <time>2016-02-06T11:29:52Z</time>
      </trkpt>
      <trkpt lat="45.61454" lon="6.6605">
        <ele>2262</ele>
        <time>2016-02-06T11:30:00Z</time>
      </trkpt>
      <trkpt lat="45.61454" lon="6.66052">
        <ele>2262</ele>
        <time>2016-02-06T11:30:03Z</time>
      </trkpt>
      <trkpt lat="45.61455" lon="6.66051">
        <ele>2262</ele>
        <time>2016-02-06T11:30:07Z</time>
      </trkpt>
      <trkpt lat="45.61454" lon="6.66049">
        <ele>2262</ele>
        <time>2016-02-06T11:30:19Z</time>
      </trkpt>
      <trkpt lat="45.61455" lon="6.66048">
        <ele>2262</ele>
        <time>2016-02-06T11:30:23Z</time>
      </trkpt>
      <trkpt lat="45.61456" lon="6.66045">
        <ele>2262</ele>
        <time>2016-02-06T11:30:27Z</time>
      </trkpt>
      <trkpt lat="45.61456" lon="6.66043">
        <ele>2262</ele>
        <time>2016-02-06T11:30:29Z</time>
      </trkpt>
      <trkpt lat="45.61456" lon="6.66042">
        <ele>2262</ele>
        <time>2016-02-06T11:30:31Z</time>
      </trkpt>
      <trkpt lat="45.61457" lon="6.6604">
        <ele>2263</ele>
        <time>2016-02-06T11:30:34Z</time>
      </trkpt>
      <trkpt lat="45.61459" lon="6.66039">
        <ele>2263</ele>
        <time>2016-02-06T11:30:36Z</time>
      </trkpt>
      <trkpt lat="45.61459" lon="6.66037">
        <ele>2263</ele>
        <time>2016-02-06T11:30:38Z</time>
      </trkpt>
      <trkpt lat="45.61459" lon="6.66035">
        <ele>2263</ele>
        <time>2016-02-06T11:30:42Z</time>
      </trkpt>
      <trkpt lat="45.61459" lon="6.66034">
        <ele>2263</ele>
        <time>2016-02-06T11:30:44Z</time>
      </trkpt>
      <trkpt lat="45.6146" lon="6.66032">
        <ele>2263</ele>
        <time>2016-02-06T11:30:47Z</time>
      </trkpt>
      <trkpt lat="45.61461" lon="6.66032">
        <ele>2263</ele>
        <time>2016-02-06T11:30:52Z</time>
      </trkpt>
      <trkpt lat="45.61462" lon="6.66031">
        <ele>2263</ele>
        <time>2016-02-06T11:30:57Z</time>
      </trkpt>
      <trkpt lat="45.61463" lon="6.66029">
        <ele>2263</ele>
        <time>2016-02-06T11:30:59Z</time>
      </trkpt>
      <trkpt lat="45.61464" lon="6.66027">
        <ele>2264</ele>
        <time>2016-02-06T11:31:00Z</time>
      </trkpt>
      <trkpt lat="45.61464" lon="6.66025">
        <ele>2264</ele>
        <time>2016-02-06T11:31:01Z</time>
      </trkpt>
      <trkpt lat="45.61464" lon="6.66024">
        <ele>2264</ele>
        <time>2016-02-06T11:31:02Z</time>
      </trkpt>
      <trkpt lat="45.61465" lon="6.66022">
        <ele>2264</ele>
        <time>2016-02-06T11:31:05Z</time>
      </trkpt>
      <trkpt lat="45.61466" lon="6.66023">
        <ele>2264</ele>
        <time>2016-02-06T11:31:12Z</time>
      </trkpt>
      <trkpt lat="45.61467" lon="6.66023">
        <ele>2264</ele>
        <time>2016-02-06T11:31:15Z</time>
      </trkpt>
      <trkpt lat="45.61467" lon="6.66025">
        <ele>2264</ele>
        <time>2016-02-06T11:31:19Z</time>
      </trkpt>
      <trkpt lat="45.61467" lon="6.66027">
        <ele>2264</ele>
        <time>2016-02-06T11:31:30Z</time>
      </trkpt>
      <trkpt lat="45.61467" lon="6.66029">
        <ele>2264</ele>
        <time>2016-02-06T11:31:33Z</time>
      </trkpt>
      <trkpt lat="45.61467" lon="6.6603">
        <ele>2264</ele>
        <time>2016-02-06T11:31:35Z</time>
      </trkpt>
      <trkpt lat="45.61466" lon="6.66032">
        <ele>2264</ele>
        <time>2016-02-06T11:31:38Z</time>
      </trkpt>
      <trkpt lat="45.61464" lon="6.66034">
        <ele>2264</ele>
        <time>2016-02-06T11:31:40Z</time>
      </trkpt>
      <trkpt lat="45.61465" lon="6.66037">
        <ele>2264</ele>
        <time>2016-02-06T11:31:45Z</time>
      </trkpt>
      <trkpt lat="45.61466" lon="6.66039">
        <ele>2264</ele>
        <time>2016-02-06T11:31:48Z</time>
      </trkpt>
      <trkpt lat="45.61467" lon="6.6604">
        <ele>2264</ele>
        <time>2016-02-06T11:31:51Z</time>
      </trkpt>
      <trkpt lat="45.61468" lon="6.66042">
        <ele>2264</ele>
        <time>2016-02-06T11:31:54Z</time>
      </trkpt>
      <trkpt lat="45.6147" lon="6.66043">
        <ele>2264</ele>
        <time>2016-02-06T11:31:58Z</time>
      </trkpt>
      <trkpt lat="45.61471" lon="6.66044">
        <ele>2265</ele>
        <time>2016-02-06T11:32:00Z</time>
      </trkpt>
      <trkpt lat="45.61472" lon="6.66045">
        <ele>2265</ele>
        <time>2016-02-06T11:32:04Z</time>
      </trkpt>
      <trkpt lat="45.61474" lon="6.66046">
        <ele>2265</ele>
        <time>2016-02-06T11:32:07Z</time>
      </trkpt>
      <trkpt lat="45.61475" lon="6.66047">
        <ele>2265</ele>
        <time>2016-02-06T11:32:12Z</time>
      </trkpt>
      <trkpt lat="45.61477" lon="6.66047">
        <ele>2265</ele>
        <time>2016-02-06T11:32:16Z</time>
      </trkpt>
      <trkpt lat="45.61478" lon="6.66048">
        <ele>2266</ele>
        <time>2016-02-06T11:32:19Z</time>
      </trkpt>
      <trkpt lat="45.6148" lon="6.66047">
        <ele>2266</ele>
        <time>2016-02-06T11:32:22Z</time>
      </trkpt>
      <trkpt lat="45.61481" lon="6.66047">
        <ele>2266</ele>
        <time>2016-02-06T11:32:25Z</time>
      </trkpt>
      <trkpt lat="45.61483" lon="6.66046">
        <ele>2266</ele>
        <time>2016-02-06T11:32:28Z</time>
      </trkpt>
      <trkpt lat="45.61485" lon="6.66046">
        <ele>2266</ele>
        <time>2016-02-06T11:32:31Z</time>
      </trkpt>
      <trkpt lat="45.61486" lon="6.66045">
        <ele>2266</ele>
        <time>2016-02-06T11:32:34Z</time>
      </trkpt>
      <trkpt lat="45.61488" lon="6.66044">
        <ele>2266</ele>
        <time>2016-02-06T11:32:38Z</time>
      </trkpt>
      <trkpt lat="45.61489" lon="6.66043">
        <ele>2267</ele>
        <time>2016-02-06T11:32:42Z</time>
      </trkpt>
      <trkpt lat="45.6149" lon="6.66042">
        <ele>2267</ele>
        <time>2016-02-06T11:32:45Z</time>
      </trkpt>
      <trkpt lat="45.61492" lon="6.66042">
        <ele>2267</ele>
        <time>2016-02-06T11:32:48Z</time>
      </trkpt>
      <trkpt lat="45.61493" lon="6.66042">
        <ele>2267</ele>
        <time>2016-02-06T11:32:51Z</time>
      </trkpt>
      <trkpt lat="45.61494" lon="6.66043">
        <ele>2267</ele>
        <time>2016-02-06T11:33:02Z</time>
      </trkpt>
      <trkpt lat="45.61495" lon="6.66043">
        <ele>2267</ele>
        <time>2016-02-06T11:33:06Z</time>
      </trkpt>
      <trkpt lat="45.61496" lon="6.66042">
        <ele>2267</ele>
        <time>2016-02-06T11:33:22Z</time>
      </trkpt>
      <trkpt lat="45.61496" lon="6.66044">
        <ele>2267</ele>
        <time>2016-02-06T11:33:40Z</time>
      </trkpt>
      <trkpt lat="45.61495" lon="6.66046">
        <ele>2267</ele>
        <time>2016-02-06T11:33:44Z</time>
      </trkpt>
      <trkpt lat="45.61496" lon="6.66046">
        <ele>2267</ele>
        <time>2016-02-06T11:33:49Z</time>
      </trkpt>
      <trkpt lat="45.61497" lon="6.66048">
        <ele>2267</ele>
        <time>2016-02-06T11:33:55Z</time>
      </trkpt>
      <trkpt lat="45.61496" lon="6.66046">
        <ele>2267</ele>
        <time>2016-02-06T11:34:20Z</time>
      </trkpt>
      <trkpt lat="45.61497" lon="6.66045">
        <ele>2267</ele>
        <time>2016-02-06T11:34:27Z</time>
      </trkpt>
      <trkpt lat="45.61499" lon="6.66043">
        <ele>2267</ele>
        <time>2016-02-06T11:34:33Z</time>
      </trkpt>
      <trkpt lat="45.61499" lon="6.66041">
        <ele>2267</ele>
        <time>2016-02-06T11:34:43Z</time>
      </trkpt>
      <trkpt lat="45.61501" lon="6.6604">
        <ele>2284</ele>
        <time>2016-02-06T11:34:48Z</time>
      </trkpt>
      <trkpt lat="45.61501" lon="6.66041">
        <ele>2284</ele>
        <time>2016-02-06T11:34:54Z</time>
      </trkpt>
      <trkpt lat="45.61502" lon="6.66042">
        <ele>2284</ele>
        <time>2016-02-06T11:35:22Z</time>
      </trkpt>
      <trkpt lat="45.61502" lon="6.6604">
        <ele>2284</ele>
        <time>2016-02-06T11:35:28Z</time>
      </trkpt>
      <trkpt lat="45.61504" lon="6.66041">
        <ele>2284</ele>
        <time>2016-02-06T11:35:44Z</time>
      </trkpt>
      <trkpt lat="45.61505" lon="6.66041">
        <ele>2285</ele>
        <time>2016-02-06T11:35:47Z</time>
      </trkpt>
      <trkpt lat="45.61506" lon="6.6604">
        <ele>2285</ele>
        <time>2016-02-06T11:35:49Z</time>
      </trkpt>
      <trkpt lat="45.61508" lon="6.66039">
        <ele>2285</ele>
        <time>2016-02-06T11:35:51Z</time>
      </trkpt>
      <trkpt lat="45.6151" lon="6.66039">
        <ele>2285</ele>
        <time>2016-02-06T11:35:53Z</time>
      </trkpt>
      <trkpt lat="45.6151" lon="6.66041">
        <ele>2285</ele>
        <time>2016-02-06T11:35:55Z</time>
      </trkpt>
      <trkpt lat="45.61512" lon="6.66041">
        <ele>2285</ele>
        <time>2016-02-06T11:35:58Z</time>
      </trkpt>
      <trkpt lat="45.61511" lon="6.66042">
        <ele>2285</ele>
        <time>2016-02-06T11:36:10Z</time>
      </trkpt>
      <trkpt lat="45.6151" lon="6.66044">
        <ele>2285</ele>
        <time>2016-02-06T11:36:15Z</time>
      </trkpt>
      <trkpt lat="45.61511" lon="6.66045">
        <ele>2285</ele>
        <time>2016-02-06T11:36:26Z</time>
      </trkpt>
      <trkpt lat="45.61512" lon="6.66044">
        <ele>2285</ele>
        <time>2016-02-06T11:36:36Z</time>
      </trkpt>
      <trkpt lat="45.61514" lon="6.66045">
        <ele>2286</ele>
        <time>2016-02-06T11:36:39Z</time>
      </trkpt>
      <trkpt lat="45.61515" lon="6.66045">
        <ele>2286</ele>
        <time>2016-02-06T11:36:42Z</time>
      </trkpt>
      <trkpt lat="45.61516" lon="6.66044">
        <ele>2286</ele>
        <time>2016-02-06T11:36:44Z</time>
      </trkpt>
      <trkpt lat="45.61517" lon="6.66044">
        <ele>2286</ele>
        <time>2016-02-06T11:36:46Z</time>
      </trkpt>
      <trkpt lat="45.61519" lon="6.66043">
        <ele>2286</ele>
        <time>2016-02-06T11:36:48Z</time>
      </trkpt>
      <trkpt lat="45.61521" lon="6.66042">
        <ele>2287</ele>
        <time>2016-02-06T11:36:50Z</time>
      </trkpt>
      <trkpt lat="45.61522" lon="6.66041">
        <ele>2287</ele>
        <time>2016-02-06T11:36:52Z</time>
      </trkpt>
      <trkpt lat="45.61524" lon="6.6604">
        <ele>2287</ele>
        <time>2016-02-06T11:36:54Z</time>
      </trkpt>
      <trkpt lat="45.61525" lon="6.66041">
        <ele>2287</ele>
        <time>2016-02-06T11:36:56Z</time>
      </trkpt>
      <trkpt lat="45.61526" lon="6.66042">
        <ele>2287</ele>
        <time>2016-02-06T11:36:58Z</time>
      </trkpt>
      <trkpt lat="45.61528" lon="6.66043">
        <ele>2288</ele>
        <time>2016-02-06T11:37:02Z</time>
      </trkpt>
      <trkpt lat="45.61529" lon="6.66043">
        <ele>2288</ele>
        <time>2016-02-06T11:37:05Z</time>
      </trkpt>
      <trkpt lat="45.61531" lon="6.66044">
        <ele>2288</ele>
        <time>2016-02-06T11:37:10Z</time>
      </trkpt>
      <trkpt lat="45.61532" lon="6.66045">
        <ele>2289</ele>
        <time>2016-02-06T11:37:12Z</time>
      </trkpt>
      <trkpt lat="45.61534" lon="6.66046">
        <ele>2289</ele>
        <time>2016-02-06T11:37:14Z</time>
      </trkpt>
      <trkpt lat="45.61536" lon="6.66046">
        <ele>2289</ele>
        <time>2016-02-06T11:37:16Z</time>
      </trkpt>
      <trkpt lat="45.61537" lon="6.66047">
        <ele>2289</ele>
        <time>2016-02-06T11:37:18Z</time>
      </trkpt>
      <trkpt lat="45.61539" lon="6.66049">
        <ele>2290</ele>
        <time>2016-02-06T11:37:21Z</time>
      </trkpt>
      <trkpt lat="45.61541" lon="6.66049">
        <ele>2290</ele>
        <time>2016-02-06T11:37:24Z</time>
      </trkpt>
      <trkpt lat="45.61542" lon="6.66049">
        <ele>2290</ele>
        <time>2016-02-06T11:37:26Z</time>
      </trkpt>
      <trkpt lat="45.61543" lon="6.66049">
        <ele>2291</ele>
        <time>2016-02-06T11:37:28Z</time>
      </trkpt>
      <trkpt lat="45.61544" lon="6.66049">
        <ele>2291</ele>
        <time>2016-02-06T11:37:30Z</time>
      </trkpt>
      <trkpt lat="45.61546" lon="6.66049">
        <ele>2291</ele>
        <time>2016-02-06T11:37:32Z</time>
      </trkpt>
      <trkpt lat="45.61547" lon="6.66049">
        <ele>2291</ele>
        <time>2016-02-06T11:37:36Z</time>
      </trkpt>
      <trkpt lat="45.61549" lon="6.66049">
        <ele>2292</ele>
        <time>2016-02-06T11:37:39Z</time>
      </trkpt>
      <trkpt lat="45.6155" lon="6.6605">
        <ele>2292</ele>
        <time>2016-02-06T11:37:42Z</time>
      </trkpt>
      <trkpt lat="45.61551" lon="6.66048">
        <ele>2292</ele>
        <time>2016-02-06T11:37:46Z</time>
      </trkpt>
      <trkpt lat="45.61552" lon="6.66047">
        <ele>2292</ele>
        <time>2016-02-06T11:37:50Z</time>
      </trkpt>
      <trkpt lat="45.61554" lon="6.66046">
        <ele>2293</ele>
        <time>2016-02-06T11:37:53Z</time>
      </trkpt>
      <trkpt lat="45.61555" lon="6.66046">
        <ele>2293</ele>
        <time>2016-02-06T11:37:56Z</time>
      </trkpt>
      <trkpt lat="45.61556" lon="6.66047">
        <ele>2293</ele>
        <time>2016-02-06T11:38:00Z</time>
      </trkpt>
      <trkpt lat="45.61557" lon="6.66048">
        <ele>2293</ele>
        <time>2016-02-06T11:38:03Z</time>
      </trkpt>
      <trkpt lat="45.61559" lon="6.66049">
        <ele>2293</ele>
        <time>2016-02-06T11:38:05Z</time>
      </trkpt>
      <trkpt lat="45.6156" lon="6.66049">
        <ele>2294</ele>
        <time>2016-02-06T11:38:07Z</time>
      </trkpt>
      <trkpt lat="45.61561" lon="6.66051">
        <ele>2294</ele>
        <time>2016-02-06T11:38:11Z</time>
      </trkpt>
      <trkpt lat="45.61562" lon="6.66051">
        <ele>2294</ele>
        <time>2016-02-06T11:38:13Z</time>
      </trkpt>
      <trkpt lat="45.61563" lon="6.66051">
        <ele>2294</ele>
        <time>2016-02-06T11:38:21Z</time>
      </trkpt>
      <trkpt lat="45.61564" lon="6.66049">
        <ele>2294</ele>
        <time>2016-02-06T11:38:25Z</time>
      </trkpt>
      <trkpt lat="45.61564" lon="6.66047">
        <ele>2294</ele>
        <time>2016-02-06T11:38:28Z</time>
      </trkpt>
      <trkpt lat="45.61566" lon="6.66046">
        <ele>2294</ele>
        <time>2016-02-06T11:38:31Z</time>
      </trkpt>
      <trkpt lat="45.61567" lon="6.66045">
        <ele>2295</ele>
        <time>2016-02-06T11:38:33Z</time>
      </trkpt>
      <trkpt lat="45.61569" lon="6.66044">
        <ele>2295</ele>
        <time>2016-02-06T11:38:36Z</time>
      </trkpt>
      <trkpt lat="45.6157" lon="6.66043">
        <ele>2295</ele>
        <time>2016-02-06T11:38:39Z</time>
      </trkpt>
      <trkpt lat="45.6157" lon="6.66041">
        <ele>2295</ele>
        <time>2016-02-06T11:38:42Z</time>
      </trkpt>
      <trkpt lat="45.61571" lon="6.6604">
        <ele>2295</ele>
        <time>2016-02-06T11:38:45Z</time>
      </trkpt>
      <trkpt lat="45.61571" lon="6.66038">
        <ele>2295</ele>
        <time>2016-02-06T11:38:48Z</time>
      </trkpt>
      <trkpt lat="45.61572" lon="6.66037">
        <ele>2295</ele>
        <time>2016-02-06T11:38:51Z</time>
      </trkpt>
      <trkpt lat="45.61575" lon="6.66036">
        <ele>2296</ele>
        <time>2016-02-06T11:38:53Z</time>
      </trkpt>
      <trkpt lat="45.61576" lon="6.66037">
        <ele>2296</ele>
        <time>2016-02-06T11:38:56Z</time>
      </trkpt>
      <trkpt lat="45.61575" lon="6.66039">
        <ele>2296</ele>
        <time>2016-02-06T11:39:04Z</time>
      </trkpt>
      <trkpt lat="45.61577" lon="6.6604">
        <ele>2296</ele>
        <time>2016-02-06T11:39:10Z</time>
      </trkpt>
      <trkpt lat="45.61578" lon="6.66041">
        <ele>2296</ele>
        <time>2016-02-06T11:39:13Z</time>
      </trkpt>
      <trkpt lat="45.61577" lon="6.66042">
        <ele>2296</ele>
        <time>2016-02-06T11:39:15Z</time>
      </trkpt>
      <trkpt lat="45.61578" lon="6.66044">
        <ele>2296</ele>
        <time>2016-02-06T11:39:21Z</time>
      </trkpt>
      <trkpt lat="45.6158" lon="6.66045">
        <ele>2296</ele>
        <time>2016-02-06T11:39:24Z</time>
      </trkpt>
      <trkpt lat="45.61578" lon="6.66046">
        <ele>2296</ele>
        <time>2016-02-06T11:39:27Z</time>
      </trkpt>
      <trkpt lat="45.61579" lon="6.66047">
        <ele>2296</ele>
        <time>2016-02-06T11:39:32Z</time>
      </trkpt>
      <trkpt lat="45.61581" lon="6.66048">
        <ele>2296</ele>
        <time>2016-02-06T11:39:33Z</time>
      </trkpt>
      <trkpt lat="45.61582" lon="6.66048">
        <ele>2296</ele>
        <time>2016-02-06T11:39:34Z</time>
      </trkpt>
      <trkpt lat="45.61583" lon="6.6605">
        <ele>2297</ele>
        <time>2016-02-06T11:39:45Z</time>
      </trkpt>
      <trkpt lat="45.61584" lon="6.6605">
        <ele>2312</ele>
        <time>2016-02-06T11:39:46Z</time>
      </trkpt>
      <trkpt lat="45.61586" lon="6.66051">
        <ele>2312</ele>
        <time>2016-02-06T11:39:48Z</time>
      </trkpt>
      <trkpt lat="45.61587" lon="6.66053">
        <ele>2312</ele>
        <time>2016-02-06T11:39:51Z</time>
      </trkpt>
      <trkpt lat="45.61588" lon="6.66054">
        <ele>2312</ele>
        <time>2016-02-06T11:39:55Z</time>
      </trkpt>
      <trkpt lat="45.61587" lon="6.66056">
        <ele>2312</ele>
        <time>2016-02-06T11:40:03Z</time>
      </trkpt>
      <trkpt lat="45.61587" lon="6.66058">
        <ele>2312</ele>
        <time>2016-02-06T11:40:07Z</time>
      </trkpt>
      <trkpt lat="45.61586" lon="6.6606">
        <ele>2311</ele>
        <time>2016-02-06T11:40:09Z</time>
      </trkpt>
      <trkpt lat="45.61588" lon="6.6606">
        <ele>2311</ele>
        <time>2016-02-06T11:40:13Z</time>
      </trkpt>
      <trkpt lat="45.61589" lon="6.66061">
        <ele>2311</ele>
        <time>2016-02-06T11:40:16Z</time>
      </trkpt>
      <trkpt lat="45.61591" lon="6.66062">
        <ele>2311</ele>
        <time>2016-02-06T11:40:21Z</time>
      </trkpt>
      <trkpt lat="45.61591" lon="6.66064">
        <ele>2311</ele>
        <time>2016-02-06T11:40:24Z</time>
      </trkpt>
      <trkpt lat="45.61592" lon="6.66066">
        <ele>2311</ele>
        <time>2016-02-06T11:40:40Z</time>
      </trkpt>
      <trkpt lat="45.61594" lon="6.66067">
        <ele>2311</ele>
        <time>2016-02-06T11:40:44Z</time>
      </trkpt>
      <trkpt lat="45.61596" lon="6.66068">
        <ele>2311</ele>
        <time>2016-02-06T11:40:47Z</time>
      </trkpt>
      <trkpt lat="45.61597" lon="6.66069">
        <ele>2311</ele>
        <time>2016-02-06T11:40:48Z</time>
      </trkpt>
      <trkpt lat="45.61598" lon="6.6607">
        <ele>2312</ele>
        <time>2016-02-06T11:40:50Z</time>
      </trkpt>
      <trkpt lat="45.61597" lon="6.66069">
        <ele>2311</ele>
        <time>2016-02-06T11:40:58Z</time>
      </trkpt>
      <trkpt lat="45.61596" lon="6.66069">
        <ele>2311</ele>
        <time>2016-02-06T11:41:02Z</time>
      </trkpt>
      <trkpt lat="45.61595" lon="6.66067">
        <ele>2311</ele>
        <time>2016-02-06T11:41:07Z</time>
      </trkpt>
      <trkpt lat="45.61595" lon="6.66065">
        <ele>2312</ele>
        <time>2016-02-06T11:41:09Z</time>
      </trkpt>
      <trkpt lat="45.61595" lon="6.66063">
        <ele>2312</ele>
        <time>2016-02-06T11:41:13Z</time>
      </trkpt>
      <trkpt lat="45.61594" lon="6.66061">
        <ele>2312</ele>
        <time>2016-02-06T11:41:16Z</time>
      </trkpt>
      <trkpt lat="45.61594" lon="6.66062">
        <ele>2312</ele>
        <time>2016-02-06T11:41:20Z</time>
      </trkpt>
      <trkpt lat="45.61594" lon="6.66064">
        <ele>2312</ele>
        <time>2016-02-06T11:41:26Z</time>
      </trkpt>
      <trkpt lat="45.61594" lon="6.66066">
        <ele>2311</ele>
        <time>2016-02-06T11:41:29Z</time>
      </trkpt>
      <trkpt lat="45.61592" lon="6.66066">
        <ele>2311</ele>
        <time>2016-02-06T11:41:35Z</time>
      </trkpt>
      <trkpt lat="45.61594" lon="6.66064">
        <ele>2311</ele>
        <time>2016-02-06T11:41:39Z</time>
      </trkpt>
      <trkpt lat="45.61594" lon="6.66062">
        <ele>2312</ele>
        <time>2016-02-06T11:41:41Z</time>
      </trkpt>
      <trkpt lat="45.61595" lon="6.66059">
        <ele>2312</ele>
        <time>2016-02-06T11:41:43Z</time>
      </trkpt>
      <trkpt lat="45.61596" lon="6.66057">
        <ele>2312</ele>
        <time>2016-02-06T11:41:45Z</time>
      </trkpt>
      <trkpt lat="45.61597" lon="6.66057">
        <ele>2312</ele>
        <time>2016-02-06T11:41:47Z</time>
      </trkpt>
      <trkpt lat="45.61598" lon="6.66055">
        <ele>2313</ele>
        <time>2016-02-06T11:41:49Z</time>
      </trkpt>
      <trkpt lat="45.61598" lon="6.66053">
        <ele>2313</ele>
        <time>2016-02-06T11:41:51Z</time>
      </trkpt>
      <trkpt lat="45.61599" lon="6.66051">
        <ele>2313</ele>
        <time>2016-02-06T11:41:53Z</time>
      </trkpt>
      <trkpt lat="45.616" lon="6.66052">
        <ele>2313</ele>
        <time>2016-02-06T11:41:57Z</time>
      </trkpt>
      <trkpt lat="45.616" lon="6.66054">
        <ele>2313</ele>
        <time>2016-02-06T11:41:59Z</time>
      </trkpt>
      <trkpt lat="45.61602" lon="6.66055">
        <ele>2313</ele>
        <time>2016-02-06T11:42:03Z</time>
      </trkpt>
      <trkpt lat="45.61602" lon="6.66053">
        <ele>2313</ele>
        <time>2016-02-06T11:42:12Z</time>
      </trkpt>
      <trkpt lat="45.61601" lon="6.66052">
        <ele>2313</ele>
        <time>2016-02-06T11:42:16Z</time>
      </trkpt>
      <trkpt lat="45.616" lon="6.6605">
        <ele>2313</ele>
        <time>2016-02-06T11:42:19Z</time>
      </trkpt>
      <trkpt lat="45.61601" lon="6.66049">
        <ele>2313</ele>
        <time>2016-02-06T11:42:35Z</time>
      </trkpt>
      <trkpt lat="45.61602" lon="6.66048">
        <ele>2313</ele>
        <time>2016-02-06T11:42:43Z</time>
      </trkpt>
      <trkpt lat="45.61603" lon="6.66047">
        <ele>2313</ele>
        <time>2016-02-06T11:42:48Z</time>
      </trkpt>
      <trkpt lat="45.61605" lon="6.66048">
        <ele>2313</ele>
        <time>2016-02-06T11:42:52Z</time>
      </trkpt>
      <trkpt lat="45.61605" lon="6.6605">
        <ele>2314</ele>
        <time>2016-02-06T11:42:56Z</time>
      </trkpt>
      <trkpt lat="45.61607" lon="6.66051">
        <ele>2314</ele>
        <time>2016-02-06T11:43:01Z</time>
      </trkpt>
      <trkpt lat="45.61607" lon="6.66053">
        <ele>2314</ele>
        <time>2016-02-06T11:43:05Z</time>
      </trkpt>
      <trkpt lat="45.61607" lon="6.66054">
        <ele>2314</ele>
        <time>2016-02-06T11:43:09Z</time>
      </trkpt>
      <trkpt lat="45.61608" lon="6.66055">
        <ele>2314</ele>
        <time>2016-02-06T11:43:11Z</time>
      </trkpt>
      <trkpt lat="45.61608" lon="6.66056">
        <ele>2314</ele>
        <time>2016-02-06T11:43:13Z</time>
      </trkpt>
      <trkpt lat="45.61609" lon="6.66058">
        <ele>2314</ele>
        <time>2016-02-06T11:43:17Z</time>
      </trkpt>
      <trkpt lat="45.61612" lon="6.66058">
        <ele>2314</ele>
        <time>2016-02-06T11:43:19Z</time>
      </trkpt>
      <trkpt lat="45.61613" lon="6.66058">
        <ele>2314</ele>
        <time>2016-02-06T11:43:23Z</time>
      </trkpt>
      <trkpt lat="45.61613" lon="6.66059">
        <ele>2314</ele>
        <time>2016-02-06T11:43:37Z</time>
      </trkpt>
      <trkpt lat="45.61612" lon="6.6606">
        <ele>2314</ele>
        <time>2016-02-06T11:43:43Z</time>
      </trkpt>
      <trkpt lat="45.61611" lon="6.66062">
        <ele>2314</ele>
        <time>2016-02-06T11:43:48Z</time>
      </trkpt>
      <trkpt lat="45.61612" lon="6.66063">
        <ele>2314</ele>
        <time>2016-02-06T11:43:52Z</time>
      </trkpt>
      <trkpt lat="45.61612" lon="6.66061">
        <ele>2314</ele>
        <time>2016-02-06T11:44:06Z</time>
      </trkpt>
      <trkpt lat="45.61612" lon="6.66059">
        <ele>2314</ele>
        <time>2016-02-06T11:44:09Z</time>
      </trkpt>
      <trkpt lat="45.61612" lon="6.66058">
        <ele>2314</ele>
        <time>2016-02-06T11:44:11Z</time>
      </trkpt>
      <trkpt lat="45.61613" lon="6.66056">
        <ele>2314</ele>
        <time>2016-02-06T11:44:13Z</time>
      </trkpt>
      <trkpt lat="45.61613" lon="6.66055">
        <ele>2314</ele>
        <time>2016-02-06T11:44:16Z</time>
      </trkpt>
      <trkpt lat="45.61613" lon="6.66052">
        <ele>2314</ele>
        <time>2016-02-06T11:44:18Z</time>
      </trkpt>
      <trkpt lat="45.61614" lon="6.66051">
        <ele>2314</ele>
        <time>2016-02-06T11:44:21Z</time>
      </trkpt>
      <trkpt lat="45.61615" lon="6.66049">
        <ele>2315</ele>
        <time>2016-02-06T11:44:24Z</time>
      </trkpt>
      <trkpt lat="45.61615" lon="6.66047">
        <ele>2315</ele>
        <time>2016-02-06T11:44:26Z</time>
      </trkpt>
      <trkpt lat="45.61616" lon="6.66046">
        <ele>2315</ele>
        <time>2016-02-06T11:44:29Z</time>
      </trkpt>
      <trkpt lat="45.61617" lon="6.66044">
        <ele>2315</ele>
        <time>2016-02-06T11:44:32Z</time>
      </trkpt>
      <trkpt lat="45.61618" lon="6.66043">
        <ele>2315</ele>
        <time>2016-02-06T11:44:36Z</time>
      </trkpt>
      <trkpt lat="45.6162" lon="6.66042">
        <ele>2315</ele>
        <time>2016-02-06T11:44:39Z</time>
      </trkpt>
      <trkpt lat="45.61621" lon="6.6604">
        <ele>2315</ele>
        <time>2016-02-06T11:44:42Z</time>
      </trkpt>
      <trkpt lat="45.61621" lon="6.66039">
        <ele>2315</ele>
        <time>2016-02-06T11:44:46Z</time>
      </trkpt>
      <trkpt lat="45.6162" lon="6.66037">
        <ele>2315</ele>
        <time>2016-02-06T11:44:55Z</time>
      </trkpt>
      <trkpt lat="45.61622" lon="6.66036">
        <ele>2315</ele>
        <time>2016-02-06T11:45:00Z</time>
      </trkpt>
      <trkpt lat="45.61623" lon="6.66035">
        <ele>2315</ele>
        <time>2016-02-06T11:45:02Z</time>
      </trkpt>
      <trkpt lat="45.61625" lon="6.66034">
        <ele>2316</ele>
        <time>2016-02-06T11:45:04Z</time>
      </trkpt>
      <trkpt lat="45.61627" lon="6.66033">
        <ele>2316</ele>
        <time>2016-02-06T11:45:09Z</time>
      </trkpt>
      <trkpt lat="45.61628" lon="6.66032">
        <ele>2316</ele>
        <time>2016-02-06T11:45:12Z</time>
      </trkpt>
      <trkpt lat="45.61626" lon="6.6603">
        <ele>2316</ele>
        <time>2016-02-06T11:45:20Z</time>
      </trkpt>
      <trkpt lat="45.61628" lon="6.66031">
        <ele>2316</ele>
        <time>2016-02-06T11:45:25Z</time>
      </trkpt>
      <trkpt lat="45.61629" lon="6.6603">
        <ele>2316</ele>
        <time>2016-02-06T11:45:27Z</time>
      </trkpt>
      <trkpt lat="45.6163" lon="6.66029">
        <ele>2316</ele>
        <time>2016-02-06T11:45:33Z</time>
      </trkpt>
      <trkpt lat="45.6163" lon="6.66031">
        <ele>2316</ele>
        <time>2016-02-06T11:45:38Z</time>
      </trkpt>
      <trkpt lat="45.61629" lon="6.66033">
        <ele>2316</ele>
        <time>2016-02-06T11:45:40Z</time>
      </trkpt>
      <trkpt lat="45.6163" lon="6.66034">
        <ele>2316</ele>
        <time>2016-02-06T11:45:42Z</time>
      </trkpt>
      <trkpt lat="45.6163" lon="6.66036">
        <ele>2316</ele>
        <time>2016-02-06T11:45:44Z</time>
      </trkpt>
      <trkpt lat="45.61631" lon="6.66037">
        <ele>2316</ele>
        <time>2016-02-06T11:45:46Z</time>
      </trkpt>
      <trkpt lat="45.61631" lon="6.66039">
        <ele>2316</ele>
        <time>2016-02-06T11:45:49Z</time>
      </trkpt>
      <trkpt lat="45.61632" lon="6.6604">
        <ele>2317</ele>
        <time>2016-02-06T11:45:51Z</time>
      </trkpt>
      <trkpt lat="45.61633" lon="6.66041">
        <ele>2317</ele>
        <time>2016-02-06T11:45:53Z</time>
      </trkpt>
      <trkpt lat="45.61634" lon="6.66043">
        <ele>2317</ele>
        <time>2016-02-06T11:45:55Z</time>
      </trkpt>
      <trkpt lat="45.61634" lon="6.66045">
        <ele>2317</ele>
        <time>2016-02-06T11:45:57Z</time>
      </trkpt>
      <trkpt lat="45.61634" lon="6.66046">
        <ele>2317</ele>
        <time>2016-02-06T11:46:00Z</time>
      </trkpt>
      <trkpt lat="45.61635" lon="6.66048">
        <ele>2317</ele>
        <time>2016-02-06T11:46:03Z</time>
      </trkpt>
      <trkpt lat="45.61636" lon="6.66049">
        <ele>2317</ele>
        <time>2016-02-06T11:46:06Z</time>
      </trkpt>
      <trkpt lat="45.61637" lon="6.66051">
        <ele>2317</ele>
        <time>2016-02-06T11:46:09Z</time>
      </trkpt>
      <trkpt lat="45.61638" lon="6.66053">
        <ele>2318</ele>
        <time>2016-02-06T11:46:12Z</time>
      </trkpt>
      <trkpt lat="45.61639" lon="6.66054">
        <ele>2318</ele>
        <time>2016-02-06T11:46:15Z</time>
      </trkpt>
      <trkpt lat="45.6164" lon="6.66056">
        <ele>2318</ele>
        <time>2016-02-06T11:46:19Z</time>
      </trkpt>
      <trkpt lat="45.61641" lon="6.66056">
        <ele>2318</ele>
        <time>2016-02-06T11:46:27Z</time>
      </trkpt>
      <trkpt lat="45.61641" lon="6.66058">
        <ele>2318</ele>
        <time>2016-02-06T11:46:33Z</time>
      </trkpt>
      <trkpt lat="45.61643" lon="6.66059">
        <ele>2319</ele>
        <time>2016-02-06T11:46:36Z</time>
      </trkpt>
      <trkpt lat="45.61644" lon="6.66061">
        <ele>2319</ele>
        <time>2016-02-06T11:46:40Z</time>
      </trkpt>
      <trkpt lat="45.61645" lon="6.66062">
        <ele>2319</ele>
        <time>2016-02-06T11:46:43Z</time>
      </trkpt>
      <trkpt lat="45.61645" lon="6.66063">
        <ele>2319</ele>
        <time>2016-02-06T11:46:48Z</time>
      </trkpt>
      <trkpt lat="45.61647" lon="6.66062">
        <ele>2319</ele>
        <time>2016-02-06T11:46:53Z</time>
      </trkpt>
      <trkpt lat="45.61648" lon="6.66064">
        <ele>2320</ele>
        <time>2016-02-06T11:46:58Z</time>
      </trkpt>
      <trkpt lat="45.61649" lon="6.66065">
        <ele>2320</ele>
        <time>2016-02-06T11:47:01Z</time>
      </trkpt>
      <trkpt lat="45.6165" lon="6.66067">
        <ele>2320</ele>
        <time>2016-02-06T11:47:04Z</time>
      </trkpt>
      <trkpt lat="45.61652" lon="6.66068">
        <ele>2321</ele>
        <time>2016-02-06T11:47:07Z</time>
      </trkpt>
      <trkpt lat="45.61653" lon="6.6607">
        <ele>2321</ele>
        <time>2016-02-06T11:47:11Z</time>
      </trkpt>
      <trkpt lat="45.61654" lon="6.6607">
        <ele>2322</ele>
        <time>2016-02-06T11:47:13Z</time>
      </trkpt>
      <trkpt lat="45.61655" lon="6.66071">
        <ele>2322</ele>
        <time>2016-02-06T11:47:16Z</time>
      </trkpt>
      <trkpt lat="45.61656" lon="6.66072">
        <ele>2322</ele>
        <time>2016-02-06T11:47:18Z</time>
      </trkpt>
      <trkpt lat="45.61658" lon="6.66072">
        <ele>2323</ele>
        <time>2016-02-06T11:47:20Z</time>
      </trkpt>
      <trkpt lat="45.61659" lon="6.66073">
        <ele>2323</ele>
        <time>2016-02-06T11:47:23Z</time>
      </trkpt>
      <trkpt lat="45.6166" lon="6.66073">
        <ele>2323</ele>
        <time>2016-02-06T11:47:25Z</time>
      </trkpt>
      <trkpt lat="45.61659" lon="6.66071">
        <ele>2323</ele>
        <time>2016-02-06T11:47:32Z</time>
      </trkpt>
      <trkpt lat="45.61659" lon="6.6607">
        <ele>2322</ele>
        <time>2016-02-06T11:47:35Z</time>
      </trkpt>
      <trkpt lat="45.61659" lon="6.66068">
        <ele>2322</ele>
        <time>2016-02-06T11:47:38Z</time>
      </trkpt>
      <trkpt lat="45.61658" lon="6.66066">
        <ele>2322</ele>
        <time>2016-02-06T11:47:41Z</time>
      </trkpt>
      <trkpt lat="45.61659" lon="6.66064">
        <ele>2321</ele>
        <time>2016-02-06T11:47:44Z</time>
      </trkpt>
      <trkpt lat="45.61659" lon="6.66062">
        <ele>2321</ele>
        <time>2016-02-06T11:47:46Z</time>
      </trkpt>
      <trkpt lat="45.6166" lon="6.6606">
        <ele>2321</ele>
        <time>2016-02-06T11:47:50Z</time>
      </trkpt>
      <trkpt lat="45.61661" lon="6.66058">
        <ele>2321</ele>
        <time>2016-02-06T11:47:53Z</time>
      </trkpt>
      <trkpt lat="45.61662" lon="6.66057">
        <ele>2320</ele>
        <time>2016-02-06T11:47:55Z</time>
      </trkpt>
      <trkpt lat="45.61662" lon="6.66055">
        <ele>2320</ele>
        <time>2016-02-06T11:47:58Z</time>
      </trkpt>
      <trkpt lat="45.61663" lon="6.66054">
        <ele>2320</ele>
        <time>2016-02-06T11:48:00Z</time>
      </trkpt>
      <trkpt lat="45.61664" lon="6.66052">
        <ele>2320</ele>
        <time>2016-02-06T11:48:03Z</time>
      </trkpt>
      <trkpt lat="45.61665" lon="6.66051">
        <ele>2320</ele>
        <time>2016-02-06T11:48:06Z</time>
      </trkpt>
      <trkpt lat="45.61667" lon="6.6605">
        <ele>2331</ele>
        <time>2016-02-06T11:48:09Z</time>
      </trkpt>
      <trkpt lat="45.61668" lon="6.6605">
        <ele>2331</ele>
        <time>2016-02-06T11:48:12Z</time>
      </trkpt>
      <trkpt lat="45.6167" lon="6.6605">
        <ele>2331</ele>
        <time>2016-02-06T11:48:16Z</time>
      </trkpt>
      <trkpt lat="45.61671" lon="6.66049">
        <ele>2331</ele>
        <time>2016-02-06T11:48:24Z</time>
      </trkpt>
      <trkpt lat="45.61673" lon="6.66048">
        <ele>2331</ele>
        <time>2016-02-06T11:48:28Z</time>
      </trkpt>
      <trkpt lat="45.61674" lon="6.66047">
        <ele>2331</ele>
        <time>2016-02-06T11:48:32Z</time>
      </trkpt>
      <trkpt lat="45.61676" lon="6.66046">
        <ele>2331</ele>
        <time>2016-02-06T11:48:35Z</time>
      </trkpt>
      <trkpt lat="45.61678" lon="6.66045">
        <ele>2331</ele>
        <time>2016-02-06T11:48:37Z</time>
      </trkpt>
      <trkpt lat="45.61679" lon="6.66045">
        <ele>2332</ele>
        <time>2016-02-06T11:48:39Z</time>
      </trkpt>
      <trkpt lat="45.61681" lon="6.66045">
        <ele>2332</ele>
        <time>2016-02-06T11:48:42Z</time>
      </trkpt>
      <trkpt lat="45.61682" lon="6.66046">
        <ele>2332</ele>
        <time>2016-02-06T11:48:45Z</time>
      </trkpt>
      <trkpt lat="45.61683" lon="6.66047">
        <ele>2332</ele>
        <time>2016-02-06T11:48:48Z</time>
      </trkpt>
      <trkpt lat="45.61685" lon="6.66047">
        <ele>2332</ele>
        <time>2016-02-06T11:48:51Z</time>
      </trkpt>
      <trkpt lat="45.61686" lon="6.66048">
        <ele>2332</ele>
        <time>2016-02-06T11:48:54Z</time>
      </trkpt>
      <trkpt lat="45.61688" lon="6.66048">
        <ele>2332</ele>
        <time>2016-02-06T11:48:56Z</time>
      </trkpt>
      <trkpt lat="45.61689" lon="6.66048">
        <ele>2332</ele>
        <time>2016-02-06T11:48:58Z</time>
      </trkpt>
      <trkpt lat="45.61691" lon="6.66047">
        <ele>2333</ele>
        <time>2016-02-06T11:49:01Z</time>
      </trkpt>
      <trkpt lat="45.61692" lon="6.66048">
        <ele>2333</ele>
        <time>2016-02-06T11:49:03Z</time>
      </trkpt>
      <trkpt lat="45.61694" lon="6.66048">
        <ele>2333</ele>
        <time>2016-02-06T11:49:06Z</time>
      </trkpt>
      <trkpt lat="45.61695" lon="6.6605">
        <ele>2333</ele>
        <time>2016-02-06T11:49:13Z</time>
      </trkpt>
      <trkpt lat="45.61697" lon="6.66049">
        <ele>2333</ele>
        <time>2016-02-06T11:49:15Z</time>
      </trkpt>
      <trkpt lat="45.61698" lon="6.6605">
        <ele>2334</ele>
        <time>2016-02-06T11:49:17Z</time>
      </trkpt>
      <trkpt lat="45.617" lon="6.6605">
        <ele>2334</ele>
        <time>2016-02-06T11:49:19Z</time>
      </trkpt>
      <trkpt lat="45.61701" lon="6.6605">
        <ele>2334</ele>
        <time>2016-02-06T11:49:23Z</time>
      </trkpt>
      <trkpt lat="45.61702" lon="6.66049">
        <ele>2334</ele>
        <time>2016-02-06T11:49:25Z</time>
      </trkpt>
      <trkpt lat="45.61703" lon="6.66049">
        <ele>2334</ele>
        <time>2016-02-06T11:49:28Z</time>
      </trkpt>
      <trkpt lat="45.61704" lon="6.66048">
        <ele>2334</ele>
        <time>2016-02-06T11:50:00Z</time>
      </trkpt>
      <trkpt lat="45.61704" lon="6.6605">
        <ele>2334</ele>
        <time>2016-02-06T11:50:20Z</time>
      </trkpt>
      <trkpt lat="45.61702" lon="6.6605">
        <ele>2334</ele>
        <time>2016-02-06T11:50:22Z</time>
      </trkpt>
      <trkpt lat="45.61701" lon="6.66052">
        <ele>2334</ele>
        <time>2016-02-06T11:50:31Z</time>
      </trkpt>
      <trkpt lat="45.617" lon="6.66053">
        <ele>2334</ele>
        <time>2016-02-06T11:50:33Z</time>
      </trkpt>
      <trkpt lat="45.61701" lon="6.66052">
        <ele>2334</ele>
        <time>2016-02-06T11:50:44Z</time>
      </trkpt>
      <trkpt lat="45.617" lon="6.66052">
        <ele>2334</ele>
        <time>2016-02-06T11:51:06Z</time>
      </trkpt>
      <trkpt lat="45.61699" lon="6.66054">
        <ele>2334</ele>
        <time>2016-02-06T11:51:13Z</time>
      </trkpt>
      <trkpt lat="45.61699" lon="6.66055">
        <ele>2334</ele>
        <time>2016-02-06T11:51:20Z</time>
      </trkpt>
      <trkpt lat="45.617" lon="6.66056">
        <ele>2334</ele>
        <time>2016-02-06T11:51:28Z</time>
      </trkpt>
      <trkpt lat="45.61701" lon="6.66054">
        <ele>2334</ele>
        <time>2016-02-06T11:51:45Z</time>
      </trkpt>
      <trkpt lat="45.61702" lon="6.66053">
        <ele>2334</ele>
        <time>2016-02-06T11:51:50Z</time>
      </trkpt>
      <trkpt lat="45.61703" lon="6.66052">
        <ele>2334</ele>
        <time>2016-02-06T11:52:01Z</time>
      </trkpt>
      <trkpt lat="45.61705" lon="6.66053">
        <ele>2335</ele>
        <time>2016-02-06T11:52:05Z</time>
      </trkpt>
      <trkpt lat="45.61706" lon="6.66053">
        <ele>2335</ele>
        <time>2016-02-06T11:52:07Z</time>
      </trkpt>
      <trkpt lat="45.61708" lon="6.66054">
        <ele>2335</ele>
        <time>2016-02-06T11:52:10Z</time>
      </trkpt>
      <trkpt lat="45.61709" lon="6.66052">
        <ele>2335</ele>
        <time>2016-02-06T11:52:21Z</time>
      </trkpt>
      <trkpt lat="45.61708" lon="6.66052">
        <ele>2335</ele>
        <time>2016-02-06T11:52:24Z</time>
      </trkpt>
      <trkpt lat="45.61707" lon="6.66051">
        <ele>2335</ele>
        <time>2016-02-06T11:52:29Z</time>
      </trkpt>
      <trkpt lat="45.61706" lon="6.6605">
        <ele>2334</ele>
        <time>2016-02-06T11:52:40Z</time>
      </trkpt>
      <trkpt lat="45.61707" lon="6.66048">
        <ele>2334</ele>
        <time>2016-02-06T11:52:42Z</time>
      </trkpt>
      <trkpt lat="45.61708" lon="6.6605">
        <ele>2335</ele>
        <time>2016-02-06T11:53:10Z</time>
      </trkpt>
      <trkpt lat="45.61707" lon="6.66051">
        <ele>2335</ele>
        <time>2016-02-06T11:53:14Z</time>
      </trkpt>
      <trkpt lat="45.61709" lon="6.66052">
        <ele>2335</ele>
        <time>2016-02-06T11:53:16Z</time>
      </trkpt>
      <trkpt lat="45.6171" lon="6.66052">
        <ele>2335</ele>
        <time>2016-02-06T11:53:21Z</time>
      </trkpt>
      <trkpt lat="45.61712" lon="6.66052">
        <ele>2335</ele>
        <time>2016-02-06T11:53:24Z</time>
      </trkpt>
      <trkpt lat="45.61712" lon="6.66049">
        <ele>2335</ele>
        <time>2016-02-06T11:53:34Z</time>
      </trkpt>
      <trkpt lat="45.61711" lon="6.66049">
        <ele>2335</ele>
        <time>2016-02-06T11:53:36Z</time>
      </trkpt>
      <trkpt lat="45.61709" lon="6.66049">
        <ele>2335</ele>
        <time>2016-02-06T11:53:39Z</time>
      </trkpt>
      <trkpt lat="45.61708" lon="6.66051">
        <ele>2335</ele>
        <time>2016-02-06T11:53:41Z</time>
      </trkpt>
      <trkpt lat="45.61706" lon="6.66052">
        <ele>2335</ele>
        <time>2016-02-06T11:53:45Z</time>
      </trkpt>
      <trkpt lat="45.61707" lon="6.6605">
        <ele>2335</ele>
        <time>2016-02-06T11:53:49Z</time>
      </trkpt>
      <trkpt lat="45.61707" lon="6.66049">
        <ele>2334</ele>
        <time>2016-02-06T11:53:55Z</time>
      </trkpt>
      <trkpt lat="45.61708" lon="6.66049">
        <ele>2335</ele>
        <time>2016-02-06T11:54:06Z</time>
      </trkpt>
      <trkpt lat="45.61709" lon="6.66049">
        <ele>2335</ele>
        <time>2016-02-06T11:54:08Z</time>
      </trkpt>
      <trkpt lat="45.6171" lon="6.66051">
        <ele>2335</ele>
        <time>2016-02-06T11:54:12Z</time>
      </trkpt>
      <trkpt lat="45.61709" lon="6.66053">
        <ele>2335</ele>
        <time>2016-02-06T11:54:14Z</time>
      </trkpt>
      <trkpt lat="45.6171" lon="6.66054">
        <ele>2335</ele>
        <time>2016-02-06T11:54:19Z</time>
      </trkpt>
      <trkpt lat="45.6171" lon="6.66052">
        <ele>2335</ele>
        <time>2016-02-06T11:54:29Z</time>
      </trkpt>
      <trkpt lat="45.61708" lon="6.66053">
        <ele>2335</ele>
        <time>2016-02-06T11:54:32Z</time>
      </trkpt>
      <trkpt lat="45.61707" lon="6.66053">
        <ele>2335</ele>
        <time>2016-02-06T11:54:35Z</time>
      </trkpt>
      <trkpt lat="45.61705" lon="6.66053">
        <ele>2335</ele>
        <time>2016-02-06T11:54:38Z</time>
      </trkpt>
      <trkpt lat="45.61704" lon="6.66053">
        <ele>2334</ele>
        <time>2016-02-06T11:54:40Z</time>
      </trkpt>
      <trkpt lat="45.61703" lon="6.66052">
        <ele>2334</ele>
        <time>2016-02-06T11:54:54Z</time>
      </trkpt>
      <trkpt lat="45.61704" lon="6.6605">
        <ele>2334</ele>
        <time>2016-02-06T11:54:57Z</time>
      </trkpt>
      <trkpt lat="45.61703" lon="6.66052">
        <ele>2334</ele>
        <time>2016-02-06T11:55:01Z</time>
      </trkpt>
      <trkpt lat="45.61705" lon="6.66052">
        <ele>2334</ele>
        <time>2016-02-06T11:55:02Z</time>
      </trkpt>
      <trkpt lat="45.61706" lon="6.6605">
        <ele>2334</ele>
        <time>2016-02-06T11:55:09Z</time>
      </trkpt>
      <trkpt lat="45.61705" lon="6.66051">
        <ele>2334</ele>
        <time>2016-02-06T11:55:23Z</time>
      </trkpt>
      <trkpt lat="45.61704" lon="6.66053">
        <ele>2334</ele>
        <time>2016-02-06T11:55:46Z</time>
      </trkpt>
      <trkpt lat="45.61705" lon="6.66054">
        <ele>2335</ele>
        <time>2016-02-06T11:55:53Z</time>
      </trkpt>
      <trkpt lat="45.61706" lon="6.66054">
        <ele>2335</ele>
        <time>2016-02-06T11:55:55Z</time>
      </trkpt>
      <trkpt lat="45.61708" lon="6.66053">
        <ele>2335</ele>
        <time>2016-02-06T11:55:58Z</time>
      </trkpt>
      <trkpt lat="45.61709" lon="6.66053">
        <ele>2335</ele>
        <time>2016-02-06T11:56:01Z</time>
      </trkpt>
      <trkpt lat="45.6171" lon="6.66053">
        <ele>2335</ele>
        <time>2016-02-06T11:56:03Z</time>
      </trkpt>
      <trkpt lat="45.61711" lon="6.66052">
        <ele>2335</ele>
        <time>2016-02-06T11:56:10Z</time>
      </trkpt>
      <trkpt lat="45.61713" lon="6.66052">
        <ele>2336</ele>
        <time>2016-02-06T11:56:21Z</time>
      </trkpt>
      <trkpt lat="45.61714" lon="6.66052">
        <ele>2336</ele>
        <time>2016-02-06T11:56:25Z</time>
      </trkpt>
      <trkpt lat="45.61715" lon="6.66052">
        <ele>2336</ele>
        <time>2016-02-06T11:56:28Z</time>
      </trkpt>
      <trkpt lat="45.61716" lon="6.66053">
        <ele>2336</ele>
        <time>2016-02-06T11:56:32Z</time>
      </trkpt>
      <trkpt lat="45.61717" lon="6.66054">
        <ele>2336</ele>
        <time>2016-02-06T11:56:35Z</time>
      </trkpt>
      <trkpt lat="45.61718" lon="6.66054">
        <ele>2337</ele>
        <time>2016-02-06T11:56:37Z</time>
      </trkpt>
      <trkpt lat="45.6172" lon="6.66055">
        <ele>2337</ele>
        <time>2016-02-06T11:56:39Z</time>
      </trkpt>
      <trkpt lat="45.61721" lon="6.66055">
        <ele>2337</ele>
        <time>2016-02-06T11:56:40Z</time>
      </trkpt>
      <trkpt lat="45.61723" lon="6.66055">
        <ele>2337</ele>
        <time>2016-02-06T11:56:42Z</time>
      </trkpt>
      <trkpt lat="45.61724" lon="6.66056">
        <ele>2338</ele>
        <time>2016-02-06T11:56:45Z</time>
      </trkpt>
      <trkpt lat="45.61726" lon="6.66057">
        <ele>2338</ele>
        <time>2016-02-06T11:56:49Z</time>
      </trkpt>
      <trkpt lat="45.61727" lon="6.66058">
        <ele>2338</ele>
        <time>2016-02-06T11:56:51Z</time>
      </trkpt>
      <trkpt lat="45.61728" lon="6.66058">
        <ele>2339</ele>
        <time>2016-02-06T11:56:53Z</time>
      </trkpt>
      <trkpt lat="45.61729" lon="6.66058">
        <ele>2339</ele>
        <time>2016-02-06T11:56:55Z</time>
      </trkpt>
      <trkpt lat="45.61731" lon="6.66058">
        <ele>2339</ele>
        <time>2016-02-06T11:56:57Z</time>
      </trkpt>
      <trkpt lat="45.61732" lon="6.66058">
        <ele>2339</ele>
        <time>2016-02-06T11:56:59Z</time>
      </trkpt>
      <trkpt lat="45.61733" lon="6.66058">
        <ele>2340</ele>
        <time>2016-02-06T11:57:01Z</time>
      </trkpt>
      <trkpt lat="45.61734" lon="6.66058">
        <ele>2340</ele>
        <time>2016-02-06T11:57:03Z</time>
      </trkpt>
      <trkpt lat="45.61736" lon="6.66059">
        <ele>2340</ele>
        <time>2016-02-06T11:57:05Z</time>
      </trkpt>
      <trkpt lat="45.61737" lon="6.66059">
        <ele>2340</ele>
        <time>2016-02-06T11:57:07Z</time>
      </trkpt>
      <trkpt lat="45.61738" lon="6.6606">
        <ele>2341</ele>
        <time>2016-02-06T11:57:10Z</time>
      </trkpt>
      <trkpt lat="45.6174" lon="6.6606">
        <ele>2341</ele>
        <time>2016-02-06T11:57:13Z</time>
      </trkpt>
      <trkpt lat="45.61741" lon="6.66061">
        <ele>2341</ele>
        <time>2016-02-06T11:57:15Z</time>
      </trkpt>
      <trkpt lat="45.61742" lon="6.66061">
        <ele>2342</ele>
        <time>2016-02-06T11:57:17Z</time>
      </trkpt>
      <trkpt lat="45.61744" lon="6.66062">
        <ele>2342</ele>
        <time>2016-02-06T11:57:21Z</time>
      </trkpt>
      <trkpt lat="45.61745" lon="6.66062">
        <ele>2343</ele>
        <time>2016-02-06T11:57:23Z</time>
      </trkpt>
      <trkpt lat="45.61746" lon="6.66062">
        <ele>2343</ele>
        <time>2016-02-06T11:57:26Z</time>
      </trkpt>
      <trkpt lat="45.61748" lon="6.66062">
        <ele>2343</ele>
        <time>2016-02-06T11:57:28Z</time>
      </trkpt>
      <trkpt lat="45.6175" lon="6.66062">
        <ele>2343</ele>
        <time>2016-02-06T11:57:30Z</time>
      </trkpt>
      <trkpt lat="45.61751" lon="6.66063">
        <ele>2348</ele>
        <time>2016-02-06T11:57:33Z</time>
      </trkpt>
      <trkpt lat="45.61752" lon="6.66063">
        <ele>2349</ele>
        <time>2016-02-06T11:57:35Z</time>
      </trkpt>
      <trkpt lat="45.61753" lon="6.66064">
        <ele>2349</ele>
        <time>2016-02-06T11:57:37Z</time>
      </trkpt>
      <trkpt lat="45.61755" lon="6.66063">
        <ele>2348</ele>
        <time>2016-02-06T11:57:38Z</time>
      </trkpt>
      <trkpt lat="45.61757" lon="6.66063">
        <ele>2348</ele>
        <time>2016-02-06T11:57:40Z</time>
      </trkpt>
      <trkpt lat="45.61758" lon="6.66062">
        <ele>2348</ele>
        <time>2016-02-06T11:57:41Z</time>
      </trkpt>
      <trkpt lat="45.61757" lon="6.66064">
        <ele>2349</ele>
        <time>2016-02-06T11:57:51Z</time>
      </trkpt>
      <trkpt lat="45.61758" lon="6.66065">
        <ele>2349</ele>
        <time>2016-02-06T11:57:55Z</time>
      </trkpt>
      <trkpt lat="45.6176" lon="6.66066">
        <ele>2349</ele>
        <time>2016-02-06T11:57:58Z</time>
      </trkpt>
      <trkpt lat="45.61761" lon="6.66067">
        <ele>2349</ele>
        <time>2016-02-06T11:58:01Z</time>
      </trkpt>
      <trkpt lat="45.61762" lon="6.66067">
        <ele>2349</ele>
        <time>2016-02-06T11:58:04Z</time>
      </trkpt>
      <trkpt lat="45.61764" lon="6.66067">
        <ele>2349</ele>
        <time>2016-02-06T11:58:06Z</time>
      </trkpt>
      <trkpt lat="45.61765" lon="6.66068">
        <ele>2349</ele>
        <time>2016-02-06T11:58:08Z</time>
      </trkpt>
      <trkpt lat="45.61766" lon="6.66068">
        <ele>2349</ele>
        <time>2016-02-06T11:58:10Z</time>
      </trkpt>
      <trkpt lat="45.61768" lon="6.66069">
        <ele>2348</ele>
        <time>2016-02-06T11:58:12Z</time>
      </trkpt>
      <trkpt lat="45.6177" lon="6.66069">
        <ele>2348</ele>
        <time>2016-02-06T11:58:14Z</time>
      </trkpt>
      <trkpt lat="45.61771" lon="6.66069">
        <ele>2348</ele>
        <time>2016-02-06T11:58:16Z</time>
      </trkpt>
      <trkpt lat="45.61772" lon="6.6607">
        <ele>2348</ele>
        <time>2016-02-06T11:58:18Z</time>
      </trkpt>
      <trkpt lat="45.61774" lon="6.6607">
        <ele>2348</ele>
        <time>2016-02-06T11:58:20Z</time>
      </trkpt>
      <trkpt lat="45.61775" lon="6.6607">
        <ele>2348</ele>
        <time>2016-02-06T11:58:22Z</time>
      </trkpt>
      <trkpt lat="45.61776" lon="6.6607">
        <ele>2348</ele>
        <time>2016-02-06T11:58:24Z</time>
      </trkpt>
      <trkpt lat="45.61777" lon="6.6607">
        <ele>2348</ele>
        <time>2016-02-06T11:58:26Z</time>
      </trkpt>
      <trkpt lat="45.61779" lon="6.66071">
        <ele>2348</ele>
        <time>2016-02-06T11:58:28Z</time>
      </trkpt>
      <trkpt lat="45.6178" lon="6.66071">
        <ele>2348</ele>
        <time>2016-02-06T11:58:30Z</time>
      </trkpt>
      <trkpt lat="45.61782" lon="6.66072">
        <ele>2348</ele>
        <time>2016-02-06T11:58:32Z</time>
      </trkpt>
      <trkpt lat="45.61783" lon="6.66072">
        <ele>2348</ele>
        <time>2016-02-06T11:58:35Z</time>
      </trkpt>
      <trkpt lat="45.61785" lon="6.66072">
        <ele>2348</ele>
        <time>2016-02-06T11:58:38Z</time>
      </trkpt>
      <trkpt lat="45.61787" lon="6.66073">
        <ele>2348</ele>
        <time>2016-02-06T11:58:41Z</time>
      </trkpt>
      <trkpt lat="45.61788" lon="6.66072">
        <ele>2347</ele>
        <time>2016-02-06T11:58:44Z</time>
      </trkpt>
      <trkpt lat="45.61789" lon="6.66073">
        <ele>2347</ele>
        <time>2016-02-06T11:58:47Z</time>
      </trkpt>
      <trkpt lat="45.61791" lon="6.66072">
        <ele>2347</ele>
        <time>2016-02-06T11:58:50Z</time>
      </trkpt>
      <trkpt lat="45.61792" lon="6.66072">
        <ele>2347</ele>
        <time>2016-02-06T11:58:53Z</time>
      </trkpt>
      <trkpt lat="45.61792" lon="6.66074">
        <ele>2347</ele>
        <time>2016-02-06T11:58:56Z</time>
      </trkpt>
      <trkpt lat="45.61794" lon="6.66074">
        <ele>2347</ele>
        <time>2016-02-06T11:59:00Z</time>
      </trkpt>
      <trkpt lat="45.61795" lon="6.66073">
        <ele>2347</ele>
        <time>2016-02-06T11:59:03Z</time>
      </trkpt>
      <trkpt lat="45.61796" lon="6.66072">
        <ele>2347</ele>
        <time>2016-02-06T11:59:05Z</time>
      </trkpt>
      <trkpt lat="45.61797" lon="6.66072">
        <ele>2347</ele>
        <time>2016-02-06T11:59:08Z</time>
      </trkpt>
      <trkpt lat="45.61799" lon="6.66072">
        <ele>2347</ele>
        <time>2016-02-06T11:59:11Z</time>
      </trkpt>
      <trkpt lat="45.618" lon="6.66073">
        <ele>2347</ele>
        <time>2016-02-06T11:59:14Z</time>
      </trkpt>
      <trkpt lat="45.61802" lon="6.66072">
        <ele>2347</ele>
        <time>2016-02-06T11:59:17Z</time>
      </trkpt>
      <trkpt lat="45.61803" lon="6.66071">
        <ele>2347</ele>
        <time>2016-02-06T11:59:19Z</time>
      </trkpt>
      <trkpt lat="45.61805" lon="6.66071">
        <ele>2347</ele>
        <time>2016-02-06T11:59:22Z</time>
      </trkpt>
      <trkpt lat="45.61806" lon="6.66071">
        <ele>2348</ele>
        <time>2016-02-06T11:59:26Z</time>
      </trkpt>
      <trkpt lat="45.61807" lon="6.66071">
        <ele>2348</ele>
        <time>2016-02-06T11:59:30Z</time>
      </trkpt>
      <trkpt lat="45.61808" lon="6.66071">
        <ele>2348</ele>
        <time>2016-02-06T11:59:34Z</time>
      </trkpt>
      <trkpt lat="45.6181" lon="6.6607">
        <ele>2348</ele>
        <time>2016-02-06T11:59:36Z</time>
      </trkpt>
      <trkpt lat="45.61811" lon="6.6607">
        <ele>2348</ele>
        <time>2016-02-06T11:59:39Z</time>
      </trkpt>
      <trkpt lat="45.61812" lon="6.66069">
        <ele>2348</ele>
        <time>2016-02-06T11:59:42Z</time>
      </trkpt>
      <trkpt lat="45.61813" lon="6.66069">
        <ele>2348</ele>
        <time>2016-02-06T11:59:45Z</time>
      </trkpt>
      <trkpt lat="45.61815" lon="6.66069">
        <ele>2348</ele>
        <time>2016-02-06T11:59:48Z</time>
      </trkpt>
      <trkpt lat="45.61816" lon="6.66068">
        <ele>2348</ele>
        <time>2016-02-06T11:59:51Z</time>
      </trkpt>
      <trkpt lat="45.61818" lon="6.66068">
        <ele>2348</ele>
        <time>2016-02-06T11:59:55Z</time>
      </trkpt>
      <trkpt lat="45.61819" lon="6.66066">
        <ele>2348</ele>
        <time>2016-02-06T11:59:59Z</time>
      </trkpt>
      <trkpt lat="45.61821" lon="6.66066">
        <ele>2348</ele>
        <time>2016-02-06T12:00:03Z</time>
      </trkpt>
      <trkpt lat="45.61822" lon="6.66065">
        <ele>2348</ele>
        <time>2016-02-06T12:00:06Z</time>
      </trkpt>
      <trkpt lat="45.61823" lon="6.66064">
        <ele>2348</ele>
        <time>2016-02-06T12:00:08Z</time>
      </trkpt>
      <trkpt lat="45.61825" lon="6.66062">
        <ele>2348</ele>
        <time>2016-02-06T12:00:11Z</time>
      </trkpt>
      <trkpt lat="45.61826" lon="6.66061">
        <ele>2347</ele>
        <time>2016-02-06T12:00:13Z</time>
      </trkpt>
      <trkpt lat="45.61827" lon="6.66059">
        <ele>2347</ele>
        <time>2016-02-06T12:00:19Z</time>
      </trkpt>
      <trkpt lat="45.61828" lon="6.66058">
        <ele>2347</ele>
        <time>2016-02-06T12:00:23Z</time>
      </trkpt>
      <trkpt lat="45.6183" lon="6.66056">
        <ele>2347</ele>
        <time>2016-02-06T12:00:27Z</time>
      </trkpt>
      <trkpt lat="45.61831" lon="6.66054">
        <ele>2347</ele>
        <time>2016-02-06T12:00:29Z</time>
      </trkpt>
      <trkpt lat="45.61832" lon="6.66052">
        <ele>2347</ele>
        <time>2016-02-06T12:00:33Z</time>
      </trkpt>
      <trkpt lat="45.61833" lon="6.66051">
        <ele>2346</ele>
        <time>2016-02-06T12:00:37Z</time>
      </trkpt>
      <trkpt lat="45.61834" lon="6.66049">
        <ele>2350</ele>
        <time>2016-02-06T12:00:40Z</time>
      </trkpt>
      <trkpt lat="45.61835" lon="6.66048">
        <ele>2350</ele>
        <time>2016-02-06T12:00:42Z</time>
      </trkpt>
      <trkpt lat="45.61837" lon="6.66047">
        <ele>2350</ele>
        <time>2016-02-06T12:00:45Z</time>
      </trkpt>
      <trkpt lat="45.61839" lon="6.66045">
        <ele>2350</ele>
        <time>2016-02-06T12:00:48Z</time>
      </trkpt>
      <trkpt lat="45.6184" lon="6.66044">
        <ele>2350</ele>
        <time>2016-02-06T12:00:50Z</time>
      </trkpt>
      <trkpt lat="45.61841" lon="6.66043">
        <ele>2349</ele>
        <time>2016-02-06T12:00:52Z</time>
      </trkpt>
      <trkpt lat="45.61843" lon="6.66042">
        <ele>2349</ele>
        <time>2016-02-06T12:00:55Z</time>
      </trkpt>
      <trkpt lat="45.61844" lon="6.6604">
        <ele>2349</ele>
        <time>2016-02-06T12:00:57Z</time>
      </trkpt>
      <trkpt lat="45.61845" lon="6.66039">
        <ele>2349</ele>
        <time>2016-02-06T12:01:01Z</time>
      </trkpt>
      <trkpt lat="45.61847" lon="6.66038">
        <ele>2349</ele>
        <time>2016-02-06T12:01:04Z</time>
      </trkpt>
      <trkpt lat="45.61849" lon="6.66037">
        <ele>2349</ele>
        <time>2016-02-06T12:01:06Z</time>
      </trkpt>
      <trkpt lat="45.6185" lon="6.66038">
        <ele>2349</ele>
        <time>2016-02-06T12:01:09Z</time>
      </trkpt>
      <trkpt lat="45.61851" lon="6.66037">
        <ele>2349</ele>
        <time>2016-02-06T12:01:12Z</time>
      </trkpt>
      <trkpt lat="45.61853" lon="6.66035">
        <ele>2349</ele>
        <time>2016-02-06T12:01:15Z</time>
      </trkpt>
      <trkpt lat="45.61855" lon="6.66034">
        <ele>2349</ele>
        <time>2016-02-06T12:01:16Z</time>
      </trkpt>
      <trkpt lat="45.61857" lon="6.66034">
        <ele>2349</ele>
        <time>2016-02-06T12:01:18Z</time>
      </trkpt>
      <trkpt lat="45.61859" lon="6.66033">
        <ele>2349</ele>
        <time>2016-02-06T12:01:20Z</time>
      </trkpt>
      <trkpt lat="45.61861" lon="6.66033">
        <ele>2349</ele>
        <time>2016-02-06T12:01:22Z</time>
      </trkpt>
      <trkpt lat="45.61863" lon="6.66033">
        <ele>2349</ele>
        <time>2016-02-06T12:01:24Z</time>
      </trkpt>
      <trkpt lat="45.61864" lon="6.66034">
        <ele>2350</ele>
        <time>2016-02-06T12:01:40Z</time>
      </trkpt>
      <trkpt lat="45.61866" lon="6.66033">
        <ele>2350</ele>
        <time>2016-02-06T12:01:42Z</time>
      </trkpt>
      <trkpt lat="45.61867" lon="6.66034">
        <ele>2350</ele>
        <time>2016-02-06T12:01:44Z</time>
      </trkpt>
      <trkpt lat="45.61869" lon="6.66034">
        <ele>2350</ele>
        <time>2016-02-06T12:01:46Z</time>
      </trkpt>
      <trkpt lat="45.6187" lon="6.66034">
        <ele>2350</ele>
        <time>2016-02-06T12:01:48Z</time>
      </trkpt>
      <trkpt lat="45.61871" lon="6.66034">
        <ele>2350</ele>
        <time>2016-02-06T12:01:51Z</time>
      </trkpt>
      <trkpt lat="45.61873" lon="6.66034">
        <ele>2350</ele>
        <time>2016-02-06T12:01:53Z</time>
      </trkpt>
      <trkpt lat="45.61874" lon="6.66034">
        <ele>2350</ele>
        <time>2016-02-06T12:01:55Z</time>
      </trkpt>
      <trkpt lat="45.61876" lon="6.66034">
        <ele>2350</ele>
        <time>2016-02-06T12:01:57Z</time>
      </trkpt>
      <trkpt lat="45.61877" lon="6.66034">
        <ele>2350</ele>
        <time>2016-02-06T12:01:59Z</time>
      </trkpt>
      <trkpt lat="45.61879" lon="6.66035">
        <ele>2350</ele>
        <time>2016-02-06T12:02:01Z</time>
      </trkpt>
      <trkpt lat="45.61881" lon="6.66035">
        <ele>2350</ele>
        <time>2016-02-06T12:02:03Z</time>
      </trkpt>
      <trkpt lat="45.61882" lon="6.66034">
        <ele>2351</ele>
        <time>2016-02-06T12:02:05Z</time>
      </trkpt>
      <trkpt lat="45.61883" lon="6.66036">
        <ele>2351</ele>
        <time>2016-02-06T12:02:08Z</time>
      </trkpt>
      <trkpt lat="45.61885" lon="6.66036">
        <ele>2351</ele>
        <time>2016-02-06T12:02:10Z</time>
      </trkpt>
      <trkpt lat="45.61886" lon="6.66036">
        <ele>2351</ele>
        <time>2016-02-06T12:02:12Z</time>
      </trkpt>
      <trkpt lat="45.61887" lon="6.66037">
        <ele>2351</ele>
        <time>2016-02-06T12:02:14Z</time>
      </trkpt>
      <trkpt lat="45.61889" lon="6.66035">
        <ele>2351</ele>
        <time>2016-02-06T12:02:23Z</time>
      </trkpt>
      <trkpt lat="45.6189" lon="6.66034">
        <ele>2351</ele>
        <time>2016-02-06T12:02:28Z</time>
      </trkpt>
      <trkpt lat="45.61891" lon="6.66034">
        <ele>2351</ele>
        <time>2016-02-06T12:02:30Z</time>
      </trkpt>
      <trkpt lat="45.61892" lon="6.66035">
        <ele>2351</ele>
        <time>2016-02-06T12:02:32Z</time>
      </trkpt>
      <trkpt lat="45.61894" lon="6.66034">
        <ele>2351</ele>
        <time>2016-02-06T12:02:34Z</time>
      </trkpt>
      <trkpt lat="45.61895" lon="6.66035">
        <ele>2351</ele>
        <time>2016-02-06T12:02:36Z</time>
      </trkpt>
      <trkpt lat="45.61896" lon="6.66036">
        <ele>2351</ele>
        <time>2016-02-06T12:02:38Z</time>
      </trkpt>
      <trkpt lat="45.61897" lon="6.66037">
        <ele>2351</ele>
        <time>2016-02-06T12:02:40Z</time>
      </trkpt>
      <trkpt lat="45.61898" lon="6.66039">
        <ele>2352</ele>
        <time>2016-02-06T12:02:45Z</time>
      </trkpt>
      <trkpt lat="45.619" lon="6.6604">
        <ele>2352</ele>
        <time>2016-02-06T12:02:48Z</time>
      </trkpt>
      <trkpt lat="45.61901" lon="6.66041">
        <ele>2352</ele>
        <time>2016-02-06T12:02:51Z</time>
      </trkpt>
      <trkpt lat="45.61903" lon="6.66042">
        <ele>2352</ele>
        <time>2016-02-06T12:02:53Z</time>
      </trkpt>
      <trkpt lat="45.61905" lon="6.66043">
        <ele>2352</ele>
        <time>2016-02-06T12:02:55Z</time>
      </trkpt>
      <trkpt lat="45.61906" lon="6.66043">
        <ele>2352</ele>
        <time>2016-02-06T12:02:57Z</time>
      </trkpt>
      <trkpt lat="45.61908" lon="6.66044">
        <ele>2352</ele>
        <time>2016-02-06T12:02:59Z</time>
      </trkpt>
      <trkpt lat="45.61909" lon="6.66044">
        <ele>2353</ele>
        <time>2016-02-06T12:03:03Z</time>
      </trkpt>
      <trkpt lat="45.61911" lon="6.66045">
        <ele>2353</ele>
        <time>2016-02-06T12:03:06Z</time>
      </trkpt>
      <trkpt lat="45.61912" lon="6.66045">
        <ele>2353</ele>
        <time>2016-02-06T12:03:08Z</time>
      </trkpt>
      <trkpt lat="45.61914" lon="6.66045">
        <ele>2353</ele>
        <time>2016-02-06T12:03:10Z</time>
      </trkpt>
      <trkpt lat="45.61915" lon="6.66046">
        <ele>2353</ele>
        <time>2016-02-06T12:03:12Z</time>
      </trkpt>
      <trkpt lat="45.61916" lon="6.66046">
        <ele>2353</ele>
        <time>2016-02-06T12:03:14Z</time>
      </trkpt>
      <trkpt lat="45.61917" lon="6.66046">
        <ele>2363</ele>
        <time>2016-02-06T12:03:18Z</time>
      </trkpt>
      <trkpt lat="45.61919" lon="6.66047">
        <ele>2363</ele>
        <time>2016-02-06T12:03:20Z</time>
      </trkpt>
      <trkpt lat="45.6192" lon="6.66047">
        <ele>2363</ele>
        <time>2016-02-06T12:03:23Z</time>
      </trkpt>
      <trkpt lat="45.61921" lon="6.66047">
        <ele>2363</ele>
        <time>2016-02-06T12:03:25Z</time>
      </trkpt>
      <trkpt lat="45.61923" lon="6.66046">
        <ele>2363</ele>
        <time>2016-02-06T12:03:30Z</time>
      </trkpt>
      <trkpt lat="45.61924" lon="6.66047">
        <ele>2363</ele>
        <time>2016-02-06T12:03:32Z</time>
      </trkpt>
      <trkpt lat="45.61926" lon="6.66047">
        <ele>2363</ele>
        <time>2016-02-06T12:03:35Z</time>
      </trkpt>
      <trkpt lat="45.61928" lon="6.66047">
        <ele>2363</ele>
        <time>2016-02-06T12:03:37Z</time>
      </trkpt>
      <trkpt lat="45.61929" lon="6.66047">
        <ele>2363</ele>
        <time>2016-02-06T12:03:39Z</time>
      </trkpt>
      <trkpt lat="45.6193" lon="6.66048">
        <ele>2364</ele>
        <time>2016-02-06T12:03:41Z</time>
      </trkpt>
      <trkpt lat="45.61932" lon="6.66049">
        <ele>2364</ele>
        <time>2016-02-06T12:03:44Z</time>
      </trkpt>
      <trkpt lat="45.61934" lon="6.66049">
        <ele>2364</ele>
        <time>2016-02-06T12:03:46Z</time>
      </trkpt>
      <trkpt lat="45.61935" lon="6.66049">
        <ele>2364</ele>
        <time>2016-02-06T12:03:48Z</time>
      </trkpt>
      <trkpt lat="45.61937" lon="6.6605">
        <ele>2364</ele>
        <time>2016-02-06T12:03:50Z</time>
      </trkpt>
      <trkpt lat="45.61938" lon="6.6605">
        <ele>2365</ele>
        <time>2016-02-06T12:03:52Z</time>
      </trkpt>
      <trkpt lat="45.6194" lon="6.66051">
        <ele>2365</ele>
        <time>2016-02-06T12:03:54Z</time>
      </trkpt>
      <trkpt lat="45.61941" lon="6.66051">
        <ele>2365</ele>
        <time>2016-02-06T12:03:56Z</time>
      </trkpt>
      <trkpt lat="45.61942" lon="6.66051">
        <ele>2365</ele>
        <time>2016-02-06T12:03:59Z</time>
      </trkpt>
      <trkpt lat="45.61943" lon="6.6605">
        <ele>2365</ele>
        <time>2016-02-06T12:04:16Z</time>
      </trkpt>
      <trkpt lat="45.61945" lon="6.66051">
        <ele>2366</ele>
        <time>2016-02-06T12:04:19Z</time>
      </trkpt>
      <trkpt lat="45.61946" lon="6.66052">
        <ele>2366</ele>
        <time>2016-02-06T12:04:22Z</time>
      </trkpt>
      <trkpt lat="45.61948" lon="6.66052">
        <ele>2366</ele>
        <time>2016-02-06T12:04:26Z</time>
      </trkpt>
      <trkpt lat="45.61949" lon="6.66053">
        <ele>2366</ele>
        <time>2016-02-06T12:04:29Z</time>
      </trkpt>
      <trkpt lat="45.6195" lon="6.66054">
        <ele>2367</ele>
        <time>2016-02-06T12:04:32Z</time>
      </trkpt>
      <trkpt lat="45.61952" lon="6.66053">
        <ele>2367</ele>
        <time>2016-02-06T12:04:34Z</time>
      </trkpt>
      <trkpt lat="45.61953" lon="6.66054">
        <ele>2367</ele>
        <time>2016-02-06T12:04:38Z</time>
      </trkpt>
      <trkpt lat="45.61954" lon="6.66054">
        <ele>2367</ele>
        <time>2016-02-06T12:04:41Z</time>
      </trkpt>
      <trkpt lat="45.61956" lon="6.66055">
        <ele>2368</ele>
        <time>2016-02-06T12:04:44Z</time>
      </trkpt>
      <trkpt lat="45.61957" lon="6.66055">
        <ele>2368</ele>
        <time>2016-02-06T12:04:47Z</time>
      </trkpt>
      <trkpt lat="45.61959" lon="6.66056">
        <ele>2368</ele>
        <time>2016-02-06T12:04:50Z</time>
      </trkpt>
      <trkpt lat="45.6196" lon="6.66056">
        <ele>2368</ele>
        <time>2016-02-06T12:04:52Z</time>
      </trkpt>
      <trkpt lat="45.61961" lon="6.66056">
        <ele>2369</ele>
        <time>2016-02-06T12:04:54Z</time>
      </trkpt>
      <trkpt lat="45.61963" lon="6.66056">
        <ele>2369</ele>
        <time>2016-02-06T12:04:56Z</time>
      </trkpt>
      <trkpt lat="45.61964" lon="6.66056">
        <ele>2369</ele>
        <time>2016-02-06T12:04:58Z</time>
      </trkpt>
      <trkpt lat="45.61964" lon="6.66058">
        <ele>2370</ele>
        <time>2016-02-06T12:05:02Z</time>
      </trkpt>
      <trkpt lat="45.61966" lon="6.66058">
        <ele>2370</ele>
        <time>2016-02-06T12:05:05Z</time>
      </trkpt>
      <trkpt lat="45.61964" lon="6.66059">
        <ele>2370</ele>
        <time>2016-02-06T12:05:11Z</time>
      </trkpt>
      <trkpt lat="45.61964" lon="6.66057">
        <ele>2369</ele>
        <time>2016-02-06T12:05:22Z</time>
      </trkpt>
      <trkpt lat="45.61966" lon="6.66056">
        <ele>2369</ele>
        <time>2016-02-06T12:05:27Z</time>
      </trkpt>
      <trkpt lat="45.61967" lon="6.66056">
        <ele>2370</ele>
        <time>2016-02-06T12:05:29Z</time>
      </trkpt>
      <trkpt lat="45.61968" lon="6.66055">
        <ele>2370</ele>
        <time>2016-02-06T12:05:33Z</time>
      </trkpt>
      <trkpt lat="45.61969" lon="6.66055">
        <ele>2370</ele>
        <time>2016-02-06T12:05:36Z</time>
      </trkpt>
      <trkpt lat="45.61971" lon="6.66055">
        <ele>2370</ele>
        <time>2016-02-06T12:05:40Z</time>
      </trkpt>
      <trkpt lat="45.61972" lon="6.66056">
        <ele>2371</ele>
        <time>2016-02-06T12:05:43Z</time>
      </trkpt>
      <trkpt lat="45.61974" lon="6.66057">
        <ele>2371</ele>
        <time>2016-02-06T12:05:46Z</time>
      </trkpt>
      <trkpt lat="45.61975" lon="6.66058">
        <ele>2372</ele>
        <time>2016-02-06T12:05:48Z</time>
      </trkpt>
      <trkpt lat="45.61977" lon="6.66059">
        <ele>2373</ele>
        <time>2016-02-06T12:05:50Z</time>
      </trkpt>
      <trkpt lat="45.61979" lon="6.6606">
        <ele>2373</ele>
        <time>2016-02-06T12:05:52Z</time>
      </trkpt>
      <trkpt lat="45.6198" lon="6.66061">
        <ele>2374</ele>
        <time>2016-02-06T12:05:55Z</time>
      </trkpt>
      <trkpt lat="45.61981" lon="6.6606">
        <ele>2373</ele>
        <time>2016-02-06T12:06:02Z</time>
      </trkpt>
      <trkpt lat="45.61982" lon="6.66058">
        <ele>2373</ele>
        <time>2016-02-06T12:06:07Z</time>
      </trkpt>
      <trkpt lat="45.61983" lon="6.66058">
        <ele>2374</ele>
        <time>2016-02-06T12:06:10Z</time>
      </trkpt>
      <trkpt lat="45.61982" lon="6.6606">
        <ele>2374</ele>
        <time>2016-02-06T12:06:13Z</time>
      </trkpt>
      <trkpt lat="45.61982" lon="6.66061">
        <ele>2374</ele>
        <time>2016-02-06T12:06:16Z</time>
      </trkpt>
      <trkpt lat="45.61984" lon="6.66063">
        <ele>2375</ele>
        <time>2016-02-06T12:06:21Z</time>
      </trkpt>
      <trkpt lat="45.61986" lon="6.66065">
        <ele>2376</ele>
        <time>2016-02-06T12:06:24Z</time>
      </trkpt>
      <trkpt lat="45.61987" lon="6.66066">
        <ele>2377</ele>
        <time>2016-02-06T12:06:26Z</time>
      </trkpt>
      <trkpt lat="45.61988" lon="6.66068">
        <ele>2378</ele>
        <time>2016-02-06T12:06:32Z</time>
      </trkpt>
      <trkpt lat="45.6199" lon="6.66068">
        <ele>2379</ele>
        <time>2016-02-06T12:06:34Z</time>
      </trkpt>
      <trkpt lat="45.6199" lon="6.66066">
        <ele>2378</ele>
        <time>2016-02-06T12:06:41Z</time>
      </trkpt>
      <trkpt lat="45.6199" lon="6.66064">
        <ele>2377</ele>
        <time>2016-02-06T12:06:46Z</time>
      </trkpt>
      <trkpt lat="45.61991" lon="6.66064">
        <ele>2377</ele>
        <time>2016-02-06T12:06:51Z</time>
      </trkpt>
      <trkpt lat="45.61993" lon="6.66064">
        <ele>2378</ele>
        <time>2016-02-06T12:06:53Z</time>
      </trkpt>
      <trkpt lat="45.61994" lon="6.66064">
        <ele>2378</ele>
        <time>2016-02-06T12:06:56Z</time>
      </trkpt>
      <trkpt lat="45.61995" lon="6.66064">
        <ele>2378</ele>
        <time>2016-02-06T12:07:01Z</time>
      </trkpt>
      <trkpt lat="45.61996" lon="6.66065">
        <ele>2379</ele>
        <time>2016-02-06T12:07:06Z</time>
      </trkpt>
      <trkpt lat="45.61996" lon="6.66067">
        <ele>2380</ele>
        <time>2016-02-06T12:07:10Z</time>
      </trkpt>
      <trkpt lat="45.61998" lon="6.66069">
        <ele>2381</ele>
        <time>2016-02-06T12:07:13Z</time>
      </trkpt>
      <trkpt lat="45.61999" lon="6.6607">
        <ele>2382</ele>
        <time>2016-02-06T12:07:18Z</time>
      </trkpt>
      <trkpt lat="45.62" lon="6.66071">
        <ele>2389</ele>
        <time>2016-02-06T12:07:21Z</time>
      </trkpt>
      <trkpt lat="45.62002" lon="6.66072">
        <ele>2389</ele>
        <time>2016-02-06T12:07:26Z</time>
      </trkpt>
      <trkpt lat="45.62003" lon="6.66072">
        <ele>2389</ele>
        <time>2016-02-06T12:07:32Z</time>
      </trkpt>
      <trkpt lat="45.62004" lon="6.66072">
        <ele>2389</ele>
        <time>2016-02-06T12:07:37Z</time>
      </trkpt>
      <trkpt lat="45.62006" lon="6.66073">
        <ele>2389</ele>
        <time>2016-02-06T12:07:41Z</time>
      </trkpt>
      <trkpt lat="45.62007" lon="6.66073">
        <ele>2389</ele>
        <time>2016-02-06T12:07:44Z</time>
      </trkpt>
      <trkpt lat="45.62008" lon="6.66073">
        <ele>2389</ele>
        <time>2016-02-06T12:07:49Z</time>
      </trkpt>
      <trkpt lat="45.62009" lon="6.66074">
        <ele>2389</ele>
        <time>2016-02-06T12:07:56Z</time>
      </trkpt>
      <trkpt lat="45.6201" lon="6.66076">
        <ele>2390</ele>
        <time>2016-02-06T12:08:01Z</time>
      </trkpt>
      <trkpt lat="45.62011" lon="6.66076">
        <ele>2390</ele>
        <time>2016-02-06T12:08:03Z</time>
      </trkpt>
      <trkpt lat="45.62012" lon="6.66077">
        <ele>2390</ele>
        <time>2016-02-06T12:08:08Z</time>
      </trkpt>
      <trkpt lat="45.62012" lon="6.66079">
        <ele>2390</ele>
        <time>2016-02-06T12:08:13Z</time>
      </trkpt>
      <trkpt lat="45.62014" lon="6.6608">
        <ele>2390</ele>
        <time>2016-02-06T12:08:16Z</time>
      </trkpt>
      <trkpt lat="45.62015" lon="6.66081">
        <ele>2390</ele>
        <time>2016-02-06T12:08:22Z</time>
      </trkpt>
      <trkpt lat="45.62017" lon="6.66082">
        <ele>2390</ele>
        <time>2016-02-06T12:08:25Z</time>
      </trkpt>
      <trkpt lat="45.62018" lon="6.66082">
        <ele>2389</ele>
        <time>2016-02-06T12:08:29Z</time>
      </trkpt>
      <trkpt lat="45.62019" lon="6.66083">
        <ele>2389</ele>
        <time>2016-02-06T12:08:33Z</time>
      </trkpt>
      <trkpt lat="45.6202" lon="6.66083">
        <ele>2389</ele>
        <time>2016-02-06T12:08:38Z</time>
      </trkpt>
      <trkpt lat="45.62019" lon="6.66083">
        <ele>2389</ele>
        <time>2016-02-06T12:08:44Z</time>
      </trkpt>
      <trkpt lat="45.6202" lon="6.66083">
        <ele>2389</ele>
        <time>2016-02-06T12:08:57Z</time>
      </trkpt>
      <trkpt lat="45.62022" lon="6.66082">
        <ele>2389</ele>
        <time>2016-02-06T12:09:08Z</time>
      </trkpt>
      <trkpt lat="45.62023" lon="6.66081">
        <ele>2389</ele>
        <time>2016-02-06T12:09:10Z</time>
      </trkpt>
      <trkpt lat="45.62024" lon="6.66081">
        <ele>2389</ele>
        <time>2016-02-06T12:09:12Z</time>
      </trkpt>
      <trkpt lat="45.62026" lon="6.66081">
        <ele>2389</ele>
        <time>2016-02-06T12:09:14Z</time>
      </trkpt>
      <trkpt lat="45.62027" lon="6.66081">
        <ele>2389</ele>
        <time>2016-02-06T12:09:16Z</time>
      </trkpt>
      <trkpt lat="45.62029" lon="6.6608">
        <ele>2389</ele>
        <time>2016-02-06T12:09:18Z</time>
      </trkpt>
      <trkpt lat="45.6203" lon="6.6608">
        <ele>2389</ele>
        <time>2016-02-06T12:09:19Z</time>
      </trkpt>
      <trkpt lat="45.62032" lon="6.66078">
        <ele>2389</ele>
        <time>2016-02-06T12:09:21Z</time>
      </trkpt>
      <trkpt lat="45.62033" lon="6.66076">
        <ele>2389</ele>
        <time>2016-02-06T12:09:23Z</time>
      </trkpt>
      <trkpt lat="45.62035" lon="6.66075">
        <ele>2389</ele>
        <time>2016-02-06T12:09:25Z</time>
      </trkpt>
      <trkpt lat="45.62036" lon="6.66075">
        <ele>2389</ele>
        <time>2016-02-06T12:09:27Z</time>
      </trkpt>
      <trkpt lat="45.62038" lon="6.66074">
        <ele>2389</ele>
        <time>2016-02-06T12:09:29Z</time>
      </trkpt>
      <trkpt lat="45.62039" lon="6.66074">
        <ele>2389</ele>
        <time>2016-02-06T12:09:31Z</time>
      </trkpt>
      <trkpt lat="45.6204" lon="6.66074">
        <ele>2389</ele>
        <time>2016-02-06T12:09:33Z</time>
      </trkpt>
      <trkpt lat="45.62042" lon="6.66074">
        <ele>2390</ele>
        <time>2016-02-06T12:09:35Z</time>
      </trkpt>
      <trkpt lat="45.62043" lon="6.66074">
        <ele>2390</ele>
        <time>2016-02-06T12:09:37Z</time>
      </trkpt>
      <trkpt lat="45.62044" lon="6.66074">
        <ele>2390</ele>
        <time>2016-02-06T12:09:39Z</time>
      </trkpt>
      <trkpt lat="45.62045" lon="6.66075">
        <ele>2390</ele>
        <time>2016-02-06T12:09:41Z</time>
      </trkpt>
      <trkpt lat="45.62046" lon="6.66074">
        <ele>2390</ele>
        <time>2016-02-06T12:09:43Z</time>
      </trkpt>
      <trkpt lat="45.62048" lon="6.66074">
        <ele>2391</ele>
        <time>2016-02-06T12:09:46Z</time>
      </trkpt>
      <trkpt lat="45.6205" lon="6.66074">
        <ele>2391</ele>
        <time>2016-02-06T12:09:50Z</time>
      </trkpt>
      <trkpt lat="45.62051" lon="6.66074">
        <ele>2391</ele>
        <time>2016-02-06T12:10:09Z</time>
      </trkpt>
      <trkpt lat="45.62052" lon="6.66074">
        <ele>2391</ele>
        <time>2016-02-06T12:10:13Z</time>
      </trkpt>
      <trkpt lat="45.62054" lon="6.66073">
        <ele>2392</ele>
        <time>2016-02-06T12:10:16Z</time>
      </trkpt>
      <trkpt lat="45.62055" lon="6.66072">
        <ele>2392</ele>
        <time>2016-02-06T12:10:18Z</time>
      </trkpt>
      <trkpt lat="45.62056" lon="6.6607">
        <ele>2392</ele>
        <time>2016-02-06T12:10:20Z</time>
      </trkpt>
      <trkpt lat="45.62057" lon="6.6607">
        <ele>2392</ele>
        <time>2016-02-06T12:10:23Z</time>
      </trkpt>
      <trkpt lat="45.62059" lon="6.66069">
        <ele>2392</ele>
        <time>2016-02-06T12:10:26Z</time>
      </trkpt>
      <trkpt lat="45.6206" lon="6.66069">
        <ele>2393</ele>
        <time>2016-02-06T12:10:28Z</time>
      </trkpt>
      <trkpt lat="45.62062" lon="6.66069">
        <ele>2393</ele>
        <time>2016-02-06T12:10:30Z</time>
      </trkpt>
      <trkpt lat="45.62063" lon="6.6607">
        <ele>2393</ele>
        <time>2016-02-06T12:10:32Z</time>
      </trkpt>
      <trkpt lat="45.62064" lon="6.66069">
        <ele>2394</ele>
        <time>2016-02-06T12:10:35Z</time>
      </trkpt>
      <trkpt lat="45.62066" lon="6.6607">
        <ele>2394</ele>
        <time>2016-02-06T12:10:37Z</time>
      </trkpt>
      <trkpt lat="45.62067" lon="6.66069">
        <ele>2394</ele>
        <time>2016-02-06T12:10:39Z</time>
      </trkpt>
      <trkpt lat="45.62069" lon="6.66069">
        <ele>2395</ele>
        <time>2016-02-06T12:10:45Z</time>
      </trkpt>
      <trkpt lat="45.6207" lon="6.66069">
        <ele>2396</ele>
        <time>2016-02-06T12:10:48Z</time>
      </trkpt>
      <trkpt lat="45.62072" lon="6.66069">
        <ele>2396</ele>
        <time>2016-02-06T12:10:50Z</time>
      </trkpt>
      <trkpt lat="45.62073" lon="6.66069">
        <ele>2396</ele>
        <time>2016-02-06T12:10:52Z</time>
      </trkpt>
      <trkpt lat="45.62075" lon="6.66069">
        <ele>2396</ele>
        <time>2016-02-06T12:10:57Z</time>
      </trkpt>
      <trkpt lat="45.62077" lon="6.66068">
        <ele>2397</ele>
        <time>2016-02-06T12:11:00Z</time>
      </trkpt>
      <trkpt lat="45.62078" lon="6.66068">
        <ele>2397</ele>
        <time>2016-02-06T12:11:03Z</time>
      </trkpt>
      <trkpt lat="45.6208" lon="6.66068">
        <ele>2397</ele>
        <time>2016-02-06T12:11:06Z</time>
      </trkpt>
      <trkpt lat="45.62081" lon="6.66068">
        <ele>2397</ele>
        <time>2016-02-06T12:11:08Z</time>
      </trkpt>
      <trkpt lat="45.62082" lon="6.66069">
        <ele>2398</ele>
        <time>2016-02-06T12:11:10Z</time>
      </trkpt>
      <trkpt lat="45.62083" lon="6.66069">
        <ele>2401</ele>
        <time>2016-02-06T12:11:13Z</time>
      </trkpt>
      <trkpt lat="45.62085" lon="6.66069">
        <ele>2401</ele>
        <time>2016-02-06T12:11:17Z</time>
      </trkpt>
      <trkpt lat="45.62086" lon="6.66069">
        <ele>2401</ele>
        <time>2016-02-06T12:11:19Z</time>
      </trkpt>
      <trkpt lat="45.62088" lon="6.6607">
        <ele>2401</ele>
        <time>2016-02-06T12:11:21Z</time>
      </trkpt>
      <trkpt lat="45.6209" lon="6.6607">
        <ele>2401</ele>
        <time>2016-02-06T12:11:24Z</time>
      </trkpt>
      <trkpt lat="45.62091" lon="6.66071">
        <ele>2401</ele>
        <time>2016-02-06T12:11:26Z</time>
      </trkpt>
      <trkpt lat="45.62092" lon="6.66072">
        <ele>2401</ele>
        <time>2016-02-06T12:11:28Z</time>
      </trkpt>
      <trkpt lat="45.62092" lon="6.66073">
        <ele>2402</ele>
        <time>2016-02-06T12:11:32Z</time>
      </trkpt>
      <trkpt lat="45.62092" lon="6.66075">
        <ele>2402</ele>
        <time>2016-02-06T12:11:37Z</time>
      </trkpt>
      <trkpt lat="45.62094" lon="6.66075">
        <ele>2402</ele>
        <time>2016-02-06T12:11:39Z</time>
      </trkpt>
      <trkpt lat="45.62095" lon="6.66075">
        <ele>2401</ele>
        <time>2016-02-06T12:11:41Z</time>
      </trkpt>
      <trkpt lat="45.62097" lon="6.66076">
        <ele>2401</ele>
        <time>2016-02-06T12:11:44Z</time>
      </trkpt>
      <trkpt lat="45.62098" lon="6.66076">
        <ele>2401</ele>
        <time>2016-02-06T12:11:46Z</time>
      </trkpt>
      <trkpt lat="45.621" lon="6.66078">
        <ele>2401</ele>
        <time>2016-02-06T12:11:49Z</time>
      </trkpt>
      <trkpt lat="45.62101" lon="6.66078">
        <ele>2400</ele>
        <time>2016-02-06T12:11:51Z</time>
      </trkpt>
      <trkpt lat="45.62102" lon="6.66079">
        <ele>2400</ele>
        <time>2016-02-06T12:12:00Z</time>
      </trkpt>
      <trkpt lat="45.62104" lon="6.66079">
        <ele>2400</ele>
        <time>2016-02-06T12:12:03Z</time>
      </trkpt>
      <trkpt lat="45.62106" lon="6.66079">
        <ele>2400</ele>
        <time>2016-02-06T12:12:05Z</time>
      </trkpt>
      <trkpt lat="45.62107" lon="6.66079">
        <ele>2399</ele>
        <time>2016-02-06T12:12:07Z</time>
      </trkpt>
      <trkpt lat="45.62109" lon="6.6608">
        <ele>2399</ele>
        <time>2016-02-06T12:12:10Z</time>
      </trkpt>
      <trkpt lat="45.6211" lon="6.66081">
        <ele>2399</ele>
        <time>2016-02-06T12:12:12Z</time>
      </trkpt>
      <trkpt lat="45.62112" lon="6.66081">
        <ele>2399</ele>
        <time>2016-02-06T12:12:13Z</time>
      </trkpt>
      <trkpt lat="45.62113" lon="6.66082">
        <ele>2399</ele>
        <time>2016-02-06T12:12:16Z</time>
      </trkpt>
      <trkpt lat="45.62113" lon="6.66084">
        <ele>2409</ele>
        <time>2016-02-06T12:12:20Z</time>
      </trkpt>
      <trkpt lat="45.62113" lon="6.66086">
        <ele>2409</ele>
        <time>2016-02-06T12:12:23Z</time>
      </trkpt>
      <trkpt lat="45.62114" lon="6.66088">
        <ele>2408</ele>
        <time>2016-02-06T12:12:26Z</time>
      </trkpt>
      <trkpt lat="45.62114" lon="6.66089">
        <ele>2408</ele>
        <time>2016-02-06T12:12:30Z</time>
      </trkpt>
      <trkpt lat="45.62113" lon="6.66091">
        <ele>2408</ele>
        <time>2016-02-06T12:12:32Z</time>
      </trkpt>
      <trkpt lat="45.62114" lon="6.66092">
        <ele>2408</ele>
        <time>2016-02-06T12:12:35Z</time>
      </trkpt>
      <trkpt lat="45.62114" lon="6.66094">
        <ele>2408</ele>
        <time>2016-02-06T12:12:38Z</time>
      </trkpt>
      <trkpt lat="45.62115" lon="6.66095">
        <ele>2408</ele>
        <time>2016-02-06T12:12:41Z</time>
      </trkpt>
      <trkpt lat="45.62116" lon="6.66096">
        <ele>2408</ele>
        <time>2016-02-06T12:12:46Z</time>
      </trkpt>
      <trkpt lat="45.62117" lon="6.66096">
        <ele>2408</ele>
        <time>2016-02-06T12:12:48Z</time>
      </trkpt>
      <trkpt lat="45.62116" lon="6.66095">
        <ele>2408</ele>
        <time>2016-02-06T12:12:56Z</time>
      </trkpt>
      <trkpt lat="45.62118" lon="6.66094">
        <ele>2409</ele>
        <time>2016-02-06T12:13:00Z</time>
      </trkpt>
      <trkpt lat="45.62119" lon="6.66094">
        <ele>2409</ele>
        <time>2016-02-06T12:13:03Z</time>
      </trkpt>
      <trkpt lat="45.6212" lon="6.66092">
        <ele>2409</ele>
        <time>2016-02-06T12:13:06Z</time>
      </trkpt>
      <trkpt lat="45.62121" lon="6.66092">
        <ele>2409</ele>
        <time>2016-02-06T12:13:10Z</time>
      </trkpt>
      <trkpt lat="45.62121" lon="6.6609">
        <ele>2409</ele>
        <time>2016-02-06T12:13:13Z</time>
      </trkpt>
      <trkpt lat="45.62122" lon="6.66088">
        <ele>2409</ele>
        <time>2016-02-06T12:13:18Z</time>
      </trkpt>
      <trkpt lat="45.62124" lon="6.66088">
        <ele>2409</ele>
        <time>2016-02-06T12:13:20Z</time>
      </trkpt>
      <trkpt lat="45.62125" lon="6.66088">
        <ele>2409</ele>
        <time>2016-02-06T12:13:29Z</time>
      </trkpt>
      <trkpt lat="45.62127" lon="6.66087">
        <ele>2409</ele>
        <time>2016-02-06T12:13:32Z</time>
      </trkpt>
      <trkpt lat="45.62128" lon="6.66087">
        <ele>2409</ele>
        <time>2016-02-06T12:13:36Z</time>
      </trkpt>
      <trkpt lat="45.62128" lon="6.66089">
        <ele>2409</ele>
        <time>2016-02-06T12:13:42Z</time>
      </trkpt>
      <trkpt lat="45.6213" lon="6.66089">
        <ele>2409</ele>
        <time>2016-02-06T12:13:44Z</time>
      </trkpt>
      <trkpt lat="45.62131" lon="6.66089">
        <ele>2409</ele>
        <time>2016-02-06T12:13:47Z</time>
      </trkpt>
      <trkpt lat="45.62132" lon="6.66089">
        <ele>2409</ele>
        <time>2016-02-06T12:13:52Z</time>
      </trkpt>
      <trkpt lat="45.62131" lon="6.66089">
        <ele>2409</ele>
        <time>2016-02-06T12:13:54Z</time>
      </trkpt>
      <trkpt lat="45.62129" lon="6.66089">
        <ele>2409</ele>
        <time>2016-02-06T12:13:57Z</time>
      </trkpt>
      <trkpt lat="45.62128" lon="6.6609">
        <ele>2409</ele>
        <time>2016-02-06T12:13:59Z</time>
      </trkpt>
      <trkpt lat="45.62127" lon="6.6609">
        <ele>2409</ele>
        <time>2016-02-06T12:14:02Z</time>
      </trkpt>
      <trkpt lat="45.62125" lon="6.66091">
        <ele>2409</ele>
        <time>2016-02-06T12:14:04Z</time>
      </trkpt>
      <trkpt lat="45.62125" lon="6.66093">
        <ele>2409</ele>
        <time>2016-02-06T12:14:11Z</time>
      </trkpt>
      <trkpt lat="45.62127" lon="6.66095">
        <ele>2409</ele>
        <time>2016-02-06T12:14:15Z</time>
      </trkpt>
      <trkpt lat="45.62128" lon="6.66096">
        <ele>2409</ele>
        <time>2016-02-06T12:14:17Z</time>
      </trkpt>
      <trkpt lat="45.6213" lon="6.66097">
        <ele>2409</ele>
        <time>2016-02-06T12:14:19Z</time>
      </trkpt>
      <trkpt lat="45.6213" lon="6.66098">
        <ele>2409</ele>
        <time>2016-02-06T12:14:22Z</time>
      </trkpt>
      <trkpt lat="45.62132" lon="6.661">
        <ele>2409</ele>
        <time>2016-02-06T12:14:25Z</time>
      </trkpt>
      <trkpt lat="45.62133" lon="6.661">
        <ele>2409</ele>
        <time>2016-02-06T12:14:27Z</time>
      </trkpt>
      <trkpt lat="45.62135" lon="6.66101">
        <ele>2409</ele>
        <time>2016-02-06T12:14:28Z</time>
      </trkpt>
      <trkpt lat="45.62136" lon="6.66102">
        <ele>2409</ele>
        <time>2016-02-06T12:14:31Z</time>
      </trkpt>
      <trkpt lat="45.62137" lon="6.66103">
        <ele>2409</ele>
        <time>2016-02-06T12:14:34Z</time>
      </trkpt>
      <trkpt lat="45.62138" lon="6.66103">
        <ele>2409</ele>
        <time>2016-02-06T12:14:40Z</time>
      </trkpt>
      <trkpt lat="45.6214" lon="6.66102">
        <ele>2409</ele>
        <time>2016-02-06T12:14:45Z</time>
      </trkpt>
      <trkpt lat="45.62141" lon="6.66101">
        <ele>2410</ele>
        <time>2016-02-06T12:14:49Z</time>
      </trkpt>
      <trkpt lat="45.62142" lon="6.66102">
        <ele>2410</ele>
        <time>2016-02-06T12:14:53Z</time>
      </trkpt>
      <trkpt lat="45.62143" lon="6.66104">
        <ele>2410</ele>
        <time>2016-02-06T12:14:56Z</time>
      </trkpt>
      <trkpt lat="45.62145" lon="6.66105">
        <ele>2410</ele>
        <time>2016-02-06T12:14:59Z</time>
      </trkpt>
      <trkpt lat="45.62147" lon="6.66105">
        <ele>2410</ele>
        <time>2016-02-06T12:15:03Z</time>
      </trkpt>
      <trkpt lat="45.62148" lon="6.66105">
        <ele>2410</ele>
        <time>2016-02-06T12:15:09Z</time>
      </trkpt>
      <trkpt lat="45.62149" lon="6.66105">
        <ele>2410</ele>
        <time>2016-02-06T12:15:15Z</time>
      </trkpt>
      <trkpt lat="45.6215" lon="6.66103">
        <ele>2410</ele>
        <time>2016-02-06T12:15:21Z</time>
      </trkpt>
      <trkpt lat="45.62151" lon="6.66104">
        <ele>2410</ele>
        <time>2016-02-06T12:15:27Z</time>
      </trkpt>
      <trkpt lat="45.62152" lon="6.66104">
        <ele>2410</ele>
        <time>2016-02-06T12:15:29Z</time>
      </trkpt>
      <trkpt lat="45.62154" lon="6.66104">
        <ele>2410</ele>
        <time>2016-02-06T12:15:31Z</time>
      </trkpt>
      <trkpt lat="45.62155" lon="6.66105">
        <ele>2410</ele>
        <time>2016-02-06T12:15:34Z</time>
      </trkpt>
      <trkpt lat="45.62157" lon="6.66105">
        <ele>2410</ele>
        <time>2016-02-06T12:15:37Z</time>
      </trkpt>
      <trkpt lat="45.62158" lon="6.66105">
        <ele>2410</ele>
        <time>2016-02-06T12:15:39Z</time>
      </trkpt>
      <trkpt lat="45.6216" lon="6.66105">
        <ele>2410</ele>
        <time>2016-02-06T12:15:41Z</time>
      </trkpt>
      <trkpt lat="45.62162" lon="6.66106">
        <ele>2410</ele>
        <time>2016-02-06T12:15:44Z</time>
      </trkpt>
      <trkpt lat="45.62163" lon="6.66106">
        <ele>2410</ele>
        <time>2016-02-06T12:15:47Z</time>
      </trkpt>
      <trkpt lat="45.62164" lon="6.66106">
        <ele>2410</ele>
        <time>2016-02-06T12:15:49Z</time>
      </trkpt>
      <trkpt lat="45.62166" lon="6.66106">
        <ele>2410</ele>
        <time>2016-02-06T12:15:51Z</time>
      </trkpt>
      <trkpt lat="45.62167" lon="6.66106">
        <ele>2407</ele>
        <time>2016-02-06T12:15:53Z</time>
      </trkpt>
      <trkpt lat="45.62168" lon="6.66107">
        <ele>2407</ele>
        <time>2016-02-06T12:15:56Z</time>
      </trkpt>
      <trkpt lat="45.6217" lon="6.66108">
        <ele>2407</ele>
        <time>2016-02-06T12:15:59Z</time>
      </trkpt>
      <trkpt lat="45.62171" lon="6.66109">
        <ele>2407</ele>
        <time>2016-02-06T12:16:02Z</time>
      </trkpt>
      <trkpt lat="45.62172" lon="6.6611">
        <ele>2406</ele>
        <time>2016-02-06T12:16:05Z</time>
      </trkpt>
      <trkpt lat="45.62173" lon="6.66111">
        <ele>2406</ele>
        <time>2016-02-06T12:16:07Z</time>
      </trkpt>
      <trkpt lat="45.62175" lon="6.66111">
        <ele>2406</ele>
        <time>2016-02-06T12:16:09Z</time>
      </trkpt>
      <trkpt lat="45.62176" lon="6.66112">
        <ele>2406</ele>
        <time>2016-02-06T12:16:26Z</time>
      </trkpt>
      <trkpt lat="45.62177" lon="6.66113">
        <ele>2406</ele>
        <time>2016-02-06T12:16:29Z</time>
      </trkpt>
      <trkpt lat="45.62178" lon="6.66113">
        <ele>2406</ele>
        <time>2016-02-06T12:16:32Z</time>
      </trkpt>
      <trkpt lat="45.62177" lon="6.66114">
        <ele>2406</ele>
        <time>2016-02-06T12:16:38Z</time>
      </trkpt>
      <trkpt lat="45.62176" lon="6.66115">
        <ele>2406</ele>
        <time>2016-02-06T12:16:47Z</time>
      </trkpt>
      <trkpt lat="45.62175" lon="6.66116">
        <ele>2407</ele>
        <time>2016-02-06T12:16:51Z</time>
      </trkpt>
      <trkpt lat="45.62173" lon="6.66117">
        <ele>2407</ele>
        <time>2016-02-06T12:16:56Z</time>
      </trkpt>
      <trkpt lat="45.62172" lon="6.66118">
        <ele>2407</ele>
        <time>2016-02-06T12:17:00Z</time>
      </trkpt>
      <trkpt lat="45.62173" lon="6.66118">
        <ele>2407</ele>
        <time>2016-02-06T12:17:10Z</time>
      </trkpt>
      <trkpt lat="45.62175" lon="6.66117">
        <ele>2407</ele>
        <time>2016-02-06T12:17:14Z</time>
      </trkpt>
      <trkpt lat="45.62176" lon="6.66117">
        <ele>2406</ele>
        <time>2016-02-06T12:17:28Z</time>
      </trkpt>
      <trkpt lat="45.62177" lon="6.66116">
        <ele>2406</ele>
        <time>2016-02-06T12:17:33Z</time>
      </trkpt>
      <trkpt lat="45.62179" lon="6.66116">
        <ele>2406</ele>
        <time>2016-02-06T12:17:36Z</time>
      </trkpt>
      <trkpt lat="45.6218" lon="6.66117">
        <ele>2406</ele>
        <time>2016-02-06T12:17:47Z</time>
      </trkpt>
      <trkpt lat="45.62179" lon="6.66115">
        <ele>2406</ele>
        <time>2016-02-06T12:17:54Z</time>
      </trkpt>
      <trkpt lat="45.62181" lon="6.66113">
        <ele>2406</ele>
        <time>2016-02-06T12:17:56Z</time>
      </trkpt>
      <trkpt lat="45.62183" lon="6.66112">
        <ele>2405</ele>
        <time>2016-02-06T12:17:58Z</time>
      </trkpt>
      <trkpt lat="45.62184" lon="6.66111">
        <ele>2405</ele>
        <time>2016-02-06T12:17:59Z</time>
      </trkpt>
      <trkpt lat="45.62186" lon="6.66109">
        <ele>2405</ele>
        <time>2016-02-06T12:18:01Z</time>
      </trkpt>
      <trkpt lat="45.62187" lon="6.66108">
        <ele>2405</ele>
        <time>2016-02-06T12:18:04Z</time>
      </trkpt>
      <trkpt lat="45.62186" lon="6.66108">
        <ele>2405</ele>
        <time>2016-02-06T12:18:07Z</time>
      </trkpt>
      <trkpt lat="45.62184" lon="6.66109">
        <ele>2405</ele>
        <time>2016-02-06T12:18:09Z</time>
      </trkpt>
      <trkpt lat="45.62182" lon="6.66111">
        <ele>2405</ele>
        <time>2016-02-06T12:18:13Z</time>
      </trkpt>
      <trkpt lat="45.62181" lon="6.66112">
        <ele>2406</ele>
        <time>2016-02-06T12:18:16Z</time>
      </trkpt>
      <trkpt lat="45.6218" lon="6.66113">
        <ele>2406</ele>
        <time>2016-02-06T12:18:17Z</time>
      </trkpt>
      <trkpt lat="45.62178" lon="6.66114">
        <ele>2406</ele>
        <time>2016-02-06T12:18:18Z</time>
      </trkpt>
      <trkpt lat="45.62176" lon="6.66116">
        <ele>2406</ele>
        <time>2016-02-06T12:18:22Z</time>
      </trkpt>
      <trkpt lat="45.62175" lon="6.66116">
        <ele>2406</ele>
        <time>2016-02-06T12:18:28Z</time>
      </trkpt>
      <trkpt lat="45.62174" lon="6.66116">
        <ele>2407</ele>
        <time>2016-02-06T12:18:35Z</time>
      </trkpt>
      <trkpt lat="45.62173" lon="6.66117">
        <ele>2407</ele>
        <time>2016-02-06T12:18:42Z</time>
      </trkpt>
      <trkpt lat="45.62172" lon="6.66117">
        <ele>2407</ele>
        <time>2016-02-06T12:18:47Z</time>
      </trkpt>
      <trkpt lat="45.6217" lon="6.66117">
        <ele>2407</ele>
        <time>2016-02-06T12:18:52Z</time>
      </trkpt>
      <trkpt lat="45.62169" lon="6.66117">
        <ele>2407</ele>
        <time>2016-02-06T12:18:54Z</time>
      </trkpt>
      <trkpt lat="45.62168" lon="6.66116">
        <ele>2407</ele>
        <time>2016-02-06T12:18:58Z</time>
      </trkpt>
      <trkpt lat="45.62169" lon="6.66115">
        <ele>2407</ele>
        <time>2016-02-06T12:19:01Z</time>
      </trkpt>
      <trkpt lat="45.6217" lon="6.66114">
        <ele>2407</ele>
        <time>2016-02-06T12:19:04Z</time>
      </trkpt>
      <trkpt lat="45.62172" lon="6.66113">
        <ele>2407</ele>
        <time>2016-02-06T12:19:07Z</time>
      </trkpt>
      <trkpt lat="45.62173" lon="6.66112">
        <ele>2406</ele>
        <time>2016-02-06T12:19:12Z</time>
      </trkpt>
      <trkpt lat="45.62174" lon="6.66112">
        <ele>2406</ele>
        <time>2016-02-06T12:19:14Z</time>
      </trkpt>
      <trkpt lat="45.62176" lon="6.66111">
        <ele>2406</ele>
        <time>2016-02-06T12:19:16Z</time>
      </trkpt>
      <trkpt lat="45.62177" lon="6.6611">
        <ele>2406</ele>
        <time>2016-02-06T12:19:18Z</time>
      </trkpt>
      <trkpt lat="45.62178" lon="6.6611">
        <ele>2406</ele>
        <time>2016-02-06T12:19:21Z</time>
      </trkpt>
      <trkpt lat="45.6218" lon="6.66109">
        <ele>2406</ele>
        <time>2016-02-06T12:19:24Z</time>
      </trkpt>
      <trkpt lat="45.62181" lon="6.66108">
        <ele>2405</ele>
        <time>2016-02-06T12:19:32Z</time>
      </trkpt>
      <trkpt lat="45.62183" lon="6.66107">
        <ele>2405</ele>
        <time>2016-02-06T12:19:50Z</time>
      </trkpt>
      <trkpt lat="45.62182" lon="6.66108">
        <ele>2405</ele>
        <time>2016-02-06T12:20:10Z</time>
      </trkpt>
      <trkpt lat="45.62183" lon="6.66108">
        <ele>2405</ele>
        <time>2016-02-06T12:20:11Z</time>
      </trkpt>
      <trkpt lat="45.62185" lon="6.66107">
        <ele>2405</ele>
        <time>2016-02-06T12:20:12Z</time>
      </trkpt>
      <trkpt lat="45.62186" lon="6.66107">
        <ele>2405</ele>
        <time>2016-02-06T12:20:14Z</time>
      </trkpt>
      <trkpt lat="45.62188" lon="6.66106">
        <ele>2405</ele>
        <time>2016-02-06T12:20:17Z</time>
      </trkpt>
      <trkpt lat="45.62186" lon="6.66107">
        <ele>2405</ele>
        <time>2016-02-06T12:20:48Z</time>
      </trkpt>
      <trkpt lat="45.62185" lon="6.66107">
        <ele>2405</ele>
        <time>2016-02-06T12:20:51Z</time>
      </trkpt>
      <trkpt lat="45.62183" lon="6.66108">
        <ele>2405</ele>
        <time>2016-02-06T12:20:53Z</time>
      </trkpt>
      <trkpt lat="45.62182" lon="6.66108">
        <ele>2405</ele>
        <time>2016-02-06T12:20:56Z</time>
      </trkpt>
      <trkpt lat="45.62181" lon="6.66109">
        <ele>2406</ele>
        <time>2016-02-06T12:21:00Z</time>
      </trkpt>
      <trkpt lat="45.62182" lon="6.66109">
        <ele>2405</ele>
        <time>2016-02-06T12:21:41Z</time>
      </trkpt>
      <trkpt lat="45.62183" lon="6.66111">
        <ele>2405</ele>
        <time>2016-02-06T12:22:21Z</time>
      </trkpt>
      <trkpt lat="45.62183" lon="6.66112">
        <ele>2405</ele>
        <time>2016-02-06T12:22:27Z</time>
      </trkpt>
      <trkpt lat="45.62182" lon="6.66111">
        <ele>2405</ele>
        <time>2016-02-06T12:22:47Z</time>
      </trkpt>
      <trkpt lat="45.62181" lon="6.6611">
        <ele>2406</ele>
        <time>2016-02-06T12:23:03Z</time>
      </trkpt>
      <trkpt lat="45.6218" lon="6.6611">
        <ele>2406</ele>
        <time>2016-02-06T12:23:08Z</time>
      </trkpt>
      <trkpt lat="45.6218" lon="6.66109">
        <ele>2406</ele>
        <time>2016-02-06T12:23:10Z</time>
      </trkpt>
      <trkpt lat="45.62179" lon="6.66109">
        <ele>2406</ele>
        <time>2016-02-06T12:23:23Z</time>
      </trkpt>
      <trkpt lat="45.62178" lon="6.6611">
        <ele>2406</ele>
        <time>2016-02-06T12:23:33Z</time>
      </trkpt>
      <trkpt lat="45.62179" lon="6.66109">
        <ele>2406</ele>
        <time>2016-02-06T12:23:35Z</time>
      </trkpt>
      <trkpt lat="45.62178" lon="6.66111">
        <ele>2406</ele>
        <time>2016-02-06T12:23:40Z</time>
      </trkpt>
      <trkpt lat="45.62176" lon="6.66113">
        <ele>2406</ele>
        <time>2016-02-06T12:23:42Z</time>
      </trkpt>
      <trkpt lat="45.62175" lon="6.66113">
        <ele>2406</ele>
        <time>2016-02-06T12:23:45Z</time>
      </trkpt>
      <trkpt lat="45.62174" lon="6.66114">
        <ele>2407</ele>
        <time>2016-02-06T12:23:54Z</time>
      </trkpt>
      <trkpt lat="45.62172" lon="6.66115">
        <ele>2407</ele>
        <time>2016-02-06T12:24:07Z</time>
      </trkpt>
      <trkpt lat="45.62171" lon="6.66118">
        <ele>2407</ele>
        <time>2016-02-06T12:24:10Z</time>
      </trkpt>
      <trkpt lat="45.62172" lon="6.66117">
        <ele>2407</ele>
        <time>2016-02-06T12:24:12Z</time>
      </trkpt>
      <trkpt lat="45.62174" lon="6.66116">
        <ele>2407</ele>
        <time>2016-02-06T12:24:15Z</time>
      </trkpt>
      <trkpt lat="45.62175" lon="6.66116">
        <ele>2407</ele>
        <time>2016-02-06T12:24:20Z</time>
      </trkpt>
      <trkpt lat="45.62176" lon="6.66115">
        <ele>2406</ele>
        <time>2016-02-06T12:24:38Z</time>
      </trkpt>
      <trkpt lat="45.62175" lon="6.66113">
        <ele>2406</ele>
        <time>2016-02-06T12:25:16Z</time>
      </trkpt>
      <trkpt lat="45.62174" lon="6.66116">
        <ele>2407</ele>
        <time>2016-02-06T12:25:35Z</time>
      </trkpt>
      <trkpt lat="45.62172" lon="6.66116">
        <ele>2407</ele>
        <time>2016-02-06T12:25:38Z</time>
      </trkpt>
      <trkpt lat="45.62172" lon="6.66114">
        <ele>2407</ele>
        <time>2016-02-06T12:25:44Z</time>
      </trkpt>
      <trkpt lat="45.62171" lon="6.66112">
        <ele>2407</ele>
        <time>2016-02-06T12:25:56Z</time>
      </trkpt>
      <trkpt lat="45.62171" lon="6.66114">
        <ele>2407</ele>
        <time>2016-02-06T12:27:14Z</time>
      </trkpt>
      <trkpt lat="45.6217" lon="6.66115">
        <ele>2407</ele>
        <time>2016-02-06T12:27:55Z</time>
      </trkpt>
      <trkpt lat="45.6217" lon="6.66117">
        <ele>2407</ele>
        <time>2016-02-06T12:28:20Z</time>
      </trkpt>
      <trkpt lat="45.6217" lon="6.66118">
        <ele>2407</ele>
        <time>2016-02-06T12:31:30Z</time>
      </trkpt>
      <trkpt lat="45.6217" lon="6.6612">
        <ele>2407</ele>
        <time>2016-02-06T12:33:13Z</time>
      </trkpt>
      <trkpt lat="45.62172" lon="6.6612">
        <ele>2407</ele>
        <time>2016-02-06T12:33:40Z</time>
      </trkpt>
      <trkpt lat="45.62171" lon="6.66118">
        <ele>2407</ele>
        <time>2016-02-06T12:34:10Z</time>
      </trkpt>
      <trkpt lat="45.6217" lon="6.66117">
        <ele>2407</ele>
        <time>2016-02-06T12:34:15Z</time>
      </trkpt>
      <trkpt lat="45.62169" lon="6.66117">
        <ele>2407</ele>
        <time>2016-02-06T12:34:19Z</time>
      </trkpt>
      <trkpt lat="45.62168" lon="6.66116">
        <ele>2407</ele>
        <time>2016-02-06T12:34:24Z</time>
      </trkpt>
      <trkpt lat="45.62167" lon="6.66116">
        <ele>2411</ele>
        <time>2016-02-06T12:34:30Z</time>
      </trkpt>
      <trkpt lat="45.62165" lon="6.66116">
        <ele>2411</ele>
        <time>2016-02-06T12:34:36Z</time>
      </trkpt>
      <trkpt lat="45.62164" lon="6.66116">
        <ele>2411</ele>
        <time>2016-02-06T12:34:43Z</time>
      </trkpt>
      <trkpt lat="45.62165" lon="6.66115">
        <ele>2411</ele>
        <time>2016-02-06T12:34:54Z</time>
      </trkpt>
      <trkpt lat="45.62167" lon="6.66114">
        <ele>2411</ele>
        <time>2016-02-06T12:35:00Z</time>
      </trkpt>
      <trkpt lat="45.62168" lon="6.66113">
        <ele>2407</ele>
        <time>2016-02-06T12:35:07Z</time>
      </trkpt>
      <trkpt lat="45.62167" lon="6.66115">
        <ele>2407</ele>
        <time>2016-02-06T12:35:25Z</time>
      </trkpt>
      <trkpt lat="45.62166" lon="6.66116">
        <ele>2411</ele>
        <time>2016-02-06T12:35:29Z</time>
      </trkpt>
      <trkpt lat="45.62165" lon="6.66117">
        <ele>2411</ele>
        <time>2016-02-06T12:35:33Z</time>
      </trkpt>
      <trkpt lat="45.62164" lon="6.66118">
        <ele>2411</ele>
        <time>2016-02-06T12:35:38Z</time>
      </trkpt>
      <trkpt lat="45.62162" lon="6.66119">
        <ele>2411</ele>
        <time>2016-02-06T12:35:56Z</time>
      </trkpt>
      <trkpt lat="45.62164" lon="6.66118">
        <ele>2411</ele>
        <time>2016-02-06T12:36:37Z</time>
      </trkpt>
      <trkpt lat="45.62165" lon="6.66117">
        <ele>2411</ele>
        <time>2016-02-06T12:36:40Z</time>
      </trkpt>
      <trkpt lat="45.62167" lon="6.66116">
        <ele>2411</ele>
        <time>2016-02-06T12:36:50Z</time>
      </trkpt>
      <trkpt lat="45.62168" lon="6.66115">
        <ele>2407</ele>
        <time>2016-02-06T12:36:53Z</time>
      </trkpt>
      <trkpt lat="45.62169" lon="6.66114">
        <ele>2407</ele>
        <time>2016-02-06T12:36:57Z</time>
      </trkpt>
      <trkpt lat="45.62168" lon="6.66115">
        <ele>2407</ele>
        <time>2016-02-06T12:37:06Z</time>
      </trkpt>
      <trkpt lat="45.62167" lon="6.66116">
        <ele>2407</ele>
        <time>2016-02-06T12:37:14Z</time>
      </trkpt>
      <trkpt lat="45.62166" lon="6.66117">
        <ele>2411</ele>
        <time>2016-02-06T12:37:26Z</time>
      </trkpt>
      <trkpt lat="45.62167" lon="6.66116">
        <ele>2407</ele>
        <time>2016-02-06T12:37:39Z</time>
      </trkpt>
      <trkpt lat="45.62169" lon="6.66115">
        <ele>2407</ele>
        <time>2016-02-06T12:37:41Z</time>
      </trkpt>
      <trkpt lat="45.6217" lon="6.66114">
        <ele>2407</ele>
        <time>2016-02-06T12:37:43Z</time>
      </trkpt>
      <trkpt lat="45.62171" lon="6.66114">
        <ele>2407</ele>
        <time>2016-02-06T12:37:46Z</time>
      </trkpt>
      <trkpt lat="45.62172" lon="6.66113">
        <ele>2407</ele>
        <time>2016-02-06T12:37:49Z</time>
      </trkpt>
      <trkpt lat="45.62174" lon="6.66113">
        <ele>2406</ele>
        <time>2016-02-06T12:38:12Z</time>
      </trkpt>
      <trkpt lat="45.62175" lon="6.66113">
        <ele>2406</ele>
        <time>2016-02-06T12:38:17Z</time>
      </trkpt>
      <trkpt lat="45.62176" lon="6.66114">
        <ele>2406</ele>
        <time>2016-02-06T12:38:21Z</time>
      </trkpt>
      <trkpt lat="45.62176" lon="6.66116">
        <ele>2406</ele>
        <time>2016-02-06T12:38:35Z</time>
      </trkpt>
      <trkpt lat="45.62178" lon="6.66115">
        <ele>2406</ele>
        <time>2016-02-06T12:38:42Z</time>
      </trkpt>
      <trkpt lat="45.62177" lon="6.66115">
        <ele>2406</ele>
        <time>2016-02-06T12:38:46Z</time>
      </trkpt>
      <trkpt lat="45.62175" lon="6.66117">
        <ele>2407</ele>
        <time>2016-02-06T12:38:50Z</time>
      </trkpt>
      <trkpt lat="45.62177" lon="6.66116">
        <ele>2406</ele>
        <time>2016-02-06T12:38:56Z</time>
      </trkpt>
      <trkpt lat="45.62178" lon="6.66115">
        <ele>2406</ele>
        <time>2016-02-06T12:38:59Z</time>
      </trkpt>
      <trkpt lat="45.62178" lon="6.66114">
        <ele>2406</ele>
        <time>2016-02-06T12:39:02Z</time>
      </trkpt>
      <trkpt lat="45.62179" lon="6.66113">
        <ele>2406</ele>
        <time>2016-02-06T12:39:04Z</time>
      </trkpt>
      <trkpt lat="45.6218" lon="6.66112">
        <ele>2406</ele>
        <time>2016-02-06T12:39:08Z</time>
      </trkpt>
      <trkpt lat="45.62179" lon="6.66114">
        <ele>2406</ele>
        <time>2016-02-06T12:39:14Z</time>
      </trkpt>
      <trkpt lat="45.62178" lon="6.66113">
        <ele>2406</ele>
        <time>2016-02-06T12:39:17Z</time>
      </trkpt>
      <trkpt lat="45.62177" lon="6.66112">
        <ele>2406</ele>
        <time>2016-02-06T12:39:21Z</time>
      </trkpt>
      <trkpt lat="45.62175" lon="6.66111">
        <ele>2406</ele>
        <time>2016-02-06T12:39:23Z</time>
      </trkpt>
      <trkpt lat="45.62174" lon="6.6611">
        <ele>2406</ele>
        <time>2016-02-06T12:39:24Z</time>
      </trkpt>
      <trkpt lat="45.62174" lon="6.66112">
        <ele>2406</ele>
        <time>2016-02-06T12:39:31Z</time>
      </trkpt>
      <trkpt lat="45.62175" lon="6.66112">
        <ele>2406</ele>
        <time>2016-02-06T12:39:33Z</time>
      </trkpt>
      <trkpt lat="45.62177" lon="6.66112">
        <ele>2406</ele>
        <time>2016-02-06T12:39:35Z</time>
      </trkpt>
      <trkpt lat="45.62178" lon="6.66112">
        <ele>2406</ele>
        <time>2016-02-06T12:39:37Z</time>
      </trkpt>
      <trkpt lat="45.6218" lon="6.66112">
        <ele>2406</ele>
        <time>2016-02-06T12:39:38Z</time>
      </trkpt>
      <trkpt lat="45.62181" lon="6.66113">
        <ele>2406</ele>
        <time>2016-02-06T12:39:45Z</time>
      </trkpt>
      <trkpt lat="45.62179" lon="6.66113">
        <ele>2406</ele>
        <time>2016-02-06T12:39:49Z</time>
      </trkpt>
      <trkpt lat="45.6218" lon="6.66113">
        <ele>2406</ele>
        <time>2016-02-06T12:39:52Z</time>
      </trkpt>
      <trkpt lat="45.62179" lon="6.66111">
        <ele>2406</ele>
        <time>2016-02-06T12:40:00Z</time>
      </trkpt>
      <trkpt lat="45.62178" lon="6.6611">
        <ele>2406</ele>
        <time>2016-02-06T12:40:04Z</time>
      </trkpt>
      <trkpt lat="45.6218" lon="6.6611">
        <ele>2406</ele>
        <time>2016-02-06T12:40:08Z</time>
      </trkpt>
      <trkpt lat="45.62182" lon="6.66111">
        <ele>2405</ele>
        <time>2016-02-06T12:40:10Z</time>
      </trkpt>
      <trkpt lat="45.62181" lon="6.66111">
        <ele>2406</ele>
        <time>2016-02-06T12:40:21Z</time>
      </trkpt>
      <trkpt lat="45.6218" lon="6.6611">
        <ele>2406</ele>
        <time>2016-02-06T12:40:25Z</time>
      </trkpt>
      <trkpt lat="45.62178" lon="6.66109">
        <ele>2406</ele>
        <time>2016-02-06T12:40:31Z</time>
      </trkpt>
      <trkpt lat="45.62177" lon="6.66109">
        <ele>2406</ele>
        <time>2016-02-06T12:40:32Z</time>
      </trkpt>
      <trkpt lat="45.62175" lon="6.66109">
        <ele>2406</ele>
        <time>2016-02-06T12:40:34Z</time>
      </trkpt>
      <trkpt lat="45.62174" lon="6.66109">
        <ele>2406</ele>
        <time>2016-02-06T12:40:38Z</time>
      </trkpt>
      <trkpt lat="45.62173" lon="6.66109">
        <ele>2406</ele>
        <time>2016-02-06T12:40:45Z</time>
      </trkpt>
      <trkpt lat="45.62174" lon="6.66111">
        <ele>2406</ele>
        <time>2016-02-06T12:40:53Z</time>
      </trkpt>
      <trkpt lat="45.62173" lon="6.66112">
        <ele>2407</ele>
        <time>2016-02-06T12:40:57Z</time>
      </trkpt>
      <trkpt lat="45.62172" lon="6.66112">
        <ele>2407</ele>
        <time>2016-02-06T12:41:03Z</time>
      </trkpt>
      <trkpt lat="45.6217" lon="6.66111">
        <ele>2407</ele>
        <time>2016-02-06T12:41:06Z</time>
      </trkpt>
      <trkpt lat="45.62169" lon="6.66112">
        <ele>2407</ele>
        <time>2016-02-06T12:41:09Z</time>
      </trkpt>
      <trkpt lat="45.62167" lon="6.6611">
        <ele>2411</ele>
        <time>2016-02-06T12:41:11Z</time>
      </trkpt>
      <trkpt lat="45.62165" lon="6.66109">
        <ele>2411</ele>
        <time>2016-02-06T12:41:12Z</time>
      </trkpt>
      <trkpt lat="45.62162" lon="6.66108">
        <ele>2410</ele>
        <time>2016-02-06T12:41:13Z</time>
      </trkpt>
      <trkpt lat="45.62159" lon="6.66106">
        <ele>2410</ele>
        <time>2016-02-06T12:41:14Z</time>
      </trkpt>
      <trkpt lat="45.62155" lon="6.66106">
        <ele>2410</ele>
        <time>2016-02-06T12:41:15Z</time>
      </trkpt>
      <trkpt lat="45.62151" lon="6.66105">
        <ele>2410</ele>
        <time>2016-02-06T12:41:16Z</time>
      </trkpt>
      <trkpt lat="45.62147" lon="6.66104">
        <ele>2410</ele>
        <time>2016-02-06T12:41:17Z</time>
      </trkpt>
      <trkpt lat="45.62143" lon="6.66103">
        <ele>2410</ele>
        <time>2016-02-06T12:41:18Z</time>
      </trkpt>
      <trkpt lat="45.62139" lon="6.66102">
        <ele>2409</ele>
        <time>2016-02-06T12:41:19Z</time>
      </trkpt>
      <trkpt lat="45.62136" lon="6.66099">
        <ele>2409</ele>
        <time>2016-02-06T12:41:20Z</time>
      </trkpt>
      <trkpt lat="45.62132" lon="6.66097">
        <ele>2409</ele>
        <time>2016-02-06T12:41:21Z</time>
      </trkpt>
      <trkpt lat="45.62128" lon="6.66096">
        <ele>2409</ele>
        <time>2016-02-06T12:41:22Z</time>
      </trkpt>
      <trkpt lat="45.62125" lon="6.66097">
        <ele>2409</ele>
        <time>2016-02-06T12:41:23Z</time>
      </trkpt>
      <trkpt lat="45.62122" lon="6.66097">
        <ele>2409</ele>
        <time>2016-02-06T12:41:24Z</time>
      </trkpt>
      <trkpt lat="45.62121" lon="6.66098">
        <ele>2409</ele>
        <time>2016-02-06T12:41:26Z</time>
      </trkpt>
      <trkpt lat="45.6212" lon="6.66098">
        <ele>2409</ele>
        <time>2016-02-06T12:41:28Z</time>
      </trkpt>
      <trkpt lat="45.62118" lon="6.66098">
        <ele>2408</ele>
        <time>2016-02-06T12:41:30Z</time>
      </trkpt>
      <trkpt lat="45.62116" lon="6.66097">
        <ele>2408</ele>
        <time>2016-02-06T12:41:31Z</time>
      </trkpt>
      <trkpt lat="45.62113" lon="6.66096">
        <ele>2408</ele>
        <time>2016-02-06T12:41:32Z</time>
      </trkpt>
      <trkpt lat="45.6211" lon="6.66094">
        <ele>2408</ele>
        <time>2016-02-06T12:41:33Z</time>
      </trkpt>
      <trkpt lat="45.62104" lon="6.66089">
        <ele>2408</ele>
        <time>2016-02-06T12:41:34Z</time>
      </trkpt>
      <trkpt lat="45.62098" lon="6.66085">
        <ele>2408</ele>
        <time>2016-02-06T12:41:35Z</time>
      </trkpt>
      <trkpt lat="45.62091" lon="6.66081">
        <ele>2404</ele>
        <time>2016-02-06T12:41:36Z</time>
      </trkpt>
      <trkpt lat="45.62083" lon="6.66078">
        <ele>2406</ele>
        <time>2016-02-06T12:41:37Z</time>
      </trkpt>
      <trkpt lat="45.62075" lon="6.66076">
        <ele>2400</ele>
        <time>2016-02-06T12:41:38Z</time>
      </trkpt>
      <trkpt lat="45.62068" lon="6.66076">
        <ele>2397</ele>
        <time>2016-02-06T12:41:39Z</time>
      </trkpt>
      <trkpt lat="45.62061" lon="6.66076">
        <ele>2394</ele>
        <time>2016-02-06T12:41:40Z</time>
      </trkpt>
      <trkpt lat="45.62054" lon="6.66076">
        <ele>2392</ele>
        <time>2016-02-06T12:41:41Z</time>
      </trkpt>
      <trkpt lat="45.62049" lon="6.66075">
        <ele>2391</ele>
        <time>2016-02-06T12:41:42Z</time>
      </trkpt>
      <trkpt lat="45.62044" lon="6.66075">
        <ele>2390</ele>
        <time>2016-02-06T12:41:43Z</time>
      </trkpt>
      <trkpt lat="45.62039" lon="6.66075">
        <ele>2389</ele>
        <time>2016-02-06T12:41:44Z</time>
      </trkpt>
      <trkpt lat="45.62035" lon="6.66074">
        <ele>2389</ele>
        <time>2016-02-06T12:41:45Z</time>
      </trkpt>
      <trkpt lat="45.62032" lon="6.66073">
        <ele>2389</ele>
        <time>2016-02-06T12:41:46Z</time>
      </trkpt>
      <trkpt lat="45.62029" lon="6.66073">
        <ele>2388</ele>
        <time>2016-02-06T12:41:47Z</time>
      </trkpt>
      <trkpt lat="45.62027" lon="6.66072">
        <ele>2388</ele>
        <time>2016-02-06T12:41:48Z</time>
      </trkpt>
      <trkpt lat="45.62025" lon="6.66075">
        <ele>2389</ele>
        <time>2016-02-06T12:41:49Z</time>
      </trkpt>
      <trkpt lat="45.62025" lon="6.66077">
        <ele>2389</ele>
        <time>2016-02-06T12:41:51Z</time>
      </trkpt>
      <trkpt lat="45.62026" lon="6.66077">
        <ele>2389</ele>
        <time>2016-02-06T12:41:54Z</time>
      </trkpt>
      <trkpt lat="45.62028" lon="6.66077">
        <ele>2389</ele>
        <time>2016-02-06T12:41:58Z</time>
      </trkpt>
      <trkpt lat="45.62029" lon="6.66076">
        <ele>2389</ele>
        <time>2016-02-06T12:42:00Z</time>
      </trkpt>
      <trkpt lat="45.6203" lon="6.66075">
        <ele>2389</ele>
        <time>2016-02-06T12:42:02Z</time>
      </trkpt>
      <trkpt lat="45.62032" lon="6.66076">
        <ele>2389</ele>
        <time>2016-02-06T12:42:04Z</time>
      </trkpt>
      <trkpt lat="45.62033" lon="6.66076">
        <ele>2389</ele>
        <time>2016-02-06T12:42:09Z</time>
      </trkpt>
      <trkpt lat="45.62035" lon="6.66077">
        <ele>2389</ele>
        <time>2016-02-06T12:42:13Z</time>
      </trkpt>
      <trkpt lat="45.62034" lon="6.66079">
        <ele>2389</ele>
        <time>2016-02-06T12:42:25Z</time>
      </trkpt>
      <trkpt lat="45.62034" lon="6.6608">
        <ele>2389</ele>
        <time>2016-02-06T12:42:29Z</time>
      </trkpt>
      <trkpt lat="45.62032" lon="6.66081">
        <ele>2389</ele>
        <time>2016-02-06T12:42:32Z</time>
      </trkpt>
      <trkpt lat="45.62033" lon="6.66079">
        <ele>2389</ele>
        <time>2016-02-06T12:42:35Z</time>
      </trkpt>
      <trkpt lat="45.62034" lon="6.66078">
        <ele>2389</ele>
        <time>2016-02-06T12:42:38Z</time>
      </trkpt>
      <trkpt lat="45.62032" lon="6.66078">
        <ele>2389</ele>
        <time>2016-02-06T12:42:42Z</time>
      </trkpt>
      <trkpt lat="45.6203" lon="6.66078">
        <ele>2389</ele>
        <time>2016-02-06T12:42:43Z</time>
      </trkpt>
      <trkpt lat="45.62029" lon="6.66077">
        <ele>2389</ele>
        <time>2016-02-06T12:42:44Z</time>
      </trkpt>
      <trkpt lat="45.62026" lon="6.66077">
        <ele>2389</ele>
        <time>2016-02-06T12:42:46Z</time>
      </trkpt>
      <trkpt lat="45.62022" lon="6.66075">
        <ele>2389</ele>
        <time>2016-02-06T12:42:47Z</time>
      </trkpt>
      <trkpt lat="45.62019" lon="6.66074">
        <ele>2389</ele>
        <time>2016-02-06T12:42:48Z</time>
      </trkpt>
      <trkpt lat="45.62016" lon="6.66074">
        <ele>2389</ele>
        <time>2016-02-06T12:42:49Z</time>
      </trkpt>
      <trkpt lat="45.62013" lon="6.66074">
        <ele>2389</ele>
        <time>2016-02-06T12:42:50Z</time>
      </trkpt>
      <trkpt lat="45.62011" lon="6.66074">
        <ele>2389</ele>
        <time>2016-02-06T12:42:51Z</time>
      </trkpt>
      <trkpt lat="45.62009" lon="6.66072">
        <ele>2389</ele>
        <time>2016-02-06T12:42:52Z</time>
      </trkpt>
      <trkpt lat="45.62007" lon="6.66071">
        <ele>2389</ele>
        <time>2016-02-06T12:42:53Z</time>
      </trkpt>
      <trkpt lat="45.62005" lon="6.66071">
        <ele>2389</ele>
        <time>2016-02-06T12:42:54Z</time>
      </trkpt>
      <trkpt lat="45.62002" lon="6.66071">
        <ele>2389</ele>
        <time>2016-02-06T12:42:55Z</time>
      </trkpt>
      <trkpt lat="45.61999" lon="6.66071">
        <ele>2382</ele>
        <time>2016-02-06T12:42:56Z</time>
      </trkpt>
      <trkpt lat="45.61997" lon="6.66071">
        <ele>2382</ele>
        <time>2016-02-06T12:42:57Z</time>
      </trkpt>
      <trkpt lat="45.61996" lon="6.66069">
        <ele>2381</ele>
        <time>2016-02-06T12:42:58Z</time>
      </trkpt>
      <trkpt lat="45.61995" lon="6.66066">
        <ele>2379</ele>
        <time>2016-02-06T12:42:59Z</time>
      </trkpt>
      <trkpt lat="45.61993" lon="6.66066">
        <ele>2378</ele>
        <time>2016-02-06T12:43:00Z</time>
      </trkpt>
      <trkpt lat="45.61991" lon="6.66067">
        <ele>2378</ele>
        <time>2016-02-06T12:43:01Z</time>
      </trkpt>
      <trkpt lat="45.61988" lon="6.66067">
        <ele>2378</ele>
        <time>2016-02-06T12:43:02Z</time>
      </trkpt>
      <trkpt lat="45.61987" lon="6.66067">
        <ele>2377</ele>
        <time>2016-02-06T12:43:03Z</time>
      </trkpt>
      <trkpt lat="45.61983" lon="6.66068">
        <ele>2377</ele>
        <time>2016-02-06T12:43:04Z</time>
      </trkpt>
      <trkpt lat="45.6198" lon="6.66067">
        <ele>2375</ele>
        <time>2016-02-06T12:43:05Z</time>
      </trkpt>
      <trkpt lat="45.61977" lon="6.66065">
        <ele>2374</ele>
        <time>2016-02-06T12:43:06Z</time>
      </trkpt>
      <trkpt lat="45.61974" lon="6.66059">
        <ele>2372</ele>
        <time>2016-02-06T12:43:07Z</time>
      </trkpt>
      <trkpt lat="45.61972" lon="6.66058">
        <ele>2371</ele>
        <time>2016-02-06T12:43:08Z</time>
      </trkpt>
      <trkpt lat="45.61969" lon="6.66058">
        <ele>2371</ele>
        <time>2016-02-06T12:43:09Z</time>
      </trkpt>
      <trkpt lat="45.61968" lon="6.66058">
        <ele>2370</ele>
        <time>2016-02-06T12:43:10Z</time>
      </trkpt>
      <trkpt lat="45.61967" lon="6.66058">
        <ele>2370</ele>
        <time>2016-02-06T12:43:11Z</time>
      </trkpt>
      <trkpt lat="45.61965" lon="6.66058">
        <ele>2370</ele>
        <time>2016-02-06T12:43:12Z</time>
      </trkpt>
      <trkpt lat="45.61962" lon="6.66058">
        <ele>2369</ele>
        <time>2016-02-06T12:43:13Z</time>
      </trkpt>
      <trkpt lat="45.61959" lon="6.66056">
        <ele>2368</ele>
        <time>2016-02-06T12:43:14Z</time>
      </trkpt>
      <trkpt lat="45.61957" lon="6.66052">
        <ele>2367</ele>
        <time>2016-02-06T12:43:15Z</time>
      </trkpt>
      <trkpt lat="45.61957" lon="6.66049">
        <ele>2367</ele>
        <time>2016-02-06T12:43:16Z</time>
      </trkpt>
      <trkpt lat="45.61957" lon="6.66048">
        <ele>2367</ele>
        <time>2016-02-06T12:43:17Z</time>
      </trkpt>
      <trkpt lat="45.61958" lon="6.66046">
        <ele>2367</ele>
        <time>2016-02-06T12:43:18Z</time>
      </trkpt>
      <trkpt lat="45.61961" lon="6.66044">
        <ele>2367</ele>
        <time>2016-02-06T12:43:19Z</time>
      </trkpt>
      <trkpt lat="45.61964" lon="6.66042">
        <ele>2367</ele>
        <time>2016-02-06T12:43:20Z</time>
      </trkpt>
      <trkpt lat="45.61965" lon="6.66042">
        <ele>2367</ele>
        <time>2016-02-06T12:43:21Z</time>
      </trkpt>
      <trkpt lat="45.61966" lon="6.66042">
        <ele>2367</ele>
        <time>2016-02-06T12:43:24Z</time>
      </trkpt>
      <trkpt lat="45.61965" lon="6.66044">
        <ele>2368</ele>
        <time>2016-02-06T12:43:27Z</time>
      </trkpt>
      <trkpt lat="45.61964" lon="6.66045">
        <ele>2367</ele>
        <time>2016-02-06T12:43:30Z</time>
      </trkpt>
      <trkpt lat="45.61962" lon="6.66046">
        <ele>2367</ele>
        <time>2016-02-06T12:43:32Z</time>
      </trkpt>
      <trkpt lat="45.61961" lon="6.66045">
        <ele>2367</ele>
        <time>2016-02-06T12:43:34Z</time>
      </trkpt>
      <trkpt lat="45.6196" lon="6.66045">
        <ele>2367</ele>
        <time>2016-02-06T12:43:35Z</time>
      </trkpt>
      <trkpt lat="45.61958" lon="6.66044">
        <ele>2367</ele>
        <time>2016-02-06T12:43:40Z</time>
      </trkpt>
      <trkpt lat="45.61959" lon="6.66041">
        <ele>2366</ele>
        <time>2016-02-06T12:43:41Z</time>
      </trkpt>
      <trkpt lat="45.61959" lon="6.66039">
        <ele>2366</ele>
        <time>2016-02-06T12:43:42Z</time>
      </trkpt>
      <trkpt lat="45.61957" lon="6.66038">
        <ele>2366</ele>
        <time>2016-02-06T12:43:50Z</time>
      </trkpt>
      <trkpt lat="45.61958" lon="6.66037">
        <ele>2366</ele>
        <time>2016-02-06T12:43:55Z</time>
      </trkpt>
      <trkpt lat="45.61959" lon="6.66037">
        <ele>2366</ele>
        <time>2016-02-06T12:43:57Z</time>
      </trkpt>
      <trkpt lat="45.61961" lon="6.66037">
        <ele>2366</ele>
        <time>2016-02-06T12:43:59Z</time>
      </trkpt>
      <trkpt lat="45.61962" lon="6.66037">
        <ele>2366</ele>
        <time>2016-02-06T12:44:00Z</time>
      </trkpt>
      <trkpt lat="45.61963" lon="6.66039">
        <ele>2366</ele>
        <time>2016-02-06T12:44:06Z</time>
      </trkpt>
      <trkpt lat="45.61962" lon="6.66039">
        <ele>2366</ele>
        <time>2016-02-06T12:44:11Z</time>
      </trkpt>
      <trkpt lat="45.61961" lon="6.66037">
        <ele>2366</ele>
        <time>2016-02-06T12:44:12Z</time>
      </trkpt>
      <trkpt lat="45.61961" lon="6.66038">
        <ele>2366</ele>
        <time>2016-02-06T12:44:28Z</time>
      </trkpt>
      <trkpt lat="45.61962" lon="6.6604">
        <ele>2366</ele>
        <time>2016-02-06T12:44:34Z</time>
      </trkpt>
      <trkpt lat="45.61961" lon="6.66042">
        <ele>2367</ele>
        <time>2016-02-06T12:44:44Z</time>
      </trkpt>
      <trkpt lat="45.61962" lon="6.66043">
        <ele>2367</ele>
        <time>2016-02-06T12:44:48Z</time>
      </trkpt>
      <trkpt lat="45.61963" lon="6.66043">
        <ele>2367</ele>
        <time>2016-02-06T12:44:57Z</time>
      </trkpt>
      <trkpt lat="45.61964" lon="6.66042">
        <ele>2367</ele>
        <time>2016-02-06T12:45:02Z</time>
      </trkpt>
      <trkpt lat="45.61966" lon="6.66041">
        <ele>2367</ele>
        <time>2016-02-06T12:45:05Z</time>
      </trkpt>
      <trkpt lat="45.61964" lon="6.6604">
        <ele>2367</ele>
        <time>2016-02-06T12:45:09Z</time>
      </trkpt>
      <trkpt lat="45.61963" lon="6.66042">
        <ele>2367</ele>
        <time>2016-02-06T12:45:14Z</time>
      </trkpt>
      <trkpt lat="45.61962" lon="6.66044">
        <ele>2367</ele>
        <time>2016-02-06T12:45:18Z</time>
      </trkpt>
      <trkpt lat="45.61963" lon="6.66043">
        <ele>2367</ele>
        <time>2016-02-06T12:45:34Z</time>
      </trkpt>
      <trkpt lat="45.61964" lon="6.66043">
        <ele>2367</ele>
        <time>2016-02-06T12:45:39Z</time>
      </trkpt>
      <trkpt lat="45.61965" lon="6.66043">
        <ele>2367</ele>
        <time>2016-02-06T12:45:48Z</time>
      </trkpt>
      <trkpt lat="45.61964" lon="6.66045">
        <ele>2367</ele>
        <time>2016-02-06T12:45:52Z</time>
      </trkpt>
      <trkpt lat="45.61963" lon="6.66046">
        <ele>2367</ele>
        <time>2016-02-06T12:45:55Z</time>
      </trkpt>
      <trkpt lat="45.61964" lon="6.66046">
        <ele>2368</ele>
        <time>2016-02-06T12:46:06Z</time>
      </trkpt>
      <trkpt lat="45.61963" lon="6.66048">
        <ele>2368</ele>
        <time>2016-02-06T12:46:11Z</time>
      </trkpt>
      <trkpt lat="45.61961" lon="6.66048">
        <ele>2368</ele>
        <time>2016-02-06T12:46:16Z</time>
      </trkpt>
      <trkpt lat="45.61961" lon="6.66047">
        <ele>2367</ele>
        <time>2016-02-06T12:46:20Z</time>
      </trkpt>
      <trkpt lat="45.61958" lon="6.66046">
        <ele>2367</ele>
        <time>2016-02-06T12:46:30Z</time>
      </trkpt>
      <trkpt lat="45.61958" lon="6.66044">
        <ele>2366</ele>
        <time>2016-02-06T12:46:33Z</time>
      </trkpt>
      <trkpt lat="45.61959" lon="6.66042">
        <ele>2366</ele>
        <time>2016-02-06T12:46:34Z</time>
      </trkpt>
      <trkpt lat="45.6196" lon="6.6604">
        <ele>2366</ele>
        <time>2016-02-06T12:46:35Z</time>
      </trkpt>
      <trkpt lat="45.61962" lon="6.66039">
        <ele>2366</ele>
        <time>2016-02-06T12:46:36Z</time>
      </trkpt>
      <trkpt lat="45.61963" lon="6.66038">
        <ele>2366</ele>
        <time>2016-02-06T12:46:37Z</time>
      </trkpt>
      <trkpt lat="45.61966" lon="6.66034">
        <ele>2366</ele>
        <time>2016-02-06T12:46:39Z</time>
      </trkpt>
      <trkpt lat="45.61967" lon="6.66032">
        <ele>2366</ele>
        <time>2016-02-06T12:46:40Z</time>
      </trkpt>
      <trkpt lat="45.61967" lon="6.66029">
        <ele>2366</ele>
        <time>2016-02-06T12:46:41Z</time>
      </trkpt>
      <trkpt lat="45.61967" lon="6.66025">
        <ele>2365</ele>
        <time>2016-02-06T12:46:42Z</time>
      </trkpt>
      <trkpt lat="45.61968" lon="6.66021">
        <ele>2365</ele>
        <time>2016-02-06T12:46:43Z</time>
      </trkpt>
      <trkpt lat="45.61969" lon="6.66018">
        <ele>2365</ele>
        <time>2016-02-06T12:46:44Z</time>
      </trkpt>
      <trkpt lat="45.61972" lon="6.66015">
        <ele>2364</ele>
        <time>2016-02-06T12:46:45Z</time>
      </trkpt>
      <trkpt lat="45.61975" lon="6.6601">
        <ele>2364</ele>
        <time>2016-02-06T12:46:46Z</time>
      </trkpt>
      <trkpt lat="45.6198" lon="6.66004">
        <ele>2364</ele>
        <time>2016-02-06T12:46:47Z</time>
      </trkpt>
      <trkpt lat="45.61986" lon="6.65999">
        <ele>2350</ele>
        <time>2016-02-06T12:46:48Z</time>
      </trkpt>
      <trkpt lat="45.61991" lon="6.65992">
        <ele>2351</ele>
        <time>2016-02-06T12:46:49Z</time>
      </trkpt>
      <trkpt lat="45.61995" lon="6.65984">
        <ele>2348</ele>
        <time>2016-02-06T12:46:50Z</time>
      </trkpt>
      <trkpt lat="45.61999" lon="6.65975">
        <ele>2344</ele>
        <time>2016-02-06T12:46:51Z</time>
      </trkpt>
      <trkpt lat="45.62006" lon="6.65967">
        <ele>2349</ele>
        <time>2016-02-06T12:46:52Z</time>
      </trkpt>
      <trkpt lat="45.62012" lon="6.65958">
        <ele>2346</ele>
        <time>2016-02-06T12:46:53Z</time>
      </trkpt>
      <trkpt lat="45.62017" lon="6.65948">
        <ele>2343</ele>
        <time>2016-02-06T12:46:54Z</time>
      </trkpt>
      <trkpt lat="45.62022" lon="6.65942">
        <ele>2341</ele>
        <time>2016-02-06T12:46:55Z</time>
      </trkpt>
      <trkpt lat="45.62024" lon="6.65944">
        <ele>2342</ele>
        <time>2016-02-06T12:46:57Z</time>
      </trkpt>
      <trkpt lat="45.62024" lon="6.65946">
        <ele>2343</ele>
        <time>2016-02-06T12:46:59Z</time>
      </trkpt>
      <trkpt lat="45.62025" lon="6.65948">
        <ele>2344</ele>
        <time>2016-02-06T12:47:01Z</time>
      </trkpt>
      <trkpt lat="45.62024" lon="6.65947">
        <ele>2343</ele>
        <time>2016-02-06T12:47:02Z</time>
      </trkpt>
      <trkpt lat="45.62022" lon="6.65948">
        <ele>2343</ele>
        <time>2016-02-06T12:47:06Z</time>
      </trkpt>
      <trkpt lat="45.62021" lon="6.65949">
        <ele>2343</ele>
        <time>2016-02-06T12:47:08Z</time>
      </trkpt>
      <trkpt lat="45.62019" lon="6.65948">
        <ele>2343</ele>
        <time>2016-02-06T12:47:10Z</time>
      </trkpt>
      <trkpt lat="45.62018" lon="6.65947">
        <ele>2342</ele>
        <time>2016-02-06T12:47:12Z</time>
      </trkpt>
      <trkpt lat="45.62016" lon="6.65946">
        <ele>2342</ele>
        <time>2016-02-06T12:47:14Z</time>
      </trkpt>
      <trkpt lat="45.62014" lon="6.65945">
        <ele>2341</ele>
        <time>2016-02-06T12:47:17Z</time>
      </trkpt>
      <trkpt lat="45.62011" lon="6.65941">
        <ele>2339</ele>
        <time>2016-02-06T12:47:19Z</time>
      </trkpt>
      <trkpt lat="45.62009" lon="6.6594">
        <ele>2338</ele>
        <time>2016-02-06T12:47:20Z</time>
      </trkpt>
      <trkpt lat="45.62008" lon="6.65938">
        <ele>2338</ele>
        <time>2016-02-06T12:47:21Z</time>
      </trkpt>
      <trkpt lat="45.62007" lon="6.65937">
        <ele>2337</ele>
        <time>2016-02-06T12:47:23Z</time>
      </trkpt>
      <trkpt lat="45.62005" lon="6.65935">
        <ele>2336</ele>
        <time>2016-02-06T12:47:24Z</time>
      </trkpt>
      <trkpt lat="45.62004" lon="6.65934">
        <ele>2335</ele>
        <time>2016-02-06T12:47:26Z</time>
      </trkpt>
      <trkpt lat="45.62003" lon="6.65933">
        <ele>2334</ele>
        <time>2016-02-06T12:47:29Z</time>
      </trkpt>
      <trkpt lat="45.62001" lon="6.65932">
        <ele>2333</ele>
        <time>2016-02-06T12:47:31Z</time>
      </trkpt>
      <trkpt lat="45.62" lon="6.65931">
        <ele>2327</ele>
        <time>2016-02-06T12:47:32Z</time>
      </trkpt>
      <trkpt lat="45.61998" lon="6.6593">
        <ele>2327</ele>
        <time>2016-02-06T12:47:33Z</time>
      </trkpt>
      <trkpt lat="45.62001" lon="6.65932">
        <ele>2333</ele>
        <time>2016-02-06T12:47:36Z</time>
      </trkpt>
      <trkpt lat="45.62002" lon="6.65933">
        <ele>2334</ele>
        <time>2016-02-06T12:47:37Z</time>
      </trkpt>
      <trkpt lat="45.62003" lon="6.65933">
        <ele>2334</ele>
        <time>2016-02-06T12:47:38Z</time>
      </trkpt>
      <trkpt lat="45.62006" lon="6.65934">
        <ele>2335</ele>
        <time>2016-02-06T12:47:40Z</time>
      </trkpt>
      <trkpt lat="45.62007" lon="6.65935">
        <ele>2336</ele>
        <time>2016-02-06T12:47:41Z</time>
      </trkpt>
      <trkpt lat="45.62009" lon="6.65936">
        <ele>2337</ele>
        <time>2016-02-06T12:47:43Z</time>
      </trkpt>
      <trkpt lat="45.62011" lon="6.65937">
        <ele>2338</ele>
        <time>2016-02-06T12:47:45Z</time>
      </trkpt>
      <trkpt lat="45.6201" lon="6.65937">
        <ele>2338</ele>
        <time>2016-02-06T12:47:48Z</time>
      </trkpt>
      <trkpt lat="45.62008" lon="6.65937">
        <ele>2337</ele>
        <time>2016-02-06T12:47:53Z</time>
      </trkpt>
      <trkpt lat="45.62006" lon="6.65936">
        <ele>2336</ele>
        <time>2016-02-06T12:47:54Z</time>
      </trkpt>
      <trkpt lat="45.62005" lon="6.65935">
        <ele>2335</ele>
        <time>2016-02-06T12:47:55Z</time>
      </trkpt>
      <trkpt lat="45.62003" lon="6.65933">
        <ele>2334</ele>
        <time>2016-02-06T12:47:57Z</time>
      </trkpt>
      <trkpt lat="45.62001" lon="6.65932">
        <ele>2333</ele>
        <time>2016-02-06T12:47:59Z</time>
      </trkpt>
      <trkpt lat="45.62" lon="6.65931">
        <ele>2327</ele>
        <time>2016-02-06T12:48:00Z</time>
      </trkpt>
      <trkpt lat="45.61998" lon="6.6593">
        <ele>2327</ele>
        <time>2016-02-06T12:48:02Z</time>
      </trkpt>
      <trkpt lat="45.61996" lon="6.65929">
        <ele>2327</ele>
        <time>2016-02-06T12:48:04Z</time>
      </trkpt>
      <trkpt lat="45.61995" lon="6.65929">
        <ele>2327</ele>
        <time>2016-02-06T12:48:07Z</time>
      </trkpt>
      <trkpt lat="45.61994" lon="6.65929">
        <ele>2327</ele>
        <time>2016-02-06T12:48:18Z</time>
      </trkpt>
      <trkpt lat="45.61993" lon="6.65929">
        <ele>2327</ele>
        <time>2016-02-06T12:48:24Z</time>
      </trkpt>
      <trkpt lat="45.61994" lon="6.65929">
        <ele>2327</ele>
        <time>2016-02-06T12:48:36Z</time>
      </trkpt>
      <trkpt lat="45.61995" lon="6.65929">
        <ele>2327</ele>
        <time>2016-02-06T12:48:38Z</time>
      </trkpt>
      <trkpt lat="45.61996" lon="6.65929">
        <ele>2327</ele>
        <time>2016-02-06T12:48:42Z</time>
      </trkpt>
      <trkpt lat="45.61998" lon="6.6593">
        <ele>2327</ele>
        <time>2016-02-06T12:48:45Z</time>
      </trkpt>
      <trkpt lat="45.62" lon="6.6593">
        <ele>2327</ele>
        <time>2016-02-06T12:48:47Z</time>
      </trkpt>
      <trkpt lat="45.62001" lon="6.6593">
        <ele>2332</ele>
        <time>2016-02-06T12:48:49Z</time>
      </trkpt>
      <trkpt lat="45.62003" lon="6.6593">
        <ele>2333</ele>
        <time>2016-02-06T12:48:51Z</time>
      </trkpt>
      <trkpt lat="45.62004" lon="6.65931">
        <ele>2333</ele>
        <time>2016-02-06T12:48:52Z</time>
      </trkpt>
      <trkpt lat="45.62003" lon="6.65932">
        <ele>2334</ele>
        <time>2016-02-06T12:48:54Z</time>
      </trkpt>
      <trkpt lat="45.62003" lon="6.65934">
        <ele>2335</ele>
        <time>2016-02-06T12:48:57Z</time>
      </trkpt>
      <trkpt lat="45.62003" lon="6.65936">
        <ele>2336</ele>
        <time>2016-02-06T12:48:58Z</time>
      </trkpt>
      <trkpt lat="45.62002" lon="6.65936">
        <ele>2336</ele>
        <time>2016-02-06T12:48:59Z</time>
      </trkpt>
      <trkpt lat="45.61999" lon="6.65937">
        <ele>2329</ele>
        <time>2016-02-06T12:49:00Z</time>
      </trkpt>
      <trkpt lat="45.61994" lon="6.65937">
        <ele>2329</ele>
        <time>2016-02-06T12:49:01Z</time>
      </trkpt>
      <trkpt lat="45.61988" lon="6.65936">
        <ele>2329</ele>
        <time>2016-02-06T12:49:02Z</time>
      </trkpt>
      <trkpt lat="45.61984" lon="6.65935">
        <ele>2329</ele>
        <time>2016-02-06T12:49:03Z</time>
      </trkpt>
      <trkpt lat="45.61982" lon="6.65934">
        <ele>2329</ele>
        <time>2016-02-06T12:49:04Z</time>
      </trkpt>
      <trkpt lat="45.61981" lon="6.65934">
        <ele>2329</ele>
        <time>2016-02-06T12:49:05Z</time>
      </trkpt>
      <trkpt lat="45.61979" lon="6.65932">
        <ele>2329</ele>
        <time>2016-02-06T12:49:06Z</time>
      </trkpt>
      <trkpt lat="45.6198" lon="6.65929">
        <ele>2328</ele>
        <time>2016-02-06T12:49:07Z</time>
      </trkpt>
      <trkpt lat="45.61979" lon="6.65924">
        <ele>2328</ele>
        <time>2016-02-06T12:49:08Z</time>
      </trkpt>
      <trkpt lat="45.61978" lon="6.65917">
        <ele>2327</ele>
        <time>2016-02-06T12:49:09Z</time>
      </trkpt>
      <trkpt lat="45.61978" lon="6.65908">
        <ele>2309</ele>
        <time>2016-02-06T12:49:10Z</time>
      </trkpt>
      <trkpt lat="45.61977" lon="6.659">
        <ele>2307</ele>
        <time>2016-02-06T12:49:11Z</time>
      </trkpt>
      <trkpt lat="45.61973" lon="6.65887">
        <ele>2304</ele>
        <time>2016-02-06T12:49:12Z</time>
      </trkpt>
      <trkpt lat="45.61969" lon="6.65878">
        <ele>2302</ele>
        <time>2016-02-06T12:49:13Z</time>
      </trkpt>
      <trkpt lat="45.61963" lon="6.65871">
        <ele>2300</ele>
        <time>2016-02-06T12:49:14Z</time>
      </trkpt>
      <trkpt lat="45.61955" lon="6.65865">
        <ele>2298</ele>
        <time>2016-02-06T12:49:15Z</time>
      </trkpt>
      <trkpt lat="45.61948" lon="6.65858">
        <ele>2296</ele>
        <time>2016-02-06T12:49:16Z</time>
      </trkpt>
      <trkpt lat="45.61942" lon="6.65849">
        <ele>2294</ele>
        <time>2016-02-06T12:49:17Z</time>
      </trkpt>
      <trkpt lat="45.61937" lon="6.65841">
        <ele>2291</ele>
        <time>2016-02-06T12:49:18Z</time>
      </trkpt>
      <trkpt lat="45.61932" lon="6.6583">
        <ele>2280</ele>
        <time>2016-02-06T12:49:19Z</time>
      </trkpt>
      <trkpt lat="45.61928" lon="6.65824">
        <ele>2280</ele>
        <time>2016-02-06T12:49:20Z</time>
      </trkpt>
      <trkpt lat="45.61927" lon="6.65822">
        <ele>2280</ele>
        <time>2016-02-06T12:49:21Z</time>
      </trkpt>
      <trkpt lat="45.61929" lon="6.65825">
        <ele>2280</ele>
        <time>2016-02-06T12:49:23Z</time>
      </trkpt>
      <trkpt lat="45.6193" lon="6.65829">
        <ele>2280</ele>
        <time>2016-02-06T12:49:24Z</time>
      </trkpt>
      <trkpt lat="45.61929" lon="6.65832">
        <ele>2280</ele>
        <time>2016-02-06T12:49:26Z</time>
      </trkpt>
      <trkpt lat="45.61931" lon="6.65831">
        <ele>2280</ele>
        <time>2016-02-06T12:49:29Z</time>
      </trkpt>
      <trkpt lat="45.61932" lon="6.65832">
        <ele>2280</ele>
        <time>2016-02-06T12:49:30Z</time>
      </trkpt>
      <trkpt lat="45.61933" lon="6.65832">
        <ele>2281</ele>
        <time>2016-02-06T12:49:31Z</time>
      </trkpt>
      <trkpt lat="45.61932" lon="6.65835">
        <ele>2288</ele>
        <time>2016-02-06T12:49:33Z</time>
      </trkpt>
      <trkpt lat="45.61935" lon="6.65835">
        <ele>2290</ele>
        <time>2016-02-06T12:49:36Z</time>
      </trkpt>
      <trkpt lat="45.61936" lon="6.65835">
        <ele>2290</ele>
        <time>2016-02-06T12:49:37Z</time>
      </trkpt>
      <trkpt lat="45.61938" lon="6.65834">
        <ele>2291</ele>
        <time>2016-02-06T12:49:38Z</time>
      </trkpt>
      <trkpt lat="45.61937" lon="6.65832">
        <ele>2281</ele>
        <time>2016-02-06T12:49:40Z</time>
      </trkpt>
      <trkpt lat="45.61935" lon="6.65832">
        <ele>2281</ele>
        <time>2016-02-06T12:49:42Z</time>
      </trkpt>
      <trkpt lat="45.61933" lon="6.65832">
        <ele>2281</ele>
        <time>2016-02-06T12:49:45Z</time>
      </trkpt>
      <trkpt lat="45.61932" lon="6.65832">
        <ele>2280</ele>
        <time>2016-02-06T12:49:46Z</time>
      </trkpt>
      <trkpt lat="45.6193" lon="6.65833">
        <ele>2280</ele>
        <time>2016-02-06T12:49:48Z</time>
      </trkpt>
      <trkpt lat="45.61929" lon="6.65833">
        <ele>2280</ele>
        <time>2016-02-06T12:49:56Z</time>
      </trkpt>
      <trkpt lat="45.61927" lon="6.65833">
        <ele>2280</ele>
        <time>2016-02-06T12:49:58Z</time>
      </trkpt>
      <trkpt lat="45.61927" lon="6.65835">
        <ele>2286</ele>
        <time>2016-02-06T12:50:03Z</time>
      </trkpt>
      <trkpt lat="45.61926" lon="6.65837">
        <ele>2286</ele>
        <time>2016-02-06T12:50:05Z</time>
      </trkpt>
      <trkpt lat="45.61924" lon="6.6584">
        <ele>2286</ele>
        <time>2016-02-06T12:50:07Z</time>
      </trkpt>
      <trkpt lat="45.61924" lon="6.65842">
        <ele>2287</ele>
        <time>2016-02-06T12:50:09Z</time>
      </trkpt>
      <trkpt lat="45.61924" lon="6.65844">
        <ele>2288</ele>
        <time>2016-02-06T12:50:11Z</time>
      </trkpt>
      <trkpt lat="45.61924" lon="6.65846">
        <ele>2289</ele>
        <time>2016-02-06T12:50:13Z</time>
      </trkpt>
      <trkpt lat="45.61923" lon="6.65845">
        <ele>2288</ele>
        <time>2016-02-06T12:50:18Z</time>
      </trkpt>
      <trkpt lat="45.61921" lon="6.65845">
        <ele>2287</ele>
        <time>2016-02-06T12:50:21Z</time>
      </trkpt>
      <trkpt lat="45.61918" lon="6.65846">
        <ele>2287</ele>
        <time>2016-02-06T12:50:22Z</time>
      </trkpt>
      <trkpt lat="45.61915" lon="6.65847">
        <ele>2283</ele>
        <time>2016-02-06T12:50:23Z</time>
      </trkpt>
      <trkpt lat="45.61912" lon="6.65847">
        <ele>2283</ele>
        <time>2016-02-06T12:50:24Z</time>
      </trkpt>
      <trkpt lat="45.6191" lon="6.65848">
        <ele>2283</ele>
        <time>2016-02-06T12:50:25Z</time>
      </trkpt>
      <trkpt lat="45.61909" lon="6.65847">
        <ele>2283</ele>
        <time>2016-02-06T12:50:26Z</time>
      </trkpt>
      <trkpt lat="45.61907" lon="6.65845">
        <ele>2283</ele>
        <time>2016-02-06T12:50:27Z</time>
      </trkpt>
      <trkpt lat="45.61905" lon="6.65843">
        <ele>2283</ele>
        <time>2016-02-06T12:50:28Z</time>
      </trkpt>
      <trkpt lat="45.61903" lon="6.6584">
        <ele>2283</ele>
        <time>2016-02-06T12:50:29Z</time>
      </trkpt>
      <trkpt lat="45.61901" lon="6.65839">
        <ele>2283</ele>
        <time>2016-02-06T12:50:30Z</time>
      </trkpt>
      <trkpt lat="45.619" lon="6.65837">
        <ele>2283</ele>
        <time>2016-02-06T12:50:31Z</time>
      </trkpt>
      <trkpt lat="45.61899" lon="6.65836">
        <ele>2283</ele>
        <time>2016-02-06T12:50:32Z</time>
      </trkpt>
      <trkpt lat="45.61897" lon="6.65835">
        <ele>2283</ele>
        <time>2016-02-06T12:50:33Z</time>
      </trkpt>
      <trkpt lat="45.61895" lon="6.65834">
        <ele>2283</ele>
        <time>2016-02-06T12:50:34Z</time>
      </trkpt>
      <trkpt lat="45.61893" lon="6.65833">
        <ele>2269</ele>
        <time>2016-02-06T12:50:35Z</time>
      </trkpt>
      <trkpt lat="45.6189" lon="6.65831">
        <ele>2269</ele>
        <time>2016-02-06T12:50:36Z</time>
      </trkpt>
      <trkpt lat="45.61887" lon="6.6583">
        <ele>2268</ele>
        <time>2016-02-06T12:50:37Z</time>
      </trkpt>
      <trkpt lat="45.61884" lon="6.65829">
        <ele>2267</ele>
        <time>2016-02-06T12:50:38Z</time>
      </trkpt>
      <trkpt lat="45.61882" lon="6.65828">
        <ele>2267</ele>
        <time>2016-02-06T12:50:39Z</time>
      </trkpt>
      <trkpt lat="45.6188" lon="6.65827">
        <ele>2267</ele>
        <time>2016-02-06T12:50:40Z</time>
      </trkpt>
      <trkpt lat="45.61877" lon="6.65826">
        <ele>2266</ele>
        <time>2016-02-06T12:50:41Z</time>
      </trkpt>
      <trkpt lat="45.61874" lon="6.65824">
        <ele>2266</ele>
        <time>2016-02-06T12:50:42Z</time>
      </trkpt>
      <trkpt lat="45.61872" lon="6.65824">
        <ele>2265</ele>
        <time>2016-02-06T12:50:43Z</time>
      </trkpt>
      <trkpt lat="45.61871" lon="6.65822">
        <ele>2265</ele>
        <time>2016-02-06T12:50:44Z</time>
      </trkpt>
      <trkpt lat="45.61867" lon="6.65818">
        <ele>2264</ele>
        <time>2016-02-06T12:50:46Z</time>
      </trkpt>
      <trkpt lat="45.61862" lon="6.6581">
        <ele>2263</ele>
        <time>2016-02-06T12:50:47Z</time>
      </trkpt>
      <trkpt lat="45.61856" lon="6.658">
        <ele>2262</ele>
        <time>2016-02-06T12:50:48Z</time>
      </trkpt>
      <trkpt lat="45.61851" lon="6.65793">
        <ele>2260</ele>
        <time>2016-02-06T12:50:49Z</time>
      </trkpt>
      <trkpt lat="45.61844" lon="6.65783">
        <ele>2257</ele>
        <time>2016-02-06T12:50:50Z</time>
      </trkpt>
      <trkpt lat="45.61837" lon="6.65771">
        <ele>2253</ele>
        <time>2016-02-06T12:50:51Z</time>
      </trkpt>
      <trkpt lat="45.61831" lon="6.6576">
        <ele>2242</ele>
        <time>2016-02-06T12:50:52Z</time>
      </trkpt>
      <trkpt lat="45.61824" lon="6.65749">
        <ele>2236</ele>
        <time>2016-02-06T12:50:53Z</time>
      </trkpt>
      <trkpt lat="45.61819" lon="6.65737">
        <ele>2232</ele>
        <time>2016-02-06T12:50:54Z</time>
      </trkpt>
      <trkpt lat="45.61813" lon="6.65726">
        <ele>2230</ele>
        <time>2016-02-06T12:50:55Z</time>
      </trkpt>
      <trkpt lat="45.61809" lon="6.65714">
        <ele>2228</ele>
        <time>2016-02-06T12:50:56Z</time>
      </trkpt>
      <trkpt lat="45.61804" lon="6.65701">
        <ele>2227</ele>
        <time>2016-02-06T12:50:57Z</time>
      </trkpt>
      <trkpt lat="45.61803" lon="6.65691">
        <ele>2226</ele>
        <time>2016-02-06T12:50:58Z</time>
      </trkpt>
      <trkpt lat="45.61799" lon="6.65682">
        <ele>2225</ele>
        <time>2016-02-06T12:50:59Z</time>
      </trkpt>
      <trkpt lat="45.61797" lon="6.65678">
        <ele>2225</ele>
        <time>2016-02-06T12:51:00Z</time>
      </trkpt>
      <trkpt lat="45.61797" lon="6.65681">
        <ele>2225</ele>
        <time>2016-02-06T12:51:01Z</time>
      </trkpt>
      <trkpt lat="45.61799" lon="6.65686">
        <ele>2225</ele>
        <time>2016-02-06T12:51:02Z</time>
      </trkpt>
      <trkpt lat="45.61799" lon="6.65688">
        <ele>2225</ele>
        <time>2016-02-06T12:51:03Z</time>
      </trkpt>
      <trkpt lat="45.618" lon="6.65687">
        <ele>2226</ele>
        <time>2016-02-06T12:51:05Z</time>
      </trkpt>
      <trkpt lat="45.61802" lon="6.65688">
        <ele>2226</ele>
        <time>2016-02-06T12:51:09Z</time>
      </trkpt>
      <trkpt lat="45.61803" lon="6.65688">
        <ele>2226</ele>
        <time>2016-02-06T12:51:11Z</time>
      </trkpt>
      <trkpt lat="45.61803" lon="6.6569">
        <ele>2226</ele>
        <time>2016-02-06T12:51:13Z</time>
      </trkpt>
      <trkpt lat="45.61802" lon="6.65691">
        <ele>2226</ele>
        <time>2016-02-06T12:51:15Z</time>
      </trkpt>
      <trkpt lat="45.618" lon="6.65692">
        <ele>2226</ele>
        <time>2016-02-06T12:51:18Z</time>
      </trkpt>
      <trkpt lat="45.61798" lon="6.65694">
        <ele>2225</ele>
        <time>2016-02-06T12:51:23Z</time>
      </trkpt>
      <trkpt lat="45.61797" lon="6.65693">
        <ele>2225</ele>
        <time>2016-02-06T12:51:27Z</time>
      </trkpt>
      <trkpt lat="45.61795" lon="6.65692">
        <ele>2225</ele>
        <time>2016-02-06T12:51:36Z</time>
      </trkpt>
      <trkpt lat="45.61794" lon="6.65691">
        <ele>2225</ele>
        <time>2016-02-06T12:51:40Z</time>
      </trkpt>
      <trkpt lat="45.61792" lon="6.65691">
        <ele>2224</ele>
        <time>2016-02-06T12:51:46Z</time>
      </trkpt>
      <trkpt lat="45.61794" lon="6.65692">
        <ele>2225</ele>
        <time>2016-02-06T12:51:56Z</time>
      </trkpt>
      <trkpt lat="45.61795" lon="6.65692">
        <ele>2225</ele>
        <time>2016-02-06T12:51:59Z</time>
      </trkpt>
      <trkpt lat="45.61793" lon="6.65691">
        <ele>2225</ele>
        <time>2016-02-06T12:52:03Z</time>
      </trkpt>
      <trkpt lat="45.61791" lon="6.6569">
        <ele>2224</ele>
        <time>2016-02-06T12:52:04Z</time>
      </trkpt>
      <trkpt lat="45.61788" lon="6.65689">
        <ele>2224</ele>
        <time>2016-02-06T12:52:05Z</time>
      </trkpt>
      <trkpt lat="45.61784" lon="6.65688">
        <ele>2223</ele>
        <time>2016-02-06T12:52:06Z</time>
      </trkpt>
      <trkpt lat="45.6178" lon="6.65686">
        <ele>2222</ele>
        <time>2016-02-06T12:52:07Z</time>
      </trkpt>
      <trkpt lat="45.61777" lon="6.65684">
        <ele>2221</ele>
        <time>2016-02-06T12:52:08Z</time>
      </trkpt>
      <trkpt lat="45.61771" lon="6.65682">
        <ele>2219</ele>
        <time>2016-02-06T12:52:09Z</time>
      </trkpt>
      <trkpt lat="45.61766" lon="6.65679">
        <ele>2217</ele>
        <time>2016-02-06T12:52:10Z</time>
      </trkpt>
      <trkpt lat="45.6176" lon="6.65676">
        <ele>2215</ele>
        <time>2016-02-06T12:52:11Z</time>
      </trkpt>
      <trkpt lat="45.61755" lon="6.65673">
        <ele>2212</ele>
        <time>2016-02-06T12:52:12Z</time>
      </trkpt>
      <trkpt lat="45.6175" lon="6.65671">
        <ele>2210</ele>
        <time>2016-02-06T12:52:13Z</time>
      </trkpt>
      <trkpt lat="45.61745" lon="6.65668">
        <ele>2207</ele>
        <time>2016-02-06T12:52:14Z</time>
      </trkpt>
      <trkpt lat="45.6174" lon="6.65666">
        <ele>2202</ele>
        <time>2016-02-06T12:52:15Z</time>
      </trkpt>
      <trkpt lat="45.61733" lon="6.65663">
        <ele>2199</ele>
        <time>2016-02-06T12:52:16Z</time>
      </trkpt>
      <trkpt lat="45.61727" lon="6.65663">
        <ele>2197</ele>
        <time>2016-02-06T12:52:17Z</time>
      </trkpt>
      <trkpt lat="45.61722" lon="6.65664">
        <ele>2196</ele>
        <time>2016-02-06T12:52:18Z</time>
      </trkpt>
      <trkpt lat="45.61718" lon="6.65665">
        <ele>2195</ele>
        <time>2016-02-06T12:52:19Z</time>
      </trkpt>
      <trkpt lat="45.61714" lon="6.65665">
        <ele>2194</ele>
        <time>2016-02-06T12:52:20Z</time>
      </trkpt>
      <trkpt lat="45.61711" lon="6.65664">
        <ele>2193</ele>
        <time>2016-02-06T12:52:21Z</time>
      </trkpt>
      <trkpt lat="45.61709" lon="6.65661">
        <ele>2193</ele>
        <time>2016-02-06T12:52:23Z</time>
      </trkpt>
      <trkpt lat="45.61708" lon="6.65659">
        <ele>2193</ele>
        <time>2016-02-06T12:52:25Z</time>
      </trkpt>
      <trkpt lat="45.61708" lon="6.6566">
        <ele>2193</ele>
        <time>2016-02-06T12:52:28Z</time>
      </trkpt>
      <trkpt lat="45.6171" lon="6.65661">
        <ele>2193</ele>
        <time>2016-02-06T12:52:35Z</time>
      </trkpt>
      <trkpt lat="45.6171" lon="6.65663">
        <ele>2193</ele>
        <time>2016-02-06T12:52:37Z</time>
      </trkpt>
      <trkpt lat="45.61711" lon="6.65661">
        <ele>2193</ele>
        <time>2016-02-06T12:52:42Z</time>
      </trkpt>
      <trkpt lat="45.6171" lon="6.6566">
        <ele>2193</ele>
        <time>2016-02-06T12:52:46Z</time>
      </trkpt>
      <trkpt lat="45.61708" lon="6.65661">
        <ele>2193</ele>
        <time>2016-02-06T12:52:50Z</time>
      </trkpt>
      <trkpt lat="45.61706" lon="6.65662">
        <ele>2192</ele>
        <time>2016-02-06T12:52:53Z</time>
      </trkpt>
      <trkpt lat="45.61706" lon="6.6566">
        <ele>2192</ele>
        <time>2016-02-06T12:52:55Z</time>
      </trkpt>
      <trkpt lat="45.61704" lon="6.65659">
        <ele>2192</ele>
        <time>2016-02-06T12:52:56Z</time>
      </trkpt>
      <trkpt lat="45.61703" lon="6.65659">
        <ele>2192</ele>
        <time>2016-02-06T12:52:57Z</time>
      </trkpt>
      <trkpt lat="45.61701" lon="6.6566">
        <ele>2191</ele>
        <time>2016-02-06T12:52:59Z</time>
      </trkpt>
      <trkpt lat="45.61703" lon="6.6566">
        <ele>2192</ele>
        <time>2016-02-06T12:53:03Z</time>
      </trkpt>
      <trkpt lat="45.61702" lon="6.65659">
        <ele>2191</ele>
        <time>2016-02-06T12:53:06Z</time>
      </trkpt>
      <trkpt lat="45.617" lon="6.65659">
        <ele>2191</ele>
        <time>2016-02-06T12:53:08Z</time>
      </trkpt>
      <trkpt lat="45.61698" lon="6.65658">
        <ele>2191</ele>
        <time>2016-02-06T12:53:09Z</time>
      </trkpt>
      <trkpt lat="45.61697" lon="6.65656">
        <ele>2191</ele>
        <time>2016-02-06T12:53:11Z</time>
      </trkpt>
      <trkpt lat="45.61696" lon="6.65653">
        <ele>2190</ele>
        <time>2016-02-06T12:53:13Z</time>
      </trkpt>
      <trkpt lat="45.61695" lon="6.65651">
        <ele>2190</ele>
        <time>2016-02-06T12:53:15Z</time>
      </trkpt>
      <trkpt lat="45.61697" lon="6.65651">
        <ele>2190</ele>
        <time>2016-02-06T12:53:17Z</time>
      </trkpt>
      <trkpt lat="45.61698" lon="6.6565">
        <ele>2191</ele>
        <time>2016-02-06T12:53:21Z</time>
      </trkpt>
      <trkpt lat="45.61699" lon="6.65653">
        <ele>2191</ele>
        <time>2016-02-06T12:53:24Z</time>
      </trkpt>
      <trkpt lat="45.61698" lon="6.65653">
        <ele>2191</ele>
        <time>2016-02-06T12:53:25Z</time>
      </trkpt>
      <trkpt lat="45.61697" lon="6.65652">
        <ele>2190</ele>
        <time>2016-02-06T12:53:28Z</time>
      </trkpt>
      <trkpt lat="45.61695" lon="6.65651">
        <ele>2190</ele>
        <time>2016-02-06T12:53:31Z</time>
      </trkpt>
      <trkpt lat="45.61693" lon="6.6565">
        <ele>2190</ele>
        <time>2016-02-06T12:53:33Z</time>
      </trkpt>
      <trkpt lat="45.61694" lon="6.65651">
        <ele>2190</ele>
        <time>2016-02-06T12:53:35Z</time>
      </trkpt>
      <trkpt lat="45.61696" lon="6.6565">
        <ele>2190</ele>
        <time>2016-02-06T12:53:38Z</time>
      </trkpt>
      <trkpt lat="45.61695" lon="6.65651">
        <ele>2190</ele>
        <time>2016-02-06T12:53:41Z</time>
      </trkpt>
      <trkpt lat="45.61695" lon="6.65653">
        <ele>2190</ele>
        <time>2016-02-06T12:53:44Z</time>
      </trkpt>
      <trkpt lat="45.61696" lon="6.65655">
        <ele>2190</ele>
        <time>2016-02-06T12:53:47Z</time>
      </trkpt>
      <trkpt lat="45.61694" lon="6.65655">
        <ele>2190</ele>
        <time>2016-02-06T12:53:51Z</time>
      </trkpt>
      <trkpt lat="45.61691" lon="6.65656">
        <ele>2190</ele>
        <time>2016-02-06T12:53:53Z</time>
      </trkpt>
      <trkpt lat="45.61691" lon="6.65658">
        <ele>2189</ele>
        <time>2016-02-06T12:53:54Z</time>
      </trkpt>
      <trkpt lat="45.6169" lon="6.65659">
        <ele>2189</ele>
        <time>2016-02-06T12:53:55Z</time>
      </trkpt>
      <trkpt lat="45.61689" lon="6.65661">
        <ele>2189</ele>
        <time>2016-02-06T12:53:57Z</time>
      </trkpt>
      <trkpt lat="45.61688" lon="6.65661">
        <ele>2189</ele>
        <time>2016-02-06T12:54:02Z</time>
      </trkpt>
      <trkpt lat="45.61686" lon="6.65658">
        <ele>2189</ele>
        <time>2016-02-06T12:54:04Z</time>
      </trkpt>
      <trkpt lat="45.61686" lon="6.65656">
        <ele>2189</ele>
        <time>2016-02-06T12:54:05Z</time>
      </trkpt>
      <trkpt lat="45.61686" lon="6.65653">
        <ele>2189</ele>
        <time>2016-02-06T12:54:06Z</time>
      </trkpt>
      <trkpt lat="45.61686" lon="6.65649">
        <ele>2189</ele>
        <time>2016-02-06T12:54:07Z</time>
      </trkpt>
      <trkpt lat="45.61684" lon="6.65645">
        <ele>2189</ele>
        <time>2016-02-06T12:54:08Z</time>
      </trkpt>
      <trkpt lat="45.61683" lon="6.65639">
        <ele>2188</ele>
        <time>2016-02-06T12:54:09Z</time>
      </trkpt>
      <trkpt lat="45.61682" lon="6.65633">
        <ele>2188</ele>
        <time>2016-02-06T12:54:10Z</time>
      </trkpt>
      <trkpt lat="45.61681" lon="6.65627">
        <ele>2187</ele>
        <time>2016-02-06T12:54:11Z</time>
      </trkpt>
      <trkpt lat="45.61678" lon="6.65618">
        <ele>2186</ele>
        <time>2016-02-06T12:54:12Z</time>
      </trkpt>
      <trkpt lat="45.61673" lon="6.65608">
        <ele>2183</ele>
        <time>2016-02-06T12:54:13Z</time>
      </trkpt>
      <trkpt lat="45.61671" lon="6.65597">
        <ele>2179</ele>
        <time>2016-02-06T12:54:14Z</time>
      </trkpt>
      <trkpt lat="45.61669" lon="6.65587">
        <ele>2173</ele>
        <time>2016-02-06T12:54:15Z</time>
      </trkpt>
      <trkpt lat="45.61666" lon="6.65578">
        <ele>2168</ele>
        <time>2016-02-06T12:54:16Z</time>
      </trkpt>
      <trkpt lat="45.61662" lon="6.65569">
        <ele>2165</ele>
        <time>2016-02-06T12:54:17Z</time>
      </trkpt>
      <trkpt lat="45.61655" lon="6.65562">
        <ele>2164</ele>
        <time>2016-02-06T12:54:18Z</time>
      </trkpt>
      <trkpt lat="45.61648" lon="6.65559">
        <ele>2162</ele>
        <time>2016-02-06T12:54:19Z</time>
      </trkpt>
      <trkpt lat="45.61643" lon="6.6556">
        <ele>2162</ele>
        <time>2016-02-06T12:54:20Z</time>
      </trkpt>
      <trkpt lat="45.6164" lon="6.65563">
        <ele>2161</ele>
        <time>2016-02-06T12:54:21Z</time>
      </trkpt>
      <trkpt lat="45.61638" lon="6.65568">
        <ele>2161</ele>
        <time>2016-02-06T12:54:22Z</time>
      </trkpt>
      <trkpt lat="45.61636" lon="6.65569">
        <ele>2161</ele>
        <time>2016-02-06T12:54:23Z</time>
      </trkpt>
      <trkpt lat="45.61635" lon="6.65572">
        <ele>2161</ele>
        <time>2016-02-06T12:54:25Z</time>
      </trkpt>
      <trkpt lat="45.61633" lon="6.65572">
        <ele>2160</ele>
        <time>2016-02-06T12:54:26Z</time>
      </trkpt>
      <trkpt lat="45.6163" lon="6.65572">
        <ele>2160</ele>
        <time>2016-02-06T12:54:27Z</time>
      </trkpt>
      <trkpt lat="45.61627" lon="6.65572">
        <ele>2159</ele>
        <time>2016-02-06T12:54:28Z</time>
      </trkpt>
      <trkpt lat="45.6162" lon="6.65572">
        <ele>2158</ele>
        <time>2016-02-06T12:54:29Z</time>
      </trkpt>
      <trkpt lat="45.61615" lon="6.65572">
        <ele>2157</ele>
        <time>2016-02-06T12:54:30Z</time>
      </trkpt>
      <trkpt lat="45.61612" lon="6.65573">
        <ele>2156</ele>
        <time>2016-02-06T12:54:31Z</time>
      </trkpt>
      <trkpt lat="45.61609" lon="6.65572">
        <ele>2155</ele>
        <time>2016-02-06T12:54:32Z</time>
      </trkpt>
      <trkpt lat="45.61607" lon="6.6557">
        <ele>2155</ele>
        <time>2016-02-06T12:54:34Z</time>
      </trkpt>
      <trkpt lat="45.61609" lon="6.6557">
        <ele>2155</ele>
        <time>2016-02-06T12:54:40Z</time>
      </trkpt>
      <trkpt lat="45.61606" lon="6.65569">
        <ele>2155</ele>
        <time>2016-02-06T12:54:43Z</time>
      </trkpt>
      <trkpt lat="45.61603" lon="6.65569">
        <ele>2154</ele>
        <time>2016-02-06T12:54:44Z</time>
      </trkpt>
      <trkpt lat="45.61598" lon="6.65569">
        <ele>2153</ele>
        <time>2016-02-06T12:54:45Z</time>
      </trkpt>
      <trkpt lat="45.61593" lon="6.6557">
        <ele>2152</ele>
        <time>2016-02-06T12:54:46Z</time>
      </trkpt>
      <trkpt lat="45.61586" lon="6.65571">
        <ele>2150</ele>
        <time>2016-02-06T12:54:47Z</time>
      </trkpt>
      <trkpt lat="45.61581" lon="6.65573">
        <ele>2143</ele>
        <time>2016-02-06T12:54:48Z</time>
      </trkpt>
      <trkpt lat="45.61575" lon="6.65575">
        <ele>2143</ele>
        <time>2016-02-06T12:54:49Z</time>
      </trkpt>
      <trkpt lat="45.61569" lon="6.65577">
        <ele>2143</ele>
        <time>2016-02-06T12:54:50Z</time>
      </trkpt>
      <trkpt lat="45.61563" lon="6.65578">
        <ele>2142</ele>
        <time>2016-02-06T12:54:51Z</time>
      </trkpt>
      <trkpt lat="45.61557" lon="6.65579">
        <ele>2142</ele>
        <time>2016-02-06T12:54:52Z</time>
      </trkpt>
      <trkpt lat="45.61552" lon="6.6558">
        <ele>2141</ele>
        <time>2016-02-06T12:54:53Z</time>
      </trkpt>
      <trkpt lat="45.61548" lon="6.65581">
        <ele>2141</ele>
        <time>2016-02-06T12:54:54Z</time>
      </trkpt>
      <trkpt lat="45.61543" lon="6.65582">
        <ele>2140</ele>
        <time>2016-02-06T12:54:55Z</time>
      </trkpt>
      <trkpt lat="45.6154" lon="6.65585">
        <ele>2142</ele>
        <time>2016-02-06T12:54:56Z</time>
      </trkpt>
      <trkpt lat="45.61537" lon="6.65588">
        <ele>2141</ele>
        <time>2016-02-06T12:54:57Z</time>
      </trkpt>
      <trkpt lat="45.61533" lon="6.6559">
        <ele>2141</ele>
        <time>2016-02-06T12:54:58Z</time>
      </trkpt>
      <trkpt lat="45.61531" lon="6.65592">
        <ele>2140</ele>
        <time>2016-02-06T12:54:59Z</time>
      </trkpt>
      <trkpt lat="45.61528" lon="6.65593">
        <ele>2140</ele>
        <time>2016-02-06T12:55:00Z</time>
      </trkpt>
      <trkpt lat="45.61523" lon="6.65593">
        <ele>2139</ele>
        <time>2016-02-06T12:55:01Z</time>
      </trkpt>
      <trkpt lat="45.6152" lon="6.65593">
        <ele>2138</ele>
        <time>2016-02-06T12:55:02Z</time>
      </trkpt>
      <trkpt lat="45.61516" lon="6.65592">
        <ele>2137</ele>
        <time>2016-02-06T12:55:03Z</time>
      </trkpt>
      <trkpt lat="45.61514" lon="6.65593">
        <ele>2136</ele>
        <time>2016-02-06T12:55:04Z</time>
      </trkpt>
      <trkpt lat="45.61511" lon="6.65593">
        <ele>2136</ele>
        <time>2016-02-06T12:55:05Z</time>
      </trkpt>
      <trkpt lat="45.61509" lon="6.65594">
        <ele>2135</ele>
        <time>2016-02-06T12:55:06Z</time>
      </trkpt>
      <trkpt lat="45.61506" lon="6.65595">
        <ele>2135</ele>
        <time>2016-02-06T12:55:07Z</time>
      </trkpt>
      <trkpt lat="45.61502" lon="6.65596">
        <ele>2135</ele>
        <time>2016-02-06T12:55:08Z</time>
      </trkpt>
      <trkpt lat="45.61498" lon="6.65596">
        <ele>2130</ele>
        <time>2016-02-06T12:55:09Z</time>
      </trkpt>
      <trkpt lat="45.61493" lon="6.65596">
        <ele>2130</ele>
        <time>2016-02-06T12:55:10Z</time>
      </trkpt>
      <trkpt lat="45.61489" lon="6.65597">
        <ele>2130</ele>
        <time>2016-02-06T12:55:11Z</time>
      </trkpt>
      <trkpt lat="45.61485" lon="6.65598">
        <ele>2130</ele>
        <time>2016-02-06T12:55:12Z</time>
      </trkpt>
      <trkpt lat="45.6148" lon="6.65599">
        <ele>2131</ele>
        <time>2016-02-06T12:55:13Z</time>
      </trkpt>
      <trkpt lat="45.61475" lon="6.656">
        <ele>2131</ele>
        <time>2016-02-06T12:55:14Z</time>
      </trkpt>
      <trkpt lat="45.61469" lon="6.656">
        <ele>2130</ele>
        <time>2016-02-06T12:55:15Z</time>
      </trkpt>
      <trkpt lat="45.61461" lon="6.65599">
        <ele>2130</ele>
        <time>2016-02-06T12:55:16Z</time>
      </trkpt>
      <trkpt lat="45.61453" lon="6.65598">
        <ele>2129</ele>
        <time>2016-02-06T12:55:17Z</time>
      </trkpt>
      <trkpt lat="45.61446" lon="6.65597">
        <ele>2128</ele>
        <time>2016-02-06T12:55:18Z</time>
      </trkpt>
      <trkpt lat="45.6144" lon="6.65595">
        <ele>2127</ele>
        <time>2016-02-06T12:55:19Z</time>
      </trkpt>
      <trkpt lat="45.61434" lon="6.65595">
        <ele>2125</ele>
        <time>2016-02-06T12:55:20Z</time>
      </trkpt>
      <trkpt lat="45.61428" lon="6.65594">
        <ele>2124</ele>
        <time>2016-02-06T12:55:21Z</time>
      </trkpt>
      <trkpt lat="45.61422" lon="6.65591">
        <ele>2121</ele>
        <time>2016-02-06T12:55:22Z</time>
      </trkpt>
      <trkpt lat="45.61415" lon="6.65588">
        <ele>2118</ele>
        <time>2016-02-06T12:55:23Z</time>
      </trkpt>
      <trkpt lat="45.61409" lon="6.65583">
        <ele>2115</ele>
        <time>2016-02-06T12:55:24Z</time>
      </trkpt>
      <trkpt lat="45.61403" lon="6.65579">
        <ele>2115</ele>
        <time>2016-02-06T12:55:25Z</time>
      </trkpt>
      <trkpt lat="45.61397" lon="6.65575">
        <ele>2115</ele>
        <time>2016-02-06T12:55:26Z</time>
      </trkpt>
      <trkpt lat="45.61392" lon="6.65573">
        <ele>2114</ele>
        <time>2016-02-06T12:55:27Z</time>
      </trkpt>
      <trkpt lat="45.61385" lon="6.6557">
        <ele>2114</ele>
        <time>2016-02-06T12:55:28Z</time>
      </trkpt>
      <trkpt lat="45.6138" lon="6.65569">
        <ele>2114</ele>
        <time>2016-02-06T12:55:29Z</time>
      </trkpt>
      <trkpt lat="45.61373" lon="6.65567">
        <ele>2113</ele>
        <time>2016-02-06T12:55:30Z</time>
      </trkpt>
      <trkpt lat="45.61367" lon="6.65564">
        <ele>2113</ele>
        <time>2016-02-06T12:55:31Z</time>
      </trkpt>
      <trkpt lat="45.6136" lon="6.65562">
        <ele>2113</ele>
        <time>2016-02-06T12:55:32Z</time>
      </trkpt>
      <trkpt lat="45.61354" lon="6.6556">
        <ele>2113</ele>
        <time>2016-02-06T12:55:33Z</time>
      </trkpt>
      <trkpt lat="45.6135" lon="6.65559">
        <ele>2112</ele>
        <time>2016-02-06T12:55:34Z</time>
      </trkpt>
      <trkpt lat="45.61343" lon="6.65555">
        <ele>2112</ele>
        <time>2016-02-06T12:55:35Z</time>
      </trkpt>
      <trkpt lat="45.61337" lon="6.65553">
        <ele>2112</ele>
        <time>2016-02-06T12:55:36Z</time>
      </trkpt>
      <trkpt lat="45.61333" lon="6.65553">
        <ele>2106</ele>
        <time>2016-02-06T12:55:37Z</time>
      </trkpt>
      <trkpt lat="45.61329" lon="6.65554">
        <ele>2106</ele>
        <time>2016-02-06T12:55:38Z</time>
      </trkpt>
      <trkpt lat="45.61324" lon="6.65553">
        <ele>2106</ele>
        <time>2016-02-06T12:55:39Z</time>
      </trkpt>
      <trkpt lat="45.61321" lon="6.65552">
        <ele>2106</ele>
        <time>2016-02-06T12:55:40Z</time>
      </trkpt>
      <trkpt lat="45.61314" lon="6.65547">
        <ele>2105</ele>
        <time>2016-02-06T12:55:41Z</time>
      </trkpt>
      <trkpt lat="45.61308" lon="6.65542">
        <ele>2104</ele>
        <time>2016-02-06T12:55:42Z</time>
      </trkpt>
      <trkpt lat="45.61301" lon="6.65535">
        <ele>2103</ele>
        <time>2016-02-06T12:55:43Z</time>
      </trkpt>
      <trkpt lat="45.61295" lon="6.65529">
        <ele>2102</ele>
        <time>2016-02-06T12:55:44Z</time>
      </trkpt>
      <trkpt lat="45.61289" lon="6.65525">
        <ele>2101</ele>
        <time>2016-02-06T12:55:45Z</time>
      </trkpt>
      <trkpt lat="45.61285" lon="6.65522">
        <ele>2100</ele>
        <time>2016-02-06T12:55:46Z</time>
      </trkpt>
      <trkpt lat="45.61281" lon="6.6552">
        <ele>2099</ele>
        <time>2016-02-06T12:55:47Z</time>
      </trkpt>
      <trkpt lat="45.61278" lon="6.6552">
        <ele>2098</ele>
        <time>2016-02-06T12:55:48Z</time>
      </trkpt>
      <trkpt lat="45.61276" lon="6.65519">
        <ele>2098</ele>
        <time>2016-02-06T12:55:49Z</time>
      </trkpt>
      <trkpt lat="45.61274" lon="6.65519">
        <ele>2097</ele>
        <time>2016-02-06T12:55:51Z</time>
      </trkpt>
      <trkpt lat="45.61277" lon="6.6552">
        <ele>2098</ele>
        <time>2016-02-06T12:55:53Z</time>
      </trkpt>
      <trkpt lat="45.61278" lon="6.6552">
        <ele>2098</ele>
        <time>2016-02-06T12:55:54Z</time>
      </trkpt>
      <trkpt lat="45.61279" lon="6.6552">
        <ele>2099</ele>
        <time>2016-02-06T12:55:55Z</time>
      </trkpt>
      <trkpt lat="45.6128" lon="6.65521">
        <ele>2099</ele>
        <time>2016-02-06T12:55:56Z</time>
      </trkpt>
      <trkpt lat="45.61282" lon="6.65521">
        <ele>2099</ele>
        <time>2016-02-06T12:55:57Z</time>
      </trkpt>
      <trkpt lat="45.61281" lon="6.6552">
        <ele>2099</ele>
        <time>2016-02-06T12:56:00Z</time>
      </trkpt>
      <trkpt lat="45.6128" lon="6.65519">
        <ele>2098</ele>
        <time>2016-02-06T12:56:01Z</time>
      </trkpt>
      <trkpt lat="45.61278" lon="6.65519">
        <ele>2098</ele>
        <time>2016-02-06T12:56:05Z</time>
      </trkpt>
      <trkpt lat="45.6128" lon="6.6552">
        <ele>2098</ele>
        <time>2016-02-06T12:56:07Z</time>
      </trkpt>
      <trkpt lat="45.6128" lon="6.65521">
        <ele>2099</ele>
        <time>2016-02-06T12:56:09Z</time>
      </trkpt>
      <trkpt lat="45.61283" lon="6.65524">
        <ele>2100</ele>
        <time>2016-02-06T12:56:11Z</time>
      </trkpt>
      <trkpt lat="45.61284" lon="6.65526">
        <ele>2100</ele>
        <time>2016-02-06T12:56:13Z</time>
      </trkpt>
      <trkpt lat="45.61285" lon="6.65528">
        <ele>2100</ele>
        <time>2016-02-06T12:56:18Z</time>
      </trkpt>
      <trkpt lat="45.61286" lon="6.65528">
        <ele>2100</ele>
        <time>2016-02-06T12:56:20Z</time>
      </trkpt>
      <trkpt lat="45.61285" lon="6.65527">
        <ele>2100</ele>
        <time>2016-02-06T12:56:21Z</time>
      </trkpt>
      <trkpt lat="45.61283" lon="6.65526">
        <ele>2100</ele>
        <time>2016-02-06T12:56:23Z</time>
      </trkpt>
      <trkpt lat="45.61281" lon="6.65525">
        <ele>2099</ele>
        <time>2016-02-06T12:56:24Z</time>
      </trkpt>
      <trkpt lat="45.6128" lon="6.65524">
        <ele>2099</ele>
        <time>2016-02-06T12:56:26Z</time>
      </trkpt>
      <trkpt lat="45.61279" lon="6.65524">
        <ele>2099</ele>
        <time>2016-02-06T12:56:27Z</time>
      </trkpt>
      <trkpt lat="45.61278" lon="6.65523">
        <ele>2099</ele>
        <time>2016-02-06T12:56:29Z</time>
      </trkpt>
      <trkpt lat="45.61277" lon="6.65522">
        <ele>2098</ele>
        <time>2016-02-06T12:56:34Z</time>
      </trkpt>
      <trkpt lat="45.61275" lon="6.65522">
        <ele>2098</ele>
        <time>2016-02-06T12:56:38Z</time>
      </trkpt>
      <trkpt lat="45.61272" lon="6.6552">
        <ele>2097</ele>
        <time>2016-02-06T12:56:39Z</time>
      </trkpt>
      <trkpt lat="45.61269" lon="6.6552">
        <ele>2097</ele>
        <time>2016-02-06T12:56:40Z</time>
      </trkpt>
      <trkpt lat="45.61265" lon="6.65519">
        <ele>2095</ele>
        <time>2016-02-06T12:56:41Z</time>
      </trkpt>
      <trkpt lat="45.6126" lon="6.65517">
        <ele>2094</ele>
        <time>2016-02-06T12:56:42Z</time>
      </trkpt>
      <trkpt lat="45.61253" lon="6.65512">
        <ele>2090</ele>
        <time>2016-02-06T12:56:43Z</time>
      </trkpt>
      <trkpt lat="45.61245" lon="6.65508">
        <ele>2086</ele>
        <time>2016-02-06T12:56:44Z</time>
      </trkpt>
      <trkpt lat="45.61239" lon="6.65506">
        <ele>2087</ele>
        <time>2016-02-06T12:56:45Z</time>
      </trkpt>
      <trkpt lat="45.61233" lon="6.65504">
        <ele>2087</ele>
        <time>2016-02-06T12:56:46Z</time>
      </trkpt>
      <trkpt lat="45.61229" lon="6.65501">
        <ele>2088</ele>
        <time>2016-02-06T12:56:47Z</time>
      </trkpt>
      <trkpt lat="45.61224" lon="6.65497">
        <ele>2075</ele>
        <time>2016-02-06T12:56:48Z</time>
      </trkpt>
      <trkpt lat="45.61219" lon="6.65491">
        <ele>2074</ele>
        <time>2016-02-06T12:56:49Z</time>
      </trkpt>
      <trkpt lat="45.61213" lon="6.65484">
        <ele>2073</ele>
        <time>2016-02-06T12:56:50Z</time>
      </trkpt>
      <trkpt lat="45.61208" lon="6.65478">
        <ele>2072</ele>
        <time>2016-02-06T12:56:51Z</time>
      </trkpt>
      <trkpt lat="45.61203" lon="6.65473">
        <ele>2071</ele>
        <time>2016-02-06T12:56:52Z</time>
      </trkpt>
      <trkpt lat="45.61195" lon="6.65467">
        <ele>2070</ele>
        <time>2016-02-06T12:56:53Z</time>
      </trkpt>
      <trkpt lat="45.61187" lon="6.65462">
        <ele>2069</ele>
        <time>2016-02-06T12:56:54Z</time>
      </trkpt>
      <trkpt lat="45.61178" lon="6.65458">
        <ele>2068</ele>
        <time>2016-02-06T12:56:55Z</time>
      </trkpt>
      <trkpt lat="45.6117" lon="6.65452">
        <ele>2066</ele>
        <time>2016-02-06T12:56:56Z</time>
      </trkpt>
      <trkpt lat="45.61161" lon="6.65444">
        <ele>2055</ele>
        <time>2016-02-06T12:56:57Z</time>
      </trkpt>
      <trkpt lat="45.61153" lon="6.65437">
        <ele>2054</ele>
        <time>2016-02-06T12:56:58Z</time>
      </trkpt>
      <trkpt lat="45.61145" lon="6.6543">
        <ele>2053</ele>
        <time>2016-02-06T12:56:59Z</time>
      </trkpt>
      <trkpt lat="45.61137" lon="6.65426">
        <ele>2052</ele>
        <time>2016-02-06T12:57:00Z</time>
      </trkpt>
      <trkpt lat="45.61131" lon="6.65426">
        <ele>2051</ele>
        <time>2016-02-06T12:57:01Z</time>
      </trkpt>
      <trkpt lat="45.61125" lon="6.65425">
        <ele>2050</ele>
        <time>2016-02-06T12:57:02Z</time>
      </trkpt>
      <trkpt lat="45.61121" lon="6.65428">
        <ele>2050</ele>
        <time>2016-02-06T12:57:03Z</time>
      </trkpt>
      <trkpt lat="45.61115" lon="6.65428">
        <ele>2049</ele>
        <time>2016-02-06T12:57:04Z</time>
      </trkpt>
      <trkpt lat="45.61108" lon="6.65428">
        <ele>2047</ele>
        <time>2016-02-06T12:57:05Z</time>
      </trkpt>
      <trkpt lat="45.61103" lon="6.65428">
        <ele>2046</ele>
        <time>2016-02-06T12:57:06Z</time>
      </trkpt>
      <trkpt lat="45.61095" lon="6.65428">
        <ele>2043</ele>
        <time>2016-02-06T12:57:07Z</time>
      </trkpt>
      <trkpt lat="45.61089" lon="6.65428">
        <ele>2042</ele>
        <time>2016-02-06T12:57:08Z</time>
      </trkpt>
      <trkpt lat="45.61084" lon="6.65429">
        <ele>2042</ele>
        <time>2016-02-06T12:57:09Z</time>
      </trkpt>
      <trkpt lat="45.6108" lon="6.6543">
        <ele>2036</ele>
        <time>2016-02-06T12:57:10Z</time>
      </trkpt>
      <trkpt lat="45.61076" lon="6.65429">
        <ele>2036</ele>
        <time>2016-02-06T12:57:11Z</time>
      </trkpt>
      <trkpt lat="45.61071" lon="6.65426">
        <ele>2036</ele>
        <time>2016-02-06T12:57:12Z</time>
      </trkpt>
      <trkpt lat="45.61062" lon="6.65422">
        <ele>2036</ele>
        <time>2016-02-06T12:57:13Z</time>
      </trkpt>
      <trkpt lat="45.61055" lon="6.6542">
        <ele>2036</ele>
        <time>2016-02-06T12:57:14Z</time>
      </trkpt>
      <trkpt lat="45.61047" lon="6.65417">
        <ele>2035</ele>
        <time>2016-02-06T12:57:15Z</time>
      </trkpt>
      <trkpt lat="45.61041" lon="6.65417">
        <ele>2034</ele>
        <time>2016-02-06T12:57:16Z</time>
      </trkpt>
      <trkpt lat="45.61033" lon="6.65418">
        <ele>2033</ele>
        <time>2016-02-06T12:57:17Z</time>
      </trkpt>
      <trkpt lat="45.61024" lon="6.65417">
        <ele>2031</ele>
        <time>2016-02-06T12:57:18Z</time>
      </trkpt>
      <trkpt lat="45.61007" lon="6.65418">
        <ele>2025</ele>
        <time>2016-02-06T12:57:20Z</time>
      </trkpt>
      <trkpt lat="45.60999" lon="6.65418">
        <ele>2021</ele>
        <time>2016-02-06T12:57:21Z</time>
      </trkpt>
      <trkpt lat="45.60993" lon="6.65418">
        <ele>2022</ele>
        <time>2016-02-06T12:57:22Z</time>
      </trkpt>
      <trkpt lat="45.60987" lon="6.65417">
        <ele>2022</ele>
        <time>2016-02-06T12:57:23Z</time>
      </trkpt>
      <trkpt lat="45.6098" lon="6.65416">
        <ele>2021</ele>
        <time>2016-02-06T12:57:24Z</time>
      </trkpt>
      <trkpt lat="45.60976" lon="6.65415">
        <ele>2020</ele>
        <time>2016-02-06T12:57:25Z</time>
      </trkpt>
      <trkpt lat="45.60971" lon="6.65412">
        <ele>2020</ele>
        <time>2016-02-06T12:57:26Z</time>
      </trkpt>
      <trkpt lat="45.60963" lon="6.65407">
        <ele>2020</ele>
        <time>2016-02-06T12:57:27Z</time>
      </trkpt>
      <trkpt lat="45.60962" lon="6.65406">
        <ele>2019</ele>
        <time>2016-02-06T12:57:28Z</time>
      </trkpt>
      <trkpt lat="45.60964" lon="6.65403">
        <ele>2020</ele>
        <time>2016-02-06T12:57:31Z</time>
      </trkpt>
      <trkpt lat="45.60963" lon="6.65401">
        <ele>2020</ele>
        <time>2016-02-06T12:57:32Z</time>
      </trkpt>
      <trkpt lat="45.60964" lon="6.65399">
        <ele>2020</ele>
        <time>2016-02-06T12:57:35Z</time>
      </trkpt>
      <trkpt lat="45.60963" lon="6.65397">
        <ele>2020</ele>
        <time>2016-02-06T12:57:36Z</time>
      </trkpt>
      <trkpt lat="45.60963" lon="6.65395">
        <ele>2020</ele>
        <time>2016-02-06T12:57:37Z</time>
      </trkpt>
      <trkpt lat="45.60964" lon="6.65395">
        <ele>2021</ele>
        <time>2016-02-06T12:57:38Z</time>
      </trkpt>
      <trkpt lat="45.60966" lon="6.65395">
        <ele>2021</ele>
        <time>2016-02-06T12:57:40Z</time>
      </trkpt>
      <trkpt lat="45.60967" lon="6.65395">
        <ele>2021</ele>
        <time>2016-02-06T12:57:43Z</time>
      </trkpt>
      <trkpt lat="45.6097" lon="6.65395">
        <ele>2021</ele>
        <time>2016-02-06T12:57:44Z</time>
      </trkpt>
      <trkpt lat="45.60972" lon="6.65394">
        <ele>2021</ele>
        <time>2016-02-06T12:57:45Z</time>
      </trkpt>
      <trkpt lat="45.60973" lon="6.65395">
        <ele>2021</ele>
        <time>2016-02-06T12:57:48Z</time>
      </trkpt>
      <trkpt lat="45.60971" lon="6.65397">
        <ele>2021</ele>
        <time>2016-02-06T12:57:51Z</time>
      </trkpt>
      <trkpt lat="45.60971" lon="6.654">
        <ele>2021</ele>
        <time>2016-02-06T12:57:52Z</time>
      </trkpt>
      <trkpt lat="45.60967" lon="6.65401">
        <ele>2020</ele>
        <time>2016-02-06T12:57:53Z</time>
      </trkpt>
      <trkpt lat="45.60962" lon="6.65402">
        <ele>2020</ele>
        <time>2016-02-06T12:57:54Z</time>
      </trkpt>
      <trkpt lat="45.60957" lon="6.65402">
        <ele>2019</ele>
        <time>2016-02-06T12:57:55Z</time>
      </trkpt>
      <trkpt lat="45.60951" lon="6.65401">
        <ele>2018</ele>
        <time>2016-02-06T12:57:56Z</time>
      </trkpt>
      <trkpt lat="45.60943" lon="6.65399">
        <ele>2017</ele>
        <time>2016-02-06T12:57:57Z</time>
      </trkpt>
      <trkpt lat="45.60933" lon="6.65395">
        <ele>2016</ele>
        <time>2016-02-06T12:57:58Z</time>
      </trkpt>
      <trkpt lat="45.60924" lon="6.65392">
        <ele>2015</ele>
        <time>2016-02-06T12:57:59Z</time>
      </trkpt>
      <trkpt lat="45.60913" lon="6.65388">
        <ele>2004</ele>
        <time>2016-02-06T12:58:00Z</time>
      </trkpt>
      <trkpt lat="45.60901" lon="6.65383">
        <ele>2004</ele>
        <time>2016-02-06T12:58:01Z</time>
      </trkpt>
      <trkpt lat="45.60889" lon="6.65379">
        <ele>2003</ele>
        <time>2016-02-06T12:58:02Z</time>
      </trkpt>
      <trkpt lat="45.60876" lon="6.65374">
        <ele>2002</ele>
        <time>2016-02-06T12:58:03Z</time>
      </trkpt>
      <trkpt lat="45.60866" lon="6.65372">
        <ele>2000</ele>
        <time>2016-02-06T12:58:04Z</time>
      </trkpt>
      <trkpt lat="45.60859" lon="6.65372">
        <ele>2000</ele>
        <time>2016-02-06T12:58:05Z</time>
      </trkpt>
      <trkpt lat="45.6085" lon="6.65371">
        <ele>1999</ele>
        <time>2016-02-06T12:58:06Z</time>
      </trkpt>
      <trkpt lat="45.60843" lon="6.65371">
        <ele>1998</ele>
        <time>2016-02-06T12:58:07Z</time>
      </trkpt>
      <trkpt lat="45.60839" lon="6.65372">
        <ele>1998</ele>
        <time>2016-02-06T12:58:08Z</time>
      </trkpt>
      <trkpt lat="45.60836" lon="6.65372">
        <ele>1998</ele>
        <time>2016-02-06T12:58:09Z</time>
      </trkpt>
      <trkpt lat="45.60831" lon="6.6537">
        <ele>1987</ele>
        <time>2016-02-06T12:58:10Z</time>
      </trkpt>
      <trkpt lat="45.60826" lon="6.65369">
        <ele>1987</ele>
        <time>2016-02-06T12:58:11Z</time>
      </trkpt>
      <trkpt lat="45.60822" lon="6.65369">
        <ele>1987</ele>
        <time>2016-02-06T12:58:12Z</time>
      </trkpt>
      <trkpt lat="45.60817" lon="6.65369">
        <ele>1986</ele>
        <time>2016-02-06T12:58:13Z</time>
      </trkpt>
      <trkpt lat="45.60814" lon="6.65369">
        <ele>1986</ele>
        <time>2016-02-06T12:58:14Z</time>
      </trkpt>
      <trkpt lat="45.6081" lon="6.65369">
        <ele>1986</ele>
        <time>2016-02-06T12:58:15Z</time>
      </trkpt>
      <trkpt lat="45.60807" lon="6.65367">
        <ele>1986</ele>
        <time>2016-02-06T12:58:16Z</time>
      </trkpt>
      <trkpt lat="45.60803" lon="6.65366">
        <ele>1985</ele>
        <time>2016-02-06T12:58:17Z</time>
      </trkpt>
      <trkpt lat="45.60798" lon="6.65364">
        <ele>1985</ele>
        <time>2016-02-06T12:58:18Z</time>
      </trkpt>
      <trkpt lat="45.60793" lon="6.65362">
        <ele>1984</ele>
        <time>2016-02-06T12:58:19Z</time>
      </trkpt>
      <trkpt lat="45.6079" lon="6.6536">
        <ele>1984</ele>
        <time>2016-02-06T12:58:20Z</time>
      </trkpt>
      <trkpt lat="45.60786" lon="6.65359">
        <ele>1984</ele>
        <time>2016-02-06T12:58:21Z</time>
      </trkpt>
      <trkpt lat="45.60782" lon="6.65357">
        <ele>1983</ele>
        <time>2016-02-06T12:58:22Z</time>
      </trkpt>
      <trkpt lat="45.6078" lon="6.65356">
        <ele>1982</ele>
        <time>2016-02-06T12:58:23Z</time>
      </trkpt>
      <trkpt lat="45.60778" lon="6.65352">
        <ele>1982</ele>
        <time>2016-02-06T12:58:25Z</time>
      </trkpt>
      <trkpt lat="45.60772" lon="6.65347">
        <ele>1980</ele>
        <time>2016-02-06T12:58:27Z</time>
      </trkpt>
      <trkpt lat="45.60767" lon="6.65343">
        <ele>1979</ele>
        <time>2016-02-06T12:58:28Z</time>
      </trkpt>
      <trkpt lat="45.60762" lon="6.6534">
        <ele>1977</ele>
        <time>2016-02-06T12:58:29Z</time>
      </trkpt>
      <trkpt lat="45.60757" lon="6.65338">
        <ele>1975</ele>
        <time>2016-02-06T12:58:30Z</time>
      </trkpt>
      <trkpt lat="45.60753" lon="6.65337">
        <ele>1974</ele>
        <time>2016-02-06T12:58:31Z</time>
      </trkpt>
      <trkpt lat="45.60746" lon="6.65337">
        <ele>1972</ele>
        <time>2016-02-06T12:58:32Z</time>
      </trkpt>
      <trkpt lat="45.60727" lon="6.65339">
        <ele>1974</ele>
        <time>2016-02-06T12:58:35Z</time>
      </trkpt>
      <trkpt lat="45.6072" lon="6.65335">
        <ele>1974</ele>
        <time>2016-02-06T12:58:36Z</time>
      </trkpt>
      <trkpt lat="45.60715" lon="6.65329">
        <ele>1972</ele>
        <time>2016-02-06T12:58:37Z</time>
      </trkpt>
      <trkpt lat="45.60709" lon="6.6532">
        <ele>1972</ele>
        <time>2016-02-06T12:58:38Z</time>
      </trkpt>
      <trkpt lat="45.60702" lon="6.65313">
        <ele>1972</ele>
        <time>2016-02-06T12:58:39Z</time>
      </trkpt>
      <trkpt lat="45.60696" lon="6.65308">
        <ele>1972</ele>
        <time>2016-02-06T12:58:40Z</time>
      </trkpt>
      <trkpt lat="45.60689" lon="6.65299">
        <ele>1972</ele>
        <time>2016-02-06T12:58:41Z</time>
      </trkpt>
      <trkpt lat="45.60683" lon="6.65294">
        <ele>1972</ele>
        <time>2016-02-06T12:58:42Z</time>
      </trkpt>
      <trkpt lat="45.60679" lon="6.65291">
        <ele>1972</ele>
        <time>2016-02-06T12:58:43Z</time>
      </trkpt>
      <trkpt lat="45.60676" lon="6.6529">
        <ele>1971</ele>
        <time>2016-02-06T12:58:44Z</time>
      </trkpt>
      <trkpt lat="45.60672" lon="6.65289">
        <ele>1971</ele>
        <time>2016-02-06T12:58:45Z</time>
      </trkpt>
      <trkpt lat="45.6067" lon="6.65288">
        <ele>1971</ele>
        <time>2016-02-06T12:58:46Z</time>
      </trkpt>
      <trkpt lat="45.60667" lon="6.65287">
        <ele>1962</ele>
        <time>2016-02-06T12:58:47Z</time>
      </trkpt>
      <trkpt lat="45.60665" lon="6.65287">
        <ele>1962</ele>
        <time>2016-02-06T12:58:48Z</time>
      </trkpt>
      <trkpt lat="45.60664" lon="6.65287">
        <ele>1962</ele>
        <time>2016-02-06T12:58:49Z</time>
      </trkpt>
      <trkpt lat="45.6066" lon="6.65289">
        <ele>1962</ele>
        <time>2016-02-06T12:58:50Z</time>
      </trkpt>
      <trkpt lat="45.60657" lon="6.6529">
        <ele>1962</ele>
        <time>2016-02-06T12:58:51Z</time>
      </trkpt>
      <trkpt lat="45.60653" lon="6.6529">
        <ele>1961</ele>
        <time>2016-02-06T12:58:52Z</time>
      </trkpt>
      <trkpt lat="45.60649" lon="6.6529">
        <ele>1961</ele>
        <time>2016-02-06T12:58:53Z</time>
      </trkpt>
      <trkpt lat="45.60645" lon="6.6529">
        <ele>1961</ele>
        <time>2016-02-06T12:58:54Z</time>
      </trkpt>
      <trkpt lat="45.60641" lon="6.65292">
        <ele>1961</ele>
        <time>2016-02-06T12:58:55Z</time>
      </trkpt>
      <trkpt lat="45.60635" lon="6.65294">
        <ele>1960</ele>
        <time>2016-02-06T12:58:56Z</time>
      </trkpt>
      <trkpt lat="45.60629" lon="6.65295">
        <ele>1960</ele>
        <time>2016-02-06T12:58:57Z</time>
      </trkpt>
      <trkpt lat="45.60622" lon="6.65293">
        <ele>1959</ele>
        <time>2016-02-06T12:58:58Z</time>
      </trkpt>
      <trkpt lat="45.60614" lon="6.65292">
        <ele>1958</ele>
        <time>2016-02-06T12:58:59Z</time>
      </trkpt>
      <trkpt lat="45.60606" lon="6.65288">
        <ele>1958</ele>
        <time>2016-02-06T12:59:00Z</time>
      </trkpt>
      <trkpt lat="45.60599" lon="6.65287">
        <ele>1957</ele>
        <time>2016-02-06T12:59:01Z</time>
      </trkpt>
      <trkpt lat="45.6059" lon="6.65285">
        <ele>1957</ele>
        <time>2016-02-06T12:59:02Z</time>
      </trkpt>
      <trkpt lat="45.60583" lon="6.65284">
        <ele>1948</ele>
        <time>2016-02-06T12:59:03Z</time>
      </trkpt>
      <trkpt lat="45.60576" lon="6.65285">
        <ele>1948</ele>
        <time>2016-02-06T12:59:04Z</time>
      </trkpt>
      <trkpt lat="45.60569" lon="6.65286">
        <ele>1948</ele>
        <time>2016-02-06T12:59:05Z</time>
      </trkpt>
      <trkpt lat="45.60562" lon="6.65287">
        <ele>1947</ele>
        <time>2016-02-06T12:59:06Z</time>
      </trkpt>
      <trkpt lat="45.60554" lon="6.65287">
        <ele>1947</ele>
        <time>2016-02-06T12:59:07Z</time>
      </trkpt>
      <trkpt lat="45.60548" lon="6.65288">
        <ele>1946</ele>
        <time>2016-02-06T12:59:08Z</time>
      </trkpt>
      <trkpt lat="45.60542" lon="6.65289">
        <ele>1946</ele>
        <time>2016-02-06T12:59:09Z</time>
      </trkpt>
      <trkpt lat="45.60535" lon="6.65291">
        <ele>1946</ele>
        <time>2016-02-06T12:59:10Z</time>
      </trkpt>
      <trkpt lat="45.60529" lon="6.65292">
        <ele>1945</ele>
        <time>2016-02-06T12:59:11Z</time>
      </trkpt>
      <trkpt lat="45.60523" lon="6.65294">
        <ele>1945</ele>
        <time>2016-02-06T12:59:12Z</time>
      </trkpt>
      <trkpt lat="45.60516" lon="6.65295">
        <ele>1944</ele>
        <time>2016-02-06T12:59:13Z</time>
      </trkpt>
      <trkpt lat="45.6051" lon="6.65296">
        <ele>1944</ele>
        <time>2016-02-06T12:59:14Z</time>
      </trkpt>
      <trkpt lat="45.60505" lon="6.65296">
        <ele>1944</ele>
        <time>2016-02-06T12:59:15Z</time>
      </trkpt>
      <trkpt lat="45.60499" lon="6.65297">
        <ele>1933</ele>
        <time>2016-02-06T12:59:16Z</time>
      </trkpt>
      <trkpt lat="45.60494" lon="6.65297">
        <ele>1933</ele>
        <time>2016-02-06T12:59:17Z</time>
      </trkpt>
      <trkpt lat="45.60491" lon="6.65298">
        <ele>1933</ele>
        <time>2016-02-06T12:59:18Z</time>
      </trkpt>
      <trkpt lat="45.60489" lon="6.65297">
        <ele>1933</ele>
        <time>2016-02-06T12:59:19Z</time>
      </trkpt>
      <trkpt lat="45.60488" lon="6.65295">
        <ele>1933</ele>
        <time>2016-02-06T12:59:21Z</time>
      </trkpt>
      <trkpt lat="45.60486" lon="6.65293">
        <ele>1933</ele>
        <time>2016-02-06T12:59:23Z</time>
      </trkpt>
      <trkpt lat="45.60483" lon="6.65292">
        <ele>1932</ele>
        <time>2016-02-06T12:59:24Z</time>
      </trkpt>
      <trkpt lat="45.60481" lon="6.65292">
        <ele>1932</ele>
        <time>2016-02-06T12:59:25Z</time>
      </trkpt>
      <trkpt lat="45.60478" lon="6.65292">
        <ele>1932</ele>
        <time>2016-02-06T12:59:26Z</time>
      </trkpt>
      <trkpt lat="45.60476" lon="6.65292">
        <ele>1932</ele>
        <time>2016-02-06T12:59:27Z</time>
      </trkpt>
      <trkpt lat="45.60473" lon="6.65294">
        <ele>1931</ele>
        <time>2016-02-06T12:59:28Z</time>
      </trkpt>
      <trkpt lat="45.6047" lon="6.65295">
        <ele>1931</ele>
        <time>2016-02-06T12:59:29Z</time>
      </trkpt>
      <trkpt lat="45.60467" lon="6.65297">
        <ele>1930</ele>
        <time>2016-02-06T12:59:30Z</time>
      </trkpt>
      <trkpt lat="45.60464" lon="6.653">
        <ele>1930</ele>
        <time>2016-02-06T12:59:31Z</time>
      </trkpt>
      <trkpt lat="45.60462" lon="6.65303">
        <ele>1929</ele>
        <time>2016-02-06T12:59:32Z</time>
      </trkpt>
      <trkpt lat="45.60461" lon="6.65304">
        <ele>1929</ele>
        <time>2016-02-06T12:59:33Z</time>
      </trkpt>
      <trkpt lat="45.60461" lon="6.65306">
        <ele>1929</ele>
        <time>2016-02-06T12:59:35Z</time>
      </trkpt>
      <trkpt lat="45.60463" lon="6.65306">
        <ele>1929</ele>
        <time>2016-02-06T12:59:38Z</time>
      </trkpt>
      <trkpt lat="45.60464" lon="6.65305">
        <ele>1929</ele>
        <time>2016-02-06T12:59:40Z</time>
      </trkpt>
      <trkpt lat="45.60466" lon="6.65305">
        <ele>1930</ele>
        <time>2016-02-06T12:59:42Z</time>
      </trkpt>
      <trkpt lat="45.60464" lon="6.65305">
        <ele>1930</ele>
        <time>2016-02-06T12:59:48Z</time>
      </trkpt>
      <trkpt lat="45.60463" lon="6.65306">
        <ele>1929</ele>
        <time>2016-02-06T12:59:50Z</time>
      </trkpt>
      <trkpt lat="45.60462" lon="6.65307">
        <ele>1929</ele>
        <time>2016-02-06T12:59:51Z</time>
      </trkpt>
      <trkpt lat="45.6046" lon="6.65308">
        <ele>1929</ele>
        <time>2016-02-06T12:59:53Z</time>
      </trkpt>
      <trkpt lat="45.60458" lon="6.65308">
        <ele>1928</ele>
        <time>2016-02-06T12:59:55Z</time>
      </trkpt>
      <trkpt lat="45.60457" lon="6.65309">
        <ele>1928</ele>
        <time>2016-02-06T12:59:56Z</time>
      </trkpt>
      <trkpt lat="45.60456" lon="6.6531">
        <ele>1928</ele>
        <time>2016-02-06T12:59:57Z</time>
      </trkpt>
      <trkpt lat="45.60455" lon="6.6531">
        <ele>1928</ele>
        <time>2016-02-06T12:59:58Z</time>
      </trkpt>
      <trkpt lat="45.60453" lon="6.6531">
        <ele>1927</ele>
        <time>2016-02-06T12:59:59Z</time>
      </trkpt>
      <trkpt lat="45.6045" lon="6.6531">
        <ele>1927</ele>
        <time>2016-02-06T13:00:00Z</time>
      </trkpt>
      <trkpt lat="45.6045" lon="6.65309">
        <ele>1927</ele>
        <time>2016-02-06T13:00:01Z</time>
      </trkpt>
      <trkpt lat="45.60449" lon="6.65306">
        <ele>1927</ele>
        <time>2016-02-06T13:00:03Z</time>
      </trkpt>
      <trkpt lat="45.60447" lon="6.65305">
        <ele>1927</ele>
        <time>2016-02-06T13:00:05Z</time>
      </trkpt>
      <trkpt lat="45.60445" lon="6.65303">
        <ele>1927</ele>
        <time>2016-02-06T13:00:07Z</time>
      </trkpt>
      <trkpt lat="45.60442" lon="6.65303">
        <ele>1926</ele>
        <time>2016-02-06T13:00:08Z</time>
      </trkpt>
      <trkpt lat="45.60439" lon="6.65304">
        <ele>1926</ele>
        <time>2016-02-06T13:00:09Z</time>
      </trkpt>
      <trkpt lat="45.60437" lon="6.65307">
        <ele>1925</ele>
        <time>2016-02-06T13:00:10Z</time>
      </trkpt>
      <trkpt lat="45.60436" lon="6.6531">
        <ele>1924</ele>
        <time>2016-02-06T13:00:11Z</time>
      </trkpt>
      <trkpt lat="45.60435" lon="6.6531">
        <ele>1924</ele>
        <time>2016-02-06T13:00:13Z</time>
      </trkpt>
      <trkpt lat="45.60434" lon="6.6531">
        <ele>1923</ele>
        <time>2016-02-06T13:00:15Z</time>
      </trkpt>
      <trkpt lat="45.60432" lon="6.6531">
        <ele>1923</ele>
        <time>2016-02-06T13:00:16Z</time>
      </trkpt>
      <trkpt lat="45.60431" lon="6.6531">
        <ele>1923</ele>
        <time>2016-02-06T13:00:21Z</time>
      </trkpt>
      <trkpt lat="45.60429" lon="6.6531">
        <ele>1923</ele>
        <time>2016-02-06T13:00:30Z</time>
      </trkpt>
      <trkpt lat="45.60428" lon="6.65311">
        <ele>1922</ele>
        <time>2016-02-06T13:00:32Z</time>
      </trkpt>
      <trkpt lat="45.60426" lon="6.65311">
        <ele>1922</ele>
        <time>2016-02-06T13:00:35Z</time>
      </trkpt>
      <trkpt lat="45.60424" lon="6.65313">
        <ele>1921</ele>
        <time>2016-02-06T13:00:37Z</time>
      </trkpt>
      <trkpt lat="45.60424" lon="6.65315">
        <ele>1920</ele>
        <time>2016-02-06T13:00:39Z</time>
      </trkpt>
      <trkpt lat="45.60422" lon="6.65314">
        <ele>1921</ele>
        <time>2016-02-06T13:00:41Z</time>
      </trkpt>
      <trkpt lat="45.60421" lon="6.65312">
        <ele>1921</ele>
        <time>2016-02-06T13:00:43Z</time>
      </trkpt>
      <trkpt lat="45.6042" lon="6.65311">
        <ele>1921</ele>
        <time>2016-02-06T13:00:45Z</time>
      </trkpt>
      <trkpt lat="45.60419" lon="6.65312">
        <ele>1921</ele>
        <time>2016-02-06T13:00:46Z</time>
      </trkpt>
      <trkpt lat="45.60417" lon="6.65313">
        <ele>1920</ele>
        <time>2016-02-06T13:00:48Z</time>
      </trkpt>
      <trkpt lat="45.60415" lon="6.65313">
        <ele>1910</ele>
        <time>2016-02-06T13:00:49Z</time>
      </trkpt>
      <trkpt lat="45.60415" lon="6.65311">
        <ele>1910</ele>
        <time>2016-02-06T13:00:55Z</time>
      </trkpt>
      <trkpt lat="45.60416" lon="6.65311">
        <ele>1910</ele>
        <time>2016-02-06T13:01:00Z</time>
      </trkpt>
      <trkpt lat="45.60418" lon="6.65312">
        <ele>1921</ele>
        <time>2016-02-06T13:01:01Z</time>
      </trkpt>
      <trkpt lat="45.60416" lon="6.65316">
        <ele>1909</ele>
        <time>2016-02-06T13:01:02Z</time>
      </trkpt>
      <trkpt lat="45.60416" lon="6.65321">
        <ele>1909</ele>
        <time>2016-02-06T13:01:03Z</time>
      </trkpt>
      <trkpt lat="45.60415" lon="6.65325">
        <ele>1909</ele>
        <time>2016-02-06T13:01:04Z</time>
      </trkpt>
      <trkpt lat="45.60414" lon="6.65329">
        <ele>1909</ele>
        <time>2016-02-06T13:01:05Z</time>
      </trkpt>
      <trkpt lat="45.60412" lon="6.65336">
        <ele>1905</ele>
        <time>2016-02-06T13:01:06Z</time>
      </trkpt>
      <trkpt lat="45.6041" lon="6.65344">
        <ele>1901</ele>
        <time>2016-02-06T13:01:07Z</time>
      </trkpt>
      <trkpt lat="45.60408" lon="6.65356">
        <ele>1896</ele>
        <time>2016-02-06T13:01:08Z</time>
      </trkpt>
      <trkpt lat="45.60405" lon="6.6537">
        <ele>1893</ele>
        <time>2016-02-06T13:01:09Z</time>
      </trkpt>
      <trkpt lat="45.60403" lon="6.65381">
        <ele>1891</ele>
        <time>2016-02-06T13:01:10Z</time>
      </trkpt>
      <trkpt lat="45.60402" lon="6.65389">
        <ele>1890</ele>
        <time>2016-02-06T13:01:11Z</time>
      </trkpt>
      <trkpt lat="45.60401" lon="6.65393">
        <ele>1889</ele>
        <time>2016-02-06T13:01:12Z</time>
      </trkpt>
      <trkpt lat="45.604" lon="6.65397">
        <ele>1889</ele>
        <time>2016-02-06T13:01:13Z</time>
      </trkpt>
      <trkpt lat="45.60402" lon="6.65399">
        <ele>1889</ele>
        <time>2016-02-06T13:01:15Z</time>
      </trkpt>
      <trkpt lat="45.60404" lon="6.65399">
        <ele>1889</ele>
        <time>2016-02-06T13:01:21Z</time>
      </trkpt>
      <trkpt lat="45.60406" lon="6.654">
        <ele>1889</ele>
        <time>2016-02-06T13:01:22Z</time>
      </trkpt>
      <trkpt lat="45.60408" lon="6.654">
        <ele>1889</ele>
        <time>2016-02-06T13:01:23Z</time>
      </trkpt>
      <trkpt lat="45.60407" lon="6.65402">
        <ele>1889</ele>
        <time>2016-02-06T13:01:30Z</time>
      </trkpt>
      <trkpt lat="45.60405" lon="6.65403">
        <ele>1889</ele>
        <time>2016-02-06T13:01:32Z</time>
      </trkpt>
      <trkpt lat="45.60403" lon="6.65404">
        <ele>1889</ele>
        <time>2016-02-06T13:01:35Z</time>
      </trkpt>
      <trkpt lat="45.60401" lon="6.65405">
        <ele>1889</ele>
        <time>2016-02-06T13:01:37Z</time>
      </trkpt>
      <trkpt lat="45.604" lon="6.65406">
        <ele>1889</ele>
        <time>2016-02-06T13:01:39Z</time>
      </trkpt>
      <trkpt lat="45.60399" lon="6.65404">
        <ele>1889</ele>
        <time>2016-02-06T13:01:42Z</time>
      </trkpt>
      <trkpt lat="45.60399" lon="6.65403">
        <ele>1889</ele>
        <time>2016-02-06T13:01:44Z</time>
      </trkpt>
      <trkpt lat="45.60399" lon="6.65401">
        <ele>1889</ele>
        <time>2016-02-06T13:01:48Z</time>
      </trkpt>
      <trkpt lat="45.604" lon="6.65399">
        <ele>1889</ele>
        <time>2016-02-06T13:01:50Z</time>
      </trkpt>
      <trkpt lat="45.60398" lon="6.65399">
        <ele>1889</ele>
        <time>2016-02-06T13:01:53Z</time>
      </trkpt>
      <trkpt lat="45.60397" lon="6.654">
        <ele>1888</ele>
        <time>2016-02-06T13:01:55Z</time>
      </trkpt>
      <trkpt lat="45.60395" lon="6.65401">
        <ele>1888</ele>
        <time>2016-02-06T13:01:57Z</time>
      </trkpt>
      <trkpt lat="45.60394" lon="6.654">
        <ele>1888</ele>
        <time>2016-02-06T13:02:01Z</time>
      </trkpt>
      <trkpt lat="45.60392" lon="6.65399">
        <ele>1888</ele>
        <time>2016-02-06T13:02:03Z</time>
      </trkpt>
      <trkpt lat="45.60391" lon="6.65398">
        <ele>1888</ele>
        <time>2016-02-06T13:02:05Z</time>
      </trkpt>
      <trkpt lat="45.60389" lon="6.654">
        <ele>1888</ele>
        <time>2016-02-06T13:02:10Z</time>
      </trkpt>
      <trkpt lat="45.60388" lon="6.654">
        <ele>1887</ele>
        <time>2016-02-06T13:02:11Z</time>
      </trkpt>
      <trkpt lat="45.60388" lon="6.65399">
        <ele>1887</ele>
        <time>2016-02-06T13:02:13Z</time>
      </trkpt>
      <trkpt lat="45.60389" lon="6.65399">
        <ele>1888</ele>
        <time>2016-02-06T13:02:18Z</time>
      </trkpt>
      <trkpt lat="45.6039" lon="6.65398">
        <ele>1888</ele>
        <time>2016-02-06T13:02:20Z</time>
      </trkpt>
      <trkpt lat="45.60389" lon="6.65397">
        <ele>1888</ele>
        <time>2016-02-06T13:02:22Z</time>
      </trkpt>
      <trkpt lat="45.60388" lon="6.65395">
        <ele>1888</ele>
        <time>2016-02-06T13:02:24Z</time>
      </trkpt>
      <trkpt lat="45.60386" lon="6.65396">
        <ele>1887</ele>
        <time>2016-02-06T13:02:27Z</time>
      </trkpt>
      <trkpt lat="45.60385" lon="6.65398">
        <ele>1887</ele>
        <time>2016-02-06T13:02:31Z</time>
      </trkpt>
      <trkpt lat="45.60386" lon="6.65396">
        <ele>1887</ele>
        <time>2016-02-06T13:02:34Z</time>
      </trkpt>
      <trkpt lat="45.60387" lon="6.65397">
        <ele>1888</ele>
        <time>2016-02-06T13:02:37Z</time>
      </trkpt>
      <trkpt lat="45.60389" lon="6.65398">
        <ele>1888</ele>
        <time>2016-02-06T13:02:40Z</time>
      </trkpt>
      <trkpt lat="45.60389" lon="6.65396">
        <ele>1888</ele>
        <time>2016-02-06T13:02:45Z</time>
      </trkpt>
      <trkpt lat="45.6039" lon="6.65397">
        <ele>1888</ele>
        <time>2016-02-06T13:02:49Z</time>
      </trkpt>
      <trkpt lat="45.60392" lon="6.654">
        <ele>1888</ele>
        <time>2016-02-06T13:02:52Z</time>
      </trkpt>
      <trkpt lat="45.60393" lon="6.65402">
        <ele>1888</ele>
        <time>2016-02-06T13:02:54Z</time>
      </trkpt>
      <trkpt lat="45.60392" lon="6.654">
        <ele>1888</ele>
        <time>2016-02-06T13:02:59Z</time>
      </trkpt>
      <trkpt lat="45.60393" lon="6.65396">
        <ele>1888</ele>
        <time>2016-02-06T13:03:01Z</time>
      </trkpt>
      <trkpt lat="45.60391" lon="6.65393">
        <ele>1888</ele>
        <time>2016-02-06T13:03:02Z</time>
      </trkpt>
      <trkpt lat="45.60389" lon="6.65391">
        <ele>1888</ele>
        <time>2016-02-06T13:03:03Z</time>
      </trkpt>
      <trkpt lat="45.60387" lon="6.6539">
        <ele>1888</ele>
        <time>2016-02-06T13:03:04Z</time>
      </trkpt>
      <trkpt lat="45.60386" lon="6.65392">
        <ele>1888</ele>
        <time>2016-02-06T13:03:05Z</time>
      </trkpt>
      <trkpt lat="45.60385" lon="6.65395">
        <ele>1887</ele>
        <time>2016-02-06T13:03:06Z</time>
      </trkpt>
      <trkpt lat="45.60384" lon="6.65398">
        <ele>1887</ele>
        <time>2016-02-06T13:03:07Z</time>
      </trkpt>
      <trkpt lat="45.60384" lon="6.65402">
        <ele>1887</ele>
        <time>2016-02-06T13:03:08Z</time>
      </trkpt>
      <trkpt lat="45.60384" lon="6.65406">
        <ele>1887</ele>
        <time>2016-02-06T13:03:09Z</time>
      </trkpt>
      <trkpt lat="45.60385" lon="6.6541">
        <ele>1886</ele>
        <time>2016-02-06T13:03:10Z</time>
      </trkpt>
      <trkpt lat="45.60385" lon="6.65412">
        <ele>1886</ele>
        <time>2016-02-06T13:03:11Z</time>
      </trkpt>
      <trkpt lat="45.60384" lon="6.65412">
        <ele>1886</ele>
        <time>2016-02-06T13:03:13Z</time>
      </trkpt>
      <trkpt lat="45.60382" lon="6.65413">
        <ele>1886</ele>
        <time>2016-02-06T13:03:15Z</time>
      </trkpt>
      <trkpt lat="45.60381" lon="6.65414">
        <ele>1886</ele>
        <time>2016-02-06T13:03:17Z</time>
      </trkpt>
      <trkpt lat="45.6038" lon="6.65415">
        <ele>1885</ele>
        <time>2016-02-06T13:03:19Z</time>
      </trkpt>
      <trkpt lat="45.60379" lon="6.65415">
        <ele>1885</ele>
        <time>2016-02-06T13:03:22Z</time>
      </trkpt>
      <trkpt lat="45.60377" lon="6.65417">
        <ele>1877</ele>
        <time>2016-02-06T13:03:25Z</time>
      </trkpt>
      <trkpt lat="45.60376" lon="6.65419">
        <ele>1877</ele>
        <time>2016-02-06T13:03:31Z</time>
      </trkpt>
      <trkpt lat="45.60375" lon="6.6542">
        <ele>1877</ele>
        <time>2016-02-06T13:03:34Z</time>
      </trkpt>
      <trkpt lat="45.60373" lon="6.6542">
        <ele>1876</ele>
        <time>2016-02-06T13:03:36Z</time>
      </trkpt>
      <trkpt lat="45.60372" lon="6.6542">
        <ele>1876</ele>
        <time>2016-02-06T13:03:38Z</time>
      </trkpt>
      <trkpt lat="45.60371" lon="6.6542">
        <ele>1876</ele>
        <time>2016-02-06T13:03:40Z</time>
      </trkpt>
      <trkpt lat="45.60369" lon="6.65419">
        <ele>1876</ele>
        <time>2016-02-06T13:03:47Z</time>
      </trkpt>
      <trkpt lat="45.60368" lon="6.65417">
        <ele>1875</ele>
        <time>2016-02-06T13:03:48Z</time>
      </trkpt>
      <trkpt lat="45.60368" lon="6.65422">
        <ele>1875</ele>
        <time>2016-02-06T13:03:51Z</time>
      </trkpt>
      <trkpt lat="45.60369" lon="6.65427">
        <ele>1875</ele>
        <time>2016-02-06T13:03:52Z</time>
      </trkpt>
      <trkpt lat="45.60371" lon="6.65435">
        <ele>1876</ele>
        <time>2016-02-06T13:03:53Z</time>
      </trkpt>
      <trkpt lat="45.60372" lon="6.65443">
        <ele>1876</ele>
        <time>2016-02-06T13:03:54Z</time>
      </trkpt>
      <trkpt lat="45.60374" lon="6.6545">
        <ele>1876</ele>
        <time>2016-02-06T13:03:55Z</time>
      </trkpt>
      <trkpt lat="45.60375" lon="6.65455">
        <ele>1876</ele>
        <time>2016-02-06T13:03:56Z</time>
      </trkpt>
      <trkpt lat="45.60375" lon="6.65458">
        <ele>1876</ele>
        <time>2016-02-06T13:03:57Z</time>
      </trkpt>
      <trkpt lat="45.60374" lon="6.65463">
        <ele>1875</ele>
        <time>2016-02-06T13:03:58Z</time>
      </trkpt>
      <trkpt lat="45.60372" lon="6.65466">
        <ele>1875</ele>
        <time>2016-02-06T13:03:59Z</time>
      </trkpt>
      <trkpt lat="45.60371" lon="6.65471">
        <ele>1875</ele>
        <time>2016-02-06T13:04:00Z</time>
      </trkpt>
      <trkpt lat="45.60369" lon="6.65477">
        <ele>1874</ele>
        <time>2016-02-06T13:04:01Z</time>
      </trkpt>
      <trkpt lat="45.60367" lon="6.65481">
        <ele>1874</ele>
        <time>2016-02-06T13:04:02Z</time>
      </trkpt>
      <trkpt lat="45.60365" lon="6.65485">
        <ele>1873</ele>
        <time>2016-02-06T13:04:03Z</time>
      </trkpt>
      <trkpt lat="45.60362" lon="6.65489">
        <ele>1872</ele>
        <time>2016-02-06T13:04:04Z</time>
      </trkpt>
      <trkpt lat="45.6036" lon="6.65493">
        <ele>1871</ele>
        <time>2016-02-06T13:04:05Z</time>
      </trkpt>
      <trkpt lat="45.60357" lon="6.65496">
        <ele>1870</ele>
        <time>2016-02-06T13:04:06Z</time>
      </trkpt>
      <trkpt lat="45.60354" lon="6.655">
        <ele>1871</ele>
        <time>2016-02-06T13:04:07Z</time>
      </trkpt>
      <trkpt lat="45.60352" lon="6.65505">
        <ele>1870</ele>
        <time>2016-02-06T13:04:08Z</time>
      </trkpt>
      <trkpt lat="45.6035" lon="6.65511">
        <ele>1870</ele>
        <time>2016-02-06T13:04:09Z</time>
      </trkpt>
      <trkpt lat="45.60349" lon="6.65516">
        <ele>1871</ele>
        <time>2016-02-06T13:04:10Z</time>
      </trkpt>
      <trkpt lat="45.60348" lon="6.6552">
        <ele>1871</ele>
        <time>2016-02-06T13:04:11Z</time>
      </trkpt>
      <trkpt lat="45.60349" lon="6.65522">
        <ele>1872</ele>
        <time>2016-02-06T13:04:12Z</time>
      </trkpt>
      <trkpt lat="45.6035" lon="6.65522">
        <ele>1872</ele>
        <time>2016-02-06T13:04:13Z</time>
      </trkpt>
      <trkpt lat="45.60352" lon="6.65521">
        <ele>1872</ele>
        <time>2016-02-06T13:04:15Z</time>
      </trkpt>
      <trkpt lat="45.60352" lon="6.65522">
        <ele>1873</ele>
        <time>2016-02-06T13:04:18Z</time>
      </trkpt>
      <trkpt lat="45.6035" lon="6.65525">
        <ele>1873</ele>
        <time>2016-02-06T13:04:20Z</time>
      </trkpt>
      <trkpt lat="45.6035" lon="6.65523">
        <ele>1872</ele>
        <time>2016-02-06T13:04:23Z</time>
      </trkpt>
      <trkpt lat="45.60349" lon="6.65524">
        <ele>1872</ele>
        <time>2016-02-06T13:04:26Z</time>
      </trkpt>
      <trkpt lat="45.60349" lon="6.65523">
        <ele>1872</ele>
        <time>2016-02-06T13:04:27Z</time>
      </trkpt>
      <trkpt lat="45.60349" lon="6.65521">
        <ele>1872</ele>
        <time>2016-02-06T13:04:29Z</time>
      </trkpt>
      <trkpt lat="45.6035" lon="6.6552">
        <ele>1872</ele>
        <time>2016-02-06T13:04:32Z</time>
      </trkpt>
      <trkpt lat="45.60352" lon="6.65521">
        <ele>1872</ele>
        <time>2016-02-06T13:04:37Z</time>
      </trkpt>
      <trkpt lat="45.60353" lon="6.6552">
        <ele>1872</ele>
        <time>2016-02-06T13:04:40Z</time>
      </trkpt>
      <trkpt lat="45.60354" lon="6.6552">
        <ele>1873</ele>
        <time>2016-02-06T13:04:43Z</time>
      </trkpt>
      <trkpt lat="45.60353" lon="6.6552">
        <ele>1872</ele>
        <time>2016-02-06T13:04:45Z</time>
      </trkpt>
      <trkpt lat="45.60352" lon="6.65521">
        <ele>1872</ele>
        <time>2016-02-06T13:04:46Z</time>
      </trkpt>
      <trkpt lat="45.6035" lon="6.65522">
        <ele>1872</ele>
        <time>2016-02-06T13:04:51Z</time>
      </trkpt>
      <trkpt lat="45.6035" lon="6.65524">
        <ele>1872</ele>
        <time>2016-02-06T13:04:53Z</time>
      </trkpt>
      <trkpt lat="45.60349" lon="6.65526">
        <ele>1873</ele>
        <time>2016-02-06T13:04:56Z</time>
      </trkpt>
      <trkpt lat="45.60348" lon="6.65528">
        <ele>1873</ele>
        <time>2016-02-06T13:04:57Z</time>
      </trkpt>
      <trkpt lat="45.60347" lon="6.6553">
        <ele>1873</ele>
        <time>2016-02-06T13:04:58Z</time>
      </trkpt>
      <trkpt lat="45.60349" lon="6.65528">
        <ele>1873</ele>
        <time>2016-02-06T13:05:03Z</time>
      </trkpt>
      <trkpt lat="45.6035" lon="6.65526">
        <ele>1873</ele>
        <time>2016-02-06T13:05:06Z</time>
      </trkpt>
      <trkpt lat="45.6035" lon="6.65525">
        <ele>1873</ele>
        <time>2016-02-06T13:05:08Z</time>
      </trkpt>
      <trkpt lat="45.60351" lon="6.65523">
        <ele>1872</ele>
        <time>2016-02-06T13:05:12Z</time>
      </trkpt>
      <trkpt lat="45.60352" lon="6.65522">
        <ele>1873</ele>
        <time>2016-02-06T13:05:16Z</time>
      </trkpt>
      <trkpt lat="45.60353" lon="6.65521">
        <ele>1873</ele>
        <time>2016-02-06T13:05:22Z</time>
      </trkpt>
      <trkpt lat="45.60355" lon="6.65521">
        <ele>1873</ele>
        <time>2016-02-06T13:05:26Z</time>
      </trkpt>
      <trkpt lat="45.60351" lon="6.6552">
        <ele>1872</ele>
        <time>2016-02-06T13:05:41Z</time>
      </trkpt>
      <trkpt lat="45.6035" lon="6.65521">
        <ele>1872</ele>
        <time>2016-02-06T13:05:42Z</time>
      </trkpt>
      <trkpt lat="45.60347" lon="6.65523">
        <ele>1872</ele>
        <time>2016-02-06T13:05:43Z</time>
      </trkpt>
      <trkpt lat="45.60345" lon="6.65525">
        <ele>1872</ele>
        <time>2016-02-06T13:05:44Z</time>
      </trkpt>
      <trkpt lat="45.60343" lon="6.65527">
        <ele>1872</ele>
        <time>2016-02-06T13:05:45Z</time>
      </trkpt>
      <trkpt lat="45.6034" lon="6.65531">
        <ele>1872</ele>
        <time>2016-02-06T13:05:46Z</time>
      </trkpt>
      <trkpt lat="45.60338" lon="6.65535">
        <ele>1873</ele>
        <time>2016-02-06T13:05:47Z</time>
      </trkpt>
      <trkpt lat="45.60336" lon="6.65539">
        <ele>1873</ele>
        <time>2016-02-06T13:05:48Z</time>
      </trkpt>
      <trkpt lat="45.60333" lon="6.65543">
        <ele>1855</ele>
        <time>2016-02-06T13:05:49Z</time>
      </trkpt>
      <trkpt lat="45.6033" lon="6.65545">
        <ele>1855</ele>
        <time>2016-02-06T13:05:50Z</time>
      </trkpt>
      <trkpt lat="45.60329" lon="6.65547">
        <ele>1855</ele>
        <time>2016-02-06T13:05:51Z</time>
      </trkpt>
      <trkpt lat="45.60327" lon="6.65549">
        <ele>1856</ele>
        <time>2016-02-06T13:05:52Z</time>
      </trkpt>
      <trkpt lat="45.60325" lon="6.65551">
        <ele>1856</ele>
        <time>2016-02-06T13:05:53Z</time>
      </trkpt>
      <trkpt lat="45.60323" lon="6.65553">
        <ele>1856</ele>
        <time>2016-02-06T13:05:54Z</time>
      </trkpt>
      <trkpt lat="45.60322" lon="6.65557">
        <ele>1856</ele>
        <time>2016-02-06T13:05:55Z</time>
      </trkpt>
      <trkpt lat="45.60321" lon="6.65559">
        <ele>1856</ele>
        <time>2016-02-06T13:05:56Z</time>
      </trkpt>
      <trkpt lat="45.6032" lon="6.65562">
        <ele>1857</ele>
        <time>2016-02-06T13:05:57Z</time>
      </trkpt>
      <trkpt lat="45.60319" lon="6.65565">
        <ele>1857</ele>
        <time>2016-02-06T13:05:58Z</time>
      </trkpt>
      <trkpt lat="45.60318" lon="6.65569">
        <ele>1857</ele>
        <time>2016-02-06T13:05:59Z</time>
      </trkpt>
      <trkpt lat="45.60316" lon="6.65571">
        <ele>1857</ele>
        <time>2016-02-06T13:06:00Z</time>
      </trkpt>
      <trkpt lat="45.60315" lon="6.65575">
        <ele>1857</ele>
        <time>2016-02-06T13:06:01Z</time>
      </trkpt>
      <trkpt lat="45.60313" lon="6.65579">
        <ele>1857</ele>
        <time>2016-02-06T13:06:02Z</time>
      </trkpt>
      <trkpt lat="45.60312" lon="6.65582">
        <ele>1857</ele>
        <time>2016-02-06T13:06:03Z</time>
      </trkpt>
      <trkpt lat="45.60311" lon="6.65585">
        <ele>1858</ele>
        <time>2016-02-06T13:06:04Z</time>
      </trkpt>
      <trkpt lat="45.6031" lon="6.65587">
        <ele>1858</ele>
        <time>2016-02-06T13:06:05Z</time>
      </trkpt>
      <trkpt lat="45.60309" lon="6.65588">
        <ele>1857</ele>
        <time>2016-02-06T13:06:06Z</time>
      </trkpt>
      <trkpt lat="45.60307" lon="6.65591">
        <ele>1857</ele>
        <time>2016-02-06T13:06:07Z</time>
      </trkpt>
      <trkpt lat="45.60306" lon="6.65594">
        <ele>1856</ele>
        <time>2016-02-06T13:06:08Z</time>
      </trkpt>
      <trkpt lat="45.60306" lon="6.65596">
        <ele>1856</ele>
        <time>2016-02-06T13:06:09Z</time>
      </trkpt>
      <trkpt lat="45.60304" lon="6.65597">
        <ele>1856</ele>
        <time>2016-02-06T13:06:10Z</time>
      </trkpt>
      <trkpt lat="45.60306" lon="6.65599">
        <ele>1856</ele>
        <time>2016-02-06T13:06:14Z</time>
      </trkpt>
      <trkpt lat="45.60305" lon="6.656">
        <ele>1856</ele>
        <time>2016-02-06T13:06:16Z</time>
      </trkpt>
      <trkpt lat="45.60307" lon="6.65599">
        <ele>1856</ele>
        <time>2016-02-06T13:06:33Z</time>
      </trkpt>
      <trkpt lat="45.60306" lon="6.65601">
        <ele>1856</ele>
        <time>2016-02-06T13:06:36Z</time>
      </trkpt>
      <trkpt lat="45.60305" lon="6.65602">
        <ele>1856</ele>
        <time>2016-02-06T13:06:39Z</time>
      </trkpt>
      <trkpt lat="45.60304" lon="6.65602">
        <ele>1856</ele>
        <time>2016-02-06T13:06:43Z</time>
      </trkpt>
      <trkpt lat="45.60303" lon="6.65602">
        <ele>1855</ele>
        <time>2016-02-06T13:06:45Z</time>
      </trkpt>
      <trkpt lat="45.60301" lon="6.65604">
        <ele>1855</ele>
        <time>2016-02-06T13:06:47Z</time>
      </trkpt>
      <trkpt lat="45.603" lon="6.65605">
        <ele>1854</ele>
        <time>2016-02-06T13:06:48Z</time>
      </trkpt>
      <trkpt lat="45.60297" lon="6.65605">
        <ele>1854</ele>
        <time>2016-02-06T13:06:49Z</time>
      </trkpt>
      <trkpt lat="45.60294" lon="6.65605">
        <ele>1853</ele>
        <time>2016-02-06T13:06:50Z</time>
      </trkpt>
      <trkpt lat="45.6029" lon="6.65603">
        <ele>1852</ele>
        <time>2016-02-06T13:06:51Z</time>
      </trkpt>
      <trkpt lat="45.60284" lon="6.65601">
        <ele>1850</ele>
        <time>2016-02-06T13:06:52Z</time>
      </trkpt>
      <trkpt lat="45.60278" lon="6.65601">
        <ele>1849</ele>
        <time>2016-02-06T13:06:53Z</time>
      </trkpt>
      <trkpt lat="45.60274" lon="6.65603">
        <ele>1848</ele>
        <time>2016-02-06T13:06:54Z</time>
      </trkpt>
      <trkpt lat="45.6027" lon="6.65604">
        <ele>1847</ele>
        <time>2016-02-06T13:06:55Z</time>
      </trkpt>
      <trkpt lat="45.60268" lon="6.65609">
        <ele>1847</ele>
        <time>2016-02-06T13:06:56Z</time>
      </trkpt>
      <trkpt lat="45.60265" lon="6.65614">
        <ele>1847</ele>
        <time>2016-02-06T13:06:57Z</time>
      </trkpt>
      <trkpt lat="45.60262" lon="6.65621">
        <ele>1847</ele>
        <time>2016-02-06T13:06:58Z</time>
      </trkpt>
      <trkpt lat="45.60258" lon="6.65626">
        <ele>1846</ele>
        <time>2016-02-06T13:06:59Z</time>
      </trkpt>
      <trkpt lat="45.60254" lon="6.65633">
        <ele>1846</ele>
        <time>2016-02-06T13:07:00Z</time>
      </trkpt>
      <trkpt lat="45.6025" lon="6.65639">
        <ele>1825</ele>
        <time>2016-02-06T13:07:01Z</time>
      </trkpt>
      <trkpt lat="45.60245" lon="6.65644">
        <ele>1825</ele>
        <time>2016-02-06T13:07:02Z</time>
      </trkpt>
      <trkpt lat="45.60242" lon="6.65648">
        <ele>1825</ele>
        <time>2016-02-06T13:07:03Z</time>
      </trkpt>
      <trkpt lat="45.6024" lon="6.65651">
        <ele>1825</ele>
        <time>2016-02-06T13:07:04Z</time>
      </trkpt>
      <trkpt lat="45.60238" lon="6.65656">
        <ele>1826</ele>
        <time>2016-02-06T13:07:05Z</time>
      </trkpt>
      <trkpt lat="45.60236" lon="6.65658">
        <ele>1826</ele>
        <time>2016-02-06T13:07:06Z</time>
      </trkpt>
      <trkpt lat="45.60238" lon="6.6566">
        <ele>1826</ele>
        <time>2016-02-06T13:07:09Z</time>
      </trkpt>
      <trkpt lat="45.60238" lon="6.65661">
        <ele>1827</ele>
        <time>2016-02-06T13:07:12Z</time>
      </trkpt>
      <trkpt lat="45.60237" lon="6.65663">
        <ele>1827</ele>
        <time>2016-02-06T13:07:17Z</time>
      </trkpt>
      <trkpt lat="45.60236" lon="6.65666">
        <ele>1827</ele>
        <time>2016-02-06T13:07:19Z</time>
      </trkpt>
      <trkpt lat="45.60236" lon="6.65668">
        <ele>1825</ele>
        <time>2016-02-06T13:07:21Z</time>
      </trkpt>
      <trkpt lat="45.60235" lon="6.65669">
        <ele>1824</ele>
        <time>2016-02-06T13:07:23Z</time>
      </trkpt>
      <trkpt lat="45.60233" lon="6.65672">
        <ele>1823</ele>
        <time>2016-02-06T13:07:27Z</time>
      </trkpt>
      <trkpt lat="45.60232" lon="6.65672">
        <ele>1823</ele>
        <time>2016-02-06T13:07:28Z</time>
      </trkpt>
      <trkpt lat="45.60231" lon="6.65672">
        <ele>1822</ele>
        <time>2016-02-06T13:07:29Z</time>
      </trkpt>
      <trkpt lat="45.6023" lon="6.6567">
        <ele>1822</ele>
        <time>2016-02-06T13:07:31Z</time>
      </trkpt>
      <trkpt lat="45.60229" lon="6.65669">
        <ele>1822</ele>
        <time>2016-02-06T13:07:35Z</time>
      </trkpt>
      <trkpt lat="45.60228" lon="6.6567">
        <ele>1821</ele>
        <time>2016-02-06T13:07:39Z</time>
      </trkpt>
      <trkpt lat="45.60228" lon="6.65668">
        <ele>1821</ele>
        <time>2016-02-06T13:07:44Z</time>
      </trkpt>
      <trkpt lat="45.60228" lon="6.65666">
        <ele>1823</ele>
        <time>2016-02-06T13:07:47Z</time>
      </trkpt>
      <trkpt lat="45.60226" lon="6.65666">
        <ele>1823</ele>
        <time>2016-02-06T13:07:49Z</time>
      </trkpt>
      <trkpt lat="45.60225" lon="6.65669">
        <ele>1820</ele>
        <time>2016-02-06T13:07:50Z</time>
      </trkpt>
      <trkpt lat="45.60225" lon="6.6567">
        <ele>1820</ele>
        <time>2016-02-06T13:07:52Z</time>
      </trkpt>
      <trkpt lat="45.60224" lon="6.65669">
        <ele>1820</ele>
        <time>2016-02-06T13:07:55Z</time>
      </trkpt>
      <trkpt lat="45.60224" lon="6.65667">
        <ele>1820</ele>
        <time>2016-02-06T13:07:56Z</time>
      </trkpt>
      <trkpt lat="45.60223" lon="6.65664">
        <ele>1821</ele>
        <time>2016-02-06T13:07:57Z</time>
      </trkpt>
      <trkpt lat="45.60221" lon="6.6566">
        <ele>1821</ele>
        <time>2016-02-06T13:07:58Z</time>
      </trkpt>
      <trkpt lat="45.60219" lon="6.65655">
        <ele>1820</ele>
        <time>2016-02-06T13:07:59Z</time>
      </trkpt>
      <trkpt lat="45.60217" lon="6.65651">
        <ele>1819</ele>
        <time>2016-02-06T13:08:00Z</time>
      </trkpt>
      <trkpt lat="45.60212" lon="6.65649">
        <ele>1818</ele>
        <time>2016-02-06T13:08:01Z</time>
      </trkpt>
      <trkpt lat="45.60205" lon="6.6565">
        <ele>1816</ele>
        <time>2016-02-06T13:08:02Z</time>
      </trkpt>
      <trkpt lat="45.60198" lon="6.65653">
        <ele>1814</ele>
        <time>2016-02-06T13:08:03Z</time>
      </trkpt>
      <trkpt lat="45.60194" lon="6.65657">
        <ele>1812</ele>
        <time>2016-02-06T13:08:04Z</time>
      </trkpt>
      <trkpt lat="45.60188" lon="6.65662">
        <ele>1809</ele>
        <time>2016-02-06T13:08:05Z</time>
      </trkpt>
      <trkpt lat="45.60187" lon="6.65666">
        <ele>1808</ele>
        <time>2016-02-06T13:08:06Z</time>
      </trkpt>
      <trkpt lat="45.60186" lon="6.65668">
        <ele>1806</ele>
        <time>2016-02-06T13:08:07Z</time>
      </trkpt>
      <trkpt lat="45.60186" lon="6.6567">
        <ele>1806</ele>
        <time>2016-02-06T13:08:08Z</time>
      </trkpt>
      <trkpt lat="45.60188" lon="6.65673">
        <ele>1807</ele>
        <time>2016-02-06T13:08:09Z</time>
      </trkpt>
      <trkpt lat="45.60189" lon="6.65674">
        <ele>1807</ele>
        <time>2016-02-06T13:08:10Z</time>
      </trkpt>
      <trkpt lat="45.60191" lon="6.65678">
        <ele>1808</ele>
        <time>2016-02-06T13:08:12Z</time>
      </trkpt>
      <trkpt lat="45.60191" lon="6.6568">
        <ele>1809</ele>
        <time>2016-02-06T13:08:13Z</time>
      </trkpt>
      <trkpt lat="45.60192" lon="6.65681">
        <ele>1809</ele>
        <time>2016-02-06T13:08:14Z</time>
      </trkpt>
      <trkpt lat="45.60191" lon="6.65682">
        <ele>1809</ele>
        <time>2016-02-06T13:08:22Z</time>
      </trkpt>
      <trkpt lat="45.60189" lon="6.65684">
        <ele>1808</ele>
        <time>2016-02-06T13:08:23Z</time>
      </trkpt>
      <trkpt lat="45.60187" lon="6.65685">
        <ele>1808</ele>
        <time>2016-02-06T13:08:24Z</time>
      </trkpt>
      <trkpt lat="45.60184" lon="6.65685">
        <ele>1807</ele>
        <time>2016-02-06T13:08:25Z</time>
      </trkpt>
      <trkpt lat="45.60181" lon="6.65685">
        <ele>1806</ele>
        <time>2016-02-06T13:08:26Z</time>
      </trkpt>
      <trkpt lat="45.60178" lon="6.65686">
        <ele>1806</ele>
        <time>2016-02-06T13:08:27Z</time>
      </trkpt>
      <trkpt lat="45.60174" lon="6.65687">
        <ele>1805</ele>
        <time>2016-02-06T13:08:28Z</time>
      </trkpt>
      <trkpt lat="45.60169" lon="6.65687">
        <ele>1804</ele>
        <time>2016-02-06T13:08:29Z</time>
      </trkpt>
      <trkpt lat="45.60165" lon="6.65688">
        <ele>1791</ele>
        <time>2016-02-06T13:08:30Z</time>
      </trkpt>
      <trkpt lat="45.60163" lon="6.6569">
        <ele>1790</ele>
        <time>2016-02-06T13:08:31Z</time>
      </trkpt>
      <trkpt lat="45.60161" lon="6.65691">
        <ele>1790</ele>
        <time>2016-02-06T13:08:32Z</time>
      </trkpt>
      <trkpt lat="45.60163" lon="6.6569">
        <ele>1790</ele>
        <time>2016-02-06T13:08:36Z</time>
      </trkpt>
      <trkpt lat="45.6016" lon="6.65693">
        <ele>1790</ele>
        <time>2016-02-06T13:08:40Z</time>
      </trkpt>
      <trkpt lat="45.60159" lon="6.65695">
        <ele>1790</ele>
        <time>2016-02-06T13:08:41Z</time>
      </trkpt>
      <trkpt lat="45.60159" lon="6.65698">
        <ele>1789</ele>
        <time>2016-02-06T13:08:42Z</time>
      </trkpt>
      <trkpt lat="45.60158" lon="6.657">
        <ele>1789</ele>
        <time>2016-02-06T13:08:43Z</time>
      </trkpt>
      <trkpt lat="45.60158" lon="6.65704">
        <ele>1789</ele>
        <time>2016-02-06T13:08:44Z</time>
      </trkpt>
      <trkpt lat="45.60158" lon="6.65706">
        <ele>1789</ele>
        <time>2016-02-06T13:08:45Z</time>
      </trkpt>
      <trkpt lat="45.60157" lon="6.65711">
        <ele>1788</ele>
        <time>2016-02-06T13:08:46Z</time>
      </trkpt>
      <trkpt lat="45.60157" lon="6.65715">
        <ele>1788</ele>
        <time>2016-02-06T13:08:47Z</time>
      </trkpt>
      <trkpt lat="45.60157" lon="6.65718">
        <ele>1788</ele>
        <time>2016-02-06T13:08:48Z</time>
      </trkpt>
      <trkpt lat="45.60157" lon="6.65721">
        <ele>1788</ele>
        <time>2016-02-06T13:08:49Z</time>
      </trkpt>
      <trkpt lat="45.60156" lon="6.65724">
        <ele>1788</ele>
        <time>2016-02-06T13:08:50Z</time>
      </trkpt>
      <trkpt lat="45.60155" lon="6.65726">
        <ele>1788</ele>
        <time>2016-02-06T13:08:51Z</time>
      </trkpt>
      <trkpt lat="45.60154" lon="6.65728">
        <ele>1788</ele>
        <time>2016-02-06T13:08:55Z</time>
      </trkpt>
      <trkpt lat="45.60153" lon="6.6573">
        <ele>1788</ele>
        <time>2016-02-06T13:08:57Z</time>
      </trkpt>
      <trkpt lat="45.60152" lon="6.65732">
        <ele>1788</ele>
        <time>2016-02-06T13:08:59Z</time>
      </trkpt>
      <trkpt lat="45.60153" lon="6.65734">
        <ele>1788</ele>
        <time>2016-02-06T13:09:04Z</time>
      </trkpt>
      <trkpt lat="45.60152" lon="6.65735">
        <ele>1788</ele>
        <time>2016-02-06T13:09:11Z</time>
      </trkpt>
      <trkpt lat="45.60152" lon="6.65736">
        <ele>1788</ele>
        <time>2016-02-06T13:09:14Z</time>
      </trkpt>
      <trkpt lat="45.60152" lon="6.65738">
        <ele>1788</ele>
        <time>2016-02-06T13:09:22Z</time>
      </trkpt>
      <trkpt lat="45.60151" lon="6.6574">
        <ele>1788</ele>
        <time>2016-02-06T13:09:24Z</time>
      </trkpt>
      <trkpt lat="45.6015" lon="6.6574">
        <ele>1788</ele>
        <time>2016-02-06T13:09:26Z</time>
      </trkpt>
      <trkpt lat="45.60151" lon="6.65739">
        <ele>1788</ele>
        <time>2016-02-06T13:09:29Z</time>
      </trkpt>
      <trkpt lat="45.60152" lon="6.6574">
        <ele>1788</ele>
        <time>2016-02-06T13:09:32Z</time>
      </trkpt>
      <trkpt lat="45.60152" lon="6.65737">
        <ele>1788</ele>
        <time>2016-02-06T13:09:35Z</time>
      </trkpt>
      <trkpt lat="45.60154" lon="6.65735">
        <ele>1788</ele>
        <time>2016-02-06T13:09:38Z</time>
      </trkpt>
      <trkpt lat="45.60155" lon="6.65734">
        <ele>1788</ele>
        <time>2016-02-06T13:09:42Z</time>
      </trkpt>
      <trkpt lat="45.60155" lon="6.65732">
        <ele>1788</ele>
        <time>2016-02-06T13:09:44Z</time>
      </trkpt>
      <trkpt lat="45.60156" lon="6.65732">
        <ele>1788</ele>
        <time>2016-02-06T13:09:48Z</time>
      </trkpt>
      <trkpt lat="45.60157" lon="6.65735">
        <ele>1789</ele>
        <time>2016-02-06T13:09:53Z</time>
      </trkpt>
      <trkpt lat="45.60156" lon="6.65736">
        <ele>1789</ele>
        <time>2016-02-06T13:09:54Z</time>
      </trkpt>
      <trkpt lat="45.60156" lon="6.65738">
        <ele>1789</ele>
        <time>2016-02-06T13:09:58Z</time>
      </trkpt>
      <trkpt lat="45.60155" lon="6.65737">
        <ele>1789</ele>
        <time>2016-02-06T13:10:00Z</time>
      </trkpt>
      <trkpt lat="45.60154" lon="6.65737">
        <ele>1788</ele>
        <time>2016-02-06T13:10:01Z</time>
      </trkpt>
      <trkpt lat="45.60153" lon="6.65735">
        <ele>1788</ele>
        <time>2016-02-06T13:10:02Z</time>
      </trkpt>
      <trkpt lat="45.60153" lon="6.65733">
        <ele>1788</ele>
        <time>2016-02-06T13:10:04Z</time>
      </trkpt>
      <trkpt lat="45.60154" lon="6.65731">
        <ele>1788</ele>
        <time>2016-02-06T13:10:06Z</time>
      </trkpt>
      <trkpt lat="45.60154" lon="6.65733">
        <ele>1788</ele>
        <time>2016-02-06T13:10:09Z</time>
      </trkpt>
      <trkpt lat="45.60154" lon="6.65736">
        <ele>1788</ele>
        <time>2016-02-06T13:10:11Z</time>
      </trkpt>
      <trkpt lat="45.60154" lon="6.65738">
        <ele>1789</ele>
        <time>2016-02-06T13:10:12Z</time>
      </trkpt>
      <trkpt lat="45.60152" lon="6.65741">
        <ele>1789</ele>
        <time>2016-02-06T13:10:14Z</time>
      </trkpt>
      <trkpt lat="45.60151" lon="6.65741">
        <ele>1788</ele>
        <time>2016-02-06T13:10:15Z</time>
      </trkpt>
      <trkpt lat="45.6015" lon="6.65742">
        <ele>1788</ele>
        <time>2016-02-06T13:10:16Z</time>
      </trkpt>
      <trkpt lat="45.60148" lon="6.65744">
        <ele>1788</ele>
        <time>2016-02-06T13:10:18Z</time>
      </trkpt>
      <trkpt lat="45.60146" lon="6.65745">
        <ele>1788</ele>
        <time>2016-02-06T13:10:19Z</time>
      </trkpt>
      <trkpt lat="45.60146" lon="6.65746">
        <ele>1788</ele>
        <time>2016-02-06T13:10:20Z</time>
      </trkpt>
      <trkpt lat="45.60145" lon="6.65749">
        <ele>1787</ele>
        <time>2016-02-06T13:10:21Z</time>
      </trkpt>
      <trkpt lat="45.60146" lon="6.65749">
        <ele>1788</ele>
        <time>2016-02-06T13:10:23Z</time>
      </trkpt>
      <trkpt lat="45.60147" lon="6.65747">
        <ele>1788</ele>
        <time>2016-02-06T13:10:25Z</time>
      </trkpt>
      <trkpt lat="45.60149" lon="6.65744">
        <ele>1788</ele>
        <time>2016-02-06T13:10:27Z</time>
      </trkpt>
      <trkpt lat="45.6015" lon="6.65741">
        <ele>1788</ele>
        <time>2016-02-06T13:10:28Z</time>
      </trkpt>
      <trkpt lat="45.60151" lon="6.65739">
        <ele>1788</ele>
        <time>2016-02-06T13:10:29Z</time>
      </trkpt>
      <trkpt lat="45.60151" lon="6.65737">
        <ele>1788</ele>
        <time>2016-02-06T13:10:32Z</time>
      </trkpt>
      <trkpt lat="45.60152" lon="6.65733">
        <ele>1788</ele>
        <time>2016-02-06T13:10:34Z</time>
      </trkpt>
      <trkpt lat="45.60154" lon="6.65731">
        <ele>1788</ele>
        <time>2016-02-06T13:10:45Z</time>
      </trkpt>
      <trkpt lat="45.60152" lon="6.6573">
        <ele>1788</ele>
        <time>2016-02-06T13:10:49Z</time>
      </trkpt>
      <trkpt lat="45.60153" lon="6.65727">
        <ele>1788</ele>
        <time>2016-02-06T13:10:50Z</time>
      </trkpt>
      <trkpt lat="45.60152" lon="6.65729">
        <ele>1788</ele>
        <time>2016-02-06T13:10:51Z</time>
      </trkpt>
      <trkpt lat="45.60154" lon="6.65729">
        <ele>1788</ele>
        <time>2016-02-06T13:10:55Z</time>
      </trkpt>
      <trkpt lat="45.60154" lon="6.65727">
        <ele>1788</ele>
        <time>2016-02-06T13:10:56Z</time>
      </trkpt>
      <trkpt lat="45.60155" lon="6.65727">
        <ele>1788</ele>
        <time>2016-02-06T13:10:58Z</time>
      </trkpt>
      <trkpt lat="45.60154" lon="6.65728">
        <ele>1788</ele>
        <time>2016-02-06T13:11:03Z</time>
      </trkpt>
      <trkpt lat="45.60153" lon="6.65729">
        <ele>1788</ele>
        <time>2016-02-06T13:11:08Z</time>
      </trkpt>
      <trkpt lat="45.60152" lon="6.65731">
        <ele>1788</ele>
        <time>2016-02-06T13:11:09Z</time>
      </trkpt>
      <trkpt lat="45.60152" lon="6.65733">
        <ele>1788</ele>
        <time>2016-02-06T13:11:10Z</time>
      </trkpt>
      <trkpt lat="45.60151" lon="6.65734">
        <ele>1788</ele>
        <time>2016-02-06T13:11:13Z</time>
      </trkpt>
      <trkpt lat="45.6015" lon="6.65736">
        <ele>1788</ele>
        <time>2016-02-06T13:11:15Z</time>
      </trkpt>
      <trkpt lat="45.6015" lon="6.65734">
        <ele>1788</ele>
        <time>2016-02-06T13:11:18Z</time>
      </trkpt>
      <trkpt lat="45.60149" lon="6.65737">
        <ele>1788</ele>
        <time>2016-02-06T13:11:21Z</time>
      </trkpt>
      <trkpt lat="45.6015" lon="6.65738">
        <ele>1788</ele>
        <time>2016-02-06T13:11:22Z</time>
      </trkpt>
      <trkpt lat="45.6015" lon="6.65736">
        <ele>1788</ele>
        <time>2016-02-06T13:11:28Z</time>
      </trkpt>
      <trkpt lat="45.60151" lon="6.65739">
        <ele>1788</ele>
        <time>2016-02-06T13:11:32Z</time>
      </trkpt>
      <trkpt lat="45.60152" lon="6.65741">
        <ele>1788</ele>
        <time>2016-02-06T13:11:33Z</time>
      </trkpt>
      <trkpt lat="45.60153" lon="6.65743">
        <ele>1789</ele>
        <time>2016-02-06T13:11:34Z</time>
      </trkpt>
      <trkpt lat="45.60154" lon="6.65743">
        <ele>1789</ele>
        <time>2016-02-06T13:11:35Z</time>
      </trkpt>
      <trkpt lat="45.60154" lon="6.65741">
        <ele>1789</ele>
        <time>2016-02-06T13:11:37Z</time>
      </trkpt>
      <trkpt lat="45.60154" lon="6.65739">
        <ele>1789</ele>
        <time>2016-02-06T13:11:39Z</time>
      </trkpt>
      <trkpt lat="45.60154" lon="6.6574">
        <ele>1789</ele>
        <time>2016-02-06T13:11:41Z</time>
      </trkpt>
      <trkpt lat="45.60156" lon="6.65742">
        <ele>1789</ele>
        <time>2016-02-06T13:11:43Z</time>
      </trkpt>
      <trkpt lat="45.60156" lon="6.65745">
        <ele>1789</ele>
        <time>2016-02-06T13:11:44Z</time>
      </trkpt>
      <trkpt lat="45.60156" lon="6.65747">
        <ele>1789</ele>
        <time>2016-02-06T13:11:45Z</time>
      </trkpt>
      <trkpt lat="45.60154" lon="6.65746">
        <ele>1789</ele>
        <time>2016-02-06T13:11:48Z</time>
      </trkpt>
      <trkpt lat="45.60153" lon="6.65746">
        <ele>1789</ele>
        <time>2016-02-06T13:11:50Z</time>
      </trkpt>
      <trkpt lat="45.60154" lon="6.65746">
        <ele>1789</ele>
        <time>2016-02-06T13:11:52Z</time>
      </trkpt>
      <trkpt lat="45.60156" lon="6.65746">
        <ele>1789</ele>
        <time>2016-02-06T13:11:56Z</time>
      </trkpt>
      <trkpt lat="45.60157" lon="6.65747">
        <ele>1790</ele>
        <time>2016-02-06T13:11:58Z</time>
      </trkpt>
      <trkpt lat="45.60157" lon="6.65745">
        <ele>1789</ele>
        <time>2016-02-06T13:12:00Z</time>
      </trkpt>
      <trkpt lat="45.60156" lon="6.65747">
        <ele>1789</ele>
        <time>2016-02-06T13:12:10Z</time>
      </trkpt>
      <trkpt lat="45.60155" lon="6.65746">
        <ele>1789</ele>
        <time>2016-02-06T13:12:13Z</time>
      </trkpt>
      <trkpt lat="45.60155" lon="6.65745">
        <ele>1789</ele>
        <time>2016-02-06T13:12:17Z</time>
      </trkpt>
      <trkpt lat="45.60156" lon="6.65747">
        <ele>1789</ele>
        <time>2016-02-06T13:12:25Z</time>
      </trkpt>
      <trkpt lat="45.60156" lon="6.65749">
        <ele>1789</ele>
        <time>2016-02-06T13:12:34Z</time>
      </trkpt>
      <trkpt lat="45.60157" lon="6.65748">
        <ele>1790</ele>
        <time>2016-02-06T13:12:36Z</time>
      </trkpt>
      <trkpt lat="45.60158" lon="6.65746">
        <ele>1790</ele>
        <time>2016-02-06T13:12:38Z</time>
      </trkpt>
      <trkpt lat="45.60159" lon="6.65744">
        <ele>1790</ele>
        <time>2016-02-06T13:12:43Z</time>
      </trkpt>
      <trkpt lat="45.60158" lon="6.65742">
        <ele>1789</ele>
        <time>2016-02-06T13:12:45Z</time>
      </trkpt>
      <trkpt lat="45.6016" lon="6.65741">
        <ele>1790</ele>
        <time>2016-02-06T13:12:47Z</time>
      </trkpt>
      <trkpt lat="45.6016" lon="6.65743">
        <ele>1790</ele>
        <time>2016-02-06T13:12:52Z</time>
      </trkpt>
      <trkpt lat="45.6016" lon="6.65742">
        <ele>1790</ele>
        <time>2016-02-06T13:12:56Z</time>
      </trkpt>
      <trkpt lat="45.6016" lon="6.6574">
        <ele>1789</ele>
        <time>2016-02-06T13:12:59Z</time>
      </trkpt>
      <trkpt lat="45.6016" lon="6.65738">
        <ele>1789</ele>
        <time>2016-02-06T13:13:00Z</time>
      </trkpt>
      <trkpt lat="45.60159" lon="6.65738">
        <ele>1789</ele>
        <time>2016-02-06T13:13:03Z</time>
      </trkpt>
      <trkpt lat="45.60157" lon="6.65737">
        <ele>1789</ele>
        <time>2016-02-06T13:13:05Z</time>
      </trkpt>
      <trkpt lat="45.60159" lon="6.65736">
        <ele>1789</ele>
        <time>2016-02-06T13:13:08Z</time>
      </trkpt>
      <trkpt lat="45.6016" lon="6.65736">
        <ele>1789</ele>
        <time>2016-02-06T13:13:09Z</time>
      </trkpt>
      <trkpt lat="45.60161" lon="6.65735">
        <ele>1789</ele>
        <time>2016-02-06T13:13:14Z</time>
      </trkpt>
      <trkpt lat="45.60159" lon="6.65734">
        <ele>1789</ele>
        <time>2016-02-06T13:13:20Z</time>
      </trkpt>
      <trkpt lat="45.60158" lon="6.65733">
        <ele>1789</ele>
        <time>2016-02-06T13:13:22Z</time>
      </trkpt>
      <trkpt lat="45.60157" lon="6.65731">
        <ele>1788</ele>
        <time>2016-02-06T13:13:24Z</time>
      </trkpt>
      <trkpt lat="45.60157" lon="6.6573">
        <ele>1788</ele>
        <time>2016-02-06T13:13:26Z</time>
      </trkpt>
      <trkpt lat="45.60158" lon="6.65727">
        <ele>1788</ele>
        <time>2016-02-06T13:13:27Z</time>
      </trkpt>
      <trkpt lat="45.60159" lon="6.65725">
        <ele>1788</ele>
        <time>2016-02-06T13:13:28Z</time>
      </trkpt>
      <trkpt lat="45.6016" lon="6.65723">
        <ele>1788</ele>
        <time>2016-02-06T13:13:30Z</time>
      </trkpt>
      <trkpt lat="45.60159" lon="6.65724">
        <ele>1788</ele>
        <time>2016-02-06T13:13:33Z</time>
      </trkpt>
      <trkpt lat="45.6016" lon="6.65724">
        <ele>1788</ele>
        <time>2016-02-06T13:13:37Z</time>
      </trkpt>
      <trkpt lat="45.6016" lon="6.65725">
        <ele>1788</ele>
        <time>2016-02-06T13:13:40Z</time>
      </trkpt>
      <trkpt lat="45.6016" lon="6.65728">
        <ele>1789</ele>
        <time>2016-02-06T13:13:41Z</time>
      </trkpt>
      <trkpt lat="45.60159" lon="6.65731">
        <ele>1789</ele>
        <time>2016-02-06T13:13:43Z</time>
      </trkpt>
      <trkpt lat="45.60157" lon="6.65732">
        <ele>1789</ele>
        <time>2016-02-06T13:13:46Z</time>
      </trkpt>
      <trkpt lat="45.60159" lon="6.65738">
        <ele>1789</ele>
        <time>2016-02-06T13:13:59Z</time>
      </trkpt>
      <trkpt lat="45.60157" lon="6.65738">
        <ele>1789</ele>
        <time>2016-02-06T13:14:00Z</time>
      </trkpt>
      <trkpt lat="45.60159" lon="6.65734">
        <ele>1789</ele>
        <time>2016-02-06T13:14:02Z</time>
      </trkpt>
      <trkpt lat="45.60159" lon="6.65731">
        <ele>1789</ele>
        <time>2016-02-06T13:14:03Z</time>
      </trkpt>
      <trkpt lat="45.60159" lon="6.65735">
        <ele>1789</ele>
        <time>2016-02-06T13:14:04Z</time>
      </trkpt>
      <trkpt lat="45.60158" lon="6.65739">
        <ele>1789</ele>
        <time>2016-02-06T13:14:08Z</time>
      </trkpt>
      <trkpt lat="45.60157" lon="6.65736">
        <ele>1789</ele>
        <time>2016-02-06T13:14:11Z</time>
      </trkpt>
      <trkpt lat="45.60157" lon="6.65734">
        <ele>1789</ele>
        <time>2016-02-06T13:14:12Z</time>
      </trkpt>
      <trkpt lat="45.60157" lon="6.65732">
        <ele>1788</ele>
        <time>2016-02-06T13:14:14Z</time>
      </trkpt>
      <trkpt lat="45.60159" lon="6.65732">
        <ele>1789</ele>
        <time>2016-02-06T13:14:16Z</time>
      </trkpt>
      <trkpt lat="45.6016" lon="6.65731">
        <ele>1789</ele>
        <time>2016-02-06T13:14:18Z</time>
      </trkpt>
      <trkpt lat="45.60162" lon="6.6573">
        <ele>1789</ele>
        <time>2016-02-06T13:14:19Z</time>
      </trkpt>
      <trkpt lat="45.60164" lon="6.6573">
        <ele>1789</ele>
        <time>2016-02-06T13:14:22Z</time>
      </trkpt>
      <trkpt lat="45.60165" lon="6.6573">
        <ele>1789</ele>
        <time>2016-02-06T13:14:24Z</time>
      </trkpt>
      <trkpt lat="45.60167" lon="6.65729">
        <ele>1803</ele>
        <time>2016-02-06T13:14:26Z</time>
      </trkpt>
      <trkpt lat="45.60169" lon="6.65728">
        <ele>1803</ele>
        <time>2016-02-06T13:14:27Z</time>
      </trkpt>
      <trkpt lat="45.6017" lon="6.65727">
        <ele>1804</ele>
        <time>2016-02-06T13:14:29Z</time>
      </trkpt>
      <trkpt lat="45.60172" lon="6.65726">
        <ele>1804</ele>
        <time>2016-02-06T13:14:30Z</time>
      </trkpt>
      <trkpt lat="45.6017" lon="6.65727">
        <ele>1804</ele>
        <time>2016-02-06T13:14:35Z</time>
      </trkpt>
      <trkpt lat="45.6017" lon="6.6573">
        <ele>1803</ele>
        <time>2016-02-06T13:14:36Z</time>
      </trkpt>
      <trkpt lat="45.60169" lon="6.65731">
        <ele>1802</ele>
        <time>2016-02-06T13:14:37Z</time>
      </trkpt>
      <trkpt lat="45.60168" lon="6.65733">
        <ele>1802</ele>
        <time>2016-02-06T13:14:39Z</time>
      </trkpt>
      <trkpt lat="45.60167" lon="6.65732">
        <ele>1802</ele>
        <time>2016-02-06T13:14:42Z</time>
      </trkpt>
      <trkpt lat="45.60166" lon="6.65729">
        <ele>1789</ele>
        <time>2016-02-06T13:14:43Z</time>
      </trkpt>
      <trkpt lat="45.60166" lon="6.65727">
        <ele>1789</ele>
        <time>2016-02-06T13:14:44Z</time>
      </trkpt>
      <trkpt lat="45.60166" lon="6.65724">
        <ele>1789</ele>
        <time>2016-02-06T13:14:45Z</time>
      </trkpt>
      <trkpt lat="45.60166" lon="6.65729">
        <ele>1789</ele>
        <time>2016-02-06T13:14:48Z</time>
      </trkpt>
      <trkpt lat="45.60166" lon="6.65731">
        <ele>1789</ele>
        <time>2016-02-06T13:14:49Z</time>
      </trkpt>
      <trkpt lat="45.60166" lon="6.65734">
        <ele>1789</ele>
        <time>2016-02-06T13:14:50Z</time>
      </trkpt>
      <trkpt lat="45.60165" lon="6.65737">
        <ele>1790</ele>
        <time>2016-02-06T13:14:57Z</time>
      </trkpt>
      <trkpt lat="45.60165" lon="6.6574">
        <ele>1790</ele>
        <time>2016-02-06T13:15:00Z</time>
      </trkpt>
      <trkpt lat="45.60167" lon="6.6574">
        <ele>1799</ele>
        <time>2016-02-06T13:15:03Z</time>
      </trkpt>
      <trkpt lat="45.60167" lon="6.65738">
        <ele>1800</ele>
        <time>2016-02-06T13:15:07Z</time>
      </trkpt>
      <trkpt lat="45.60167" lon="6.65736">
        <ele>1801</ele>
        <time>2016-02-06T13:15:08Z</time>
      </trkpt>
      <trkpt lat="45.60166" lon="6.65735">
        <ele>1789</ele>
        <time>2016-02-06T13:15:10Z</time>
      </trkpt>
      <trkpt lat="45.60164" lon="6.65733">
        <ele>1789</ele>
        <time>2016-02-06T13:15:12Z</time>
      </trkpt>
      <trkpt lat="45.60164" lon="6.65728">
        <ele>1789</ele>
        <time>2016-02-06T13:15:18Z</time>
      </trkpt>
      <trkpt lat="45.60163" lon="6.65727">
        <ele>1789</ele>
        <time>2016-02-06T13:15:19Z</time>
      </trkpt>
      <trkpt lat="45.60165" lon="6.65722">
        <ele>1789</ele>
        <time>2016-02-06T13:15:21Z</time>
      </trkpt>
      <trkpt lat="45.60167" lon="6.65719">
        <ele>1789</ele>
        <time>2016-02-06T13:15:24Z</time>
      </trkpt>
      <trkpt lat="45.60166" lon="6.65722">
        <ele>1789</ele>
        <time>2016-02-06T13:15:26Z</time>
      </trkpt>
      <trkpt lat="45.60166" lon="6.65724">
        <ele>1789</ele>
        <time>2016-02-06T13:15:28Z</time>
      </trkpt>
      <trkpt lat="45.60167" lon="6.65722">
        <ele>1805</ele>
        <time>2016-02-06T13:15:32Z</time>
      </trkpt>
      <trkpt lat="45.60168" lon="6.6572">
        <ele>1805</ele>
        <time>2016-02-06T13:15:33Z</time>
      </trkpt>
      <trkpt lat="45.60169" lon="6.65722">
        <ele>1805</ele>
        <time>2016-02-06T13:15:36Z</time>
      </trkpt>
      <trkpt lat="45.60173" lon="6.65723">
        <ele>1805</ele>
        <time>2016-02-06T13:15:41Z</time>
      </trkpt>
      <trkpt lat="45.60172" lon="6.65725">
        <ele>1805</ele>
        <time>2016-02-06T13:15:45Z</time>
      </trkpt>
      <trkpt lat="45.60171" lon="6.65722">
        <ele>1805</ele>
        <time>2016-02-06T13:15:46Z</time>
      </trkpt>
      <trkpt lat="45.6017" lon="6.6572">
        <ele>1805</ele>
        <time>2016-02-06T13:15:49Z</time>
      </trkpt>
      <trkpt lat="45.60169" lon="6.65723">
        <ele>1805</ele>
        <time>2016-02-06T13:15:54Z</time>
      </trkpt>
      <trkpt lat="45.60169" lon="6.65726">
        <ele>1804</ele>
        <time>2016-02-06T13:15:55Z</time>
      </trkpt>
      <trkpt lat="45.60168" lon="6.65732">
        <ele>1802</ele>
        <time>2016-02-06T13:15:58Z</time>
      </trkpt>
      <trkpt lat="45.60169" lon="6.65734">
        <ele>1801</ele>
        <time>2016-02-06T13:15:59Z</time>
      </trkpt>
      <trkpt lat="45.60173" lon="6.65736">
        <ele>1801</ele>
        <time>2016-02-06T13:16:54Z</time>
      </trkpt>
      <trkpt lat="45.60174" lon="6.6574">
        <ele>1800</ele>
        <time>2016-02-06T13:17:22Z</time>
      </trkpt>
      <trkpt lat="45.60173" lon="6.65736">
        <ele>1801</ele>
        <time>2016-02-06T13:17:23Z</time>
      </trkpt>
      <trkpt lat="45.60171" lon="6.65731">
        <ele>1803</ele>
        <time>2016-02-06T13:17:24Z</time>
      </trkpt>
      <trkpt lat="45.60177" lon="6.6573">
        <ele>1804</ele>
        <time>2016-02-06T13:17:32Z</time>
      </trkpt>
      <trkpt lat="45.60177" lon="6.65726">
        <ele>1805</ele>
        <time>2016-02-06T13:17:34Z</time>
      </trkpt>
      <trkpt lat="45.60173" lon="6.65726">
        <ele>1805</ele>
        <time>2016-02-06T13:17:36Z</time>
      </trkpt>
      <trkpt lat="45.60172" lon="6.65722">
        <ele>1805</ele>
        <time>2016-02-06T13:17:37Z</time>
      </trkpt>
      <trkpt lat="45.60173" lon="6.6572">
        <ele>1806</ele>
        <time>2016-02-06T13:17:38Z</time>
      </trkpt>
      <trkpt lat="45.60172" lon="6.65721">
        <ele>1805</ele>
        <time>2016-02-06T13:17:39Z</time>
      </trkpt>
      <trkpt lat="45.60172" lon="6.65718">
        <ele>1806</ele>
        <time>2016-02-06T13:17:40Z</time>
      </trkpt>
      <trkpt lat="45.60173" lon="6.65719">
        <ele>1806</ele>
        <time>2016-02-06T13:17:41Z</time>
      </trkpt>
      <trkpt lat="45.60174" lon="6.65717">
        <ele>1806</ele>
        <time>2016-02-06T13:17:42Z</time>
      </trkpt>
      <trkpt lat="45.60174" lon="6.6572">
        <ele>1806</ele>
        <time>2016-02-06T13:17:43Z</time>
      </trkpt>
      <trkpt lat="45.60175" lon="6.65722">
        <ele>1806</ele>
        <time>2016-02-06T13:17:44Z</time>
      </trkpt>
      <trkpt lat="45.60176" lon="6.65723">
        <ele>1805</ele>
        <time>2016-02-06T13:17:45Z</time>
      </trkpt>
      <trkpt lat="45.60177" lon="6.65721">
        <ele>1806</ele>
        <time>2016-02-06T13:17:47Z</time>
      </trkpt>
      <trkpt lat="45.60178" lon="6.65719">
        <ele>1807</ele>
        <time>2016-02-06T13:17:49Z</time>
      </trkpt>
      <trkpt lat="45.6018" lon="6.65716">
        <ele>1807</ele>
        <time>2016-02-06T13:17:53Z</time>
      </trkpt>
      <trkpt lat="45.6018" lon="6.65714">
        <ele>1807</ele>
        <time>2016-02-06T13:17:54Z</time>
      </trkpt>
      <trkpt lat="45.60178" lon="6.65716">
        <ele>1807</ele>
        <time>2016-02-06T13:17:55Z</time>
      </trkpt>
      <trkpt lat="45.60179" lon="6.65713">
        <ele>1807</ele>
        <time>2016-02-06T13:17:58Z</time>
      </trkpt>
      <trkpt lat="45.6018" lon="6.65711">
        <ele>1807</ele>
        <time>2016-02-06T13:17:59Z</time>
      </trkpt>
      <trkpt lat="45.60181" lon="6.65709">
        <ele>1808</ele>
        <time>2016-02-06T13:18:02Z</time>
      </trkpt>
      <trkpt lat="45.6018" lon="6.65711">
        <ele>1808</ele>
        <time>2016-02-06T13:18:05Z</time>
      </trkpt>
      <trkpt lat="45.6018" lon="6.65714">
        <ele>1807</ele>
        <time>2016-02-06T13:18:08Z</time>
      </trkpt>
      <trkpt lat="45.60181" lon="6.65715">
        <ele>1807</ele>
        <time>2016-02-06T13:18:12Z</time>
      </trkpt>
      <trkpt lat="45.60189" lon="6.65743">
        <ele>1806</ele>
        <time>2016-02-06T13:18:28Z</time>
      </trkpt>
      <trkpt lat="45.60188" lon="6.65744">
        <ele>1805</ele>
        <time>2016-02-06T13:18:29Z</time>
      </trkpt>
      <trkpt lat="45.60187" lon="6.65746">
        <ele>1805</ele>
        <time>2016-02-06T13:18:30Z</time>
      </trkpt>
      <trkpt lat="45.60186" lon="6.65748">
        <ele>1804</ele>
        <time>2016-02-06T13:18:31Z</time>
      </trkpt>
      <trkpt lat="45.60185" lon="6.65741">
        <ele>1804</ele>
        <time>2016-02-06T13:18:34Z</time>
      </trkpt>
      <trkpt lat="45.60183" lon="6.65739">
        <ele>1804</ele>
        <time>2016-02-06T13:18:35Z</time>
      </trkpt>
      <trkpt lat="45.60182" lon="6.65741">
        <ele>1803</ele>
        <time>2016-02-06T13:18:39Z</time>
      </trkpt>
      <trkpt lat="45.60182" lon="6.65744">
        <ele>1803</ele>
        <time>2016-02-06T13:18:41Z</time>
      </trkpt>
      <trkpt lat="45.60182" lon="6.65745">
        <ele>1803</ele>
        <time>2016-02-06T13:18:42Z</time>
      </trkpt>
      <trkpt lat="45.60182" lon="6.65743">
        <ele>1803</ele>
        <time>2016-02-06T13:18:47Z</time>
      </trkpt>
      <trkpt lat="45.60178" lon="6.65743">
        <ele>1801</ele>
        <time>2016-02-06T13:18:48Z</time>
      </trkpt>
      <trkpt lat="45.60176" lon="6.65742">
        <ele>1801</ele>
        <time>2016-02-06T13:18:49Z</time>
      </trkpt>
      <trkpt lat="45.60172" lon="6.6574">
        <ele>1800</ele>
        <time>2016-02-06T13:18:50Z</time>
      </trkpt>
      <trkpt lat="45.60169" lon="6.6574">
        <ele>1799</ele>
        <time>2016-02-06T13:18:51Z</time>
      </trkpt>
      <trkpt lat="45.60168" lon="6.65741">
        <ele>1798</ele>
        <time>2016-02-06T13:18:52Z</time>
      </trkpt>
      <trkpt lat="45.60167" lon="6.65741">
        <ele>1790</ele>
        <time>2016-02-06T13:18:53Z</time>
      </trkpt>
      <trkpt lat="45.60165" lon="6.65743">
        <ele>1790</ele>
        <time>2016-02-06T13:18:56Z</time>
      </trkpt>
      <trkpt lat="45.60164" lon="6.65743">
        <ele>1790</ele>
        <time>2016-02-06T13:18:57Z</time>
      </trkpt>
      <trkpt lat="45.60162" lon="6.65743">
        <ele>1790</ele>
        <time>2016-02-06T13:18:58Z</time>
      </trkpt>
      <trkpt lat="45.6016" lon="6.65743">
        <ele>1790</ele>
        <time>2016-02-06T13:18:59Z</time>
      </trkpt>
      <trkpt lat="45.60159" lon="6.65745">
        <ele>1790</ele>
        <time>2016-02-06T13:19:01Z</time>
      </trkpt>
      <trkpt lat="45.60158" lon="6.65746">
        <ele>1790</ele>
        <time>2016-02-06T13:19:03Z</time>
      </trkpt>
      <trkpt lat="45.60155" lon="6.65746">
        <ele>1789</ele>
        <time>2016-02-06T13:19:05Z</time>
      </trkpt>
      <trkpt lat="45.60154" lon="6.65746">
        <ele>1789</ele>
        <time>2016-02-06T13:19:06Z</time>
      </trkpt>
      <trkpt lat="45.60153" lon="6.65748">
        <ele>1789</ele>
        <time>2016-02-06T13:19:07Z</time>
      </trkpt>
      <trkpt lat="45.60152" lon="6.6575">
        <ele>1785</ele>
        <time>2016-02-06T13:19:08Z</time>
      </trkpt>
      <trkpt lat="45.60151" lon="6.65751">
        <ele>1784</ele>
        <time>2016-02-06T13:19:09Z</time>
      </trkpt>
      <trkpt lat="45.60148" lon="6.65753">
        <ele>1783</ele>
        <time>2016-02-06T13:19:11Z</time>
      </trkpt>
      <trkpt lat="45.6015" lon="6.65751">
        <ele>1784</ele>
        <time>2016-02-06T13:19:17Z</time>
      </trkpt>
      <trkpt lat="45.60151" lon="6.65757">
        <ele>1784</ele>
        <time>2016-02-06T13:19:18Z</time>
      </trkpt>
      <trkpt lat="45.60152" lon="6.65755">
        <ele>1784</ele>
        <time>2016-02-06T13:19:19Z</time>
      </trkpt>
      <trkpt lat="45.60153" lon="6.65752">
        <ele>1785</ele>
        <time>2016-02-06T13:19:20Z</time>
      </trkpt>
      <trkpt lat="45.60155" lon="6.65746">
        <ele>1789</ele>
        <time>2016-02-06T13:19:27Z</time>
      </trkpt>
      <trkpt lat="45.60155" lon="6.65744">
        <ele>1789</ele>
        <time>2016-02-06T13:19:30Z</time>
      </trkpt>
      <trkpt lat="45.60152" lon="6.65744">
        <ele>1789</ele>
        <time>2016-02-06T13:19:32Z</time>
      </trkpt>
      <trkpt lat="45.60151" lon="6.65743">
        <ele>1788</ele>
        <time>2016-02-06T13:19:34Z</time>
      </trkpt>
      <trkpt lat="45.60149" lon="6.65741">
        <ele>1788</ele>
        <time>2016-02-06T13:19:35Z</time>
      </trkpt>
      <trkpt lat="45.60146" lon="6.65734">
        <ele>1787</ele>
        <time>2016-02-06T13:19:37Z</time>
      </trkpt>
      <trkpt lat="45.60143" lon="6.6573">
        <ele>1787</ele>
        <time>2016-02-06T13:19:38Z</time>
      </trkpt>
      <trkpt lat="45.60141" lon="6.65723">
        <ele>1787</ele>
        <time>2016-02-06T13:19:39Z</time>
      </trkpt>
      <trkpt lat="45.60137" lon="6.65721">
        <ele>1786</ele>
        <time>2016-02-06T13:19:40Z</time>
      </trkpt>
      <trkpt lat="45.60132" lon="6.65714">
        <ele>1786</ele>
        <time>2016-02-06T13:19:42Z</time>
      </trkpt>
      <trkpt lat="45.6013" lon="6.65711">
        <ele>1786</ele>
        <time>2016-02-06T13:19:43Z</time>
      </trkpt>
      <trkpt lat="45.60128" lon="6.65709">
        <ele>1786</ele>
        <time>2016-02-06T13:19:44Z</time>
      </trkpt>
      <trkpt lat="45.60129" lon="6.65701">
        <ele>1787</ele>
        <time>2016-02-06T13:19:55Z</time>
      </trkpt>
      <trkpt lat="45.6016" lon="6.65726">
        <ele>1789</ele>
        <time>2016-02-06T13:26:53Z</time>
      </trkpt>
      <trkpt lat="45.6016" lon="6.65725">
        <ele>1788</ele>
        <time>2016-02-06T13:26:55Z</time>
      </trkpt>
      <trkpt lat="45.60161" lon="6.65726">
        <ele>1789</ele>
        <time>2016-02-06T13:26:58Z</time>
      </trkpt>
      <trkpt lat="45.60159" lon="6.65726">
        <ele>1788</ele>
        <time>2016-02-06T13:27:05Z</time>
      </trkpt>
      <trkpt lat="45.60158" lon="6.65728">
        <ele>1788</ele>
        <time>2016-02-06T13:27:10Z</time>
      </trkpt>
      <trkpt lat="45.60158" lon="6.6573">
        <ele>1788</ele>
        <time>2016-02-06T13:27:11Z</time>
      </trkpt>
      <trkpt lat="45.60158" lon="6.65733">
        <ele>1789</ele>
        <time>2016-02-06T13:27:13Z</time>
      </trkpt>
      <trkpt lat="45.60158" lon="6.65731">
        <ele>1789</ele>
        <time>2016-02-06T13:27:15Z</time>
      </trkpt>
      <trkpt lat="45.60159" lon="6.65732">
        <ele>1789</ele>
        <time>2016-02-06T13:27:18Z</time>
      </trkpt>
      <trkpt lat="45.60158" lon="6.65732">
        <ele>1789</ele>
        <time>2016-02-06T13:27:22Z</time>
      </trkpt>
      <trkpt lat="45.60157" lon="6.65735">
        <ele>1789</ele>
        <time>2016-02-06T13:27:23Z</time>
      </trkpt>
      <trkpt lat="45.60156" lon="6.65738">
        <ele>1789</ele>
        <time>2016-02-06T13:27:28Z</time>
      </trkpt>
      <trkpt lat="45.60158" lon="6.65739">
        <ele>1789</ele>
        <time>2016-02-06T13:27:30Z</time>
      </trkpt>
      <trkpt lat="45.60159" lon="6.65741">
        <ele>1789</ele>
        <time>2016-02-06T13:27:34Z</time>
      </trkpt>
      <trkpt lat="45.60159" lon="6.65743">
        <ele>1790</ele>
        <time>2016-02-06T13:27:36Z</time>
      </trkpt>
      <trkpt lat="45.60157" lon="6.65744">
        <ele>1790</ele>
        <time>2016-02-06T13:27:38Z</time>
      </trkpt>
      <trkpt lat="45.60156" lon="6.65743">
        <ele>1789</ele>
        <time>2016-02-06T13:27:40Z</time>
      </trkpt>
      <trkpt lat="45.60157" lon="6.65743">
        <ele>1789</ele>
        <time>2016-02-06T13:27:44Z</time>
      </trkpt>
      <trkpt lat="45.60158" lon="6.65745">
        <ele>1790</ele>
        <time>2016-02-06T13:27:49Z</time>
      </trkpt>
      <trkpt lat="45.60161" lon="6.65747">
        <ele>1790</ele>
        <time>2016-02-06T13:27:52Z</time>
      </trkpt>
      <trkpt lat="45.60163" lon="6.65747">
        <ele>1791</ele>
        <time>2016-02-06T13:27:53Z</time>
      </trkpt>
      <trkpt lat="45.60164" lon="6.65744">
        <ele>1791</ele>
        <time>2016-02-06T13:27:54Z</time>
      </trkpt>
      <trkpt lat="45.60165" lon="6.65745">
        <ele>1791</ele>
        <time>2016-02-06T13:27:56Z</time>
      </trkpt>
      <trkpt lat="45.60164" lon="6.65746">
        <ele>1791</ele>
        <time>2016-02-06T13:28:01Z</time>
      </trkpt>
      <trkpt lat="45.60164" lon="6.65748">
        <ele>1791</ele>
        <time>2016-02-06T13:28:02Z</time>
      </trkpt>
      <trkpt lat="45.60162" lon="6.6575">
        <ele>1791</ele>
        <time>2016-02-06T13:28:04Z</time>
      </trkpt>
      <trkpt lat="45.60161" lon="6.65752">
        <ele>1789</ele>
        <time>2016-02-06T13:28:06Z</time>
      </trkpt>
      <trkpt lat="45.6016" lon="6.65754">
        <ele>1788</ele>
        <time>2016-02-06T13:28:07Z</time>
      </trkpt>
      <trkpt lat="45.60159" lon="6.65755">
        <ele>1787</ele>
        <time>2016-02-06T13:28:08Z</time>
      </trkpt>
      <trkpt lat="45.6016" lon="6.65752">
        <ele>1788</ele>
        <time>2016-02-06T13:28:11Z</time>
      </trkpt>
      <trkpt lat="45.60159" lon="6.6575">
        <ele>1790</ele>
        <time>2016-02-06T13:28:12Z</time>
      </trkpt>
      <trkpt lat="45.60157" lon="6.65748">
        <ele>1790</ele>
        <time>2016-02-06T13:28:14Z</time>
      </trkpt>
      <trkpt lat="45.60155" lon="6.65747">
        <ele>1789</ele>
        <time>2016-02-06T13:28:15Z</time>
      </trkpt>
      <trkpt lat="45.60154" lon="6.65745">
        <ele>1789</ele>
        <time>2016-02-06T13:28:16Z</time>
      </trkpt>
      <trkpt lat="45.60152" lon="6.65744">
        <ele>1789</ele>
        <time>2016-02-06T13:28:18Z</time>
      </trkpt>
      <trkpt lat="45.60151" lon="6.65742">
        <ele>1788</ele>
        <time>2016-02-06T13:28:19Z</time>
      </trkpt>
      <trkpt lat="45.60154" lon="6.6574">
        <ele>1789</ele>
        <time>2016-02-06T13:28:21Z</time>
      </trkpt>
      <trkpt lat="45.60155" lon="6.65743">
        <ele>1789</ele>
        <time>2016-02-06T13:28:24Z</time>
      </trkpt>
      <trkpt lat="45.60156" lon="6.65742">
        <ele>1789</ele>
        <time>2016-02-06T13:28:26Z</time>
      </trkpt>
      <trkpt lat="45.60156" lon="6.65744">
        <ele>1789</ele>
        <time>2016-02-06T13:28:27Z</time>
      </trkpt>
      <trkpt lat="45.60158" lon="6.65745">
        <ele>1790</ele>
        <time>2016-02-06T13:28:30Z</time>
      </trkpt>
      <trkpt lat="45.60159" lon="6.65743">
        <ele>1790</ele>
        <time>2016-02-06T13:28:32Z</time>
      </trkpt>
      <trkpt lat="45.60159" lon="6.65741">
        <ele>1789</ele>
        <time>2016-02-06T13:28:33Z</time>
      </trkpt>
      <trkpt lat="45.60157" lon="6.6574">
        <ele>1789</ele>
        <time>2016-02-06T13:28:35Z</time>
      </trkpt>
      <trkpt lat="45.60156" lon="6.6574">
        <ele>1789</ele>
        <time>2016-02-06T13:28:36Z</time>
      </trkpt>
      <trkpt lat="45.60154" lon="6.6574">
        <ele>1789</ele>
        <time>2016-02-06T13:28:38Z</time>
      </trkpt>
      <trkpt lat="45.60152" lon="6.6574">
        <ele>1788</ele>
        <time>2016-02-06T13:28:40Z</time>
      </trkpt>
      <trkpt lat="45.60153" lon="6.65737">
        <ele>1788</ele>
        <time>2016-02-06T13:28:46Z</time>
      </trkpt>
      <trkpt lat="45.60152" lon="6.65737">
        <ele>1788</ele>
        <time>2016-02-06T13:28:48Z</time>
      </trkpt>
      <trkpt lat="45.60152" lon="6.65739">
        <ele>1788</ele>
        <time>2016-02-06T13:28:49Z</time>
      </trkpt>
      <trkpt lat="45.60151" lon="6.6574">
        <ele>1788</ele>
        <time>2016-02-06T13:28:50Z</time>
      </trkpt>
      <trkpt lat="45.60151" lon="6.65742">
        <ele>1788</ele>
        <time>2016-02-06T13:28:52Z</time>
      </trkpt>
      <trkpt lat="45.60153" lon="6.65742">
        <ele>1789</ele>
        <time>2016-02-06T13:28:54Z</time>
      </trkpt>
      <trkpt lat="45.60155" lon="6.65744">
        <ele>1789</ele>
        <time>2016-02-06T13:28:56Z</time>
      </trkpt>
      <trkpt lat="45.60157" lon="6.65747">
        <ele>1790</ele>
        <time>2016-02-06T13:28:57Z</time>
      </trkpt>
      <trkpt lat="45.60158" lon="6.65748">
        <ele>1790</ele>
        <time>2016-02-06T13:29:00Z</time>
      </trkpt>
      <trkpt lat="45.60158" lon="6.65746">
        <ele>1790</ele>
        <time>2016-02-06T13:29:04Z</time>
      </trkpt>
      <trkpt lat="45.60159" lon="6.65746">
        <ele>1790</ele>
        <time>2016-02-06T13:29:08Z</time>
      </trkpt>
      <trkpt lat="45.60144" lon="6.65735">
        <ele>1787</ele>
        <time>2016-02-06T13:29:43Z</time>
      </trkpt>
      <trkpt lat="45.60143" lon="6.65737">
        <ele>1787</ele>
        <time>2016-02-06T13:29:44Z</time>
      </trkpt>
      <trkpt lat="45.60142" lon="6.65735">
        <ele>1787</ele>
        <time>2016-02-06T13:29:46Z</time>
      </trkpt>
      <trkpt lat="45.60142" lon="6.65734">
        <ele>1787</ele>
        <time>2016-02-06T13:29:49Z</time>
      </trkpt>
      <trkpt lat="45.60143" lon="6.65736">
        <ele>1787</ele>
        <time>2016-02-06T13:29:52Z</time>
      </trkpt>
      <trkpt lat="45.60144" lon="6.65738">
        <ele>1787</ele>
        <time>2016-02-06T13:29:53Z</time>
      </trkpt>
      <trkpt lat="45.60144" lon="6.6574">
        <ele>1787</ele>
        <time>2016-02-06T13:29:54Z</time>
      </trkpt>
      <trkpt lat="45.60145" lon="6.65743">
        <ele>1787</ele>
        <time>2016-02-06T13:29:56Z</time>
      </trkpt>
      <trkpt lat="45.60146" lon="6.65741">
        <ele>1787</ele>
        <time>2016-02-06T13:29:59Z</time>
      </trkpt>
      <trkpt lat="45.60149" lon="6.65736">
        <ele>1788</ele>
        <time>2016-02-06T13:30:03Z</time>
      </trkpt>
      <trkpt lat="45.6015" lon="6.65737">
        <ele>1788</ele>
        <time>2016-02-06T13:30:05Z</time>
      </trkpt>
      <trkpt lat="45.6015" lon="6.65739">
        <ele>1788</ele>
        <time>2016-02-06T13:30:08Z</time>
      </trkpt>
      <trkpt lat="45.6015" lon="6.65738">
        <ele>1788</ele>
        <time>2016-02-06T13:30:10Z</time>
      </trkpt>
      <trkpt lat="45.60149" lon="6.65736">
        <ele>1788</ele>
        <time>2016-02-06T13:30:11Z</time>
      </trkpt>
      <trkpt lat="45.60149" lon="6.65734">
        <ele>1788</ele>
        <time>2016-02-06T13:30:12Z</time>
      </trkpt>
      <trkpt lat="45.60149" lon="6.65732">
        <ele>1788</ele>
        <time>2016-02-06T13:30:15Z</time>
      </trkpt>
      <trkpt lat="45.60149" lon="6.65734">
        <ele>1788</ele>
        <time>2016-02-06T13:30:16Z</time>
      </trkpt>
      <trkpt lat="45.60148" lon="6.65736">
        <ele>1788</ele>
        <time>2016-02-06T13:30:17Z</time>
      </trkpt>
      <trkpt lat="45.60148" lon="6.65739">
        <ele>1788</ele>
        <time>2016-02-06T13:30:18Z</time>
      </trkpt>
      <trkpt lat="45.60147" lon="6.6574">
        <ele>1788</ele>
        <time>2016-02-06T13:30:20Z</time>
      </trkpt>
      <trkpt lat="45.60147" lon="6.65736">
        <ele>1788</ele>
        <time>2016-02-06T13:30:23Z</time>
      </trkpt>
      <trkpt lat="45.60148" lon="6.65733">
        <ele>1788</ele>
        <time>2016-02-06T13:30:24Z</time>
      </trkpt>
      <trkpt lat="45.60149" lon="6.65732">
        <ele>1788</ele>
        <time>2016-02-06T13:30:25Z</time>
      </trkpt>
      <trkpt lat="45.6015" lon="6.6573">
        <ele>1788</ele>
        <time>2016-02-06T13:30:28Z</time>
      </trkpt>
      <trkpt lat="45.6015" lon="6.65729">
        <ele>1788</ele>
        <time>2016-02-06T13:30:29Z</time>
      </trkpt>
      <trkpt lat="45.6015" lon="6.65732">
        <ele>1788</ele>
        <time>2016-02-06T13:30:30Z</time>
      </trkpt>
      <trkpt lat="45.6015" lon="6.65734">
        <ele>1788</ele>
        <time>2016-02-06T13:30:33Z</time>
      </trkpt>
      <trkpt lat="45.6015" lon="6.65738">
        <ele>1788</ele>
        <time>2016-02-06T13:30:34Z</time>
      </trkpt>
      <trkpt lat="45.60149" lon="6.65742">
        <ele>1788</ele>
        <time>2016-02-06T13:30:35Z</time>
      </trkpt>
      <trkpt lat="45.60149" lon="6.65746">
        <ele>1788</ele>
        <time>2016-02-06T13:30:36Z</time>
      </trkpt>
      <trkpt lat="45.60148" lon="6.65748">
        <ele>1788</ele>
        <time>2016-02-06T13:30:37Z</time>
      </trkpt>
      <trkpt lat="45.60148" lon="6.65746">
        <ele>1788</ele>
        <time>2016-02-06T13:30:42Z</time>
      </trkpt>
      <trkpt lat="45.60148" lon="6.65742">
        <ele>1788</ele>
        <time>2016-02-06T13:30:44Z</time>
      </trkpt>
      <trkpt lat="45.60152" lon="6.65731">
        <ele>1788</ele>
        <time>2016-02-06T13:31:01Z</time>
      </trkpt>
      <trkpt lat="45.60152" lon="6.65733">
        <ele>1788</ele>
        <time>2016-02-06T13:31:02Z</time>
      </trkpt>
      <trkpt lat="45.60151" lon="6.65736">
        <ele>1788</ele>
        <time>2016-02-06T13:31:03Z</time>
      </trkpt>
      <trkpt lat="45.60151" lon="6.65738">
        <ele>1788</ele>
        <time>2016-02-06T13:31:04Z</time>
      </trkpt>
      <trkpt lat="45.60152" lon="6.65738">
        <ele>1788</ele>
        <time>2016-02-06T13:31:07Z</time>
      </trkpt>
      <trkpt lat="45.60154" lon="6.65738">
        <ele>1789</ele>
        <time>2016-02-06T13:31:09Z</time>
      </trkpt>
      <trkpt lat="45.60155" lon="6.65738">
        <ele>1789</ele>
        <time>2016-02-06T13:31:11Z</time>
      </trkpt>
      <trkpt lat="45.60155" lon="6.65736">
        <ele>1789</ele>
        <time>2016-02-06T13:31:13Z</time>
      </trkpt>
      <trkpt lat="45.60154" lon="6.65736">
        <ele>1789</ele>
        <time>2016-02-06T13:31:14Z</time>
      </trkpt>
      <trkpt lat="45.60154" lon="6.65738">
        <ele>1789</ele>
        <time>2016-02-06T13:31:15Z</time>
      </trkpt>
      <trkpt lat="45.60152" lon="6.65738">
        <ele>1788</ele>
        <time>2016-02-06T13:31:18Z</time>
      </trkpt>
      <trkpt lat="45.60151" lon="6.65734">
        <ele>1788</ele>
        <time>2016-02-06T13:31:21Z</time>
      </trkpt>
      <trkpt lat="45.60151" lon="6.6573">
        <ele>1788</ele>
        <time>2016-02-06T13:31:22Z</time>
      </trkpt>
      <trkpt lat="45.60151" lon="6.65727">
        <ele>1788</ele>
        <time>2016-02-06T13:31:23Z</time>
      </trkpt>
      <trkpt lat="45.60151" lon="6.65725">
        <ele>1788</ele>
        <time>2016-02-06T13:31:24Z</time>
      </trkpt>
      <trkpt lat="45.60152" lon="6.65723">
        <ele>1788</ele>
        <time>2016-02-06T13:31:26Z</time>
      </trkpt>
      <trkpt lat="45.60152" lon="6.65726">
        <ele>1788</ele>
        <time>2016-02-06T13:31:27Z</time>
      </trkpt>
      <trkpt lat="45.60152" lon="6.65728">
        <ele>1788</ele>
        <time>2016-02-06T13:31:28Z</time>
      </trkpt>
      <trkpt lat="45.60153" lon="6.65729">
        <ele>1788</ele>
        <time>2016-02-06T13:31:31Z</time>
      </trkpt>
      <trkpt lat="45.60153" lon="6.65732">
        <ele>1788</ele>
        <time>2016-02-06T13:31:32Z</time>
      </trkpt>
      <trkpt lat="45.60152" lon="6.6573">
        <ele>1788</ele>
        <time>2016-02-06T13:31:36Z</time>
      </trkpt>
      <trkpt lat="45.60153" lon="6.65728">
        <ele>1788</ele>
        <time>2016-02-06T13:31:38Z</time>
      </trkpt>
      <trkpt lat="45.60151" lon="6.65749">
        <ele>1788</ele>
        <time>2016-02-06T13:31:57Z</time>
      </trkpt>
      <trkpt lat="45.60152" lon="6.65749">
        <ele>1789</ele>
        <time>2016-02-06T13:31:58Z</time>
      </trkpt>
      <trkpt lat="45.60153" lon="6.65746">
        <ele>1789</ele>
        <time>2016-02-06T13:31:59Z</time>
      </trkpt>
      <trkpt lat="45.60153" lon="6.65744">
        <ele>1789</ele>
        <time>2016-02-06T13:32:00Z</time>
      </trkpt>
      <trkpt lat="45.60154" lon="6.65742">
        <ele>1789</ele>
        <time>2016-02-06T13:32:01Z</time>
      </trkpt>
      <trkpt lat="45.60154" lon="6.65738">
        <ele>1789</ele>
        <time>2016-02-06T13:32:02Z</time>
      </trkpt>
      <trkpt lat="45.60154" lon="6.65734">
        <ele>1788</ele>
        <time>2016-02-06T13:32:03Z</time>
      </trkpt>
      <trkpt lat="45.60155" lon="6.65729">
        <ele>1788</ele>
        <time>2016-02-06T13:32:04Z</time>
      </trkpt>
      <trkpt lat="45.60156" lon="6.65725">
        <ele>1788</ele>
        <time>2016-02-06T13:32:05Z</time>
      </trkpt>
      <trkpt lat="45.60157" lon="6.65724">
        <ele>1788</ele>
        <time>2016-02-06T13:32:06Z</time>
      </trkpt>
      <trkpt lat="45.6016" lon="6.65724">
        <ele>1788</ele>
        <time>2016-02-06T13:32:09Z</time>
      </trkpt>
      <trkpt lat="45.60158" lon="6.65726">
        <ele>1788</ele>
        <time>2016-02-06T13:32:12Z</time>
      </trkpt>
      <trkpt lat="45.60156" lon="6.65726">
        <ele>1788</ele>
        <time>2016-02-06T13:32:13Z</time>
      </trkpt>
      <trkpt lat="45.60154" lon="6.6573">
        <ele>1788</ele>
        <time>2016-02-06T13:32:14Z</time>
      </trkpt>
      <trkpt lat="45.60152" lon="6.6573">
        <ele>1788</ele>
        <time>2016-02-06T13:32:16Z</time>
      </trkpt>
      <trkpt lat="45.60153" lon="6.65727">
        <ele>1788</ele>
        <time>2016-02-06T13:32:17Z</time>
      </trkpt>
      <trkpt lat="45.60153" lon="6.65724">
        <ele>1788</ele>
        <time>2016-02-06T13:32:18Z</time>
      </trkpt>
      <trkpt lat="45.60154" lon="6.65726">
        <ele>1788</ele>
        <time>2016-02-06T13:32:22Z</time>
      </trkpt>
      <trkpt lat="45.60155" lon="6.65725">
        <ele>1788</ele>
        <time>2016-02-06T13:32:25Z</time>
      </trkpt>
      <trkpt lat="45.60156" lon="6.65728">
        <ele>1788</ele>
        <time>2016-02-06T13:32:26Z</time>
      </trkpt>
      <trkpt lat="45.60155" lon="6.65727">
        <ele>1788</ele>
        <time>2016-02-06T13:32:29Z</time>
      </trkpt>
      <trkpt lat="45.60158" lon="6.65728">
        <ele>1788</ele>
        <time>2016-02-06T13:32:32Z</time>
      </trkpt>
      <trkpt lat="45.60146" lon="6.65712">
        <ele>1788</ele>
        <time>2016-02-06T13:32:49Z</time>
      </trkpt>
      <trkpt lat="45.60146" lon="6.6572">
        <ele>1787</ele>
        <time>2016-02-06T13:32:50Z</time>
      </trkpt>
      <trkpt lat="45.60145" lon="6.65725">
        <ele>1787</ele>
        <time>2016-02-06T13:32:52Z</time>
      </trkpt>
      <trkpt lat="45.60146" lon="6.65728">
        <ele>1787</ele>
        <time>2016-02-06T13:32:53Z</time>
      </trkpt>
      <trkpt lat="45.60143" lon="6.65728">
        <ele>1787</ele>
        <time>2016-02-06T13:34:08Z</time>
      </trkpt>
      <trkpt lat="45.60145" lon="6.6573">
        <ele>1787</ele>
        <time>2016-02-06T13:34:09Z</time>
      </trkpt>
      <trkpt lat="45.60142" lon="6.65723">
        <ele>1787</ele>
        <time>2016-02-06T13:34:10Z</time>
      </trkpt>
      <trkpt lat="45.60165" lon="6.65748">
        <ele>1791</ele>
        <time>2016-02-06T13:34:48Z</time>
      </trkpt>
      <trkpt lat="45.60163" lon="6.65753">
        <ele>1789</ele>
        <time>2016-02-06T13:34:49Z</time>
      </trkpt>
      <trkpt lat="45.60162" lon="6.65755">
        <ele>1788</ele>
        <time>2016-02-06T13:34:50Z</time>
      </trkpt>
      <trkpt lat="45.6016" lon="6.65753">
        <ele>1788</ele>
        <time>2016-02-06T13:34:51Z</time>
      </trkpt>
      <trkpt lat="45.60159" lon="6.6575">
        <ele>1790</ele>
        <time>2016-02-06T13:34:52Z</time>
      </trkpt>
      <trkpt lat="45.60157" lon="6.65745">
        <ele>1789</ele>
        <time>2016-02-06T13:34:55Z</time>
      </trkpt>
      <trkpt lat="45.60154" lon="6.65745">
        <ele>1789</ele>
        <time>2016-02-06T13:34:58Z</time>
      </trkpt>
      <trkpt lat="45.60153" lon="6.65743">
        <ele>1789</ele>
        <time>2016-02-06T13:35:10Z</time>
      </trkpt>
      <trkpt lat="45.60153" lon="6.65739">
        <ele>1788</ele>
        <time>2016-02-06T13:35:11Z</time>
      </trkpt>
      <trkpt lat="45.60154" lon="6.65737">
        <ele>1788</ele>
        <time>2016-02-06T13:35:12Z</time>
      </trkpt>
      <trkpt lat="45.60154" lon="6.65734">
        <ele>1788</ele>
        <time>2016-02-06T13:35:13Z</time>
      </trkpt>
      <trkpt lat="45.6016" lon="6.65732">
        <ele>1789</ele>
        <time>2016-02-06T13:35:34Z</time>
      </trkpt>
      <trkpt lat="45.60158" lon="6.65733">
        <ele>1789</ele>
        <time>2016-02-06T13:35:37Z</time>
      </trkpt>
      <trkpt lat="45.60159" lon="6.65737">
        <ele>1789</ele>
        <time>2016-02-06T13:35:41Z</time>
      </trkpt>
      <trkpt lat="45.60157" lon="6.65743">
        <ele>1789</ele>
        <time>2016-02-06T13:35:57Z</time>
      </trkpt>
      <trkpt lat="45.60153" lon="6.65731">
        <ele>1788</ele>
        <time>2016-02-06T13:36:14Z</time>
      </trkpt>
      <trkpt lat="45.60156" lon="6.6573">
        <ele>1788</ele>
        <time>2016-02-06T13:36:15Z</time>
      </trkpt>
      <trkpt lat="45.60157" lon="6.6573">
        <ele>1788</ele>
        <time>2016-02-06T13:36:16Z</time>
      </trkpt>
      <trkpt lat="45.6016" lon="6.65736">
        <ele>1789</ele>
        <time>2016-02-06T13:36:17Z</time>
      </trkpt>
      <trkpt lat="45.60161" lon="6.65738">
        <ele>1789</ele>
        <time>2016-02-06T13:36:19Z</time>
      </trkpt>
      <trkpt lat="45.6016" lon="6.65738">
        <ele>1789</ele>
        <time>2016-02-06T13:36:20Z</time>
      </trkpt>
      <trkpt lat="45.60159" lon="6.65735">
        <ele>1789</ele>
        <time>2016-02-06T13:36:21Z</time>
      </trkpt>
      <trkpt lat="45.60147" lon="6.65725">
        <ele>1787</ele>
        <time>2016-02-06T13:36:33Z</time>
      </trkpt>
      <trkpt lat="45.60154" lon="6.65735">
        <ele>1788</ele>
        <time>2016-02-06T13:36:49Z</time>
      </trkpt>
      <trkpt lat="45.60156" lon="6.65738">
        <ele>1789</ele>
        <time>2016-02-06T13:37:05Z</time>
      </trkpt>
      <trkpt lat="45.60167" lon="6.65733">
        <ele>1802</ele>
        <time>2016-02-06T13:37:24Z</time>
      </trkpt>
      <trkpt lat="45.60167" lon="6.65735">
        <ele>1801</ele>
        <time>2016-02-06T13:37:26Z</time>
      </trkpt>
      <trkpt lat="45.60169" lon="6.65735">
        <ele>1801</ele>
        <time>2016-02-06T13:37:27Z</time>
      </trkpt>
      <trkpt lat="45.60171" lon="6.65736">
        <ele>1801</ele>
        <time>2016-02-06T13:37:29Z</time>
      </trkpt>
      <trkpt lat="45.60172" lon="6.65733">
        <ele>1802</ele>
        <time>2016-02-06T13:37:30Z</time>
      </trkpt>
      <trkpt lat="45.60171" lon="6.65735">
        <ele>1801</ele>
        <time>2016-02-06T13:37:32Z</time>
      </trkpt>
      <trkpt lat="45.60169" lon="6.65735">
        <ele>1801</ele>
        <time>2016-02-06T13:37:33Z</time>
      </trkpt>
      <trkpt lat="45.60167" lon="6.65735">
        <ele>1801</ele>
        <time>2016-02-06T13:37:34Z</time>
      </trkpt>
      <trkpt lat="45.60165" lon="6.65733">
        <ele>1789</ele>
        <time>2016-02-06T13:37:36Z</time>
      </trkpt>
      <trkpt lat="45.60163" lon="6.65733">
        <ele>1789</ele>
        <time>2016-02-06T13:37:37Z</time>
      </trkpt>
      <trkpt lat="45.60163" lon="6.65735">
        <ele>1789</ele>
        <time>2016-02-06T13:37:39Z</time>
      </trkpt>
      <trkpt lat="45.60163" lon="6.65739">
        <ele>1790</ele>
        <time>2016-02-06T13:37:45Z</time>
      </trkpt>
      <trkpt lat="45.60164" lon="6.65737">
        <ele>1790</ele>
        <time>2016-02-06T13:37:48Z</time>
      </trkpt>
      <trkpt lat="45.60164" lon="6.65736">
        <ele>1789</ele>
        <time>2016-02-06T13:37:49Z</time>
      </trkpt>
      <trkpt lat="45.60162" lon="6.65733">
        <ele>1789</ele>
        <time>2016-02-06T13:37:51Z</time>
      </trkpt>
      <trkpt lat="45.60161" lon="6.6573">
        <ele>1789</ele>
        <time>2016-02-06T13:37:52Z</time>
      </trkpt>
      <trkpt lat="45.60161" lon="6.65727">
        <ele>1789</ele>
        <time>2016-02-06T13:37:53Z</time>
      </trkpt>
      <trkpt lat="45.6016" lon="6.65724">
        <ele>1788</ele>
        <time>2016-02-06T13:37:54Z</time>
      </trkpt>
      <trkpt lat="45.6016" lon="6.65722">
        <ele>1788</ele>
        <time>2016-02-06T13:37:55Z</time>
      </trkpt>
      <trkpt lat="45.60159" lon="6.6572">
        <ele>1788</ele>
        <time>2016-02-06T13:37:57Z</time>
      </trkpt>
      <trkpt lat="45.60157" lon="6.6572">
        <ele>1788</ele>
        <time>2016-02-06T13:38:00Z</time>
      </trkpt>
      <trkpt lat="45.60155" lon="6.6572">
        <ele>1788</ele>
        <time>2016-02-06T13:38:02Z</time>
      </trkpt>
      <trkpt lat="45.60155" lon="6.65717">
        <ele>1788</ele>
        <time>2016-02-06T13:38:03Z</time>
      </trkpt>
      <trkpt lat="45.60153" lon="6.65715">
        <ele>1788</ele>
        <time>2016-02-06T13:38:05Z</time>
      </trkpt>
      <trkpt lat="45.60151" lon="6.65715">
        <ele>1788</ele>
        <time>2016-02-06T13:38:08Z</time>
      </trkpt>
      <trkpt lat="45.6015" lon="6.65714">
        <ele>1788</ele>
        <time>2016-02-06T13:38:10Z</time>
      </trkpt>
      <trkpt lat="45.60149" lon="6.65712">
        <ele>1788</ele>
        <time>2016-02-06T13:38:11Z</time>
      </trkpt>
      <trkpt lat="45.60148" lon="6.6571">
        <ele>1788</ele>
        <time>2016-02-06T13:38:12Z</time>
      </trkpt>
      <trkpt lat="45.60147" lon="6.65709">
        <ele>1788</ele>
        <time>2016-02-06T13:38:14Z</time>
      </trkpt>
      <trkpt lat="45.60148" lon="6.6571">
        <ele>1788</ele>
        <time>2016-02-06T13:38:15Z</time>
      </trkpt>
      <trkpt lat="45.60149" lon="6.6571">
        <ele>1788</ele>
        <time>2016-02-06T13:38:18Z</time>
      </trkpt>
      <trkpt lat="45.6015" lon="6.65712">
        <ele>1788</ele>
        <time>2016-02-06T13:38:19Z</time>
      </trkpt>
      <trkpt lat="45.60151" lon="6.65714">
        <ele>1788</ele>
        <time>2016-02-06T13:38:20Z</time>
      </trkpt>
      <trkpt lat="45.60149" lon="6.65712">
        <ele>1788</ele>
        <time>2016-02-06T13:38:22Z</time>
      </trkpt>
      <trkpt lat="45.60151" lon="6.65717">
        <ele>1788</ele>
        <time>2016-02-06T13:38:27Z</time>
      </trkpt>
      <trkpt lat="45.60152" lon="6.65718">
        <ele>1788</ele>
        <time>2016-02-06T13:38:28Z</time>
      </trkpt>
      <trkpt lat="45.60152" lon="6.65711">
        <ele>1788</ele>
        <time>2016-02-06T13:38:30Z</time>
      </trkpt>
      <trkpt lat="45.60152" lon="6.65714">
        <ele>1788</ele>
        <time>2016-02-06T13:38:31Z</time>
      </trkpt>
      <trkpt lat="45.60152" lon="6.65716">
        <ele>1788</ele>
        <time>2016-02-06T13:38:32Z</time>
      </trkpt>
      <trkpt lat="45.60151" lon="6.65717">
        <ele>1788</ele>
        <time>2016-02-06T13:38:34Z</time>
      </trkpt>
      <trkpt lat="45.60149" lon="6.65718">
        <ele>1788</ele>
        <time>2016-02-06T13:38:35Z</time>
      </trkpt>
      <trkpt lat="45.60149" lon="6.6572">
        <ele>1788</ele>
        <time>2016-02-06T13:38:37Z</time>
      </trkpt>
      <trkpt lat="45.60151" lon="6.65722">
        <ele>1788</ele>
        <time>2016-02-06T13:38:39Z</time>
      </trkpt>
      <trkpt lat="45.60153" lon="6.65723">
        <ele>1788</ele>
        <time>2016-02-06T13:38:40Z</time>
      </trkpt>
      <trkpt lat="45.60161" lon="6.65722">
        <ele>1788</ele>
        <time>2016-02-06T13:38:45Z</time>
      </trkpt>
      <trkpt lat="45.60159" lon="6.65723">
        <ele>1788</ele>
        <time>2016-02-06T13:38:48Z</time>
      </trkpt>
      <trkpt lat="45.60158" lon="6.65725">
        <ele>1788</ele>
        <time>2016-02-06T13:38:49Z</time>
      </trkpt>
      <trkpt lat="45.60157" lon="6.65727">
        <ele>1788</ele>
        <time>2016-02-06T13:38:50Z</time>
      </trkpt>
      <trkpt lat="45.60156" lon="6.65727">
        <ele>1788</ele>
        <time>2016-02-06T13:38:55Z</time>
      </trkpt>
      <trkpt lat="45.60154" lon="6.65726">
        <ele>1788</ele>
        <time>2016-02-06T13:38:56Z</time>
      </trkpt>
      <trkpt lat="45.60152" lon="6.65726">
        <ele>1788</ele>
        <time>2016-02-06T13:38:57Z</time>
      </trkpt>
      <trkpt lat="45.60149" lon="6.65727">
        <ele>1788</ele>
        <time>2016-02-06T13:38:58Z</time>
      </trkpt>
      <trkpt lat="45.60148" lon="6.65726">
        <ele>1788</ele>
        <time>2016-02-06T13:39:00Z</time>
      </trkpt>
      <trkpt lat="45.60147" lon="6.65724">
        <ele>1787</ele>
        <time>2016-02-06T13:39:01Z</time>
      </trkpt>
      <trkpt lat="45.60145" lon="6.65722">
        <ele>1787</ele>
        <time>2016-02-06T13:39:03Z</time>
      </trkpt>
      <trkpt lat="45.60143" lon="6.65722">
        <ele>1787</ele>
        <time>2016-02-06T13:39:04Z</time>
      </trkpt>
      <trkpt lat="45.60141" lon="6.65723">
        <ele>1787</ele>
        <time>2016-02-06T13:39:05Z</time>
      </trkpt>
      <trkpt lat="45.60141" lon="6.65725">
        <ele>1787</ele>
        <time>2016-02-06T13:39:06Z</time>
      </trkpt>
      <trkpt lat="45.60143" lon="6.65726">
        <ele>1787</ele>
        <time>2016-02-06T13:39:08Z</time>
      </trkpt>
      <trkpt lat="45.60146" lon="6.65729">
        <ele>1787</ele>
        <time>2016-02-06T13:39:09Z</time>
      </trkpt>
      <trkpt lat="45.60147" lon="6.65731">
        <ele>1787</ele>
        <time>2016-02-06T13:39:10Z</time>
      </trkpt>
      <trkpt lat="45.60149" lon="6.65733">
        <ele>1788</ele>
        <time>2016-02-06T13:39:11Z</time>
      </trkpt>
      <trkpt lat="45.60151" lon="6.65733">
        <ele>1788</ele>
        <time>2016-02-06T13:39:12Z</time>
      </trkpt>
      <trkpt lat="45.60151" lon="6.65734">
        <ele>1788</ele>
        <time>2016-02-06T13:39:21Z</time>
      </trkpt>
      <trkpt lat="45.60152" lon="6.65734">
        <ele>1788</ele>
        <time>2016-02-06T13:39:23Z</time>
      </trkpt>
      <trkpt lat="45.60154" lon="6.65734">
        <ele>1788</ele>
        <time>2016-02-06T13:39:25Z</time>
      </trkpt>
      <trkpt lat="45.60155" lon="6.65735">
        <ele>1789</ele>
        <time>2016-02-06T13:39:27Z</time>
      </trkpt>
      <trkpt lat="45.60154" lon="6.65734">
        <ele>1788</ele>
        <time>2016-02-06T13:39:29Z</time>
      </trkpt>
      <trkpt lat="45.60154" lon="6.65735">
        <ele>1788</ele>
        <time>2016-02-06T13:39:32Z</time>
      </trkpt>
      <trkpt lat="45.60154" lon="6.65737">
        <ele>1789</ele>
        <time>2016-02-06T13:39:34Z</time>
      </trkpt>
      <trkpt lat="45.60156" lon="6.65739">
        <ele>1789</ele>
        <time>2016-02-06T13:39:35Z</time>
      </trkpt>
      <trkpt lat="45.60157" lon="6.65741">
        <ele>1789</ele>
        <time>2016-02-06T13:39:37Z</time>
      </trkpt>
      <trkpt lat="45.60156" lon="6.65739">
        <ele>1789</ele>
        <time>2016-02-06T13:39:40Z</time>
      </trkpt>
      <trkpt lat="45.60156" lon="6.65737">
        <ele>1789</ele>
        <time>2016-02-06T13:39:42Z</time>
      </trkpt>
      <trkpt lat="45.60157" lon="6.65735">
        <ele>1789</ele>
        <time>2016-02-06T13:39:45Z</time>
      </trkpt>
      <trkpt lat="45.60159" lon="6.65736">
        <ele>1789</ele>
        <time>2016-02-06T13:39:46Z</time>
      </trkpt>
      <trkpt lat="45.60157" lon="6.65736">
        <ele>1789</ele>
        <time>2016-02-06T13:39:49Z</time>
      </trkpt>
      <trkpt lat="45.60156" lon="6.65738">
        <ele>1789</ele>
        <time>2016-02-06T13:39:51Z</time>
      </trkpt>
      <trkpt lat="45.60156" lon="6.65741">
        <ele>1789</ele>
        <time>2016-02-06T13:39:53Z</time>
      </trkpt>
      <trkpt lat="45.60156" lon="6.65743">
        <ele>1789</ele>
        <time>2016-02-06T13:39:55Z</time>
      </trkpt>
      <trkpt lat="45.60157" lon="6.65745">
        <ele>1790</ele>
        <time>2016-02-06T13:39:58Z</time>
      </trkpt>
      <trkpt lat="45.60156" lon="6.65746">
        <ele>1789</ele>
        <time>2016-02-06T13:40:00Z</time>
      </trkpt>
      <trkpt lat="45.60155" lon="6.65747">
        <ele>1789</ele>
        <time>2016-02-06T13:40:04Z</time>
      </trkpt>
      <trkpt lat="45.60154" lon="6.65745">
        <ele>1789</ele>
        <time>2016-02-06T13:40:06Z</time>
      </trkpt>
      <trkpt lat="45.60157" lon="6.65743">
        <ele>1789</ele>
        <time>2016-02-06T13:40:11Z</time>
      </trkpt>
      <trkpt lat="45.6016" lon="6.65738">
        <ele>1789</ele>
        <time>2016-02-06T13:40:12Z</time>
      </trkpt>
      <trkpt lat="45.60159" lon="6.65735">
        <ele>1789</ele>
        <time>2016-02-06T13:40:13Z</time>
      </trkpt>
      <trkpt lat="45.60158" lon="6.65732">
        <ele>1789</ele>
        <time>2016-02-06T13:40:14Z</time>
      </trkpt>
      <trkpt lat="45.60155" lon="6.6573">
        <ele>1788</ele>
        <time>2016-02-06T13:40:15Z</time>
      </trkpt>
      <trkpt lat="45.60154" lon="6.6573">
        <ele>1788</ele>
        <time>2016-02-06T13:40:16Z</time>
      </trkpt>
      <trkpt lat="45.60152" lon="6.65727">
        <ele>1788</ele>
        <time>2016-02-06T13:40:17Z</time>
      </trkpt>
      <trkpt lat="45.60152" lon="6.65724">
        <ele>1788</ele>
        <time>2016-02-06T13:40:21Z</time>
      </trkpt>
      <trkpt lat="45.6015" lon="6.65724">
        <ele>1788</ele>
        <time>2016-02-06T13:40:23Z</time>
      </trkpt>
      <trkpt lat="45.60148" lon="6.65722">
        <ele>1788</ele>
        <time>2016-02-06T13:40:25Z</time>
      </trkpt>
      <trkpt lat="45.6015" lon="6.65722">
        <ele>1788</ele>
        <time>2016-02-06T13:40:29Z</time>
      </trkpt>
      <trkpt lat="45.6015" lon="6.6572">
        <ele>1788</ele>
        <time>2016-02-06T13:40:35Z</time>
      </trkpt>
      <trkpt lat="45.60152" lon="6.65721">
        <ele>1788</ele>
        <time>2016-02-06T13:40:37Z</time>
      </trkpt>
      <trkpt lat="45.60153" lon="6.65722">
        <ele>1788</ele>
        <time>2016-02-06T13:40:38Z</time>
      </trkpt>
      <trkpt lat="45.60154" lon="6.6572">
        <ele>1788</ele>
        <time>2016-02-06T13:40:45Z</time>
      </trkpt>
      <trkpt lat="45.60155" lon="6.65721">
        <ele>1788</ele>
        <time>2016-02-06T13:40:49Z</time>
      </trkpt>
      <trkpt lat="45.60156" lon="6.65721">
        <ele>1788</ele>
        <time>2016-02-06T13:40:54Z</time>
      </trkpt>
      <trkpt lat="45.60157" lon="6.65718">
        <ele>1788</ele>
        <time>2016-02-06T13:40:57Z</time>
      </trkpt>
      <trkpt lat="45.60157" lon="6.65717">
        <ele>1788</ele>
        <time>2016-02-06T13:40:59Z</time>
      </trkpt>
      <trkpt lat="45.60155" lon="6.65716">
        <ele>1788</ele>
        <time>2016-02-06T13:41:03Z</time>
      </trkpt>
      <trkpt lat="45.60155" lon="6.65714">
        <ele>1788</ele>
        <time>2016-02-06T13:41:04Z</time>
      </trkpt>
      <trkpt lat="45.60153" lon="6.65713">
        <ele>1788</ele>
        <time>2016-02-06T13:41:06Z</time>
      </trkpt>
      <trkpt lat="45.60152" lon="6.65711">
        <ele>1788</ele>
        <time>2016-02-06T13:41:09Z</time>
      </trkpt>
      <trkpt lat="45.60151" lon="6.65709">
        <ele>1788</ele>
        <time>2016-02-06T13:41:13Z</time>
      </trkpt>
      <trkpt lat="45.60151" lon="6.65712">
        <ele>1788</ele>
        <time>2016-02-06T13:41:16Z</time>
      </trkpt>
      <trkpt lat="45.6015" lon="6.65713">
        <ele>1788</ele>
        <time>2016-02-06T13:41:24Z</time>
      </trkpt>
      <trkpt lat="45.6015" lon="6.65715">
        <ele>1788</ele>
        <time>2016-02-06T13:41:25Z</time>
      </trkpt>
      <trkpt lat="45.6015" lon="6.65718">
        <ele>1788</ele>
        <time>2016-02-06T13:41:26Z</time>
      </trkpt>
      <trkpt lat="45.6015" lon="6.6572">
        <ele>1788</ele>
        <time>2016-02-06T13:41:27Z</time>
      </trkpt>
      <trkpt lat="45.60149" lon="6.65722">
        <ele>1788</ele>
        <time>2016-02-06T13:41:30Z</time>
      </trkpt>
      <trkpt lat="45.60149" lon="6.65724">
        <ele>1788</ele>
        <time>2016-02-06T13:41:32Z</time>
      </trkpt>
      <trkpt lat="45.6015" lon="6.65727">
        <ele>1788</ele>
        <time>2016-02-06T13:41:35Z</time>
      </trkpt>
      <trkpt lat="45.60151" lon="6.65729">
        <ele>1788</ele>
        <time>2016-02-06T13:41:37Z</time>
      </trkpt>
      <trkpt lat="45.60152" lon="6.6573">
        <ele>1788</ele>
        <time>2016-02-06T13:41:41Z</time>
      </trkpt>
      <trkpt lat="45.60152" lon="6.65732">
        <ele>1788</ele>
        <time>2016-02-06T13:41:45Z</time>
      </trkpt>
      <trkpt lat="45.60152" lon="6.65734">
        <ele>1788</ele>
        <time>2016-02-06T13:41:48Z</time>
      </trkpt>
      <trkpt lat="45.60151" lon="6.65736">
        <ele>1788</ele>
        <time>2016-02-06T13:41:52Z</time>
      </trkpt>
      <trkpt lat="45.6015" lon="6.65736">
        <ele>1788</ele>
        <time>2016-02-06T13:41:56Z</time>
      </trkpt>
      <trkpt lat="45.60151" lon="6.65735">
        <ele>1788</ele>
        <time>2016-02-06T13:41:59Z</time>
      </trkpt>
      <trkpt lat="45.60152" lon="6.65733">
        <ele>1788</ele>
        <time>2016-02-06T13:42:02Z</time>
      </trkpt>
      <trkpt lat="45.60152" lon="6.65731">
        <ele>1788</ele>
        <time>2016-02-06T13:42:03Z</time>
      </trkpt>
      <trkpt lat="45.60152" lon="6.6573">
        <ele>1788</ele>
        <time>2016-02-06T13:42:06Z</time>
      </trkpt>
      <trkpt lat="45.60151" lon="6.65728">
        <ele>1788</ele>
        <time>2016-02-06T13:42:08Z</time>
      </trkpt>
      <trkpt lat="45.60151" lon="6.65726">
        <ele>1788</ele>
        <time>2016-02-06T13:42:15Z</time>
      </trkpt>
      <trkpt lat="45.60151" lon="6.65725">
        <ele>1788</ele>
        <time>2016-02-06T13:42:19Z</time>
      </trkpt>
      <trkpt lat="45.60149" lon="6.65728">
        <ele>1788</ele>
        <time>2016-02-06T13:42:21Z</time>
      </trkpt>
      <trkpt lat="45.60148" lon="6.65731">
        <ele>1788</ele>
        <time>2016-02-06T13:42:24Z</time>
      </trkpt>
      <trkpt lat="45.60145" lon="6.65733">
        <ele>1787</ele>
        <time>2016-02-06T13:42:25Z</time>
      </trkpt>
      <trkpt lat="45.60144" lon="6.65738">
        <ele>1787</ele>
        <time>2016-02-06T13:42:26Z</time>
      </trkpt>
      <trkpt lat="45.60143" lon="6.6574">
        <ele>1787</ele>
        <time>2016-02-06T13:42:27Z</time>
      </trkpt>
      <trkpt lat="45.60142" lon="6.65742">
        <ele>1787</ele>
        <time>2016-02-06T13:42:29Z</time>
      </trkpt>
      <trkpt lat="45.60143" lon="6.65744">
        <ele>1787</ele>
        <time>2016-02-06T13:42:30Z</time>
      </trkpt>
      <trkpt lat="45.60144" lon="6.65745">
        <ele>1787</ele>
        <time>2016-02-06T13:42:32Z</time>
      </trkpt>
      <trkpt lat="45.60146" lon="6.65747">
        <ele>1788</ele>
        <time>2016-02-06T13:42:36Z</time>
      </trkpt>
      <trkpt lat="45.60146" lon="6.65749">
        <ele>1788</ele>
        <time>2016-02-06T13:42:39Z</time>
      </trkpt>
      <trkpt lat="45.60145" lon="6.65749">
        <ele>1787</ele>
        <time>2016-02-06T13:42:42Z</time>
      </trkpt>
      <trkpt lat="45.60143" lon="6.65751">
        <ele>1782</ele>
        <time>2016-02-06T13:42:44Z</time>
      </trkpt>
      <trkpt lat="45.60142" lon="6.65753">
        <ele>1782</ele>
        <time>2016-02-06T13:42:46Z</time>
      </trkpt>
      <trkpt lat="45.6014" lon="6.65754">
        <ele>1781</ele>
        <time>2016-02-06T13:42:48Z</time>
      </trkpt>
      <trkpt lat="45.6014" lon="6.65756">
        <ele>1781</ele>
        <time>2016-02-06T13:42:52Z</time>
      </trkpt>
      <trkpt lat="45.6014" lon="6.65759">
        <ele>1781</ele>
        <time>2016-02-06T13:42:54Z</time>
      </trkpt>
      <trkpt lat="45.60138" lon="6.6576">
        <ele>1780</ele>
        <time>2016-02-06T13:42:57Z</time>
      </trkpt>
      <trkpt lat="45.60137" lon="6.6576">
        <ele>1780</ele>
        <time>2016-02-06T13:42:59Z</time>
      </trkpt>
      <trkpt lat="45.60136" lon="6.6576">
        <ele>1780</ele>
        <time>2016-02-06T13:43:01Z</time>
      </trkpt>
      <trkpt lat="45.60134" lon="6.65759">
        <ele>1779</ele>
        <time>2016-02-06T13:43:07Z</time>
      </trkpt>
      <trkpt lat="45.60133" lon="6.65761">
        <ele>1779</ele>
        <time>2016-02-06T13:43:12Z</time>
      </trkpt>
      <trkpt lat="45.60134" lon="6.65763">
        <ele>1779</ele>
        <time>2016-02-06T13:43:18Z</time>
      </trkpt>
      <trkpt lat="45.60133" lon="6.65762">
        <ele>1779</ele>
        <time>2016-02-06T13:43:25Z</time>
      </trkpt>
      <trkpt lat="45.60133" lon="6.6576">
        <ele>1779</ele>
        <time>2016-02-06T13:43:29Z</time>
      </trkpt>
      <trkpt lat="45.60133" lon="6.65759">
        <ele>1779</ele>
        <time>2016-02-06T13:43:30Z</time>
      </trkpt>
      <trkpt lat="45.6013" lon="6.65756">
        <ele>1779</ele>
        <time>2016-02-06T13:43:32Z</time>
      </trkpt>
      <trkpt lat="45.60129" lon="6.65754">
        <ele>1778</ele>
        <time>2016-02-06T13:43:34Z</time>
      </trkpt>
      <trkpt lat="45.60128" lon="6.65752">
        <ele>1778</ele>
        <time>2016-02-06T13:43:36Z</time>
      </trkpt>
      <trkpt lat="45.60126" lon="6.65751">
        <ele>1778</ele>
        <time>2016-02-06T13:43:38Z</time>
      </trkpt>
      <trkpt lat="45.60123" lon="6.6575">
        <ele>1777</ele>
        <time>2016-02-06T13:43:40Z</time>
      </trkpt>
      <trkpt lat="45.60123" lon="6.65753">
        <ele>1777</ele>
        <time>2016-02-06T13:43:42Z</time>
      </trkpt>
      <trkpt lat="45.60123" lon="6.65755">
        <ele>1777</ele>
        <time>2016-02-06T13:43:44Z</time>
      </trkpt>
      <trkpt lat="45.60123" lon="6.65756">
        <ele>1777</ele>
        <time>2016-02-06T13:43:46Z</time>
      </trkpt>
      <trkpt lat="45.60122" lon="6.65758">
        <ele>1777</ele>
        <time>2016-02-06T13:43:48Z</time>
      </trkpt>
      <trkpt lat="45.60122" lon="6.6576">
        <ele>1777</ele>
        <time>2016-02-06T13:43:50Z</time>
      </trkpt>
      <trkpt lat="45.60121" lon="6.65759">
        <ele>1777</ele>
        <time>2016-02-06T13:43:55Z</time>
      </trkpt>
      <trkpt lat="45.60119" lon="6.6576">
        <ele>1776</ele>
        <time>2016-02-06T13:43:57Z</time>
      </trkpt>
      <trkpt lat="45.60118" lon="6.6576">
        <ele>1776</ele>
        <time>2016-02-06T13:43:59Z</time>
      </trkpt>
      <trkpt lat="45.60116" lon="6.65758">
        <ele>1776</ele>
        <time>2016-02-06T13:44:00Z</time>
      </trkpt>
      <trkpt lat="45.60114" lon="6.65757">
        <ele>1775</ele>
        <time>2016-02-06T13:44:01Z</time>
      </trkpt>
      <trkpt lat="45.60113" lon="6.65758">
        <ele>1775</ele>
        <time>2016-02-06T13:44:02Z</time>
      </trkpt>
      <trkpt lat="45.60112" lon="6.65756">
        <ele>1775</ele>
        <time>2016-02-06T13:44:06Z</time>
      </trkpt>
      <trkpt lat="45.60113" lon="6.65759">
        <ele>1775</ele>
        <time>2016-02-06T13:44:09Z</time>
      </trkpt>
      <trkpt lat="45.60111" lon="6.65758">
        <ele>1775</ele>
        <time>2016-02-06T13:44:12Z</time>
      </trkpt>
      <trkpt lat="45.60109" lon="6.65758">
        <ele>1774</ele>
        <time>2016-02-06T13:44:13Z</time>
      </trkpt>
      <trkpt lat="45.60104" lon="6.65757">
        <ele>1774</ele>
        <time>2016-02-06T13:44:14Z</time>
      </trkpt>
      <trkpt lat="45.601" lon="6.65758">
        <ele>1773</ele>
        <time>2016-02-06T13:44:15Z</time>
      </trkpt>
      <trkpt lat="45.60096" lon="6.65759">
        <ele>1772</ele>
        <time>2016-02-06T13:44:16Z</time>
      </trkpt>
      <trkpt lat="45.60093" lon="6.6576">
        <ele>1772</ele>
        <time>2016-02-06T13:44:17Z</time>
      </trkpt>
      <trkpt lat="45.60091" lon="6.65763">
        <ele>1772</ele>
        <time>2016-02-06T13:44:18Z</time>
      </trkpt>
      <trkpt lat="45.6009" lon="6.65768">
        <ele>1772</ele>
        <time>2016-02-06T13:44:19Z</time>
      </trkpt>
      <trkpt lat="45.60089" lon="6.65775">
        <ele>1772</ele>
        <time>2016-02-06T13:44:20Z</time>
      </trkpt>
      <trkpt lat="45.60089" lon="6.65785">
        <ele>1772</ele>
        <time>2016-02-06T13:44:21Z</time>
      </trkpt>
      <trkpt lat="45.60089" lon="6.65796">
        <ele>1771</ele>
        <time>2016-02-06T13:44:22Z</time>
      </trkpt>
      <trkpt lat="45.60088" lon="6.65805">
        <ele>1770</ele>
        <time>2016-02-06T13:44:23Z</time>
      </trkpt>
      <trkpt lat="45.60088" lon="6.65816">
        <ele>1767</ele>
        <time>2016-02-06T13:44:24Z</time>
      </trkpt>
      <trkpt lat="45.60087" lon="6.65825">
        <ele>1763</ele>
        <time>2016-02-06T13:44:25Z</time>
      </trkpt>
      <trkpt lat="45.60086" lon="6.65836">
        <ele>1759</ele>
        <time>2016-02-06T13:44:26Z</time>
      </trkpt>
      <trkpt lat="45.60085" lon="6.65847">
        <ele>1761</ele>
        <time>2016-02-06T13:44:27Z</time>
      </trkpt>
      <trkpt lat="45.60085" lon="6.6586">
        <ele>1762</ele>
        <time>2016-02-06T13:44:28Z</time>
      </trkpt>
      <trkpt lat="45.60086" lon="6.65871">
        <ele>1762</ele>
        <time>2016-02-06T13:44:29Z</time>
      </trkpt>
      <trkpt lat="45.60088" lon="6.65881">
        <ele>1761</ele>
        <time>2016-02-06T13:44:30Z</time>
      </trkpt>
      <trkpt lat="45.60088" lon="6.65892">
        <ele>1759</ele>
        <time>2016-02-06T13:44:31Z</time>
      </trkpt>
      <trkpt lat="45.60093" lon="6.65902">
        <ele>1757</ele>
        <time>2016-02-06T13:44:32Z</time>
      </trkpt>
      <trkpt lat="45.60099" lon="6.65911">
        <ele>1757</ele>
        <time>2016-02-06T13:44:33Z</time>
      </trkpt>
      <trkpt lat="45.60103" lon="6.65916">
        <ele>1758</ele>
        <time>2016-02-06T13:44:34Z</time>
      </trkpt>
      <trkpt lat="45.60102" lon="6.65914">
        <ele>1758</ele>
        <time>2016-02-06T13:44:37Z</time>
      </trkpt>
      <trkpt lat="45.60101" lon="6.65914">
        <ele>1757</ele>
        <time>2016-02-06T13:44:38Z</time>
      </trkpt>
      <trkpt lat="45.60099" lon="6.65912">
        <ele>1756</ele>
        <time>2016-02-06T13:44:40Z</time>
      </trkpt>
      <trkpt lat="45.60099" lon="6.6591">
        <ele>1757</ele>
        <time>2016-02-06T13:44:41Z</time>
      </trkpt>
      <trkpt lat="45.60097" lon="6.65909">
        <ele>1756</ele>
        <time>2016-02-06T13:44:43Z</time>
      </trkpt>
      <trkpt lat="45.60096" lon="6.65909">
        <ele>1756</ele>
        <time>2016-02-06T13:44:45Z</time>
      </trkpt>
      <trkpt lat="45.60094" lon="6.65909">
        <ele>1755</ele>
        <time>2016-02-06T13:44:47Z</time>
      </trkpt>
      <trkpt lat="45.60095" lon="6.65911">
        <ele>1755</ele>
        <time>2016-02-06T13:44:51Z</time>
      </trkpt>
      <trkpt lat="45.60095" lon="6.65913">
        <ele>1754</ele>
        <time>2016-02-06T13:44:53Z</time>
      </trkpt>
      <trkpt lat="45.60095" lon="6.6591">
        <ele>1755</ele>
        <time>2016-02-06T13:45:02Z</time>
      </trkpt>
      <trkpt lat="45.60096" lon="6.65913">
        <ele>1755</ele>
        <time>2016-02-06T13:45:05Z</time>
      </trkpt>
      <trkpt lat="45.60096" lon="6.65915">
        <ele>1754</ele>
        <time>2016-02-06T13:45:06Z</time>
      </trkpt>
      <trkpt lat="45.60094" lon="6.65915">
        <ele>1754</ele>
        <time>2016-02-06T13:45:08Z</time>
      </trkpt>
      <trkpt lat="45.60092" lon="6.65915">
        <ele>1753</ele>
        <time>2016-02-06T13:45:10Z</time>
      </trkpt>
      <trkpt lat="45.60091" lon="6.65915">
        <ele>1752</ele>
        <time>2016-02-06T13:45:11Z</time>
      </trkpt>
      <trkpt lat="45.60088" lon="6.65914">
        <ele>1750</ele>
        <time>2016-02-06T13:45:12Z</time>
      </trkpt>
      <trkpt lat="45.60087" lon="6.65915">
        <ele>1749</ele>
        <time>2016-02-06T13:45:14Z</time>
      </trkpt>
      <trkpt lat="45.60085" lon="6.65916">
        <ele>1748</ele>
        <time>2016-02-06T13:45:16Z</time>
      </trkpt>
      <trkpt lat="45.60084" lon="6.65919">
        <ele>1747</ele>
        <time>2016-02-06T13:45:18Z</time>
      </trkpt>
      <trkpt lat="45.60083" lon="6.6592">
        <ele>1745</ele>
        <time>2016-02-06T13:45:22Z</time>
      </trkpt>
      <trkpt lat="45.60082" lon="6.65921">
        <ele>1744</ele>
        <time>2016-02-06T13:45:23Z</time>
      </trkpt>
      <trkpt lat="45.60081" lon="6.6592">
        <ele>1744</ele>
        <time>2016-02-06T13:45:24Z</time>
      </trkpt>
      <trkpt lat="45.60079" lon="6.65919">
        <ele>1744</ele>
        <time>2016-02-06T13:45:26Z</time>
      </trkpt>
      <trkpt lat="45.60078" lon="6.65921">
        <ele>1743</ele>
        <time>2016-02-06T13:45:27Z</time>
      </trkpt>
      <trkpt lat="45.60078" lon="6.65923">
        <ele>1743</ele>
        <time>2016-02-06T13:45:28Z</time>
      </trkpt>
      <trkpt lat="45.60078" lon="6.65926">
        <ele>1742</ele>
        <time>2016-02-06T13:45:29Z</time>
      </trkpt>
      <trkpt lat="45.60078" lon="6.65928">
        <ele>1742</ele>
        <time>2016-02-06T13:45:30Z</time>
      </trkpt>
      <trkpt lat="45.60077" lon="6.6593">
        <ele>1741</ele>
        <time>2016-02-06T13:45:32Z</time>
      </trkpt>
      <trkpt lat="45.60077" lon="6.65932">
        <ele>1741</ele>
        <time>2016-02-06T13:45:33Z</time>
      </trkpt>
      <trkpt lat="45.60075" lon="6.65931">
        <ele>1741</ele>
        <time>2016-02-06T13:45:35Z</time>
      </trkpt>
      <trkpt lat="45.60076" lon="6.6593">
        <ele>1741</ele>
        <time>2016-02-06T13:45:37Z</time>
      </trkpt>
      <trkpt lat="45.60078" lon="6.65931">
        <ele>1741</ele>
        <time>2016-02-06T13:45:41Z</time>
      </trkpt>
      <trkpt lat="45.60076" lon="6.65933">
        <ele>1741</ele>
        <time>2016-02-06T13:45:44Z</time>
      </trkpt>
      <trkpt lat="45.60075" lon="6.65935">
        <ele>1740</ele>
        <time>2016-02-06T13:45:45Z</time>
      </trkpt>
      <trkpt lat="45.60073" lon="6.65938">
        <ele>1740</ele>
        <time>2016-02-06T13:45:47Z</time>
      </trkpt>
      <trkpt lat="45.60072" lon="6.6594">
        <ele>1739</ele>
        <time>2016-02-06T13:45:48Z</time>
      </trkpt>
      <trkpt lat="45.60073" lon="6.65941">
        <ele>1739</ele>
        <time>2016-02-06T13:45:49Z</time>
      </trkpt>
      <trkpt lat="45.60073" lon="6.65944">
        <ele>1739</ele>
        <time>2016-02-06T13:45:50Z</time>
      </trkpt>
      <trkpt lat="45.60074" lon="6.65947">
        <ele>1738</ele>
        <time>2016-02-06T13:45:51Z</time>
      </trkpt>
      <trkpt lat="45.60074" lon="6.6595">
        <ele>1738</ele>
        <time>2016-02-06T13:45:52Z</time>
      </trkpt>
      <trkpt lat="45.60075" lon="6.65955">
        <ele>1737</ele>
        <time>2016-02-06T13:45:53Z</time>
      </trkpt>
      <trkpt lat="45.60076" lon="6.6596">
        <ele>1737</ele>
        <time>2016-02-06T13:45:54Z</time>
      </trkpt>
      <trkpt lat="45.60078" lon="6.65965">
        <ele>1736</ele>
        <time>2016-02-06T13:45:55Z</time>
      </trkpt>
      <trkpt lat="45.6008" lon="6.65971">
        <ele>1736</ele>
        <time>2016-02-06T13:45:56Z</time>
      </trkpt>
      <trkpt lat="45.60081" lon="6.65976">
        <ele>1735</ele>
        <time>2016-02-06T13:45:57Z</time>
      </trkpt>
      <trkpt lat="45.60083" lon="6.65985">
        <ele>1745</ele>
        <time>2016-02-06T13:45:58Z</time>
      </trkpt>
      <trkpt lat="45.60086" lon="6.65993">
        <ele>1740</ele>
        <time>2016-02-06T13:45:59Z</time>
      </trkpt>
      <trkpt lat="45.60088" lon="6.65999">
        <ele>1739</ele>
        <time>2016-02-06T13:46:00Z</time>
      </trkpt>
      <trkpt lat="45.60091" lon="6.66006">
        <ele>1739</ele>
        <time>2016-02-06T13:46:01Z</time>
      </trkpt>
      <trkpt lat="45.60094" lon="6.66012">
        <ele>1741</ele>
        <time>2016-02-06T13:46:02Z</time>
      </trkpt>
      <trkpt lat="45.60096" lon="6.66017">
        <ele>1742</ele>
        <time>2016-02-06T13:46:03Z</time>
      </trkpt>
      <trkpt lat="45.60095" lon="6.6602">
        <ele>1742</ele>
        <time>2016-02-06T13:46:04Z</time>
      </trkpt>
      <trkpt lat="45.60093" lon="6.66024">
        <ele>1742</ele>
        <time>2016-02-06T13:46:05Z</time>
      </trkpt>
      <trkpt lat="45.60093" lon="6.66026">
        <ele>1742</ele>
        <time>2016-02-06T13:46:06Z</time>
      </trkpt>
      <trkpt lat="45.60093" lon="6.66028">
        <ele>1742</ele>
        <time>2016-02-06T13:46:07Z</time>
      </trkpt>
      <trkpt lat="45.60093" lon="6.6603">
        <ele>1742</ele>
        <time>2016-02-06T13:46:08Z</time>
      </trkpt>
      <trkpt lat="45.60091" lon="6.66031">
        <ele>1742</ele>
        <time>2016-02-06T13:46:11Z</time>
      </trkpt>
      <trkpt lat="45.6009" lon="6.66032">
        <ele>1742</ele>
        <time>2016-02-06T13:46:13Z</time>
      </trkpt>
      <trkpt lat="45.60089" lon="6.66033">
        <ele>1741</ele>
        <time>2016-02-06T13:46:15Z</time>
      </trkpt>
      <trkpt lat="45.60088" lon="6.66034">
        <ele>1741</ele>
        <time>2016-02-06T13:46:16Z</time>
      </trkpt>
      <trkpt lat="45.60087" lon="6.66036">
        <ele>1741</ele>
        <time>2016-02-06T13:46:19Z</time>
      </trkpt>
      <trkpt lat="45.60087" lon="6.66038">
        <ele>1741</ele>
        <time>2016-02-06T13:46:20Z</time>
      </trkpt>
      <trkpt lat="45.60087" lon="6.66041">
        <ele>1741</ele>
        <time>2016-02-06T13:46:21Z</time>
      </trkpt>
      <trkpt lat="45.60088" lon="6.66044">
        <ele>1740</ele>
        <time>2016-02-06T13:46:22Z</time>
      </trkpt>
      <trkpt lat="45.60088" lon="6.66046">
        <ele>1740</ele>
        <time>2016-02-06T13:46:23Z</time>
      </trkpt>
      <trkpt lat="45.60088" lon="6.66048">
        <ele>1739</ele>
        <time>2016-02-06T13:46:24Z</time>
      </trkpt>
      <trkpt lat="45.60087" lon="6.66051">
        <ele>1738</ele>
        <time>2016-02-06T13:46:25Z</time>
      </trkpt>
      <trkpt lat="45.60085" lon="6.66054">
        <ele>1737</ele>
        <time>2016-02-06T13:46:26Z</time>
      </trkpt>
      <trkpt lat="45.60084" lon="6.66058">
        <ele>1736</ele>
        <time>2016-02-06T13:46:27Z</time>
      </trkpt>
      <trkpt lat="45.60083" lon="6.66063">
        <ele>1718</ele>
        <time>2016-02-06T13:46:28Z</time>
      </trkpt>
      <trkpt lat="45.60083" lon="6.66068">
        <ele>1731</ele>
        <time>2016-02-06T13:46:29Z</time>
      </trkpt>
      <trkpt lat="45.60084" lon="6.66075">
        <ele>1726</ele>
        <time>2016-02-06T13:46:30Z</time>
      </trkpt>
      <trkpt lat="45.60085" lon="6.66081">
        <ele>1721</ele>
        <time>2016-02-06T13:46:31Z</time>
      </trkpt>
      <trkpt lat="45.60085" lon="6.66087">
        <ele>1720</ele>
        <time>2016-02-06T13:46:32Z</time>
      </trkpt>
      <trkpt lat="45.60085" lon="6.66093">
        <ele>1723</ele>
        <time>2016-02-06T13:46:33Z</time>
      </trkpt>
      <trkpt lat="45.60083" lon="6.66101">
        <ele>1725</ele>
        <time>2016-02-06T13:46:34Z</time>
      </trkpt>
      <trkpt lat="45.60083" lon="6.66108">
        <ele>1706</ele>
        <time>2016-02-06T13:46:35Z</time>
      </trkpt>
      <trkpt lat="45.60083" lon="6.66113">
        <ele>1727</ele>
        <time>2016-02-06T13:46:36Z</time>
      </trkpt>
      <trkpt lat="45.60085" lon="6.66118">
        <ele>1727</ele>
        <time>2016-02-06T13:46:37Z</time>
      </trkpt>
      <trkpt lat="45.60086" lon="6.66123">
        <ele>1727</ele>
        <time>2016-02-06T13:46:38Z</time>
      </trkpt>
      <trkpt lat="45.60088" lon="6.66128">
        <ele>1726</ele>
        <time>2016-02-06T13:46:39Z</time>
      </trkpt>
      <trkpt lat="45.60088" lon="6.66134">
        <ele>1725</ele>
        <time>2016-02-06T13:46:40Z</time>
      </trkpt>
      <trkpt lat="45.60088" lon="6.66139">
        <ele>1723</ele>
        <time>2016-02-06T13:46:41Z</time>
      </trkpt>
      <trkpt lat="45.60088" lon="6.66147">
        <ele>1720</ele>
        <time>2016-02-06T13:46:42Z</time>
      </trkpt>
      <trkpt lat="45.60086" lon="6.66154">
        <ele>1715</ele>
        <time>2016-02-06T13:46:43Z</time>
      </trkpt>
      <trkpt lat="45.60084" lon="6.6616">
        <ele>1709</ele>
        <time>2016-02-06T13:46:44Z</time>
      </trkpt>
      <trkpt lat="45.60083" lon="6.66164">
        <ele>1704</ele>
        <time>2016-02-06T13:46:45Z</time>
      </trkpt>
      <trkpt lat="45.60082" lon="6.66167">
        <ele>1700</ele>
        <time>2016-02-06T13:46:46Z</time>
      </trkpt>
      <trkpt lat="45.60081" lon="6.66171">
        <ele>1699</ele>
        <time>2016-02-06T13:46:47Z</time>
      </trkpt>
      <trkpt lat="45.60081" lon="6.66173">
        <ele>1698</ele>
        <time>2016-02-06T13:46:48Z</time>
      </trkpt>
      <trkpt lat="45.6008" lon="6.66175">
        <ele>1697</ele>
        <time>2016-02-06T13:46:52Z</time>
      </trkpt>
      <trkpt lat="45.6008" lon="6.66177">
        <ele>1696</ele>
        <time>2016-02-06T13:46:54Z</time>
      </trkpt>
      <trkpt lat="45.6008" lon="6.66179">
        <ele>1696</ele>
        <time>2016-02-06T13:46:56Z</time>
      </trkpt>
      <trkpt lat="45.60079" lon="6.66182">
        <ele>1695</ele>
        <time>2016-02-06T13:46:58Z</time>
      </trkpt>
      <trkpt lat="45.60078" lon="6.66186">
        <ele>1694</ele>
        <time>2016-02-06T13:46:59Z</time>
      </trkpt>
      <trkpt lat="45.60078" lon="6.66191">
        <ele>1693</ele>
        <time>2016-02-06T13:47:00Z</time>
      </trkpt>
      <trkpt lat="45.60077" lon="6.66195">
        <ele>1692</ele>
        <time>2016-02-06T13:47:01Z</time>
      </trkpt>
      <trkpt lat="45.60076" lon="6.66198">
        <ele>1692</ele>
        <time>2016-02-06T13:47:02Z</time>
      </trkpt>
      <trkpt lat="45.60074" lon="6.662">
        <ele>1691</ele>
        <time>2016-02-06T13:47:04Z</time>
      </trkpt>
      <trkpt lat="45.60071" lon="6.66201">
        <ele>1691</ele>
        <time>2016-02-06T13:47:05Z</time>
      </trkpt>
      <trkpt lat="45.60067" lon="6.66204">
        <ele>1690</ele>
        <time>2016-02-06T13:47:06Z</time>
      </trkpt>
      <trkpt lat="45.60065" lon="6.66208">
        <ele>1690</ele>
        <time>2016-02-06T13:47:07Z</time>
      </trkpt>
      <trkpt lat="45.60064" lon="6.6621">
        <ele>1690</ele>
        <time>2016-02-06T13:47:08Z</time>
      </trkpt>
      <trkpt lat="45.60062" lon="6.66212">
        <ele>1689</ele>
        <time>2016-02-06T13:47:09Z</time>
      </trkpt>
      <trkpt lat="45.60061" lon="6.66214">
        <ele>1689</ele>
        <time>2016-02-06T13:47:12Z</time>
      </trkpt>
      <trkpt lat="45.60062" lon="6.66215">
        <ele>1689</ele>
        <time>2016-02-06T13:47:14Z</time>
      </trkpt>
      <trkpt lat="45.60062" lon="6.66217">
        <ele>1689</ele>
        <time>2016-02-06T13:47:15Z</time>
      </trkpt>
      <trkpt lat="45.60063" lon="6.66219">
        <ele>1689</ele>
        <time>2016-02-06T13:47:17Z</time>
      </trkpt>
      <trkpt lat="45.60065" lon="6.66222">
        <ele>1690</ele>
        <time>2016-02-06T13:47:19Z</time>
      </trkpt>
      <trkpt lat="45.60066" lon="6.66224">
        <ele>1690</ele>
        <time>2016-02-06T13:47:21Z</time>
      </trkpt>
      <trkpt lat="45.60067" lon="6.66222">
        <ele>1690</ele>
        <time>2016-02-06T13:47:27Z</time>
      </trkpt>
      <trkpt lat="45.60067" lon="6.66224">
        <ele>1690</ele>
        <time>2016-02-06T13:47:31Z</time>
      </trkpt>
      <trkpt lat="45.60068" lon="6.66226">
        <ele>1690</ele>
        <time>2016-02-06T13:47:32Z</time>
      </trkpt>
      <trkpt lat="45.60068" lon="6.66228">
        <ele>1691</ele>
        <time>2016-02-06T13:47:33Z</time>
      </trkpt>
      <trkpt lat="45.60067" lon="6.6623">
        <ele>1691</ele>
        <time>2016-02-06T13:47:35Z</time>
      </trkpt>
      <trkpt lat="45.60064" lon="6.66231">
        <ele>1690</ele>
        <time>2016-02-06T13:47:37Z</time>
      </trkpt>
      <trkpt lat="45.60063" lon="6.66229">
        <ele>1690</ele>
        <time>2016-02-06T13:47:38Z</time>
      </trkpt>
      <trkpt lat="45.60063" lon="6.66228">
        <ele>1690</ele>
        <time>2016-02-06T13:47:39Z</time>
      </trkpt>
      <trkpt lat="45.60063" lon="6.66225">
        <ele>1690</ele>
        <time>2016-02-06T13:47:41Z</time>
      </trkpt>
      <trkpt lat="45.60062" lon="6.66224">
        <ele>1689</ele>
        <time>2016-02-06T13:47:43Z</time>
      </trkpt>
      <trkpt lat="45.60059" lon="6.66225">
        <ele>1689</ele>
        <time>2016-02-06T13:47:45Z</time>
      </trkpt>
      <trkpt lat="45.60058" lon="6.66226">
        <ele>1689</ele>
        <time>2016-02-06T13:47:46Z</time>
      </trkpt>
      <trkpt lat="45.60056" lon="6.66227">
        <ele>1688</ele>
        <time>2016-02-06T13:47:47Z</time>
      </trkpt>
      <trkpt lat="45.60054" lon="6.66226">
        <ele>1688</ele>
        <time>2016-02-06T13:47:49Z</time>
      </trkpt>
      <trkpt lat="45.60052" lon="6.66225">
        <ele>1687</ele>
        <time>2016-02-06T13:47:50Z</time>
      </trkpt>
      <trkpt lat="45.60048" lon="6.66224">
        <ele>1687</ele>
        <time>2016-02-06T13:47:51Z</time>
      </trkpt>
      <trkpt lat="45.60045" lon="6.66227">
        <ele>1686</ele>
        <time>2016-02-06T13:47:52Z</time>
      </trkpt>
      <trkpt lat="45.60041" lon="6.6623">
        <ele>1685</ele>
        <time>2016-02-06T13:47:53Z</time>
      </trkpt>
      <trkpt lat="45.6004" lon="6.66234">
        <ele>1684</ele>
        <time>2016-02-06T13:47:54Z</time>
      </trkpt>
      <trkpt lat="45.60038" lon="6.66239">
        <ele>1684</ele>
        <time>2016-02-06T13:47:55Z</time>
      </trkpt>
      <trkpt lat="45.60037" lon="6.66243">
        <ele>1683</ele>
        <time>2016-02-06T13:47:56Z</time>
      </trkpt>
      <trkpt lat="45.60035" lon="6.66247">
        <ele>1682</ele>
        <time>2016-02-06T13:47:57Z</time>
      </trkpt>
      <trkpt lat="45.60033" lon="6.66249">
        <ele>1682</ele>
        <time>2016-02-06T13:47:58Z</time>
      </trkpt>
      <trkpt lat="45.60031" lon="6.6625">
        <ele>1677</ele>
        <time>2016-02-06T13:47:59Z</time>
      </trkpt>
      <trkpt lat="45.60028" lon="6.6625">
        <ele>1680</ele>
        <time>2016-02-06T13:48:01Z</time>
      </trkpt>
      <trkpt lat="45.60021" lon="6.66254">
        <ele>1673</ele>
        <time>2016-02-06T13:48:04Z</time>
      </trkpt>
      <trkpt lat="45.60018" lon="6.66255">
        <ele>1672</ele>
        <time>2016-02-06T13:48:05Z</time>
      </trkpt>
      <trkpt lat="45.60014" lon="6.66259">
        <ele>1672</ele>
        <time>2016-02-06T13:48:06Z</time>
      </trkpt>
      <trkpt lat="45.60009" lon="6.66264">
        <ele>1671</ele>
        <time>2016-02-06T13:48:07Z</time>
      </trkpt>
      <trkpt lat="45.60005" lon="6.66267">
        <ele>1671</ele>
        <time>2016-02-06T13:48:08Z</time>
      </trkpt>
      <trkpt lat="45.60002" lon="6.66271">
        <ele>1671</ele>
        <time>2016-02-06T13:48:09Z</time>
      </trkpt>
      <trkpt lat="45.6" lon="6.66277">
        <ele>1659</ele>
        <time>2016-02-06T13:48:10Z</time>
      </trkpt>
      <trkpt lat="45.59996" lon="6.66284">
        <ele>1658</ele>
        <time>2016-02-06T13:48:11Z</time>
      </trkpt>
      <trkpt lat="45.59996" lon="6.6629">
        <ele>1657</ele>
        <time>2016-02-06T13:48:12Z</time>
      </trkpt>
      <trkpt lat="45.59998" lon="6.66297">
        <ele>1656</ele>
        <time>2016-02-06T13:48:13Z</time>
      </trkpt>
      <trkpt lat="45.60001" lon="6.66304">
        <ele>1670</ele>
        <time>2016-02-06T13:48:14Z</time>
      </trkpt>
      <trkpt lat="45.60005" lon="6.66324">
        <ele>1663</ele>
        <time>2016-02-06T13:48:17Z</time>
      </trkpt>
      <trkpt lat="45.60008" lon="6.66343">
        <ele>1663</ele>
        <time>2016-02-06T13:48:18Z</time>
      </trkpt>
      <trkpt lat="45.60009" lon="6.66357">
        <ele>1667</ele>
        <time>2016-02-06T13:48:19Z</time>
      </trkpt>
      <trkpt lat="45.60008" lon="6.6637">
        <ele>1669</ele>
        <time>2016-02-06T13:48:20Z</time>
      </trkpt>
      <trkpt lat="45.60008" lon="6.66382">
        <ele>1668</ele>
        <time>2016-02-06T13:48:21Z</time>
      </trkpt>
      <trkpt lat="45.60008" lon="6.66394">
        <ele>1666</ele>
        <time>2016-02-06T13:48:22Z</time>
      </trkpt>
      <trkpt lat="45.60007" lon="6.66403">
        <ele>1662</ele>
        <time>2016-02-06T13:48:23Z</time>
      </trkpt>
      <trkpt lat="45.60006" lon="6.66411">
        <ele>1657</ele>
        <time>2016-02-06T13:48:24Z</time>
      </trkpt>
      <trkpt lat="45.60004" lon="6.6642">
        <ele>1655</ele>
        <time>2016-02-06T13:48:25Z</time>
      </trkpt>
      <trkpt lat="45.60001" lon="6.6643">
        <ele>1659</ele>
        <time>2016-02-06T13:48:26Z</time>
      </trkpt>
      <trkpt lat="45.59998" lon="6.66441">
        <ele>1638</ele>
        <time>2016-02-06T13:48:27Z</time>
      </trkpt>
      <trkpt lat="45.59997" lon="6.66444">
        <ele>1638</ele>
        <time>2016-02-06T13:48:28Z</time>
      </trkpt>
      <trkpt lat="45.59998" lon="6.66445">
        <ele>1637</ele>
        <time>2016-02-06T13:48:29Z</time>
      </trkpt>
      <trkpt lat="45.6" lon="6.66444">
        <ele>1638</ele>
        <time>2016-02-06T13:48:30Z</time>
      </trkpt>
      <trkpt lat="45.6" lon="6.66441">
        <ele>1638</ele>
        <time>2016-02-06T13:48:31Z</time>
      </trkpt>
      <trkpt lat="45.6" lon="6.66439">
        <ele>1662</ele>
        <time>2016-02-06T13:48:32Z</time>
      </trkpt>
      <trkpt lat="45.59998" lon="6.66436">
        <ele>1640</ele>
        <time>2016-02-06T13:48:33Z</time>
      </trkpt>
      <trkpt lat="45.59999" lon="6.66436">
        <ele>1640</ele>
        <time>2016-02-06T13:48:34Z</time>
      </trkpt>
      <trkpt lat="45.60002" lon="6.66437">
        <ele>1662</ele>
        <time>2016-02-06T13:48:35Z</time>
      </trkpt>
      <trkpt lat="45.60003" lon="6.66438">
        <ele>1662</ele>
        <time>2016-02-06T13:48:36Z</time>
      </trkpt>
      <trkpt lat="45.60002" lon="6.6644">
        <ele>1662</ele>
        <time>2016-02-06T13:48:41Z</time>
      </trkpt>
      <trkpt lat="45.60001" lon="6.6644">
        <ele>1662</ele>
        <time>2016-02-06T13:48:42Z</time>
      </trkpt>
      <trkpt lat="45.59999" lon="6.66439">
        <ele>1639</ele>
        <time>2016-02-06T13:48:43Z</time>
      </trkpt>
      <trkpt lat="45.59996" lon="6.66434">
        <ele>1640</ele>
        <time>2016-02-06T13:48:46Z</time>
      </trkpt>
      <trkpt lat="45.59994" lon="6.66431">
        <ele>1641</ele>
        <time>2016-02-06T13:48:47Z</time>
      </trkpt>
      <trkpt lat="45.59992" lon="6.66429">
        <ele>1641</ele>
        <time>2016-02-06T13:48:50Z</time>
      </trkpt>
      <trkpt lat="45.59994" lon="6.66433">
        <ele>1640</ele>
        <time>2016-02-06T13:48:51Z</time>
      </trkpt>
      <trkpt lat="45.59992" lon="6.66432">
        <ele>1640</ele>
        <time>2016-02-06T13:48:53Z</time>
      </trkpt>
      <trkpt lat="45.59991" lon="6.66431">
        <ele>1640</ele>
        <time>2016-02-06T13:48:54Z</time>
      </trkpt>
      <trkpt lat="45.59992" lon="6.66434">
        <ele>1639</ele>
        <time>2016-02-06T13:48:56Z</time>
      </trkpt>
      <trkpt lat="45.59992" lon="6.66435">
        <ele>1639</ele>
        <time>2016-02-06T13:48:57Z</time>
      </trkpt>
      <trkpt lat="45.59992" lon="6.66438">
        <ele>1638</ele>
        <time>2016-02-06T13:48:58Z</time>
      </trkpt>
      <trkpt lat="45.59993" lon="6.6644">
        <ele>1638</ele>
        <time>2016-02-06T13:48:59Z</time>
      </trkpt>
      <trkpt lat="45.59995" lon="6.66442">
        <ele>1638</ele>
        <time>2016-02-06T13:49:00Z</time>
      </trkpt>
      <trkpt lat="45.59995" lon="6.66445">
        <ele>1637</ele>
        <time>2016-02-06T13:49:02Z</time>
      </trkpt>
      <trkpt lat="45.59994" lon="6.66447">
        <ele>1637</ele>
        <time>2016-02-06T13:49:04Z</time>
      </trkpt>
      <trkpt lat="45.59995" lon="6.66451">
        <ele>1636</ele>
        <time>2016-02-06T13:49:06Z</time>
      </trkpt>
      <trkpt lat="45.59995" lon="6.66453">
        <ele>1636</ele>
        <time>2016-02-06T13:49:07Z</time>
      </trkpt>
      <trkpt lat="45.59995" lon="6.66455">
        <ele>1636</ele>
        <time>2016-02-06T13:49:08Z</time>
      </trkpt>
      <trkpt lat="45.59995" lon="6.66457">
        <ele>1636</ele>
        <time>2016-02-06T13:49:09Z</time>
      </trkpt>
      <trkpt lat="45.59995" lon="6.66458">
        <ele>1635</ele>
        <time>2016-02-06T13:49:10Z</time>
      </trkpt>
      <trkpt lat="45.59994" lon="6.66462">
        <ele>1635</ele>
        <time>2016-02-06T13:49:12Z</time>
      </trkpt>
      <trkpt lat="45.59994" lon="6.66463">
        <ele>1635</ele>
        <time>2016-02-06T13:49:13Z</time>
      </trkpt>
      <trkpt lat="45.59995" lon="6.66464">
        <ele>1635</ele>
        <time>2016-02-06T13:49:16Z</time>
      </trkpt>
      <trkpt lat="45.59997" lon="6.66464">
        <ele>1635</ele>
        <time>2016-02-06T13:49:18Z</time>
      </trkpt>
      <trkpt lat="45.59998" lon="6.66464">
        <ele>1636</ele>
        <time>2016-02-06T13:49:26Z</time>
      </trkpt>
      <trkpt lat="45.6" lon="6.66463">
        <ele>1663</ele>
        <time>2016-02-06T13:49:29Z</time>
      </trkpt>
      <trkpt lat="45.60001" lon="6.66464">
        <ele>1663</ele>
        <time>2016-02-06T13:49:32Z</time>
      </trkpt>
      <trkpt lat="45.6" lon="6.66462">
        <ele>1663</ele>
        <time>2016-02-06T13:49:34Z</time>
      </trkpt>
      <trkpt lat="45.59999" lon="6.66462">
        <ele>1636</ele>
        <time>2016-02-06T13:49:42Z</time>
      </trkpt>
      <trkpt lat="45.59997" lon="6.66461">
        <ele>1635</ele>
        <time>2016-02-06T13:49:46Z</time>
      </trkpt>
      <trkpt lat="45.59997" lon="6.66464">
        <ele>1635</ele>
        <time>2016-02-06T13:49:48Z</time>
      </trkpt>
      <trkpt lat="45.59997" lon="6.66465">
        <ele>1635</ele>
        <time>2016-02-06T13:49:49Z</time>
      </trkpt>
      <trkpt lat="45.59997" lon="6.66468">
        <ele>1635</ele>
        <time>2016-02-06T13:49:51Z</time>
      </trkpt>
      <trkpt lat="45.59997" lon="6.6647">
        <ele>1636</ele>
        <time>2016-02-06T13:49:52Z</time>
      </trkpt>
      <trkpt lat="45.59996" lon="6.66474">
        <ele>1636</ele>
        <time>2016-02-06T13:49:54Z</time>
      </trkpt>
      <trkpt lat="45.59996" lon="6.66476">
        <ele>1636</ele>
        <time>2016-02-06T13:49:55Z</time>
      </trkpt>
      <trkpt lat="45.59995" lon="6.66478">
        <ele>1636</ele>
        <time>2016-02-06T13:49:57Z</time>
      </trkpt>
      <trkpt lat="45.59995" lon="6.6648">
        <ele>1636</ele>
        <time>2016-02-06T13:49:58Z</time>
      </trkpt>
      <trkpt lat="45.59995" lon="6.66482">
        <ele>1637</ele>
        <time>2016-02-06T13:49:59Z</time>
      </trkpt>
      <trkpt lat="45.59995" lon="6.66485">
        <ele>1637</ele>
        <time>2016-02-06T13:50:00Z</time>
      </trkpt>
      <trkpt lat="45.59995" lon="6.66486">
        <ele>1638</ele>
        <time>2016-02-06T13:50:01Z</time>
      </trkpt>
      <trkpt lat="45.59995" lon="6.6649">
        <ele>1639</ele>
        <time>2016-02-06T13:50:02Z</time>
      </trkpt>
      <trkpt lat="45.59996" lon="6.66492">
        <ele>1639</ele>
        <time>2016-02-06T13:50:03Z</time>
      </trkpt>
      <trkpt lat="45.59996" lon="6.66496">
        <ele>1641</ele>
        <time>2016-02-06T13:50:04Z</time>
      </trkpt>
      <trkpt lat="45.59996" lon="6.665">
        <ele>1639</ele>
        <time>2016-02-06T13:50:05Z</time>
      </trkpt>
      <trkpt lat="45.59996" lon="6.66504">
        <ele>1638</ele>
        <time>2016-02-06T13:50:06Z</time>
      </trkpt>
      <trkpt lat="45.59996" lon="6.6651">
        <ele>1634</ele>
        <time>2016-02-06T13:50:07Z</time>
      </trkpt>
      <trkpt lat="45.59996" lon="6.66515">
        <ele>1630</ele>
        <time>2016-02-06T13:50:08Z</time>
      </trkpt>
      <trkpt lat="45.59997" lon="6.66519">
        <ele>1628</ele>
        <time>2016-02-06T13:50:09Z</time>
      </trkpt>
      <trkpt lat="45.59998" lon="6.66525">
        <ele>1626</ele>
        <time>2016-02-06T13:50:10Z</time>
      </trkpt>
      <trkpt lat="45.6" lon="6.6653">
        <ele>1624</ele>
        <time>2016-02-06T13:50:11Z</time>
      </trkpt>
      <trkpt lat="45.60002" lon="6.66535">
        <ele>1651</ele>
        <time>2016-02-06T13:50:12Z</time>
      </trkpt>
      <trkpt lat="45.60005" lon="6.66542">
        <ele>1650</ele>
        <time>2016-02-06T13:50:13Z</time>
      </trkpt>
      <trkpt lat="45.60007" lon="6.66551">
        <ele>1648</ele>
        <time>2016-02-06T13:50:14Z</time>
      </trkpt>
      <trkpt lat="45.6001" lon="6.6656">
        <ele>1646</ele>
        <time>2016-02-06T13:50:15Z</time>
      </trkpt>
      <trkpt lat="45.60013" lon="6.66568">
        <ele>1643</ele>
        <time>2016-02-06T13:50:16Z</time>
      </trkpt>
      <trkpt lat="45.60016" lon="6.66577">
        <ele>1642</ele>
        <time>2016-02-06T13:50:17Z</time>
      </trkpt>
      <trkpt lat="45.6002" lon="6.66585">
        <ele>1632</ele>
        <time>2016-02-06T13:50:18Z</time>
      </trkpt>
      <trkpt lat="45.60023" lon="6.66591">
        <ele>1633</ele>
        <time>2016-02-06T13:50:19Z</time>
      </trkpt>
      <trkpt lat="45.60027" lon="6.66597">
        <ele>1634</ele>
        <time>2016-02-06T13:50:20Z</time>
      </trkpt>
      <trkpt lat="45.60029" lon="6.66607">
        <ele>1634</ele>
        <time>2016-02-06T13:50:21Z</time>
      </trkpt>
      <trkpt lat="45.60031" lon="6.66619">
        <ele>1634</ele>
        <time>2016-02-06T13:50:22Z</time>
      </trkpt>
      <trkpt lat="45.60033" lon="6.66632">
        <ele>1632</ele>
        <time>2016-02-06T13:50:23Z</time>
      </trkpt>
      <trkpt lat="45.60035" lon="6.66643">
        <ele>1631</ele>
        <time>2016-02-06T13:50:24Z</time>
      </trkpt>
      <trkpt lat="45.60036" lon="6.66651">
        <ele>1631</ele>
        <time>2016-02-06T13:50:25Z</time>
      </trkpt>
      <trkpt lat="45.6004" lon="6.66655">
        <ele>1631</ele>
        <time>2016-02-06T13:50:26Z</time>
      </trkpt>
      <trkpt lat="45.60045" lon="6.66658">
        <ele>1633</ele>
        <time>2016-02-06T13:50:27Z</time>
      </trkpt>
      <trkpt lat="45.6005" lon="6.66662">
        <ele>1634</ele>
        <time>2016-02-06T13:50:28Z</time>
      </trkpt>
      <trkpt lat="45.60055" lon="6.6667">
        <ele>1621</ele>
        <time>2016-02-06T13:50:29Z</time>
      </trkpt>
      <trkpt lat="45.6006" lon="6.66674">
        <ele>1623</ele>
        <time>2016-02-06T13:50:30Z</time>
      </trkpt>
      <trkpt lat="45.60063" lon="6.66681">
        <ele>1622</ele>
        <time>2016-02-06T13:50:31Z</time>
      </trkpt>
      <trkpt lat="45.60067" lon="6.66688">
        <ele>1622</ele>
        <time>2016-02-06T13:50:32Z</time>
      </trkpt>
      <trkpt lat="45.60071" lon="6.66696">
        <ele>1620</ele>
        <time>2016-02-06T13:50:33Z</time>
      </trkpt>
      <trkpt lat="45.60075" lon="6.66702">
        <ele>1619</ele>
        <time>2016-02-06T13:50:34Z</time>
      </trkpt>
      <trkpt lat="45.60078" lon="6.6671">
        <ele>1617</ele>
        <time>2016-02-06T13:50:35Z</time>
      </trkpt>
      <trkpt lat="45.60081" lon="6.66717">
        <ele>1616</ele>
        <time>2016-02-06T13:50:36Z</time>
      </trkpt>
      <trkpt lat="45.60085" lon="6.66723">
        <ele>1638</ele>
        <time>2016-02-06T13:50:37Z</time>
      </trkpt>
      <trkpt lat="45.60089" lon="6.66728">
        <ele>1636</ele>
        <time>2016-02-06T13:50:38Z</time>
      </trkpt>
      <trkpt lat="45.60091" lon="6.66738">
        <ele>1631</ele>
        <time>2016-02-06T13:50:39Z</time>
      </trkpt>
      <trkpt lat="45.60095" lon="6.66742">
        <ele>1631</ele>
        <time>2016-02-06T13:50:40Z</time>
      </trkpt>
      <trkpt lat="45.60098" lon="6.66748">
        <ele>1631</ele>
        <time>2016-02-06T13:50:41Z</time>
      </trkpt>
      <trkpt lat="45.60101" lon="6.66754">
        <ele>1619</ele>
        <time>2016-02-06T13:50:42Z</time>
      </trkpt>
      <trkpt lat="45.60103" lon="6.66762">
        <ele>1619</ele>
        <time>2016-02-06T13:50:43Z</time>
      </trkpt>
      <trkpt lat="45.60107" lon="6.66767">
        <ele>1619</ele>
        <time>2016-02-06T13:50:44Z</time>
      </trkpt>
      <trkpt lat="45.60112" lon="6.66767">
        <ele>1620</ele>
        <time>2016-02-06T13:50:45Z</time>
      </trkpt>
      <trkpt lat="45.60117" lon="6.66771">
        <ele>1621</ele>
        <time>2016-02-06T13:50:46Z</time>
      </trkpt>
      <trkpt lat="45.60123" lon="6.66776">
        <ele>1622</ele>
        <time>2016-02-06T13:50:47Z</time>
      </trkpt>
      <trkpt lat="45.60128" lon="6.66783">
        <ele>1622</ele>
        <time>2016-02-06T13:50:48Z</time>
      </trkpt>
      <trkpt lat="45.60133" lon="6.6679">
        <ele>1622</ele>
        <time>2016-02-06T13:50:49Z</time>
      </trkpt>
      <trkpt lat="45.60139" lon="6.66799">
        <ele>1621</ele>
        <time>2016-02-06T13:50:50Z</time>
      </trkpt>
      <trkpt lat="45.60145" lon="6.66809">
        <ele>1621</ele>
        <time>2016-02-06T13:50:51Z</time>
      </trkpt>
      <trkpt lat="45.60151" lon="6.66818">
        <ele>1621</ele>
        <time>2016-02-06T13:50:52Z</time>
      </trkpt>
      <trkpt lat="45.60157" lon="6.66825">
        <ele>1622</ele>
        <time>2016-02-06T13:50:53Z</time>
      </trkpt>
      <trkpt lat="45.60163" lon="6.6683">
        <ele>1622</ele>
        <time>2016-02-06T13:50:54Z</time>
      </trkpt>
      <trkpt lat="45.60169" lon="6.66833">
        <ele>1626</ele>
        <time>2016-02-06T13:50:55Z</time>
      </trkpt>
      <trkpt lat="45.60174" lon="6.66834">
        <ele>1623</ele>
        <time>2016-02-06T13:50:56Z</time>
      </trkpt>
      <trkpt lat="45.60178" lon="6.66834">
        <ele>1623</ele>
        <time>2016-02-06T13:50:57Z</time>
      </trkpt>
      <trkpt lat="45.60177" lon="6.66828">
        <ele>1636</ele>
        <time>2016-02-06T13:50:58Z</time>
      </trkpt>
      <trkpt lat="45.60173" lon="6.66825">
        <ele>1635</ele>
        <time>2016-02-06T13:50:59Z</time>
      </trkpt>
      <trkpt lat="45.60169" lon="6.66823">
        <ele>1635</ele>
        <time>2016-02-06T13:51:00Z</time>
      </trkpt>
      <trkpt lat="45.60166" lon="6.66822">
        <ele>1622</ele>
        <time>2016-02-06T13:51:01Z</time>
      </trkpt>
      <trkpt lat="45.60161" lon="6.66821">
        <ele>1622</ele>
        <time>2016-02-06T13:51:02Z</time>
      </trkpt>
      <trkpt lat="45.60159" lon="6.66819">
        <ele>1622</ele>
        <time>2016-02-06T13:51:03Z</time>
      </trkpt>
      <trkpt lat="45.60156" lon="6.66816">
        <ele>1622</ele>
        <time>2016-02-06T13:51:04Z</time>
      </trkpt>
      <trkpt lat="45.60153" lon="6.66813">
        <ele>1622</ele>
        <time>2016-02-06T13:51:05Z</time>
      </trkpt>
      <trkpt lat="45.6015" lon="6.6681">
        <ele>1621</ele>
        <time>2016-02-06T13:51:06Z</time>
      </trkpt>
      <trkpt lat="45.60146" lon="6.66807">
        <ele>1621</ele>
        <time>2016-02-06T13:51:07Z</time>
      </trkpt>
      <trkpt lat="45.60144" lon="6.66805">
        <ele>1621</ele>
        <time>2016-02-06T13:51:08Z</time>
      </trkpt>
      <trkpt lat="45.60141" lon="6.66805">
        <ele>1621</ele>
        <time>2016-02-06T13:51:09Z</time>
      </trkpt>
      <trkpt lat="45.60138" lon="6.66804">
        <ele>1620</ele>
        <time>2016-02-06T13:51:10Z</time>
      </trkpt>
      <trkpt lat="45.60135" lon="6.66804">
        <ele>1620</ele>
        <time>2016-02-06T13:51:11Z</time>
      </trkpt>
      <trkpt lat="45.60134" lon="6.66804">
        <ele>1619</ele>
        <time>2016-02-06T13:51:12Z</time>
      </trkpt>
      <trkpt lat="45.60131" lon="6.66803">
        <ele>1619</ele>
        <time>2016-02-06T13:51:13Z</time>
      </trkpt>
      <trkpt lat="45.6013" lon="6.66802">
        <ele>1619</ele>
        <time>2016-02-06T13:51:14Z</time>
      </trkpt>
      <trkpt lat="45.60128" lon="6.66802">
        <ele>1618</ele>
        <time>2016-02-06T13:51:15Z</time>
      </trkpt>
      <trkpt lat="45.60126" lon="6.66804">
        <ele>1617</ele>
        <time>2016-02-06T13:51:16Z</time>
      </trkpt>
      <trkpt lat="45.60125" lon="6.66805">
        <ele>1617</ele>
        <time>2016-02-06T13:51:17Z</time>
      </trkpt>
      <trkpt lat="45.60123" lon="6.66804">
        <ele>1617</ele>
        <time>2016-02-06T13:51:18Z</time>
      </trkpt>
      <trkpt lat="45.60122" lon="6.66805">
        <ele>1616</ele>
        <time>2016-02-06T13:51:19Z</time>
      </trkpt>
      <trkpt lat="45.6012" lon="6.66805">
        <ele>1616</ele>
        <time>2016-02-06T13:51:20Z</time>
      </trkpt>
      <trkpt lat="45.60118" lon="6.66804">
        <ele>1615</ele>
        <time>2016-02-06T13:51:21Z</time>
      </trkpt>
      <trkpt lat="45.60107" lon="6.66798">
        <ele>1614</ele>
        <time>2016-02-06T13:51:24Z</time>
      </trkpt>
      <trkpt lat="45.60102" lon="6.66794">
        <ele>1614</ele>
        <time>2016-02-06T13:51:25Z</time>
      </trkpt>
      <trkpt lat="45.60096" lon="6.66789">
        <ele>1614</ele>
        <time>2016-02-06T13:51:26Z</time>
      </trkpt>
      <trkpt lat="45.6009" lon="6.66786">
        <ele>1614</ele>
        <time>2016-02-06T13:51:27Z</time>
      </trkpt>
      <trkpt lat="45.60083" lon="6.66786">
        <ele>1614</ele>
        <time>2016-02-06T13:51:28Z</time>
      </trkpt>
      <trkpt lat="45.60078" lon="6.66786">
        <ele>1592</ele>
        <time>2016-02-06T13:51:29Z</time>
      </trkpt>
      <trkpt lat="45.60072" lon="6.66783">
        <ele>1592</ele>
        <time>2016-02-06T13:51:30Z</time>
      </trkpt>
      <trkpt lat="45.60067" lon="6.66779">
        <ele>1592</ele>
        <time>2016-02-06T13:51:31Z</time>
      </trkpt>
      <trkpt lat="45.60061" lon="6.66776">
        <ele>1592</ele>
        <time>2016-02-06T13:51:32Z</time>
      </trkpt>
      <trkpt lat="45.60055" lon="6.66773">
        <ele>1591</ele>
        <time>2016-02-06T13:51:33Z</time>
      </trkpt>
      <trkpt lat="45.60049" lon="6.66772">
        <ele>1590</ele>
        <time>2016-02-06T13:51:34Z</time>
      </trkpt>
      <trkpt lat="45.60044" lon="6.6677">
        <ele>1588</ele>
        <time>2016-02-06T13:51:35Z</time>
      </trkpt>
      <trkpt lat="45.60037" lon="6.66766">
        <ele>1587</ele>
        <time>2016-02-06T13:51:36Z</time>
      </trkpt>
      <trkpt lat="45.6003" lon="6.66764">
        <ele>1586</ele>
        <time>2016-02-06T13:51:37Z</time>
      </trkpt>
      <trkpt lat="45.60022" lon="6.66761">
        <ele>1584</ele>
        <time>2016-02-06T13:51:38Z</time>
      </trkpt>
      <trkpt lat="45.60015" lon="6.6676">
        <ele>1583</ele>
        <time>2016-02-06T13:51:39Z</time>
      </trkpt>
      <trkpt lat="45.60007" lon="6.66757">
        <ele>1582</ele>
        <time>2016-02-06T13:51:40Z</time>
      </trkpt>
      <trkpt lat="45.60001" lon="6.66757">
        <ele>1582</ele>
        <time>2016-02-06T13:51:41Z</time>
      </trkpt>
      <trkpt lat="45.59995" lon="6.66757">
        <ele>1573</ele>
        <time>2016-02-06T13:51:42Z</time>
      </trkpt>
      <trkpt lat="45.59988" lon="6.66757">
        <ele>1569</ele>
        <time>2016-02-06T13:51:43Z</time>
      </trkpt>
      <trkpt lat="45.59984" lon="6.6676">
        <ele>1566</ele>
        <time>2016-02-06T13:51:44Z</time>
      </trkpt>
      <trkpt lat="45.59981" lon="6.66767">
        <ele>1563</ele>
        <time>2016-02-06T13:51:45Z</time>
      </trkpt>
      <trkpt lat="45.59977" lon="6.66772">
        <ele>1560</ele>
        <time>2016-02-06T13:51:46Z</time>
      </trkpt>
      <trkpt lat="45.59974" lon="6.66775">
        <ele>1559</ele>
        <time>2016-02-06T13:51:47Z</time>
      </trkpt>
      <trkpt lat="45.59971" lon="6.66782">
        <ele>1557</ele>
        <time>2016-02-06T13:51:48Z</time>
      </trkpt>
      <trkpt lat="45.59969" lon="6.66789">
        <ele>1555</ele>
        <time>2016-02-06T13:51:49Z</time>
      </trkpt>
      <trkpt lat="45.59968" lon="6.66796">
        <ele>1554</ele>
        <time>2016-02-06T13:51:50Z</time>
      </trkpt>
      <trkpt lat="45.59968" lon="6.66803">
        <ele>1553</ele>
        <time>2016-02-06T13:51:51Z</time>
      </trkpt>
      <trkpt lat="45.59967" lon="6.66807">
        <ele>1553</ele>
        <time>2016-02-06T13:51:52Z</time>
      </trkpt>
      <trkpt lat="45.59966" lon="6.66809">
        <ele>1552</ele>
        <time>2016-02-06T13:51:53Z</time>
      </trkpt>
      <trkpt lat="45.59965" lon="6.6681">
        <ele>1552</ele>
        <time>2016-02-06T13:51:54Z</time>
      </trkpt>
      <trkpt lat="45.59966" lon="6.6681">
        <ele>1552</ele>
        <time>2016-02-06T13:51:56Z</time>
      </trkpt>
      <trkpt lat="45.59968" lon="6.66809">
        <ele>1552</ele>
        <time>2016-02-06T13:52:01Z</time>
      </trkpt>
      <trkpt lat="45.59968" lon="6.66807">
        <ele>1553</ele>
        <time>2016-02-06T13:52:03Z</time>
      </trkpt>
      <trkpt lat="45.59967" lon="6.66806">
        <ele>1553</ele>
        <time>2016-02-06T13:52:05Z</time>
      </trkpt>
      <trkpt lat="45.59964" lon="6.66807">
        <ele>1552</ele>
        <time>2016-02-06T13:52:07Z</time>
      </trkpt>
      <trkpt lat="45.59961" lon="6.66808">
        <ele>1551</ele>
        <time>2016-02-06T13:52:08Z</time>
      </trkpt>
      <trkpt lat="45.5996" lon="6.66809">
        <ele>1551</ele>
        <time>2016-02-06T13:52:09Z</time>
      </trkpt>
      <trkpt lat="45.59958" lon="6.6681">
        <ele>1551</ele>
        <time>2016-02-06T13:52:10Z</time>
      </trkpt>
      <trkpt lat="45.59958" lon="6.66811">
        <ele>1550</ele>
        <time>2016-02-06T13:52:11Z</time>
      </trkpt>
      <trkpt lat="45.59957" lon="6.66812">
        <ele>1550</ele>
        <time>2016-02-06T13:52:12Z</time>
      </trkpt>
      <trkpt lat="45.59954" lon="6.66813">
        <ele>1549</ele>
        <time>2016-02-06T13:52:14Z</time>
      </trkpt>
      <trkpt lat="45.59952" lon="6.66813">
        <ele>1549</ele>
        <time>2016-02-06T13:52:15Z</time>
      </trkpt>
      <trkpt lat="45.5995" lon="6.66814">
        <ele>1548</ele>
        <time>2016-02-06T13:52:16Z</time>
      </trkpt>
      <trkpt lat="45.59948" lon="6.66813">
        <ele>1548</ele>
        <time>2016-02-06T13:52:17Z</time>
      </trkpt>
      <trkpt lat="45.59946" lon="6.66813">
        <ele>1547</ele>
        <time>2016-02-06T13:52:18Z</time>
      </trkpt>
      <trkpt lat="45.59948" lon="6.66814">
        <ele>1548</ele>
        <time>2016-02-06T13:52:20Z</time>
      </trkpt>
      <trkpt lat="45.59948" lon="6.66816">
        <ele>1547</ele>
        <time>2016-02-06T13:52:24Z</time>
      </trkpt>
      <trkpt lat="45.59949" lon="6.66818">
        <ele>1547</ele>
        <time>2016-02-06T13:52:26Z</time>
      </trkpt>
      <trkpt lat="45.59947" lon="6.66816">
        <ele>1547</ele>
        <time>2016-02-06T13:52:30Z</time>
      </trkpt>
      <trkpt lat="45.59946" lon="6.66815">
        <ele>1547</ele>
        <time>2016-02-06T13:52:31Z</time>
      </trkpt>
      <trkpt lat="45.59944" lon="6.66815">
        <ele>1546</ele>
        <time>2016-02-06T13:52:32Z</time>
      </trkpt>
      <trkpt lat="45.59941" lon="6.66815">
        <ele>1546</ele>
        <time>2016-02-06T13:52:33Z</time>
      </trkpt>
      <trkpt lat="45.59938" lon="6.66816">
        <ele>1545</ele>
        <time>2016-02-06T13:52:34Z</time>
      </trkpt>
      <trkpt lat="45.59934" lon="6.66817">
        <ele>1543</ele>
        <time>2016-02-06T13:52:35Z</time>
      </trkpt>
      <trkpt lat="45.59931" lon="6.66821">
        <ele>1541</ele>
        <time>2016-02-06T13:52:36Z</time>
      </trkpt>
      <trkpt lat="45.59929" lon="6.66823">
        <ele>1539</ele>
        <time>2016-02-06T13:52:37Z</time>
      </trkpt>
      <trkpt lat="45.59926" lon="6.66827">
        <ele>1537</ele>
        <time>2016-02-06T13:52:38Z</time>
      </trkpt>
      <trkpt lat="45.59924" lon="6.66832">
        <ele>1535</ele>
        <time>2016-02-06T13:52:39Z</time>
      </trkpt>
      <trkpt lat="45.59921" lon="6.66833">
        <ele>1532</ele>
        <time>2016-02-06T13:52:40Z</time>
      </trkpt>
      <trkpt lat="45.59919" lon="6.66835">
        <ele>1528</ele>
        <time>2016-02-06T13:52:41Z</time>
      </trkpt>
      <trkpt lat="45.59917" lon="6.66836">
        <ele>1528</ele>
        <time>2016-02-06T13:52:42Z</time>
      </trkpt>
      <trkpt lat="45.59915" lon="6.66836">
        <ele>1525</ele>
        <time>2016-02-06T13:52:43Z</time>
      </trkpt>
      <trkpt lat="45.59913" lon="6.66834">
        <ele>1525</ele>
        <time>2016-02-06T13:52:44Z</time>
      </trkpt>
      <trkpt lat="45.59909" lon="6.66831">
        <ele>1527</ele>
        <time>2016-02-06T13:52:45Z</time>
      </trkpt>
      <trkpt lat="45.59907" lon="6.66829">
        <ele>1526</ele>
        <time>2016-02-06T13:52:46Z</time>
      </trkpt>
      <trkpt lat="45.59904" lon="6.66826">
        <ele>1526</ele>
        <time>2016-02-06T13:52:47Z</time>
      </trkpt>
      <trkpt lat="45.59901" lon="6.66826">
        <ele>1526</ele>
        <time>2016-02-06T13:52:48Z</time>
      </trkpt>
      <trkpt lat="45.59899" lon="6.66825">
        <ele>1525</ele>
        <time>2016-02-06T13:52:49Z</time>
      </trkpt>
      <trkpt lat="45.59897" lon="6.66824">
        <ele>1525</ele>
        <time>2016-02-06T13:52:50Z</time>
      </trkpt>
      <trkpt lat="45.59894" lon="6.66822">
        <ele>1525</ele>
        <time>2016-02-06T13:52:51Z</time>
      </trkpt>
      <trkpt lat="45.59893" lon="6.66821">
        <ele>1524</ele>
        <time>2016-02-06T13:52:52Z</time>
      </trkpt>
      <trkpt lat="45.59891" lon="6.66821">
        <ele>1524</ele>
        <time>2016-02-06T13:52:53Z</time>
      </trkpt>
      <trkpt lat="45.59888" lon="6.66819">
        <ele>1524</ele>
        <time>2016-02-06T13:52:54Z</time>
      </trkpt>
      <trkpt lat="45.59886" lon="6.66818">
        <ele>1523</ele>
        <time>2016-02-06T13:52:55Z</time>
      </trkpt>
      <trkpt lat="45.59882" lon="6.66815">
        <ele>1523</ele>
        <time>2016-02-06T13:52:56Z</time>
      </trkpt>
      <trkpt lat="45.59877" lon="6.6681">
        <ele>1522</ele>
        <time>2016-02-06T13:52:57Z</time>
      </trkpt>
      <trkpt lat="45.59871" lon="6.66808">
        <ele>1521</ele>
        <time>2016-02-06T13:52:58Z</time>
      </trkpt>
      <trkpt lat="45.59869" lon="6.66812">
        <ele>1521</ele>
        <time>2016-02-06T13:52:59Z</time>
      </trkpt>
      <trkpt lat="45.59866" lon="6.66815">
        <ele>1520</ele>
        <time>2016-02-06T13:53:00Z</time>
      </trkpt>
      <trkpt lat="45.59867" lon="6.66819">
        <ele>1519</ele>
        <time>2016-02-06T13:53:01Z</time>
      </trkpt>
      <trkpt lat="45.59866" lon="6.66824">
        <ele>1519</ele>
        <time>2016-02-06T13:53:02Z</time>
      </trkpt>
      <trkpt lat="45.59864" lon="6.66828">
        <ele>1518</ele>
        <time>2016-02-06T13:53:03Z</time>
      </trkpt>
      <trkpt lat="45.59861" lon="6.66833">
        <ele>1517</ele>
        <time>2016-02-06T13:53:04Z</time>
      </trkpt>
      <trkpt lat="45.59858" lon="6.6684">
        <ele>1506</ele>
        <time>2016-02-06T13:53:05Z</time>
      </trkpt>
      <trkpt lat="45.59853" lon="6.66848">
        <ele>1505</ele>
        <time>2016-02-06T13:53:06Z</time>
      </trkpt>
      <trkpt lat="45.59853" lon="6.66853">
        <ele>1505</ele>
        <time>2016-02-06T13:53:07Z</time>
      </trkpt>
      <trkpt lat="45.59855" lon="6.66854">
        <ele>1505</ele>
        <time>2016-02-06T13:53:09Z</time>
      </trkpt>
      <trkpt lat="45.59853" lon="6.66853">
        <ele>1505</ele>
        <time>2016-02-06T13:53:10Z</time>
      </trkpt>
      <trkpt lat="45.59854" lon="6.66854">
        <ele>1505</ele>
        <time>2016-02-06T13:53:12Z</time>
      </trkpt>
      <trkpt lat="45.59856" lon="6.66852">
        <ele>1506</ele>
        <time>2016-02-06T13:53:13Z</time>
      </trkpt>
      <trkpt lat="45.59858" lon="6.66851">
        <ele>1506</ele>
        <time>2016-02-06T13:53:14Z</time>
      </trkpt>
      <trkpt lat="45.59856" lon="6.66851">
        <ele>1506</ele>
        <time>2016-02-06T13:53:15Z</time>
      </trkpt>
      <trkpt lat="45.59855" lon="6.66852">
        <ele>1506</ele>
        <time>2016-02-06T13:53:16Z</time>
      </trkpt>
      <trkpt lat="45.59855" lon="6.66854">
        <ele>1505</ele>
        <time>2016-02-06T13:53:17Z</time>
      </trkpt>
      <trkpt lat="45.59855" lon="6.66857">
        <ele>1505</ele>
        <time>2016-02-06T13:53:18Z</time>
      </trkpt>
      <trkpt lat="45.59854" lon="6.6686">
        <ele>1505</ele>
        <time>2016-02-06T13:53:19Z</time>
      </trkpt>
      <trkpt lat="45.59855" lon="6.66861">
        <ele>1505</ele>
        <time>2016-02-06T13:53:22Z</time>
      </trkpt>
      <trkpt lat="45.59856" lon="6.66863">
        <ele>1505</ele>
        <time>2016-02-06T13:53:23Z</time>
      </trkpt>
      <trkpt lat="45.59856" lon="6.66868">
        <ele>1505</ele>
        <time>2016-02-06T13:53:25Z</time>
      </trkpt>
      <trkpt lat="45.59853" lon="6.66872">
        <ele>1504</ele>
        <time>2016-02-06T13:53:26Z</time>
      </trkpt>
      <trkpt lat="45.59851" lon="6.66874">
        <ele>1504</ele>
        <time>2016-02-06T13:53:27Z</time>
      </trkpt>
      <trkpt lat="45.59853" lon="6.66872">
        <ele>1504</ele>
        <time>2016-02-06T13:53:30Z</time>
      </trkpt>
      <trkpt lat="45.59855" lon="6.66874">
        <ele>1504</ele>
        <time>2016-02-06T13:53:38Z</time>
      </trkpt>
      <trkpt lat="45.59857" lon="6.66873">
        <ele>1504</ele>
        <time>2016-02-06T13:53:40Z</time>
      </trkpt>
      <trkpt lat="45.59859" lon="6.66873">
        <ele>1505</ele>
        <time>2016-02-06T13:53:41Z</time>
      </trkpt>
      <trkpt lat="45.59861" lon="6.66875">
        <ele>1505</ele>
        <time>2016-02-06T13:53:42Z</time>
      </trkpt>
      <trkpt lat="45.59863" lon="6.66875">
        <ele>1505</ele>
        <time>2016-02-06T13:53:43Z</time>
      </trkpt>
      <trkpt lat="45.59866" lon="6.66876">
        <ele>1505</ele>
        <time>2016-02-06T13:53:44Z</time>
      </trkpt>
      <trkpt lat="45.59866" lon="6.66875">
        <ele>1505</ele>
        <time>2016-02-06T13:53:47Z</time>
      </trkpt>
      <trkpt lat="45.59865" lon="6.66873">
        <ele>1505</ele>
        <time>2016-02-06T13:53:49Z</time>
      </trkpt>
      <trkpt lat="45.59864" lon="6.66873">
        <ele>1505</ele>
        <time>2016-02-06T13:53:50Z</time>
      </trkpt>
      <trkpt lat="45.59863" lon="6.66873">
        <ele>1505</ele>
        <time>2016-02-06T13:53:51Z</time>
      </trkpt>
      <trkpt lat="45.59861" lon="6.66873">
        <ele>1505</ele>
        <time>2016-02-06T13:53:52Z</time>
      </trkpt>
      <trkpt lat="45.59858" lon="6.66872">
        <ele>1505</ele>
        <time>2016-02-06T13:53:53Z</time>
      </trkpt>
      <trkpt lat="45.59855" lon="6.66875">
        <ele>1504</ele>
        <time>2016-02-06T13:53:54Z</time>
      </trkpt>
      <trkpt lat="45.59851" lon="6.66879">
        <ele>1503</ele>
        <time>2016-02-06T13:53:55Z</time>
      </trkpt>
      <trkpt lat="45.59848" lon="6.66884">
        <ele>1502</ele>
        <time>2016-02-06T13:53:56Z</time>
      </trkpt>
      <trkpt lat="45.59846" lon="6.66891">
        <ele>1500</ele>
        <time>2016-02-06T13:53:57Z</time>
      </trkpt>
      <trkpt lat="45.59845" lon="6.66899">
        <ele>1498</ele>
        <time>2016-02-06T13:53:58Z</time>
      </trkpt>
      <trkpt lat="45.59841" lon="6.66906">
        <ele>1495</ele>
        <time>2016-02-06T13:53:59Z</time>
      </trkpt>
      <trkpt lat="45.59838" lon="6.6691">
        <ele>1493</ele>
        <time>2016-02-06T13:54:00Z</time>
      </trkpt>
      <trkpt lat="45.59835" lon="6.66915">
        <ele>1490</ele>
        <time>2016-02-06T13:54:01Z</time>
      </trkpt>
      <trkpt lat="45.59833" lon="6.66921">
        <ele>1486</ele>
        <time>2016-02-06T13:54:02Z</time>
      </trkpt>
      <trkpt lat="45.5983" lon="6.66926">
        <ele>1483</ele>
        <time>2016-02-06T13:54:03Z</time>
      </trkpt>
      <trkpt lat="45.5983" lon="6.66931">
        <ele>1482</ele>
        <time>2016-02-06T13:54:04Z</time>
      </trkpt>
      <trkpt lat="45.59828" lon="6.66932">
        <ele>1481</ele>
        <time>2016-02-06T13:54:05Z</time>
      </trkpt>
      <trkpt lat="45.59826" lon="6.66934">
        <ele>1480</ele>
        <time>2016-02-06T13:54:07Z</time>
      </trkpt>
      <trkpt lat="45.59825" lon="6.66935">
        <ele>1480</ele>
        <time>2016-02-06T13:54:08Z</time>
      </trkpt>
      <trkpt lat="45.59824" lon="6.66938">
        <ele>1479</ele>
        <time>2016-02-06T13:54:11Z</time>
      </trkpt>
      <trkpt lat="45.59825" lon="6.66938">
        <ele>1479</ele>
        <time>2016-02-06T13:54:14Z</time>
      </trkpt>
      <trkpt lat="45.59824" lon="6.66941">
        <ele>1479</ele>
        <time>2016-02-06T13:54:15Z</time>
      </trkpt>
      <trkpt lat="45.59821" lon="6.66942">
        <ele>1478</ele>
        <time>2016-02-06T13:54:16Z</time>
      </trkpt>
      <trkpt lat="45.59817" lon="6.66942">
        <ele>1478</ele>
        <time>2016-02-06T13:54:17Z</time>
      </trkpt>
      <trkpt lat="45.59814" lon="6.66942">
        <ele>1478</ele>
        <time>2016-02-06T13:54:18Z</time>
      </trkpt>
      <trkpt lat="45.59813" lon="6.66944">
        <ele>1477</ele>
        <time>2016-02-06T13:54:19Z</time>
      </trkpt>
      <trkpt lat="45.59811" lon="6.66945">
        <ele>1477</ele>
        <time>2016-02-06T13:54:20Z</time>
      </trkpt>
      <trkpt lat="45.59807" lon="6.66945">
        <ele>1476</ele>
        <time>2016-02-06T13:54:21Z</time>
      </trkpt>
      <trkpt lat="45.59805" lon="6.66948">
        <ele>1476</ele>
        <time>2016-02-06T13:54:22Z</time>
      </trkpt>
      <trkpt lat="45.59802" lon="6.6695">
        <ele>1476</ele>
        <time>2016-02-06T13:54:23Z</time>
      </trkpt>
      <trkpt lat="45.59799" lon="6.6695">
        <ele>1475</ele>
        <time>2016-02-06T13:54:24Z</time>
      </trkpt>
      <trkpt lat="45.59795" lon="6.6695">
        <ele>1475</ele>
        <time>2016-02-06T13:54:25Z</time>
      </trkpt>
      <trkpt lat="45.59792" lon="6.66952">
        <ele>1475</ele>
        <time>2016-02-06T13:54:26Z</time>
      </trkpt>
      <trkpt lat="45.59788" lon="6.66954">
        <ele>1474</ele>
        <time>2016-02-06T13:54:27Z</time>
      </trkpt>
      <trkpt lat="45.59785" lon="6.66955">
        <ele>1474</ele>
        <time>2016-02-06T13:54:28Z</time>
      </trkpt>
      <trkpt lat="45.5978" lon="6.66956">
        <ele>1473</ele>
        <time>2016-02-06T13:54:29Z</time>
      </trkpt>
      <trkpt lat="45.59777" lon="6.66958">
        <ele>1473</ele>
        <time>2016-02-06T13:54:30Z</time>
      </trkpt>
      <trkpt lat="45.59773" lon="6.66959">
        <ele>1473</ele>
        <time>2016-02-06T13:54:31Z</time>
      </trkpt>
      <trkpt lat="45.59769" lon="6.66961">
        <ele>1472</ele>
        <time>2016-02-06T13:54:32Z</time>
      </trkpt>
      <trkpt lat="45.59766" lon="6.66962">
        <ele>1472</ele>
        <time>2016-02-06T13:54:33Z</time>
      </trkpt>
      <trkpt lat="45.59762" lon="6.66963">
        <ele>1472</ele>
        <time>2016-02-06T13:54:34Z</time>
      </trkpt>
      <trkpt lat="45.59756" lon="6.66961">
        <ele>1472</ele>
        <time>2016-02-06T13:54:35Z</time>
      </trkpt>
      <trkpt lat="45.59752" lon="6.66958">
        <ele>1472</ele>
        <time>2016-02-06T13:54:36Z</time>
      </trkpt>
      <trkpt lat="45.59752" lon="6.66952">
        <ele>1473</ele>
        <time>2016-02-06T13:54:37Z</time>
      </trkpt>
      <trkpt lat="45.59752" lon="6.66946">
        <ele>1473</ele>
        <time>2016-02-06T13:54:38Z</time>
      </trkpt>
      <trkpt lat="45.59749" lon="6.66942">
        <ele>1465</ele>
        <time>2016-02-06T13:54:39Z</time>
      </trkpt>
      <trkpt lat="45.59749" lon="6.66936">
        <ele>1466</ele>
        <time>2016-02-06T13:54:40Z</time>
      </trkpt>
      <trkpt lat="45.59749" lon="6.66926">
        <ele>1469</ele>
        <time>2016-02-06T13:54:41Z</time>
      </trkpt>
      <trkpt lat="45.59748" lon="6.66919">
        <ele>1472</ele>
        <time>2016-02-06T13:54:42Z</time>
      </trkpt>
      <trkpt lat="45.59747" lon="6.66905">
        <ele>1471</ele>
        <time>2016-02-06T13:54:43Z</time>
      </trkpt>
      <trkpt lat="45.59745" lon="6.66895">
        <ele>1469</ele>
        <time>2016-02-06T13:54:44Z</time>
      </trkpt>
      <trkpt lat="45.59746" lon="6.66887">
        <ele>1469</ele>
        <time>2016-02-06T13:54:45Z</time>
      </trkpt>
      <trkpt lat="45.59747" lon="6.66876">
        <ele>1469</ele>
        <time>2016-02-06T13:54:46Z</time>
      </trkpt>
      <trkpt lat="45.59745" lon="6.66866">
        <ele>1469</ele>
        <time>2016-02-06T13:54:47Z</time>
      </trkpt>
      <trkpt lat="45.59745" lon="6.66856">
        <ele>1470</ele>
        <time>2016-02-06T13:54:48Z</time>
      </trkpt>
      <trkpt lat="45.59745" lon="6.66846">
        <ele>1472</ele>
        <time>2016-02-06T13:54:49Z</time>
      </trkpt>
      <trkpt lat="45.59743" lon="6.66835">
        <ele>1474</ele>
        <time>2016-02-06T13:54:50Z</time>
      </trkpt>
      <trkpt lat="45.59739" lon="6.66824">
        <ele>1476</ele>
        <time>2016-02-06T13:54:51Z</time>
      </trkpt>
      <trkpt lat="45.59733" lon="6.66813">
        <ele>1477</ele>
        <time>2016-02-06T13:54:52Z</time>
      </trkpt>
      <trkpt lat="45.59724" lon="6.66802">
        <ele>1477</ele>
        <time>2016-02-06T13:54:53Z</time>
      </trkpt>
      <trkpt lat="45.59715" lon="6.66796">
        <ele>1476</ele>
        <time>2016-02-06T13:54:54Z</time>
      </trkpt>
      <trkpt lat="45.59712" lon="6.66793">
        <ele>1476</ele>
        <time>2016-02-06T13:54:55Z</time>
      </trkpt>
      <trkpt lat="45.5971" lon="6.6679">
        <ele>1476</ele>
        <time>2016-02-06T13:54:56Z</time>
      </trkpt>
      <trkpt lat="45.59706" lon="6.66788">
        <ele>1476</ele>
        <time>2016-02-06T13:54:59Z</time>
      </trkpt>
      <trkpt lat="45.59702" lon="6.66783">
        <ele>1476</ele>
        <time>2016-02-06T13:55:00Z</time>
      </trkpt>
      <trkpt lat="45.59697" lon="6.6678">
        <ele>1476</ele>
        <time>2016-02-06T13:55:01Z</time>
      </trkpt>
      <trkpt lat="45.59689" lon="6.66773">
        <ele>1476</ele>
        <time>2016-02-06T13:55:02Z</time>
      </trkpt>
      <trkpt lat="45.59684" lon="6.6677">
        <ele>1475</ele>
        <time>2016-02-06T13:55:03Z</time>
      </trkpt>
      <trkpt lat="45.59679" lon="6.66766">
        <ele>1475</ele>
        <time>2016-02-06T13:55:04Z</time>
      </trkpt>
      <trkpt lat="45.59673" lon="6.66764">
        <ele>1475</ele>
        <time>2016-02-06T13:55:05Z</time>
      </trkpt>
      <trkpt lat="45.59668" lon="6.6676">
        <ele>1475</ele>
        <time>2016-02-06T13:55:06Z</time>
      </trkpt>
      <trkpt lat="45.59664" lon="6.6676">
        <ele>1471</ele>
        <time>2016-02-06T13:55:07Z</time>
      </trkpt>
      <trkpt lat="45.5966" lon="6.66759">
        <ele>1471</ele>
        <time>2016-02-06T13:55:08Z</time>
      </trkpt>
      <trkpt lat="45.59655" lon="6.66758">
        <ele>1470</ele>
        <time>2016-02-06T13:55:09Z</time>
      </trkpt>
      <trkpt lat="45.59652" lon="6.66759">
        <ele>1469</ele>
        <time>2016-02-06T13:55:10Z</time>
      </trkpt>
      <trkpt lat="45.59645" lon="6.66762">
        <ele>1468</ele>
        <time>2016-02-06T13:55:11Z</time>
      </trkpt>
      <trkpt lat="45.59639" lon="6.66764">
        <ele>1467</ele>
        <time>2016-02-06T13:55:12Z</time>
      </trkpt>
      <trkpt lat="45.59631" lon="6.66765">
        <ele>1466</ele>
        <time>2016-02-06T13:55:13Z</time>
      </trkpt>
      <trkpt lat="45.59623" lon="6.66766">
        <ele>1466</ele>
        <time>2016-02-06T13:55:14Z</time>
      </trkpt>
      <trkpt lat="45.59615" lon="6.66767">
        <ele>1465</ele>
        <time>2016-02-06T13:55:15Z</time>
      </trkpt>
      <trkpt lat="45.59606" lon="6.66767">
        <ele>1466</ele>
        <time>2016-02-06T13:55:16Z</time>
      </trkpt>
      <trkpt lat="45.59598" lon="6.66769">
        <ele>1466</ele>
        <time>2016-02-06T13:55:17Z</time>
      </trkpt>
      <trkpt lat="45.59592" lon="6.66772">
        <ele>1466</ele>
        <time>2016-02-06T13:55:18Z</time>
      </trkpt>
      <trkpt lat="45.59586" lon="6.6678">
        <ele>1464</ele>
        <time>2016-02-06T13:55:19Z</time>
      </trkpt>
      <trkpt lat="45.59585" lon="6.6679">
        <ele>1462</ele>
        <time>2016-02-06T13:55:20Z</time>
      </trkpt>
      <trkpt lat="45.59587" lon="6.66795">
        <ele>1461</ele>
        <time>2016-02-06T13:55:21Z</time>
      </trkpt>
      <trkpt lat="45.5959" lon="6.66801">
        <ele>1459</ele>
        <time>2016-02-06T13:55:22Z</time>
      </trkpt>
      <trkpt lat="45.59594" lon="6.66806">
        <ele>1458</ele>
        <time>2016-02-06T13:55:23Z</time>
      </trkpt>
      <trkpt lat="45.59599" lon="6.66811">
        <ele>1458</ele>
        <time>2016-02-06T13:55:24Z</time>
      </trkpt>
      <trkpt lat="45.59605" lon="6.66815">
        <ele>1458</ele>
        <time>2016-02-06T13:55:25Z</time>
      </trkpt>
      <trkpt lat="45.5961" lon="6.6682">
        <ele>1458</ele>
        <time>2016-02-06T13:55:26Z</time>
      </trkpt>
      <trkpt lat="45.59615" lon="6.66824">
        <ele>1458</ele>
        <time>2016-02-06T13:55:27Z</time>
      </trkpt>
      <trkpt lat="45.59619" lon="6.6683">
        <ele>1458</ele>
        <time>2016-02-06T13:55:28Z</time>
      </trkpt>
      <trkpt lat="45.59623" lon="6.66835">
        <ele>1448</ele>
        <time>2016-02-06T13:55:29Z</time>
      </trkpt>
      <trkpt lat="45.59627" lon="6.66839">
        <ele>1448</ele>
        <time>2016-02-06T13:55:30Z</time>
      </trkpt>
      <trkpt lat="45.59631" lon="6.66841">
        <ele>1449</ele>
        <time>2016-02-06T13:55:31Z</time>
      </trkpt>
      <trkpt lat="45.59633" lon="6.66846">
        <ele>1449</ele>
        <time>2016-02-06T13:55:32Z</time>
      </trkpt>
      <trkpt lat="45.59634" lon="6.66854">
        <ele>1449</ele>
        <time>2016-02-06T13:55:33Z</time>
      </trkpt>
      <trkpt lat="45.59634" lon="6.66862">
        <ele>1448</ele>
        <time>2016-02-06T13:55:34Z</time>
      </trkpt>
      <trkpt lat="45.59632" lon="6.66871">
        <ele>1447</ele>
        <time>2016-02-06T13:55:35Z</time>
      </trkpt>
      <trkpt lat="45.59632" lon="6.66881">
        <ele>1447</ele>
        <time>2016-02-06T13:55:36Z</time>
      </trkpt>
      <trkpt lat="45.59634" lon="6.66887">
        <ele>1447</ele>
        <time>2016-02-06T13:55:37Z</time>
      </trkpt>
      <trkpt lat="45.59635" lon="6.66897">
        <ele>1447</ele>
        <time>2016-02-06T13:55:38Z</time>
      </trkpt>
      <trkpt lat="45.59636" lon="6.66904">
        <ele>1447</ele>
        <time>2016-02-06T13:55:39Z</time>
      </trkpt>
      <trkpt lat="45.59635" lon="6.66914">
        <ele>1447</ele>
        <time>2016-02-06T13:55:40Z</time>
      </trkpt>
      <trkpt lat="45.59634" lon="6.66921">
        <ele>1442</ele>
        <time>2016-02-06T13:55:41Z</time>
      </trkpt>
      <trkpt lat="45.59634" lon="6.66929">
        <ele>1442</ele>
        <time>2016-02-06T13:55:42Z</time>
      </trkpt>
      <trkpt lat="45.59633" lon="6.66936">
        <ele>1441</ele>
        <time>2016-02-06T13:55:43Z</time>
      </trkpt>
      <trkpt lat="45.59632" lon="6.66949">
        <ele>1441</ele>
        <time>2016-02-06T13:55:44Z</time>
      </trkpt>
      <trkpt lat="45.59629" lon="6.66961">
        <ele>1440</ele>
        <time>2016-02-06T13:55:45Z</time>
      </trkpt>
      <trkpt lat="45.59629" lon="6.66972">
        <ele>1440</ele>
        <time>2016-02-06T13:55:46Z</time>
      </trkpt>
      <trkpt lat="45.59629" lon="6.6698">
        <ele>1440</ele>
        <time>2016-02-06T13:55:47Z</time>
      </trkpt>
      <trkpt lat="45.59628" lon="6.66992">
        <ele>1439</ele>
        <time>2016-02-06T13:55:48Z</time>
      </trkpt>
      <trkpt lat="45.59628" lon="6.67001">
        <ele>1446</ele>
        <time>2016-02-06T13:55:49Z</time>
      </trkpt>
      <trkpt lat="45.59626" lon="6.67011">
        <ele>1447</ele>
        <time>2016-02-06T13:55:50Z</time>
      </trkpt>
      <trkpt lat="45.59624" lon="6.67017">
        <ele>1447</ele>
        <time>2016-02-06T13:55:51Z</time>
      </trkpt>
      <trkpt lat="45.59622" lon="6.67022">
        <ele>1448</ele>
        <time>2016-02-06T13:55:52Z</time>
      </trkpt>
      <trkpt lat="45.5962" lon="6.67031">
        <ele>1449</ele>
        <time>2016-02-06T13:55:55Z</time>
      </trkpt>
      <trkpt lat="45.59621" lon="6.67032">
        <ele>1450</ele>
        <time>2016-02-06T13:55:56Z</time>
      </trkpt>
      <trkpt lat="45.5962" lon="6.67033">
        <ele>1450</ele>
        <time>2016-02-06T13:55:57Z</time>
      </trkpt>
      <trkpt lat="45.59616" lon="6.67029">
        <ele>1449</ele>
        <time>2016-02-06T13:55:58Z</time>
      </trkpt>
      <trkpt lat="45.59612" lon="6.67023">
        <ele>1447</ele>
        <time>2016-02-06T13:55:59Z</time>
      </trkpt>
      <trkpt lat="45.5961" lon="6.67024">
        <ele>1447</ele>
        <time>2016-02-06T13:56:00Z</time>
      </trkpt>
      <trkpt lat="45.59609" lon="6.67025">
        <ele>1447</ele>
        <time>2016-02-06T13:56:01Z</time>
      </trkpt>
      <trkpt lat="45.59607" lon="6.67027">
        <ele>1447</ele>
        <time>2016-02-06T13:56:02Z</time>
      </trkpt>
      <trkpt lat="45.59604" lon="6.6703">
        <ele>1448</ele>
        <time>2016-02-06T13:56:03Z</time>
      </trkpt>
      <trkpt lat="45.59602" lon="6.67031">
        <ele>1448</ele>
        <time>2016-02-06T13:56:04Z</time>
      </trkpt>
      <trkpt lat="45.59599" lon="6.67031">
        <ele>1448</ele>
        <time>2016-02-06T13:56:05Z</time>
      </trkpt>
      <trkpt lat="45.59595" lon="6.67032">
        <ele>1448</ele>
        <time>2016-02-06T13:56:06Z</time>
      </trkpt>
      <trkpt lat="45.5959" lon="6.67032">
        <ele>1448</ele>
        <time>2016-02-06T13:56:07Z</time>
      </trkpt>
      <trkpt lat="45.59588" lon="6.67033">
        <ele>1448</ele>
        <time>2016-02-06T13:56:08Z</time>
      </trkpt>
      <trkpt lat="45.59584" lon="6.67032">
        <ele>1447</ele>
        <time>2016-02-06T13:56:09Z</time>
      </trkpt>
      <trkpt lat="45.5958" lon="6.67032">
        <ele>1441</ele>
        <time>2016-02-06T13:56:10Z</time>
      </trkpt>
      <trkpt lat="45.59577" lon="6.67031">
        <ele>1441</ele>
        <time>2016-02-06T13:56:11Z</time>
      </trkpt>
      <trkpt lat="45.59574" lon="6.67031">
        <ele>1441</ele>
        <time>2016-02-06T13:56:12Z</time>
      </trkpt>
      <trkpt lat="45.59571" lon="6.6703">
        <ele>1441</ele>
        <time>2016-02-06T13:56:13Z</time>
      </trkpt>
      <trkpt lat="45.59569" lon="6.6703">
        <ele>1440</ele>
        <time>2016-02-06T13:56:14Z</time>
      </trkpt>
      <trkpt lat="45.59567" lon="6.67029">
        <ele>1440</ele>
        <time>2016-02-06T13:56:15Z</time>
      </trkpt>
      <trkpt lat="45.59564" lon="6.67029">
        <ele>1440</ele>
        <time>2016-02-06T13:56:16Z</time>
      </trkpt>
      <trkpt lat="45.59562" lon="6.6703">
        <ele>1440</ele>
        <time>2016-02-06T13:56:17Z</time>
      </trkpt>
      <trkpt lat="45.5956" lon="6.67031">
        <ele>1440</ele>
        <time>2016-02-06T13:56:18Z</time>
      </trkpt>
      <trkpt lat="45.59558" lon="6.67034">
        <ele>1441</ele>
        <time>2016-02-06T13:56:19Z</time>
      </trkpt>
      <trkpt lat="45.59552" lon="6.67032">
        <ele>1440</ele>
        <time>2016-02-06T13:56:20Z</time>
      </trkpt>
      <trkpt lat="45.59548" lon="6.67032">
        <ele>1440</ele>
        <time>2016-02-06T13:56:21Z</time>
      </trkpt>
      <trkpt lat="45.59543" lon="6.67034">
        <ele>1440</ele>
        <time>2016-02-06T13:56:22Z</time>
      </trkpt>
      <trkpt lat="45.5954" lon="6.67037">
        <ele>1440</ele>
        <time>2016-02-06T13:56:23Z</time>
      </trkpt>
      <trkpt lat="45.59538" lon="6.6704">
        <ele>1441</ele>
        <time>2016-02-06T13:56:24Z</time>
      </trkpt>
      <trkpt lat="45.59533" lon="6.67042">
        <ele>1441</ele>
        <time>2016-02-06T13:56:25Z</time>
      </trkpt>
      <trkpt lat="45.5953" lon="6.67044">
        <ele>1441</ele>
        <time>2016-02-06T13:56:26Z</time>
      </trkpt>
      <trkpt lat="45.59527" lon="6.67046">
        <ele>1441</ele>
        <time>2016-02-06T13:56:27Z</time>
      </trkpt>
      <trkpt lat="45.59524" lon="6.6705">
        <ele>1441</ele>
        <time>2016-02-06T13:56:28Z</time>
      </trkpt>
      <trkpt lat="45.59522" lon="6.67053">
        <ele>1442</ele>
        <time>2016-02-06T13:56:29Z</time>
      </trkpt>
      <trkpt lat="45.5952" lon="6.67057">
        <ele>1443</ele>
        <time>2016-02-06T13:56:30Z</time>
      </trkpt>
      <trkpt lat="45.59518" lon="6.67061">
        <ele>1443</ele>
        <time>2016-02-06T13:56:31Z</time>
      </trkpt>
      <trkpt lat="45.59516" lon="6.67064">
        <ele>1444</ele>
        <time>2016-02-06T13:56:32Z</time>
      </trkpt>
      <trkpt lat="45.59514" lon="6.67067">
        <ele>1445</ele>
        <time>2016-02-06T13:56:33Z</time>
      </trkpt>
      <trkpt lat="45.59512" lon="6.6707">
        <ele>1445</ele>
        <time>2016-02-06T13:56:34Z</time>
      </trkpt>
      <trkpt lat="45.59509" lon="6.67073">
        <ele>1446</ele>
        <time>2016-02-06T13:56:35Z</time>
      </trkpt>
      <trkpt lat="45.59506" lon="6.67074">
        <ele>1446</ele>
        <time>2016-02-06T13:56:36Z</time>
      </trkpt>
      <trkpt lat="45.59503" lon="6.67075">
        <ele>1447</ele>
        <time>2016-02-06T13:56:37Z</time>
      </trkpt>
      <trkpt lat="45.59499" lon="6.67075">
        <ele>1442</ele>
        <time>2016-02-06T13:56:38Z</time>
      </trkpt>
      <trkpt lat="45.59494" lon="6.67074">
        <ele>1440</ele>
        <time>2016-02-06T13:56:39Z</time>
      </trkpt>
      <trkpt lat="45.5949" lon="6.67072">
        <ele>1438</ele>
        <time>2016-02-06T13:56:40Z</time>
      </trkpt>
      <trkpt lat="45.59486" lon="6.6707">
        <ele>1436</ele>
        <time>2016-02-06T13:56:41Z</time>
      </trkpt>
      <trkpt lat="45.59482" lon="6.67069">
        <ele>1434</ele>
        <time>2016-02-06T13:56:42Z</time>
      </trkpt>
      <trkpt lat="45.59478" lon="6.67068">
        <ele>1433</ele>
        <time>2016-02-06T13:56:43Z</time>
      </trkpt>
      <trkpt lat="45.59472" lon="6.67066">
        <ele>1431</ele>
        <time>2016-02-06T13:56:44Z</time>
      </trkpt>
      <trkpt lat="45.59468" lon="6.67066">
        <ele>1430</ele>
        <time>2016-02-06T13:56:45Z</time>
      </trkpt>
      <trkpt lat="45.59463" lon="6.67066">
        <ele>1429</ele>
        <time>2016-02-06T13:56:46Z</time>
      </trkpt>
      <trkpt lat="45.59458" lon="6.67065">
        <ele>1428</ele>
        <time>2016-02-06T13:56:47Z</time>
      </trkpt>
      <trkpt lat="45.59454" lon="6.67065">
        <ele>1428</ele>
        <time>2016-02-06T13:56:48Z</time>
      </trkpt>
      <trkpt lat="45.59449" lon="6.67066">
        <ele>1427</ele>
        <time>2016-02-06T13:56:49Z</time>
      </trkpt>
      <trkpt lat="45.59444" lon="6.67066">
        <ele>1427</ele>
        <time>2016-02-06T13:56:50Z</time>
      </trkpt>
      <trkpt lat="45.5944" lon="6.67067">
        <ele>1427</ele>
        <time>2016-02-06T13:56:51Z</time>
      </trkpt>
      <trkpt lat="45.59436" lon="6.67068">
        <ele>1427</ele>
        <time>2016-02-06T13:56:52Z</time>
      </trkpt>
      <trkpt lat="45.5943" lon="6.67069">
        <ele>1427</ele>
        <time>2016-02-06T13:56:53Z</time>
      </trkpt>
      <trkpt lat="45.59426" lon="6.67069">
        <ele>1427</ele>
        <time>2016-02-06T13:56:54Z</time>
      </trkpt>
      <trkpt lat="45.59418" lon="6.67066">
        <ele>1426</ele>
        <time>2016-02-06T13:56:55Z</time>
      </trkpt>
      <trkpt lat="45.5941" lon="6.67063">
        <ele>1418</ele>
        <time>2016-02-06T13:56:56Z</time>
      </trkpt>
      <trkpt lat="45.59402" lon="6.6706">
        <ele>1416</ele>
        <time>2016-02-06T13:56:57Z</time>
      </trkpt>
      <trkpt lat="45.59395" lon="6.67058">
        <ele>1415</ele>
        <time>2016-02-06T13:56:58Z</time>
      </trkpt>
      <trkpt lat="45.59389" lon="6.67058">
        <ele>1414</ele>
        <time>2016-02-06T13:56:59Z</time>
      </trkpt>
      <trkpt lat="45.59383" lon="6.67059">
        <ele>1413</ele>
        <time>2016-02-06T13:57:00Z</time>
      </trkpt>
      <trkpt lat="45.59379" lon="6.67061">
        <ele>1414</ele>
        <time>2016-02-06T13:57:01Z</time>
      </trkpt>
      <trkpt lat="45.59379" lon="6.67065">
        <ele>1414</ele>
        <time>2016-02-06T13:57:02Z</time>
      </trkpt>
      <trkpt lat="45.59379" lon="6.67068">
        <ele>1415</ele>
        <time>2016-02-06T13:57:03Z</time>
      </trkpt>
      <trkpt lat="45.59381" lon="6.67071">
        <ele>1415</ele>
        <time>2016-02-06T13:57:04Z</time>
      </trkpt>
      <trkpt lat="45.59382" lon="6.67075">
        <ele>1416</ele>
        <time>2016-02-06T13:57:05Z</time>
      </trkpt>
      <trkpt lat="45.59382" lon="6.67078">
        <ele>1416</ele>
        <time>2016-02-06T13:57:06Z</time>
      </trkpt>
      <trkpt lat="45.59383" lon="6.67079">
        <ele>1416</ele>
        <time>2016-02-06T13:57:09Z</time>
      </trkpt>
      <trkpt lat="45.59382" lon="6.6708">
        <ele>1416</ele>
        <time>2016-02-06T13:57:11Z</time>
      </trkpt>
      <trkpt lat="45.59381" lon="6.67082">
        <ele>1416</ele>
        <time>2016-02-06T13:57:13Z</time>
      </trkpt>
      <trkpt lat="45.59379" lon="6.67083">
        <ele>1416</ele>
        <time>2016-02-06T13:57:15Z</time>
      </trkpt>
      <trkpt lat="45.59378" lon="6.67082">
        <ele>1416</ele>
        <time>2016-02-06T13:57:20Z</time>
      </trkpt>
      <trkpt lat="45.59377" lon="6.6708">
        <ele>1416</ele>
        <time>2016-02-06T13:57:23Z</time>
      </trkpt>
      <trkpt lat="45.59378" lon="6.67079">
        <ele>1416</ele>
        <time>2016-02-06T13:57:26Z</time>
      </trkpt>
      <trkpt lat="45.59379" lon="6.67077">
        <ele>1416</ele>
        <time>2016-02-06T13:57:29Z</time>
      </trkpt>
      <trkpt lat="45.59379" lon="6.67079">
        <ele>1416</ele>
        <time>2016-02-06T13:57:35Z</time>
      </trkpt>
      <trkpt lat="45.5938" lon="6.6708">
        <ele>1416</ele>
        <time>2016-02-06T13:57:43Z</time>
      </trkpt>
      <trkpt lat="45.5938" lon="6.67078">
        <ele>1416</ele>
        <time>2016-02-06T13:57:47Z</time>
      </trkpt>
      <trkpt lat="45.59377" lon="6.67075">
        <ele>1415</ele>
        <time>2016-02-06T13:57:49Z</time>
      </trkpt>
      <trkpt lat="45.59376" lon="6.67074">
        <ele>1415</ele>
        <time>2016-02-06T13:57:50Z</time>
      </trkpt>
      <trkpt lat="45.59375" lon="6.67073">
        <ele>1415</ele>
        <time>2016-02-06T13:57:51Z</time>
      </trkpt>
      <trkpt lat="45.59372" lon="6.67072">
        <ele>1415</ele>
        <time>2016-02-06T13:57:53Z</time>
      </trkpt>
      <trkpt lat="45.59371" lon="6.6707">
        <ele>1414</ele>
        <time>2016-02-06T13:57:54Z</time>
      </trkpt>
      <trkpt lat="45.5937" lon="6.67069">
        <ele>1414</ele>
        <time>2016-02-06T13:57:56Z</time>
      </trkpt>
      <trkpt lat="45.5937" lon="6.67072">
        <ele>1414</ele>
        <time>2016-02-06T13:57:59Z</time>
      </trkpt>
      <trkpt lat="45.5937" lon="6.67073">
        <ele>1415</ele>
        <time>2016-02-06T13:58:00Z</time>
      </trkpt>
      <trkpt lat="45.59372" lon="6.67074">
        <ele>1415</ele>
        <time>2016-02-06T13:58:01Z</time>
      </trkpt>
      <trkpt lat="45.59373" lon="6.67073">
        <ele>1415</ele>
        <time>2016-02-06T13:58:03Z</time>
      </trkpt>
      <trkpt lat="45.59376" lon="6.67073">
        <ele>1415</ele>
        <time>2016-02-06T13:58:05Z</time>
      </trkpt>
      <trkpt lat="45.59377" lon="6.67073">
        <ele>1415</ele>
        <time>2016-02-06T13:58:06Z</time>
      </trkpt>
      <trkpt lat="45.59375" lon="6.67073">
        <ele>1415</ele>
        <time>2016-02-06T13:58:09Z</time>
      </trkpt>
      <trkpt lat="45.59377" lon="6.67074">
        <ele>1415</ele>
        <time>2016-02-06T13:58:12Z</time>
      </trkpt>
      <trkpt lat="45.5938" lon="6.67074">
        <ele>1415</ele>
        <time>2016-02-06T13:58:14Z</time>
      </trkpt>
      <trkpt lat="45.59381" lon="6.67075">
        <ele>1416</ele>
        <time>2016-02-06T13:58:16Z</time>
      </trkpt>
      <trkpt lat="45.59382" lon="6.67077">
        <ele>1416</ele>
        <time>2016-02-06T13:58:18Z</time>
      </trkpt>
      <trkpt lat="45.59383" lon="6.67077">
        <ele>1416</ele>
        <time>2016-02-06T13:58:20Z</time>
      </trkpt>
      <trkpt lat="45.59385" lon="6.67078">
        <ele>1417</ele>
        <time>2016-02-06T13:58:21Z</time>
      </trkpt>
      <trkpt lat="45.59386" lon="6.67079">
        <ele>1417</ele>
        <time>2016-02-06T13:58:22Z</time>
      </trkpt>
      <trkpt lat="45.59388" lon="6.6708">
        <ele>1417</ele>
        <time>2016-02-06T13:58:24Z</time>
      </trkpt>
      <trkpt lat="45.59387" lon="6.67081">
        <ele>1417</ele>
        <time>2016-02-06T13:58:30Z</time>
      </trkpt>
      <trkpt lat="45.59386" lon="6.67081">
        <ele>1417</ele>
        <time>2016-02-06T13:58:34Z</time>
      </trkpt>
      <trkpt lat="45.59384" lon="6.67081">
        <ele>1417</ele>
        <time>2016-02-06T13:58:37Z</time>
      </trkpt>
      <trkpt lat="45.59382" lon="6.67083">
        <ele>1417</ele>
        <time>2016-02-06T13:58:39Z</time>
      </trkpt>
      <trkpt lat="45.59381" lon="6.67084">
        <ele>1436</ele>
        <time>2016-02-06T13:58:40Z</time>
      </trkpt>
      <trkpt lat="45.59378" lon="6.67084">
        <ele>1436</ele>
        <time>2016-02-06T13:58:41Z</time>
      </trkpt>
      <trkpt lat="45.59377" lon="6.67084">
        <ele>1436</ele>
        <time>2016-02-06T13:58:42Z</time>
      </trkpt>
      <trkpt lat="45.59376" lon="6.67084">
        <ele>1436</ele>
        <time>2016-02-06T13:58:43Z</time>
      </trkpt>
      <trkpt lat="45.59374" lon="6.67083">
        <ele>1416</ele>
        <time>2016-02-06T13:58:45Z</time>
      </trkpt>
      <trkpt lat="45.59372" lon="6.67083">
        <ele>1416</ele>
        <time>2016-02-06T13:58:46Z</time>
      </trkpt>
      <trkpt lat="45.59371" lon="6.67082">
        <ele>1415</ele>
        <time>2016-02-06T13:58:47Z</time>
      </trkpt>
      <trkpt lat="45.59369" lon="6.67082">
        <ele>1415</ele>
        <time>2016-02-06T13:58:48Z</time>
      </trkpt>
      <trkpt lat="45.59368" lon="6.67082">
        <ele>1415</ele>
        <time>2016-02-06T13:58:49Z</time>
      </trkpt>
      <trkpt lat="45.59367" lon="6.67083">
        <ele>1415</ele>
        <time>2016-02-06T13:58:50Z</time>
      </trkpt>
      <trkpt lat="45.59365" lon="6.67083">
        <ele>1415</ele>
        <time>2016-02-06T13:58:51Z</time>
      </trkpt>
      <trkpt lat="45.59363" lon="6.67084">
        <ele>1435</ele>
        <time>2016-02-06T13:58:52Z</time>
      </trkpt>
      <trkpt lat="45.59362" lon="6.67085">
        <ele>1434</ele>
        <time>2016-02-06T13:58:53Z</time>
      </trkpt>
      <trkpt lat="45.5936" lon="6.67087">
        <ele>1434</ele>
        <time>2016-02-06T13:58:54Z</time>
      </trkpt>
      <trkpt lat="45.59359" lon="6.67089">
        <ele>1434</ele>
        <time>2016-02-06T13:58:56Z</time>
      </trkpt>
      <trkpt lat="45.59358" lon="6.6709">
        <ele>1434</ele>
        <time>2016-02-06T13:58:58Z</time>
      </trkpt>
      <trkpt lat="45.59357" lon="6.67088">
        <ele>1434</ele>
        <time>2016-02-06T13:58:59Z</time>
      </trkpt>
      <trkpt lat="45.59355" lon="6.67086">
        <ele>1433</ele>
        <time>2016-02-06T13:59:01Z</time>
      </trkpt>
      <trkpt lat="45.59354" lon="6.67087">
        <ele>1433</ele>
        <time>2016-02-06T13:59:02Z</time>
      </trkpt>
      <trkpt lat="45.59352" lon="6.67089">
        <ele>1432</ele>
        <time>2016-02-06T13:59:03Z</time>
      </trkpt>
      <trkpt lat="45.59351" lon="6.67088">
        <ele>1432</ele>
        <time>2016-02-06T13:59:05Z</time>
      </trkpt>
      <trkpt lat="45.59349" lon="6.67087">
        <ele>1431</ele>
        <time>2016-02-06T13:59:06Z</time>
      </trkpt>
      <trkpt lat="45.59346" lon="6.67086">
        <ele>1429</ele>
        <time>2016-02-06T13:59:07Z</time>
      </trkpt>
      <trkpt lat="45.59344" lon="6.67085">
        <ele>1429</ele>
        <time>2016-02-06T13:59:08Z</time>
      </trkpt>
      <trkpt lat="45.59342" lon="6.67083">
        <ele>1418</ele>
        <time>2016-02-06T13:59:13Z</time>
      </trkpt>
      <trkpt lat="45.59342" lon="6.6708">
        <ele>1418</ele>
        <time>2016-02-06T13:59:14Z</time>
      </trkpt>
      <trkpt lat="45.59342" lon="6.67078">
        <ele>1417</ele>
        <time>2016-02-06T13:59:16Z</time>
      </trkpt>
      <trkpt lat="45.59341" lon="6.67077">
        <ele>1417</ele>
        <time>2016-02-06T13:59:19Z</time>
      </trkpt>
      <trkpt lat="45.5934" lon="6.67075">
        <ele>1417</ele>
        <time>2016-02-06T13:59:22Z</time>
      </trkpt>
      <trkpt lat="45.59339" lon="6.67074">
        <ele>1417</ele>
        <time>2016-02-06T13:59:25Z</time>
      </trkpt>
      <trkpt lat="45.59338" lon="6.67072">
        <ele>1416</ele>
        <time>2016-02-06T13:59:26Z</time>
      </trkpt>
      <trkpt lat="45.59337" lon="6.67071">
        <ele>1416</ele>
        <time>2016-02-06T13:59:28Z</time>
      </trkpt>
      <trkpt lat="45.59335" lon="6.67069">
        <ele>1416</ele>
        <time>2016-02-06T13:59:30Z</time>
      </trkpt>
      <trkpt lat="45.59331" lon="6.67069">
        <ele>1413</ele>
        <time>2016-02-06T13:59:31Z</time>
      </trkpt>
      <trkpt lat="45.59327" lon="6.67068">
        <ele>1412</ele>
        <time>2016-02-06T13:59:32Z</time>
      </trkpt>
      <trkpt lat="45.59326" lon="6.67067">
        <ele>1411</ele>
        <time>2016-02-06T13:59:33Z</time>
      </trkpt>
      <trkpt lat="45.59324" lon="6.67065">
        <ele>1410</ele>
        <time>2016-02-06T13:59:34Z</time>
      </trkpt>
      <trkpt lat="45.59322" lon="6.67065">
        <ele>1410</ele>
        <time>2016-02-06T13:59:36Z</time>
      </trkpt>
      <trkpt lat="45.5932" lon="6.67065">
        <ele>1410</ele>
        <time>2016-02-06T13:59:37Z</time>
      </trkpt>
      <trkpt lat="45.59317" lon="6.67065">
        <ele>1409</ele>
        <time>2016-02-06T13:59:38Z</time>
      </trkpt>
      <trkpt lat="45.59315" lon="6.67064">
        <ele>1409</ele>
        <time>2016-02-06T13:59:39Z</time>
      </trkpt>
      <trkpt lat="45.59313" lon="6.67062">
        <ele>1408</ele>
        <time>2016-02-06T13:59:40Z</time>
      </trkpt>
      <trkpt lat="45.59312" lon="6.67061">
        <ele>1407</ele>
        <time>2016-02-06T13:59:41Z</time>
      </trkpt>
      <trkpt lat="45.5931" lon="6.67059">
        <ele>1407</ele>
        <time>2016-02-06T13:59:42Z</time>
      </trkpt>
      <trkpt lat="45.59309" lon="6.67058">
        <ele>1406</ele>
        <time>2016-02-06T13:59:43Z</time>
      </trkpt>
      <trkpt lat="45.59307" lon="6.67057">
        <ele>1406</ele>
        <time>2016-02-06T13:59:44Z</time>
      </trkpt>
      <trkpt lat="45.59306" lon="6.67057">
        <ele>1406</ele>
        <time>2016-02-06T13:59:46Z</time>
      </trkpt>
      <trkpt lat="45.59304" lon="6.67058">
        <ele>1406</ele>
        <time>2016-02-06T13:59:48Z</time>
      </trkpt>
      <trkpt lat="45.59302" lon="6.67058">
        <ele>1406</ele>
        <time>2016-02-06T13:59:49Z</time>
      </trkpt>
      <trkpt lat="45.59301" lon="6.6706">
        <ele>1406</ele>
        <time>2016-02-06T13:59:51Z</time>
      </trkpt>
      <trkpt lat="45.593" lon="6.67062">
        <ele>1406</ele>
        <time>2016-02-06T13:59:52Z</time>
      </trkpt>
      <trkpt lat="45.59298" lon="6.67065">
        <ele>1407</ele>
        <time>2016-02-06T13:59:57Z</time>
      </trkpt>
      <trkpt lat="45.59288" lon="6.67071">
        <ele>1407</ele>
        <time>2016-02-06T14:00:02Z</time>
      </trkpt>
      <trkpt lat="45.59285" lon="6.67068">
        <ele>1407</ele>
        <time>2016-02-06T14:00:04Z</time>
      </trkpt>
      <trkpt lat="45.59274" lon="6.67061">
        <ele>1406</ele>
        <time>2016-02-06T14:00:08Z</time>
      </trkpt>
      <trkpt lat="45.5927" lon="6.67063">
        <ele>1407</ele>
        <time>2016-02-06T14:00:09Z</time>
      </trkpt>
      <trkpt lat="45.59268" lon="6.67062">
        <ele>1407</ele>
        <time>2016-02-06T14:00:10Z</time>
      </trkpt>
      <trkpt lat="45.59266" lon="6.67059">
        <ele>1406</ele>
        <time>2016-02-06T14:00:11Z</time>
      </trkpt>
      <trkpt lat="45.59264" lon="6.67057">
        <ele>1406</ele>
        <time>2016-02-06T14:00:12Z</time>
      </trkpt>
      <trkpt lat="45.59262" lon="6.67057">
        <ele>1406</ele>
        <time>2016-02-06T14:00:14Z</time>
      </trkpt>
      <trkpt lat="45.59261" lon="6.67059">
        <ele>1406</ele>
        <time>2016-02-06T14:00:17Z</time>
      </trkpt>
      <trkpt lat="45.59263" lon="6.67061">
        <ele>1407</ele>
        <time>2016-02-06T14:00:19Z</time>
      </trkpt>
      <trkpt lat="45.59264" lon="6.67062">
        <ele>1407</ele>
        <time>2016-02-06T14:00:21Z</time>
      </trkpt>
      <trkpt lat="45.59264" lon="6.67065">
        <ele>1408</ele>
        <time>2016-02-06T14:00:22Z</time>
      </trkpt>
      <trkpt lat="45.59263" lon="6.67066">
        <ele>1408</ele>
        <time>2016-02-06T14:00:24Z</time>
      </trkpt>
      <trkpt lat="45.59261" lon="6.67067">
        <ele>1409</ele>
        <time>2016-02-06T14:00:27Z</time>
      </trkpt>
      <trkpt lat="45.59258" lon="6.67066">
        <ele>1409</ele>
        <time>2016-02-06T14:00:28Z</time>
      </trkpt>
      <trkpt lat="45.59257" lon="6.67065">
        <ele>1408</ele>
        <time>2016-02-06T14:00:29Z</time>
      </trkpt>
      <trkpt lat="45.59253" lon="6.67064">
        <ele>1408</ele>
        <time>2016-02-06T14:00:30Z</time>
      </trkpt>
      <trkpt lat="45.59251" lon="6.67063">
        <ele>1408</ele>
        <time>2016-02-06T14:00:31Z</time>
      </trkpt>
      <trkpt lat="45.59251" lon="6.67065">
        <ele>1409</ele>
        <time>2016-02-06T14:00:32Z</time>
      </trkpt>
      <trkpt lat="45.59253" lon="6.67066">
        <ele>1409</ele>
        <time>2016-02-06T14:00:34Z</time>
      </trkpt>
      <trkpt lat="45.59251" lon="6.67065">
        <ele>1409</ele>
        <time>2016-02-06T14:00:36Z</time>
      </trkpt>
      <trkpt lat="45.5925" lon="6.67063">
        <ele>1406</ele>
        <time>2016-02-06T14:00:37Z</time>
      </trkpt>
      <trkpt lat="45.59248" lon="6.67063">
        <ele>1406</ele>
        <time>2016-02-06T14:00:38Z</time>
      </trkpt>
      <trkpt lat="45.59248" lon="6.67065">
        <ele>1407</ele>
        <time>2016-02-06T14:00:39Z</time>
      </trkpt>
      <trkpt lat="45.59247" lon="6.67066">
        <ele>1408</ele>
        <time>2016-02-06T14:00:40Z</time>
      </trkpt>
      <trkpt lat="45.59246" lon="6.67068">
        <ele>1408</ele>
        <time>2016-02-06T14:00:42Z</time>
      </trkpt>
      <trkpt lat="45.59245" lon="6.67069">
        <ele>1408</ele>
        <time>2016-02-06T14:00:43Z</time>
      </trkpt>
      <trkpt lat="45.59243" lon="6.67068">
        <ele>1408</ele>
        <time>2016-02-06T14:00:44Z</time>
      </trkpt>
      <trkpt lat="45.59241" lon="6.67069">
        <ele>1408</ele>
        <time>2016-02-06T14:00:45Z</time>
      </trkpt>
      <trkpt lat="45.5924" lon="6.67069">
        <ele>1408</ele>
        <time>2016-02-06T14:00:46Z</time>
      </trkpt>
      <trkpt lat="45.59239" lon="6.67069">
        <ele>1407</ele>
        <time>2016-02-06T14:00:47Z</time>
      </trkpt>
      <trkpt lat="45.59237" lon="6.67069">
        <ele>1407</ele>
        <time>2016-02-06T14:00:48Z</time>
      </trkpt>
      <trkpt lat="45.59235" lon="6.67069">
        <ele>1406</ele>
        <time>2016-02-06T14:00:49Z</time>
      </trkpt>
      <trkpt lat="45.59233" lon="6.67068">
        <ele>1406</ele>
        <time>2016-02-06T14:00:50Z</time>
      </trkpt>
      <trkpt lat="45.59232" lon="6.67068">
        <ele>1406</ele>
        <time>2016-02-06T14:00:51Z</time>
      </trkpt>
      <trkpt lat="45.5923" lon="6.67067">
        <ele>1405</ele>
        <time>2016-02-06T14:00:53Z</time>
      </trkpt>
      <trkpt lat="45.59227" lon="6.67067">
        <ele>1405</ele>
        <time>2016-02-06T14:00:56Z</time>
      </trkpt>
      <trkpt lat="45.59225" lon="6.67066">
        <ele>1404</ele>
        <time>2016-02-06T14:00:57Z</time>
      </trkpt>
      <trkpt lat="45.59222" lon="6.67064">
        <ele>1404</ele>
        <time>2016-02-06T14:00:58Z</time>
      </trkpt>
      <trkpt lat="45.59221" lon="6.67064">
        <ele>1403</ele>
        <time>2016-02-06T14:00:59Z</time>
      </trkpt>
      <trkpt lat="45.59219" lon="6.67063">
        <ele>1403</ele>
        <time>2016-02-06T14:01:00Z</time>
      </trkpt>
      <trkpt lat="45.59217" lon="6.67062">
        <ele>1403</ele>
        <time>2016-02-06T14:01:02Z</time>
      </trkpt>
      <trkpt lat="45.59216" lon="6.67064">
        <ele>1403</ele>
        <time>2016-02-06T14:01:04Z</time>
      </trkpt>
      <trkpt lat="45.59214" lon="6.67066">
        <ele>1403</ele>
        <time>2016-02-06T14:01:08Z</time>
      </trkpt>
      <trkpt lat="45.59213" lon="6.67066">
        <ele>1403</ele>
        <time>2016-02-06T14:01:09Z</time>
      </trkpt>
      <trkpt lat="45.5921" lon="6.67066">
        <ele>1403</ele>
        <time>2016-02-06T14:01:10Z</time>
      </trkpt>
      <trkpt lat="45.59207" lon="6.67065">
        <ele>1403</ele>
        <time>2016-02-06T14:01:11Z</time>
      </trkpt>
      <trkpt lat="45.59206" lon="6.67068">
        <ele>1403</ele>
        <time>2016-02-06T14:01:12Z</time>
      </trkpt>
      <trkpt lat="45.59205" lon="6.6707">
        <ele>1403</ele>
        <time>2016-02-06T14:01:14Z</time>
      </trkpt>
      <trkpt lat="45.59205" lon="6.67072">
        <ele>1403</ele>
        <time>2016-02-06T14:01:15Z</time>
      </trkpt>
      <trkpt lat="45.59204" lon="6.67073">
        <ele>1404</ele>
        <time>2016-02-06T14:01:17Z</time>
      </trkpt>
      <trkpt lat="45.59204" lon="6.67075">
        <ele>1404</ele>
        <time>2016-02-06T14:01:18Z</time>
      </trkpt>
      <trkpt lat="45.59204" lon="6.67077">
        <ele>1404</ele>
        <time>2016-02-06T14:01:19Z</time>
      </trkpt>
      <trkpt lat="45.59204" lon="6.67078">
        <ele>1404</ele>
        <time>2016-02-06T14:01:20Z</time>
      </trkpt>
      <trkpt lat="45.59203" lon="6.67081">
        <ele>1404</ele>
        <time>2016-02-06T14:01:21Z</time>
      </trkpt>
      <trkpt lat="45.59201" lon="6.67084">
        <ele>1423</ele>
        <time>2016-02-06T14:01:23Z</time>
      </trkpt>
      <trkpt lat="45.59198" lon="6.67083">
        <ele>1404</ele>
        <time>2016-02-06T14:01:24Z</time>
      </trkpt>
      <trkpt lat="45.59195" lon="6.67083">
        <ele>1405</ele>
        <time>2016-02-06T14:01:25Z</time>
      </trkpt>
      <trkpt lat="45.59194" lon="6.67084">
        <ele>1422</ele>
        <time>2016-02-06T14:01:26Z</time>
      </trkpt>
      <trkpt lat="45.59192" lon="6.67084">
        <ele>1421</ele>
        <time>2016-02-06T14:01:28Z</time>
      </trkpt>
      <trkpt lat="45.59191" lon="6.67086">
        <ele>1421</ele>
        <time>2016-02-06T14:01:30Z</time>
      </trkpt>
      <trkpt lat="45.5919" lon="6.67086">
        <ele>1421</ele>
        <time>2016-02-06T14:01:35Z</time>
      </trkpt>
      <trkpt lat="45.59188" lon="6.67086">
        <ele>1421</ele>
        <time>2016-02-06T14:01:36Z</time>
      </trkpt>
      <trkpt lat="45.59187" lon="6.67088">
        <ele>1420</ele>
        <time>2016-02-06T14:01:37Z</time>
      </trkpt>
      <trkpt lat="45.59185" lon="6.67088">
        <ele>1420</ele>
        <time>2016-02-06T14:01:38Z</time>
      </trkpt>
      <trkpt lat="45.59184" lon="6.67087">
        <ele>1420</ele>
        <time>2016-02-06T14:01:40Z</time>
      </trkpt>
      <trkpt lat="45.59182" lon="6.67086">
        <ele>1419</ele>
        <time>2016-02-06T14:01:42Z</time>
      </trkpt>
      <trkpt lat="45.59181" lon="6.67086">
        <ele>1418</ele>
        <time>2016-02-06T14:01:43Z</time>
      </trkpt>
      <trkpt lat="45.59178" lon="6.67086">
        <ele>1417</ele>
        <time>2016-02-06T14:01:45Z</time>
      </trkpt>
      <trkpt lat="45.59177" lon="6.67085">
        <ele>1417</ele>
        <time>2016-02-06T14:01:47Z</time>
      </trkpt>
      <trkpt lat="45.59177" lon="6.67086">
        <ele>1417</ele>
        <time>2016-02-06T14:01:49Z</time>
      </trkpt>
      <trkpt lat="45.59179" lon="6.67087">
        <ele>1418</ele>
        <time>2016-02-06T14:01:51Z</time>
      </trkpt>
      <trkpt lat="45.59182" lon="6.67085">
        <ele>1419</ele>
        <time>2016-02-06T14:01:53Z</time>
      </trkpt>
      <trkpt lat="45.5918" lon="6.67084">
        <ele>1418</ele>
        <time>2016-02-06T14:01:55Z</time>
      </trkpt>
      <trkpt lat="45.59179" lon="6.67083">
        <ele>1407</ele>
        <time>2016-02-06T14:01:59Z</time>
      </trkpt>
      <trkpt lat="45.59177" lon="6.67083">
        <ele>1407</ele>
        <time>2016-02-06T14:02:00Z</time>
      </trkpt>
      <trkpt lat="45.59175" lon="6.67084">
        <ele>1416</ele>
        <time>2016-02-06T14:02:01Z</time>
      </trkpt>
      <trkpt lat="45.59172" lon="6.67084">
        <ele>1415</ele>
        <time>2016-02-06T14:02:02Z</time>
      </trkpt>
      <trkpt lat="45.59171" lon="6.67084">
        <ele>1414</ele>
        <time>2016-02-06T14:02:04Z</time>
      </trkpt>
      <trkpt lat="45.59171" lon="6.67087">
        <ele>1414</ele>
        <time>2016-02-06T14:02:08Z</time>
      </trkpt>
      <trkpt lat="45.59172" lon="6.67089">
        <ele>1416</ele>
        <time>2016-02-06T14:02:10Z</time>
      </trkpt>
      <trkpt lat="45.5917" lon="6.67089">
        <ele>1415</ele>
        <time>2016-02-06T14:02:13Z</time>
      </trkpt>
      <trkpt lat="45.59171" lon="6.67091">
        <ele>1416</ele>
        <time>2016-02-06T14:02:15Z</time>
      </trkpt>
      <trkpt lat="45.59173" lon="6.67092">
        <ele>1417</ele>
        <time>2016-02-06T14:02:17Z</time>
      </trkpt>
      <trkpt lat="45.59175" lon="6.67093">
        <ele>1418</ele>
        <time>2016-02-06T14:02:19Z</time>
      </trkpt>
      <trkpt lat="45.59176" lon="6.67096">
        <ele>1420</ele>
        <time>2016-02-06T14:02:20Z</time>
      </trkpt>
      <trkpt lat="45.59177" lon="6.671">
        <ele>1421</ele>
        <time>2016-02-06T14:02:21Z</time>
      </trkpt>
      <trkpt lat="45.59176" lon="6.67102">
        <ele>1422</ele>
        <time>2016-02-06T14:02:22Z</time>
      </trkpt>
      <trkpt lat="45.59175" lon="6.67104">
        <ele>1422</ele>
        <time>2016-02-06T14:02:23Z</time>
      </trkpt>
      <trkpt lat="45.59172" lon="6.67105">
        <ele>1422</ele>
        <time>2016-02-06T14:02:25Z</time>
      </trkpt>
      <trkpt lat="45.59171" lon="6.67105">
        <ele>1422</ele>
        <time>2016-02-06T14:02:26Z</time>
      </trkpt>
      <trkpt lat="45.59169" lon="6.67104">
        <ele>1422</ele>
        <time>2016-02-06T14:02:27Z</time>
      </trkpt>
      <trkpt lat="45.59168" lon="6.67104">
        <ele>1422</ele>
        <time>2016-02-06T14:02:28Z</time>
      </trkpt>
      <trkpt lat="45.59167" lon="6.67104">
        <ele>1421</ele>
        <time>2016-02-06T14:02:29Z</time>
      </trkpt>
      <trkpt lat="45.59168" lon="6.67105">
        <ele>1422</ele>
        <time>2016-02-06T14:02:34Z</time>
      </trkpt>
      <trkpt lat="45.59169" lon="6.67107">
        <ele>1423</ele>
        <time>2016-02-06T14:02:38Z</time>
      </trkpt>
      <trkpt lat="45.59169" lon="6.6711">
        <ele>1424</ele>
        <time>2016-02-06T14:02:40Z</time>
      </trkpt>
      <trkpt lat="45.59168" lon="6.67112">
        <ele>1424</ele>
        <time>2016-02-06T14:02:46Z</time>
      </trkpt>
      <trkpt lat="45.59166" lon="6.67112">
        <ele>1422</ele>
        <time>2016-02-06T14:02:47Z</time>
      </trkpt>
      <trkpt lat="45.59165" lon="6.67113">
        <ele>1422</ele>
        <time>2016-02-06T14:02:49Z</time>
      </trkpt>
      <trkpt lat="45.59167" lon="6.67111">
        <ele>1424</ele>
        <time>2016-02-06T14:02:52Z</time>
      </trkpt>
      <trkpt lat="45.59166" lon="6.67108">
        <ele>1421</ele>
        <time>2016-02-06T14:02:53Z</time>
      </trkpt>
      <trkpt lat="45.59168" lon="6.67107">
        <ele>1423</ele>
        <time>2016-02-06T14:02:54Z</time>
      </trkpt>
      <trkpt lat="45.59169" lon="6.67106">
        <ele>1422</ele>
        <time>2016-02-06T14:02:55Z</time>
      </trkpt>
      <trkpt lat="45.59172" lon="6.67105">
        <ele>1422</ele>
        <time>2016-02-06T14:02:56Z</time>
      </trkpt>
      <trkpt lat="45.59172" lon="6.67103">
        <ele>1421</ele>
        <time>2016-02-06T14:02:57Z</time>
      </trkpt>
      <trkpt lat="45.59174" lon="6.67102">
        <ele>1421</ele>
        <time>2016-02-06T14:02:58Z</time>
      </trkpt>
      <trkpt lat="45.59175" lon="6.671">
        <ele>1421</ele>
        <time>2016-02-06T14:02:59Z</time>
      </trkpt>
      <trkpt lat="45.59166" lon="6.67079">
        <ele>1409</ele>
        <time>2016-02-06T14:03:58Z</time>
      </trkpt>
      <trkpt lat="45.59167" lon="6.6708">
        <ele>1409</ele>
        <time>2016-02-06T14:04:00Z</time>
      </trkpt>
      <trkpt lat="45.59169" lon="6.67082">
        <ele>1410</ele>
        <time>2016-02-06T14:04:02Z</time>
      </trkpt>
      <trkpt lat="45.59171" lon="6.67084">
        <ele>1414</ele>
        <time>2016-02-06T14:04:04Z</time>
      </trkpt>
      <trkpt lat="45.59169" lon="6.67083">
        <ele>1410</ele>
        <time>2016-02-06T14:04:07Z</time>
      </trkpt>
      <trkpt lat="45.59167" lon="6.67083">
        <ele>1410</ele>
        <time>2016-02-06T14:04:10Z</time>
      </trkpt>
      <trkpt lat="45.59166" lon="6.67082">
        <ele>1410</ele>
        <time>2016-02-06T14:04:13Z</time>
      </trkpt>
      <trkpt lat="45.59164" lon="6.67082">
        <ele>1409</ele>
        <time>2016-02-06T14:04:15Z</time>
      </trkpt>
      <trkpt lat="45.59163" lon="6.67083">
        <ele>1409</ele>
        <time>2016-02-06T14:04:18Z</time>
      </trkpt>
      <trkpt lat="45.59161" lon="6.67081">
        <ele>1408</ele>
        <time>2016-02-06T14:04:30Z</time>
      </trkpt>
      <trkpt lat="45.5916" lon="6.6708">
        <ele>1408</ele>
        <time>2016-02-06T14:04:33Z</time>
      </trkpt>
      <trkpt lat="45.59161" lon="6.67079">
        <ele>1408</ele>
        <time>2016-02-06T14:04:38Z</time>
      </trkpt>
      <trkpt lat="45.59163" lon="6.67081">
        <ele>1409</ele>
        <time>2016-02-06T14:04:40Z</time>
      </trkpt>
      <trkpt lat="45.59166" lon="6.67082">
        <ele>1410</ele>
        <time>2016-02-06T14:04:42Z</time>
      </trkpt>
      <trkpt lat="45.59166" lon="6.6708">
        <ele>1410</ele>
        <time>2016-02-06T14:04:43Z</time>
      </trkpt>
      <trkpt lat="45.59167" lon="6.67081">
        <ele>1410</ele>
        <time>2016-02-06T14:04:44Z</time>
      </trkpt>
      <trkpt lat="45.59168" lon="6.6708">
        <ele>1409</ele>
        <time>2016-02-06T14:04:47Z</time>
      </trkpt>
      <trkpt lat="45.59168" lon="6.67078">
        <ele>1409</ele>
        <time>2016-02-06T14:04:49Z</time>
      </trkpt>
      <trkpt lat="45.59167" lon="6.67076">
        <ele>1408</ele>
        <time>2016-02-06T14:04:51Z</time>
      </trkpt>
      <trkpt lat="45.59166" lon="6.67076">
        <ele>1408</ele>
        <time>2016-02-06T14:04:54Z</time>
      </trkpt>
      <trkpt lat="45.59167" lon="6.67075">
        <ele>1407</ele>
        <time>2016-02-06T14:05:03Z</time>
      </trkpt>
      <trkpt lat="45.59166" lon="6.67074">
        <ele>1407</ele>
        <time>2016-02-06T14:05:09Z</time>
      </trkpt>
      <trkpt lat="45.59164" lon="6.67072">
        <ele>1406</ele>
        <time>2016-02-06T14:05:10Z</time>
      </trkpt>
      <trkpt lat="45.59163" lon="6.67071">
        <ele>1406</ele>
        <time>2016-02-06T14:05:12Z</time>
      </trkpt>
      <trkpt lat="45.59162" lon="6.67073">
        <ele>1406</ele>
        <time>2016-02-06T14:05:20Z</time>
      </trkpt>
      <trkpt lat="45.59163" lon="6.67075">
        <ele>1407</ele>
        <time>2016-02-06T14:05:22Z</time>
      </trkpt>
      <trkpt lat="45.59155" lon="6.67079">
        <ele>1406</ele>
        <time>2016-02-06T14:05:52Z</time>
      </trkpt>
      <trkpt lat="45.59156" lon="6.6708">
        <ele>1407</ele>
        <time>2016-02-06T14:05:54Z</time>
      </trkpt>
      <trkpt lat="45.59156" lon="6.67077">
        <ele>1406</ele>
        <time>2016-02-06T14:05:59Z</time>
      </trkpt>
      <trkpt lat="45.59155" lon="6.67076">
        <ele>1406</ele>
        <time>2016-02-06T14:06:00Z</time>
      </trkpt>
      <trkpt lat="45.59155" lon="6.67074">
        <ele>1406</ele>
        <time>2016-02-06T14:06:01Z</time>
      </trkpt>
      <trkpt lat="45.59157" lon="6.67073">
        <ele>1406</ele>
        <time>2016-02-06T14:06:03Z</time>
      </trkpt>
      <trkpt lat="45.59159" lon="6.67074">
        <ele>1406</ele>
        <time>2016-02-06T14:06:05Z</time>
      </trkpt>
      <trkpt lat="45.5916" lon="6.67074">
        <ele>1406</ele>
        <time>2016-02-06T14:06:06Z</time>
      </trkpt>
      <trkpt lat="45.5916" lon="6.67072">
        <ele>1406</ele>
        <time>2016-02-06T14:06:07Z</time>
      </trkpt>
      <trkpt lat="45.59162" lon="6.6707">
        <ele>1406</ele>
        <time>2016-02-06T14:06:09Z</time>
      </trkpt>
      <trkpt lat="45.59163" lon="6.6707">
        <ele>1406</ele>
        <time>2016-02-06T14:06:13Z</time>
      </trkpt>
      <trkpt lat="45.59166" lon="6.67069">
        <ele>1405</ele>
        <time>2016-02-06T14:06:15Z</time>
      </trkpt>
      <trkpt lat="45.59167" lon="6.67068">
        <ele>1405</ele>
        <time>2016-02-06T14:06:16Z</time>
      </trkpt>
      <trkpt lat="45.59169" lon="6.67068">
        <ele>1405</ele>
        <time>2016-02-06T14:06:17Z</time>
      </trkpt>
      <trkpt lat="45.59172" lon="6.67069">
        <ele>1405</ele>
        <time>2016-02-06T14:06:18Z</time>
      </trkpt>
      <trkpt lat="45.59174" lon="6.67069">
        <ele>1405</ele>
        <time>2016-02-06T14:06:19Z</time>
      </trkpt>
      <trkpt lat="45.59176" lon="6.67072">
        <ele>1406</ele>
        <time>2016-02-06T14:06:21Z</time>
      </trkpt>
      <trkpt lat="45.59175" lon="6.67071">
        <ele>1406</ele>
        <time>2016-02-06T14:06:24Z</time>
      </trkpt>
      <trkpt lat="45.59173" lon="6.6707">
        <ele>1405</ele>
        <time>2016-02-06T14:06:25Z</time>
      </trkpt>
      <trkpt lat="45.5917" lon="6.67067">
        <ele>1405</ele>
        <time>2016-02-06T14:06:28Z</time>
      </trkpt>
      <trkpt lat="45.59168" lon="6.67065">
        <ele>1404</ele>
        <time>2016-02-06T14:06:29Z</time>
      </trkpt>
      <trkpt lat="45.59166" lon="6.67065">
        <ele>1404</ele>
        <time>2016-02-06T14:06:31Z</time>
      </trkpt>
      <trkpt lat="45.59164" lon="6.67065">
        <ele>1404</ele>
        <time>2016-02-06T14:06:33Z</time>
      </trkpt>
      <trkpt lat="45.59162" lon="6.67065">
        <ele>1404</ele>
        <time>2016-02-06T14:06:34Z</time>
      </trkpt>
      <trkpt lat="45.59161" lon="6.67065">
        <ele>1404</ele>
        <time>2016-02-06T14:06:35Z</time>
      </trkpt>
      <trkpt lat="45.59159" lon="6.67065">
        <ele>1404</ele>
        <time>2016-02-06T14:06:36Z</time>
      </trkpt>
      <trkpt lat="45.59158" lon="6.67064">
        <ele>1404</ele>
        <time>2016-02-06T14:06:37Z</time>
      </trkpt>
      <trkpt lat="45.59158" lon="6.67065">
        <ele>1404</ele>
        <time>2016-02-06T14:06:44Z</time>
      </trkpt>
      <trkpt lat="45.59157" lon="6.67066">
        <ele>1404</ele>
        <time>2016-02-06T14:06:46Z</time>
      </trkpt>
      <trkpt lat="45.59157" lon="6.67068">
        <ele>1404</ele>
        <time>2016-02-06T14:06:47Z</time>
      </trkpt>
      <trkpt lat="45.59154" lon="6.67069">
        <ele>1404</ele>
        <time>2016-02-06T14:06:49Z</time>
      </trkpt>
      <trkpt lat="45.59152" lon="6.6707">
        <ele>1404</ele>
        <time>2016-02-06T14:06:51Z</time>
      </trkpt>
      <trkpt lat="45.59153" lon="6.67072">
        <ele>1405</ele>
        <time>2016-02-06T14:06:54Z</time>
      </trkpt>
      <trkpt lat="45.59155" lon="6.67075">
        <ele>1406</ele>
        <time>2016-02-06T14:06:56Z</time>
      </trkpt>
      <trkpt lat="45.59156" lon="6.67076">
        <ele>1406</ele>
        <time>2016-02-06T14:06:57Z</time>
      </trkpt>
      <trkpt lat="45.59158" lon="6.67077">
        <ele>1407</ele>
        <time>2016-02-06T14:06:58Z</time>
      </trkpt>
      <trkpt lat="45.59161" lon="6.6708">
        <ele>1408</ele>
        <time>2016-02-06T14:06:59Z</time>
      </trkpt>
      <trkpt lat="45.59163" lon="6.67081">
        <ele>1409</ele>
        <time>2016-02-06T14:07:01Z</time>
      </trkpt>
      <trkpt lat="45.59164" lon="6.6708">
        <ele>1409</ele>
        <time>2016-02-06T14:07:03Z</time>
      </trkpt>
      <trkpt lat="45.59165" lon="6.67079">
        <ele>1409</ele>
        <time>2016-02-06T14:07:07Z</time>
      </trkpt>
      <trkpt lat="45.59164" lon="6.67077">
        <ele>1408</ele>
        <time>2016-02-06T14:07:08Z</time>
      </trkpt>
      <trkpt lat="45.59166" lon="6.67075">
        <ele>1408</ele>
        <time>2016-02-06T14:07:11Z</time>
      </trkpt>
      <trkpt lat="45.59164" lon="6.67074">
        <ele>1407</ele>
        <time>2016-02-06T14:07:13Z</time>
      </trkpt>
      <trkpt lat="45.59161" lon="6.67075">
        <ele>1407</ele>
        <time>2016-02-06T14:07:16Z</time>
      </trkpt>
      <trkpt lat="45.5916" lon="6.67074">
        <ele>1406</ele>
        <time>2016-02-06T14:07:18Z</time>
      </trkpt>
      <trkpt lat="45.59158" lon="6.67071">
        <ele>1405</ele>
        <time>2016-02-06T14:07:22Z</time>
      </trkpt>
      <trkpt lat="45.59156" lon="6.6707">
        <ele>1405</ele>
        <time>2016-02-06T14:07:23Z</time>
      </trkpt>
      <trkpt lat="45.59155" lon="6.67069">
        <ele>1404</ele>
        <time>2016-02-06T14:07:24Z</time>
      </trkpt>
      <trkpt lat="45.59153" lon="6.67069">
        <ele>1404</ele>
        <time>2016-02-06T14:07:25Z</time>
      </trkpt>
      <trkpt lat="45.59153" lon="6.67072">
        <ele>1405</ele>
        <time>2016-02-06T14:07:27Z</time>
      </trkpt>
      <trkpt lat="45.59154" lon="6.67075">
        <ele>1406</ele>
        <time>2016-02-06T14:07:29Z</time>
      </trkpt>
      <trkpt lat="45.59156" lon="6.67076">
        <ele>1406</ele>
        <time>2016-02-06T14:07:30Z</time>
      </trkpt>
      <trkpt lat="45.59159" lon="6.67078">
        <ele>1407</ele>
        <time>2016-02-06T14:07:33Z</time>
      </trkpt>
      <trkpt lat="45.59161" lon="6.67081">
        <ele>1408</ele>
        <time>2016-02-06T14:07:34Z</time>
      </trkpt>
      <trkpt lat="45.59162" lon="6.67083">
        <ele>1409</ele>
        <time>2016-02-06T14:07:35Z</time>
      </trkpt>
      <trkpt lat="45.59158" lon="6.67081">
        <ele>1407</ele>
        <time>2016-02-06T14:07:37Z</time>
      </trkpt>
      <trkpt lat="45.59152" lon="6.67075">
        <ele>1405</ele>
        <time>2016-02-06T14:07:38Z</time>
      </trkpt>
      <trkpt lat="45.59149" lon="6.67071">
        <ele>1404</ele>
        <time>2016-02-06T14:07:39Z</time>
      </trkpt>
      <trkpt lat="45.59148" lon="6.67069">
        <ele>1404</ele>
        <time>2016-02-06T14:07:40Z</time>
      </trkpt>
      <trkpt lat="45.59147" lon="6.67067">
        <ele>1403</ele>
        <time>2016-02-06T14:07:41Z</time>
      </trkpt>
      <trkpt lat="45.59146" lon="6.67064">
        <ele>1403</ele>
        <time>2016-02-06T14:07:42Z</time>
      </trkpt>
      <trkpt lat="45.59147" lon="6.67062">
        <ele>1402</ele>
        <time>2016-02-06T14:07:43Z</time>
      </trkpt>
      <trkpt lat="45.59148" lon="6.67061">
        <ele>1402</ele>
        <time>2016-02-06T14:07:44Z</time>
      </trkpt>
      <trkpt lat="45.5915" lon="6.67062">
        <ele>1403</ele>
        <time>2016-02-06T14:07:45Z</time>
      </trkpt>
      <trkpt lat="45.59152" lon="6.67061">
        <ele>1402</ele>
        <time>2016-02-06T14:07:47Z</time>
      </trkpt>
      <trkpt lat="45.59153" lon="6.67061">
        <ele>1403</ele>
        <time>2016-02-06T14:07:49Z</time>
      </trkpt>
      <trkpt lat="45.59157" lon="6.67063">
        <ele>1403</ele>
        <time>2016-02-06T14:07:51Z</time>
      </trkpt>
      <trkpt lat="45.59159" lon="6.67064">
        <ele>1404</ele>
        <time>2016-02-06T14:07:52Z</time>
      </trkpt>
      <trkpt lat="45.59162" lon="6.67067">
        <ele>1405</ele>
        <time>2016-02-06T14:07:53Z</time>
      </trkpt>
      <trkpt lat="45.59165" lon="6.6707">
        <ele>1406</ele>
        <time>2016-02-06T14:07:54Z</time>
      </trkpt>
      <trkpt lat="45.59167" lon="6.67073">
        <ele>1407</ele>
        <time>2016-02-06T14:07:56Z</time>
      </trkpt>
      <trkpt lat="45.59169" lon="6.67075">
        <ele>1407</ele>
        <time>2016-02-06T14:07:58Z</time>
      </trkpt>
      <trkpt lat="45.59167" lon="6.67074">
        <ele>1407</ele>
        <time>2016-02-06T14:08:01Z</time>
      </trkpt>
      <trkpt lat="45.59166" lon="6.67073">
        <ele>1407</ele>
        <time>2016-02-06T14:08:02Z</time>
      </trkpt>
      <trkpt lat="45.59164" lon="6.6707">
        <ele>1406</ele>
        <time>2016-02-06T14:08:03Z</time>
      </trkpt>
      <trkpt lat="45.59163" lon="6.67068">
        <ele>1405</ele>
        <time>2016-02-06T14:08:04Z</time>
      </trkpt>
      <trkpt lat="45.59164" lon="6.67069">
        <ele>1405</ele>
        <time>2016-02-06T14:08:08Z</time>
      </trkpt>
      <trkpt lat="45.59166" lon="6.6707">
        <ele>1406</ele>
        <time>2016-02-06T14:08:10Z</time>
      </trkpt>
      <trkpt lat="45.59164" lon="6.67069">
        <ele>1405</ele>
        <time>2016-02-06T14:08:12Z</time>
      </trkpt>
      <trkpt lat="45.59166" lon="6.6707">
        <ele>1406</ele>
        <time>2016-02-06T14:08:13Z</time>
      </trkpt>
      <trkpt lat="45.59168" lon="6.67072">
        <ele>1406</ele>
        <time>2016-02-06T14:08:14Z</time>
      </trkpt>
      <trkpt lat="45.59167" lon="6.67069">
        <ele>1405</ele>
        <time>2016-02-06T14:08:18Z</time>
      </trkpt>
      <trkpt lat="45.59168" lon="6.6707">
        <ele>1406</ele>
        <time>2016-02-06T14:08:19Z</time>
      </trkpt>
      <trkpt lat="45.59166" lon="6.67071">
        <ele>1406</ele>
        <time>2016-02-06T14:08:22Z</time>
      </trkpt>
      <trkpt lat="45.59165" lon="6.6707">
        <ele>1406</ele>
        <time>2016-02-06T14:08:23Z</time>
      </trkpt>
      <trkpt lat="45.59166" lon="6.67072">
        <ele>1406</ele>
        <time>2016-02-06T14:08:27Z</time>
      </trkpt>
      <trkpt lat="45.59167" lon="6.67074">
        <ele>1407</ele>
        <time>2016-02-06T14:08:28Z</time>
      </trkpt>
      <trkpt lat="45.59169" lon="6.67077">
        <ele>1408</ele>
        <time>2016-02-06T14:08:29Z</time>
      </trkpt>
      <trkpt lat="45.59169" lon="6.67078">
        <ele>1409</ele>
        <time>2016-02-06T14:08:31Z</time>
      </trkpt>
      <trkpt lat="45.59168" lon="6.67076">
        <ele>1408</ele>
        <time>2016-02-06T14:08:33Z</time>
      </trkpt>
      <trkpt lat="45.59166" lon="6.67075">
        <ele>1407</ele>
        <time>2016-02-06T14:08:36Z</time>
      </trkpt>
      <trkpt lat="45.59164" lon="6.67073">
        <ele>1407</ele>
        <time>2016-02-06T14:08:37Z</time>
      </trkpt>
      <trkpt lat="45.59161" lon="6.67072">
        <ele>1406</ele>
        <time>2016-02-06T14:08:38Z</time>
      </trkpt>
      <trkpt lat="45.59158" lon="6.6707">
        <ele>1405</ele>
        <time>2016-02-06T14:08:39Z</time>
      </trkpt>
      <trkpt lat="45.59155" lon="6.67068">
        <ele>1404</ele>
        <time>2016-02-06T14:08:40Z</time>
      </trkpt>
      <trkpt lat="45.59151" lon="6.67064">
        <ele>1403</ele>
        <time>2016-02-06T14:08:41Z</time>
      </trkpt>
      <trkpt lat="45.59149" lon="6.67061">
        <ele>1402</ele>
        <time>2016-02-06T14:08:42Z</time>
      </trkpt>
      <trkpt lat="45.59141" lon="6.67069">
        <ele>1403</ele>
        <time>2016-02-06T14:08:49Z</time>
      </trkpt>
      <trkpt lat="45.59148" lon="6.67078">
        <ele>1405</ele>
        <time>2016-02-06T14:08:50Z</time>
      </trkpt>
      <trkpt lat="45.59153" lon="6.67081">
        <ele>1406</ele>
        <time>2016-02-06T14:08:52Z</time>
      </trkpt>
      <trkpt lat="45.59155" lon="6.67085">
        <ele>1416</ele>
        <time>2016-02-06T14:08:53Z</time>
      </trkpt>
      <trkpt lat="45.59155" lon="6.67083">
        <ele>1407</ele>
        <time>2016-02-06T14:08:54Z</time>
      </trkpt>
      <trkpt lat="45.59153" lon="6.6708">
        <ele>1406</ele>
        <time>2016-02-06T14:08:55Z</time>
      </trkpt>
      <trkpt lat="45.59152" lon="6.67078">
        <ele>1406</ele>
        <time>2016-02-06T14:08:56Z</time>
      </trkpt>
      <trkpt lat="45.59149" lon="6.67075">
        <ele>1405</ele>
        <time>2016-02-06T14:08:57Z</time>
      </trkpt>
      <trkpt lat="45.59149" lon="6.67073">
        <ele>1404</ele>
        <time>2016-02-06T14:08:59Z</time>
      </trkpt>
      <trkpt lat="45.5915" lon="6.67073">
        <ele>1405</ele>
        <time>2016-02-06T14:09:00Z</time>
      </trkpt>
      <trkpt lat="45.59152" lon="6.67073">
        <ele>1405</ele>
        <time>2016-02-06T14:09:01Z</time>
      </trkpt>
      <trkpt lat="45.59154" lon="6.67073">
        <ele>1405</ele>
        <time>2016-02-06T14:09:02Z</time>
      </trkpt>
      <trkpt lat="45.59154" lon="6.6707">
        <ele>1405</ele>
        <time>2016-02-06T14:09:04Z</time>
      </trkpt>
      <trkpt lat="45.59155" lon="6.67071">
        <ele>1405</ele>
        <time>2016-02-06T14:09:05Z</time>
      </trkpt>
      <trkpt lat="45.59157" lon="6.67072">
        <ele>1405</ele>
        <time>2016-02-06T14:09:06Z</time>
      </trkpt>
      <trkpt lat="45.59158" lon="6.67073">
        <ele>1406</ele>
        <time>2016-02-06T14:09:07Z</time>
      </trkpt>
      <trkpt lat="45.5916" lon="6.67075">
        <ele>1407</ele>
        <time>2016-02-06T14:09:08Z</time>
      </trkpt>
      <trkpt lat="45.59162" lon="6.67077">
        <ele>1408</ele>
        <time>2016-02-06T14:09:09Z</time>
      </trkpt>
      <trkpt lat="45.59164" lon="6.67078">
        <ele>1408</ele>
        <time>2016-02-06T14:09:11Z</time>
      </trkpt>
      <trkpt lat="45.59166" lon="6.6708">
        <ele>1409</ele>
        <time>2016-02-06T14:09:14Z</time>
      </trkpt>
      <trkpt lat="45.59167" lon="6.6708">
        <ele>1409</ele>
        <time>2016-02-06T14:09:18Z</time>
      </trkpt>
      <trkpt lat="45.59166" lon="6.67078">
        <ele>1409</ele>
        <time>2016-02-06T14:09:24Z</time>
      </trkpt>
      <trkpt lat="45.59168" lon="6.6708">
        <ele>1409</ele>
        <time>2016-02-06T14:09:26Z</time>
      </trkpt>
      <trkpt lat="45.5917" lon="6.67082">
        <ele>1409</ele>
        <time>2016-02-06T14:09:28Z</time>
      </trkpt>
      <trkpt lat="45.59168" lon="6.6708">
        <ele>1410</ele>
        <time>2016-02-06T14:09:31Z</time>
      </trkpt>
      <trkpt lat="45.59166" lon="6.67078">
        <ele>1409</ele>
        <time>2016-02-06T14:09:33Z</time>
      </trkpt>
      <trkpt lat="45.59164" lon="6.67077">
        <ele>1408</ele>
        <time>2016-02-06T14:09:35Z</time>
      </trkpt>
      <trkpt lat="45.59163" lon="6.67076">
        <ele>1408</ele>
        <time>2016-02-06T14:09:36Z</time>
      </trkpt>
      <trkpt lat="45.59163" lon="6.67078">
        <ele>1408</ele>
        <time>2016-02-06T14:09:41Z</time>
      </trkpt>
      <trkpt lat="45.59162" lon="6.67077">
        <ele>1408</ele>
        <time>2016-02-06T14:09:46Z</time>
      </trkpt>
      <trkpt lat="45.59159" lon="6.67073">
        <ele>1406</ele>
        <time>2016-02-06T14:09:49Z</time>
      </trkpt>
      <trkpt lat="45.59158" lon="6.67073">
        <ele>1406</ele>
        <time>2016-02-06T14:09:50Z</time>
      </trkpt>
      <trkpt lat="45.59161" lon="6.67075">
        <ele>1407</ele>
        <time>2016-02-06T14:09:53Z</time>
      </trkpt>
      <trkpt lat="45.5916" lon="6.67073">
        <ele>1406</ele>
        <time>2016-02-06T14:09:56Z</time>
      </trkpt>
      <trkpt lat="45.59159" lon="6.67071">
        <ele>1406</ele>
        <time>2016-02-06T14:09:57Z</time>
      </trkpt>
      <trkpt lat="45.5916" lon="6.67071">
        <ele>1406</ele>
        <time>2016-02-06T14:09:59Z</time>
      </trkpt>
      <trkpt lat="45.59161" lon="6.67071">
        <ele>1406</ele>
        <time>2016-02-06T14:10:00Z</time>
      </trkpt>
      <trkpt lat="45.59163" lon="6.67072">
        <ele>1406</ele>
        <time>2016-02-06T14:10:01Z</time>
      </trkpt>
      <trkpt lat="45.59164" lon="6.67073">
        <ele>1407</ele>
        <time>2016-02-06T14:10:02Z</time>
      </trkpt>
      <trkpt lat="45.59165" lon="6.67074">
        <ele>1407</ele>
        <time>2016-02-06T14:10:04Z</time>
      </trkpt>
      <trkpt lat="45.59168" lon="6.67077">
        <ele>1408</ele>
        <time>2016-02-06T14:10:07Z</time>
      </trkpt>
      <trkpt lat="45.5917" lon="6.67079">
        <ele>1409</ele>
        <time>2016-02-06T14:10:09Z</time>
      </trkpt>
      <trkpt lat="45.59172" lon="6.67081">
        <ele>1409</ele>
        <time>2016-02-06T14:10:10Z</time>
      </trkpt>
      <trkpt lat="45.59174" lon="6.67083">
        <ele>1408</ele>
        <time>2016-02-06T14:10:12Z</time>
      </trkpt>
      <trkpt lat="45.59172" lon="6.67081">
        <ele>1409</ele>
        <time>2016-02-06T14:10:15Z</time>
      </trkpt>
      <trkpt lat="45.5917" lon="6.67081">
        <ele>1409</ele>
        <time>2016-02-06T14:10:17Z</time>
      </trkpt>
      <trkpt lat="45.59168" lon="6.67081">
        <ele>1410</ele>
        <time>2016-02-06T14:10:22Z</time>
      </trkpt>
      <trkpt lat="45.59168" lon="6.67083">
        <ele>1410</ele>
        <time>2016-02-06T14:10:26Z</time>
      </trkpt>
      <trkpt lat="45.59167" lon="6.67085">
        <ele>1412</ele>
        <time>2016-02-06T14:10:28Z</time>
      </trkpt>
      <trkpt lat="45.59166" lon="6.67087">
        <ele>1413</ele>
        <time>2016-02-06T14:10:29Z</time>
      </trkpt>
      <trkpt lat="45.59164" lon="6.67088">
        <ele>1414</ele>
        <time>2016-02-06T14:10:31Z</time>
      </trkpt>
      <trkpt lat="45.59164" lon="6.67085">
        <ele>1413</ele>
        <time>2016-02-06T14:10:33Z</time>
      </trkpt>
      <trkpt lat="45.59163" lon="6.67083">
        <ele>1409</ele>
        <time>2016-02-06T14:10:35Z</time>
      </trkpt>
      <trkpt lat="45.59162" lon="6.67083">
        <ele>1409</ele>
        <time>2016-02-06T14:10:38Z</time>
      </trkpt>
      <trkpt lat="45.5916" lon="6.67081">
        <ele>1408</ele>
        <time>2016-02-06T14:10:40Z</time>
      </trkpt>
      <trkpt lat="45.59162" lon="6.67084">
        <ele>1413</ele>
        <time>2016-02-06T14:10:45Z</time>
      </trkpt>
      <trkpt lat="45.59164" lon="6.67087">
        <ele>1413</ele>
        <time>2016-02-06T14:10:46Z</time>
      </trkpt>
      <trkpt lat="45.59164" lon="6.67084">
        <ele>1413</ele>
        <time>2016-02-06T14:10:49Z</time>
      </trkpt>
      <trkpt lat="45.59161" lon="6.6708">
        <ele>1408</ele>
        <time>2016-02-06T14:10:50Z</time>
      </trkpt>
      <trkpt lat="45.59159" lon="6.67077">
        <ele>1407</ele>
        <time>2016-02-06T14:10:51Z</time>
      </trkpt>
      <trkpt lat="45.59157" lon="6.67075">
        <ele>1406</ele>
        <time>2016-02-06T14:10:52Z</time>
      </trkpt>
      <trkpt lat="45.59155" lon="6.67073">
        <ele>1405</ele>
        <time>2016-02-06T14:10:54Z</time>
      </trkpt>
      <trkpt lat="45.59154" lon="6.67071">
        <ele>1405</ele>
        <time>2016-02-06T14:10:55Z</time>
      </trkpt>
      <trkpt lat="45.59153" lon="6.67069">
        <ele>1404</ele>
        <time>2016-02-06T14:10:56Z</time>
      </trkpt>
      <trkpt lat="45.59154" lon="6.67067">
        <ele>1404</ele>
        <time>2016-02-06T14:10:58Z</time>
      </trkpt>
      <trkpt lat="45.59155" lon="6.67066">
        <ele>1404</ele>
        <time>2016-02-06T14:11:00Z</time>
      </trkpt>
      <trkpt lat="45.59157" lon="6.67067">
        <ele>1404</ele>
        <time>2016-02-06T14:11:01Z</time>
      </trkpt>
      <trkpt lat="45.59159" lon="6.67069">
        <ele>1405</ele>
        <time>2016-02-06T14:11:02Z</time>
      </trkpt>
      <trkpt lat="45.59161" lon="6.6707">
        <ele>1406</ele>
        <time>2016-02-06T14:11:03Z</time>
      </trkpt>
      <trkpt lat="45.59164" lon="6.67073">
        <ele>1407</ele>
        <time>2016-02-06T14:11:05Z</time>
      </trkpt>
      <trkpt lat="45.59163" lon="6.67071">
        <ele>1406</ele>
        <time>2016-02-06T14:11:09Z</time>
      </trkpt>
      <trkpt lat="45.59161" lon="6.67072">
        <ele>1406</ele>
        <time>2016-02-06T14:11:12Z</time>
      </trkpt>
      <trkpt lat="45.59162" lon="6.67075">
        <ele>1407</ele>
        <time>2016-02-06T14:11:13Z</time>
      </trkpt>
      <trkpt lat="45.59163" lon="6.67076">
        <ele>1408</ele>
        <time>2016-02-06T14:11:14Z</time>
      </trkpt>
      <trkpt lat="45.59166" lon="6.67078">
        <ele>1409</ele>
        <time>2016-02-06T14:11:15Z</time>
      </trkpt>
      <trkpt lat="45.59167" lon="6.67079">
        <ele>1409</ele>
        <time>2016-02-06T14:11:16Z</time>
      </trkpt>
      <trkpt lat="45.59168" lon="6.67078">
        <ele>1409</ele>
        <time>2016-02-06T14:11:17Z</time>
      </trkpt>
      <trkpt lat="45.5917" lon="6.67079">
        <ele>1409</ele>
        <time>2016-02-06T14:11:18Z</time>
      </trkpt>
      <trkpt lat="45.59168" lon="6.67078">
        <ele>1409</ele>
        <time>2016-02-06T14:11:22Z</time>
      </trkpt>
      <trkpt lat="45.59167" lon="6.67079">
        <ele>1409</ele>
        <time>2016-02-06T14:11:23Z</time>
      </trkpt>
      <trkpt lat="45.59166" lon="6.67079">
        <ele>1409</ele>
        <time>2016-02-06T14:11:24Z</time>
      </trkpt>
      <trkpt lat="45.59164" lon="6.6708">
        <ele>1409</ele>
        <time>2016-02-06T14:11:25Z</time>
      </trkpt>
      <trkpt lat="45.59164" lon="6.67082">
        <ele>1410</ele>
        <time>2016-02-06T14:11:26Z</time>
      </trkpt>
      <trkpt lat="45.59164" lon="6.67084">
        <ele>1413</ele>
        <time>2016-02-06T14:11:27Z</time>
      </trkpt>
      <trkpt lat="45.59164" lon="6.67087">
        <ele>1413</ele>
        <time>2016-02-06T14:11:29Z</time>
      </trkpt>
      <trkpt lat="45.59167" lon="6.6709">
        <ele>1415</ele>
        <time>2016-02-06T14:11:30Z</time>
      </trkpt>
      <trkpt lat="45.59169" lon="6.67091">
        <ele>1416</ele>
        <time>2016-02-06T14:11:31Z</time>
      </trkpt>
      <trkpt lat="45.59169" lon="6.67088">
        <ele>1415</ele>
        <time>2016-02-06T14:11:33Z</time>
      </trkpt>
      <trkpt lat="45.59171" lon="6.67089">
        <ele>1415</ele>
        <time>2016-02-06T14:11:34Z</time>
      </trkpt>
      <trkpt lat="45.59172" lon="6.6709">
        <ele>1416</ele>
        <time>2016-02-06T14:11:35Z</time>
      </trkpt>
      <trkpt lat="45.59173" lon="6.67091">
        <ele>1417</ele>
        <time>2016-02-06T14:11:36Z</time>
      </trkpt>
      <trkpt lat="45.59174" lon="6.67091">
        <ele>1417</ele>
        <time>2016-02-06T14:11:37Z</time>
      </trkpt>
      <trkpt lat="45.59173" lon="6.67089">
        <ele>1416</ele>
        <time>2016-02-06T14:11:41Z</time>
      </trkpt>
      <trkpt lat="45.59172" lon="6.67088">
        <ele>1415</ele>
        <time>2016-02-06T14:11:42Z</time>
      </trkpt>
      <trkpt lat="45.59171" lon="6.67085">
        <ele>1414</ele>
        <time>2016-02-06T14:11:45Z</time>
      </trkpt>
      <trkpt lat="45.59172" lon="6.67086">
        <ele>1415</ele>
        <time>2016-02-06T14:11:50Z</time>
      </trkpt>
      <trkpt lat="45.5917" lon="6.67084">
        <ele>1413</ele>
        <time>2016-02-06T14:11:52Z</time>
      </trkpt>
      <trkpt lat="45.59167" lon="6.67081">
        <ele>1410</ele>
        <time>2016-02-06T14:11:53Z</time>
      </trkpt>
      <trkpt lat="45.59166" lon="6.6708">
        <ele>1409</ele>
        <time>2016-02-06T14:11:54Z</time>
      </trkpt>
      <trkpt lat="45.59164" lon="6.67078">
        <ele>1409</ele>
        <time>2016-02-06T14:11:55Z</time>
      </trkpt>
      <trkpt lat="45.59167" lon="6.6708">
        <ele>1410</ele>
        <time>2016-02-06T14:11:56Z</time>
      </trkpt>
      <trkpt lat="45.59169" lon="6.67083">
        <ele>1410</ele>
        <time>2016-02-06T14:11:58Z</time>
      </trkpt>
      <trkpt lat="45.59171" lon="6.67085">
        <ele>1414</ele>
        <time>2016-02-06T14:11:59Z</time>
      </trkpt>
      <trkpt lat="45.59172" lon="6.67086">
        <ele>1415</ele>
        <time>2016-02-06T14:12:00Z</time>
      </trkpt>
      <trkpt lat="45.59175" lon="6.67088">
        <ele>1417</ele>
        <time>2016-02-06T14:12:07Z</time>
      </trkpt>
      <trkpt lat="45.59177" lon="6.6709">
        <ele>1418</ele>
        <time>2016-02-06T14:12:10Z</time>
      </trkpt>
      <trkpt lat="45.59174" lon="6.67088">
        <ele>1416</ele>
        <time>2016-02-06T14:12:14Z</time>
      </trkpt>
      <trkpt lat="45.59172" lon="6.67085">
        <ele>1415</ele>
        <time>2016-02-06T14:12:16Z</time>
      </trkpt>
      <trkpt lat="45.59172" lon="6.67084">
        <ele>1414</ele>
        <time>2016-02-06T14:12:23Z</time>
      </trkpt>
      <trkpt lat="45.59173" lon="6.67085">
        <ele>1415</ele>
        <time>2016-02-06T14:12:25Z</time>
      </trkpt>
      <trkpt lat="45.59176" lon="6.67087">
        <ele>1417</ele>
        <time>2016-02-06T14:12:27Z</time>
      </trkpt>
      <trkpt lat="45.59177" lon="6.67088">
        <ele>1417</ele>
        <time>2016-02-06T14:12:28Z</time>
      </trkpt>
      <trkpt lat="45.59179" lon="6.67089">
        <ele>1418</ele>
        <time>2016-02-06T14:12:29Z</time>
      </trkpt>
      <trkpt lat="45.5918" lon="6.67091">
        <ele>1419</ele>
        <time>2016-02-06T14:12:31Z</time>
      </trkpt>
      <trkpt lat="45.59179" lon="6.67091">
        <ele>1419</ele>
        <time>2016-02-06T14:12:34Z</time>
      </trkpt>
      <trkpt lat="45.59177" lon="6.6709">
        <ele>1418</ele>
        <time>2016-02-06T14:12:37Z</time>
      </trkpt>
      <trkpt lat="45.59178" lon="6.67091">
        <ele>1418</ele>
        <time>2016-02-06T14:12:40Z</time>
      </trkpt>
      <trkpt lat="45.59177" lon="6.6709">
        <ele>1418</ele>
        <time>2016-02-06T14:12:45Z</time>
      </trkpt>
      <trkpt lat="45.59175" lon="6.67088">
        <ele>1417</ele>
        <time>2016-02-06T14:12:46Z</time>
      </trkpt>
      <trkpt lat="45.59174" lon="6.67087">
        <ele>1416</ele>
        <time>2016-02-06T14:12:47Z</time>
      </trkpt>
      <trkpt lat="45.59172" lon="6.67085">
        <ele>1415</ele>
        <time>2016-02-06T14:12:49Z</time>
      </trkpt>
      <trkpt lat="45.5917" lon="6.67083">
        <ele>1409</ele>
        <time>2016-02-06T14:12:50Z</time>
      </trkpt>
      <trkpt lat="45.59168" lon="6.67083">
        <ele>1410</ele>
        <time>2016-02-06T14:12:55Z</time>
      </trkpt>
      <trkpt lat="45.59167" lon="6.67082">
        <ele>1410</ele>
        <time>2016-02-06T14:12:57Z</time>
      </trkpt>
      <trkpt lat="45.59164" lon="6.6708">
        <ele>1409</ele>
        <time>2016-02-06T14:13:00Z</time>
      </trkpt>
      <trkpt lat="45.59162" lon="6.67077">
        <ele>1408</ele>
        <time>2016-02-06T14:13:01Z</time>
      </trkpt>
      <trkpt lat="45.59163" lon="6.67078">
        <ele>1408</ele>
        <time>2016-02-06T14:13:03Z</time>
      </trkpt>
      <trkpt lat="45.59165" lon="6.67079">
        <ele>1409</ele>
        <time>2016-02-06T14:13:06Z</time>
      </trkpt>
      <trkpt lat="45.59166" lon="6.67079">
        <ele>1409</ele>
        <time>2016-02-06T14:13:07Z</time>
      </trkpt>
      <trkpt lat="45.59167" lon="6.6708">
        <ele>1409</ele>
        <time>2016-02-06T14:13:08Z</time>
      </trkpt>
      <trkpt lat="45.59166" lon="6.67078">
        <ele>1408</ele>
        <time>2016-02-06T14:13:11Z</time>
      </trkpt>
      <trkpt lat="45.59164" lon="6.67076">
        <ele>1408</ele>
        <time>2016-02-06T14:13:16Z</time>
      </trkpt>
      <trkpt lat="45.59165" lon="6.67077">
        <ele>1408</ele>
        <time>2016-02-06T14:13:22Z</time>
      </trkpt>
      <trkpt lat="45.59166" lon="6.67079">
        <ele>1409</ele>
        <time>2016-02-06T14:13:25Z</time>
      </trkpt>
      <trkpt lat="45.59167" lon="6.6708">
        <ele>1410</ele>
        <time>2016-02-06T14:13:27Z</time>
      </trkpt>
      <trkpt lat="45.59169" lon="6.67082">
        <ele>1410</ele>
        <time>2016-02-06T14:13:30Z</time>
      </trkpt>
      <trkpt lat="45.59169" lon="6.67084">
        <ele>1412</ele>
        <time>2016-02-06T14:13:39Z</time>
      </trkpt>
      <trkpt lat="45.59169" lon="6.67086">
        <ele>1413</ele>
        <time>2016-02-06T14:13:48Z</time>
      </trkpt>
      <trkpt lat="45.5917" lon="6.67087">
        <ele>1414</ele>
        <time>2016-02-06T14:13:51Z</time>
      </trkpt>
      <trkpt lat="45.59171" lon="6.67089">
        <ele>1415</ele>
        <time>2016-02-06T14:13:55Z</time>
      </trkpt>
      <trkpt lat="45.59169" lon="6.67088">
        <ele>1414</ele>
        <time>2016-02-06T14:13:57Z</time>
      </trkpt>
      <trkpt lat="45.59166" lon="6.67084">
        <ele>1412</ele>
        <time>2016-02-06T14:13:59Z</time>
      </trkpt>
      <trkpt lat="45.59165" lon="6.67083">
        <ele>1410</ele>
        <time>2016-02-06T14:14:00Z</time>
      </trkpt>
      <trkpt lat="45.59163" lon="6.67082">
        <ele>1409</ele>
        <time>2016-02-06T14:14:02Z</time>
      </trkpt>
      <trkpt lat="45.59164" lon="6.6708">
        <ele>1409</ele>
        <time>2016-02-06T14:14:12Z</time>
      </trkpt>
      <trkpt lat="45.59161" lon="6.67076">
        <ele>1407</ele>
        <time>2016-02-06T14:14:16Z</time>
      </trkpt>
      <trkpt lat="45.5916" lon="6.67075">
        <ele>1407</ele>
        <time>2016-02-06T14:14:18Z</time>
      </trkpt>
      <trkpt lat="45.59159" lon="6.67073">
        <ele>1406</ele>
        <time>2016-02-06T14:14:20Z</time>
      </trkpt>
      <trkpt lat="45.59157" lon="6.67071">
        <ele>1405</ele>
        <time>2016-02-06T14:14:25Z</time>
      </trkpt>
      <trkpt lat="45.59158" lon="6.67072">
        <ele>1406</ele>
        <time>2016-02-06T14:14:31Z</time>
      </trkpt>
      <trkpt lat="45.5916" lon="6.67074">
        <ele>1406</ele>
        <time>2016-02-06T14:14:33Z</time>
      </trkpt>
      <trkpt lat="45.59162" lon="6.67076">
        <ele>1407</ele>
        <time>2016-02-06T14:14:34Z</time>
      </trkpt>
      <trkpt lat="45.59164" lon="6.67077">
        <ele>1408</ele>
        <time>2016-02-06T14:14:35Z</time>
      </trkpt>
      <trkpt lat="45.59164" lon="6.67076">
        <ele>1408</ele>
        <time>2016-02-06T14:14:40Z</time>
      </trkpt>
      <trkpt lat="45.59165" lon="6.67076">
        <ele>1408</ele>
        <time>2016-02-06T14:14:43Z</time>
      </trkpt>
      <trkpt lat="45.59164" lon="6.67076">
        <ele>1408</ele>
        <time>2016-02-06T14:14:50Z</time>
      </trkpt>
      <trkpt lat="45.59165" lon="6.67075">
        <ele>1407</ele>
        <time>2016-02-06T14:14:54Z</time>
      </trkpt>
      <trkpt lat="45.59167" lon="6.67075">
        <ele>1408</ele>
        <time>2016-02-06T14:14:57Z</time>
      </trkpt>
      <trkpt lat="45.59165" lon="6.67076">
        <ele>1408</ele>
        <time>2016-02-06T14:15:02Z</time>
      </trkpt>
      <trkpt lat="45.59164" lon="6.67077">
        <ele>1408</ele>
        <time>2016-02-06T14:15:05Z</time>
      </trkpt>
      <trkpt lat="45.59162" lon="6.67076">
        <ele>1408</ele>
        <time>2016-02-06T14:15:06Z</time>
      </trkpt>
      <trkpt lat="45.59164" lon="6.67078">
        <ele>1408</ele>
        <time>2016-02-06T14:15:08Z</time>
      </trkpt>
      <trkpt lat="45.59165" lon="6.67079">
        <ele>1409</ele>
        <time>2016-02-06T14:15:10Z</time>
      </trkpt>
      <trkpt lat="45.59164" lon="6.6708">
        <ele>1409</ele>
        <time>2016-02-06T14:15:13Z</time>
      </trkpt>
      <trkpt lat="45.59165" lon="6.67079">
        <ele>1409</ele>
        <time>2016-02-06T14:15:19Z</time>
      </trkpt>
      <trkpt lat="45.59168" lon="6.67079">
        <ele>1409</ele>
        <time>2016-02-06T14:15:20Z</time>
      </trkpt>
      <trkpt lat="45.5917" lon="6.6708">
        <ele>1409</ele>
        <time>2016-02-06T14:15:21Z</time>
      </trkpt>
      <trkpt lat="45.59172" lon="6.67082">
        <ele>1409</ele>
        <time>2016-02-06T14:15:23Z</time>
      </trkpt>
      <trkpt lat="45.59175" lon="6.67082">
        <ele>1408</ele>
        <time>2016-02-06T14:15:25Z</time>
      </trkpt>
      <trkpt lat="45.59177" lon="6.67084">
        <ele>1417</ele>
        <time>2016-02-06T14:15:27Z</time>
      </trkpt>
      <trkpt lat="45.59181" lon="6.67086">
        <ele>1419</ele>
        <time>2016-02-06T14:15:33Z</time>
      </trkpt>
      <trkpt lat="45.5918" lon="6.67086">
        <ele>1418</ele>
        <time>2016-02-06T14:15:35Z</time>
      </trkpt>
      <trkpt lat="45.59178" lon="6.67083">
        <ele>1407</ele>
        <time>2016-02-06T14:15:38Z</time>
      </trkpt>
      <trkpt lat="45.59176" lon="6.67082">
        <ele>1407</ele>
        <time>2016-02-06T14:15:39Z</time>
      </trkpt>
      <trkpt lat="45.59174" lon="6.67081">
        <ele>1408</ele>
        <time>2016-02-06T14:15:41Z</time>
      </trkpt>
      <trkpt lat="45.59172" lon="6.67081">
        <ele>1409</ele>
        <time>2016-02-06T14:15:42Z</time>
      </trkpt>
      <trkpt lat="45.59172" lon="6.67079">
        <ele>1408</ele>
        <time>2016-02-06T14:15:43Z</time>
      </trkpt>
      <trkpt lat="45.59174" lon="6.67077">
        <ele>1407</ele>
        <time>2016-02-06T14:15:45Z</time>
      </trkpt>
      <trkpt lat="45.59175" lon="6.67075">
        <ele>1407</ele>
        <time>2016-02-06T14:15:46Z</time>
      </trkpt>
      <trkpt lat="45.59176" lon="6.67075">
        <ele>1406</ele>
        <time>2016-02-06T14:15:48Z</time>
      </trkpt>
      <trkpt lat="45.59175" lon="6.67078">
        <ele>1407</ele>
        <time>2016-02-06T14:15:50Z</time>
      </trkpt>
      <trkpt lat="45.59173" lon="6.67078">
        <ele>1408</ele>
        <time>2016-02-06T14:15:53Z</time>
      </trkpt>
      <trkpt lat="45.59173" lon="6.6708">
        <ele>1408</ele>
        <time>2016-02-06T14:15:54Z</time>
      </trkpt>
      <trkpt lat="45.59173" lon="6.67082">
        <ele>1408</ele>
        <time>2016-02-06T14:15:55Z</time>
      </trkpt>
      <trkpt lat="45.59173" lon="6.67084">
        <ele>1415</ele>
        <time>2016-02-06T14:15:56Z</time>
      </trkpt>
      <trkpt lat="45.59173" lon="6.67086">
        <ele>1415</ele>
        <time>2016-02-06T14:15:58Z</time>
      </trkpt>
      <trkpt lat="45.59173" lon="6.67088">
        <ele>1416</ele>
        <time>2016-02-06T14:16:00Z</time>
      </trkpt>
      <trkpt lat="45.59174" lon="6.67089">
        <ele>1417</ele>
        <time>2016-02-06T14:16:02Z</time>
      </trkpt>
      <trkpt lat="45.59175" lon="6.67091">
        <ele>1417</ele>
        <time>2016-02-06T14:16:04Z</time>
      </trkpt>
      <trkpt lat="45.59174" lon="6.67093">
        <ele>1418</ele>
        <time>2016-02-06T14:16:08Z</time>
      </trkpt>
      <trkpt lat="45.59175" lon="6.67093">
        <ele>1418</ele>
        <time>2016-02-06T14:16:17Z</time>
      </trkpt>
      <trkpt lat="45.59176" lon="6.67094">
        <ele>1419</ele>
        <time>2016-02-06T14:16:23Z</time>
      </trkpt>
      <trkpt lat="45.59177" lon="6.67095">
        <ele>1419</ele>
        <time>2016-02-06T14:16:27Z</time>
      </trkpt>
      <trkpt lat="45.59177" lon="6.67097">
        <ele>1420</ele>
        <time>2016-02-06T14:16:33Z</time>
      </trkpt>
      <trkpt lat="45.59179" lon="6.67098">
        <ele>1420</ele>
        <time>2016-02-06T14:16:38Z</time>
      </trkpt>
      <trkpt lat="45.59177" lon="6.67097">
        <ele>1420</ele>
        <time>2016-02-06T14:16:45Z</time>
      </trkpt>
      <trkpt lat="45.59176" lon="6.67096">
        <ele>1420</ele>
        <time>2016-02-06T14:16:48Z</time>
      </trkpt>
      <trkpt lat="45.59174" lon="6.67096">
        <ele>1419</ele>
        <time>2016-02-06T14:16:52Z</time>
      </trkpt>
      <trkpt lat="45.59173" lon="6.67097">
        <ele>1419</ele>
        <time>2016-02-06T14:16:54Z</time>
      </trkpt>
      <trkpt lat="45.59172" lon="6.67099">
        <ele>1420</ele>
        <time>2016-02-06T14:16:57Z</time>
      </trkpt>
      <trkpt lat="45.59173" lon="6.67098">
        <ele>1420</ele>
        <time>2016-02-06T14:17:04Z</time>
      </trkpt>
      <trkpt lat="45.59175" lon="6.67098">
        <ele>1420</ele>
        <time>2016-02-06T14:17:06Z</time>
      </trkpt>
      <trkpt lat="45.59177" lon="6.67098">
        <ele>1420</ele>
        <time>2016-02-06T14:17:08Z</time>
      </trkpt>
      <trkpt lat="45.59176" lon="6.671">
        <ele>1421</ele>
        <time>2016-02-06T14:17:10Z</time>
      </trkpt>
      <trkpt lat="45.59174" lon="6.67101">
        <ele>1421</ele>
        <time>2016-02-06T14:17:12Z</time>
      </trkpt>
      <trkpt lat="45.59172" lon="6.67101">
        <ele>1421</ele>
        <time>2016-02-06T14:17:14Z</time>
      </trkpt>
      <trkpt lat="45.59171" lon="6.67102">
        <ele>1421</ele>
        <time>2016-02-06T14:17:16Z</time>
      </trkpt>
      <trkpt lat="45.5917" lon="6.67101">
        <ele>1421</ele>
        <time>2016-02-06T14:17:18Z</time>
      </trkpt>
      <trkpt lat="45.59169" lon="6.671">
        <ele>1420</ele>
        <time>2016-02-06T14:17:20Z</time>
      </trkpt>
      <trkpt lat="45.59167" lon="6.671">
        <ele>1420</ele>
        <time>2016-02-06T14:17:23Z</time>
      </trkpt>
      <trkpt lat="45.59166" lon="6.67099">
        <ele>1418</ele>
        <time>2016-02-06T14:17:26Z</time>
      </trkpt>
      <trkpt lat="45.59164" lon="6.67098">
        <ele>1418</ele>
        <time>2016-02-06T14:17:28Z</time>
      </trkpt>
      <trkpt lat="45.59163" lon="6.67097">
        <ele>1418</ele>
        <time>2016-02-06T14:17:31Z</time>
      </trkpt>
      <trkpt lat="45.59164" lon="6.67095">
        <ele>1417</ele>
        <time>2016-02-06T14:17:34Z</time>
      </trkpt>
      <trkpt lat="45.59164" lon="6.67093">
        <ele>1416</ele>
        <time>2016-02-06T14:17:36Z</time>
      </trkpt>
      <trkpt lat="45.59164" lon="6.67091">
        <ele>1415</ele>
        <time>2016-02-06T14:17:38Z</time>
      </trkpt>
      <trkpt lat="45.59163" lon="6.67088">
        <ele>1414</ele>
        <time>2016-02-06T14:17:41Z</time>
      </trkpt>
      <trkpt lat="45.59164" lon="6.67087">
        <ele>1413</ele>
        <time>2016-02-06T14:17:50Z</time>
      </trkpt>
      <trkpt lat="45.59162" lon="6.67086">
        <ele>1414</ele>
        <time>2016-02-06T14:17:52Z</time>
      </trkpt>
      <trkpt lat="45.59161" lon="6.67086">
        <ele>1414</ele>
        <time>2016-02-06T14:17:53Z</time>
      </trkpt>
      <trkpt lat="45.5916" lon="6.67085">
        <ele>1414</ele>
        <time>2016-02-06T14:17:55Z</time>
      </trkpt>
      <trkpt lat="45.5916" lon="6.67083">
        <ele>1408</ele>
        <time>2016-02-06T14:17:57Z</time>
      </trkpt>
      <trkpt lat="45.5916" lon="6.67081">
        <ele>1408</ele>
        <time>2016-02-06T14:18:00Z</time>
      </trkpt>
      <trkpt lat="45.5916" lon="6.67084">
        <ele>1414</ele>
        <time>2016-02-06T14:18:04Z</time>
      </trkpt>
      <trkpt lat="45.59161" lon="6.67083">
        <ele>1409</ele>
        <time>2016-02-06T14:18:06Z</time>
      </trkpt>
      <trkpt lat="45.5916" lon="6.67084">
        <ele>1414</ele>
        <time>2016-02-06T14:18:08Z</time>
      </trkpt>
      <trkpt lat="45.59167" lon="6.67085">
        <ele>1412</ele>
        <time>2016-02-06T14:18:14Z</time>
      </trkpt>
      <trkpt lat="45.5917" lon="6.67082">
        <ele>1409</ele>
        <time>2016-02-06T14:18:17Z</time>
      </trkpt>
      <trkpt lat="45.59169" lon="6.6708">
        <ele>1409</ele>
        <time>2016-02-06T14:18:18Z</time>
      </trkpt>
      <trkpt lat="45.5917" lon="6.67078">
        <ele>1408</ele>
        <time>2016-02-06T14:18:19Z</time>
      </trkpt>
      <trkpt lat="45.59171" lon="6.67076">
        <ele>1408</ele>
        <time>2016-02-06T14:18:20Z</time>
      </trkpt>
      <trkpt lat="45.59171" lon="6.67074">
        <ele>1407</ele>
        <time>2016-02-06T14:18:22Z</time>
      </trkpt>
      <trkpt lat="45.59172" lon="6.67076">
        <ele>1407</ele>
        <time>2016-02-06T14:18:26Z</time>
      </trkpt>
      <trkpt lat="45.59172" lon="6.67074">
        <ele>1407</ele>
        <time>2016-02-06T14:18:27Z</time>
      </trkpt>
      <trkpt lat="45.59175" lon="6.67076">
        <ele>1407</ele>
        <time>2016-02-06T14:18:32Z</time>
      </trkpt>
      <trkpt lat="45.59177" lon="6.67078">
        <ele>1407</ele>
        <time>2016-02-06T14:18:34Z</time>
      </trkpt>
      <trkpt lat="45.59178" lon="6.67078">
        <ele>1406</ele>
        <time>2016-02-06T14:18:35Z</time>
      </trkpt>
      <trkpt lat="45.59178" lon="6.67081">
        <ele>1407</ele>
        <time>2016-02-06T14:18:37Z</time>
      </trkpt>
      <trkpt lat="45.59178" lon="6.67083">
        <ele>1407</ele>
        <time>2016-02-06T14:18:40Z</time>
      </trkpt>
      <trkpt lat="45.59177" lon="6.67085">
        <ele>1417</ele>
        <time>2016-02-06T14:18:42Z</time>
      </trkpt>
      <trkpt lat="45.59176" lon="6.67084">
        <ele>1417</ele>
        <time>2016-02-06T14:19:06Z</time>
      </trkpt>
      <trkpt lat="45.59175" lon="6.67082">
        <ele>1408</ele>
        <time>2016-02-06T14:19:07Z</time>
      </trkpt>
      <trkpt lat="45.59173" lon="6.6708">
        <ele>1408</ele>
        <time>2016-02-06T14:19:08Z</time>
      </trkpt>
      <trkpt lat="45.59172" lon="6.67083">
        <ele>1409</ele>
        <time>2016-02-06T14:19:10Z</time>
      </trkpt>
      <trkpt lat="45.59171" lon="6.67085">
        <ele>1414</ele>
        <time>2016-02-06T14:19:11Z</time>
      </trkpt>
      <trkpt lat="45.59171" lon="6.67085">
        <ele>1414</ele>
        <time>2016-02-06T14:19:11Z</time>
      </trkpt>
    </trkseg>
  </trk>
</gpx>